<?xml version="1.0" encoding="UTF-8" standalone="no" ?>
<gpx xmlns="http://www.topografix.com/GPX/1/1" xmlns:xsi="http://www.w3.org/2001/XMLSchema-instance" xsi:schemaLocation="http://www.topografix.com/GPX/1/1 http://www.topografix.com/GPX/1/1/gpx.xsd" version="1.1" creator="VisuGPX - https://www.visugpx.com">
  <metadata>
    <name>RoadTrip Moto Ecosse Juin 2021</name>
  </metadata>
  <trk>
    <name><![CDATA[J08 - Hartfield Cave, Applecross]]></name>
    <trkseg>
      <trkpt lat="57.45234" lon="-5.79898">
        <ele>19.18</ele>
        <time>2021-03-20T14:16:15Z</time>
      </trkpt>
      <trkpt lat="57.45219" lon="-5.79895">
        <ele>18.99</ele>
        <time>2021-03-20T14:16:29Z</time>
      </trkpt>
      <trkpt lat="57.45155" lon="-5.79869">
        <ele>15.58</ele>
        <time>2021-03-20T14:16:43Z</time>
      </trkpt>
      <trkpt lat="57.45067" lon="-5.79843">
        <ele>13.8</ele>
        <time>2021-03-20T14:16:58Z</time>
      </trkpt>
      <trkpt lat="57.45035" lon="-5.79848">
        <ele>14.23</ele>
        <time>2021-03-20T14:17:12Z</time>
      </trkpt>
      <trkpt lat="57.44965" lon="-5.7991">
        <ele>14.23</ele>
        <time>2021-03-20T14:17:27Z</time>
      </trkpt>
      <trkpt lat="57.44828" lon="-5.80062">
        <ele>10.59</ele>
        <time>2021-03-20T14:17:41Z</time>
      </trkpt>
      <trkpt lat="57.44806" lon="-5.80088">
        <ele>9.03</ele>
        <time>2021-03-20T14:17:55Z</time>
      </trkpt>
      <trkpt lat="57.4479" lon="-5.80113">
        <ele>10.11</ele>
        <time>2021-03-20T14:18:10Z</time>
      </trkpt>
      <trkpt lat="57.44767" lon="-5.80153">
        <ele>10.25</ele>
        <time>2021-03-20T14:18:24Z</time>
      </trkpt>
      <trkpt lat="57.44717" lon="-5.80274">
        <ele>11.61</ele>
        <time>2021-03-20T14:18:39Z</time>
      </trkpt>
      <trkpt lat="57.44699" lon="-5.80346">
        <ele>11.23</ele>
        <time>2021-03-20T14:18:53Z</time>
      </trkpt>
      <trkpt lat="57.44691" lon="-5.80403">
        <ele>9.63</ele>
        <time>2021-03-20T14:19:07Z</time>
      </trkpt>
      <trkpt lat="57.44681" lon="-5.80499">
        <ele>7.02</ele>
        <time>2021-03-20T14:19:22Z</time>
      </trkpt>
      <trkpt lat="57.44664" lon="-5.80559">
        <ele>8.1</ele>
        <time>2021-03-20T14:19:36Z</time>
      </trkpt>
      <trkpt lat="57.44646" lon="-5.80596">
        <ele>8.76</ele>
        <time>2021-03-20T14:19:51Z</time>
      </trkpt>
      <trkpt lat="57.44574" lon="-5.80715">
        <ele>8.98</ele>
        <time>2021-03-20T14:20:05Z</time>
      </trkpt>
      <trkpt lat="57.4451" lon="-5.80813">
        <ele>6.74</ele>
        <time>2021-03-20T14:20:19Z</time>
      </trkpt>
      <trkpt lat="57.44363" lon="-5.81001">
        <ele>4.96</ele>
        <time>2021-03-20T14:20:34Z</time>
      </trkpt>
      <trkpt lat="57.4433" lon="-5.81047">
        <ele>3</ele>
        <time>2021-03-20T14:20:48Z</time>
      </trkpt>
      <trkpt lat="57.44352" lon="-5.81111">
        <ele>3.68</ele>
        <time>2021-03-20T14:20:52Z</time>
      </trkpt>
      <trkpt lat="57.44362" lon="-5.81147">
        <ele>4</ele>
        <time>2021-03-20T14:20:56Z</time>
      </trkpt>
      <trkpt lat="57.44374" lon="-5.81207">
        <ele>4.46</ele>
        <time>2021-03-20T14:20:59Z</time>
      </trkpt>
      <trkpt lat="57.44382" lon="-5.81258">
        <ele>4.77</ele>
        <time>2021-03-20T14:21:03Z</time>
      </trkpt>
      <trkpt lat="57.44386" lon="-5.81295">
        <ele>4.96</ele>
        <time>2021-03-20T14:21:06Z</time>
      </trkpt>
      <trkpt lat="57.44392" lon="-5.8139">
        <ele>4.13</ele>
        <time>2021-03-20T14:21:10Z</time>
      </trkpt>
      <trkpt lat="57.44412" lon="-5.8177">
        <ele>12.77</ele>
        <time>2021-03-20T14:21:14Z</time>
      </trkpt>
      <trkpt lat="57.4442" lon="-5.81869">
        <ele>15.06</ele>
        <time>2021-03-20T14:21:17Z</time>
      </trkpt>
      <trkpt lat="57.44423" lon="-5.81926">
        <ele>16.37</ele>
        <time>2021-03-20T14:21:21Z</time>
      </trkpt>
      <trkpt lat="57.44423" lon="-5.82009">
        <ele>17.82</ele>
        <time>2021-03-20T14:21:25Z</time>
      </trkpt>
      <trkpt lat="57.44418" lon="-5.82081">
        <ele>22.03</ele>
        <time>2021-03-20T14:21:28Z</time>
      </trkpt>
      <trkpt lat="57.44409" lon="-5.8217">
        <ele>25.24</ele>
        <time>2021-03-20T14:21:32Z</time>
      </trkpt>
      <trkpt lat="57.44396" lon="-5.82236">
        <ele>23.4</ele>
        <time>2021-03-20T14:21:36Z</time>
      </trkpt>
      <trkpt lat="57.44331" lon="-5.82488">
        <ele>24.53</ele>
        <time>2021-03-20T14:21:39Z</time>
      </trkpt>
      <trkpt lat="57.44318" lon="-5.82544">
        <ele>26.76</ele>
        <time>2021-03-20T14:21:43Z</time>
      </trkpt>
      <trkpt lat="57.44307" lon="-5.82599">
        <ele>31.06</ele>
        <time>2021-03-20T14:21:47Z</time>
      </trkpt>
      <trkpt lat="57.44224" lon="-5.83083">
        <ele>30.75</ele>
        <time>2021-03-20T14:21:50Z</time>
      </trkpt>
      <trkpt lat="57.44215" lon="-5.83163">
        <ele>30.98</ele>
        <time>2021-03-20T14:21:54Z</time>
      </trkpt>
      <trkpt lat="57.44212" lon="-5.83197">
        <ele>31.17</ele>
        <time>2021-03-20T14:21:57Z</time>
      </trkpt>
      <trkpt lat="57.44211" lon="-5.83236">
        <ele>32.07</ele>
        <time>2021-03-20T14:22:01Z</time>
      </trkpt>
      <trkpt lat="57.44215" lon="-5.83384">
        <ele>37.61</ele>
        <time>2021-03-20T14:22:05Z</time>
      </trkpt>
      <trkpt lat="57.44214" lon="-5.83437">
        <ele>36.25</ele>
        <time>2021-03-20T14:22:08Z</time>
      </trkpt>
      <trkpt lat="57.4421" lon="-5.83477">
        <ele>34.04</ele>
        <time>2021-03-20T14:22:12Z</time>
      </trkpt>
      <trkpt lat="57.44204" lon="-5.83513">
        <ele>32.75</ele>
        <time>2021-03-20T14:22:16Z</time>
      </trkpt>
      <trkpt lat="57.44174" lon="-5.83632">
        <ele>29.63</ele>
        <time>2021-03-20T14:22:19Z</time>
      </trkpt>
      <trkpt lat="57.44163" lon="-5.83686">
        <ele>30.36</ele>
        <time>2021-03-20T14:22:23Z</time>
      </trkpt>
      <trkpt lat="57.44156" lon="-5.83737">
        <ele>31.27</ele>
        <time>2021-03-20T14:22:27Z</time>
      </trkpt>
      <trkpt lat="57.44155" lon="-5.83783">
        <ele>32.49</ele>
        <time>2021-03-20T14:22:30Z</time>
      </trkpt>
      <trkpt lat="57.44156" lon="-5.83942">
        <ele>33.47</ele>
        <time>2021-03-20T14:22:34Z</time>
      </trkpt>
      <trkpt lat="57.44155" lon="-5.84001">
        <ele>31.81</ele>
        <time>2021-03-20T14:22:37Z</time>
      </trkpt>
      <trkpt lat="57.4415" lon="-5.84063">
        <ele>27.79</ele>
        <time>2021-03-20T14:22:41Z</time>
      </trkpt>
      <trkpt lat="57.44133" lon="-5.84191">
        <ele>25.42</ele>
        <time>2021-03-20T14:22:45Z</time>
      </trkpt>
      <trkpt lat="57.44131" lon="-5.84235">
        <ele>24.1</ele>
        <time>2021-03-20T14:22:48Z</time>
      </trkpt>
      <trkpt lat="57.44131" lon="-5.84273">
        <ele>23.06</ele>
        <time>2021-03-20T14:22:52Z</time>
      </trkpt>
      <trkpt lat="57.44135" lon="-5.84315">
        <ele>24.45</ele>
        <time>2021-03-20T14:22:56Z</time>
      </trkpt>
      <trkpt lat="57.44145" lon="-5.84378">
        <ele>28.76</ele>
        <time>2021-03-20T14:22:59Z</time>
      </trkpt>
      <trkpt lat="57.4419" lon="-5.84596">
        <ele>29.47</ele>
        <time>2021-03-20T14:23:03Z</time>
      </trkpt>
      <trkpt lat="57.44199" lon="-5.84655">
        <ele>24.52</ele>
        <time>2021-03-20T14:23:07Z</time>
      </trkpt>
      <trkpt lat="57.44205" lon="-5.8472">
        <ele>21.91</ele>
        <time>2021-03-20T14:23:10Z</time>
      </trkpt>
      <trkpt lat="57.44208" lon="-5.84779">
        <ele>20.28</ele>
        <time>2021-03-20T14:23:14Z</time>
      </trkpt>
      <trkpt lat="57.44212" lon="-5.84959">
        <ele>26.08</ele>
        <time>2021-03-20T14:23:18Z</time>
      </trkpt>
      <trkpt lat="57.44216" lon="-5.85031">
        <ele>27.59</ele>
        <time>2021-03-20T14:23:21Z</time>
      </trkpt>
      <trkpt lat="57.44221" lon="-5.85076">
        <ele>27.24</ele>
        <time>2021-03-20T14:23:25Z</time>
      </trkpt>
      <trkpt lat="57.44229" lon="-5.85126">
        <ele>25.83</ele>
        <time>2021-03-20T14:23:28Z</time>
      </trkpt>
      <trkpt lat="57.44242" lon="-5.85182">
        <ele>25.25</ele>
        <time>2021-03-20T14:23:32Z</time>
      </trkpt>
      <trkpt lat="57.44262" lon="-5.85242">
        <ele>26.45</ele>
        <time>2021-03-20T14:23:36Z</time>
      </trkpt>
      <trkpt lat="57.44309" lon="-5.85362">
        <ele>25.94</ele>
        <time>2021-03-20T14:23:39Z</time>
      </trkpt>
      <trkpt lat="57.44333" lon="-5.85415">
        <ele>24.15</ele>
        <time>2021-03-20T14:23:43Z</time>
      </trkpt>
      <trkpt lat="57.44353" lon="-5.85448">
        <ele>23.48</ele>
        <time>2021-03-20T14:23:47Z</time>
      </trkpt>
      <trkpt lat="57.44388" lon="-5.85495">
        <ele>23.75</ele>
        <time>2021-03-20T14:23:50Z</time>
      </trkpt>
      <trkpt lat="57.44512" lon="-5.8563">
        <ele>21.17</ele>
        <time>2021-03-20T14:23:54Z</time>
      </trkpt>
      <trkpt lat="57.44557" lon="-5.85667">
        <ele>20.25</ele>
        <time>2021-03-20T14:23:58Z</time>
      </trkpt>
      <trkpt lat="57.44591" lon="-5.8569">
        <ele>21.23</ele>
        <time>2021-03-20T14:24:01Z</time>
      </trkpt>
      <trkpt lat="57.44714" lon="-5.85742">
        <ele>28.46</ele>
        <time>2021-03-20T14:24:05Z</time>
      </trkpt>
      <trkpt lat="57.44744" lon="-5.8576">
        <ele>27.16</ele>
        <time>2021-03-20T14:24:09Z</time>
      </trkpt>
      <trkpt lat="57.44773" lon="-5.85783">
        <ele>26.36</ele>
        <time>2021-03-20T14:24:12Z</time>
      </trkpt>
      <trkpt lat="57.44856" lon="-5.85875">
        <ele>25.76</ele>
        <time>2021-03-20T14:24:16Z</time>
      </trkpt>
      <trkpt lat="57.44894" lon="-5.85909">
        <ele>24.14</ele>
        <time>2021-03-20T14:24:19Z</time>
      </trkpt>
      <trkpt lat="57.4493" lon="-5.85937">
        <ele>23.55</ele>
        <time>2021-03-20T14:24:23Z</time>
      </trkpt>
      <trkpt lat="57.44958" lon="-5.8595">
        <ele>24.24</ele>
        <time>2021-03-20T14:24:27Z</time>
      </trkpt>
      <trkpt lat="57.45265" lon="-5.86032">
        <ele>27.85</ele>
        <time>2021-03-20T14:24:30Z</time>
      </trkpt>
      <trkpt lat="57.45331" lon="-5.86056">
        <ele>29.69</ele>
        <time>2021-03-20T14:24:34Z</time>
      </trkpt>
      <trkpt lat="57.45514" lon="-5.86129">
        <ele>24.81</ele>
        <time>2021-03-20T14:24:38Z</time>
      </trkpt>
      <trkpt lat="57.45554" lon="-5.86139">
        <ele>22.92</ele>
        <time>2021-03-20T14:24:41Z</time>
      </trkpt>
      <trkpt lat="57.45592" lon="-5.8614">
        <ele>23.48</ele>
        <time>2021-03-20T14:24:45Z</time>
      </trkpt>
      <trkpt lat="57.45665" lon="-5.86127">
        <ele>27</ele>
        <time>2021-03-20T14:24:49Z</time>
      </trkpt>
      <trkpt lat="57.45823" lon="-5.8608">
        <ele>26.35</ele>
        <time>2021-03-20T14:24:52Z</time>
      </trkpt>
      <trkpt lat="57.45866" lon="-5.86071">
        <ele>27.12</ele>
        <time>2021-03-20T14:24:56Z</time>
      </trkpt>
      <trkpt lat="57.45909" lon="-5.86066">
        <ele>28.68</ele>
        <time>2021-03-20T14:24:59Z</time>
      </trkpt>
      <trkpt lat="57.45958" lon="-5.86067">
        <ele>29.31</ele>
        <time>2021-03-20T14:25:03Z</time>
      </trkpt>
      <trkpt lat="57.46014" lon="-5.86072">
        <ele>28.33</ele>
        <time>2021-03-20T14:25:07Z</time>
      </trkpt>
      <trkpt lat="57.46081" lon="-5.86082">
        <ele>27.24</ele>
        <time>2021-03-20T14:25:10Z</time>
      </trkpt>
      <trkpt lat="57.46136" lon="-5.86098">
        <ele>25.82</ele>
        <time>2021-03-20T14:25:14Z</time>
      </trkpt>
      <trkpt lat="57.46363" lon="-5.86198">
        <ele>14.89</ele>
        <time>2021-03-20T14:25:18Z</time>
      </trkpt>
      <trkpt lat="57.46411" lon="-5.8621">
        <ele>18.29</ele>
        <time>2021-03-20T14:25:21Z</time>
      </trkpt>
      <trkpt lat="57.46463" lon="-5.86215">
        <ele>21.14</ele>
        <time>2021-03-20T14:25:25Z</time>
      </trkpt>
      <trkpt lat="57.46534" lon="-5.86206">
        <ele>26.32</ele>
        <time>2021-03-20T14:25:29Z</time>
      </trkpt>
      <trkpt lat="57.46711" lon="-5.86158">
        <ele>47.24</ele>
        <time>2021-03-20T14:25:32Z</time>
      </trkpt>
      <trkpt lat="57.46759" lon="-5.86139">
        <ele>55.9</ele>
        <time>2021-03-20T14:25:36Z</time>
      </trkpt>
      <trkpt lat="57.46837" lon="-5.86103">
        <ele>65.3</ele>
        <time>2021-03-20T14:25:40Z</time>
      </trkpt>
      <trkpt lat="57.4694" lon="-5.86069">
        <ele>70.98</ele>
        <time>2021-03-20T14:25:43Z</time>
      </trkpt>
      <trkpt lat="57.47047" lon="-5.86023">
        <ele>60.31</ele>
        <time>2021-03-20T14:25:47Z</time>
      </trkpt>
      <trkpt lat="57.47079" lon="-5.86016">
        <ele>56.07</ele>
        <time>2021-03-20T14:25:50Z</time>
      </trkpt>
      <trkpt lat="57.47116" lon="-5.86024">
        <ele>54.44</ele>
        <time>2021-03-20T14:25:54Z</time>
      </trkpt>
      <trkpt lat="57.47138" lon="-5.86039">
        <ele>54.33</ele>
        <time>2021-03-20T14:25:58Z</time>
      </trkpt>
      <trkpt lat="57.47174" lon="-5.86076">
        <ele>53.73</ele>
        <time>2021-03-20T14:26:01Z</time>
      </trkpt>
      <trkpt lat="57.47254" lon="-5.86194">
        <ele>45.76</ele>
        <time>2021-03-20T14:26:05Z</time>
      </trkpt>
      <trkpt lat="57.47333" lon="-5.86296">
        <ele>38.57</ele>
        <time>2021-03-20T14:26:09Z</time>
      </trkpt>
      <trkpt lat="57.47368" lon="-5.86318">
        <ele>36.99</ele>
        <time>2021-03-20T14:26:12Z</time>
      </trkpt>
      <trkpt lat="57.47614" lon="-5.86402">
        <ele>28.03</ele>
        <time>2021-03-20T14:26:16Z</time>
      </trkpt>
      <trkpt lat="57.47654" lon="-5.86412">
        <ele>29.27</ele>
        <time>2021-03-20T14:26:20Z</time>
      </trkpt>
      <trkpt lat="57.47688" lon="-5.86409">
        <ele>29.66</ele>
        <time>2021-03-20T14:26:23Z</time>
      </trkpt>
      <trkpt lat="57.47875" lon="-5.86348">
        <ele>42.79</ele>
        <time>2021-03-20T14:26:27Z</time>
      </trkpt>
      <trkpt lat="57.47954" lon="-5.86328">
        <ele>48.52</ele>
        <time>2021-03-20T14:26:31Z</time>
      </trkpt>
      <trkpt lat="57.48009" lon="-5.86321">
        <ele>51.08</ele>
        <time>2021-03-20T14:26:34Z</time>
      </trkpt>
      <trkpt lat="57.48063" lon="-5.86318">
        <ele>53.29</ele>
        <time>2021-03-20T14:26:38Z</time>
      </trkpt>
      <trkpt lat="57.48132" lon="-5.86329">
        <ele>52.89</ele>
        <time>2021-03-20T14:26:41Z</time>
      </trkpt>
      <trkpt lat="57.48265" lon="-5.86377">
        <ele>54.55</ele>
        <time>2021-03-20T14:26:45Z</time>
      </trkpt>
      <trkpt lat="57.48298" lon="-5.86382">
        <ele>55.72</ele>
        <time>2021-03-20T14:26:49Z</time>
      </trkpt>
      <trkpt lat="57.48337" lon="-5.86381">
        <ele>57.72</ele>
        <time>2021-03-20T14:26:52Z</time>
      </trkpt>
      <trkpt lat="57.48377" lon="-5.86373">
        <ele>57.99</ele>
        <time>2021-03-20T14:26:56Z</time>
      </trkpt>
      <trkpt lat="57.48409" lon="-5.86363">
        <ele>58.76</ele>
        <time>2021-03-20T14:27:00Z</time>
      </trkpt>
      <trkpt lat="57.48443" lon="-5.86348">
        <ele>59.01</ele>
        <time>2021-03-20T14:27:03Z</time>
      </trkpt>
      <trkpt lat="57.48514" lon="-5.86306">
        <ele>56.98</ele>
        <time>2021-03-20T14:27:07Z</time>
      </trkpt>
      <trkpt lat="57.48908" lon="-5.86098">
        <ele>68.75</ele>
        <time>2021-03-20T14:27:11Z</time>
      </trkpt>
      <trkpt lat="57.48954" lon="-5.86084">
        <ele>66.63</ele>
        <time>2021-03-20T14:27:14Z</time>
      </trkpt>
      <trkpt lat="57.48982" lon="-5.86082">
        <ele>66.24</ele>
        <time>2021-03-20T14:27:18Z</time>
      </trkpt>
      <trkpt lat="57.49309" lon="-5.86118">
        <ele>55.53</ele>
        <time>2021-03-20T14:27:21Z</time>
      </trkpt>
      <trkpt lat="57.49367" lon="-5.86117">
        <ele>55.79</ele>
        <time>2021-03-20T14:27:25Z</time>
      </trkpt>
      <trkpt lat="57.49938" lon="-5.85983">
        <ele>51.08</ele>
        <time>2021-03-20T14:27:29Z</time>
      </trkpt>
      <trkpt lat="57.49975" lon="-5.85977">
        <ele>52.57</ele>
        <time>2021-03-20T14:27:32Z</time>
      </trkpt>
      <trkpt lat="57.5002" lon="-5.85979">
        <ele>53.08</ele>
        <time>2021-03-20T14:27:36Z</time>
      </trkpt>
      <trkpt lat="57.50118" lon="-5.85992">
        <ele>51.05</ele>
        <time>2021-03-20T14:27:40Z</time>
      </trkpt>
      <trkpt lat="57.50206" lon="-5.85997">
        <ele>52.69</ele>
        <time>2021-03-20T14:27:43Z</time>
      </trkpt>
      <trkpt lat="57.50401" lon="-5.85989">
        <ele>57.22</ele>
        <time>2021-03-20T14:27:47Z</time>
      </trkpt>
      <trkpt lat="57.50859" lon="-5.85955">
        <ele>50.31</ele>
        <time>2021-03-20T14:27:51Z</time>
      </trkpt>
      <trkpt lat="57.50962" lon="-5.85938">
        <ele>47.83</ele>
        <time>2021-03-20T14:27:54Z</time>
      </trkpt>
      <trkpt lat="57.51419" lon="-5.85809">
        <ele>39.68</ele>
        <time>2021-03-20T14:27:58Z</time>
      </trkpt>
      <trkpt lat="57.51592" lon="-5.85764">
        <ele>36.19</ele>
        <time>2021-03-20T14:28:02Z</time>
      </trkpt>
      <trkpt lat="57.51614" lon="-5.85754">
        <ele>35.67</ele>
        <time>2021-03-20T14:28:05Z</time>
      </trkpt>
      <trkpt lat="57.51647" lon="-5.85734">
        <ele>34.58</ele>
        <time>2021-03-20T14:28:09Z</time>
      </trkpt>
      <trkpt lat="57.51681" lon="-5.85705">
        <ele>32.94</ele>
        <time>2021-03-20T14:28:12Z</time>
      </trkpt>
      <trkpt lat="57.51728" lon="-5.8566">
        <ele>30.59</ele>
        <time>2021-03-20T14:28:16Z</time>
      </trkpt>
      <trkpt lat="57.51768" lon="-5.85615">
        <ele>28.58</ele>
        <time>2021-03-20T14:28:20Z</time>
      </trkpt>
      <trkpt lat="57.51813" lon="-5.85573">
        <ele>25.8</ele>
        <time>2021-03-20T14:28:23Z</time>
      </trkpt>
      <trkpt lat="57.51854" lon="-5.85549">
        <ele>24.27</ele>
        <time>2021-03-20T14:28:27Z</time>
      </trkpt>
      <trkpt lat="57.51864" lon="-5.85539">
        <ele>24</ele>
        <time>2021-03-20T14:28:31Z</time>
      </trkpt>
      <trkpt lat="57.51885" lon="-5.85499">
        <ele>24.86</ele>
        <time>2021-03-20T14:28:34Z</time>
      </trkpt>
      <trkpt lat="57.51897" lon="-5.85466">
        <ele>25.24</ele>
        <time>2021-03-20T14:28:38Z</time>
      </trkpt>
      <trkpt lat="57.51918" lon="-5.85387">
        <ele>27.02</ele>
        <time>2021-03-20T14:28:42Z</time>
      </trkpt>
      <trkpt lat="57.51935" lon="-5.85344">
        <ele>27.96</ele>
        <time>2021-03-20T14:28:45Z</time>
      </trkpt>
      <trkpt lat="57.51957" lon="-5.8531">
        <ele>29.94</ele>
        <time>2021-03-20T14:28:49Z</time>
      </trkpt>
      <trkpt lat="57.52028" lon="-5.85236">
        <ele>35.03</ele>
        <time>2021-03-20T14:28:53Z</time>
      </trkpt>
      <trkpt lat="57.52058" lon="-5.85211">
        <ele>36.13</ele>
        <time>2021-03-20T14:28:56Z</time>
      </trkpt>
      <trkpt lat="57.52088" lon="-5.85195">
        <ele>36.97</ele>
        <time>2021-03-20T14:29:00Z</time>
      </trkpt>
      <trkpt lat="57.52149" lon="-5.85171">
        <ele>40.34</ele>
        <time>2021-03-20T14:29:03Z</time>
      </trkpt>
      <trkpt lat="57.52173" lon="-5.85165">
        <ele>41.2</ele>
        <time>2021-03-20T14:29:07Z</time>
      </trkpt>
      <trkpt lat="57.52224" lon="-5.85177">
        <ele>40.09</ele>
        <time>2021-03-20T14:29:11Z</time>
      </trkpt>
      <trkpt lat="57.52255" lon="-5.85169">
        <ele>41.26</ele>
        <time>2021-03-20T14:29:14Z</time>
      </trkpt>
      <trkpt lat="57.52286" lon="-5.85149">
        <ele>42.26</ele>
        <time>2021-03-20T14:29:18Z</time>
      </trkpt>
      <trkpt lat="57.52316" lon="-5.85136">
        <ele>41.95</ele>
        <time>2021-03-20T14:29:22Z</time>
      </trkpt>
      <trkpt lat="57.52417" lon="-5.85112">
        <ele>43.73</ele>
        <time>2021-03-20T14:29:25Z</time>
      </trkpt>
      <trkpt lat="57.52444" lon="-5.8511">
        <ele>45.18</ele>
        <time>2021-03-20T14:29:29Z</time>
      </trkpt>
      <trkpt lat="57.52462" lon="-5.85112">
        <ele>44.85</ele>
        <time>2021-03-20T14:29:33Z</time>
      </trkpt>
      <trkpt lat="57.52517" lon="-5.85127">
        <ele>43.44</ele>
        <time>2021-03-20T14:29:36Z</time>
      </trkpt>
      <trkpt lat="57.52549" lon="-5.85126">
        <ele>43.79</ele>
        <time>2021-03-20T14:29:40Z</time>
      </trkpt>
      <trkpt lat="57.5259" lon="-5.85119">
        <ele>45.01</ele>
        <time>2021-03-20T14:29:43Z</time>
      </trkpt>
      <trkpt lat="57.52627" lon="-5.85121">
        <ele>43.39</ele>
        <time>2021-03-20T14:29:47Z</time>
      </trkpt>
      <trkpt lat="57.52661" lon="-5.85118">
        <ele>43.59</ele>
        <time>2021-03-20T14:29:51Z</time>
      </trkpt>
      <trkpt lat="57.52722" lon="-5.85134">
        <ele>42.05</ele>
        <time>2021-03-20T14:29:54Z</time>
      </trkpt>
      <trkpt lat="57.52788" lon="-5.85169">
        <ele>40.27</ele>
        <time>2021-03-20T14:29:58Z</time>
      </trkpt>
      <trkpt lat="57.52831" lon="-5.85181">
        <ele>38.47</ele>
        <time>2021-03-20T14:30:02Z</time>
      </trkpt>
      <trkpt lat="57.5292" lon="-5.85174">
        <ele>40</ele>
        <time>2021-03-20T14:30:05Z</time>
      </trkpt>
      <trkpt lat="57.53017" lon="-5.85188">
        <ele>40.49</ele>
        <time>2021-03-20T14:30:09Z</time>
      </trkpt>
      <trkpt lat="57.53078" lon="-5.85176">
        <ele>41.56</ele>
        <time>2021-03-20T14:30:13Z</time>
      </trkpt>
      <trkpt lat="57.53111" lon="-5.85165">
        <ele>42.19</ele>
        <time>2021-03-20T14:30:16Z</time>
      </trkpt>
      <trkpt lat="57.53178" lon="-5.85135">
        <ele>45.19</ele>
        <time>2021-03-20T14:30:20Z</time>
      </trkpt>
      <trkpt lat="57.53223" lon="-5.85104">
        <ele>47.76</ele>
        <time>2021-03-20T14:30:24Z</time>
      </trkpt>
      <trkpt lat="57.53253" lon="-5.85088">
        <ele>48.27</ele>
        <time>2021-03-20T14:30:27Z</time>
      </trkpt>
      <trkpt lat="57.53278" lon="-5.8508">
        <ele>47.51</ele>
        <time>2021-03-20T14:30:31Z</time>
      </trkpt>
      <trkpt lat="57.53358" lon="-5.85084">
        <ele>46.82</ele>
        <time>2021-03-20T14:30:34Z</time>
      </trkpt>
      <trkpt lat="57.53473" lon="-5.85104">
        <ele>45.53</ele>
        <time>2021-03-20T14:30:38Z</time>
      </trkpt>
      <trkpt lat="57.53508" lon="-5.85106">
        <ele>46.37</ele>
        <time>2021-03-20T14:30:42Z</time>
      </trkpt>
      <trkpt lat="57.53557" lon="-5.85102">
        <ele>46.28</ele>
        <time>2021-03-20T14:30:45Z</time>
      </trkpt>
      <trkpt lat="57.53672" lon="-5.85074">
        <ele>43.05</ele>
        <time>2021-03-20T14:30:49Z</time>
      </trkpt>
      <trkpt lat="57.53703" lon="-5.85061">
        <ele>41.68</ele>
        <time>2021-03-20T14:30:53Z</time>
      </trkpt>
      <trkpt lat="57.53876" lon="-5.84955">
        <ele>42.57</ele>
        <time>2021-03-20T14:30:56Z</time>
      </trkpt>
      <trkpt lat="57.53895" lon="-5.8494">
        <ele>42.59</ele>
        <time>2021-03-20T14:31:00Z</time>
      </trkpt>
      <trkpt lat="57.53976" lon="-5.84889">
        <ele>53.79</ele>
        <time>2021-03-20T14:31:04Z</time>
      </trkpt>
      <trkpt lat="57.54023" lon="-5.84835">
        <ele>55.22</ele>
        <time>2021-03-20T14:31:07Z</time>
      </trkpt>
      <trkpt lat="57.54049" lon="-5.8482">
        <ele>57.08</ele>
        <time>2021-03-20T14:31:11Z</time>
      </trkpt>
      <trkpt lat="57.54065" lon="-5.84818">
        <ele>58.67</ele>
        <time>2021-03-20T14:31:15Z</time>
      </trkpt>
      <trkpt lat="57.54115" lon="-5.84828">
        <ele>63.07</ele>
        <time>2021-03-20T14:31:18Z</time>
      </trkpt>
      <trkpt lat="57.54158" lon="-5.84823">
        <ele>66.14</ele>
        <time>2021-03-20T14:31:22Z</time>
      </trkpt>
      <trkpt lat="57.54184" lon="-5.84812">
        <ele>66.71</ele>
        <time>2021-03-20T14:31:25Z</time>
      </trkpt>
      <trkpt lat="57.54194" lon="-5.84804">
        <ele>67.23</ele>
        <time>2021-03-20T14:31:29Z</time>
      </trkpt>
      <trkpt lat="57.54221" lon="-5.84753">
        <ele>72.9</ele>
        <time>2021-03-20T14:31:33Z</time>
      </trkpt>
      <trkpt lat="57.54243" lon="-5.84696">
        <ele>73.47</ele>
        <time>2021-03-20T14:31:36Z</time>
      </trkpt>
      <trkpt lat="57.54263" lon="-5.84632">
        <ele>74.23</ele>
        <time>2021-03-20T14:31:40Z</time>
      </trkpt>
      <trkpt lat="57.54353" lon="-5.84261">
        <ele>70.3</ele>
        <time>2021-03-20T14:31:44Z</time>
      </trkpt>
      <trkpt lat="57.54366" lon="-5.84226">
        <ele>69.53</ele>
        <time>2021-03-20T14:31:47Z</time>
      </trkpt>
      <trkpt lat="57.54381" lon="-5.84209">
        <ele>67.9</ele>
        <time>2021-03-20T14:31:51Z</time>
      </trkpt>
      <trkpt lat="57.5443" lon="-5.84172">
        <ele>62.04</ele>
        <time>2021-03-20T14:31:55Z</time>
      </trkpt>
      <trkpt lat="57.54493" lon="-5.84131">
        <ele>55.08</ele>
        <time>2021-03-20T14:31:58Z</time>
      </trkpt>
      <trkpt lat="57.54558" lon="-5.84099">
        <ele>49.92</ele>
        <time>2021-03-20T14:32:02Z</time>
      </trkpt>
      <trkpt lat="57.54673" lon="-5.8405">
        <ele>43</ele>
        <time>2021-03-20T14:32:05Z</time>
      </trkpt>
      <trkpt lat="57.54703" lon="-5.84041">
        <ele>43</ele>
        <time>2021-03-20T14:32:09Z</time>
      </trkpt>
      <trkpt lat="57.54769" lon="-5.84049">
        <ele>43.07</ele>
        <time>2021-03-20T14:32:13Z</time>
      </trkpt>
      <trkpt lat="57.54895" lon="-5.8408">
        <ele>39.13</ele>
        <time>2021-03-20T14:32:16Z</time>
      </trkpt>
      <trkpt lat="57.5497" lon="-5.84112">
        <ele>38.06</ele>
        <time>2021-03-20T14:32:20Z</time>
      </trkpt>
      <trkpt lat="57.55087" lon="-5.84191">
        <ele>30.4</ele>
        <time>2021-03-20T14:32:24Z</time>
      </trkpt>
      <trkpt lat="57.55111" lon="-5.84202">
        <ele>27</ele>
        <time>2021-03-20T14:32:27Z</time>
      </trkpt>
      <trkpt lat="57.55126" lon="-5.84199">
        <ele>25.95</ele>
        <time>2021-03-20T14:32:31Z</time>
      </trkpt>
      <trkpt lat="57.55142" lon="-5.84181">
        <ele>24.38</ele>
        <time>2021-03-20T14:32:35Z</time>
      </trkpt>
      <trkpt lat="57.552" lon="-5.8399">
        <ele>19.42</ele>
        <time>2021-03-20T14:32:38Z</time>
      </trkpt>
      <trkpt lat="57.55209" lon="-5.83958">
        <ele>17.96</ele>
        <time>2021-03-20T14:32:42Z</time>
      </trkpt>
      <trkpt lat="57.55225" lon="-5.83869">
        <ele>13.91</ele>
        <time>2021-03-20T14:32:46Z</time>
      </trkpt>
      <trkpt lat="57.55225" lon="-5.83803">
        <ele>14.99</ele>
        <time>2021-03-20T14:32:49Z</time>
      </trkpt>
      <trkpt lat="57.5521" lon="-5.8364">
        <ele>19.42</ele>
        <time>2021-03-20T14:32:53Z</time>
      </trkpt>
      <trkpt lat="57.55217" lon="-5.83586">
        <ele>20.93</ele>
        <time>2021-03-20T14:32:56Z</time>
      </trkpt>
      <trkpt lat="57.55228" lon="-5.83547">
        <ele>21.78</ele>
        <time>2021-03-20T14:33:00Z</time>
      </trkpt>
      <trkpt lat="57.55245" lon="-5.83518">
        <ele>21.53</ele>
        <time>2021-03-20T14:33:04Z</time>
      </trkpt>
      <trkpt lat="57.5526" lon="-5.835">
        <ele>22.72</ele>
        <time>2021-03-20T14:33:07Z</time>
      </trkpt>
      <trkpt lat="57.55284" lon="-5.83477">
        <ele>25.5</ele>
        <time>2021-03-20T14:33:11Z</time>
      </trkpt>
      <trkpt lat="57.55332" lon="-5.83436">
        <ele>32.91</ele>
        <time>2021-03-20T14:33:15Z</time>
      </trkpt>
      <trkpt lat="57.55391" lon="-5.83402">
        <ele>33.84</ele>
        <time>2021-03-20T14:33:18Z</time>
      </trkpt>
      <trkpt lat="57.55424" lon="-5.83377">
        <ele>31.89</ele>
        <time>2021-03-20T14:33:22Z</time>
      </trkpt>
      <trkpt lat="57.55459" lon="-5.83342">
        <ele>29.97</ele>
        <time>2021-03-20T14:33:26Z</time>
      </trkpt>
      <trkpt lat="57.55482" lon="-5.83304">
        <ele>28.9</ele>
        <time>2021-03-20T14:33:29Z</time>
      </trkpt>
      <trkpt lat="57.55495" lon="-5.83278">
        <ele>27.01</ele>
        <time>2021-03-20T14:33:33Z</time>
      </trkpt>
      <trkpt lat="57.55509" lon="-5.83235">
        <ele>26.12</ele>
        <time>2021-03-20T14:33:37Z</time>
      </trkpt>
      <trkpt lat="57.55529" lon="-5.83196">
        <ele>24.96</ele>
        <time>2021-03-20T14:33:40Z</time>
      </trkpt>
      <trkpt lat="57.55542" lon="-5.83185">
        <ele>24.49</ele>
        <time>2021-03-20T14:33:44Z</time>
      </trkpt>
      <trkpt lat="57.55586" lon="-5.83165">
        <ele>23</ele>
        <time>2021-03-20T14:33:47Z</time>
      </trkpt>
      <trkpt lat="57.55647" lon="-5.83123">
        <ele>22.59</ele>
        <time>2021-03-20T14:33:51Z</time>
      </trkpt>
      <trkpt lat="57.55711" lon="-5.83049">
        <ele>26.07</ele>
        <time>2021-03-20T14:33:55Z</time>
      </trkpt>
      <trkpt lat="57.55854" lon="-5.82934">
        <ele>41.5</ele>
        <time>2021-03-20T14:33:58Z</time>
      </trkpt>
      <trkpt lat="57.55906" lon="-5.82885">
        <ele>41.94</ele>
        <time>2021-03-20T14:34:02Z</time>
      </trkpt>
      <trkpt lat="57.56051" lon="-5.82779">
        <ele>44.28</ele>
        <time>2021-03-20T14:34:06Z</time>
      </trkpt>
      <trkpt lat="57.56153" lon="-5.82722">
        <ele>50</ele>
        <time>2021-03-20T14:34:09Z</time>
      </trkpt>
      <trkpt lat="57.56176" lon="-5.82706">
        <ele>52.04</ele>
        <time>2021-03-20T14:34:13Z</time>
      </trkpt>
      <trkpt lat="57.56188" lon="-5.82689">
        <ele>53.48</ele>
        <time>2021-03-20T14:34:17Z</time>
      </trkpt>
      <trkpt lat="57.56195" lon="-5.82664">
        <ele>55</ele>
        <time>2021-03-20T14:34:20Z</time>
      </trkpt>
      <trkpt lat="57.56201" lon="-5.82611">
        <ele>55.55</ele>
        <time>2021-03-20T14:34:24Z</time>
      </trkpt>
      <trkpt lat="57.56202" lon="-5.82556">
        <ele>54.44</ele>
        <time>2021-03-20T14:34:27Z</time>
      </trkpt>
      <trkpt lat="57.56202" lon="-5.82484">
        <ele>51.78</ele>
        <time>2021-03-20T14:34:31Z</time>
      </trkpt>
      <trkpt lat="57.56207" lon="-5.82459">
        <ele>50.39</ele>
        <time>2021-03-20T14:34:35Z</time>
      </trkpt>
      <trkpt lat="57.56214" lon="-5.82437">
        <ele>49.21</ele>
        <time>2021-03-20T14:34:38Z</time>
      </trkpt>
      <trkpt lat="57.56226" lon="-5.82425">
        <ele>48.86</ele>
        <time>2021-03-20T14:34:42Z</time>
      </trkpt>
      <trkpt lat="57.56309" lon="-5.82403">
        <ele>46.62</ele>
        <time>2021-03-20T14:34:46Z</time>
      </trkpt>
      <trkpt lat="57.5635" lon="-5.82384">
        <ele>48.2</ele>
        <time>2021-03-20T14:34:49Z</time>
      </trkpt>
      <trkpt lat="57.56394" lon="-5.82358">
        <ele>49</ele>
        <time>2021-03-20T14:34:53Z</time>
      </trkpt>
      <trkpt lat="57.56446" lon="-5.82304">
        <ele>47.97</ele>
        <time>2021-03-20T14:34:57Z</time>
      </trkpt>
      <trkpt lat="57.56461" lon="-5.8228">
        <ele>46.79</ele>
        <time>2021-03-20T14:35:00Z</time>
      </trkpt>
      <trkpt lat="57.56485" lon="-5.82237">
        <ele>47.2</ele>
        <time>2021-03-20T14:35:04Z</time>
      </trkpt>
      <trkpt lat="57.56499" lon="-5.82219">
        <ele>48.09</ele>
        <time>2021-03-20T14:35:08Z</time>
      </trkpt>
      <trkpt lat="57.56525" lon="-5.82208">
        <ele>49.01</ele>
        <time>2021-03-20T14:35:11Z</time>
      </trkpt>
      <trkpt lat="57.56608" lon="-5.82182">
        <ele>47.94</ele>
        <time>2021-03-20T14:35:15Z</time>
      </trkpt>
      <trkpt lat="57.5665" lon="-5.82179">
        <ele>47.91</ele>
        <time>2021-03-20T14:35:18Z</time>
      </trkpt>
      <trkpt lat="57.56732" lon="-5.8218">
        <ele>44.15</ele>
        <time>2021-03-20T14:35:22Z</time>
      </trkpt>
      <trkpt lat="57.56761" lon="-5.82178">
        <ele>43.17</ele>
        <time>2021-03-20T14:35:26Z</time>
      </trkpt>
      <trkpt lat="57.56812" lon="-5.82167">
        <ele>42</ele>
        <time>2021-03-20T14:35:29Z</time>
      </trkpt>
      <trkpt lat="57.56867" lon="-5.82163">
        <ele>41</ele>
        <time>2021-03-20T14:35:33Z</time>
      </trkpt>
      <trkpt lat="57.56877" lon="-5.82158">
        <ele>41</ele>
        <time>2021-03-20T14:35:37Z</time>
      </trkpt>
      <trkpt lat="57.56888" lon="-5.82145">
        <ele>41</ele>
        <time>2021-03-20T14:35:40Z</time>
      </trkpt>
      <trkpt lat="57.56935" lon="-5.82056">
        <ele>41.26</ele>
        <time>2021-03-20T14:35:44Z</time>
      </trkpt>
      <trkpt lat="57.56961" lon="-5.82029">
        <ele>42.6</ele>
        <time>2021-03-20T14:35:48Z</time>
      </trkpt>
      <trkpt lat="57.56998" lon="-5.82">
        <ele>42.99</ele>
        <time>2021-03-20T14:35:51Z</time>
      </trkpt>
      <trkpt lat="57.57128" lon="-5.81937">
        <ele>37.74</ele>
        <time>2021-03-20T14:35:55Z</time>
      </trkpt>
      <trkpt lat="57.57185" lon="-5.81893">
        <ele>37.48</ele>
        <time>2021-03-20T14:35:59Z</time>
      </trkpt>
      <trkpt lat="57.57214" lon="-5.81875">
        <ele>37.48</ele>
        <time>2021-03-20T14:36:02Z</time>
      </trkpt>
      <trkpt lat="57.57259" lon="-5.81854">
        <ele>35.8</ele>
        <time>2021-03-20T14:36:06Z</time>
      </trkpt>
      <trkpt lat="57.57293" lon="-5.81828">
        <ele>31.31</ele>
        <time>2021-03-20T14:36:09Z</time>
      </trkpt>
      <trkpt lat="57.57376" lon="-5.8172">
        <ele>25.46</ele>
        <time>2021-03-20T14:36:13Z</time>
      </trkpt>
      <trkpt lat="57.57399" lon="-5.81703">
        <ele>23.66</ele>
        <time>2021-03-20T14:36:17Z</time>
      </trkpt>
      <trkpt lat="57.57462" lon="-5.81669">
        <ele>19.58</ele>
        <time>2021-03-20T14:36:20Z</time>
      </trkpt>
      <trkpt lat="57.5748" lon="-5.81652">
        <ele>19.94</ele>
        <time>2021-03-20T14:36:24Z</time>
      </trkpt>
      <trkpt lat="57.57505" lon="-5.8162">
        <ele>20.78</ele>
        <time>2021-03-20T14:36:28Z</time>
      </trkpt>
      <trkpt lat="57.57589" lon="-5.81501">
        <ele>25.75</ele>
        <time>2021-03-20T14:36:31Z</time>
      </trkpt>
      <trkpt lat="57.57629" lon="-5.8146">
        <ele>29.23</ele>
        <time>2021-03-20T14:36:35Z</time>
      </trkpt>
      <trkpt lat="57.57647" lon="-5.81436">
        <ele>31.67</ele>
        <time>2021-03-20T14:36:39Z</time>
      </trkpt>
      <trkpt lat="57.5766" lon="-5.81411">
        <ele>35.11</ele>
        <time>2021-03-20T14:36:42Z</time>
      </trkpt>
      <trkpt lat="57.57671" lon="-5.81375">
        <ele>39.79</ele>
        <time>2021-03-20T14:36:46Z</time>
      </trkpt>
      <trkpt lat="57.577" lon="-5.81298">
        <ele>43.08</ele>
        <time>2021-03-20T14:36:50Z</time>
      </trkpt>
      <trkpt lat="57.577" lon="-5.81298">
        <ele>43.08</ele>
        <time>2021-03-20T14:36:50Z</time>
      </trkpt>
      <trkpt lat="57.57716" lon="-5.81258">
        <ele>43</ele>
        <time>2021-03-20T14:36:52Z</time>
      </trkpt>
      <trkpt lat="57.57751" lon="-5.8113">
        <ele>38.97</ele>
        <time>2021-03-20T14:36:55Z</time>
      </trkpt>
      <trkpt lat="57.5778" lon="-5.80986">
        <ele>37.84</ele>
        <time>2021-03-20T14:36:57Z</time>
      </trkpt>
      <trkpt lat="57.57784" lon="-5.80944">
        <ele>37.28</ele>
        <time>2021-03-20T14:37:00Z</time>
      </trkpt>
      <trkpt lat="57.57783" lon="-5.80875">
        <ele>37.9</ele>
        <time>2021-03-20T14:37:02Z</time>
      </trkpt>
      <trkpt lat="57.57771" lon="-5.80795">
        <ele>41.07</ele>
        <time>2021-03-20T14:37:05Z</time>
      </trkpt>
      <trkpt lat="57.57761" lon="-5.8076">
        <ele>42.67</ele>
        <time>2021-03-20T14:37:07Z</time>
      </trkpt>
      <trkpt lat="57.57739" lon="-5.80735">
        <ele>43.23</ele>
        <time>2021-03-20T14:37:10Z</time>
      </trkpt>
      <trkpt lat="57.57713" lon="-5.8071">
        <ele>40.97</ele>
        <time>2021-03-20T14:37:12Z</time>
      </trkpt>
      <trkpt lat="57.57655" lon="-5.80665">
        <ele>38.2</ele>
        <time>2021-03-20T14:37:15Z</time>
      </trkpt>
      <trkpt lat="57.57636" lon="-5.80644">
        <ele>38.47</ele>
        <time>2021-03-20T14:37:17Z</time>
      </trkpt>
      <trkpt lat="57.57618" lon="-5.80607">
        <ele>35.63</ele>
        <time>2021-03-20T14:37:20Z</time>
      </trkpt>
      <trkpt lat="57.57472" lon="-5.80179">
        <ele>40.01</ele>
        <time>2021-03-20T14:37:22Z</time>
      </trkpt>
      <trkpt lat="57.57461" lon="-5.80155">
        <ele>41.49</ele>
        <time>2021-03-20T14:37:25Z</time>
      </trkpt>
      <trkpt lat="57.57445" lon="-5.80133">
        <ele>42.71</ele>
        <time>2021-03-20T14:37:27Z</time>
      </trkpt>
      <trkpt lat="57.57397" lon="-5.80085">
        <ele>43.55</ele>
        <time>2021-03-20T14:37:30Z</time>
      </trkpt>
      <trkpt lat="57.57337" lon="-5.80037">
        <ele>45.48</ele>
        <time>2021-03-20T14:37:32Z</time>
      </trkpt>
      <trkpt lat="57.57276" lon="-5.79976">
        <ele>40.74</ele>
        <time>2021-03-20T14:37:35Z</time>
      </trkpt>
      <trkpt lat="57.57238" lon="-5.7995">
        <ele>39.49</ele>
        <time>2021-03-20T14:37:37Z</time>
      </trkpt>
      <trkpt lat="57.57218" lon="-5.79927">
        <ele>37.82</ele>
        <time>2021-03-20T14:37:40Z</time>
      </trkpt>
      <trkpt lat="57.57201" lon="-5.79894">
        <ele>36.11</ele>
        <time>2021-03-20T14:37:42Z</time>
      </trkpt>
      <trkpt lat="57.57193" lon="-5.79859">
        <ele>37.25</ele>
        <time>2021-03-20T14:37:45Z</time>
      </trkpt>
      <trkpt lat="57.57191" lon="-5.79812">
        <ele>41.6</ele>
        <time>2021-03-20T14:37:47Z</time>
      </trkpt>
      <trkpt lat="57.57195" lon="-5.79781">
        <ele>44.53</ele>
        <time>2021-03-20T14:37:50Z</time>
      </trkpt>
      <trkpt lat="57.57204" lon="-5.79752">
        <ele>45.53</ele>
        <time>2021-03-20T14:37:52Z</time>
      </trkpt>
      <trkpt lat="57.57215" lon="-5.79731">
        <ele>44.92</ele>
        <time>2021-03-20T14:37:54Z</time>
      </trkpt>
      <trkpt lat="57.57231" lon="-5.79713">
        <ele>43.25</ele>
        <time>2021-03-20T14:37:57Z</time>
      </trkpt>
      <trkpt lat="57.57268" lon="-5.79701">
        <ele>38.21</ele>
        <time>2021-03-20T14:37:59Z</time>
      </trkpt>
      <trkpt lat="57.57294" lon="-5.7969">
        <ele>35.4</ele>
        <time>2021-03-20T14:38:02Z</time>
      </trkpt>
      <trkpt lat="57.57309" lon="-5.79677">
        <ele>34.5</ele>
        <time>2021-03-20T14:38:04Z</time>
      </trkpt>
      <trkpt lat="57.57321" lon="-5.79657">
        <ele>34.77</ele>
        <time>2021-03-20T14:38:07Z</time>
      </trkpt>
      <trkpt lat="57.57331" lon="-5.7963">
        <ele>35.4</ele>
        <time>2021-03-20T14:38:09Z</time>
      </trkpt>
      <trkpt lat="57.57337" lon="-5.79598">
        <ele>35.74</ele>
        <time>2021-03-20T14:38:12Z</time>
      </trkpt>
      <trkpt lat="57.5734" lon="-5.79567">
        <ele>36.11</ele>
        <time>2021-03-20T14:38:14Z</time>
      </trkpt>
      <trkpt lat="57.57339" lon="-5.79537">
        <ele>35.92</ele>
        <time>2021-03-20T14:38:17Z</time>
      </trkpt>
      <trkpt lat="57.57329" lon="-5.79505">
        <ele>34.62</ele>
        <time>2021-03-20T14:38:19Z</time>
      </trkpt>
      <trkpt lat="57.57311" lon="-5.79463">
        <ele>31.85</ele>
        <time>2021-03-20T14:38:22Z</time>
      </trkpt>
      <trkpt lat="57.57283" lon="-5.79413">
        <ele>27.14</ele>
        <time>2021-03-20T14:38:24Z</time>
      </trkpt>
      <trkpt lat="57.57202" lon="-5.79284">
        <ele>17.23</ele>
        <time>2021-03-20T14:38:27Z</time>
      </trkpt>
      <trkpt lat="57.5717" lon="-5.79219">
        <ele>18.1</ele>
        <time>2021-03-20T14:38:29Z</time>
      </trkpt>
      <trkpt lat="57.57141" lon="-5.79148">
        <ele>22.98</ele>
        <time>2021-03-20T14:38:32Z</time>
      </trkpt>
      <trkpt lat="57.57126" lon="-5.791">
        <ele>24.95</ele>
        <time>2021-03-20T14:38:34Z</time>
      </trkpt>
      <trkpt lat="57.57069" lon="-5.78951">
        <ele>26.76</ele>
        <time>2021-03-20T14:38:37Z</time>
      </trkpt>
      <trkpt lat="57.57046" lon="-5.78906">
        <ele>27.53</ele>
        <time>2021-03-20T14:38:39Z</time>
      </trkpt>
      <trkpt lat="57.5702" lon="-5.78875">
        <ele>28.43</ele>
        <time>2021-03-20T14:38:42Z</time>
      </trkpt>
      <trkpt lat="57.56989" lon="-5.78848">
        <ele>30.57</ele>
        <time>2021-03-20T14:38:44Z</time>
      </trkpt>
      <trkpt lat="57.56958" lon="-5.78832">
        <ele>34.92</ele>
        <time>2021-03-20T14:38:47Z</time>
      </trkpt>
      <trkpt lat="57.56907" lon="-5.78824">
        <ele>39.92</ele>
        <time>2021-03-20T14:38:49Z</time>
      </trkpt>
      <trkpt lat="57.56886" lon="-5.78831">
        <ele>40.57</ele>
        <time>2021-03-20T14:38:52Z</time>
      </trkpt>
      <trkpt lat="57.56843" lon="-5.78861">
        <ele>45.62</ele>
        <time>2021-03-20T14:38:54Z</time>
      </trkpt>
      <trkpt lat="57.5681" lon="-5.7887">
        <ele>47.61</ele>
        <time>2021-03-20T14:38:57Z</time>
      </trkpt>
      <trkpt lat="57.56751" lon="-5.78864">
        <ele>45.34</ele>
        <time>2021-03-20T14:38:59Z</time>
      </trkpt>
      <trkpt lat="57.56727" lon="-5.78855">
        <ele>46.03</ele>
        <time>2021-03-20T14:39:02Z</time>
      </trkpt>
      <trkpt lat="57.56705" lon="-5.78844">
        <ele>45.72</ele>
        <time>2021-03-20T14:39:04Z</time>
      </trkpt>
      <trkpt lat="57.56681" lon="-5.7882">
        <ele>46.63</ele>
        <time>2021-03-20T14:39:07Z</time>
      </trkpt>
      <trkpt lat="57.56654" lon="-5.78782">
        <ele>49.17</ele>
        <time>2021-03-20T14:39:09Z</time>
      </trkpt>
      <trkpt lat="57.5663" lon="-5.78742">
        <ele>50.85</ele>
        <time>2021-03-20T14:39:12Z</time>
      </trkpt>
      <trkpt lat="57.56573" lon="-5.7864">
        <ele>51.41</ele>
        <time>2021-03-20T14:39:14Z</time>
      </trkpt>
      <trkpt lat="57.5655" lon="-5.78608">
        <ele>50.28</ele>
        <time>2021-03-20T14:39:17Z</time>
      </trkpt>
      <trkpt lat="57.56483" lon="-5.78546">
        <ele>47.71</ele>
        <time>2021-03-20T14:39:19Z</time>
      </trkpt>
      <trkpt lat="57.56457" lon="-5.78513">
        <ele>45.17</ele>
        <time>2021-03-20T14:39:22Z</time>
      </trkpt>
      <trkpt lat="57.56372" lon="-5.78373">
        <ele>38.65</ele>
        <time>2021-03-20T14:39:24Z</time>
      </trkpt>
      <trkpt lat="57.562" lon="-5.78085">
        <ele>40.99</ele>
        <time>2021-03-20T14:39:27Z</time>
      </trkpt>
      <trkpt lat="57.55972" lon="-5.77653">
        <ele>33.51</ele>
        <time>2021-03-20T14:39:29Z</time>
      </trkpt>
      <trkpt lat="57.55866" lon="-5.77433">
        <ele>31.98</ele>
        <time>2021-03-20T14:39:32Z</time>
      </trkpt>
      <trkpt lat="57.55847" lon="-5.774">
        <ele>32.29</ele>
        <time>2021-03-20T14:39:34Z</time>
      </trkpt>
      <trkpt lat="57.55733" lon="-5.7722">
        <ele>30.62</ele>
        <time>2021-03-20T14:39:37Z</time>
      </trkpt>
      <trkpt lat="57.55694" lon="-5.77132">
        <ele>30.98</ele>
        <time>2021-03-20T14:39:39Z</time>
      </trkpt>
      <trkpt lat="57.55679" lon="-5.77074">
        <ele>31.34</ele>
        <time>2021-03-20T14:39:42Z</time>
      </trkpt>
      <trkpt lat="57.55674" lon="-5.77044">
        <ele>32.74</ele>
        <time>2021-03-20T14:39:44Z</time>
      </trkpt>
      <trkpt lat="57.55672" lon="-5.77013">
        <ele>34.81</ele>
        <time>2021-03-20T14:39:47Z</time>
      </trkpt>
      <trkpt lat="57.55673" lon="-5.76955">
        <ele>39.22</ele>
        <time>2021-03-20T14:39:49Z</time>
      </trkpt>
      <trkpt lat="57.55677" lon="-5.76909">
        <ele>42.58</ele>
        <time>2021-03-20T14:39:52Z</time>
      </trkpt>
      <trkpt lat="57.55688" lon="-5.76869">
        <ele>46.18</ele>
        <time>2021-03-20T14:39:54Z</time>
      </trkpt>
      <trkpt lat="57.55702" lon="-5.76837">
        <ele>48.38</ele>
        <time>2021-03-20T14:39:57Z</time>
      </trkpt>
      <trkpt lat="57.55719" lon="-5.76809">
        <ele>50.13</ele>
        <time>2021-03-20T14:39:59Z</time>
      </trkpt>
      <trkpt lat="57.55904" lon="-5.76537">
        <ele>31.11</ele>
        <time>2021-03-20T14:40:02Z</time>
      </trkpt>
      <trkpt lat="57.5592" lon="-5.76505">
        <ele>29.23</ele>
        <time>2021-03-20T14:40:04Z</time>
      </trkpt>
      <trkpt lat="57.55932" lon="-5.76454">
        <ele>28.85</ele>
        <time>2021-03-20T14:40:07Z</time>
      </trkpt>
      <trkpt lat="57.55942" lon="-5.76402">
        <ele>26.08</ele>
        <time>2021-03-20T14:40:09Z</time>
      </trkpt>
      <trkpt lat="57.55941" lon="-5.76348">
        <ele>24.28</ele>
        <time>2021-03-20T14:40:12Z</time>
      </trkpt>
      <trkpt lat="57.55938" lon="-5.76318">
        <ele>23.7</ele>
        <time>2021-03-20T14:40:14Z</time>
      </trkpt>
      <trkpt lat="57.5593" lon="-5.76282">
        <ele>21.9</ele>
        <time>2021-03-20T14:40:17Z</time>
      </trkpt>
      <trkpt lat="57.55918" lon="-5.76252">
        <ele>20.08</ele>
        <time>2021-03-20T14:40:19Z</time>
      </trkpt>
      <trkpt lat="57.55892" lon="-5.76197">
        <ele>16.2</ele>
        <time>2021-03-20T14:40:22Z</time>
      </trkpt>
      <trkpt lat="57.55821" lon="-5.76082">
        <ele>13.18</ele>
        <time>2021-03-20T14:40:24Z</time>
      </trkpt>
      <trkpt lat="57.55804" lon="-5.76061">
        <ele>11.98</ele>
        <time>2021-03-20T14:40:27Z</time>
      </trkpt>
      <trkpt lat="57.55777" lon="-5.76037">
        <ele>13.11</ele>
        <time>2021-03-20T14:40:29Z</time>
      </trkpt>
      <trkpt lat="57.55717" lon="-5.76005">
        <ele>17.58</ele>
        <time>2021-03-20T14:40:31Z</time>
      </trkpt>
      <trkpt lat="57.55659" lon="-5.75979">
        <ele>27.05</ele>
        <time>2021-03-20T14:40:34Z</time>
      </trkpt>
      <trkpt lat="57.55644" lon="-5.75967">
        <ele>29.69</ele>
        <time>2021-03-20T14:40:36Z</time>
      </trkpt>
      <trkpt lat="57.55632" lon="-5.7595">
        <ele>32.34</ele>
        <time>2021-03-20T14:40:39Z</time>
      </trkpt>
      <trkpt lat="57.55619" lon="-5.75911">
        <ele>36.4</ele>
        <time>2021-03-20T14:40:41Z</time>
      </trkpt>
      <trkpt lat="57.55613" lon="-5.75876">
        <ele>37.51</ele>
        <time>2021-03-20T14:40:44Z</time>
      </trkpt>
      <trkpt lat="57.55607" lon="-5.75818">
        <ele>39.49</ele>
        <time>2021-03-20T14:40:46Z</time>
      </trkpt>
      <trkpt lat="57.55579" lon="-5.75706">
        <ele>47.03</ele>
        <time>2021-03-20T14:40:49Z</time>
      </trkpt>
      <trkpt lat="57.55558" lon="-5.75638">
        <ele>49.19</ele>
        <time>2021-03-20T14:40:51Z</time>
      </trkpt>
      <trkpt lat="57.55534" lon="-5.75591">
        <ele>52.68</ele>
        <time>2021-03-20T14:40:54Z</time>
      </trkpt>
      <trkpt lat="57.55512" lon="-5.75564">
        <ele>53.73</ele>
        <time>2021-03-20T14:40:56Z</time>
      </trkpt>
      <trkpt lat="57.55486" lon="-5.75545">
        <ele>53.13</ele>
        <time>2021-03-20T14:40:59Z</time>
      </trkpt>
      <trkpt lat="57.5546" lon="-5.75535">
        <ele>52.07</ele>
        <time>2021-03-20T14:41:01Z</time>
      </trkpt>
      <trkpt lat="57.55436" lon="-5.75532">
        <ele>51.55</ele>
        <time>2021-03-20T14:41:04Z</time>
      </trkpt>
      <trkpt lat="57.55416" lon="-5.75533">
        <ele>51.73</ele>
        <time>2021-03-20T14:41:06Z</time>
      </trkpt>
      <trkpt lat="57.55376" lon="-5.75546">
        <ele>51.63</ele>
        <time>2021-03-20T14:41:09Z</time>
      </trkpt>
      <trkpt lat="57.55291" lon="-5.75585">
        <ele>48.01</ele>
        <time>2021-03-20T14:41:11Z</time>
      </trkpt>
      <trkpt lat="57.55267" lon="-5.75598">
        <ele>46.09</ele>
        <time>2021-03-20T14:41:14Z</time>
      </trkpt>
      <trkpt lat="57.55192" lon="-5.7565">
        <ele>37.78</ele>
        <time>2021-03-20T14:41:16Z</time>
      </trkpt>
      <trkpt lat="57.55154" lon="-5.75671">
        <ele>35.19</ele>
        <time>2021-03-20T14:41:19Z</time>
      </trkpt>
      <trkpt lat="57.55132" lon="-5.75675">
        <ele>33.54</ele>
        <time>2021-03-20T14:41:21Z</time>
      </trkpt>
      <trkpt lat="57.55111" lon="-5.75676">
        <ele>31.27</ele>
        <time>2021-03-20T14:41:24Z</time>
      </trkpt>
      <trkpt lat="57.55089" lon="-5.75673">
        <ele>29.06</ele>
        <time>2021-03-20T14:41:26Z</time>
      </trkpt>
      <trkpt lat="57.55066" lon="-5.75663">
        <ele>26.43</ele>
        <time>2021-03-20T14:41:29Z</time>
      </trkpt>
      <trkpt lat="57.55044" lon="-5.75644">
        <ele>24.39</ele>
        <time>2021-03-20T14:41:31Z</time>
      </trkpt>
      <trkpt lat="57.55007" lon="-5.75589">
        <ele>20.26</ele>
        <time>2021-03-20T14:41:34Z</time>
      </trkpt>
      <trkpt lat="57.54978" lon="-5.75532">
        <ele>18.81</ele>
        <time>2021-03-20T14:41:36Z</time>
      </trkpt>
      <trkpt lat="57.54945" lon="-5.75456">
        <ele>19.38</ele>
        <time>2021-03-20T14:41:39Z</time>
      </trkpt>
      <trkpt lat="57.54895" lon="-5.75312">
        <ele>25.32</ele>
        <time>2021-03-20T14:41:41Z</time>
      </trkpt>
      <trkpt lat="57.54856" lon="-5.75232">
        <ele>26.9</ele>
        <time>2021-03-20T14:41:44Z</time>
      </trkpt>
      <trkpt lat="57.54836" lon="-5.75196">
        <ele>26.92</ele>
        <time>2021-03-20T14:41:46Z</time>
      </trkpt>
      <trkpt lat="57.54818" lon="-5.7517">
        <ele>26.97</ele>
        <time>2021-03-20T14:41:49Z</time>
      </trkpt>
      <trkpt lat="57.54794" lon="-5.75143">
        <ele>27.66</ele>
        <time>2021-03-20T14:41:51Z</time>
      </trkpt>
      <trkpt lat="57.54768" lon="-5.7512">
        <ele>27.26</ele>
        <time>2021-03-20T14:41:54Z</time>
      </trkpt>
      <trkpt lat="57.54704" lon="-5.7507">
        <ele>29.61</ele>
        <time>2021-03-20T14:41:56Z</time>
      </trkpt>
      <trkpt lat="57.54672" lon="-5.75038">
        <ele>30.19</ele>
        <time>2021-03-20T14:41:59Z</time>
      </trkpt>
      <trkpt lat="57.54634" lon="-5.7499">
        <ele>29.7</ele>
        <time>2021-03-20T14:42:01Z</time>
      </trkpt>
      <trkpt lat="57.54611" lon="-5.74954">
        <ele>30.35</ele>
        <time>2021-03-20T14:42:04Z</time>
      </trkpt>
      <trkpt lat="57.54597" lon="-5.74923">
        <ele>31.1</ele>
        <time>2021-03-20T14:42:06Z</time>
      </trkpt>
      <trkpt lat="57.54591" lon="-5.74893">
        <ele>31.59</ele>
        <time>2021-03-20T14:42:09Z</time>
      </trkpt>
      <trkpt lat="57.54586" lon="-5.74838">
        <ele>30.75</ele>
        <time>2021-03-20T14:42:11Z</time>
      </trkpt>
      <trkpt lat="57.54582" lon="-5.74773">
        <ele>30.14</ele>
        <time>2021-03-20T14:42:14Z</time>
      </trkpt>
      <trkpt lat="57.54577" lon="-5.74721">
        <ele>31.09</ele>
        <time>2021-03-20T14:42:16Z</time>
      </trkpt>
      <trkpt lat="57.54565" lon="-5.7468">
        <ele>31.58</ele>
        <time>2021-03-20T14:42:19Z</time>
      </trkpt>
      <trkpt lat="57.54553" lon="-5.74657">
        <ele>31.96</ele>
        <time>2021-03-20T14:42:21Z</time>
      </trkpt>
      <trkpt lat="57.54537" lon="-5.74636">
        <ele>31.88</ele>
        <time>2021-03-20T14:42:24Z</time>
      </trkpt>
      <trkpt lat="57.54486" lon="-5.74542">
        <ele>27.11</ele>
        <time>2021-03-20T14:42:26Z</time>
      </trkpt>
      <trkpt lat="57.54463" lon="-5.74514">
        <ele>28.17</ele>
        <time>2021-03-20T14:42:29Z</time>
      </trkpt>
      <trkpt lat="57.54454" lon="-5.74494">
        <ele>27.54</ele>
        <time>2021-03-20T14:42:31Z</time>
      </trkpt>
      <trkpt lat="57.5444" lon="-5.74452">
        <ele>23.69</ele>
        <time>2021-03-20T14:42:34Z</time>
      </trkpt>
      <trkpt lat="57.54423" lon="-5.74406">
        <ele>21.62</ele>
        <time>2021-03-20T14:42:36Z</time>
      </trkpt>
      <trkpt lat="57.54386" lon="-5.74349">
        <ele>25.96</ele>
        <time>2021-03-20T14:42:39Z</time>
      </trkpt>
      <trkpt lat="57.5435" lon="-5.74297">
        <ele>27.58</ele>
        <time>2021-03-20T14:42:41Z</time>
      </trkpt>
      <trkpt lat="57.54334" lon="-5.7429">
        <ele>28.73</ele>
        <time>2021-03-20T14:42:44Z</time>
      </trkpt>
      <trkpt lat="57.54284" lon="-5.7428">
        <ele>37.14</ele>
        <time>2021-03-20T14:42:46Z</time>
      </trkpt>
      <trkpt lat="57.54198" lon="-5.74237">
        <ele>41.66</ele>
        <time>2021-03-20T14:42:49Z</time>
      </trkpt>
      <trkpt lat="57.54102" lon="-5.74193">
        <ele>50.85</ele>
        <time>2021-03-20T14:42:51Z</time>
      </trkpt>
      <trkpt lat="57.54045" lon="-5.74175">
        <ele>54.42</ele>
        <time>2021-03-20T14:42:54Z</time>
      </trkpt>
      <trkpt lat="57.54014" lon="-5.74177">
        <ele>56.98</ele>
        <time>2021-03-20T14:42:56Z</time>
      </trkpt>
      <trkpt lat="57.53982" lon="-5.74189">
        <ele>59.85</ele>
        <time>2021-03-20T14:42:59Z</time>
      </trkpt>
      <trkpt lat="57.53951" lon="-5.74209">
        <ele>62.94</ele>
        <time>2021-03-20T14:43:01Z</time>
      </trkpt>
      <trkpt lat="57.53931" lon="-5.74229">
        <ele>64.71</ele>
        <time>2021-03-20T14:43:03Z</time>
      </trkpt>
      <trkpt lat="57.53903" lon="-5.74247">
        <ele>66.24</ele>
        <time>2021-03-20T14:43:06Z</time>
      </trkpt>
      <trkpt lat="57.5388" lon="-5.74249">
        <ele>66.28</ele>
        <time>2021-03-20T14:43:08Z</time>
      </trkpt>
      <trkpt lat="57.53863" lon="-5.74238">
        <ele>66.06</ele>
        <time>2021-03-20T14:43:11Z</time>
      </trkpt>
      <trkpt lat="57.53835" lon="-5.74206">
        <ele>65</ele>
        <time>2021-03-20T14:43:13Z</time>
      </trkpt>
      <trkpt lat="57.53701" lon="-5.74127">
        <ele>69.57</ele>
        <time>2021-03-20T14:43:16Z</time>
      </trkpt>
      <trkpt lat="57.53683" lon="-5.74111">
        <ele>70.84</ele>
        <time>2021-03-20T14:43:18Z</time>
      </trkpt>
      <trkpt lat="57.5366" lon="-5.74081">
        <ele>73.58</ele>
        <time>2021-03-20T14:43:21Z</time>
      </trkpt>
      <trkpt lat="57.53617" lon="-5.74006">
        <ele>79.72</ele>
        <time>2021-03-20T14:43:23Z</time>
      </trkpt>
      <trkpt lat="57.5356" lon="-5.73938">
        <ele>83.72</ele>
        <time>2021-03-20T14:43:26Z</time>
      </trkpt>
      <trkpt lat="57.53545" lon="-5.73916">
        <ele>84.73</ele>
        <time>2021-03-20T14:43:28Z</time>
      </trkpt>
      <trkpt lat="57.53538" lon="-5.73899">
        <ele>85.88</ele>
        <time>2021-03-20T14:43:31Z</time>
      </trkpt>
      <trkpt lat="57.53525" lon="-5.73831">
        <ele>86.89</ele>
        <time>2021-03-20T14:43:33Z</time>
      </trkpt>
      <trkpt lat="57.53513" lon="-5.73803">
        <ele>86.37</ele>
        <time>2021-03-20T14:43:36Z</time>
      </trkpt>
      <trkpt lat="57.53499" lon="-5.73786">
        <ele>85.28</ele>
        <time>2021-03-20T14:43:38Z</time>
      </trkpt>
      <trkpt lat="57.5348" lon="-5.73776">
        <ele>85</ele>
        <time>2021-03-20T14:43:41Z</time>
      </trkpt>
      <trkpt lat="57.5346" lon="-5.73773">
        <ele>85.43</ele>
        <time>2021-03-20T14:43:43Z</time>
      </trkpt>
      <trkpt lat="57.53428" lon="-5.73761">
        <ele>86.6</ele>
        <time>2021-03-20T14:43:46Z</time>
      </trkpt>
      <trkpt lat="57.53414" lon="-5.73751">
        <ele>87.1</ele>
        <time>2021-03-20T14:43:48Z</time>
      </trkpt>
      <trkpt lat="57.53403" lon="-5.73735">
        <ele>86.94</ele>
        <time>2021-03-20T14:43:51Z</time>
      </trkpt>
      <trkpt lat="57.53389" lon="-5.73703">
        <ele>87</ele>
        <time>2021-03-20T14:43:53Z</time>
      </trkpt>
      <trkpt lat="57.53364" lon="-5.73639">
        <ele>89.22</ele>
        <time>2021-03-20T14:43:56Z</time>
      </trkpt>
      <trkpt lat="57.53339" lon="-5.73585">
        <ele>90.69</ele>
        <time>2021-03-20T14:43:58Z</time>
      </trkpt>
      <trkpt lat="57.5333" lon="-5.73562">
        <ele>90.97</ele>
        <time>2021-03-20T14:44:01Z</time>
      </trkpt>
      <trkpt lat="57.53309" lon="-5.73481">
        <ele>92.44</ele>
        <time>2021-03-20T14:44:03Z</time>
      </trkpt>
      <trkpt lat="57.53302" lon="-5.73412">
        <ele>93.32</ele>
        <time>2021-03-20T14:44:06Z</time>
      </trkpt>
      <trkpt lat="57.53303" lon="-5.73342">
        <ele>92.03</ele>
        <time>2021-03-20T14:44:08Z</time>
      </trkpt>
      <trkpt lat="57.53306" lon="-5.73313">
        <ele>92.13</ele>
        <time>2021-03-20T14:44:11Z</time>
      </trkpt>
      <trkpt lat="57.53313" lon="-5.73288">
        <ele>92.8</ele>
        <time>2021-03-20T14:44:13Z</time>
      </trkpt>
      <trkpt lat="57.53328" lon="-5.73244">
        <ele>93.86</ele>
        <time>2021-03-20T14:44:16Z</time>
      </trkpt>
      <trkpt lat="57.53344" lon="-5.7321">
        <ele>95.72</ele>
        <time>2021-03-20T14:44:18Z</time>
      </trkpt>
      <trkpt lat="57.53363" lon="-5.73179">
        <ele>97.17</ele>
        <time>2021-03-20T14:44:21Z</time>
      </trkpt>
      <trkpt lat="57.53383" lon="-5.73154">
        <ele>98.83</ele>
        <time>2021-03-20T14:44:23Z</time>
      </trkpt>
      <trkpt lat="57.53439" lon="-5.73096">
        <ele>101.98</ele>
        <time>2021-03-20T14:44:26Z</time>
      </trkpt>
      <trkpt lat="57.53475" lon="-5.73077">
        <ele>102.65</ele>
        <time>2021-03-20T14:44:28Z</time>
      </trkpt>
      <trkpt lat="57.53515" lon="-5.73067">
        <ele>103</ele>
        <time>2021-03-20T14:44:31Z</time>
      </trkpt>
      <trkpt lat="57.53555" lon="-5.73064">
        <ele>102.92</ele>
        <time>2021-03-20T14:44:33Z</time>
      </trkpt>
      <trkpt lat="57.5359" lon="-5.73074">
        <ele>104.91</ele>
        <time>2021-03-20T14:44:36Z</time>
      </trkpt>
      <trkpt lat="57.53621" lon="-5.7307">
        <ele>105.08</ele>
        <time>2021-03-20T14:44:38Z</time>
      </trkpt>
      <trkpt lat="57.53645" lon="-5.73055">
        <ele>103.43</ele>
        <time>2021-03-20T14:44:41Z</time>
      </trkpt>
      <trkpt lat="57.53667" lon="-5.73034">
        <ele>104.24</ele>
        <time>2021-03-20T14:44:43Z</time>
      </trkpt>
      <trkpt lat="57.53687" lon="-5.73005">
        <ele>104.65</ele>
        <time>2021-03-20T14:44:46Z</time>
      </trkpt>
      <trkpt lat="57.53695" lon="-5.72984">
        <ele>104.49</ele>
        <time>2021-03-20T14:44:48Z</time>
      </trkpt>
      <trkpt lat="57.53708" lon="-5.72934">
        <ele>103.1</ele>
        <time>2021-03-20T14:44:51Z</time>
      </trkpt>
      <trkpt lat="57.53722" lon="-5.72838">
        <ele>102.02</ele>
        <time>2021-03-20T14:44:53Z</time>
      </trkpt>
      <trkpt lat="57.53731" lon="-5.72804">
        <ele>105.9</ele>
        <time>2021-03-20T14:44:56Z</time>
      </trkpt>
      <trkpt lat="57.53741" lon="-5.72786">
        <ele>107.67</ele>
        <time>2021-03-20T14:44:58Z</time>
      </trkpt>
      <trkpt lat="57.53833" lon="-5.72686">
        <ele>122.93</ele>
        <time>2021-03-20T14:45:01Z</time>
      </trkpt>
      <trkpt lat="57.53861" lon="-5.72642">
        <ele>127.71</ele>
        <time>2021-03-20T14:45:03Z</time>
      </trkpt>
      <trkpt lat="57.53875" lon="-5.72623">
        <ele>129.46</ele>
        <time>2021-03-20T14:45:06Z</time>
      </trkpt>
      <trkpt lat="57.53891" lon="-5.72611">
        <ele>130.16</ele>
        <time>2021-03-20T14:45:08Z</time>
      </trkpt>
      <trkpt lat="57.5397" lon="-5.72575">
        <ele>135.63</ele>
        <time>2021-03-20T14:45:11Z</time>
      </trkpt>
      <trkpt lat="57.54018" lon="-5.72541">
        <ele>138.17</ele>
        <time>2021-03-20T14:45:13Z</time>
      </trkpt>
      <trkpt lat="57.54038" lon="-5.72538">
        <ele>137.44</ele>
        <time>2021-03-20T14:45:16Z</time>
      </trkpt>
      <trkpt lat="57.54058" lon="-5.72543">
        <ele>135.73</ele>
        <time>2021-03-20T14:45:18Z</time>
      </trkpt>
      <trkpt lat="57.54092" lon="-5.72532">
        <ele>132.3</ele>
        <time>2021-03-20T14:45:21Z</time>
      </trkpt>
      <trkpt lat="57.54102" lon="-5.72525">
        <ele>129.89</ele>
        <time>2021-03-20T14:45:23Z</time>
      </trkpt>
      <trkpt lat="57.54123" lon="-5.72475">
        <ele>122.17</ele>
        <time>2021-03-20T14:45:26Z</time>
      </trkpt>
      <trkpt lat="57.54143" lon="-5.72419">
        <ele>113.62</ele>
        <time>2021-03-20T14:45:28Z</time>
      </trkpt>
      <trkpt lat="57.54149" lon="-5.72396">
        <ele>111.04</ele>
        <time>2021-03-20T14:45:31Z</time>
      </trkpt>
      <trkpt lat="57.54152" lon="-5.72346">
        <ele>109.6</ele>
        <time>2021-03-20T14:45:33Z</time>
      </trkpt>
      <trkpt lat="57.54154" lon="-5.72329">
        <ele>108.24</ele>
        <time>2021-03-20T14:45:36Z</time>
      </trkpt>
      <trkpt lat="57.54169" lon="-5.72267">
        <ele>102.2</ele>
        <time>2021-03-20T14:45:38Z</time>
      </trkpt>
      <trkpt lat="57.54175" lon="-5.72222">
        <ele>101.73</ele>
        <time>2021-03-20T14:45:40Z</time>
      </trkpt>
      <trkpt lat="57.54179" lon="-5.72158">
        <ele>97.71</ele>
        <time>2021-03-20T14:45:43Z</time>
      </trkpt>
      <trkpt lat="57.54177" lon="-5.72088">
        <ele>92.89</ele>
        <time>2021-03-20T14:45:45Z</time>
      </trkpt>
      <trkpt lat="57.54172" lon="-5.72055">
        <ele>91.79</ele>
        <time>2021-03-20T14:45:48Z</time>
      </trkpt>
      <trkpt lat="57.54158" lon="-5.72025">
        <ele>90.56</ele>
        <time>2021-03-20T14:45:50Z</time>
      </trkpt>
      <trkpt lat="57.54141" lon="-5.71995">
        <ele>87.76</ele>
        <time>2021-03-20T14:45:53Z</time>
      </trkpt>
      <trkpt lat="57.54119" lon="-5.71975">
        <ele>87.52</ele>
        <time>2021-03-20T14:45:55Z</time>
      </trkpt>
      <trkpt lat="57.54058" lon="-5.71945">
        <ele>88.69</ele>
        <time>2021-03-20T14:45:58Z</time>
      </trkpt>
      <trkpt lat="57.54039" lon="-5.71927">
        <ele>86.74</ele>
        <time>2021-03-20T14:46:00Z</time>
      </trkpt>
      <trkpt lat="57.54023" lon="-5.719">
        <ele>82.97</ele>
        <time>2021-03-20T14:46:03Z</time>
      </trkpt>
      <trkpt lat="57.54004" lon="-5.71881">
        <ele>81.5</ele>
        <time>2021-03-20T14:46:05Z</time>
      </trkpt>
      <trkpt lat="57.5395" lon="-5.71857">
        <ele>84.52</ele>
        <time>2021-03-20T14:46:08Z</time>
      </trkpt>
      <trkpt lat="57.53922" lon="-5.71822">
        <ele>82.03</ele>
        <time>2021-03-20T14:46:10Z</time>
      </trkpt>
      <trkpt lat="57.53897" lon="-5.71782">
        <ele>79.78</ele>
        <time>2021-03-20T14:46:13Z</time>
      </trkpt>
      <trkpt lat="57.53867" lon="-5.71698">
        <ele>73.14</ele>
        <time>2021-03-20T14:46:15Z</time>
      </trkpt>
      <trkpt lat="57.53847" lon="-5.71656">
        <ele>67.27</ele>
        <time>2021-03-20T14:46:18Z</time>
      </trkpt>
      <trkpt lat="57.53829" lon="-5.71629">
        <ele>63.34</ele>
        <time>2021-03-20T14:46:20Z</time>
      </trkpt>
      <trkpt lat="57.53785" lon="-5.7159">
        <ele>63.46</ele>
        <time>2021-03-20T14:46:23Z</time>
      </trkpt>
      <trkpt lat="57.53714" lon="-5.7152">
        <ele>55.28</ele>
        <time>2021-03-20T14:46:25Z</time>
      </trkpt>
      <trkpt lat="57.53666" lon="-5.71457">
        <ele>48.83</ele>
        <time>2021-03-20T14:46:28Z</time>
      </trkpt>
      <trkpt lat="57.53643" lon="-5.71421">
        <ele>46.23</ele>
        <time>2021-03-20T14:46:30Z</time>
      </trkpt>
      <trkpt lat="57.53593" lon="-5.71323">
        <ele>39.94</ele>
        <time>2021-03-20T14:46:33Z</time>
      </trkpt>
      <trkpt lat="57.53595" lon="-5.71287">
        <ele>39.1</ele>
        <time>2021-03-20T14:46:35Z</time>
      </trkpt>
      <trkpt lat="57.53603" lon="-5.7127">
        <ele>38.42</ele>
        <time>2021-03-20T14:46:38Z</time>
      </trkpt>
      <trkpt lat="57.53614" lon="-5.71262">
        <ele>37.91</ele>
        <time>2021-03-20T14:46:40Z</time>
      </trkpt>
      <trkpt lat="57.53667" lon="-5.71246">
        <ele>35.42</ele>
        <time>2021-03-20T14:46:43Z</time>
      </trkpt>
      <trkpt lat="57.53697" lon="-5.71228">
        <ele>34.38</ele>
        <time>2021-03-20T14:46:45Z</time>
      </trkpt>
      <trkpt lat="57.53714" lon="-5.71221">
        <ele>33.02</ele>
        <time>2021-03-20T14:46:48Z</time>
      </trkpt>
      <trkpt lat="57.53772" lon="-5.71221">
        <ele>26.61</ele>
        <time>2021-03-20T14:46:50Z</time>
      </trkpt>
      <trkpt lat="57.5379" lon="-5.71217">
        <ele>25.28</ele>
        <time>2021-03-20T14:46:53Z</time>
      </trkpt>
      <trkpt lat="57.53807" lon="-5.71205">
        <ele>24.52</ele>
        <time>2021-03-20T14:46:55Z</time>
      </trkpt>
      <trkpt lat="57.53838" lon="-5.71165">
        <ele>23.9</ele>
        <time>2021-03-20T14:46:58Z</time>
      </trkpt>
      <trkpt lat="57.5389" lon="-5.71112">
        <ele>21.96</ele>
        <time>2021-03-20T14:47:00Z</time>
      </trkpt>
      <trkpt lat="57.5393" lon="-5.71083">
        <ele>21.54</ele>
        <time>2021-03-20T14:47:03Z</time>
      </trkpt>
      <trkpt lat="57.5397" lon="-5.71058">
        <ele>19.25</ele>
        <time>2021-03-20T14:47:05Z</time>
      </trkpt>
      <trkpt lat="57.53996" lon="-5.71031">
        <ele>18.14</ele>
        <time>2021-03-20T14:47:08Z</time>
      </trkpt>
      <trkpt lat="57.54001" lon="-5.71014">
        <ele>17.4</ele>
        <time>2021-03-20T14:47:10Z</time>
      </trkpt>
      <trkpt lat="57.54002" lon="-5.7099">
        <ele>16.39</ele>
        <time>2021-03-20T14:47:13Z</time>
      </trkpt>
      <trkpt lat="57.54" lon="-5.70977">
        <ele>16.19</ele>
        <time>2021-03-20T14:47:15Z</time>
      </trkpt>
      <trkpt lat="57.53982" lon="-5.70935">
        <ele>15.93</ele>
        <time>2021-03-20T14:47:18Z</time>
      </trkpt>
      <trkpt lat="57.53941" lon="-5.70763">
        <ele>13.71</ele>
        <time>2021-03-20T14:47:20Z</time>
      </trkpt>
      <trkpt lat="57.5393" lon="-5.70737">
        <ele>14.55</ele>
        <time>2021-03-20T14:47:23Z</time>
      </trkpt>
      <trkpt lat="57.53912" lon="-5.70711">
        <ele>15.95</ele>
        <time>2021-03-20T14:47:25Z</time>
      </trkpt>
      <trkpt lat="57.53835" lon="-5.70631">
        <ele>23.26</ele>
        <time>2021-03-20T14:47:28Z</time>
      </trkpt>
      <trkpt lat="57.53697" lon="-5.70447">
        <ele>23.29</ele>
        <time>2021-03-20T14:47:30Z</time>
      </trkpt>
      <trkpt lat="57.53686" lon="-5.70426">
        <ele>24.07</ele>
        <time>2021-03-20T14:47:33Z</time>
      </trkpt>
      <trkpt lat="57.53657" lon="-5.70314">
        <ele>25.8</ele>
        <time>2021-03-20T14:47:35Z</time>
      </trkpt>
      <trkpt lat="57.5364" lon="-5.70265">
        <ele>26.04</ele>
        <time>2021-03-20T14:47:38Z</time>
      </trkpt>
      <trkpt lat="57.53616" lon="-5.70213">
        <ele>25.54</ele>
        <time>2021-03-20T14:47:40Z</time>
      </trkpt>
      <trkpt lat="57.53579" lon="-5.70142">
        <ele>24.01</ele>
        <time>2021-03-20T14:47:43Z</time>
      </trkpt>
      <trkpt lat="57.53549" lon="-5.70098">
        <ele>19.34</ele>
        <time>2021-03-20T14:47:45Z</time>
      </trkpt>
      <trkpt lat="57.53528" lon="-5.70083">
        <ele>18</ele>
        <time>2021-03-20T14:47:48Z</time>
      </trkpt>
      <trkpt lat="57.53505" lon="-5.70072">
        <ele>16.27</ele>
        <time>2021-03-20T14:47:50Z</time>
      </trkpt>
      <trkpt lat="57.53474" lon="-5.70071">
        <ele>16.82</ele>
        <time>2021-03-20T14:47:53Z</time>
      </trkpt>
      <trkpt lat="57.53449" lon="-5.7008">
        <ele>18.56</ele>
        <time>2021-03-20T14:47:55Z</time>
      </trkpt>
      <trkpt lat="57.53407" lon="-5.70117">
        <ele>20.08</ele>
        <time>2021-03-20T14:47:58Z</time>
      </trkpt>
      <trkpt lat="57.53387" lon="-5.70126">
        <ele>20.08</ele>
        <time>2021-03-20T14:48:00Z</time>
      </trkpt>
      <trkpt lat="57.53362" lon="-5.70125">
        <ele>20.51</ele>
        <time>2021-03-20T14:48:03Z</time>
      </trkpt>
      <trkpt lat="57.53336" lon="-5.7012">
        <ele>20.33</ele>
        <time>2021-03-20T14:48:05Z</time>
      </trkpt>
      <trkpt lat="57.53231" lon="-5.70064">
        <ele>25.32</ele>
        <time>2021-03-20T14:48:08Z</time>
      </trkpt>
      <trkpt lat="57.53213" lon="-5.70048">
        <ele>26.47</ele>
        <time>2021-03-20T14:48:10Z</time>
      </trkpt>
      <trkpt lat="57.53193" lon="-5.70018">
        <ele>25.9</ele>
        <time>2021-03-20T14:48:13Z</time>
      </trkpt>
      <trkpt lat="57.53176" lon="-5.69984">
        <ele>23.03</ele>
        <time>2021-03-20T14:48:15Z</time>
      </trkpt>
      <trkpt lat="57.53159" lon="-5.69962">
        <ele>20.65</ele>
        <time>2021-03-20T14:48:17Z</time>
      </trkpt>
      <trkpt lat="57.53134" lon="-5.69941">
        <ele>18.78</ele>
        <time>2021-03-20T14:48:20Z</time>
      </trkpt>
      <trkpt lat="57.53107" lon="-5.69929">
        <ele>19.16</ele>
        <time>2021-03-20T14:48:22Z</time>
      </trkpt>
      <trkpt lat="57.53079" lon="-5.69906">
        <ele>18.17</ele>
        <time>2021-03-20T14:48:25Z</time>
      </trkpt>
      <trkpt lat="57.53056" lon="-5.69877">
        <ele>16.33</ele>
        <time>2021-03-20T14:48:27Z</time>
      </trkpt>
      <trkpt lat="57.53024" lon="-5.69843">
        <ele>14.08</ele>
        <time>2021-03-20T14:48:30Z</time>
      </trkpt>
      <trkpt lat="57.52982" lon="-5.69821">
        <ele>14.03</ele>
        <time>2021-03-20T14:48:32Z</time>
      </trkpt>
      <trkpt lat="57.5296" lon="-5.69778">
        <ele>16.62</ele>
        <time>2021-03-20T14:48:35Z</time>
      </trkpt>
      <trkpt lat="57.5296" lon="-5.69763">
        <ele>18.98</ele>
        <time>2021-03-20T14:48:37Z</time>
      </trkpt>
      <trkpt lat="57.52966" lon="-5.69737">
        <ele>21.16</ele>
        <time>2021-03-20T14:48:40Z</time>
      </trkpt>
      <trkpt lat="57.52979" lon="-5.69705">
        <ele>21.05</ele>
        <time>2021-03-20T14:48:42Z</time>
      </trkpt>
      <trkpt lat="57.53004" lon="-5.6967">
        <ele>16.47</ele>
        <time>2021-03-20T14:48:45Z</time>
      </trkpt>
      <trkpt lat="57.53011" lon="-5.69648">
        <ele>17</ele>
        <time>2021-03-20T14:48:47Z</time>
      </trkpt>
      <trkpt lat="57.53011" lon="-5.69627">
        <ele>19.78</ele>
        <time>2021-03-20T14:48:50Z</time>
      </trkpt>
      <trkpt lat="57.53005" lon="-5.69561">
        <ele>28.31</ele>
        <time>2021-03-20T14:48:52Z</time>
      </trkpt>
      <trkpt lat="57.52991" lon="-5.6948">
        <ele>37.02</ele>
        <time>2021-03-20T14:48:55Z</time>
      </trkpt>
      <trkpt lat="57.52985" lon="-5.69435">
        <ele>39.96</ele>
        <time>2021-03-20T14:48:57Z</time>
      </trkpt>
      <trkpt lat="57.52984" lon="-5.694">
        <ele>41.5</ele>
        <time>2021-03-20T14:49:00Z</time>
      </trkpt>
      <trkpt lat="57.52986" lon="-5.69357">
        <ele>41.64</ele>
        <time>2021-03-20T14:49:02Z</time>
      </trkpt>
      <trkpt lat="57.52983" lon="-5.69327">
        <ele>42.43</ele>
        <time>2021-03-20T14:49:05Z</time>
      </trkpt>
      <trkpt lat="57.52977" lon="-5.69298">
        <ele>44.03</ele>
        <time>2021-03-20T14:49:07Z</time>
      </trkpt>
      <trkpt lat="57.52954" lon="-5.69243">
        <ele>47.54</ele>
        <time>2021-03-20T14:49:10Z</time>
      </trkpt>
      <trkpt lat="57.52929" lon="-5.6919">
        <ele>47.57</ele>
        <time>2021-03-20T14:49:12Z</time>
      </trkpt>
      <trkpt lat="57.52911" lon="-5.69163">
        <ele>47.47</ele>
        <time>2021-03-20T14:49:15Z</time>
      </trkpt>
      <trkpt lat="57.52897" lon="-5.69149">
        <ele>48.19</ele>
        <time>2021-03-20T14:49:17Z</time>
      </trkpt>
      <trkpt lat="57.52873" lon="-5.69138">
        <ele>52.37</ele>
        <time>2021-03-20T14:49:20Z</time>
      </trkpt>
      <trkpt lat="57.52807" lon="-5.69122">
        <ele>60.48</ele>
        <time>2021-03-20T14:49:22Z</time>
      </trkpt>
      <trkpt lat="57.52778" lon="-5.69124">
        <ele>63.14</ele>
        <time>2021-03-20T14:49:25Z</time>
      </trkpt>
      <trkpt lat="57.52732" lon="-5.69151">
        <ele>67.91</ele>
        <time>2021-03-20T14:49:27Z</time>
      </trkpt>
      <trkpt lat="57.52711" lon="-5.69161">
        <ele>68.44</ele>
        <time>2021-03-20T14:49:30Z</time>
      </trkpt>
      <trkpt lat="57.52696" lon="-5.69162">
        <ele>67.64</ele>
        <time>2021-03-20T14:49:32Z</time>
      </trkpt>
      <trkpt lat="57.52682" lon="-5.6915">
        <ele>65.58</ele>
        <time>2021-03-20T14:49:35Z</time>
      </trkpt>
      <trkpt lat="57.52675" lon="-5.69136">
        <ele>63.98</ele>
        <time>2021-03-20T14:49:37Z</time>
      </trkpt>
      <trkpt lat="57.52673" lon="-5.69115">
        <ele>61.44</ele>
        <time>2021-03-20T14:49:40Z</time>
      </trkpt>
      <trkpt lat="57.52675" lon="-5.69091">
        <ele>61.5</ele>
        <time>2021-03-20T14:49:42Z</time>
      </trkpt>
      <trkpt lat="57.52688" lon="-5.69061">
        <ele>60.77</ele>
        <time>2021-03-20T14:49:45Z</time>
      </trkpt>
      <trkpt lat="57.52709" lon="-5.68998">
        <ele>58.35</ele>
        <time>2021-03-20T14:49:47Z</time>
      </trkpt>
      <trkpt lat="57.52712" lon="-5.68977">
        <ele>56.49</ele>
        <time>2021-03-20T14:49:50Z</time>
      </trkpt>
      <trkpt lat="57.52711" lon="-5.68954">
        <ele>55.39</ele>
        <time>2021-03-20T14:49:52Z</time>
      </trkpt>
      <trkpt lat="57.52704" lon="-5.68934">
        <ele>55.19</ele>
        <time>2021-03-20T14:49:55Z</time>
      </trkpt>
      <trkpt lat="57.52695" lon="-5.68926">
        <ele>56.95</ele>
        <time>2021-03-20T14:49:57Z</time>
      </trkpt>
      <trkpt lat="57.52658" lon="-5.68912">
        <ele>59.54</ele>
        <time>2021-03-20T14:50:00Z</time>
      </trkpt>
      <trkpt lat="57.52645" lon="-5.68904">
        <ele>58.6</ele>
        <time>2021-03-20T14:50:02Z</time>
      </trkpt>
      <trkpt lat="57.52633" lon="-5.68887">
        <ele>56.93</ele>
        <time>2021-03-20T14:50:05Z</time>
      </trkpt>
      <trkpt lat="57.52615" lon="-5.68828">
        <ele>53.97</ele>
        <time>2021-03-20T14:50:07Z</time>
      </trkpt>
      <trkpt lat="57.52611" lon="-5.6877">
        <ele>53.79</ele>
        <time>2021-03-20T14:50:10Z</time>
      </trkpt>
      <trkpt lat="57.52598" lon="-5.68716">
        <ele>52.58</ele>
        <time>2021-03-20T14:50:12Z</time>
      </trkpt>
      <trkpt lat="57.52567" lon="-5.68642">
        <ele>47.25</ele>
        <time>2021-03-20T14:50:15Z</time>
      </trkpt>
      <trkpt lat="57.5253" lon="-5.68574">
        <ele>46.74</ele>
        <time>2021-03-20T14:50:17Z</time>
      </trkpt>
      <trkpt lat="57.52523" lon="-5.68541">
        <ele>43.28</ele>
        <time>2021-03-20T14:50:20Z</time>
      </trkpt>
      <trkpt lat="57.52519" lon="-5.68496">
        <ele>37.76</ele>
        <time>2021-03-20T14:50:22Z</time>
      </trkpt>
      <trkpt lat="57.52519" lon="-5.68389">
        <ele>30.33</ele>
        <time>2021-03-20T14:50:25Z</time>
      </trkpt>
      <trkpt lat="57.52512" lon="-5.68309">
        <ele>31.72</ele>
        <time>2021-03-20T14:50:27Z</time>
      </trkpt>
      <trkpt lat="57.52467" lon="-5.68069">
        <ele>38.18</ele>
        <time>2021-03-20T14:50:30Z</time>
      </trkpt>
      <trkpt lat="57.52455" lon="-5.68037">
        <ele>37.8</ele>
        <time>2021-03-20T14:50:32Z</time>
      </trkpt>
      <trkpt lat="57.52445" lon="-5.68022">
        <ele>38.52</ele>
        <time>2021-03-20T14:50:35Z</time>
      </trkpt>
      <trkpt lat="57.52405" lon="-5.68">
        <ele>38.4</ele>
        <time>2021-03-20T14:50:37Z</time>
      </trkpt>
      <trkpt lat="57.5239" lon="-5.67986">
        <ele>37.95</ele>
        <time>2021-03-20T14:50:40Z</time>
      </trkpt>
      <trkpt lat="57.52373" lon="-5.67954">
        <ele>37.5</ele>
        <time>2021-03-20T14:50:42Z</time>
      </trkpt>
      <trkpt lat="57.52318" lon="-5.67831">
        <ele>35.62</ele>
        <time>2021-03-20T14:50:45Z</time>
      </trkpt>
      <trkpt lat="57.52284" lon="-5.67772">
        <ele>33.74</ele>
        <time>2021-03-20T14:50:47Z</time>
      </trkpt>
      <trkpt lat="57.52243" lon="-5.67678">
        <ele>35.61</ele>
        <time>2021-03-20T14:50:50Z</time>
      </trkpt>
      <trkpt lat="57.52212" lon="-5.67572">
        <ele>37.09</ele>
        <time>2021-03-20T14:50:52Z</time>
      </trkpt>
      <trkpt lat="57.52167" lon="-5.67452">
        <ele>35.88</ele>
        <time>2021-03-20T14:50:54Z</time>
      </trkpt>
      <trkpt lat="57.52123" lon="-5.67352">
        <ele>38.48</ele>
        <time>2021-03-20T14:50:57Z</time>
      </trkpt>
      <trkpt lat="57.52087" lon="-5.67279">
        <ele>41.18</ele>
        <time>2021-03-20T14:50:59Z</time>
      </trkpt>
      <trkpt lat="57.52038" lon="-5.6717">
        <ele>50.65</ele>
        <time>2021-03-20T14:51:02Z</time>
      </trkpt>
      <trkpt lat="57.5202" lon="-5.67142">
        <ele>53.12</ele>
        <time>2021-03-20T14:51:04Z</time>
      </trkpt>
      <trkpt lat="57.51995" lon="-5.67118">
        <ele>55.89</ele>
        <time>2021-03-20T14:51:07Z</time>
      </trkpt>
      <trkpt lat="57.51969" lon="-5.67106">
        <ele>58.1</ele>
        <time>2021-03-20T14:51:09Z</time>
      </trkpt>
      <trkpt lat="57.51954" lon="-5.67106">
        <ele>58.65</ele>
        <time>2021-03-20T14:51:12Z</time>
      </trkpt>
      <trkpt lat="57.51932" lon="-5.67114">
        <ele>59.19</ele>
        <time>2021-03-20T14:51:14Z</time>
      </trkpt>
      <trkpt lat="57.51908" lon="-5.67116">
        <ele>59.17</ele>
        <time>2021-03-20T14:51:17Z</time>
      </trkpt>
      <trkpt lat="57.5184" lon="-5.671">
        <ele>59.44</ele>
        <time>2021-03-20T14:51:19Z</time>
      </trkpt>
      <trkpt lat="57.51809" lon="-5.67077">
        <ele>57.71</ele>
        <time>2021-03-20T14:51:22Z</time>
      </trkpt>
      <trkpt lat="57.51779" lon="-5.67041">
        <ele>52.56</ele>
        <time>2021-03-20T14:51:24Z</time>
      </trkpt>
      <trkpt lat="57.51751" lon="-5.67022">
        <ele>48.57</ele>
        <time>2021-03-20T14:51:27Z</time>
      </trkpt>
      <trkpt lat="57.51653" lon="-5.66965">
        <ele>36.62</ele>
        <time>2021-03-20T14:51:29Z</time>
      </trkpt>
      <trkpt lat="57.51629" lon="-5.66934">
        <ele>34.54</ele>
        <time>2021-03-20T14:51:32Z</time>
      </trkpt>
      <trkpt lat="57.51596" lon="-5.66864">
        <ele>32.75</ele>
        <time>2021-03-20T14:51:34Z</time>
      </trkpt>
      <trkpt lat="57.5157" lon="-5.66757">
        <ele>34.41</ele>
        <time>2021-03-20T14:51:37Z</time>
      </trkpt>
      <trkpt lat="57.51561" lon="-5.66692">
        <ele>34.86</ele>
        <time>2021-03-20T14:51:39Z</time>
      </trkpt>
      <trkpt lat="57.51539" lon="-5.66645">
        <ele>36.18</ele>
        <time>2021-03-20T14:51:42Z</time>
      </trkpt>
      <trkpt lat="57.51418" lon="-5.66422">
        <ele>36.36</ele>
        <time>2021-03-20T14:51:44Z</time>
      </trkpt>
      <trkpt lat="57.51404" lon="-5.66401">
        <ele>34.87</ele>
        <time>2021-03-20T14:51:47Z</time>
      </trkpt>
      <trkpt lat="57.51393" lon="-5.66399">
        <ele>34.72</ele>
        <time>2021-03-20T14:51:49Z</time>
      </trkpt>
      <trkpt lat="57.51361" lon="-5.664">
        <ele>33.8</ele>
        <time>2021-03-20T14:51:52Z</time>
      </trkpt>
      <trkpt lat="57.51348" lon="-5.66391">
        <ele>34.05</ele>
        <time>2021-03-20T14:51:54Z</time>
      </trkpt>
      <trkpt lat="57.5134" lon="-5.66375">
        <ele>34.53</ele>
        <time>2021-03-20T14:51:57Z</time>
      </trkpt>
      <trkpt lat="57.51334" lon="-5.66349">
        <ele>34.95</ele>
        <time>2021-03-20T14:51:59Z</time>
      </trkpt>
      <trkpt lat="57.51333" lon="-5.66284">
        <ele>38.67</ele>
        <time>2021-03-20T14:52:02Z</time>
      </trkpt>
      <trkpt lat="57.51335" lon="-5.66198">
        <ele>39.76</ele>
        <time>2021-03-20T14:52:04Z</time>
      </trkpt>
      <trkpt lat="57.51346" lon="-5.66068">
        <ele>42.33</ele>
        <time>2021-03-20T14:52:07Z</time>
      </trkpt>
      <trkpt lat="57.51352" lon="-5.65949">
        <ele>47.64</ele>
        <time>2021-03-20T14:52:09Z</time>
      </trkpt>
      <trkpt lat="57.51351" lon="-5.65904">
        <ele>48.55</ele>
        <time>2021-03-20T14:52:12Z</time>
      </trkpt>
      <trkpt lat="57.51343" lon="-5.65855">
        <ele>49.28</ele>
        <time>2021-03-20T14:52:14Z</time>
      </trkpt>
      <trkpt lat="57.51333" lon="-5.65824">
        <ele>49.4</ele>
        <time>2021-03-20T14:52:17Z</time>
      </trkpt>
      <trkpt lat="57.51298" lon="-5.65738">
        <ele>48.28</ele>
        <time>2021-03-20T14:52:19Z</time>
      </trkpt>
      <trkpt lat="57.51277" lon="-5.65668">
        <ele>48.41</ele>
        <time>2021-03-20T14:52:22Z</time>
      </trkpt>
      <trkpt lat="57.51255" lon="-5.65616">
        <ele>48.46</ele>
        <time>2021-03-20T14:52:24Z</time>
      </trkpt>
      <trkpt lat="57.51218" lon="-5.65555">
        <ele>46.71</ele>
        <time>2021-03-20T14:52:27Z</time>
      </trkpt>
      <trkpt lat="57.51197" lon="-5.6553">
        <ele>46.17</ele>
        <time>2021-03-20T14:52:29Z</time>
      </trkpt>
      <trkpt lat="57.51139" lon="-5.65475">
        <ele>45.37</ele>
        <time>2021-03-20T14:52:32Z</time>
      </trkpt>
      <trkpt lat="57.51121" lon="-5.65449">
        <ele>44.6</ele>
        <time>2021-03-20T14:52:34Z</time>
      </trkpt>
      <trkpt lat="57.51114" lon="-5.65436">
        <ele>44.63</ele>
        <time>2021-03-20T14:52:37Z</time>
      </trkpt>
      <trkpt lat="57.51077" lon="-5.65339">
        <ele>42.18</ele>
        <time>2021-03-20T14:52:39Z</time>
      </trkpt>
      <trkpt lat="57.51029" lon="-5.65259">
        <ele>50.78</ele>
        <time>2021-03-20T14:52:42Z</time>
      </trkpt>
      <trkpt lat="57.50985" lon="-5.65212">
        <ele>51.84</ele>
        <time>2021-03-20T14:52:44Z</time>
      </trkpt>
      <trkpt lat="57.50966" lon="-5.65181">
        <ele>50.63</ele>
        <time>2021-03-20T14:52:47Z</time>
      </trkpt>
      <trkpt lat="57.50932" lon="-5.651">
        <ele>43.3</ele>
        <time>2021-03-20T14:52:49Z</time>
      </trkpt>
      <trkpt lat="57.50923" lon="-5.65085">
        <ele>40.89</ele>
        <time>2021-03-20T14:52:52Z</time>
      </trkpt>
      <trkpt lat="57.50903" lon="-5.65063">
        <ele>38.63</ele>
        <time>2021-03-20T14:52:54Z</time>
      </trkpt>
      <trkpt lat="57.50844" lon="-5.65041">
        <ele>37.86</ele>
        <time>2021-03-20T14:52:57Z</time>
      </trkpt>
      <trkpt lat="57.50835" lon="-5.65032">
        <ele>37.49</ele>
        <time>2021-03-20T14:52:59Z</time>
      </trkpt>
      <trkpt lat="57.50828" lon="-5.65017">
        <ele>35.79</ele>
        <time>2021-03-20T14:53:02Z</time>
      </trkpt>
      <trkpt lat="57.50824" lon="-5.6499">
        <ele>32.33</ele>
        <time>2021-03-20T14:53:04Z</time>
      </trkpt>
      <trkpt lat="57.50825" lon="-5.64954">
        <ele>27.79</ele>
        <time>2021-03-20T14:53:07Z</time>
      </trkpt>
      <trkpt lat="57.50817" lon="-5.6491">
        <ele>23.56</ele>
        <time>2021-03-20T14:53:09Z</time>
      </trkpt>
      <trkpt lat="57.50784" lon="-5.64815">
        <ele>22.36</ele>
        <time>2021-03-20T14:53:12Z</time>
      </trkpt>
      <trkpt lat="57.50786" lon="-5.64788">
        <ele>21.7</ele>
        <time>2021-03-20T14:53:14Z</time>
      </trkpt>
      <trkpt lat="57.50796" lon="-5.64764">
        <ele>20.73</ele>
        <time>2021-03-20T14:53:17Z</time>
      </trkpt>
      <trkpt lat="57.50805" lon="-5.64755">
        <ele>20.07</ele>
        <time>2021-03-20T14:53:19Z</time>
      </trkpt>
      <trkpt lat="57.50838" lon="-5.64739">
        <ele>19.27</ele>
        <time>2021-03-20T14:53:22Z</time>
      </trkpt>
      <trkpt lat="57.50885" lon="-5.64676">
        <ele>21.55</ele>
        <time>2021-03-20T14:53:24Z</time>
      </trkpt>
      <trkpt lat="57.50899" lon="-5.64643">
        <ele>21.62</ele>
        <time>2021-03-20T14:53:26Z</time>
      </trkpt>
      <trkpt lat="57.5093" lon="-5.64547">
        <ele>20.52</ele>
        <time>2021-03-20T14:53:29Z</time>
      </trkpt>
      <trkpt lat="57.50961" lon="-5.64433">
        <ele>19.8</ele>
        <time>2021-03-20T14:53:31Z</time>
      </trkpt>
      <trkpt lat="57.50964" lon="-5.64412">
        <ele>19.47</ele>
        <time>2021-03-20T14:53:34Z</time>
      </trkpt>
      <trkpt lat="57.50962" lon="-5.64396">
        <ele>19</ele>
        <time>2021-03-20T14:53:36Z</time>
      </trkpt>
      <trkpt lat="57.50927" lon="-5.64287">
        <ele>17.96</ele>
        <time>2021-03-20T14:53:39Z</time>
      </trkpt>
      <trkpt lat="57.50922" lon="-5.64252">
        <ele>17.22</ele>
        <time>2021-03-20T14:53:41Z</time>
      </trkpt>
      <trkpt lat="57.50927" lon="-5.64213">
        <ele>14.52</ele>
        <time>2021-03-20T14:53:44Z</time>
      </trkpt>
      <trkpt lat="57.50938" lon="-5.64195">
        <ele>12.91</ele>
        <time>2021-03-20T14:53:46Z</time>
      </trkpt>
      <trkpt lat="57.50952" lon="-5.64192">
        <ele>11.1</ele>
        <time>2021-03-20T14:53:49Z</time>
      </trkpt>
      <trkpt lat="57.50963" lon="-5.64199">
        <ele>10.03</ele>
        <time>2021-03-20T14:53:51Z</time>
      </trkpt>
      <trkpt lat="57.50972" lon="-5.6421">
        <ele>9</ele>
        <time>2021-03-20T14:53:54Z</time>
      </trkpt>
      <trkpt lat="57.50984" lon="-5.64242">
        <ele>10.13</ele>
        <time>2021-03-20T14:53:56Z</time>
      </trkpt>
      <trkpt lat="57.50989" lon="-5.64274">
        <ele>10.94</ele>
        <time>2021-03-20T14:53:59Z</time>
      </trkpt>
      <trkpt lat="57.50994" lon="-5.64301">
        <ele>12.66</ele>
        <time>2021-03-20T14:54:01Z</time>
      </trkpt>
      <trkpt lat="57.51006" lon="-5.64332">
        <ele>14.36</ele>
        <time>2021-03-20T14:54:04Z</time>
      </trkpt>
      <trkpt lat="57.51023" lon="-5.64355">
        <ele>15.79</ele>
        <time>2021-03-20T14:54:06Z</time>
      </trkpt>
      <trkpt lat="57.51046" lon="-5.64376">
        <ele>17.92</ele>
        <time>2021-03-20T14:54:09Z</time>
      </trkpt>
      <trkpt lat="57.5106" lon="-5.64371">
        <ele>19.4</ele>
        <time>2021-03-20T14:54:11Z</time>
      </trkpt>
      <trkpt lat="57.51071" lon="-5.64359">
        <ele>20.78</ele>
        <time>2021-03-20T14:54:14Z</time>
      </trkpt>
      <trkpt lat="57.5108" lon="-5.64328">
        <ele>22.65</ele>
        <time>2021-03-20T14:54:16Z</time>
      </trkpt>
      <trkpt lat="57.51088" lon="-5.64258">
        <ele>23.55</ele>
        <time>2021-03-20T14:54:19Z</time>
      </trkpt>
      <trkpt lat="57.51105" lon="-5.64332">
        <ele>24.57</ele>
        <time>2021-03-20T14:54:23Z</time>
      </trkpt>
      <trkpt lat="57.51123" lon="-5.64375">
        <ele>24.36</ele>
        <time>2021-03-20T14:54:26Z</time>
      </trkpt>
      <trkpt lat="57.51146" lon="-5.64401">
        <ele>24.25</ele>
        <time>2021-03-20T14:54:30Z</time>
      </trkpt>
      <trkpt lat="57.51176" lon="-5.64421">
        <ele>22.99</ele>
        <time>2021-03-20T14:54:33Z</time>
      </trkpt>
      <trkpt lat="57.51409" lon="-5.64518">
        <ele>18.6</ele>
        <time>2021-03-20T14:54:36Z</time>
      </trkpt>
      <trkpt lat="57.51438" lon="-5.64546">
        <ele>16.18</ele>
        <time>2021-03-20T14:54:40Z</time>
      </trkpt>
      <trkpt lat="57.51507" lon="-5.64651">
        <ele>13.4</ele>
        <time>2021-03-20T14:54:43Z</time>
      </trkpt>
      <trkpt lat="57.51542" lon="-5.64687">
        <ele>15.35</ele>
        <time>2021-03-20T14:54:47Z</time>
      </trkpt>
      <trkpt lat="57.51621" lon="-5.64735">
        <ele>16.35</ele>
        <time>2021-03-20T14:54:50Z</time>
      </trkpt>
      <trkpt lat="57.51704" lon="-5.64803">
        <ele>10.5</ele>
        <time>2021-03-20T14:54:54Z</time>
      </trkpt>
      <trkpt lat="57.51778" lon="-5.64833">
        <ele>10.02</ele>
        <time>2021-03-20T14:54:57Z</time>
      </trkpt>
      <trkpt lat="57.51882" lon="-5.64857">
        <ele>10.98</ele>
        <time>2021-03-20T14:55:01Z</time>
      </trkpt>
      <trkpt lat="57.51905" lon="-5.64858">
        <ele>13.43</ele>
        <time>2021-03-20T14:55:04Z</time>
      </trkpt>
      <trkpt lat="57.5193" lon="-5.64854">
        <ele>16.93</ele>
        <time>2021-03-20T14:55:08Z</time>
      </trkpt>
      <trkpt lat="57.51952" lon="-5.64838">
        <ele>21.6</ele>
        <time>2021-03-20T14:55:11Z</time>
      </trkpt>
      <trkpt lat="57.5198" lon="-5.64808">
        <ele>24.27</ele>
        <time>2021-03-20T14:55:15Z</time>
      </trkpt>
      <trkpt lat="57.52004" lon="-5.64764">
        <ele>24.6</ele>
        <time>2021-03-20T14:55:18Z</time>
      </trkpt>
      <trkpt lat="57.52029" lon="-5.64702">
        <ele>25.62</ele>
        <time>2021-03-20T14:55:22Z</time>
      </trkpt>
      <trkpt lat="57.52062" lon="-5.64614">
        <ele>26.44</ele>
        <time>2021-03-20T14:55:25Z</time>
      </trkpt>
      <trkpt lat="57.52081" lon="-5.64578">
        <ele>25.42</ele>
        <time>2021-03-20T14:55:29Z</time>
      </trkpt>
      <trkpt lat="57.52099" lon="-5.64554">
        <ele>25.56</ele>
        <time>2021-03-20T14:55:32Z</time>
      </trkpt>
      <trkpt lat="57.52122" lon="-5.64534">
        <ele>26.98</ele>
        <time>2021-03-20T14:55:36Z</time>
      </trkpt>
      <trkpt lat="57.52145" lon="-5.64525">
        <ele>28.03</ele>
        <time>2021-03-20T14:55:39Z</time>
      </trkpt>
      <trkpt lat="57.52163" lon="-5.64523">
        <ele>27.6</ele>
        <time>2021-03-20T14:55:43Z</time>
      </trkpt>
      <trkpt lat="57.52185" lon="-5.64529">
        <ele>27.53</ele>
        <time>2021-03-20T14:55:46Z</time>
      </trkpt>
      <trkpt lat="57.52225" lon="-5.64549">
        <ele>25.85</ele>
        <time>2021-03-20T14:55:50Z</time>
      </trkpt>
      <trkpt lat="57.52298" lon="-5.64592">
        <ele>23.61</ele>
        <time>2021-03-20T14:55:53Z</time>
      </trkpt>
      <trkpt lat="57.52324" lon="-5.64598">
        <ele>22.93</ele>
        <time>2021-03-20T14:55:57Z</time>
      </trkpt>
      <trkpt lat="57.52346" lon="-5.64597">
        <ele>22.75</ele>
        <time>2021-03-20T14:56:00Z</time>
      </trkpt>
      <trkpt lat="57.52374" lon="-5.6459">
        <ele>21.94</ele>
        <time>2021-03-20T14:56:04Z</time>
      </trkpt>
      <trkpt lat="57.52397" lon="-5.64575">
        <ele>21.28</ele>
        <time>2021-03-20T14:56:07Z</time>
      </trkpt>
      <trkpt lat="57.52427" lon="-5.64542">
        <ele>22</ele>
        <time>2021-03-20T14:56:11Z</time>
      </trkpt>
      <trkpt lat="57.52534" lon="-5.64382">
        <ele>28.67</ele>
        <time>2021-03-20T14:56:14Z</time>
      </trkpt>
      <trkpt lat="57.52556" lon="-5.64325">
        <ele>30.01</ele>
        <time>2021-03-20T14:56:18Z</time>
      </trkpt>
      <trkpt lat="57.52578" lon="-5.64225">
        <ele>31.55</ele>
        <time>2021-03-20T14:56:21Z</time>
      </trkpt>
      <trkpt lat="57.52604" lon="-5.64002">
        <ele>35.26</ele>
        <time>2021-03-20T14:56:25Z</time>
      </trkpt>
      <trkpt lat="57.52606" lon="-5.63936">
        <ele>34.61</ele>
        <time>2021-03-20T14:56:28Z</time>
      </trkpt>
      <trkpt lat="57.52597" lon="-5.63849">
        <ele>33.78</ele>
        <time>2021-03-20T14:56:31Z</time>
      </trkpt>
      <trkpt lat="57.52578" lon="-5.63783">
        <ele>32.87</ele>
        <time>2021-03-20T14:56:35Z</time>
      </trkpt>
      <trkpt lat="57.52547" lon="-5.63684">
        <ele>26.93</ele>
        <time>2021-03-20T14:56:38Z</time>
      </trkpt>
      <trkpt lat="57.52457" lon="-5.63457">
        <ele>24.25</ele>
        <time>2021-03-20T14:56:42Z</time>
      </trkpt>
      <trkpt lat="57.52435" lon="-5.6342">
        <ele>23.16</ele>
        <time>2021-03-20T14:56:45Z</time>
      </trkpt>
      <trkpt lat="57.52412" lon="-5.634">
        <ele>21.26</ele>
        <time>2021-03-20T14:56:49Z</time>
      </trkpt>
      <trkpt lat="57.52355" lon="-5.6339">
        <ele>20.91</ele>
        <time>2021-03-20T14:56:52Z</time>
      </trkpt>
      <trkpt lat="57.523" lon="-5.63393">
        <ele>16.98</ele>
        <time>2021-03-20T14:56:56Z</time>
      </trkpt>
      <trkpt lat="57.5227" lon="-5.63381">
        <ele>15.27</ele>
        <time>2021-03-20T14:56:59Z</time>
      </trkpt>
      <trkpt lat="57.52243" lon="-5.63354">
        <ele>17.82</ele>
        <time>2021-03-20T14:57:03Z</time>
      </trkpt>
      <trkpt lat="57.52215" lon="-5.63294">
        <ele>24.11</ele>
        <time>2021-03-20T14:57:06Z</time>
      </trkpt>
      <trkpt lat="57.52195" lon="-5.63201">
        <ele>25.26</ele>
        <time>2021-03-20T14:57:10Z</time>
      </trkpt>
      <trkpt lat="57.52181" lon="-5.63084">
        <ele>25.99</ele>
        <time>2021-03-20T14:57:13Z</time>
      </trkpt>
      <trkpt lat="57.5218" lon="-5.62982">
        <ele>24.24</ele>
        <time>2021-03-20T14:57:17Z</time>
      </trkpt>
      <trkpt lat="57.52184" lon="-5.62738">
        <ele>17.26</ele>
        <time>2021-03-20T14:57:20Z</time>
      </trkpt>
      <trkpt lat="57.52175" lon="-5.62646">
        <ele>16.36</ele>
        <time>2021-03-20T14:57:24Z</time>
      </trkpt>
      <trkpt lat="57.52166" lon="-5.62564">
        <ele>14.73</ele>
        <time>2021-03-20T14:57:27Z</time>
      </trkpt>
      <trkpt lat="57.52149" lon="-5.62444">
        <ele>13.75</ele>
        <time>2021-03-20T14:57:31Z</time>
      </trkpt>
      <trkpt lat="57.52134" lon="-5.62375">
        <ele>14.89</ele>
        <time>2021-03-20T14:57:34Z</time>
      </trkpt>
      <trkpt lat="57.52082" lon="-5.62211">
        <ele>18.99</ele>
        <time>2021-03-20T14:57:38Z</time>
      </trkpt>
      <trkpt lat="57.52067" lon="-5.62132">
        <ele>18.43</ele>
        <time>2021-03-20T14:57:41Z</time>
      </trkpt>
      <trkpt lat="57.52063" lon="-5.62091">
        <ele>17.27</ele>
        <time>2021-03-20T14:57:45Z</time>
      </trkpt>
      <trkpt lat="57.52066" lon="-5.6204">
        <ele>13.75</ele>
        <time>2021-03-20T14:57:48Z</time>
      </trkpt>
      <trkpt lat="57.52076" lon="-5.61986">
        <ele>11.72</ele>
        <time>2021-03-20T14:57:52Z</time>
      </trkpt>
      <trkpt lat="57.52089" lon="-5.61953">
        <ele>12.24</ele>
        <time>2021-03-20T14:57:55Z</time>
      </trkpt>
      <trkpt lat="57.52122" lon="-5.61896">
        <ele>14.76</ele>
        <time>2021-03-20T14:57:59Z</time>
      </trkpt>
      <trkpt lat="57.52155" lon="-5.61843">
        <ele>14.92</ele>
        <time>2021-03-20T14:58:02Z</time>
      </trkpt>
      <trkpt lat="57.522" lon="-5.6179">
        <ele>15.86</ele>
        <time>2021-03-20T14:58:06Z</time>
      </trkpt>
      <trkpt lat="57.52316" lon="-5.61715">
        <ele>22.57</ele>
        <time>2021-03-20T14:58:09Z</time>
      </trkpt>
      <trkpt lat="57.52427" lon="-5.61605">
        <ele>29.5</ele>
        <time>2021-03-20T14:58:13Z</time>
      </trkpt>
      <trkpt lat="57.52541" lon="-5.61525">
        <ele>30.37</ele>
        <time>2021-03-20T14:58:16Z</time>
      </trkpt>
      <trkpt lat="57.52678" lon="-5.6137">
        <ele>31.89</ele>
        <time>2021-03-20T14:58:20Z</time>
      </trkpt>
      <trkpt lat="57.52849" lon="-5.61231">
        <ele>36.47</ele>
        <time>2021-03-20T14:58:23Z</time>
      </trkpt>
      <trkpt lat="57.52885" lon="-5.61185">
        <ele>37.45</ele>
        <time>2021-03-20T14:58:26Z</time>
      </trkpt>
      <trkpt lat="57.52965" lon="-5.61038">
        <ele>39.1</ele>
        <time>2021-03-20T14:58:30Z</time>
      </trkpt>
      <trkpt lat="57.52992" lon="-5.61">
        <ele>39.2</ele>
        <time>2021-03-20T14:58:33Z</time>
      </trkpt>
      <trkpt lat="57.53045" lon="-5.60952">
        <ele>37.96</ele>
        <time>2021-03-20T14:58:37Z</time>
      </trkpt>
      <trkpt lat="57.53102" lon="-5.60905">
        <ele>38.03</ele>
        <time>2021-03-20T14:58:40Z</time>
      </trkpt>
      <trkpt lat="57.53126" lon="-5.60873">
        <ele>38.76</ele>
        <time>2021-03-20T14:58:44Z</time>
      </trkpt>
      <trkpt lat="57.53149" lon="-5.60811">
        <ele>39.77</ele>
        <time>2021-03-20T14:58:47Z</time>
      </trkpt>
      <trkpt lat="57.53156" lon="-5.6076">
        <ele>39.7</ele>
        <time>2021-03-20T14:58:51Z</time>
      </trkpt>
      <trkpt lat="57.53156" lon="-5.60689">
        <ele>38.06</ele>
        <time>2021-03-20T14:58:54Z</time>
      </trkpt>
      <trkpt lat="57.53147" lon="-5.60645">
        <ele>37.94</ele>
        <time>2021-03-20T14:58:58Z</time>
      </trkpt>
      <trkpt lat="57.53123" lon="-5.60586">
        <ele>39.33</ele>
        <time>2021-03-20T14:59:01Z</time>
      </trkpt>
      <trkpt lat="57.53101" lon="-5.60553">
        <ele>39.06</ele>
        <time>2021-03-20T14:59:05Z</time>
      </trkpt>
      <trkpt lat="57.53031" lon="-5.60468">
        <ele>35.5</ele>
        <time>2021-03-20T14:59:08Z</time>
      </trkpt>
      <trkpt lat="57.52963" lon="-5.60313">
        <ele>30.31</ele>
        <time>2021-03-20T14:59:12Z</time>
      </trkpt>
      <trkpt lat="57.52938" lon="-5.60268">
        <ele>28.78</ele>
        <time>2021-03-20T14:59:15Z</time>
      </trkpt>
      <trkpt lat="57.52813" lon="-5.60112">
        <ele>20.04</ele>
        <time>2021-03-20T14:59:19Z</time>
      </trkpt>
      <trkpt lat="57.52788" lon="-5.6007">
        <ele>17.74</ele>
        <time>2021-03-20T14:59:22Z</time>
      </trkpt>
      <trkpt lat="57.52775" lon="-5.60035">
        <ele>15.14</ele>
        <time>2021-03-20T14:59:26Z</time>
      </trkpt>
      <trkpt lat="57.52763" lon="-5.59982">
        <ele>11.83</ele>
        <time>2021-03-20T14:59:29Z</time>
      </trkpt>
      <trkpt lat="57.52758" lon="-5.59908">
        <ele>9.7</ele>
        <time>2021-03-20T14:59:33Z</time>
      </trkpt>
      <trkpt lat="57.52759" lon="-5.59651">
        <ele>11.31</ele>
        <time>2021-03-20T14:59:36Z</time>
      </trkpt>
      <trkpt lat="57.52754" lon="-5.59573">
        <ele>12.67</ele>
        <time>2021-03-20T14:59:40Z</time>
      </trkpt>
      <trkpt lat="57.52743" lon="-5.59512">
        <ele>15.5</ele>
        <time>2021-03-20T14:59:43Z</time>
      </trkpt>
      <trkpt lat="57.52731" lon="-5.59464">
        <ele>16.79</ele>
        <time>2021-03-20T14:59:47Z</time>
      </trkpt>
      <trkpt lat="57.52633" lon="-5.59158">
        <ele>18.79</ele>
        <time>2021-03-20T14:59:50Z</time>
      </trkpt>
      <trkpt lat="57.52608" lon="-5.59067">
        <ele>20.02</ele>
        <time>2021-03-20T14:59:54Z</time>
      </trkpt>
      <trkpt lat="57.52599" lon="-5.59001">
        <ele>22.57</ele>
        <time>2021-03-20T14:59:57Z</time>
      </trkpt>
      <trkpt lat="57.526" lon="-5.5893">
        <ele>25.92</ele>
        <time>2021-03-20T15:00:01Z</time>
      </trkpt>
      <trkpt lat="57.52638" lon="-5.58665">
        <ele>37</ele>
        <time>2021-03-20T15:00:04Z</time>
      </trkpt>
      <trkpt lat="57.52634" lon="-5.58409">
        <ele>45.29</ele>
        <time>2021-03-20T15:00:08Z</time>
      </trkpt>
      <trkpt lat="57.52635" lon="-5.58326">
        <ele>46.62</ele>
        <time>2021-03-20T15:00:11Z</time>
      </trkpt>
      <trkpt lat="57.52647" lon="-5.58255">
        <ele>47</ele>
        <time>2021-03-20T15:00:15Z</time>
      </trkpt>
      <trkpt lat="57.52683" lon="-5.58079">
        <ele>48.02</ele>
        <time>2021-03-20T15:00:18Z</time>
      </trkpt>
      <trkpt lat="57.5269" lon="-5.58026">
        <ele>48.56</ele>
        <time>2021-03-20T15:00:22Z</time>
      </trkpt>
      <trkpt lat="57.52709" lon="-5.5769">
        <ele>59.93</ele>
        <time>2021-03-20T15:00:25Z</time>
      </trkpt>
      <trkpt lat="57.52705" lon="-5.57558">
        <ele>65.03</ele>
        <time>2021-03-20T15:00:28Z</time>
      </trkpt>
      <trkpt lat="57.52691" lon="-5.5741">
        <ele>67.25</ele>
        <time>2021-03-20T15:00:32Z</time>
      </trkpt>
      <trkpt lat="57.5269" lon="-5.57267">
        <ele>69.51</ele>
        <time>2021-03-20T15:00:35Z</time>
      </trkpt>
      <trkpt lat="57.52684" lon="-5.57128">
        <ele>80.9</ele>
        <time>2021-03-20T15:00:39Z</time>
      </trkpt>
      <trkpt lat="57.52673" lon="-5.56995">
        <ele>87.75</ele>
        <time>2021-03-20T15:00:42Z</time>
      </trkpt>
      <trkpt lat="57.52677" lon="-5.56927">
        <ele>90.71</ele>
        <time>2021-03-20T15:00:46Z</time>
      </trkpt>
      <trkpt lat="57.52699" lon="-5.56833">
        <ele>97.03</ele>
        <time>2021-03-20T15:00:49Z</time>
      </trkpt>
      <trkpt lat="57.5275" lon="-5.56679">
        <ele>103.56</ele>
        <time>2021-03-20T15:00:53Z</time>
      </trkpt>
      <trkpt lat="57.52762" lon="-5.56622">
        <ele>101.6</ele>
        <time>2021-03-20T15:00:56Z</time>
      </trkpt>
      <trkpt lat="57.52766" lon="-5.56565">
        <ele>100.65</ele>
        <time>2021-03-20T15:01:00Z</time>
      </trkpt>
      <trkpt lat="57.52765" lon="-5.56516">
        <ele>101.67</ele>
        <time>2021-03-20T15:01:03Z</time>
      </trkpt>
      <trkpt lat="57.52761" lon="-5.56464">
        <ele>102.96</ele>
        <time>2021-03-20T15:01:07Z</time>
      </trkpt>
      <trkpt lat="57.5274" lon="-5.56306">
        <ele>104.73</ele>
        <time>2021-03-20T15:01:10Z</time>
      </trkpt>
      <trkpt lat="57.52725" lon="-5.56165">
        <ele>105.66</ele>
        <time>2021-03-20T15:01:14Z</time>
      </trkpt>
      <trkpt lat="57.52723" lon="-5.56088">
        <ele>105.79</ele>
        <time>2021-03-20T15:01:17Z</time>
      </trkpt>
      <trkpt lat="57.52725" lon="-5.56054">
        <ele>104.63</ele>
        <time>2021-03-20T15:01:21Z</time>
      </trkpt>
      <trkpt lat="57.52729" lon="-5.56011">
        <ele>104.64</ele>
        <time>2021-03-20T15:01:24Z</time>
      </trkpt>
      <trkpt lat="57.52735" lon="-5.5597">
        <ele>106.35</ele>
        <time>2021-03-20T15:01:28Z</time>
      </trkpt>
      <trkpt lat="57.52745" lon="-5.55921">
        <ele>108.89</ele>
        <time>2021-03-20T15:01:31Z</time>
      </trkpt>
      <trkpt lat="57.52774" lon="-5.55793">
        <ele>114.29</ele>
        <time>2021-03-20T15:01:35Z</time>
      </trkpt>
      <trkpt lat="57.52782" lon="-5.55752">
        <ele>115.5</ele>
        <time>2021-03-20T15:01:38Z</time>
      </trkpt>
      <trkpt lat="57.52791" lon="-5.55669">
        <ele>116.58</ele>
        <time>2021-03-20T15:01:42Z</time>
      </trkpt>
      <trkpt lat="57.52799" lon="-5.55488">
        <ele>116.56</ele>
        <time>2021-03-20T15:01:45Z</time>
      </trkpt>
      <trkpt lat="57.52806" lon="-5.55432">
        <ele>114.03</ele>
        <time>2021-03-20T15:01:49Z</time>
      </trkpt>
      <trkpt lat="57.5281" lon="-5.55406">
        <ele>113.75</ele>
        <time>2021-03-20T15:01:52Z</time>
      </trkpt>
      <trkpt lat="57.52818" lon="-5.55376">
        <ele>112.99</ele>
        <time>2021-03-20T15:01:56Z</time>
      </trkpt>
      <trkpt lat="57.52859" lon="-5.55252">
        <ele>105.54</ele>
        <time>2021-03-20T15:01:59Z</time>
      </trkpt>
      <trkpt lat="57.52873" lon="-5.55191">
        <ele>104.83</ele>
        <time>2021-03-20T15:02:03Z</time>
      </trkpt>
      <trkpt lat="57.52881" lon="-5.55125">
        <ele>106.8</ele>
        <time>2021-03-20T15:02:06Z</time>
      </trkpt>
      <trkpt lat="57.52883" lon="-5.55076">
        <ele>108.47</ele>
        <time>2021-03-20T15:02:10Z</time>
      </trkpt>
      <trkpt lat="57.52877" lon="-5.55022">
        <ele>109</ele>
        <time>2021-03-20T15:02:13Z</time>
      </trkpt>
      <trkpt lat="57.52872" lon="-5.54992">
        <ele>108.92</ele>
        <time>2021-03-20T15:02:17Z</time>
      </trkpt>
      <trkpt lat="57.52864" lon="-5.54958">
        <ele>108.63</ele>
        <time>2021-03-20T15:02:20Z</time>
      </trkpt>
      <trkpt lat="57.52848" lon="-5.54907">
        <ele>107.5</ele>
        <time>2021-03-20T15:02:23Z</time>
      </trkpt>
      <trkpt lat="57.52775" lon="-5.54711">
        <ele>102.58</ele>
        <time>2021-03-20T15:02:27Z</time>
      </trkpt>
      <trkpt lat="57.52765" lon="-5.54648">
        <ele>99.58</ele>
        <time>2021-03-20T15:02:30Z</time>
      </trkpt>
      <trkpt lat="57.52761" lon="-5.54587">
        <ele>95.68</ele>
        <time>2021-03-20T15:02:34Z</time>
      </trkpt>
      <trkpt lat="57.52764" lon="-5.54526">
        <ele>91.38</ele>
        <time>2021-03-20T15:02:37Z</time>
      </trkpt>
      <trkpt lat="57.52781" lon="-5.54397">
        <ele>84.13</ele>
        <time>2021-03-20T15:02:41Z</time>
      </trkpt>
      <trkpt lat="57.52784" lon="-5.5435">
        <ele>81.58</ele>
        <time>2021-03-20T15:02:44Z</time>
      </trkpt>
      <trkpt lat="57.52784" lon="-5.54301">
        <ele>79.51</ele>
        <time>2021-03-20T15:02:48Z</time>
      </trkpt>
      <trkpt lat="57.52762" lon="-5.54049">
        <ele>73.71</ele>
        <time>2021-03-20T15:02:51Z</time>
      </trkpt>
      <trkpt lat="57.5276" lon="-5.54002">
        <ele>70.9</ele>
        <time>2021-03-20T15:02:55Z</time>
      </trkpt>
      <trkpt lat="57.52769" lon="-5.53656">
        <ele>55.46</ele>
        <time>2021-03-20T15:02:58Z</time>
      </trkpt>
      <trkpt lat="57.52774" lon="-5.53499">
        <ele>54.72</ele>
        <time>2021-03-20T15:03:02Z</time>
      </trkpt>
      <trkpt lat="57.52787" lon="-5.53366">
        <ele>51.99</ele>
        <time>2021-03-20T15:03:05Z</time>
      </trkpt>
      <trkpt lat="57.52806" lon="-5.53232">
        <ele>45.26</ele>
        <time>2021-03-20T15:03:09Z</time>
      </trkpt>
      <trkpt lat="57.52807" lon="-5.5318">
        <ele>42.62</ele>
        <time>2021-03-20T15:03:12Z</time>
      </trkpt>
      <trkpt lat="57.52803" lon="-5.5313">
        <ele>42.28</ele>
        <time>2021-03-20T15:03:16Z</time>
      </trkpt>
      <trkpt lat="57.5279" lon="-5.53083">
        <ele>43.89</ele>
        <time>2021-03-20T15:03:19Z</time>
      </trkpt>
      <trkpt lat="57.52732" lon="-5.52966">
        <ele>39.21</ele>
        <time>2021-03-20T15:03:23Z</time>
      </trkpt>
      <trkpt lat="57.52714" lon="-5.52905">
        <ele>31.45</ele>
        <time>2021-03-20T15:03:26Z</time>
      </trkpt>
      <trkpt lat="57.52706" lon="-5.52855">
        <ele>28.94</ele>
        <time>2021-03-20T15:03:30Z</time>
      </trkpt>
      <trkpt lat="57.52706" lon="-5.52797">
        <ele>28.36</ele>
        <time>2021-03-20T15:03:33Z</time>
      </trkpt>
      <trkpt lat="57.52713" lon="-5.52737">
        <ele>28.12</ele>
        <time>2021-03-20T15:03:37Z</time>
      </trkpt>
      <trkpt lat="57.52732" lon="-5.52685">
        <ele>25.63</ele>
        <time>2021-03-20T15:03:40Z</time>
      </trkpt>
      <trkpt lat="57.52757" lon="-5.52643">
        <ele>22.64</ele>
        <time>2021-03-20T15:03:44Z</time>
      </trkpt>
      <trkpt lat="57.52808" lon="-5.52584">
        <ele>16.68</ele>
        <time>2021-03-20T15:03:47Z</time>
      </trkpt>
      <trkpt lat="57.52885" lon="-5.5252">
        <ele>12.73</ele>
        <time>2021-03-20T15:03:51Z</time>
      </trkpt>
      <trkpt lat="57.52919" lon="-5.52486">
        <ele>14.95</ele>
        <time>2021-03-20T15:03:54Z</time>
      </trkpt>
      <trkpt lat="57.5294" lon="-5.52455">
        <ele>17.26</ele>
        <time>2021-03-20T15:03:58Z</time>
      </trkpt>
      <trkpt lat="57.52967" lon="-5.52397">
        <ele>16.37</ele>
        <time>2021-03-20T15:04:01Z</time>
      </trkpt>
      <trkpt lat="57.53071" lon="-5.52046">
        <ele>21.32</ele>
        <time>2021-03-20T15:04:05Z</time>
      </trkpt>
      <trkpt lat="57.53099" lon="-5.5196">
        <ele>15.13</ele>
        <time>2021-03-20T15:04:08Z</time>
      </trkpt>
      <trkpt lat="57.53122" lon="-5.51911">
        <ele>6.84</ele>
        <time>2021-03-20T15:04:12Z</time>
      </trkpt>
      <trkpt lat="57.53187" lon="-5.51797">
        <ele>4.87</ele>
        <time>2021-03-20T15:04:15Z</time>
      </trkpt>
      <trkpt lat="57.53205" lon="-5.51752">
        <ele>5.22</ele>
        <time>2021-03-20T15:04:18Z</time>
      </trkpt>
      <trkpt lat="57.53219" lon="-5.517">
        <ele>5.1</ele>
        <time>2021-03-20T15:04:22Z</time>
      </trkpt>
      <trkpt lat="57.53256" lon="-5.51527">
        <ele>3.81</ele>
        <time>2021-03-20T15:04:25Z</time>
      </trkpt>
      <trkpt lat="57.5327" lon="-5.51491">
        <ele>4.61</ele>
        <time>2021-03-20T15:04:29Z</time>
      </trkpt>
      <trkpt lat="57.53315" lon="-5.51393">
        <ele>6.16</ele>
        <time>2021-03-20T15:04:32Z</time>
      </trkpt>
      <trkpt lat="57.53349" lon="-5.51315">
        <ele>5.16</ele>
        <time>2021-03-20T15:04:36Z</time>
      </trkpt>
      <trkpt lat="57.53364" lon="-5.51263">
        <ele>5</ele>
        <time>2021-03-20T15:04:39Z</time>
      </trkpt>
      <trkpt lat="57.53371" lon="-5.51201">
        <ele>5.66</ele>
        <time>2021-03-20T15:04:43Z</time>
      </trkpt>
      <trkpt lat="57.53372" lon="-5.5116">
        <ele>6.24</ele>
        <time>2021-03-20T15:04:46Z</time>
      </trkpt>
      <trkpt lat="57.53363" lon="-5.51049">
        <ele>9.02</ele>
        <time>2021-03-20T15:04:50Z</time>
      </trkpt>
      <trkpt lat="57.53352" lon="-5.50939">
        <ele>15.04</ele>
        <time>2021-03-20T15:04:53Z</time>
      </trkpt>
      <trkpt lat="57.5335" lon="-5.50884">
        <ele>15.19</ele>
        <time>2021-03-20T15:04:57Z</time>
      </trkpt>
      <trkpt lat="57.53354" lon="-5.50839">
        <ele>14.79</ele>
        <time>2021-03-20T15:05:00Z</time>
      </trkpt>
      <trkpt lat="57.53364" lon="-5.50783">
        <ele>13.6</ele>
        <time>2021-03-20T15:05:04Z</time>
      </trkpt>
      <trkpt lat="57.53383" lon="-5.5074">
        <ele>10.59</ele>
        <time>2021-03-20T15:05:07Z</time>
      </trkpt>
      <trkpt lat="57.53403" lon="-5.50708">
        <ele>9.23</ele>
        <time>2021-03-20T15:05:11Z</time>
      </trkpt>
      <trkpt lat="57.53415" lon="-5.50694">
        <ele>9.07</ele>
        <time>2021-03-20T15:05:14Z</time>
      </trkpt>
      <trkpt lat="57.53446" lon="-5.50673">
        <ele>10.52</ele>
        <time>2021-03-20T15:05:18Z</time>
      </trkpt>
      <trkpt lat="57.53537" lon="-5.50649">
        <ele>10.41</ele>
        <time>2021-03-20T15:05:21Z</time>
      </trkpt>
      <trkpt lat="57.53558" lon="-5.50637">
        <ele>11.04</ele>
        <time>2021-03-20T15:05:25Z</time>
      </trkpt>
      <trkpt lat="57.53661" lon="-5.50541">
        <ele>7.2</ele>
        <time>2021-03-20T15:05:28Z</time>
      </trkpt>
      <trkpt lat="57.53695" lon="-5.50524">
        <ele>8</ele>
        <time>2021-03-20T15:05:32Z</time>
      </trkpt>
      <trkpt lat="57.53835" lon="-5.50482">
        <ele>9.04</ele>
        <time>2021-03-20T15:05:35Z</time>
      </trkpt>
      <trkpt lat="57.54156" lon="-5.5035">
        <ele>9.63</ele>
        <time>2021-03-20T15:05:39Z</time>
      </trkpt>
      <trkpt lat="57.54195" lon="-5.50331">
        <ele>10</ele>
        <time>2021-03-20T15:05:42Z</time>
      </trkpt>
      <trkpt lat="57.54218" lon="-5.50315">
        <ele>10</ele>
        <time>2021-03-20T15:05:46Z</time>
      </trkpt>
      <trkpt lat="57.54235" lon="-5.50295">
        <ele>10.37</ele>
        <time>2021-03-20T15:05:49Z</time>
      </trkpt>
      <trkpt lat="57.54253" lon="-5.50266">
        <ele>11.18</ele>
        <time>2021-03-20T15:05:53Z</time>
      </trkpt>
      <trkpt lat="57.54262" lon="-5.5024">
        <ele>12.09</ele>
        <time>2021-03-20T15:05:56Z</time>
      </trkpt>
      <trkpt lat="57.54271" lon="-5.50211">
        <ele>12.74</ele>
        <time>2021-03-20T15:06:00Z</time>
      </trkpt>
      <trkpt lat="57.54276" lon="-5.50174">
        <ele>12.93</ele>
        <time>2021-03-20T15:06:03Z</time>
      </trkpt>
      <trkpt lat="57.54279" lon="-5.50124">
        <ele>13</ele>
        <time>2021-03-20T15:06:07Z</time>
      </trkpt>
      <trkpt lat="57.54278" lon="-5.50106">
        <ele>13</ele>
        <time>2021-03-20T15:06:10Z</time>
      </trkpt>
      <trkpt lat="57.54263" lon="-5.50024">
        <ele>13.58</ele>
        <time>2021-03-20T15:06:13Z</time>
      </trkpt>
      <trkpt lat="57.5419" lon="-5.49804">
        <ele>13.06</ele>
        <time>2021-03-20T15:06:17Z</time>
      </trkpt>
      <trkpt lat="57.5417" lon="-5.49722">
        <ele>15</ele>
        <time>2021-03-20T15:06:20Z</time>
      </trkpt>
      <trkpt lat="57.54149" lon="-5.49609">
        <ele>15.03</ele>
        <time>2021-03-20T15:06:24Z</time>
      </trkpt>
      <trkpt lat="57.54146" lon="-5.49587">
        <ele>15.21</ele>
        <time>2021-03-20T15:06:27Z</time>
      </trkpt>
      <trkpt lat="57.54114" lon="-5.49239">
        <ele>19.25</ele>
        <time>2021-03-20T15:06:31Z</time>
      </trkpt>
      <trkpt lat="57.54105" lon="-5.49187">
        <ele>20</ele>
        <time>2021-03-20T15:06:34Z</time>
      </trkpt>
      <trkpt lat="57.54076" lon="-5.49052">
        <ele>19.53</ele>
        <time>2021-03-20T15:06:38Z</time>
      </trkpt>
      <trkpt lat="57.54053" lon="-5.48904">
        <ele>22.65</ele>
        <time>2021-03-20T15:06:41Z</time>
      </trkpt>
      <trkpt lat="57.54043" lon="-5.48799">
        <ele>21</ele>
        <time>2021-03-20T15:06:45Z</time>
      </trkpt>
      <trkpt lat="57.54048" lon="-5.48663">
        <ele>23.49</ele>
        <time>2021-03-20T15:06:48Z</time>
      </trkpt>
      <trkpt lat="57.54052" lon="-5.48629">
        <ele>23.75</ele>
        <time>2021-03-20T15:06:52Z</time>
      </trkpt>
      <trkpt lat="57.54065" lon="-5.48543">
        <ele>23.94</ele>
        <time>2021-03-20T15:06:55Z</time>
      </trkpt>
      <trkpt lat="57.54095" lon="-5.48394">
        <ele>28.15</ele>
        <time>2021-03-20T15:06:59Z</time>
      </trkpt>
      <trkpt lat="57.54148" lon="-5.4819">
        <ele>27.42</ele>
        <time>2021-03-20T15:07:02Z</time>
      </trkpt>
      <trkpt lat="57.54282" lon="-5.47859">
        <ele>31.07</ele>
        <time>2021-03-20T15:07:06Z</time>
      </trkpt>
      <trkpt lat="57.54304" lon="-5.4779">
        <ele>30.92</ele>
        <time>2021-03-20T15:07:09Z</time>
      </trkpt>
      <trkpt lat="57.54314" lon="-5.4771">
        <ele>32.58</ele>
        <time>2021-03-20T15:07:13Z</time>
      </trkpt>
      <trkpt lat="57.54318" lon="-5.47618">
        <ele>32.47</ele>
        <time>2021-03-20T15:07:16Z</time>
      </trkpt>
      <trkpt lat="57.54343" lon="-5.47554">
        <ele>34.66</ele>
        <time>2021-03-20T15:07:20Z</time>
      </trkpt>
      <trkpt lat="57.54385" lon="-5.47503">
        <ele>35.1</ele>
        <time>2021-03-20T15:07:23Z</time>
      </trkpt>
      <trkpt lat="57.54436" lon="-5.47455">
        <ele>35.73</ele>
        <time>2021-03-20T15:07:27Z</time>
      </trkpt>
      <trkpt lat="57.54471" lon="-5.47428">
        <ele>36.92</ele>
        <time>2021-03-20T15:07:30Z</time>
      </trkpt>
      <trkpt lat="57.54501" lon="-5.47387">
        <ele>38.06</ele>
        <time>2021-03-20T15:07:34Z</time>
      </trkpt>
      <trkpt lat="57.54545" lon="-5.47297">
        <ele>40.92</ele>
        <time>2021-03-20T15:07:37Z</time>
      </trkpt>
      <trkpt lat="57.54612" lon="-5.47142">
        <ele>43.21</ele>
        <time>2021-03-20T15:07:41Z</time>
      </trkpt>
      <trkpt lat="57.5468" lon="-5.46965">
        <ele>44.71</ele>
        <time>2021-03-20T15:07:44Z</time>
      </trkpt>
      <trkpt lat="57.5479" lon="-5.46611">
        <ele>51.85</ele>
        <time>2021-03-20T15:07:48Z</time>
      </trkpt>
      <trkpt lat="57.54851" lon="-5.46424">
        <ele>54.64</ele>
        <time>2021-03-20T15:07:51Z</time>
      </trkpt>
      <trkpt lat="57.54912" lon="-5.46271">
        <ele>56.85</ele>
        <time>2021-03-20T15:07:55Z</time>
      </trkpt>
      <trkpt lat="57.55011" lon="-5.46076">
        <ele>63.42</ele>
        <time>2021-03-20T15:07:58Z</time>
      </trkpt>
      <trkpt lat="57.55047" lon="-5.46014">
        <ele>61.63</ele>
        <time>2021-03-20T15:08:02Z</time>
      </trkpt>
      <trkpt lat="57.55066" lon="-5.45991">
        <ele>61.71</ele>
        <time>2021-03-20T15:08:05Z</time>
      </trkpt>
      <trkpt lat="57.55183" lon="-5.45896">
        <ele>62.88</ele>
        <time>2021-03-20T15:08:08Z</time>
      </trkpt>
      <trkpt lat="57.55206" lon="-5.45873">
        <ele>61.45</ele>
        <time>2021-03-20T15:08:12Z</time>
      </trkpt>
      <trkpt lat="57.55229" lon="-5.45832">
        <ele>58.14</ele>
        <time>2021-03-20T15:08:15Z</time>
      </trkpt>
      <trkpt lat="57.55242" lon="-5.45776">
        <ele>57.4</ele>
        <time>2021-03-20T15:08:19Z</time>
      </trkpt>
      <trkpt lat="57.55262" lon="-5.45623">
        <ele>57.28</ele>
        <time>2021-03-20T15:08:22Z</time>
      </trkpt>
      <trkpt lat="57.55297" lon="-5.4544">
        <ele>58.79</ele>
        <time>2021-03-20T15:08:26Z</time>
      </trkpt>
      <trkpt lat="57.55298" lon="-5.45405">
        <ele>58.44</ele>
        <time>2021-03-20T15:08:29Z</time>
      </trkpt>
      <trkpt lat="57.55293" lon="-5.45379">
        <ele>57.14</ele>
        <time>2021-03-20T15:08:33Z</time>
      </trkpt>
      <trkpt lat="57.55274" lon="-5.45318">
        <ele>55.69</ele>
        <time>2021-03-20T15:08:36Z</time>
      </trkpt>
      <trkpt lat="57.55268" lon="-5.45291">
        <ele>55.51</ele>
        <time>2021-03-20T15:08:40Z</time>
      </trkpt>
      <trkpt lat="57.55267" lon="-5.45259">
        <ele>55.99</ele>
        <time>2021-03-20T15:08:43Z</time>
      </trkpt>
      <trkpt lat="57.55267" lon="-5.44983">
        <ele>59.87</ele>
        <time>2021-03-20T15:08:47Z</time>
      </trkpt>
      <trkpt lat="57.55266" lon="-5.44846">
        <ele>60.24</ele>
        <time>2021-03-20T15:08:50Z</time>
      </trkpt>
      <trkpt lat="57.55259" lon="-5.44698">
        <ele>62.97</ele>
        <time>2021-03-20T15:08:54Z</time>
      </trkpt>
      <trkpt lat="57.55259" lon="-5.44612">
        <ele>64.31</ele>
        <time>2021-03-20T15:08:57Z</time>
      </trkpt>
      <trkpt lat="57.55271" lon="-5.44355">
        <ele>63.67</ele>
        <time>2021-03-20T15:09:01Z</time>
      </trkpt>
      <trkpt lat="57.55274" lon="-5.44229">
        <ele>65.51</ele>
        <time>2021-03-20T15:09:04Z</time>
      </trkpt>
      <trkpt lat="57.55283" lon="-5.44155">
        <ele>65.03</ele>
        <time>2021-03-20T15:09:08Z</time>
      </trkpt>
      <trkpt lat="57.55302" lon="-5.44056">
        <ele>67.34</ele>
        <time>2021-03-20T15:09:11Z</time>
      </trkpt>
      <trkpt lat="57.55319" lon="-5.43949">
        <ele>67.21</ele>
        <time>2021-03-20T15:09:15Z</time>
      </trkpt>
      <trkpt lat="57.55333" lon="-5.43877">
        <ele>67.99</ele>
        <time>2021-03-20T15:09:18Z</time>
      </trkpt>
      <trkpt lat="57.55335" lon="-5.4384">
        <ele>68.22</ele>
        <time>2021-03-20T15:09:22Z</time>
      </trkpt>
      <trkpt lat="57.55335" lon="-5.4381">
        <ele>68.16</ele>
        <time>2021-03-20T15:09:25Z</time>
      </trkpt>
      <trkpt lat="57.55317" lon="-5.43724">
        <ele>68.79</ele>
        <time>2021-03-20T15:09:29Z</time>
      </trkpt>
      <trkpt lat="57.55315" lon="-5.43672">
        <ele>69.48</ele>
        <time>2021-03-20T15:09:32Z</time>
      </trkpt>
      <trkpt lat="57.55329" lon="-5.43591">
        <ele>70.68</ele>
        <time>2021-03-20T15:09:36Z</time>
      </trkpt>
      <trkpt lat="57.55347" lon="-5.43513">
        <ele>71.42</ele>
        <time>2021-03-20T15:09:39Z</time>
      </trkpt>
      <trkpt lat="57.55355" lon="-5.43448">
        <ele>72.37</ele>
        <time>2021-03-20T15:09:43Z</time>
      </trkpt>
      <trkpt lat="57.55358" lon="-5.43389">
        <ele>73.74</ele>
        <time>2021-03-20T15:09:46Z</time>
      </trkpt>
      <trkpt lat="57.55356" lon="-5.43302">
        <ele>73.47</ele>
        <time>2021-03-20T15:09:50Z</time>
      </trkpt>
      <trkpt lat="57.55325" lon="-5.43109">
        <ele>69.37</ele>
        <time>2021-03-20T15:09:53Z</time>
      </trkpt>
      <trkpt lat="57.55314" lon="-5.43015">
        <ele>70.08</ele>
        <time>2021-03-20T15:09:57Z</time>
      </trkpt>
      <trkpt lat="57.55307" lon="-5.42848">
        <ele>72.64</ele>
        <time>2021-03-20T15:10:00Z</time>
      </trkpt>
      <trkpt lat="57.55307" lon="-5.4278">
        <ele>74.15</ele>
        <time>2021-03-20T15:10:03Z</time>
      </trkpt>
      <trkpt lat="57.55311" lon="-5.42727">
        <ele>76.02</ele>
        <time>2021-03-20T15:10:07Z</time>
      </trkpt>
      <trkpt lat="57.55327" lon="-5.42656">
        <ele>78.5</ele>
        <time>2021-03-20T15:10:10Z</time>
      </trkpt>
      <trkpt lat="57.55351" lon="-5.42433">
        <ele>78.62</ele>
        <time>2021-03-20T15:10:14Z</time>
      </trkpt>
      <trkpt lat="57.55349" lon="-5.42372">
        <ele>78.57</ele>
        <time>2021-03-20T15:10:17Z</time>
      </trkpt>
      <trkpt lat="57.55344" lon="-5.42323">
        <ele>78</ele>
        <time>2021-03-20T15:10:21Z</time>
      </trkpt>
      <trkpt lat="57.55327" lon="-5.42242">
        <ele>79.87</ele>
        <time>2021-03-20T15:10:24Z</time>
      </trkpt>
      <trkpt lat="57.55304" lon="-5.42162">
        <ele>80.86</ele>
        <time>2021-03-20T15:10:28Z</time>
      </trkpt>
      <trkpt lat="57.55304" lon="-5.42129">
        <ele>80.89</ele>
        <time>2021-03-20T15:10:31Z</time>
      </trkpt>
      <trkpt lat="57.55333" lon="-5.42025">
        <ele>82.1</ele>
        <time>2021-03-20T15:10:35Z</time>
      </trkpt>
      <trkpt lat="57.55344" lon="-5.41967">
        <ele>84.01</ele>
        <time>2021-03-20T15:10:38Z</time>
      </trkpt>
      <trkpt lat="57.55344" lon="-5.4194">
        <ele>83.27</ele>
        <time>2021-03-20T15:10:42Z</time>
      </trkpt>
      <trkpt lat="57.5536" lon="-5.41886">
        <ele>83.83</ele>
        <time>2021-03-20T15:10:45Z</time>
      </trkpt>
      <trkpt lat="57.55393" lon="-5.41801">
        <ele>85.93</ele>
        <time>2021-03-20T15:10:49Z</time>
      </trkpt>
      <trkpt lat="57.55427" lon="-5.41675">
        <ele>85</ele>
        <time>2021-03-20T15:10:52Z</time>
      </trkpt>
      <trkpt lat="57.55456" lon="-5.41536">
        <ele>85</ele>
        <time>2021-03-20T15:10:56Z</time>
      </trkpt>
      <trkpt lat="57.5547" lon="-5.41518">
        <ele>84.97</ele>
        <time>2021-03-20T15:10:59Z</time>
      </trkpt>
      <trkpt lat="57.55512" lon="-5.41449">
        <ele>85.62</ele>
        <time>2021-03-20T15:11:03Z</time>
      </trkpt>
      <trkpt lat="57.55522" lon="-5.41426">
        <ele>85.26</ele>
        <time>2021-03-20T15:11:06Z</time>
      </trkpt>
      <trkpt lat="57.55564" lon="-5.41285">
        <ele>85.54</ele>
        <time>2021-03-20T15:11:10Z</time>
      </trkpt>
      <trkpt lat="57.55622" lon="-5.40963">
        <ele>87.38</ele>
        <time>2021-03-20T15:11:13Z</time>
      </trkpt>
      <trkpt lat="57.55652" lon="-5.40835">
        <ele>88.46</ele>
        <time>2021-03-20T15:11:17Z</time>
      </trkpt>
      <trkpt lat="57.55666" lon="-5.40762">
        <ele>88</ele>
        <time>2021-03-20T15:11:20Z</time>
      </trkpt>
      <trkpt lat="57.55672" lon="-5.4071">
        <ele>89</ele>
        <time>2021-03-20T15:11:24Z</time>
      </trkpt>
      <trkpt lat="57.55672" lon="-5.40667">
        <ele>89</ele>
        <time>2021-03-20T15:11:27Z</time>
      </trkpt>
      <trkpt lat="57.5567" lon="-5.40616">
        <ele>89</ele>
        <time>2021-03-20T15:11:31Z</time>
      </trkpt>
      <trkpt lat="57.55653" lon="-5.40567">
        <ele>88.8</ele>
        <time>2021-03-20T15:11:34Z</time>
      </trkpt>
      <trkpt lat="57.55648" lon="-5.40514">
        <ele>89.16</ele>
        <time>2021-03-20T15:11:38Z</time>
      </trkpt>
      <trkpt lat="57.55655" lon="-5.4044">
        <ele>89.67</ele>
        <time>2021-03-20T15:11:41Z</time>
      </trkpt>
      <trkpt lat="57.55667" lon="-5.40373">
        <ele>92.01</ele>
        <time>2021-03-20T15:11:45Z</time>
      </trkpt>
      <trkpt lat="57.55675" lon="-5.40315">
        <ele>92.97</ele>
        <time>2021-03-20T15:11:48Z</time>
      </trkpt>
      <trkpt lat="57.55686" lon="-5.40247">
        <ele>93</ele>
        <time>2021-03-20T15:11:52Z</time>
      </trkpt>
      <trkpt lat="57.557" lon="-5.40195">
        <ele>92.84</ele>
        <time>2021-03-20T15:11:55Z</time>
      </trkpt>
      <trkpt lat="57.55725" lon="-5.4014">
        <ele>93.36</ele>
        <time>2021-03-20T15:11:59Z</time>
      </trkpt>
      <trkpt lat="57.55742" lon="-5.40084">
        <ele>94.08</ele>
        <time>2021-03-20T15:12:02Z</time>
      </trkpt>
      <trkpt lat="57.55762" lon="-5.40037">
        <ele>94.19</ele>
        <time>2021-03-20T15:12:05Z</time>
      </trkpt>
      <trkpt lat="57.55801" lon="-5.39989">
        <ele>94.37</ele>
        <time>2021-03-20T15:12:09Z</time>
      </trkpt>
      <trkpt lat="57.55836" lon="-5.39942">
        <ele>95.19</ele>
        <time>2021-03-20T15:12:12Z</time>
      </trkpt>
      <trkpt lat="57.5587" lon="-5.39886">
        <ele>95.91</ele>
        <time>2021-03-20T15:12:16Z</time>
      </trkpt>
      <trkpt lat="57.55905" lon="-5.39809">
        <ele>96.3</ele>
        <time>2021-03-20T15:12:19Z</time>
      </trkpt>
      <trkpt lat="57.55971" lon="-5.3962">
        <ele>97.29</ele>
        <time>2021-03-20T15:12:23Z</time>
      </trkpt>
      <trkpt lat="57.55991" lon="-5.39555">
        <ele>96.35</ele>
        <time>2021-03-20T15:12:26Z</time>
      </trkpt>
      <trkpt lat="57.56012" lon="-5.39501">
        <ele>96.44</ele>
        <time>2021-03-20T15:12:30Z</time>
      </trkpt>
      <trkpt lat="57.56023" lon="-5.39484">
        <ele>96.83</ele>
        <time>2021-03-20T15:12:33Z</time>
      </trkpt>
      <trkpt lat="57.56041" lon="-5.39477">
        <ele>98.01</ele>
        <time>2021-03-20T15:12:37Z</time>
      </trkpt>
      <trkpt lat="57.56082" lon="-5.39449">
        <ele>99.22</ele>
        <time>2021-03-20T15:12:40Z</time>
      </trkpt>
      <trkpt lat="57.5611" lon="-5.39406">
        <ele>99.11</ele>
        <time>2021-03-20T15:12:44Z</time>
      </trkpt>
      <trkpt lat="57.56147" lon="-5.39333">
        <ele>97.83</ele>
        <time>2021-03-20T15:12:47Z</time>
      </trkpt>
      <trkpt lat="57.56216" lon="-5.39174">
        <ele>101.76</ele>
        <time>2021-03-20T15:12:51Z</time>
      </trkpt>
      <trkpt lat="57.5626" lon="-5.39054">
        <ele>101.34</ele>
        <time>2021-03-20T15:12:54Z</time>
      </trkpt>
      <trkpt lat="57.56288" lon="-5.38967">
        <ele>101.72</ele>
        <time>2021-03-20T15:12:58Z</time>
      </trkpt>
      <trkpt lat="57.56377" lon="-5.38732">
        <ele>101.57</ele>
        <time>2021-03-20T15:13:01Z</time>
      </trkpt>
      <trkpt lat="57.56451" lon="-5.38529">
        <ele>106.23</ele>
        <time>2021-03-20T15:13:05Z</time>
      </trkpt>
      <trkpt lat="57.56469" lon="-5.38453">
        <ele>107.18</ele>
        <time>2021-03-20T15:13:08Z</time>
      </trkpt>
      <trkpt lat="57.56483" lon="-5.38376">
        <ele>106.28</ele>
        <time>2021-03-20T15:13:12Z</time>
      </trkpt>
      <trkpt lat="57.5649" lon="-5.38319">
        <ele>105.27</ele>
        <time>2021-03-20T15:13:15Z</time>
      </trkpt>
      <trkpt lat="57.56501" lon="-5.38024">
        <ele>108.28</ele>
        <time>2021-03-20T15:13:19Z</time>
      </trkpt>
      <trkpt lat="57.56504" lon="-5.37864">
        <ele>112.49</ele>
        <time>2021-03-20T15:13:22Z</time>
      </trkpt>
      <trkpt lat="57.56514" lon="-5.37809">
        <ele>115.06</ele>
        <time>2021-03-20T15:13:26Z</time>
      </trkpt>
      <trkpt lat="57.56532" lon="-5.37703">
        <ele>113.85</ele>
        <time>2021-03-20T15:13:29Z</time>
      </trkpt>
      <trkpt lat="57.56543" lon="-5.37612">
        <ele>110.69</ele>
        <time>2021-03-20T15:13:33Z</time>
      </trkpt>
      <trkpt lat="57.56533" lon="-5.37477">
        <ele>108.43</ele>
        <time>2021-03-20T15:13:36Z</time>
      </trkpt>
      <trkpt lat="57.56517" lon="-5.37423">
        <ele>108.64</ele>
        <time>2021-03-20T15:13:40Z</time>
      </trkpt>
      <trkpt lat="57.5649" lon="-5.37384">
        <ele>108.04</ele>
        <time>2021-03-20T15:13:43Z</time>
      </trkpt>
      <trkpt lat="57.56416" lon="-5.37269">
        <ele>102.24</ele>
        <time>2021-03-20T15:13:47Z</time>
      </trkpt>
      <trkpt lat="57.56379" lon="-5.37191">
        <ele>100.79</ele>
        <time>2021-03-20T15:13:50Z</time>
      </trkpt>
      <trkpt lat="57.56363" lon="-5.37144">
        <ele>100.11</ele>
        <time>2021-03-20T15:13:54Z</time>
      </trkpt>
      <trkpt lat="57.56349" lon="-5.37063">
        <ele>100.18</ele>
        <time>2021-03-20T15:13:57Z</time>
      </trkpt>
      <trkpt lat="57.56352" lon="-5.36934">
        <ele>99.37</ele>
        <time>2021-03-20T15:14:00Z</time>
      </trkpt>
      <trkpt lat="57.56356" lon="-5.36796">
        <ele>98.27</ele>
        <time>2021-03-20T15:14:04Z</time>
      </trkpt>
      <trkpt lat="57.56363" lon="-5.36719">
        <ele>101.21</ele>
        <time>2021-03-20T15:14:07Z</time>
      </trkpt>
      <trkpt lat="57.56377" lon="-5.36655">
        <ele>102.7</ele>
        <time>2021-03-20T15:14:11Z</time>
      </trkpt>
      <trkpt lat="57.56411" lon="-5.36578">
        <ele>102.56</ele>
        <time>2021-03-20T15:14:14Z</time>
      </trkpt>
      <trkpt lat="57.56455" lon="-5.36496">
        <ele>104.01</ele>
        <time>2021-03-20T15:14:18Z</time>
      </trkpt>
      <trkpt lat="57.56487" lon="-5.36427">
        <ele>104.44</ele>
        <time>2021-03-20T15:14:21Z</time>
      </trkpt>
      <trkpt lat="57.56501" lon="-5.36372">
        <ele>103.49</ele>
        <time>2021-03-20T15:14:25Z</time>
      </trkpt>
      <trkpt lat="57.56517" lon="-5.36286">
        <ele>103.86</ele>
        <time>2021-03-20T15:14:28Z</time>
      </trkpt>
      <trkpt lat="57.56531" lon="-5.362">
        <ele>105.36</ele>
        <time>2021-03-20T15:14:32Z</time>
      </trkpt>
      <trkpt lat="57.56547" lon="-5.36118">
        <ele>105.36</ele>
        <time>2021-03-20T15:14:35Z</time>
      </trkpt>
      <trkpt lat="57.56568" lon="-5.36041">
        <ele>106.1</ele>
        <time>2021-03-20T15:14:39Z</time>
      </trkpt>
      <trkpt lat="57.56598" lon="-5.35955">
        <ele>108.47</ele>
        <time>2021-03-20T15:14:42Z</time>
      </trkpt>
      <trkpt lat="57.56625" lon="-5.35861">
        <ele>108.04</ele>
        <time>2021-03-20T15:14:46Z</time>
      </trkpt>
      <trkpt lat="57.56644" lon="-5.35771">
        <ele>105.67</ele>
        <time>2021-03-20T15:14:49Z</time>
      </trkpt>
      <trkpt lat="57.56659" lon="-5.35668">
        <ele>107.15</ele>
        <time>2021-03-20T15:14:53Z</time>
      </trkpt>
      <trkpt lat="57.56676" lon="-5.3553">
        <ele>108.36</ele>
        <time>2021-03-20T15:14:56Z</time>
      </trkpt>
      <trkpt lat="57.56688" lon="-5.35462">
        <ele>107.88</ele>
        <time>2021-03-20T15:15:00Z</time>
      </trkpt>
      <trkpt lat="57.56729" lon="-5.35367">
        <ele>111.28</ele>
        <time>2021-03-20T15:15:03Z</time>
      </trkpt>
      <trkpt lat="57.56738" lon="-5.3532">
        <ele>111.88</ele>
        <time>2021-03-20T15:15:07Z</time>
      </trkpt>
      <trkpt lat="57.56738" lon="-5.35273">
        <ele>113.06</ele>
        <time>2021-03-20T15:15:10Z</time>
      </trkpt>
      <trkpt lat="57.56722" lon="-5.35226">
        <ele>111.86</ele>
        <time>2021-03-20T15:15:14Z</time>
      </trkpt>
      <trkpt lat="57.56693" lon="-5.35162">
        <ele>110.79</ele>
        <time>2021-03-20T15:15:17Z</time>
      </trkpt>
      <trkpt lat="57.56676" lon="-5.3509">
        <ele>109.82</ele>
        <time>2021-03-20T15:15:21Z</time>
      </trkpt>
      <trkpt lat="57.56661" lon="-5.34992">
        <ele>110.39</ele>
        <time>2021-03-20T15:15:24Z</time>
      </trkpt>
      <trkpt lat="57.5666" lon="-5.349">
        <ele>110.13</ele>
        <time>2021-03-20T15:15:28Z</time>
      </trkpt>
      <trkpt lat="57.56674" lon="-5.34788">
        <ele>108.62</ele>
        <time>2021-03-20T15:15:31Z</time>
      </trkpt>
      <trkpt lat="57.567" lon="-5.34689">
        <ele>108.55</ele>
        <time>2021-03-20T15:15:35Z</time>
      </trkpt>
      <trkpt lat="57.56732" lon="-5.34619">
        <ele>109.07</ele>
        <time>2021-03-20T15:15:38Z</time>
      </trkpt>
      <trkpt lat="57.56766" lon="-5.34565">
        <ele>109.09</ele>
        <time>2021-03-20T15:15:42Z</time>
      </trkpt>
      <trkpt lat="57.56796" lon="-5.34509">
        <ele>107.94</ele>
        <time>2021-03-20T15:15:45Z</time>
      </trkpt>
      <trkpt lat="57.56865" lon="-5.34309">
        <ele>106.64</ele>
        <time>2021-03-20T15:15:49Z</time>
      </trkpt>
      <trkpt lat="57.56911" lon="-5.34188">
        <ele>104.66</ele>
        <time>2021-03-20T15:15:52Z</time>
      </trkpt>
      <trkpt lat="57.56957" lon="-5.34071">
        <ele>106.26</ele>
        <time>2021-03-20T15:15:55Z</time>
      </trkpt>
      <trkpt lat="57.57012" lon="-5.33943">
        <ele>104.37</ele>
        <time>2021-03-20T15:15:59Z</time>
      </trkpt>
      <trkpt lat="57.57061" lon="-5.33842">
        <ele>103.9</ele>
        <time>2021-03-20T15:16:02Z</time>
      </trkpt>
      <trkpt lat="57.57105" lon="-5.33727">
        <ele>104.44</ele>
        <time>2021-03-20T15:16:06Z</time>
      </trkpt>
      <trkpt lat="57.5714" lon="-5.33611">
        <ele>102.06</ele>
        <time>2021-03-20T15:16:09Z</time>
      </trkpt>
      <trkpt lat="57.57175" lon="-5.33459">
        <ele>99.42</ele>
        <time>2021-03-20T15:16:13Z</time>
      </trkpt>
      <trkpt lat="57.57191" lon="-5.33383">
        <ele>99.41</ele>
        <time>2021-03-20T15:16:16Z</time>
      </trkpt>
      <trkpt lat="57.572" lon="-5.33323">
        <ele>98.18</ele>
        <time>2021-03-20T15:16:20Z</time>
      </trkpt>
      <trkpt lat="57.57215" lon="-5.33264">
        <ele>96.21</ele>
        <time>2021-03-20T15:16:23Z</time>
      </trkpt>
      <trkpt lat="57.57246" lon="-5.33171">
        <ele>94.38</ele>
        <time>2021-03-20T15:16:27Z</time>
      </trkpt>
      <trkpt lat="57.57265" lon="-5.3308">
        <ele>95.57</ele>
        <time>2021-03-20T15:16:30Z</time>
      </trkpt>
      <trkpt lat="57.57275" lon="-5.33011">
        <ele>93.21</ele>
        <time>2021-03-20T15:16:34Z</time>
      </trkpt>
      <trkpt lat="57.57282" lon="-5.32927">
        <ele>91.05</ele>
        <time>2021-03-20T15:16:37Z</time>
      </trkpt>
      <trkpt lat="57.57285" lon="-5.32908">
        <ele>90.83</ele>
        <time>2021-03-20T15:16:41Z</time>
      </trkpt>
      <trkpt lat="57.57302" lon="-5.32856">
        <ele>90.12</ele>
        <time>2021-03-20T15:16:44Z</time>
      </trkpt>
      <trkpt lat="57.57314" lon="-5.32835">
        <ele>90.33</ele>
        <time>2021-03-20T15:16:48Z</time>
      </trkpt>
      <trkpt lat="57.57436" lon="-5.32681">
        <ele>90.6</ele>
        <time>2021-03-20T15:16:51Z</time>
      </trkpt>
      <trkpt lat="57.57478" lon="-5.32613">
        <ele>88.85</ele>
        <time>2021-03-20T15:16:55Z</time>
      </trkpt>
      <trkpt lat="57.57502" lon="-5.32562">
        <ele>87.81</ele>
        <time>2021-03-20T15:16:58Z</time>
      </trkpt>
      <trkpt lat="57.5752" lon="-5.32512">
        <ele>88.34</ele>
        <time>2021-03-20T15:17:02Z</time>
      </trkpt>
      <trkpt lat="57.57563" lon="-5.32366">
        <ele>83.43</ele>
        <time>2021-03-20T15:17:05Z</time>
      </trkpt>
      <trkpt lat="57.5759" lon="-5.32329">
        <ele>82.07</ele>
        <time>2021-03-20T15:17:09Z</time>
      </trkpt>
      <trkpt lat="57.57636" lon="-5.32252">
        <ele>81.89</ele>
        <time>2021-03-20T15:17:12Z</time>
      </trkpt>
      <trkpt lat="57.57686" lon="-5.32157">
        <ele>80.08</ele>
        <time>2021-03-20T15:17:16Z</time>
      </trkpt>
      <trkpt lat="57.57783" lon="-5.31949">
        <ele>81.36</ele>
        <time>2021-03-20T15:17:19Z</time>
      </trkpt>
      <trkpt lat="57.5786" lon="-5.31772">
        <ele>79.48</ele>
        <time>2021-03-20T15:17:23Z</time>
      </trkpt>
      <trkpt lat="57.57876" lon="-5.31742">
        <ele>77.96</ele>
        <time>2021-03-20T15:17:26Z</time>
      </trkpt>
      <trkpt lat="57.57951" lon="-5.31648">
        <ele>77.09</ele>
        <time>2021-03-20T15:17:30Z</time>
      </trkpt>
      <trkpt lat="57.58227" lon="-5.31325">
        <ele>72.72</ele>
        <time>2021-03-20T15:17:33Z</time>
      </trkpt>
      <trkpt lat="57.58341" lon="-5.31212">
        <ele>70.27</ele>
        <time>2021-03-20T15:17:37Z</time>
      </trkpt>
      <trkpt lat="57.58368" lon="-5.31192">
        <ele>69.07</ele>
        <time>2021-03-20T15:17:40Z</time>
      </trkpt>
      <trkpt lat="57.58604" lon="-5.31089">
        <ele>68.53</ele>
        <time>2021-03-20T15:17:44Z</time>
      </trkpt>
      <trkpt lat="57.58761" lon="-5.31026">
        <ele>66.43</ele>
        <time>2021-03-20T15:17:47Z</time>
      </trkpt>
      <trkpt lat="57.59115" lon="-5.30908">
        <ele>60.31</ele>
        <time>2021-03-20T15:17:50Z</time>
      </trkpt>
      <trkpt lat="57.59245" lon="-5.30849">
        <ele>55.55</ele>
        <time>2021-03-20T15:17:54Z</time>
      </trkpt>
      <trkpt lat="57.5936" lon="-5.30774">
        <ele>50.84</ele>
        <time>2021-03-20T15:17:57Z</time>
      </trkpt>
      <trkpt lat="57.59485" lon="-5.30715">
        <ele>45.28</ele>
        <time>2021-03-20T15:18:01Z</time>
      </trkpt>
      <trkpt lat="57.59529" lon="-5.30691">
        <ele>43.71</ele>
        <time>2021-03-20T15:18:04Z</time>
      </trkpt>
      <trkpt lat="57.59608" lon="-5.30614">
        <ele>41.86</ele>
        <time>2021-03-20T15:18:08Z</time>
      </trkpt>
      <trkpt lat="57.59637" lon="-5.306">
        <ele>42.54</ele>
        <time>2021-03-20T15:18:11Z</time>
      </trkpt>
      <trkpt lat="57.60139" lon="-5.30548">
        <ele>35</ele>
        <time>2021-03-20T15:18:15Z</time>
      </trkpt>
      <trkpt lat="57.6017" lon="-5.30545">
        <ele>35</ele>
        <time>2021-03-20T15:18:18Z</time>
      </trkpt>
      <trkpt lat="57.60202" lon="-5.30537">
        <ele>34.74</ele>
        <time>2021-03-20T15:18:22Z</time>
      </trkpt>
      <trkpt lat="57.6022" lon="-5.30528">
        <ele>34.09</ele>
        <time>2021-03-20T15:18:25Z</time>
      </trkpt>
      <trkpt lat="57.6033" lon="-5.30438">
        <ele>32.13</ele>
        <time>2021-03-20T15:18:29Z</time>
      </trkpt>
      <trkpt lat="57.60404" lon="-5.30383">
        <ele>33</ele>
        <time>2021-03-20T15:18:32Z</time>
      </trkpt>
      <trkpt lat="57.60452" lon="-5.30336">
        <ele>31.76</ele>
        <time>2021-03-20T15:18:36Z</time>
      </trkpt>
      <trkpt lat="57.60443" lon="-5.3029">
        <ele>31.47</ele>
        <time>2021-03-20T15:18:42Z</time>
      </trkpt>
      <trkpt lat="57.60429" lon="-5.30184">
        <ele>30.89</ele>
        <time>2021-03-20T15:18:47Z</time>
      </trkpt>
      <trkpt lat="57.60401" lon="-5.29893">
        <ele>30.12</ele>
        <time>2021-03-20T15:18:53Z</time>
      </trkpt>
      <trkpt lat="57.60385" lon="-5.29773">
        <ele>36.87</ele>
        <time>2021-03-20T15:18:59Z</time>
      </trkpt>
      <trkpt lat="57.60361" lon="-5.29583">
        <ele>41.03</ele>
        <time>2021-03-20T15:19:05Z</time>
      </trkpt>
      <trkpt lat="57.60355" lon="-5.29463">
        <ele>49.83</ele>
        <time>2021-03-20T15:19:11Z</time>
      </trkpt>
      <trkpt lat="57.60357" lon="-5.29384">
        <ele>52.91</ele>
        <time>2021-03-20T15:19:17Z</time>
      </trkpt>
      <trkpt lat="57.60372" lon="-5.29172">
        <ele>47.14</ele>
        <time>2021-03-20T15:19:22Z</time>
      </trkpt>
      <trkpt lat="57.60377" lon="-5.29106">
        <ele>42.69</ele>
        <time>2021-03-20T15:19:28Z</time>
      </trkpt>
      <trkpt lat="57.60375" lon="-5.28973">
        <ele>42.08</ele>
        <time>2021-03-20T15:19:34Z</time>
      </trkpt>
      <trkpt lat="57.60357" lon="-5.28479">
        <ele>50.19</ele>
        <time>2021-03-20T15:19:40Z</time>
      </trkpt>
      <trkpt lat="57.6035" lon="-5.28336">
        <ele>51.39</ele>
        <time>2021-03-20T15:19:46Z</time>
      </trkpt>
      <trkpt lat="57.60341" lon="-5.28219">
        <ele>54.52</ele>
        <time>2021-03-20T15:19:52Z</time>
      </trkpt>
      <trkpt lat="57.60329" lon="-5.28089">
        <ele>52.44</ele>
        <time>2021-03-20T15:19:57Z</time>
      </trkpt>
      <trkpt lat="57.60311" lon="-5.27956">
        <ele>53.54</ele>
        <time>2021-03-20T15:20:03Z</time>
      </trkpt>
      <trkpt lat="57.60277" lon="-5.27687">
        <ele>50.38</ele>
        <time>2021-03-20T15:20:09Z</time>
      </trkpt>
      <trkpt lat="57.60256" lon="-5.27533">
        <ele>57.16</ele>
        <time>2021-03-20T15:20:15Z</time>
      </trkpt>
      <trkpt lat="57.60209" lon="-5.27318">
        <ele>57.44</ele>
        <time>2021-03-20T15:20:21Z</time>
      </trkpt>
      <trkpt lat="57.60182" lon="-5.27219">
        <ele>59.48</ele>
        <time>2021-03-20T15:20:27Z</time>
      </trkpt>
      <trkpt lat="57.60173" lon="-5.27191">
        <ele>58.69</ele>
        <time>2021-03-20T15:20:32Z</time>
      </trkpt>
      <trkpt lat="57.60129" lon="-5.27078">
        <ele>53.6</ele>
        <time>2021-03-20T15:20:38Z</time>
      </trkpt>
      <trkpt lat="57.60052" lon="-5.26922">
        <ele>55.09</ele>
        <time>2021-03-20T15:20:44Z</time>
      </trkpt>
      <trkpt lat="57.59912" lon="-5.267">
        <ele>67.46</ele>
        <time>2021-03-20T15:20:50Z</time>
      </trkpt>
      <trkpt lat="57.59757" lon="-5.26438">
        <ele>72.29</ele>
        <time>2021-03-20T15:20:56Z</time>
      </trkpt>
      <trkpt lat="57.59601" lon="-5.26159">
        <ele>80.02</ele>
        <time>2021-03-20T15:21:01Z</time>
      </trkpt>
      <trkpt lat="57.59551" lon="-5.26059">
        <ele>79.12</ele>
        <time>2021-03-20T15:21:07Z</time>
      </trkpt>
      <trkpt lat="57.59489" lon="-5.25926">
        <ele>80.76</ele>
        <time>2021-03-20T15:21:13Z</time>
      </trkpt>
      <trkpt lat="57.59414" lon="-5.25806">
        <ele>84.89</ele>
        <time>2021-03-20T15:21:19Z</time>
      </trkpt>
      <trkpt lat="57.5937" lon="-5.25721">
        <ele>86.68</ele>
        <time>2021-03-20T15:21:25Z</time>
      </trkpt>
      <trkpt lat="57.59308" lon="-5.2558">
        <ele>89.44</ele>
        <time>2021-03-20T15:21:31Z</time>
      </trkpt>
      <trkpt lat="57.59273" lon="-5.25486">
        <ele>92.69</ele>
        <time>2021-03-20T15:21:36Z</time>
      </trkpt>
      <trkpt lat="57.59246" lon="-5.25421">
        <ele>92.57</ele>
        <time>2021-03-20T15:21:42Z</time>
      </trkpt>
      <trkpt lat="57.59214" lon="-5.25359">
        <ele>94.52</ele>
        <time>2021-03-20T15:21:48Z</time>
      </trkpt>
      <trkpt lat="57.59178" lon="-5.25301">
        <ele>95.66</ele>
        <time>2021-03-20T15:21:54Z</time>
      </trkpt>
      <trkpt lat="57.59129" lon="-5.25228">
        <ele>96.15</ele>
        <time>2021-03-20T15:22:00Z</time>
      </trkpt>
      <trkpt lat="57.58955" lon="-5.25018">
        <ele>104.75</ele>
        <time>2021-03-20T15:22:06Z</time>
      </trkpt>
      <trkpt lat="57.58901" lon="-5.24921">
        <ele>108.44</ele>
        <time>2021-03-20T15:22:11Z</time>
      </trkpt>
      <trkpt lat="57.58882" lon="-5.24872">
        <ele>109.45</ele>
        <time>2021-03-20T15:22:17Z</time>
      </trkpt>
      <trkpt lat="57.58858" lon="-5.24797">
        <ele>111.56</ele>
        <time>2021-03-20T15:22:23Z</time>
      </trkpt>
      <trkpt lat="57.58841" lon="-5.2474">
        <ele>113.61</ele>
        <time>2021-03-20T15:22:29Z</time>
      </trkpt>
      <trkpt lat="57.5881" lon="-5.24627">
        <ele>117.58</ele>
        <time>2021-03-20T15:22:35Z</time>
      </trkpt>
      <trkpt lat="57.5877" lon="-5.2449">
        <ele>124.44</ele>
        <time>2021-03-20T15:22:40Z</time>
      </trkpt>
      <trkpt lat="57.58748" lon="-5.24421">
        <ele>128.69</ele>
        <time>2021-03-20T15:22:46Z</time>
      </trkpt>
      <trkpt lat="57.58714" lon="-5.24332">
        <ele>137.1</ele>
        <time>2021-03-20T15:22:52Z</time>
      </trkpt>
      <trkpt lat="57.58677" lon="-5.24255">
        <ele>141.36</ele>
        <time>2021-03-20T15:22:58Z</time>
      </trkpt>
      <trkpt lat="57.58631" lon="-5.24172">
        <ele>145.55</ele>
        <time>2021-03-20T15:23:04Z</time>
      </trkpt>
      <trkpt lat="57.58598" lon="-5.24125">
        <ele>146.65</ele>
        <time>2021-03-20T15:23:10Z</time>
      </trkpt>
      <trkpt lat="57.58514" lon="-5.24014">
        <ele>149.95</ele>
        <time>2021-03-20T15:23:15Z</time>
      </trkpt>
      <trkpt lat="57.58423" lon="-5.2389">
        <ele>159.27</ele>
        <time>2021-03-20T15:23:21Z</time>
      </trkpt>
      <trkpt lat="57.58285" lon="-5.23709">
        <ele>171.31</ele>
        <time>2021-03-20T15:23:27Z</time>
      </trkpt>
      <trkpt lat="57.58231" lon="-5.23633">
        <ele>181.91</ele>
        <time>2021-03-20T15:23:33Z</time>
      </trkpt>
      <trkpt lat="57.58199" lon="-5.23582">
        <ele>188.3</ele>
        <time>2021-03-20T15:23:39Z</time>
      </trkpt>
      <trkpt lat="57.58155" lon="-5.23502">
        <ele>190.64</ele>
        <time>2021-03-20T15:23:45Z</time>
      </trkpt>
      <trkpt lat="57.5811" lon="-5.2341">
        <ele>192.76</ele>
        <time>2021-03-20T15:23:50Z</time>
      </trkpt>
      <trkpt lat="57.58078" lon="-5.23339">
        <ele>196.26</ele>
        <time>2021-03-20T15:23:56Z</time>
      </trkpt>
      <trkpt lat="57.58052" lon="-5.23262">
        <ele>197.96</ele>
        <time>2021-03-20T15:24:02Z</time>
      </trkpt>
      <trkpt lat="57.58016" lon="-5.23127">
        <ele>205.63</ele>
        <time>2021-03-20T15:24:08Z</time>
      </trkpt>
      <trkpt lat="57.57995" lon="-5.2306">
        <ele>206.25</ele>
        <time>2021-03-20T15:24:14Z</time>
      </trkpt>
      <trkpt lat="57.57949" lon="-5.22955">
        <ele>210.7</ele>
        <time>2021-03-20T15:24:20Z</time>
      </trkpt>
      <trkpt lat="57.57898" lon="-5.22854">
        <ele>218.93</ele>
        <time>2021-03-20T15:24:25Z</time>
      </trkpt>
      <trkpt lat="57.57856" lon="-5.22746">
        <ele>225.11</ele>
        <time>2021-03-20T15:24:31Z</time>
      </trkpt>
      <trkpt lat="57.57699" lon="-5.22304">
        <ele>237.19</ele>
        <time>2021-03-20T15:24:37Z</time>
      </trkpt>
      <trkpt lat="57.57634" lon="-5.22069">
        <ele>233.92</ele>
        <time>2021-03-20T15:24:43Z</time>
      </trkpt>
      <trkpt lat="57.57608" lon="-5.21993">
        <ele>232.8</ele>
        <time>2021-03-20T15:24:49Z</time>
      </trkpt>
      <trkpt lat="57.57453" lon="-5.21618">
        <ele>236.38</ele>
        <time>2021-03-20T15:24:54Z</time>
      </trkpt>
      <trkpt lat="57.57433" lon="-5.21565">
        <ele>235.43</ele>
        <time>2021-03-20T15:25:00Z</time>
      </trkpt>
      <trkpt lat="57.57419" lon="-5.21515">
        <ele>236.24</ele>
        <time>2021-03-20T15:25:06Z</time>
      </trkpt>
      <trkpt lat="57.57401" lon="-5.21435">
        <ele>235.22</ele>
        <time>2021-03-20T15:25:12Z</time>
      </trkpt>
      <trkpt lat="57.57394" lon="-5.2139">
        <ele>233.78</ele>
        <time>2021-03-20T15:25:18Z</time>
      </trkpt>
      <trkpt lat="57.57375" lon="-5.21197">
        <ele>226.93</ele>
        <time>2021-03-20T15:25:24Z</time>
      </trkpt>
      <trkpt lat="57.57352" lon="-5.21054">
        <ele>221.8</ele>
        <time>2021-03-20T15:25:29Z</time>
      </trkpt>
      <trkpt lat="57.57278" lon="-5.20746">
        <ele>210.13</ele>
        <time>2021-03-20T15:25:35Z</time>
      </trkpt>
      <trkpt lat="57.57257" lon="-5.20611">
        <ele>204.77</ele>
        <time>2021-03-20T15:25:41Z</time>
      </trkpt>
      <trkpt lat="57.57242" lon="-5.20458">
        <ele>196.01</ele>
        <time>2021-03-20T15:25:47Z</time>
      </trkpt>
      <trkpt lat="57.57239" lon="-5.20297">
        <ele>195.67</ele>
        <time>2021-03-20T15:25:53Z</time>
      </trkpt>
      <trkpt lat="57.57245" lon="-5.20151">
        <ele>193.47</ele>
        <time>2021-03-20T15:25:59Z</time>
      </trkpt>
      <trkpt lat="57.57261" lon="-5.20015">
        <ele>189.98</ele>
        <time>2021-03-20T15:26:04Z</time>
      </trkpt>
      <trkpt lat="57.5727" lon="-5.19962">
        <ele>188.13</ele>
        <time>2021-03-20T15:26:10Z</time>
      </trkpt>
      <trkpt lat="57.57343" lon="-5.19626">
        <ele>188.87</ele>
        <time>2021-03-20T15:26:16Z</time>
      </trkpt>
      <trkpt lat="57.57476" lon="-5.19086">
        <ele>181.35</ele>
        <time>2021-03-20T15:26:22Z</time>
      </trkpt>
      <trkpt lat="57.57544" lon="-5.18826">
        <ele>176.57</ele>
        <time>2021-03-20T15:26:28Z</time>
      </trkpt>
      <trkpt lat="57.57578" lon="-5.18704">
        <ele>174.98</ele>
        <time>2021-03-20T15:26:33Z</time>
      </trkpt>
      <trkpt lat="57.57615" lon="-5.18583">
        <ele>173.28</ele>
        <time>2021-03-20T15:26:39Z</time>
      </trkpt>
      <trkpt lat="57.57649" lon="-5.18483">
        <ele>172.07</ele>
        <time>2021-03-20T15:26:45Z</time>
      </trkpt>
      <trkpt lat="57.5767" lon="-5.18384">
        <ele>170.05</ele>
        <time>2021-03-20T15:26:51Z</time>
      </trkpt>
      <trkpt lat="57.57689" lon="-5.18284">
        <ele>168.78</ele>
        <time>2021-03-20T15:26:57Z</time>
      </trkpt>
      <trkpt lat="57.57694" lon="-5.18128">
        <ele>168.61</ele>
        <time>2021-03-20T15:27:03Z</time>
      </trkpt>
      <trkpt lat="57.57696" lon="-5.17995">
        <ele>164.87</ele>
        <time>2021-03-20T15:27:08Z</time>
      </trkpt>
      <trkpt lat="57.57703" lon="-5.17879">
        <ele>161.87</ele>
        <time>2021-03-20T15:27:14Z</time>
      </trkpt>
      <trkpt lat="57.57734" lon="-5.17628">
        <ele>160.24</ele>
        <time>2021-03-20T15:27:20Z</time>
      </trkpt>
      <trkpt lat="57.57745" lon="-5.17513">
        <ele>159.53</ele>
        <time>2021-03-20T15:27:26Z</time>
      </trkpt>
      <trkpt lat="57.57754" lon="-5.17353">
        <ele>159.86</ele>
        <time>2021-03-20T15:27:32Z</time>
      </trkpt>
      <trkpt lat="57.57762" lon="-5.17264">
        <ele>160.42</ele>
        <time>2021-03-20T15:27:38Z</time>
      </trkpt>
      <trkpt lat="57.57788" lon="-5.17097">
        <ele>159.36</ele>
        <time>2021-03-20T15:27:43Z</time>
      </trkpt>
      <trkpt lat="57.57841" lon="-5.16875">
        <ele>164.03</ele>
        <time>2021-03-20T15:27:49Z</time>
      </trkpt>
      <trkpt lat="57.57858" lon="-5.16732">
        <ele>165.55</ele>
        <time>2021-03-20T15:27:55Z</time>
      </trkpt>
      <trkpt lat="57.57861" lon="-5.16588">
        <ele>165.87</ele>
        <time>2021-03-20T15:28:01Z</time>
      </trkpt>
      <trkpt lat="57.57858" lon="-5.16319">
        <ele>165.54</ele>
        <time>2021-03-20T15:28:07Z</time>
      </trkpt>
      <trkpt lat="57.57859" lon="-5.16177">
        <ele>165.29</ele>
        <time>2021-03-20T15:28:13Z</time>
      </trkpt>
      <trkpt lat="57.57864" lon="-5.16064">
        <ele>164.1</ele>
        <time>2021-03-20T15:28:18Z</time>
      </trkpt>
      <trkpt lat="57.57896" lon="-5.15855">
        <ele>168.06</ele>
        <time>2021-03-20T15:28:24Z</time>
      </trkpt>
      <trkpt lat="57.57914" lon="-5.15699">
        <ele>170.61</ele>
        <time>2021-03-20T15:28:30Z</time>
      </trkpt>
      <trkpt lat="57.57921" lon="-5.15536">
        <ele>169.18</ele>
        <time>2021-03-20T15:28:36Z</time>
      </trkpt>
      <trkpt lat="57.57933" lon="-5.14446">
        <ele>167.7</ele>
        <time>2021-03-20T15:28:42Z</time>
      </trkpt>
      <trkpt lat="57.57936" lon="-5.14356">
        <ele>168.54</ele>
        <time>2021-03-20T15:28:47Z</time>
      </trkpt>
      <trkpt lat="57.57943" lon="-5.14223">
        <ele>168.79</ele>
        <time>2021-03-20T15:28:53Z</time>
      </trkpt>
      <trkpt lat="57.57962" lon="-5.14075">
        <ele>164.66</ele>
        <time>2021-03-20T15:28:59Z</time>
      </trkpt>
      <trkpt lat="57.57997" lon="-5.13838">
        <ele>162.35</ele>
        <time>2021-03-20T15:29:05Z</time>
      </trkpt>
      <trkpt lat="57.58005" lon="-5.13769">
        <ele>163</ele>
        <time>2021-03-20T15:29:11Z</time>
      </trkpt>
      <trkpt lat="57.58008" lon="-5.1362">
        <ele>166.13</ele>
        <time>2021-03-20T15:29:17Z</time>
      </trkpt>
      <trkpt lat="57.58001" lon="-5.13513">
        <ele>166.75</ele>
        <time>2021-03-20T15:29:22Z</time>
      </trkpt>
      <trkpt lat="57.57902" lon="-5.12578">
        <ele>165.56</ele>
        <time>2021-03-20T15:29:28Z</time>
      </trkpt>
      <trkpt lat="57.57881" lon="-5.12372">
        <ele>164.51</ele>
        <time>2021-03-20T15:29:34Z</time>
      </trkpt>
      <trkpt lat="57.57864" lon="-5.12176">
        <ele>163.38</ele>
        <time>2021-03-20T15:29:40Z</time>
      </trkpt>
      <trkpt lat="57.5786" lon="-5.12076">
        <ele>162.88</ele>
        <time>2021-03-20T15:29:46Z</time>
      </trkpt>
      <trkpt lat="57.57877" lon="-5.11335">
        <ele>162.78</ele>
        <time>2021-03-20T15:29:52Z</time>
      </trkpt>
      <trkpt lat="57.57886" lon="-5.11089">
        <ele>161.9</ele>
        <time>2021-03-20T15:29:57Z</time>
      </trkpt>
      <trkpt lat="57.57892" lon="-5.10863">
        <ele>162.49</ele>
        <time>2021-03-20T15:30:03Z</time>
      </trkpt>
      <trkpt lat="57.57891" lon="-5.10672">
        <ele>161.56</ele>
        <time>2021-03-20T15:30:09Z</time>
      </trkpt>
      <trkpt lat="57.57876" lon="-5.10459">
        <ele>168.05</ele>
        <time>2021-03-20T15:30:15Z</time>
      </trkpt>
      <trkpt lat="57.57855" lon="-5.09867">
        <ele>170.26</ele>
        <time>2021-03-20T15:30:21Z</time>
      </trkpt>
      <trkpt lat="57.5787" lon="-5.09628">
        <ele>173.37</ele>
        <time>2021-03-20T15:30:26Z</time>
      </trkpt>
      <trkpt lat="57.5787" lon="-5.09489">
        <ele>175.53</ele>
        <time>2021-03-20T15:30:32Z</time>
      </trkpt>
      <trkpt lat="57.57866" lon="-5.09386">
        <ele>177.19</ele>
        <time>2021-03-20T15:30:38Z</time>
      </trkpt>
      <trkpt lat="57.5785" lon="-5.09139">
        <ele>169.93</ele>
        <time>2021-03-20T15:30:44Z</time>
      </trkpt>
      <trkpt lat="57.57815" lon="-5.08692">
        <ele>159.79</ele>
        <time>2021-03-20T15:30:50Z</time>
      </trkpt>
      <trkpt lat="57.578" lon="-5.0848">
        <ele>157.18</ele>
        <time>2021-03-20T15:30:56Z</time>
      </trkpt>
      <trkpt lat="57.57798" lon="-5.08336">
        <ele>158.46</ele>
        <time>2021-03-20T15:31:01Z</time>
      </trkpt>
      <trkpt lat="57.57805" lon="-5.08213">
        <ele>155.99</ele>
        <time>2021-03-20T15:31:07Z</time>
      </trkpt>
      <trkpt lat="57.57812" lon="-5.08148">
        <ele>156.74</ele>
        <time>2021-03-20T15:31:13Z</time>
      </trkpt>
      <trkpt lat="57.57839" lon="-5.07944">
        <ele>156.19</ele>
        <time>2021-03-20T15:31:19Z</time>
      </trkpt>
      <trkpt lat="57.57847" lon="-5.07945">
        <ele>156.51</ele>
        <time>2021-03-20T15:31:25Z</time>
      </trkpt>
      <trkpt lat="57.57853" lon="-5.07937">
        <ele>156.7</ele>
        <time>2021-03-20T15:31:30Z</time>
      </trkpt>
      <trkpt lat="57.57855" lon="-5.0792">
        <ele>156.78</ele>
        <time>2021-03-20T15:31:36Z</time>
      </trkpt>
      <trkpt lat="57.57852" lon="-5.07909">
        <ele>156.41</ele>
        <time>2021-03-20T15:31:41Z</time>
      </trkpt>
      <trkpt lat="57.57877" lon="-5.07833">
        <ele>154.58</ele>
        <time>2021-03-20T15:31:47Z</time>
      </trkpt>
      <trkpt lat="57.5791" lon="-5.07726">
        <ele>152.87</ele>
        <time>2021-03-20T15:31:52Z</time>
      </trkpt>
      <trkpt lat="57.57928" lon="-5.07631">
        <ele>152.95</ele>
        <time>2021-03-20T15:31:58Z</time>
      </trkpt>
      <trkpt lat="57.57949" lon="-5.07535">
        <ele>155.36</ele>
        <time>2021-03-20T15:32:04Z</time>
      </trkpt>
      <trkpt lat="57.57977" lon="-5.07442">
        <ele>154.17</ele>
        <time>2021-03-20T15:32:09Z</time>
      </trkpt>
      <trkpt lat="57.58089" lon="-5.0712">
        <ele>153.54</ele>
        <time>2021-03-20T15:32:15Z</time>
      </trkpt>
      <trkpt lat="57.58107" lon="-5.07059">
        <ele>153.72</ele>
        <time>2021-03-20T15:32:20Z</time>
      </trkpt>
      <trkpt lat="57.58133" lon="-5.06952">
        <ele>152.84</ele>
        <time>2021-03-20T15:32:26Z</time>
      </trkpt>
      <trkpt lat="57.58156" lon="-5.06823">
        <ele>154.6</ele>
        <time>2021-03-20T15:32:31Z</time>
      </trkpt>
      <trkpt lat="57.58231" lon="-5.06173">
        <ele>154.15</ele>
        <time>2021-03-20T15:32:37Z</time>
      </trkpt>
      <trkpt lat="57.58259" lon="-5.0594">
        <ele>151.52</ele>
        <time>2021-03-20T15:32:42Z</time>
      </trkpt>
      <trkpt lat="57.58291" lon="-5.05704">
        <ele>154.99</ele>
        <time>2021-03-20T15:32:48Z</time>
      </trkpt>
      <trkpt lat="57.58374" lon="-5.05142">
        <ele>157.43</ele>
        <time>2021-03-20T15:32:54Z</time>
      </trkpt>
      <trkpt lat="57.5842" lon="-5.04903">
        <ele>157.03</ele>
        <time>2021-03-20T15:32:59Z</time>
      </trkpt>
      <trkpt lat="57.58498" lon="-5.04421">
        <ele>159.6</ele>
        <time>2021-03-20T15:33:05Z</time>
      </trkpt>
      <trkpt lat="57.58572" lon="-5.03906">
        <ele>162.79</ele>
        <time>2021-03-20T15:33:10Z</time>
      </trkpt>
      <trkpt lat="57.58637" lon="-5.03361">
        <ele>164.66</ele>
        <time>2021-03-20T15:33:16Z</time>
      </trkpt>
      <trkpt lat="57.5866" lon="-5.03129">
        <ele>159.37</ele>
        <time>2021-03-20T15:33:21Z</time>
      </trkpt>
      <trkpt lat="57.58685" lon="-5.02928">
        <ele>160.93</ele>
        <time>2021-03-20T15:33:27Z</time>
      </trkpt>
      <trkpt lat="57.58708" lon="-5.02795">
        <ele>164.78</ele>
        <time>2021-03-20T15:33:33Z</time>
      </trkpt>
      <trkpt lat="57.58738" lon="-5.02657">
        <ele>163.16</ele>
        <time>2021-03-20T15:33:38Z</time>
      </trkpt>
      <trkpt lat="57.58779" lon="-5.02524">
        <ele>157.88</ele>
        <time>2021-03-20T15:33:44Z</time>
      </trkpt>
      <trkpt lat="57.58837" lon="-5.02383">
        <ele>156.51</ele>
        <time>2021-03-20T15:33:49Z</time>
      </trkpt>
      <trkpt lat="57.58922" lon="-5.02194">
        <ele>160.37</ele>
        <time>2021-03-20T15:33:55Z</time>
      </trkpt>
      <trkpt lat="57.59021" lon="-5.02005">
        <ele>162.92</ele>
        <time>2021-03-20T15:34:00Z</time>
      </trkpt>
      <trkpt lat="57.5912" lon="-5.01829">
        <ele>156.26</ele>
        <time>2021-03-20T15:34:06Z</time>
      </trkpt>
      <trkpt lat="57.59345" lon="-5.01457">
        <ele>146.18</ele>
        <time>2021-03-20T15:34:12Z</time>
      </trkpt>
      <trkpt lat="57.59386" lon="-5.01391">
        <ele>148.88</ele>
        <time>2021-03-20T15:34:17Z</time>
      </trkpt>
      <trkpt lat="57.5946" lon="-5.01254">
        <ele>142.6</ele>
        <time>2021-03-20T15:34:23Z</time>
      </trkpt>
      <trkpt lat="57.59513" lon="-5.01125">
        <ele>137.94</ele>
        <time>2021-03-20T15:34:28Z</time>
      </trkpt>
      <trkpt lat="57.59564" lon="-5.00966">
        <ele>136.15</ele>
        <time>2021-03-20T15:34:34Z</time>
      </trkpt>
      <trkpt lat="57.59621" lon="-5.00799">
        <ele>138.1</ele>
        <time>2021-03-20T15:34:39Z</time>
      </trkpt>
      <trkpt lat="57.59676" lon="-5.00619">
        <ele>137.22</ele>
        <time>2021-03-20T15:34:45Z</time>
      </trkpt>
      <trkpt lat="57.59734" lon="-5.00443">
        <ele>134.15</ele>
        <time>2021-03-20T15:34:50Z</time>
      </trkpt>
      <trkpt lat="57.59844" lon="-5.00151">
        <ele>133.82</ele>
        <time>2021-03-20T15:34:56Z</time>
      </trkpt>
      <trkpt lat="57.599" lon="-5.0003">
        <ele>138.88</ele>
        <time>2021-03-20T15:35:02Z</time>
      </trkpt>
      <trkpt lat="57.59974" lon="-4.99888">
        <ele>139.35</ele>
        <time>2021-03-20T15:35:07Z</time>
      </trkpt>
      <trkpt lat="57.60007" lon="-4.99821">
        <ele>138.41</ele>
        <time>2021-03-20T15:35:13Z</time>
      </trkpt>
      <trkpt lat="57.60042" lon="-4.99735">
        <ele>134.92</ele>
        <time>2021-03-20T15:35:18Z</time>
      </trkpt>
      <trkpt lat="57.60069" lon="-4.9964">
        <ele>137.51</ele>
        <time>2021-03-20T15:35:24Z</time>
      </trkpt>
      <trkpt lat="57.60095" lon="-4.99507">
        <ele>136.87</ele>
        <time>2021-03-20T15:35:29Z</time>
      </trkpt>
      <trkpt lat="57.60118" lon="-4.99361">
        <ele>135.43</ele>
        <time>2021-03-20T15:35:35Z</time>
      </trkpt>
      <trkpt lat="57.60183" lon="-4.98783">
        <ele>127.18</ele>
        <time>2021-03-20T15:35:41Z</time>
      </trkpt>
      <trkpt lat="57.60222" lon="-4.98424">
        <ele>122.98</ele>
        <time>2021-03-20T15:35:46Z</time>
      </trkpt>
      <trkpt lat="57.60292" lon="-4.9781">
        <ele>125.36</ele>
        <time>2021-03-20T15:35:52Z</time>
      </trkpt>
      <trkpt lat="57.60318" lon="-4.9761">
        <ele>123.19</ele>
        <time>2021-03-20T15:35:57Z</time>
      </trkpt>
      <trkpt lat="57.60361" lon="-4.97304">
        <ele>121.91</ele>
        <time>2021-03-20T15:36:03Z</time>
      </trkpt>
      <trkpt lat="57.60402" lon="-4.97031">
        <ele>124.81</ele>
        <time>2021-03-20T15:36:08Z</time>
      </trkpt>
      <trkpt lat="57.60443" lon="-4.96786">
        <ele>126.01</ele>
        <time>2021-03-20T15:36:14Z</time>
      </trkpt>
      <trkpt lat="57.60518" lon="-4.9646">
        <ele>123.28</ele>
        <time>2021-03-20T15:36:20Z</time>
      </trkpt>
      <trkpt lat="57.60531" lon="-4.96376">
        <ele>124.61</ele>
        <time>2021-03-20T15:36:25Z</time>
      </trkpt>
      <trkpt lat="57.60539" lon="-4.96302">
        <ele>126.33</ele>
        <time>2021-03-20T15:36:31Z</time>
      </trkpt>
      <trkpt lat="57.60559" lon="-4.95993">
        <ele>126.9</ele>
        <time>2021-03-20T15:36:36Z</time>
      </trkpt>
      <trkpt lat="57.60563" lon="-4.95953">
        <ele>127.01</ele>
        <time>2021-03-20T15:36:42Z</time>
      </trkpt>
      <trkpt lat="57.60578" lon="-4.95849">
        <ele>125</ele>
        <time>2021-03-20T15:36:47Z</time>
      </trkpt>
      <trkpt lat="57.60745" lon="-4.94864">
        <ele>125.81</ele>
        <time>2021-03-20T15:36:53Z</time>
      </trkpt>
      <trkpt lat="57.60874" lon="-4.9404">
        <ele>128.98</ele>
        <time>2021-03-20T15:36:59Z</time>
      </trkpt>
      <trkpt lat="57.60973" lon="-4.93349">
        <ele>123.7</ele>
        <time>2021-03-20T15:37:04Z</time>
      </trkpt>
      <trkpt lat="57.61003" lon="-4.93109">
        <ele>126.72</ele>
        <time>2021-03-20T15:37:10Z</time>
      </trkpt>
      <trkpt lat="57.61017" lon="-4.92907">
        <ele>124.24</ele>
        <time>2021-03-20T15:37:15Z</time>
      </trkpt>
      <trkpt lat="57.6102" lon="-4.92718">
        <ele>120.67</ele>
        <time>2021-03-20T15:37:21Z</time>
      </trkpt>
      <trkpt lat="57.61024" lon="-4.9222">
        <ele>122.4</ele>
        <time>2021-03-20T15:37:26Z</time>
      </trkpt>
      <trkpt lat="57.6103" lon="-4.91783">
        <ele>124.55</ele>
        <time>2021-03-20T15:37:32Z</time>
      </trkpt>
      <trkpt lat="57.61039" lon="-4.91419">
        <ele>128.23</ele>
        <time>2021-03-20T15:37:37Z</time>
      </trkpt>
      <trkpt lat="57.61051" lon="-4.91122">
        <ele>129.61</ele>
        <time>2021-03-20T15:37:43Z</time>
      </trkpt>
      <trkpt lat="57.61076" lon="-4.90748">
        <ele>127.88</ele>
        <time>2021-03-20T15:37:49Z</time>
      </trkpt>
      <trkpt lat="57.61095" lon="-4.90298">
        <ele>120.19</ele>
        <time>2021-03-20T15:37:54Z</time>
      </trkpt>
      <trkpt lat="57.61102" lon="-4.89929">
        <ele>118.04</ele>
        <time>2021-03-20T15:38:00Z</time>
      </trkpt>
      <trkpt lat="57.61102" lon="-4.89602">
        <ele>118.98</ele>
        <time>2021-03-20T15:38:05Z</time>
      </trkpt>
      <trkpt lat="57.61104" lon="-4.891">
        <ele>129</ele>
        <time>2021-03-20T15:38:11Z</time>
      </trkpt>
      <trkpt lat="57.61088" lon="-4.88493">
        <ele>131.13</ele>
        <time>2021-03-20T15:38:16Z</time>
      </trkpt>
      <trkpt lat="57.61079" lon="-4.8828">
        <ele>131.11</ele>
        <time>2021-03-20T15:38:22Z</time>
      </trkpt>
      <trkpt lat="57.61077" lon="-4.88157">
        <ele>132.72</ele>
        <time>2021-03-20T15:38:28Z</time>
      </trkpt>
      <trkpt lat="57.61081" lon="-4.88026">
        <ele>131.75</ele>
        <time>2021-03-20T15:38:33Z</time>
      </trkpt>
      <trkpt lat="57.61093" lon="-4.87894">
        <ele>128.32</ele>
        <time>2021-03-20T15:38:39Z</time>
      </trkpt>
      <trkpt lat="57.61118" lon="-4.8771">
        <ele>126.41</ele>
        <time>2021-03-20T15:38:44Z</time>
      </trkpt>
      <trkpt lat="57.61197" lon="-4.87393">
        <ele>119.77</ele>
        <time>2021-03-20T15:38:50Z</time>
      </trkpt>
      <trkpt lat="57.61205" lon="-4.87351">
        <ele>118.24</ele>
        <time>2021-03-20T15:38:55Z</time>
      </trkpt>
      <trkpt lat="57.61212" lon="-4.8731">
        <ele>117.61</ele>
        <time>2021-03-20T15:39:01Z</time>
      </trkpt>
      <trkpt lat="57.6122" lon="-4.87211">
        <ele>115.85</ele>
        <time>2021-03-20T15:39:07Z</time>
      </trkpt>
      <trkpt lat="57.6122" lon="-4.87168">
        <ele>115.11</ele>
        <time>2021-03-20T15:39:12Z</time>
      </trkpt>
      <trkpt lat="57.61218" lon="-4.87106">
        <ele>117.31</ele>
        <time>2021-03-20T15:39:18Z</time>
      </trkpt>
      <trkpt lat="57.61215" lon="-4.87058">
        <ele>119.33</ele>
        <time>2021-03-20T15:39:23Z</time>
      </trkpt>
      <trkpt lat="57.61198" lon="-4.86946">
        <ele>119.63</ele>
        <time>2021-03-20T15:39:29Z</time>
      </trkpt>
      <trkpt lat="57.61159" lon="-4.8674">
        <ele>117.63</ele>
        <time>2021-03-20T15:39:34Z</time>
      </trkpt>
      <trkpt lat="57.61136" lon="-4.86564">
        <ele>117.4</ele>
        <time>2021-03-20T15:39:40Z</time>
      </trkpt>
      <trkpt lat="57.61127" lon="-4.86431">
        <ele>118.2</ele>
        <time>2021-03-20T15:39:45Z</time>
      </trkpt>
      <trkpt lat="57.61129" lon="-4.86272">
        <ele>121.76</ele>
        <time>2021-03-20T15:39:51Z</time>
      </trkpt>
      <trkpt lat="57.61136" lon="-4.86053">
        <ele>120.52</ele>
        <time>2021-03-20T15:39:57Z</time>
      </trkpt>
      <trkpt lat="57.61134" lon="-4.85907">
        <ele>121.4</ele>
        <time>2021-03-20T15:40:02Z</time>
      </trkpt>
      <trkpt lat="57.61128" lon="-4.85757">
        <ele>121.56</ele>
        <time>2021-03-20T15:40:08Z</time>
      </trkpt>
      <trkpt lat="57.61125" lon="-4.85611">
        <ele>117.96</ele>
        <time>2021-03-20T15:40:13Z</time>
      </trkpt>
      <trkpt lat="57.61132" lon="-4.85483">
        <ele>117.95</ele>
        <time>2021-03-20T15:40:19Z</time>
      </trkpt>
      <trkpt lat="57.61148" lon="-4.85319">
        <ele>118.43</ele>
        <time>2021-03-20T15:40:24Z</time>
      </trkpt>
      <trkpt lat="57.61185" lon="-4.84976">
        <ele>115.28</ele>
        <time>2021-03-20T15:40:30Z</time>
      </trkpt>
      <trkpt lat="57.61224" lon="-4.8468">
        <ele>116.07</ele>
        <time>2021-03-20T15:40:36Z</time>
      </trkpt>
      <trkpt lat="57.6126" lon="-4.84427">
        <ele>115.25</ele>
        <time>2021-03-20T15:40:41Z</time>
      </trkpt>
      <trkpt lat="57.61288" lon="-4.84259">
        <ele>116.64</ele>
        <time>2021-03-20T15:40:47Z</time>
      </trkpt>
      <trkpt lat="57.61312" lon="-4.84097">
        <ele>115.65</ele>
        <time>2021-03-20T15:40:52Z</time>
      </trkpt>
      <trkpt lat="57.61336" lon="-4.83959">
        <ele>114.93</ele>
        <time>2021-03-20T15:40:58Z</time>
      </trkpt>
      <trkpt lat="57.61371" lon="-4.83843">
        <ele>115.43</ele>
        <time>2021-03-20T15:41:03Z</time>
      </trkpt>
      <trkpt lat="57.61398" lon="-4.83762">
        <ele>115.44</ele>
        <time>2021-03-20T15:41:09Z</time>
      </trkpt>
      <trkpt lat="57.61435" lon="-4.8368">
        <ele>116.27</ele>
        <time>2021-03-20T15:41:15Z</time>
      </trkpt>
      <trkpt lat="57.61497" lon="-4.83573">
        <ele>117.31</ele>
        <time>2021-03-20T15:41:20Z</time>
      </trkpt>
      <trkpt lat="57.61578" lon="-4.83444">
        <ele>116.61</ele>
        <time>2021-03-20T15:41:26Z</time>
      </trkpt>
      <trkpt lat="57.61768" lon="-4.83182">
        <ele>100.22</ele>
        <time>2021-03-20T15:41:31Z</time>
      </trkpt>
      <trkpt lat="57.61831" lon="-4.83109">
        <ele>101.73</ele>
        <time>2021-03-20T15:41:37Z</time>
      </trkpt>
      <trkpt lat="57.61902" lon="-4.83051">
        <ele>97.82</ele>
        <time>2021-03-20T15:41:42Z</time>
      </trkpt>
      <trkpt lat="57.6204" lon="-4.82944">
        <ele>94.33</ele>
        <time>2021-03-20T15:41:48Z</time>
      </trkpt>
      <trkpt lat="57.62072" lon="-4.82912">
        <ele>97.54</ele>
        <time>2021-03-20T15:41:54Z</time>
      </trkpt>
      <trkpt lat="57.62118" lon="-4.82828">
        <ele>102.72</ele>
        <time>2021-03-20T15:41:59Z</time>
      </trkpt>
      <trkpt lat="57.62142" lon="-4.82743">
        <ele>104.11</ele>
        <time>2021-03-20T15:42:05Z</time>
      </trkpt>
      <trkpt lat="57.62157" lon="-4.82657">
        <ele>104.91</ele>
        <time>2021-03-20T15:42:10Z</time>
      </trkpt>
      <trkpt lat="57.62176" lon="-4.82515">
        <ele>104.9</ele>
        <time>2021-03-20T15:42:16Z</time>
      </trkpt>
      <trkpt lat="57.62194" lon="-4.8241">
        <ele>103.67</ele>
        <time>2021-03-20T15:42:21Z</time>
      </trkpt>
      <trkpt lat="57.6222" lon="-4.823">
        <ele>104.25</ele>
        <time>2021-03-20T15:42:27Z</time>
      </trkpt>
      <trkpt lat="57.62269" lon="-4.82126">
        <ele>106.9</ele>
        <time>2021-03-20T15:42:32Z</time>
      </trkpt>
      <trkpt lat="57.62282" lon="-4.82066">
        <ele>108.01</ele>
        <time>2021-03-20T15:42:38Z</time>
      </trkpt>
      <trkpt lat="57.62293" lon="-4.81988">
        <ele>107.24</ele>
        <time>2021-03-20T15:42:44Z</time>
      </trkpt>
      <trkpt lat="57.62297" lon="-4.81939">
        <ele>105.61</ele>
        <time>2021-03-20T15:42:49Z</time>
      </trkpt>
      <trkpt lat="57.623" lon="-4.81837">
        <ele>104.36</ele>
        <time>2021-03-20T15:42:55Z</time>
      </trkpt>
      <trkpt lat="57.62295" lon="-4.81729">
        <ele>104.95</ele>
        <time>2021-03-20T15:43:00Z</time>
      </trkpt>
      <trkpt lat="57.62267" lon="-4.81517">
        <ele>106.22</ele>
        <time>2021-03-20T15:43:06Z</time>
      </trkpt>
      <trkpt lat="57.62258" lon="-4.81393">
        <ele>104.6</ele>
        <time>2021-03-20T15:43:11Z</time>
      </trkpt>
      <trkpt lat="57.62256" lon="-4.81288">
        <ele>105.14</ele>
        <time>2021-03-20T15:43:17Z</time>
      </trkpt>
      <trkpt lat="57.6226" lon="-4.81178">
        <ele>105.89</ele>
        <time>2021-03-20T15:43:23Z</time>
      </trkpt>
      <trkpt lat="57.62268" lon="-4.811">
        <ele>105.29</ele>
        <time>2021-03-20T15:43:28Z</time>
      </trkpt>
      <trkpt lat="57.62279" lon="-4.81024">
        <ele>106.08</ele>
        <time>2021-03-20T15:43:34Z</time>
      </trkpt>
      <trkpt lat="57.62293" lon="-4.80896">
        <ele>106.23</ele>
        <time>2021-03-20T15:43:39Z</time>
      </trkpt>
      <trkpt lat="57.62299" lon="-4.80819">
        <ele>105.14</ele>
        <time>2021-03-20T15:43:45Z</time>
      </trkpt>
      <trkpt lat="57.62303" lon="-4.80734">
        <ele>104.07</ele>
        <time>2021-03-20T15:43:50Z</time>
      </trkpt>
      <trkpt lat="57.62299" lon="-4.80631">
        <ele>104.08</ele>
        <time>2021-03-20T15:43:56Z</time>
      </trkpt>
      <trkpt lat="57.6229" lon="-4.80502">
        <ele>104.67</ele>
        <time>2021-03-20T15:44:02Z</time>
      </trkpt>
      <trkpt lat="57.62298" lon="-4.80422">
        <ele>105.38</ele>
        <time>2021-03-20T15:44:07Z</time>
      </trkpt>
      <trkpt lat="57.62313" lon="-4.80348">
        <ele>104.32</ele>
        <time>2021-03-20T15:44:13Z</time>
      </trkpt>
      <trkpt lat="57.62341" lon="-4.80294">
        <ele>105.78</ele>
        <time>2021-03-20T15:44:18Z</time>
      </trkpt>
      <trkpt lat="57.6237" lon="-4.80247">
        <ele>105.96</ele>
        <time>2021-03-20T15:44:24Z</time>
      </trkpt>
      <trkpt lat="57.62414" lon="-4.80213">
        <ele>107.23</ele>
        <time>2021-03-20T15:44:29Z</time>
      </trkpt>
      <trkpt lat="57.62516" lon="-4.80161">
        <ele>110.76</ele>
        <time>2021-03-20T15:44:35Z</time>
      </trkpt>
      <trkpt lat="57.62547" lon="-4.80122">
        <ele>107.74</ele>
        <time>2021-03-20T15:44:40Z</time>
      </trkpt>
      <trkpt lat="57.6258" lon="-4.80059">
        <ele>106.72</ele>
        <time>2021-03-20T15:44:46Z</time>
      </trkpt>
      <trkpt lat="57.62601" lon="-4.79994">
        <ele>102.37</ele>
        <time>2021-03-20T15:44:52Z</time>
      </trkpt>
      <trkpt lat="57.62628" lon="-4.79956">
        <ele>101.62</ele>
        <time>2021-03-20T15:44:57Z</time>
      </trkpt>
      <trkpt lat="57.62661" lon="-4.79933">
        <ele>102.35</ele>
        <time>2021-03-20T15:45:03Z</time>
      </trkpt>
      <trkpt lat="57.62692" lon="-4.79926">
        <ele>102.24</ele>
        <time>2021-03-20T15:45:08Z</time>
      </trkpt>
      <trkpt lat="57.62752" lon="-4.79934">
        <ele>107.69</ele>
        <time>2021-03-20T15:45:14Z</time>
      </trkpt>
      <trkpt lat="57.62768" lon="-4.79934">
        <ele>109.38</ele>
        <time>2021-03-20T15:45:19Z</time>
      </trkpt>
      <trkpt lat="57.62791" lon="-4.79929">
        <ele>111.24</ele>
        <time>2021-03-20T15:45:25Z</time>
      </trkpt>
      <trkpt lat="57.62824" lon="-4.79908">
        <ele>110.99</ele>
        <time>2021-03-20T15:45:31Z</time>
      </trkpt>
      <trkpt lat="57.62845" lon="-4.79888">
        <ele>110.13</ele>
        <time>2021-03-20T15:45:36Z</time>
      </trkpt>
      <trkpt lat="57.62892" lon="-4.79818">
        <ele>107.83</ele>
        <time>2021-03-20T15:45:42Z</time>
      </trkpt>
      <trkpt lat="57.62974" lon="-4.79713">
        <ele>112.44</ele>
        <time>2021-03-20T15:45:47Z</time>
      </trkpt>
      <trkpt lat="57.62996" lon="-4.79683">
        <ele>111.79</ele>
        <time>2021-03-20T15:45:53Z</time>
      </trkpt>
      <trkpt lat="57.63003" lon="-4.79669">
        <ele>111.5</ele>
        <time>2021-03-20T15:45:58Z</time>
      </trkpt>
      <trkpt lat="57.6303" lon="-4.79599">
        <ele>113.75</ele>
        <time>2021-03-20T15:46:04Z</time>
      </trkpt>
      <trkpt lat="57.63044" lon="-4.79547">
        <ele>117.59</ele>
        <time>2021-03-20T15:46:10Z</time>
      </trkpt>
      <trkpt lat="57.63053" lon="-4.79484">
        <ele>120.71</ele>
        <time>2021-03-20T15:46:15Z</time>
      </trkpt>
      <trkpt lat="57.63056" lon="-4.7943">
        <ele>122.12</ele>
        <time>2021-03-20T15:46:21Z</time>
      </trkpt>
      <trkpt lat="57.63058" lon="-4.79361">
        <ele>123.27</ele>
        <time>2021-03-20T15:46:26Z</time>
      </trkpt>
      <trkpt lat="57.63068" lon="-4.79246">
        <ele>124.83</ele>
        <time>2021-03-20T15:46:32Z</time>
      </trkpt>
      <trkpt lat="57.63079" lon="-4.79153">
        <ele>127.28</ele>
        <time>2021-03-20T15:46:37Z</time>
      </trkpt>
      <trkpt lat="57.63081" lon="-4.79096">
        <ele>126.72</ele>
        <time>2021-03-20T15:46:43Z</time>
      </trkpt>
      <trkpt lat="57.63079" lon="-4.79067">
        <ele>126.62</ele>
        <time>2021-03-20T15:46:49Z</time>
      </trkpt>
      <trkpt lat="57.63073" lon="-4.7901">
        <ele>126.47</ele>
        <time>2021-03-20T15:46:54Z</time>
      </trkpt>
      <trkpt lat="57.63066" lon="-4.78964">
        <ele>126.75</ele>
        <time>2021-03-20T15:47:00Z</time>
      </trkpt>
      <trkpt lat="57.6304" lon="-4.78844">
        <ele>126.21</ele>
        <time>2021-03-20T15:47:05Z</time>
      </trkpt>
      <trkpt lat="57.63029" lon="-4.78788">
        <ele>126.68</ele>
        <time>2021-03-20T15:47:11Z</time>
      </trkpt>
      <trkpt lat="57.63016" lon="-4.78676">
        <ele>129.42</ele>
        <time>2021-03-20T15:47:16Z</time>
      </trkpt>
      <trkpt lat="57.63008" lon="-4.78509">
        <ele>133.91</ele>
        <time>2021-03-20T15:47:22Z</time>
      </trkpt>
      <trkpt lat="57.63004" lon="-4.78383">
        <ele>132.32</ele>
        <time>2021-03-20T15:47:27Z</time>
      </trkpt>
      <trkpt lat="57.63" lon="-4.78059">
        <ele>136.1</ele>
        <time>2021-03-20T15:47:33Z</time>
      </trkpt>
      <trkpt lat="57.63001" lon="-4.77921">
        <ele>135.07</ele>
        <time>2021-03-20T15:47:39Z</time>
      </trkpt>
      <trkpt lat="57.63007" lon="-4.77818">
        <ele>132.19</ele>
        <time>2021-03-20T15:47:44Z</time>
      </trkpt>
      <trkpt lat="57.6303" lon="-4.77685">
        <ele>131.2</ele>
        <time>2021-03-20T15:47:50Z</time>
      </trkpt>
      <trkpt lat="57.63062" lon="-4.77552">
        <ele>135.23</ele>
        <time>2021-03-20T15:47:55Z</time>
      </trkpt>
      <trkpt lat="57.63126" lon="-4.77324">
        <ele>134.1</ele>
        <time>2021-03-20T15:48:01Z</time>
      </trkpt>
      <trkpt lat="57.63166" lon="-4.7717">
        <ele>134.94</ele>
        <time>2021-03-20T15:48:06Z</time>
      </trkpt>
      <trkpt lat="57.63177" lon="-4.77084">
        <ele>133.5</ele>
        <time>2021-03-20T15:48:12Z</time>
      </trkpt>
      <trkpt lat="57.63182" lon="-4.77007">
        <ele>134.08</ele>
        <time>2021-03-20T15:48:18Z</time>
      </trkpt>
      <trkpt lat="57.63184" lon="-4.76917">
        <ele>134.33</ele>
        <time>2021-03-20T15:48:23Z</time>
      </trkpt>
      <trkpt lat="57.63184" lon="-4.76831">
        <ele>132.27</ele>
        <time>2021-03-20T15:48:29Z</time>
      </trkpt>
      <trkpt lat="57.63193" lon="-4.76728">
        <ele>132.03</ele>
        <time>2021-03-20T15:48:34Z</time>
      </trkpt>
      <trkpt lat="57.63209" lon="-4.76651">
        <ele>130.48</ele>
        <time>2021-03-20T15:48:40Z</time>
      </trkpt>
      <trkpt lat="57.6329" lon="-4.76367">
        <ele>126</ele>
        <time>2021-03-20T15:48:45Z</time>
      </trkpt>
      <trkpt lat="57.63299" lon="-4.76312">
        <ele>126.25</ele>
        <time>2021-03-20T15:48:51Z</time>
      </trkpt>
      <trkpt lat="57.63301" lon="-4.76226">
        <ele>125.14</ele>
        <time>2021-03-20T15:48:57Z</time>
      </trkpt>
      <trkpt lat="57.63301" lon="-4.7617">
        <ele>122.97</ele>
        <time>2021-03-20T15:49:02Z</time>
      </trkpt>
      <trkpt lat="57.6329" lon="-4.76028">
        <ele>120.42</ele>
        <time>2021-03-20T15:49:08Z</time>
      </trkpt>
      <trkpt lat="57.63244" lon="-4.75612">
        <ele>118.77</ele>
        <time>2021-03-20T15:49:13Z</time>
      </trkpt>
      <trkpt lat="57.63224" lon="-4.75306">
        <ele>121.18</ele>
        <time>2021-03-20T15:49:19Z</time>
      </trkpt>
      <trkpt lat="57.63162" lon="-4.747">
        <ele>132.23</ele>
        <time>2021-03-20T15:49:24Z</time>
      </trkpt>
      <trkpt lat="57.63154" lon="-4.74353">
        <ele>133.79</ele>
        <time>2021-03-20T15:49:30Z</time>
      </trkpt>
      <trkpt lat="57.63143" lon="-4.74236">
        <ele>134.87</ele>
        <time>2021-03-20T15:49:35Z</time>
      </trkpt>
      <trkpt lat="57.63114" lon="-4.74091">
        <ele>135.16</ele>
        <time>2021-03-20T15:49:41Z</time>
      </trkpt>
      <trkpt lat="57.62983" lon="-4.73717">
        <ele>131.31</ele>
        <time>2021-03-20T15:49:47Z</time>
      </trkpt>
      <trkpt lat="57.62944" lon="-4.7354">
        <ele>130.1</ele>
        <time>2021-03-20T15:49:52Z</time>
      </trkpt>
      <trkpt lat="57.62934" lon="-4.73464">
        <ele>130.58</ele>
        <time>2021-03-20T15:49:58Z</time>
      </trkpt>
      <trkpt lat="57.62933" lon="-4.73355">
        <ele>130.18</ele>
        <time>2021-03-20T15:50:03Z</time>
      </trkpt>
      <trkpt lat="57.62923" lon="-4.72981">
        <ele>127.02</ele>
        <time>2021-03-20T15:50:09Z</time>
      </trkpt>
      <trkpt lat="57.62909" lon="-4.72747">
        <ele>123.25</ele>
        <time>2021-03-20T15:50:14Z</time>
      </trkpt>
      <trkpt lat="57.62883" lon="-4.72503">
        <ele>121.11</ele>
        <time>2021-03-20T15:50:20Z</time>
      </trkpt>
      <trkpt lat="57.62844" lon="-4.72214">
        <ele>120.86</ele>
        <time>2021-03-20T15:50:26Z</time>
      </trkpt>
      <trkpt lat="57.62796" lon="-4.71969">
        <ele>117.07</ele>
        <time>2021-03-20T15:50:31Z</time>
      </trkpt>
      <trkpt lat="57.62768" lon="-4.71762">
        <ele>115.32</ele>
        <time>2021-03-20T15:50:37Z</time>
      </trkpt>
      <trkpt lat="57.62752" lon="-4.71456">
        <ele>111.68</ele>
        <time>2021-03-20T15:50:42Z</time>
      </trkpt>
      <trkpt lat="57.62731" lon="-4.71265">
        <ele>109.71</ele>
        <time>2021-03-20T15:50:48Z</time>
      </trkpt>
      <trkpt lat="57.62709" lon="-4.71131">
        <ele>107.85</ele>
        <time>2021-03-20T15:50:53Z</time>
      </trkpt>
      <trkpt lat="57.62693" lon="-4.71047">
        <ele>106.92</ele>
        <time>2021-03-20T15:50:59Z</time>
      </trkpt>
      <trkpt lat="57.62664" lon="-4.70954">
        <ele>107.14</ele>
        <time>2021-03-20T15:51:05Z</time>
      </trkpt>
      <trkpt lat="57.62626" lon="-4.70879">
        <ele>108.5</ele>
        <time>2021-03-20T15:51:10Z</time>
      </trkpt>
      <trkpt lat="57.62556" lon="-4.70746">
        <ele>105.58</ele>
        <time>2021-03-20T15:51:16Z</time>
      </trkpt>
      <trkpt lat="57.62486" lon="-4.70625">
        <ele>106.04</ele>
        <time>2021-03-20T15:51:21Z</time>
      </trkpt>
      <trkpt lat="57.62429" lon="-4.70471">
        <ele>102.68</ele>
        <time>2021-03-20T15:51:27Z</time>
      </trkpt>
      <trkpt lat="57.62399" lon="-4.70399">
        <ele>98.58</ele>
        <time>2021-03-20T15:51:32Z</time>
      </trkpt>
      <trkpt lat="57.62374" lon="-4.70329">
        <ele>94.27</ele>
        <time>2021-03-20T15:51:38Z</time>
      </trkpt>
      <trkpt lat="57.62355" lon="-4.70261">
        <ele>91.21</ele>
        <time>2021-03-20T15:51:44Z</time>
      </trkpt>
      <trkpt lat="57.62326" lon="-4.70133">
        <ele>85.14</ele>
        <time>2021-03-20T15:51:49Z</time>
      </trkpt>
      <trkpt lat="57.62302" lon="-4.70008">
        <ele>81.3</ele>
        <time>2021-03-20T15:51:55Z</time>
      </trkpt>
      <trkpt lat="57.62299" lon="-4.69972">
        <ele>79.91</ele>
        <time>2021-03-20T15:52:00Z</time>
      </trkpt>
      <trkpt lat="57.62301" lon="-4.69944">
        <ele>77.44</ele>
        <time>2021-03-20T15:52:06Z</time>
      </trkpt>
      <trkpt lat="57.62384" lon="-4.69997">
        <ele>75.9</ele>
        <time>2021-03-20T15:52:08Z</time>
      </trkpt>
      <trkpt lat="57.62407" lon="-4.70005">
        <ele>75.14</ele>
        <time>2021-03-20T15:52:10Z</time>
      </trkpt>
      <trkpt lat="57.62433" lon="-4.7001">
        <ele>74.25</ele>
        <time>2021-03-20T15:52:13Z</time>
      </trkpt>
      <trkpt lat="57.62502" lon="-4.70007">
        <ele>74.75</ele>
        <time>2021-03-20T15:52:15Z</time>
      </trkpt>
      <trkpt lat="57.6253" lon="-4.69998">
        <ele>75</ele>
        <time>2021-03-20T15:52:17Z</time>
      </trkpt>
      <trkpt lat="57.62581" lon="-4.69972">
        <ele>75.91</ele>
        <time>2021-03-20T15:52:19Z</time>
      </trkpt>
      <trkpt lat="57.62602" lon="-4.69958">
        <ele>76.16</ele>
        <time>2021-03-20T15:52:21Z</time>
      </trkpt>
      <trkpt lat="57.62624" lon="-4.69938">
        <ele>76.94</ele>
        <time>2021-03-20T15:52:24Z</time>
      </trkpt>
      <trkpt lat="57.62655" lon="-4.69906">
        <ele>78.23</ele>
        <time>2021-03-20T15:52:26Z</time>
      </trkpt>
      <trkpt lat="57.62637" lon="-4.69824">
        <ele>76.89</ele>
        <time>2021-03-20T15:52:29Z</time>
      </trkpt>
      <trkpt lat="57.62617" lon="-4.69663">
        <ele>77.2</ele>
        <time>2021-03-20T15:52:33Z</time>
      </trkpt>
      <trkpt lat="57.62598" lon="-4.69401">
        <ele>78.34</ele>
        <time>2021-03-20T15:52:36Z</time>
      </trkpt>
      <trkpt lat="57.62598" lon="-4.69371">
        <ele>78.51</ele>
        <time>2021-03-20T15:52:39Z</time>
      </trkpt>
      <trkpt lat="57.62603" lon="-4.69334">
        <ele>78.71</ele>
        <time>2021-03-20T15:52:43Z</time>
      </trkpt>
      <trkpt lat="57.62611" lon="-4.69313">
        <ele>79.01</ele>
        <time>2021-03-20T15:52:48Z</time>
      </trkpt>
      <trkpt lat="57.62625" lon="-4.69283">
        <ele>80.93</ele>
        <time>2021-03-20T15:52:52Z</time>
      </trkpt>
      <trkpt lat="57.6265" lon="-4.69255">
        <ele>83.67</ele>
        <time>2021-03-20T15:52:57Z</time>
      </trkpt>
      <trkpt lat="57.62748" lon="-4.69104">
        <ele>88.68</ele>
        <time>2021-03-20T15:53:02Z</time>
      </trkpt>
      <trkpt lat="57.62823" lon="-4.68972">
        <ele>92.87</ele>
        <time>2021-03-20T15:53:06Z</time>
      </trkpt>
      <trkpt lat="57.6287" lon="-4.68896">
        <ele>97.14</ele>
        <time>2021-03-20T15:53:11Z</time>
      </trkpt>
      <trkpt lat="57.63023" lon="-4.68656">
        <ele>101.26</ele>
        <time>2021-03-20T15:53:16Z</time>
      </trkpt>
      <trkpt lat="57.63224" lon="-4.68356">
        <ele>100.05</ele>
        <time>2021-03-20T15:53:20Z</time>
      </trkpt>
      <trkpt lat="57.63281" lon="-4.68286">
        <ele>101.03</ele>
        <time>2021-03-20T15:53:25Z</time>
      </trkpt>
      <trkpt lat="57.63328" lon="-4.68241">
        <ele>101.49</ele>
        <time>2021-03-20T15:53:30Z</time>
      </trkpt>
      <trkpt lat="57.63344" lon="-4.68238">
        <ele>102.31</ele>
        <time>2021-03-20T15:53:34Z</time>
      </trkpt>
      <trkpt lat="57.6339" lon="-4.68133">
        <ele>100.83</ele>
        <time>2021-03-20T15:53:42Z</time>
      </trkpt>
      <trkpt lat="57.63462" lon="-4.68001">
        <ele>103.3</ele>
        <time>2021-03-20T15:53:50Z</time>
      </trkpt>
      <trkpt lat="57.63608" lon="-4.67787">
        <ele>110.08</ele>
        <time>2021-03-20T15:53:58Z</time>
      </trkpt>
      <trkpt lat="57.63633" lon="-4.67755">
        <ele>109.2</ele>
        <time>2021-03-20T15:54:06Z</time>
      </trkpt>
      <trkpt lat="57.63667" lon="-4.67719">
        <ele>107.24</ele>
        <time>2021-03-20T15:54:13Z</time>
      </trkpt>
      <trkpt lat="57.63695" lon="-4.67696">
        <ele>110.97</ele>
        <time>2021-03-20T15:54:21Z</time>
      </trkpt>
      <trkpt lat="57.63713" lon="-4.67685">
        <ele>114.71</ele>
        <time>2021-03-20T15:54:29Z</time>
      </trkpt>
      <trkpt lat="57.63741" lon="-4.67674">
        <ele>117.92</ele>
        <time>2021-03-20T15:54:37Z</time>
      </trkpt>
      <trkpt lat="57.63778" lon="-4.67667">
        <ele>118.99</ele>
        <time>2021-03-20T15:54:45Z</time>
      </trkpt>
      <trkpt lat="57.63843" lon="-4.67677">
        <ele>120.52</ele>
        <time>2021-03-20T15:54:52Z</time>
      </trkpt>
      <trkpt lat="57.63892" lon="-4.67701">
        <ele>122.75</ele>
        <time>2021-03-20T15:55:00Z</time>
      </trkpt>
      <trkpt lat="57.642" lon="-4.67941">
        <ele>123.06</ele>
        <time>2021-03-20T15:55:08Z</time>
      </trkpt>
      <trkpt lat="57.64398" lon="-4.68071">
        <ele>122.86</ele>
        <time>2021-03-20T15:55:16Z</time>
      </trkpt>
      <trkpt lat="57.64596" lon="-4.68163">
        <ele>122.85</ele>
        <time>2021-03-20T15:55:24Z</time>
      </trkpt>
      <trkpt lat="57.64659" lon="-4.6818">
        <ele>122.78</ele>
        <time>2021-03-20T15:55:32Z</time>
      </trkpt>
      <trkpt lat="57.64731" lon="-4.68188">
        <ele>123.52</ele>
        <time>2021-03-20T15:55:39Z</time>
      </trkpt>
      <trkpt lat="57.64912" lon="-4.68167">
        <ele>125.96</ele>
        <time>2021-03-20T15:55:47Z</time>
      </trkpt>
      <trkpt lat="57.65281" lon="-4.6798">
        <ele>127.23</ele>
        <time>2021-03-20T15:55:55Z</time>
      </trkpt>
      <trkpt lat="57.65639" lon="-4.67788">
        <ele>132</ele>
        <time>2021-03-20T15:56:03Z</time>
      </trkpt>
      <trkpt lat="57.66028" lon="-4.67586">
        <ele>135.72</ele>
        <time>2021-03-20T15:56:11Z</time>
      </trkpt>
      <trkpt lat="57.66028" lon="-4.67586">
        <ele>135.72</ele>
        <time>2021-03-20T15:56:11Z</time>
      </trkpt>
      <trkpt lat="57.66111" lon="-4.67541">
        <ele>137.01</ele>
        <time>2021-03-20T15:56:15Z</time>
      </trkpt>
      <trkpt lat="57.66169" lon="-4.67498">
        <ele>136.08</ele>
        <time>2021-03-20T15:56:20Z</time>
      </trkpt>
      <trkpt lat="57.66222" lon="-4.67448">
        <ele>137.87</ele>
        <time>2021-03-20T15:56:25Z</time>
      </trkpt>
      <trkpt lat="57.66269" lon="-4.67377">
        <ele>140</ele>
        <time>2021-03-20T15:56:30Z</time>
      </trkpt>
      <trkpt lat="57.66337" lon="-4.67232">
        <ele>141.54</ele>
        <time>2021-03-20T15:56:35Z</time>
      </trkpt>
      <trkpt lat="57.66393" lon="-4.67082">
        <ele>143.05</ele>
        <time>2021-03-20T15:56:40Z</time>
      </trkpt>
      <trkpt lat="57.66459" lon="-4.6694">
        <ele>144.19</ele>
        <time>2021-03-20T15:56:44Z</time>
      </trkpt>
      <trkpt lat="57.66529" lon="-4.66817">
        <ele>145.57</ele>
        <time>2021-03-20T15:56:49Z</time>
      </trkpt>
      <trkpt lat="57.66614" lon="-4.66683">
        <ele>144.33</ele>
        <time>2021-03-20T15:56:54Z</time>
      </trkpt>
      <trkpt lat="57.66689" lon="-4.66548">
        <ele>146.76</ele>
        <time>2021-03-20T15:56:59Z</time>
      </trkpt>
      <trkpt lat="57.66741" lon="-4.6647">
        <ele>146.07</ele>
        <time>2021-03-20T15:57:04Z</time>
      </trkpt>
      <trkpt lat="57.66767" lon="-4.66436">
        <ele>146.44</ele>
        <time>2021-03-20T15:57:09Z</time>
      </trkpt>
      <trkpt lat="57.66793" lon="-4.6641">
        <ele>146.82</ele>
        <time>2021-03-20T15:57:13Z</time>
      </trkpt>
      <trkpt lat="57.66859" lon="-4.66378">
        <ele>147.17</ele>
        <time>2021-03-20T15:57:18Z</time>
      </trkpt>
      <trkpt lat="57.66915" lon="-4.6637">
        <ele>148.1</ele>
        <time>2021-03-20T15:57:23Z</time>
      </trkpt>
      <trkpt lat="57.66967" lon="-4.66381">
        <ele>146.55</ele>
        <time>2021-03-20T15:57:28Z</time>
      </trkpt>
      <trkpt lat="57.67117" lon="-4.66427">
        <ele>146.83</ele>
        <time>2021-03-20T15:57:33Z</time>
      </trkpt>
      <trkpt lat="57.67173" lon="-4.66438">
        <ele>148.41</ele>
        <time>2021-03-20T15:57:38Z</time>
      </trkpt>
      <trkpt lat="57.67205" lon="-4.6644">
        <ele>149</ele>
        <time>2021-03-20T15:57:43Z</time>
      </trkpt>
      <trkpt lat="57.67215" lon="-4.66439">
        <ele>149</ele>
        <time>2021-03-20T15:57:47Z</time>
      </trkpt>
      <trkpt lat="57.67291" lon="-4.66417">
        <ele>149.01</ele>
        <time>2021-03-20T15:57:52Z</time>
      </trkpt>
      <trkpt lat="57.67349" lon="-4.66397">
        <ele>148.71</ele>
        <time>2021-03-20T15:57:57Z</time>
      </trkpt>
      <trkpt lat="57.67454" lon="-4.66378">
        <ele>151</ele>
        <time>2021-03-20T15:58:02Z</time>
      </trkpt>
      <trkpt lat="57.67535" lon="-4.66394">
        <ele>150.8</ele>
        <time>2021-03-20T15:58:07Z</time>
      </trkpt>
      <trkpt lat="57.67608" lon="-4.66446">
        <ele>149.84</ele>
        <time>2021-03-20T15:58:12Z</time>
      </trkpt>
      <trkpt lat="57.67705" lon="-4.66523">
        <ele>151.54</ele>
        <time>2021-03-20T15:58:16Z</time>
      </trkpt>
      <trkpt lat="57.67777" lon="-4.66589">
        <ele>152.75</ele>
        <time>2021-03-20T15:58:21Z</time>
      </trkpt>
      <trkpt lat="57.67832" lon="-4.66653">
        <ele>152.41</ele>
        <time>2021-03-20T15:58:26Z</time>
      </trkpt>
      <trkpt lat="57.67897" lon="-4.66749">
        <ele>153.87</ele>
        <time>2021-03-20T15:58:31Z</time>
      </trkpt>
      <trkpt lat="57.67948" lon="-4.66849">
        <ele>155.98</ele>
        <time>2021-03-20T15:58:36Z</time>
      </trkpt>
      <trkpt lat="57.6819" lon="-4.67387">
        <ele>157.6</ele>
        <time>2021-03-20T15:58:41Z</time>
      </trkpt>
      <trkpt lat="57.68205" lon="-4.67423">
        <ele>157.86</ele>
        <time>2021-03-20T15:58:45Z</time>
      </trkpt>
      <trkpt lat="57.68353" lon="-4.67754">
        <ele>159</ele>
        <time>2021-03-20T15:58:50Z</time>
      </trkpt>
      <trkpt lat="57.68431" lon="-4.67914">
        <ele>162.15</ele>
        <time>2021-03-20T15:58:55Z</time>
      </trkpt>
      <trkpt lat="57.68507" lon="-4.68058">
        <ele>164.53</ele>
        <time>2021-03-20T15:59:00Z</time>
      </trkpt>
      <trkpt lat="57.6853" lon="-4.68138">
        <ele>166.5</ele>
        <time>2021-03-20T15:59:05Z</time>
      </trkpt>
      <trkpt lat="57.68671" lon="-4.68773">
        <ele>169</ele>
        <time>2021-03-20T15:59:10Z</time>
      </trkpt>
      <trkpt lat="57.68682" lon="-4.68827">
        <ele>169.57</ele>
        <time>2021-03-20T15:59:14Z</time>
      </trkpt>
      <trkpt lat="57.68697" lon="-4.6891">
        <ele>170.1</ele>
        <time>2021-03-20T15:59:19Z</time>
      </trkpt>
      <trkpt lat="57.68712" lon="-4.69033">
        <ele>171.73</ele>
        <time>2021-03-20T15:59:24Z</time>
      </trkpt>
      <trkpt lat="57.68713" lon="-4.69168">
        <ele>175.01</ele>
        <time>2021-03-20T15:59:29Z</time>
      </trkpt>
      <trkpt lat="57.68706" lon="-4.69332">
        <ele>177.28</ele>
        <time>2021-03-20T15:59:34Z</time>
      </trkpt>
      <trkpt lat="57.68695" lon="-4.69505">
        <ele>179.09</ele>
        <time>2021-03-20T15:59:39Z</time>
      </trkpt>
      <trkpt lat="57.68693" lon="-4.69652">
        <ele>177.8</ele>
        <time>2021-03-20T15:59:44Z</time>
      </trkpt>
      <trkpt lat="57.68695" lon="-4.69834">
        <ele>180.01</ele>
        <time>2021-03-20T15:59:48Z</time>
      </trkpt>
      <trkpt lat="57.68709" lon="-4.69923">
        <ele>180.52</ele>
        <time>2021-03-20T15:59:53Z</time>
      </trkpt>
      <trkpt lat="57.68742" lon="-4.70052">
        <ele>181.3</ele>
        <time>2021-03-20T15:59:58Z</time>
      </trkpt>
      <trkpt lat="57.68786" lon="-4.70195">
        <ele>182</ele>
        <time>2021-03-20T16:00:03Z</time>
      </trkpt>
      <trkpt lat="57.6883" lon="-4.70301">
        <ele>182.98</ele>
        <time>2021-03-20T16:00:08Z</time>
      </trkpt>
      <trkpt lat="57.68896" lon="-4.70429">
        <ele>184.24</ele>
        <time>2021-03-20T16:00:13Z</time>
      </trkpt>
      <trkpt lat="57.68947" lon="-4.7052">
        <ele>185.12</ele>
        <time>2021-03-20T16:00:17Z</time>
      </trkpt>
      <trkpt lat="57.69012" lon="-4.70627">
        <ele>186.27</ele>
        <time>2021-03-20T16:00:22Z</time>
      </trkpt>
      <trkpt lat="57.69072" lon="-4.70713">
        <ele>187.82</ele>
        <time>2021-03-20T16:00:27Z</time>
      </trkpt>
      <trkpt lat="57.6914" lon="-4.70822">
        <ele>189.44</ele>
        <time>2021-03-20T16:00:32Z</time>
      </trkpt>
      <trkpt lat="57.69208" lon="-4.70965">
        <ele>190.08</ele>
        <time>2021-03-20T16:00:37Z</time>
      </trkpt>
      <trkpt lat="57.69304" lon="-4.71254">
        <ele>193.74</ele>
        <time>2021-03-20T16:00:42Z</time>
      </trkpt>
      <trkpt lat="57.69347" lon="-4.71391">
        <ele>194.32</ele>
        <time>2021-03-20T16:00:46Z</time>
      </trkpt>
      <trkpt lat="57.69402" lon="-4.71498">
        <ele>197.51</ele>
        <time>2021-03-20T16:00:51Z</time>
      </trkpt>
      <trkpt lat="57.69571" lon="-4.71786">
        <ele>197.53</ele>
        <time>2021-03-20T16:00:56Z</time>
      </trkpt>
      <trkpt lat="57.69632" lon="-4.71895">
        <ele>200.11</ele>
        <time>2021-03-20T16:01:01Z</time>
      </trkpt>
      <trkpt lat="57.69685" lon="-4.72016">
        <ele>201.71</ele>
        <time>2021-03-20T16:01:06Z</time>
      </trkpt>
      <trkpt lat="57.69722" lon="-4.72155">
        <ele>202</ele>
        <time>2021-03-20T16:01:11Z</time>
      </trkpt>
      <trkpt lat="57.69758" lon="-4.72315">
        <ele>202.29</ele>
        <time>2021-03-20T16:01:15Z</time>
      </trkpt>
      <trkpt lat="57.69778" lon="-4.72471">
        <ele>203.99</ele>
        <time>2021-03-20T16:01:20Z</time>
      </trkpt>
      <trkpt lat="57.69785" lon="-4.72613">
        <ele>205.76</ele>
        <time>2021-03-20T16:01:25Z</time>
      </trkpt>
      <trkpt lat="57.69784" lon="-4.72785">
        <ele>207.48</ele>
        <time>2021-03-20T16:01:30Z</time>
      </trkpt>
      <trkpt lat="57.69775" lon="-4.72918">
        <ele>207.83</ele>
        <time>2021-03-20T16:01:35Z</time>
      </trkpt>
      <trkpt lat="57.69756" lon="-4.7306">
        <ele>207.08</ele>
        <time>2021-03-20T16:01:40Z</time>
      </trkpt>
      <trkpt lat="57.69739" lon="-4.73158">
        <ele>206.41</ele>
        <time>2021-03-20T16:01:45Z</time>
      </trkpt>
      <trkpt lat="57.69704" lon="-4.73312">
        <ele>209.65</ele>
        <time>2021-03-20T16:01:49Z</time>
      </trkpt>
      <trkpt lat="57.69646" lon="-4.73525">
        <ele>212.84</ele>
        <time>2021-03-20T16:01:54Z</time>
      </trkpt>
      <trkpt lat="57.69604" lon="-4.73617">
        <ele>212.33</ele>
        <time>2021-03-20T16:01:59Z</time>
      </trkpt>
      <trkpt lat="57.69452" lon="-4.73817">
        <ele>211</ele>
        <time>2021-03-20T16:02:04Z</time>
      </trkpt>
      <trkpt lat="57.6938" lon="-4.73925">
        <ele>210.34</ele>
        <time>2021-03-20T16:02:09Z</time>
      </trkpt>
      <trkpt lat="57.69332" lon="-4.74018">
        <ele>210.43</ele>
        <time>2021-03-20T16:02:14Z</time>
      </trkpt>
      <trkpt lat="57.69302" lon="-4.74127">
        <ele>210.24</ele>
        <time>2021-03-20T16:02:18Z</time>
      </trkpt>
      <trkpt lat="57.69267" lon="-4.74349">
        <ele>212.38</ele>
        <time>2021-03-20T16:02:23Z</time>
      </trkpt>
      <trkpt lat="57.69259" lon="-4.74541">
        <ele>215.3</ele>
        <time>2021-03-20T16:02:28Z</time>
      </trkpt>
      <trkpt lat="57.69246" lon="-4.74652">
        <ele>216.8</ele>
        <time>2021-03-20T16:02:33Z</time>
      </trkpt>
      <trkpt lat="57.69223" lon="-4.74781">
        <ele>218.84</ele>
        <time>2021-03-20T16:02:38Z</time>
      </trkpt>
      <trkpt lat="57.69186" lon="-4.74953">
        <ele>220.41</ele>
        <time>2021-03-20T16:02:43Z</time>
      </trkpt>
      <trkpt lat="57.69163" lon="-4.75124">
        <ele>221.8</ele>
        <time>2021-03-20T16:02:47Z</time>
      </trkpt>
      <trkpt lat="57.69141" lon="-4.75458">
        <ele>226.35</ele>
        <time>2021-03-20T16:02:52Z</time>
      </trkpt>
      <trkpt lat="57.69143" lon="-4.75611">
        <ele>223.61</ele>
        <time>2021-03-20T16:02:57Z</time>
      </trkpt>
      <trkpt lat="57.69156" lon="-4.75744">
        <ele>224.56</ele>
        <time>2021-03-20T16:03:02Z</time>
      </trkpt>
      <trkpt lat="57.69174" lon="-4.75864">
        <ele>225.74</ele>
        <time>2021-03-20T16:03:07Z</time>
      </trkpt>
      <trkpt lat="57.69246" lon="-4.76292">
        <ele>227.24</ele>
        <time>2021-03-20T16:03:12Z</time>
      </trkpt>
      <trkpt lat="57.69303" lon="-4.76661">
        <ele>227.09</ele>
        <time>2021-03-20T16:03:16Z</time>
      </trkpt>
      <trkpt lat="57.69311" lon="-4.76729">
        <ele>228.04</ele>
        <time>2021-03-20T16:03:21Z</time>
      </trkpt>
      <trkpt lat="57.69314" lon="-4.76783">
        <ele>228.88</ele>
        <time>2021-03-20T16:03:26Z</time>
      </trkpt>
      <trkpt lat="57.69313" lon="-4.76847">
        <ele>229.73</ele>
        <time>2021-03-20T16:03:31Z</time>
      </trkpt>
      <trkpt lat="57.69308" lon="-4.76898">
        <ele>230.21</ele>
        <time>2021-03-20T16:03:36Z</time>
      </trkpt>
      <trkpt lat="57.69298" lon="-4.76952">
        <ele>231.81</ele>
        <time>2021-03-20T16:03:41Z</time>
      </trkpt>
      <trkpt lat="57.69264" lon="-4.77082">
        <ele>235.48</ele>
        <time>2021-03-20T16:03:46Z</time>
      </trkpt>
      <trkpt lat="57.69255" lon="-4.77137">
        <ele>235.81</ele>
        <time>2021-03-20T16:03:50Z</time>
      </trkpt>
      <trkpt lat="57.69249" lon="-4.77222">
        <ele>237.08</ele>
        <time>2021-03-20T16:03:55Z</time>
      </trkpt>
      <trkpt lat="57.69254" lon="-4.77308">
        <ele>240.79</ele>
        <time>2021-03-20T16:04:00Z</time>
      </trkpt>
      <trkpt lat="57.69273" lon="-4.77407">
        <ele>243.67</ele>
        <time>2021-03-20T16:04:05Z</time>
      </trkpt>
      <trkpt lat="57.69299" lon="-4.77492">
        <ele>244.87</ele>
        <time>2021-03-20T16:04:10Z</time>
      </trkpt>
      <trkpt lat="57.69314" lon="-4.77571">
        <ele>245.35</ele>
        <time>2021-03-20T16:04:15Z</time>
      </trkpt>
      <trkpt lat="57.69319" lon="-4.77647">
        <ele>247.82</ele>
        <time>2021-03-20T16:04:19Z</time>
      </trkpt>
      <trkpt lat="57.69317" lon="-4.77832">
        <ele>255.72</ele>
        <time>2021-03-20T16:04:24Z</time>
      </trkpt>
      <trkpt lat="57.69321" lon="-4.77881">
        <ele>256.69</ele>
        <time>2021-03-20T16:04:29Z</time>
      </trkpt>
      <trkpt lat="57.69332" lon="-4.77941">
        <ele>258.04</ele>
        <time>2021-03-20T16:04:34Z</time>
      </trkpt>
      <trkpt lat="57.69371" lon="-4.78077">
        <ele>258.95</ele>
        <time>2021-03-20T16:04:39Z</time>
      </trkpt>
      <trkpt lat="57.69389" lon="-4.78188">
        <ele>258.94</ele>
        <time>2021-03-20T16:04:44Z</time>
      </trkpt>
      <trkpt lat="57.6942" lon="-4.78307">
        <ele>260.89</ele>
        <time>2021-03-20T16:04:48Z</time>
      </trkpt>
      <trkpt lat="57.69453" lon="-4.78413">
        <ele>256.8</ele>
        <time>2021-03-20T16:04:53Z</time>
      </trkpt>
      <trkpt lat="57.69465" lon="-4.78474">
        <ele>256.37</ele>
        <time>2021-03-20T16:04:58Z</time>
      </trkpt>
      <trkpt lat="57.69472" lon="-4.78535">
        <ele>256.3</ele>
        <time>2021-03-20T16:05:03Z</time>
      </trkpt>
      <trkpt lat="57.69472" lon="-4.78654">
        <ele>259.03</ele>
        <time>2021-03-20T16:05:08Z</time>
      </trkpt>
      <trkpt lat="57.69478" lon="-4.78758">
        <ele>259.55</ele>
        <time>2021-03-20T16:05:13Z</time>
      </trkpt>
      <trkpt lat="57.69498" lon="-4.78853">
        <ele>262.21</ele>
        <time>2021-03-20T16:05:17Z</time>
      </trkpt>
      <trkpt lat="57.69519" lon="-4.7897">
        <ele>259.31</ele>
        <time>2021-03-20T16:05:22Z</time>
      </trkpt>
      <trkpt lat="57.6953" lon="-4.79107">
        <ele>256.61</ele>
        <time>2021-03-20T16:05:27Z</time>
      </trkpt>
      <trkpt lat="57.69563" lon="-4.79424">
        <ele>257.23</ele>
        <time>2021-03-20T16:05:32Z</time>
      </trkpt>
      <trkpt lat="57.69576" lon="-4.79501">
        <ele>256.83</ele>
        <time>2021-03-20T16:05:37Z</time>
      </trkpt>
      <trkpt lat="57.69594" lon="-4.79563">
        <ele>257.12</ele>
        <time>2021-03-20T16:05:42Z</time>
      </trkpt>
      <trkpt lat="57.69635" lon="-4.79691">
        <ele>258.23</ele>
        <time>2021-03-20T16:05:47Z</time>
      </trkpt>
      <trkpt lat="57.69688" lon="-4.79969">
        <ele>258.79</ele>
        <time>2021-03-20T16:05:51Z</time>
      </trkpt>
      <trkpt lat="57.69733" lon="-4.80122">
        <ele>261.23</ele>
        <time>2021-03-20T16:05:56Z</time>
      </trkpt>
      <trkpt lat="57.69804" lon="-4.80327">
        <ele>259.99</ele>
        <time>2021-03-20T16:06:01Z</time>
      </trkpt>
      <trkpt lat="57.69897" lon="-4.80678">
        <ele>263.34</ele>
        <time>2021-03-20T16:06:06Z</time>
      </trkpt>
      <trkpt lat="57.69963" lon="-4.80878">
        <ele>266.18</ele>
        <time>2021-03-20T16:06:11Z</time>
      </trkpt>
      <trkpt lat="57.70012" lon="-4.81072">
        <ele>267.15</ele>
        <time>2021-03-20T16:06:16Z</time>
      </trkpt>
      <trkpt lat="57.70038" lon="-4.81152">
        <ele>270.15</ele>
        <time>2021-03-20T16:06:20Z</time>
      </trkpt>
      <trkpt lat="57.70179" lon="-4.81557">
        <ele>261.48</ele>
        <time>2021-03-20T16:06:25Z</time>
      </trkpt>
      <trkpt lat="57.70218" lon="-4.81673">
        <ele>261.39</ele>
        <time>2021-03-20T16:06:30Z</time>
      </trkpt>
      <trkpt lat="57.70301" lon="-4.81931">
        <ele>257.33</ele>
        <time>2021-03-20T16:06:35Z</time>
      </trkpt>
      <trkpt lat="57.70356" lon="-4.82077">
        <ele>258.71</ele>
        <time>2021-03-20T16:06:40Z</time>
      </trkpt>
      <trkpt lat="57.70412" lon="-4.8226">
        <ele>257.84</ele>
        <time>2021-03-20T16:06:45Z</time>
      </trkpt>
      <trkpt lat="57.70483" lon="-4.82441">
        <ele>258.12</ele>
        <time>2021-03-20T16:06:49Z</time>
      </trkpt>
      <trkpt lat="57.70519" lon="-4.82561">
        <ele>259.24</ele>
        <time>2021-03-20T16:06:54Z</time>
      </trkpt>
      <trkpt lat="57.70561" lon="-4.82707">
        <ele>260.63</ele>
        <time>2021-03-20T16:06:59Z</time>
      </trkpt>
      <trkpt lat="57.70599" lon="-4.82823">
        <ele>259.54</ele>
        <time>2021-03-20T16:07:04Z</time>
      </trkpt>
      <trkpt lat="57.70631" lon="-4.82894">
        <ele>260.85</ele>
        <time>2021-03-20T16:07:09Z</time>
      </trkpt>
      <trkpt lat="57.70727" lon="-4.83046">
        <ele>258.33</ele>
        <time>2021-03-20T16:07:14Z</time>
      </trkpt>
      <trkpt lat="57.70772" lon="-4.83132">
        <ele>258.36</ele>
        <time>2021-03-20T16:07:18Z</time>
      </trkpt>
      <trkpt lat="57.70807" lon="-4.83227">
        <ele>257.29</ele>
        <time>2021-03-20T16:07:23Z</time>
      </trkpt>
      <trkpt lat="57.70854" lon="-4.83409">
        <ele>259.51</ele>
        <time>2021-03-20T16:07:28Z</time>
      </trkpt>
      <trkpt lat="57.70899" lon="-4.83553">
        <ele>260.23</ele>
        <time>2021-03-20T16:07:33Z</time>
      </trkpt>
      <trkpt lat="57.70952" lon="-4.8369">
        <ele>259.7</ele>
        <time>2021-03-20T16:07:38Z</time>
      </trkpt>
      <trkpt lat="57.71007" lon="-4.8381">
        <ele>258.76</ele>
        <time>2021-03-20T16:07:43Z</time>
      </trkpt>
      <trkpt lat="57.71063" lon="-4.83946">
        <ele>258.5</ele>
        <time>2021-03-20T16:07:48Z</time>
      </trkpt>
      <trkpt lat="57.71179" lon="-4.84246">
        <ele>258.53</ele>
        <time>2021-03-20T16:07:52Z</time>
      </trkpt>
      <trkpt lat="57.71217" lon="-4.84365">
        <ele>257.85</ele>
        <time>2021-03-20T16:07:57Z</time>
      </trkpt>
      <trkpt lat="57.71217" lon="-4.84365">
        <ele>257.85</ele>
        <time>2021-03-20T16:07:57Z</time>
      </trkpt>
      <trkpt lat="57.71234" lon="-4.84417">
        <ele>257.16</ele>
        <time>2021-03-20T16:08:03Z</time>
      </trkpt>
      <trkpt lat="57.71344" lon="-4.84841">
        <ele>257.49</ele>
        <time>2021-03-20T16:08:10Z</time>
      </trkpt>
      <trkpt lat="57.71374" lon="-4.84951">
        <ele>258.14</ele>
        <time>2021-03-20T16:08:16Z</time>
      </trkpt>
      <trkpt lat="57.71418" lon="-4.85086">
        <ele>256.95</ele>
        <time>2021-03-20T16:08:22Z</time>
      </trkpt>
      <trkpt lat="57.7147" lon="-4.85227">
        <ele>257.35</ele>
        <time>2021-03-20T16:08:28Z</time>
      </trkpt>
      <trkpt lat="57.7151" lon="-4.85323">
        <ele>257.52</ele>
        <time>2021-03-20T16:08:34Z</time>
      </trkpt>
      <trkpt lat="57.71617" lon="-4.85543">
        <ele>262.31</ele>
        <time>2021-03-20T16:08:40Z</time>
      </trkpt>
      <trkpt lat="57.71639" lon="-4.85611">
        <ele>263.96</ele>
        <time>2021-03-20T16:08:47Z</time>
      </trkpt>
      <trkpt lat="57.71658" lon="-4.85709">
        <ele>262.54</ele>
        <time>2021-03-20T16:08:53Z</time>
      </trkpt>
      <trkpt lat="57.71663" lon="-4.85808">
        <ele>263.73</ele>
        <time>2021-03-20T16:08:59Z</time>
      </trkpt>
      <trkpt lat="57.71651" lon="-4.85931">
        <ele>265.36</ele>
        <time>2021-03-20T16:09:05Z</time>
      </trkpt>
      <trkpt lat="57.71626" lon="-4.86145">
        <ele>262.26</ele>
        <time>2021-03-20T16:09:11Z</time>
      </trkpt>
      <trkpt lat="57.71614" lon="-4.86301">
        <ele>263.83</ele>
        <time>2021-03-20T16:09:17Z</time>
      </trkpt>
      <trkpt lat="57.71615" lon="-4.86424">
        <ele>264.96</ele>
        <time>2021-03-20T16:09:23Z</time>
      </trkpt>
      <trkpt lat="57.71628" lon="-4.86537">
        <ele>264</ele>
        <time>2021-03-20T16:09:30Z</time>
      </trkpt>
      <trkpt lat="57.7164" lon="-4.86595">
        <ele>263</ele>
        <time>2021-03-20T16:09:36Z</time>
      </trkpt>
      <trkpt lat="57.71669" lon="-4.86705">
        <ele>262</ele>
        <time>2021-03-20T16:09:42Z</time>
      </trkpt>
      <trkpt lat="57.71736" lon="-4.86892">
        <ele>262.14</ele>
        <time>2021-03-20T16:09:48Z</time>
      </trkpt>
      <trkpt lat="57.71841" lon="-4.87235">
        <ele>259.29</ele>
        <time>2021-03-20T16:09:54Z</time>
      </trkpt>
      <trkpt lat="57.71896" lon="-4.87404">
        <ele>255.96</ele>
        <time>2021-03-20T16:10:00Z</time>
      </trkpt>
      <trkpt lat="57.71952" lon="-4.87537">
        <ele>257.52</ele>
        <time>2021-03-20T16:10:06Z</time>
      </trkpt>
      <trkpt lat="57.72017" lon="-4.87666">
        <ele>257.77</ele>
        <time>2021-03-20T16:10:13Z</time>
      </trkpt>
      <trkpt lat="57.72121" lon="-4.87862">
        <ele>261</ele>
        <time>2021-03-20T16:10:19Z</time>
      </trkpt>
      <trkpt lat="57.72162" lon="-4.87956">
        <ele>260.42</ele>
        <time>2021-03-20T16:10:25Z</time>
      </trkpt>
      <trkpt lat="57.72194" lon="-4.88093">
        <ele>261</ele>
        <time>2021-03-20T16:10:31Z</time>
      </trkpt>
      <trkpt lat="57.7222" lon="-4.88274">
        <ele>261</ele>
        <time>2021-03-20T16:10:37Z</time>
      </trkpt>
      <trkpt lat="57.72278" lon="-4.88698">
        <ele>262.98</ele>
        <time>2021-03-20T16:10:43Z</time>
      </trkpt>
      <trkpt lat="57.72309" lon="-4.88883">
        <ele>262.78</ele>
        <time>2021-03-20T16:10:49Z</time>
      </trkpt>
      <trkpt lat="57.72347" lon="-4.89023">
        <ele>261.5</ele>
        <time>2021-03-20T16:10:56Z</time>
      </trkpt>
      <trkpt lat="57.72434" lon="-4.89227">
        <ele>263.5</ele>
        <time>2021-03-20T16:11:02Z</time>
      </trkpt>
      <trkpt lat="57.72502" lon="-4.89402">
        <ele>266.07</ele>
        <time>2021-03-20T16:11:08Z</time>
      </trkpt>
      <trkpt lat="57.72588" lon="-4.89647">
        <ele>273.17</ele>
        <time>2021-03-20T16:11:14Z</time>
      </trkpt>
      <trkpt lat="57.72657" lon="-4.89861">
        <ele>277.3</ele>
        <time>2021-03-20T16:11:20Z</time>
      </trkpt>
      <trkpt lat="57.72712" lon="-4.90085">
        <ele>278.23</ele>
        <time>2021-03-20T16:11:26Z</time>
      </trkpt>
      <trkpt lat="57.72762" lon="-4.90305">
        <ele>278.92</ele>
        <time>2021-03-20T16:11:32Z</time>
      </trkpt>
      <trkpt lat="57.72808" lon="-4.90476">
        <ele>280.04</ele>
        <time>2021-03-20T16:11:39Z</time>
      </trkpt>
      <trkpt lat="57.72922" lon="-4.90829">
        <ele>278.66</ele>
        <time>2021-03-20T16:11:45Z</time>
      </trkpt>
      <trkpt lat="57.72959" lon="-4.90927">
        <ele>277.87</ele>
        <time>2021-03-20T16:11:51Z</time>
      </trkpt>
      <trkpt lat="57.73032" lon="-4.91053">
        <ele>277.83</ele>
        <time>2021-03-20T16:11:57Z</time>
      </trkpt>
      <trkpt lat="57.73072" lon="-4.91129">
        <ele>277.72</ele>
        <time>2021-03-20T16:12:03Z</time>
      </trkpt>
      <trkpt lat="57.73203" lon="-4.9144">
        <ele>278.46</ele>
        <time>2021-03-20T16:12:09Z</time>
      </trkpt>
      <trkpt lat="57.73257" lon="-4.91594">
        <ele>278.19</ele>
        <time>2021-03-20T16:12:16Z</time>
      </trkpt>
      <trkpt lat="57.73298" lon="-4.91749">
        <ele>275.49</ele>
        <time>2021-03-20T16:12:22Z</time>
      </trkpt>
      <trkpt lat="57.73376" lon="-4.92144">
        <ele>273.44</ele>
        <time>2021-03-20T16:12:28Z</time>
      </trkpt>
      <trkpt lat="57.73421" lon="-4.92413">
        <ele>271.17</ele>
        <time>2021-03-20T16:12:34Z</time>
      </trkpt>
      <trkpt lat="57.73536" lon="-4.9313">
        <ele>275.3</ele>
        <time>2021-03-20T16:12:40Z</time>
      </trkpt>
      <trkpt lat="57.73548" lon="-4.93229">
        <ele>276.74</ele>
        <time>2021-03-20T16:12:46Z</time>
      </trkpt>
      <trkpt lat="57.73554" lon="-4.93357">
        <ele>276.07</ele>
        <time>2021-03-20T16:12:52Z</time>
      </trkpt>
      <trkpt lat="57.73555" lon="-4.93478">
        <ele>278.14</ele>
        <time>2021-03-20T16:12:59Z</time>
      </trkpt>
      <trkpt lat="57.73552" lon="-4.93635">
        <ele>275.77</ele>
        <time>2021-03-20T16:13:05Z</time>
      </trkpt>
      <trkpt lat="57.73547" lon="-4.93798">
        <ele>276.12</ele>
        <time>2021-03-20T16:13:11Z</time>
      </trkpt>
      <trkpt lat="57.7356" lon="-4.93981">
        <ele>276.44</ele>
        <time>2021-03-20T16:13:17Z</time>
      </trkpt>
      <trkpt lat="57.73583" lon="-4.94153">
        <ele>277.97</ele>
        <time>2021-03-20T16:13:23Z</time>
      </trkpt>
      <trkpt lat="57.73604" lon="-4.94375">
        <ele>277.26</ele>
        <time>2021-03-20T16:13:29Z</time>
      </trkpt>
      <trkpt lat="57.73711" lon="-4.95346">
        <ele>271.73</ele>
        <time>2021-03-20T16:13:35Z</time>
      </trkpt>
      <trkpt lat="57.73775" lon="-4.95964">
        <ele>267.2</ele>
        <time>2021-03-20T16:13:42Z</time>
      </trkpt>
      <trkpt lat="57.73805" lon="-4.96306">
        <ele>260.99</ele>
        <time>2021-03-20T16:13:48Z</time>
      </trkpt>
      <trkpt lat="57.73835" lon="-4.96453">
        <ele>261.16</ele>
        <time>2021-03-20T16:13:54Z</time>
      </trkpt>
      <trkpt lat="57.73933" lon="-4.96873">
        <ele>258.16</ele>
        <time>2021-03-20T16:14:00Z</time>
      </trkpt>
      <trkpt lat="57.7399" lon="-4.97097">
        <ele>257.3</ele>
        <time>2021-03-20T16:14:06Z</time>
      </trkpt>
      <trkpt lat="57.74043" lon="-4.97236">
        <ele>255.51</ele>
        <time>2021-03-20T16:14:12Z</time>
      </trkpt>
      <trkpt lat="57.74108" lon="-4.97371">
        <ele>252.54</ele>
        <time>2021-03-20T16:14:18Z</time>
      </trkpt>
      <trkpt lat="57.74265" lon="-4.97595">
        <ele>248</ele>
        <time>2021-03-20T16:14:25Z</time>
      </trkpt>
      <trkpt lat="57.74345" lon="-4.97686">
        <ele>247.84</ele>
        <time>2021-03-20T16:14:31Z</time>
      </trkpt>
      <trkpt lat="57.7454" lon="-4.9793">
        <ele>238.72</ele>
        <time>2021-03-20T16:14:37Z</time>
      </trkpt>
      <trkpt lat="57.7459" lon="-4.98007">
        <ele>235.28</ele>
        <time>2021-03-20T16:14:43Z</time>
      </trkpt>
      <trkpt lat="57.74641" lon="-4.98101">
        <ele>235.52</ele>
        <time>2021-03-20T16:14:49Z</time>
      </trkpt>
      <trkpt lat="57.747" lon="-4.98247">
        <ele>235.85</ele>
        <time>2021-03-20T16:14:55Z</time>
      </trkpt>
      <trkpt lat="57.7476" lon="-4.9841">
        <ele>232.03</ele>
        <time>2021-03-20T16:15:01Z</time>
      </trkpt>
      <trkpt lat="57.74843" lon="-4.98644">
        <ele>224.19</ele>
        <time>2021-03-20T16:15:08Z</time>
      </trkpt>
      <trkpt lat="57.74907" lon="-4.98839">
        <ele>220.29</ele>
        <time>2021-03-20T16:15:14Z</time>
      </trkpt>
      <trkpt lat="57.74962" lon="-4.99066">
        <ele>214.77</ele>
        <time>2021-03-20T16:15:20Z</time>
      </trkpt>
      <trkpt lat="57.75006" lon="-4.99327">
        <ele>214.23</ele>
        <time>2021-03-20T16:15:26Z</time>
      </trkpt>
      <trkpt lat="57.75058" lon="-4.99612">
        <ele>212.05</ele>
        <time>2021-03-20T16:15:32Z</time>
      </trkpt>
      <trkpt lat="57.75098" lon="-4.99877">
        <ele>207</ele>
        <time>2021-03-20T16:15:38Z</time>
      </trkpt>
      <trkpt lat="57.75191" lon="-5.0042">
        <ele>196.49</ele>
        <time>2021-03-20T16:15:45Z</time>
      </trkpt>
      <trkpt lat="57.75233" lon="-5.00759">
        <ele>190.74</ele>
        <time>2021-03-20T16:15:51Z</time>
      </trkpt>
      <trkpt lat="57.75262" lon="-5.00968">
        <ele>187.77</ele>
        <time>2021-03-20T16:15:57Z</time>
      </trkpt>
      <trkpt lat="57.75278" lon="-5.01077">
        <ele>185.31</ele>
        <time>2021-03-20T16:16:03Z</time>
      </trkpt>
      <trkpt lat="57.75307" lon="-5.01248">
        <ele>185.52</ele>
        <time>2021-03-20T16:16:09Z</time>
      </trkpt>
      <trkpt lat="57.75385" lon="-5.0148">
        <ele>172.94</ele>
        <time>2021-03-20T16:16:15Z</time>
      </trkpt>
      <trkpt lat="57.75487" lon="-5.01747">
        <ele>172.38</ele>
        <time>2021-03-20T16:16:21Z</time>
      </trkpt>
      <trkpt lat="57.75593" lon="-5.01994">
        <ele>171.2</ele>
        <time>2021-03-20T16:16:28Z</time>
      </trkpt>
      <trkpt lat="57.75712" lon="-5.02245">
        <ele>153.83</ele>
        <time>2021-03-20T16:16:34Z</time>
      </trkpt>
      <trkpt lat="57.7575" lon="-5.02316">
        <ele>151.41</ele>
        <time>2021-03-20T16:16:40Z</time>
      </trkpt>
      <trkpt lat="57.75808" lon="-5.02407">
        <ele>151.2</ele>
        <time>2021-03-20T16:16:46Z</time>
      </trkpt>
      <trkpt lat="57.75842" lon="-5.02444">
        <ele>150.46</ele>
        <time>2021-03-20T16:16:52Z</time>
      </trkpt>
      <trkpt lat="57.75897" lon="-5.02495">
        <ele>145.2</ele>
        <time>2021-03-20T16:16:58Z</time>
      </trkpt>
      <trkpt lat="57.75939" lon="-5.02554">
        <ele>137.81</ele>
        <time>2021-03-20T16:17:04Z</time>
      </trkpt>
      <trkpt lat="57.76019" lon="-5.02749">
        <ele>128.46</ele>
        <time>2021-03-20T16:17:11Z</time>
      </trkpt>
      <trkpt lat="57.76072" lon="-5.02868">
        <ele>125.06</ele>
        <time>2021-03-20T16:17:17Z</time>
      </trkpt>
      <trkpt lat="57.76132" lon="-5.02971">
        <ele>117.9</ele>
        <time>2021-03-20T16:17:23Z</time>
      </trkpt>
      <trkpt lat="57.76219" lon="-5.03071">
        <ele>106.39</ele>
        <time>2021-03-20T16:17:29Z</time>
      </trkpt>
      <trkpt lat="57.76252" lon="-5.03125">
        <ele>107.06</ele>
        <time>2021-03-20T16:17:35Z</time>
      </trkpt>
      <trkpt lat="57.76353" lon="-5.03273">
        <ele>102.34</ele>
        <time>2021-03-20T16:17:41Z</time>
      </trkpt>
      <trkpt lat="57.7644" lon="-5.03384">
        <ele>93.03</ele>
        <time>2021-03-20T16:17:47Z</time>
      </trkpt>
      <trkpt lat="57.76516" lon="-5.0347">
        <ele>84.34</ele>
        <time>2021-03-20T16:17:54Z</time>
      </trkpt>
      <trkpt lat="57.76565" lon="-5.03513">
        <ele>78.55</ele>
        <time>2021-03-20T16:18:00Z</time>
      </trkpt>
      <trkpt lat="57.76614" lon="-5.03538">
        <ele>75.78</ele>
        <time>2021-03-20T16:18:06Z</time>
      </trkpt>
      <trkpt lat="57.76723" lon="-5.03577">
        <ele>69.98</ele>
        <time>2021-03-20T16:18:12Z</time>
      </trkpt>
      <trkpt lat="57.76901" lon="-5.03655">
        <ele>61.3</ele>
        <time>2021-03-20T16:18:18Z</time>
      </trkpt>
      <trkpt lat="57.77113" lon="-5.03643">
        <ele>59.54</ele>
        <time>2021-03-20T16:18:24Z</time>
      </trkpt>
      <trkpt lat="57.77399" lon="-5.0362">
        <ele>48.01</ele>
        <time>2021-03-20T16:18:30Z</time>
      </trkpt>
      <trkpt lat="57.77623" lon="-5.03582">
        <ele>45.72</ele>
        <time>2021-03-20T16:18:37Z</time>
      </trkpt>
      <trkpt lat="57.77784" lon="-5.03583">
        <ele>47.46</ele>
        <time>2021-03-20T16:18:43Z</time>
      </trkpt>
      <trkpt lat="57.77863" lon="-5.0361">
        <ele>35.34</ele>
        <time>2021-03-20T16:18:49Z</time>
      </trkpt>
      <trkpt lat="57.77983" lon="-5.03642">
        <ele>40.08</ele>
        <time>2021-03-20T16:18:55Z</time>
      </trkpt>
      <trkpt lat="57.78115" lon="-5.03685">
        <ele>40.39</ele>
        <time>2021-03-20T16:19:01Z</time>
      </trkpt>
      <trkpt lat="57.78198" lon="-5.03714">
        <ele>40.89</ele>
        <time>2021-03-20T16:19:07Z</time>
      </trkpt>
      <trkpt lat="57.78282" lon="-5.03752">
        <ele>44.44</ele>
        <time>2021-03-20T16:19:14Z</time>
      </trkpt>
      <trkpt lat="57.78382" lon="-5.03827">
        <ele>38.52</ele>
        <time>2021-03-20T16:19:20Z</time>
      </trkpt>
      <trkpt lat="57.78454" lon="-5.03895">
        <ele>39.31</ele>
        <time>2021-03-20T16:19:26Z</time>
      </trkpt>
      <trkpt lat="57.78525" lon="-5.0395">
        <ele>42.13</ele>
        <time>2021-03-20T16:19:32Z</time>
      </trkpt>
      <trkpt lat="57.78655" lon="-5.04044">
        <ele>47.36</ele>
        <time>2021-03-20T16:19:38Z</time>
      </trkpt>
      <trkpt lat="57.78913" lon="-5.04251">
        <ele>42.28</ele>
        <time>2021-03-20T16:19:44Z</time>
      </trkpt>
      <trkpt lat="57.7904" lon="-5.04339">
        <ele>40.81</ele>
        <time>2021-03-20T16:19:50Z</time>
      </trkpt>
      <trkpt lat="57.79134" lon="-5.0442">
        <ele>35.29</ele>
        <time>2021-03-20T16:19:57Z</time>
      </trkpt>
      <trkpt lat="57.79198" lon="-5.04497">
        <ele>32.79</ele>
        <time>2021-03-20T16:20:03Z</time>
      </trkpt>
      <trkpt lat="57.79252" lon="-5.04579">
        <ele>31.7</ele>
        <time>2021-03-20T16:20:09Z</time>
      </trkpt>
      <trkpt lat="57.79302" lon="-5.0469">
        <ele>26.65</ele>
        <time>2021-03-20T16:20:15Z</time>
      </trkpt>
      <trkpt lat="57.79361" lon="-5.04845">
        <ele>26.57</ele>
        <time>2021-03-20T16:20:21Z</time>
      </trkpt>
      <trkpt lat="57.79495" lon="-5.05007">
        <ele>24.61</ele>
        <time>2021-03-20T16:20:27Z</time>
      </trkpt>
      <trkpt lat="57.79595" lon="-5.05114">
        <ele>24.85</ele>
        <time>2021-03-20T16:20:33Z</time>
      </trkpt>
      <trkpt lat="57.79746" lon="-5.05256">
        <ele>18.82</ele>
        <time>2021-03-20T16:20:40Z</time>
      </trkpt>
      <trkpt lat="57.79965" lon="-5.05453">
        <ele>17</ele>
        <time>2021-03-20T16:20:46Z</time>
      </trkpt>
      <trkpt lat="57.80072" lon="-5.0554">
        <ele>19.35</ele>
        <time>2021-03-20T16:20:52Z</time>
      </trkpt>
      <trkpt lat="57.80146" lon="-5.05576">
        <ele>18.76</ele>
        <time>2021-03-20T16:20:58Z</time>
      </trkpt>
      <trkpt lat="57.80211" lon="-5.05602">
        <ele>17.89</ele>
        <time>2021-03-20T16:21:04Z</time>
      </trkpt>
      <trkpt lat="57.80278" lon="-5.05625">
        <ele>17</ele>
        <time>2021-03-20T16:21:10Z</time>
      </trkpt>
      <trkpt lat="57.80344" lon="-5.05633">
        <ele>16.44</ele>
        <time>2021-03-20T16:21:16Z</time>
      </trkpt>
      <trkpt lat="57.80479" lon="-5.05591">
        <ele>17.32</ele>
        <time>2021-03-20T16:21:23Z</time>
      </trkpt>
      <trkpt lat="57.8057" lon="-5.05602">
        <ele>21.93</ele>
        <time>2021-03-20T16:21:29Z</time>
      </trkpt>
      <trkpt lat="57.80725" lon="-5.05656">
        <ele>20.9</ele>
        <time>2021-03-20T16:21:35Z</time>
      </trkpt>
      <trkpt lat="57.80821" lon="-5.05682">
        <ele>26.2</ele>
        <time>2021-03-20T16:21:41Z</time>
      </trkpt>
      <trkpt lat="57.80999" lon="-5.0574">
        <ele>16.07</ele>
        <time>2021-03-20T16:21:47Z</time>
      </trkpt>
      <trkpt lat="57.81129" lon="-5.05778">
        <ele>14.35</ele>
        <time>2021-03-20T16:21:53Z</time>
      </trkpt>
      <trkpt lat="57.81215" lon="-5.05808">
        <ele>17.83</ele>
        <time>2021-03-20T16:21:59Z</time>
      </trkpt>
      <trkpt lat="57.81304" lon="-5.0586">
        <ele>12.15</ele>
        <time>2021-03-20T16:22:06Z</time>
      </trkpt>
      <trkpt lat="57.81351" lon="-5.05895">
        <ele>11.01</ele>
        <time>2021-03-20T16:22:12Z</time>
      </trkpt>
      <trkpt lat="57.8141" lon="-5.05921">
        <ele>9.52</ele>
        <time>2021-03-20T16:22:18Z</time>
      </trkpt>
      <trkpt lat="57.81462" lon="-5.05922">
        <ele>8.22</ele>
        <time>2021-03-20T16:22:24Z</time>
      </trkpt>
      <trkpt lat="57.81593" lon="-5.05899">
        <ele>9.77</ele>
        <time>2021-03-20T16:22:30Z</time>
      </trkpt>
      <trkpt lat="57.81662" lon="-5.05926">
        <ele>9.18</ele>
        <time>2021-03-20T16:22:36Z</time>
      </trkpt>
      <trkpt lat="57.81715" lon="-5.05985">
        <ele>7</ele>
        <time>2021-03-20T16:22:43Z</time>
      </trkpt>
      <trkpt lat="57.81856" lon="-5.06195">
        <ele>12.74</ele>
        <time>2021-03-20T16:22:49Z</time>
      </trkpt>
      <trkpt lat="57.81891" lon="-5.06226">
        <ele>11.85</ele>
        <time>2021-03-20T16:22:55Z</time>
      </trkpt>
      <trkpt lat="57.81935" lon="-5.06253">
        <ele>11</ele>
        <time>2021-03-20T16:23:01Z</time>
      </trkpt>
      <trkpt lat="57.81972" lon="-5.06266">
        <ele>11</ele>
        <time>2021-03-20T16:23:07Z</time>
      </trkpt>
      <trkpt lat="57.82331" lon="-5.06359">
        <ele>10.17</ele>
        <time>2021-03-20T16:23:13Z</time>
      </trkpt>
      <trkpt lat="57.82518" lon="-5.06437">
        <ele>7</ele>
        <time>2021-03-20T16:23:19Z</time>
      </trkpt>
      <trkpt lat="57.82606" lon="-5.06467">
        <ele>9.01</ele>
        <time>2021-03-20T16:23:26Z</time>
      </trkpt>
      <trkpt lat="57.82787" lon="-5.06545">
        <ele>11.9</ele>
        <time>2021-03-20T16:23:32Z</time>
      </trkpt>
      <trkpt lat="57.82865" lon="-5.06591">
        <ele>20.87</ele>
        <time>2021-03-20T16:23:38Z</time>
      </trkpt>
      <trkpt lat="57.82961" lon="-5.0666">
        <ele>27.12</ele>
        <time>2021-03-20T16:23:44Z</time>
      </trkpt>
      <trkpt lat="57.83052" lon="-5.06747">
        <ele>28.83</ele>
        <time>2021-03-20T16:23:50Z</time>
      </trkpt>
      <trkpt lat="57.8311" lon="-5.06817">
        <ele>22.77</ele>
        <time>2021-03-20T16:23:56Z</time>
      </trkpt>
      <trkpt lat="57.83179" lon="-5.06887">
        <ele>24.16</ele>
        <time>2021-03-20T16:24:02Z</time>
      </trkpt>
      <trkpt lat="57.83252" lon="-5.06967">
        <ele>21.27</ele>
        <time>2021-03-20T16:24:09Z</time>
      </trkpt>
      <trkpt lat="57.83334" lon="-5.07047">
        <ele>18.59</ele>
        <time>2021-03-20T16:24:15Z</time>
      </trkpt>
      <trkpt lat="57.83383" lon="-5.07092">
        <ele>16.91</ele>
        <time>2021-03-20T16:24:21Z</time>
      </trkpt>
      <trkpt lat="57.83424" lon="-5.07123">
        <ele>15.82</ele>
        <time>2021-03-20T16:24:27Z</time>
      </trkpt>
      <trkpt lat="57.83794" lon="-5.07359">
        <ele>19.78</ele>
        <time>2021-03-20T16:24:33Z</time>
      </trkpt>
      <trkpt lat="57.83884" lon="-5.07407">
        <ele>21.4</ele>
        <time>2021-03-20T16:24:39Z</time>
      </trkpt>
      <trkpt lat="57.83975" lon="-5.07476">
        <ele>20.96</ele>
        <time>2021-03-20T16:24:45Z</time>
      </trkpt>
      <trkpt lat="57.84146" lon="-5.07592">
        <ele>23.67</ele>
        <time>2021-03-20T16:24:52Z</time>
      </trkpt>
      <trkpt lat="57.84234" lon="-5.07649">
        <ele>24.2</ele>
        <time>2021-03-20T16:24:58Z</time>
      </trkpt>
      <trkpt lat="57.84292" lon="-5.07673">
        <ele>26.34</ele>
        <time>2021-03-20T16:25:04Z</time>
      </trkpt>
      <trkpt lat="57.84334" lon="-5.07682">
        <ele>26.2</ele>
        <time>2021-03-20T16:25:10Z</time>
      </trkpt>
      <trkpt lat="57.84464" lon="-5.07699">
        <ele>26.25</ele>
        <time>2021-03-20T16:25:16Z</time>
      </trkpt>
      <trkpt lat="57.84528" lon="-5.07716">
        <ele>25.46</ele>
        <time>2021-03-20T16:25:22Z</time>
      </trkpt>
      <trkpt lat="57.8467" lon="-5.07732">
        <ele>23.37</ele>
        <time>2021-03-20T16:25:28Z</time>
      </trkpt>
      <trkpt lat="57.84741" lon="-5.07745">
        <ele>25.01</ele>
        <time>2021-03-20T16:25:35Z</time>
      </trkpt>
      <trkpt lat="57.84793" lon="-5.07758">
        <ele>28.03</ele>
        <time>2021-03-20T16:25:41Z</time>
      </trkpt>
      <trkpt lat="57.84898" lon="-5.07802">
        <ele>29.07</ele>
        <time>2021-03-20T16:25:47Z</time>
      </trkpt>
      <trkpt lat="57.85031" lon="-5.07873">
        <ele>29.9</ele>
        <time>2021-03-20T16:25:53Z</time>
      </trkpt>
      <trkpt lat="57.85101" lon="-5.07918">
        <ele>31.26</ele>
        <time>2021-03-20T16:25:59Z</time>
      </trkpt>
      <trkpt lat="57.8519" lon="-5.08012">
        <ele>35.52</ele>
        <time>2021-03-20T16:26:05Z</time>
      </trkpt>
      <trkpt lat="57.8525" lon="-5.08082">
        <ele>37.41</ele>
        <time>2021-03-20T16:26:12Z</time>
      </trkpt>
      <trkpt lat="57.85317" lon="-5.08153">
        <ele>38.69</ele>
        <time>2021-03-20T16:26:18Z</time>
      </trkpt>
      <trkpt lat="57.85436" lon="-5.08314">
        <ele>50.26</ele>
        <time>2021-03-20T16:26:24Z</time>
      </trkpt>
      <trkpt lat="57.85538" lon="-5.08466">
        <ele>63.09</ele>
        <time>2021-03-20T16:26:30Z</time>
      </trkpt>
      <trkpt lat="57.85576" lon="-5.08531">
        <ele>63.58</ele>
        <time>2021-03-20T16:26:36Z</time>
      </trkpt>
      <trkpt lat="57.85627" lon="-5.08662">
        <ele>52.45</ele>
        <time>2021-03-20T16:26:42Z</time>
      </trkpt>
      <trkpt lat="57.8566" lon="-5.087">
        <ele>54.24</ele>
        <time>2021-03-20T16:26:48Z</time>
      </trkpt>
      <trkpt lat="57.85689" lon="-5.08716">
        <ele>58.31</ele>
        <time>2021-03-20T16:26:55Z</time>
      </trkpt>
      <trkpt lat="57.85753" lon="-5.08724">
        <ele>57.64</ele>
        <time>2021-03-20T16:27:01Z</time>
      </trkpt>
      <trkpt lat="57.85802" lon="-5.08725">
        <ele>58.29</ele>
        <time>2021-03-20T16:27:07Z</time>
      </trkpt>
      <trkpt lat="57.85932" lon="-5.08711">
        <ele>43.6</ele>
        <time>2021-03-20T16:27:13Z</time>
      </trkpt>
      <trkpt lat="57.8601" lon="-5.08693">
        <ele>37.19</ele>
        <time>2021-03-20T16:27:19Z</time>
      </trkpt>
      <trkpt lat="57.86092" lon="-5.08701">
        <ele>37.89</ele>
        <time>2021-03-20T16:27:25Z</time>
      </trkpt>
      <trkpt lat="57.86142" lon="-5.08726">
        <ele>37.77</ele>
        <time>2021-03-20T16:27:31Z</time>
      </trkpt>
      <trkpt lat="57.86323" lon="-5.089">
        <ele>30.18</ele>
        <time>2021-03-20T16:27:38Z</time>
      </trkpt>
      <trkpt lat="57.86419" lon="-5.09012">
        <ele>29.35</ele>
        <time>2021-03-20T16:27:44Z</time>
      </trkpt>
      <trkpt lat="57.86555" lon="-5.09196">
        <ele>27.87</ele>
        <time>2021-03-20T16:27:50Z</time>
      </trkpt>
      <trkpt lat="57.86728" lon="-5.09473">
        <ele>19.36</ele>
        <time>2021-03-20T16:27:56Z</time>
      </trkpt>
      <trkpt lat="57.86781" lon="-5.09532">
        <ele>18.98</ele>
        <time>2021-03-20T16:28:02Z</time>
      </trkpt>
      <trkpt lat="57.86825" lon="-5.09551">
        <ele>21.32</ele>
        <time>2021-03-20T16:28:08Z</time>
      </trkpt>
      <trkpt lat="57.86915" lon="-5.09564">
        <ele>29.48</ele>
        <time>2021-03-20T16:28:14Z</time>
      </trkpt>
      <trkpt lat="57.87012" lon="-5.09587">
        <ele>38.62</ele>
        <time>2021-03-20T16:28:21Z</time>
      </trkpt>
      <trkpt lat="57.87075" lon="-5.09647">
        <ele>45.19</ele>
        <time>2021-03-20T16:28:27Z</time>
      </trkpt>
      <trkpt lat="57.87106" lon="-5.09689">
        <ele>45.79</ele>
        <time>2021-03-20T16:28:33Z</time>
      </trkpt>
      <trkpt lat="57.8713" lon="-5.09732">
        <ele>45.58</ele>
        <time>2021-03-20T16:28:39Z</time>
      </trkpt>
      <trkpt lat="57.87225" lon="-5.09951">
        <ele>42.4</ele>
        <time>2021-03-20T16:28:45Z</time>
      </trkpt>
      <trkpt lat="57.87324" lon="-5.10187">
        <ele>42.88</ele>
        <time>2021-03-20T16:28:51Z</time>
      </trkpt>
      <trkpt lat="57.87443" lon="-5.10534">
        <ele>37.61</ele>
        <time>2021-03-20T16:28:57Z</time>
      </trkpt>
      <trkpt lat="57.8752" lon="-5.10764">
        <ele>32.69</ele>
        <time>2021-03-20T16:29:04Z</time>
      </trkpt>
      <trkpt lat="57.87587" lon="-5.1096">
        <ele>26.72</ele>
        <time>2021-03-20T16:29:10Z</time>
      </trkpt>
      <trkpt lat="57.87721" lon="-5.1138">
        <ele>25.68</ele>
        <time>2021-03-20T16:29:16Z</time>
      </trkpt>
      <trkpt lat="57.87858" lon="-5.11767">
        <ele>27.98</ele>
        <time>2021-03-20T16:29:22Z</time>
      </trkpt>
      <trkpt lat="57.87924" lon="-5.11947">
        <ele>28.69</ele>
        <time>2021-03-20T16:29:28Z</time>
      </trkpt>
      <trkpt lat="57.8802" lon="-5.12215">
        <ele>38.31</ele>
        <time>2021-03-20T16:29:34Z</time>
      </trkpt>
      <trkpt lat="57.8807" lon="-5.12336">
        <ele>42.78</ele>
        <time>2021-03-20T16:29:41Z</time>
      </trkpt>
      <trkpt lat="57.88166" lon="-5.12493">
        <ele>46.64</ele>
        <time>2021-03-20T16:29:47Z</time>
      </trkpt>
      <trkpt lat="57.88201" lon="-5.12544">
        <ele>46.16</ele>
        <time>2021-03-20T16:29:53Z</time>
      </trkpt>
      <trkpt lat="57.88232" lon="-5.12603">
        <ele>45.82</ele>
        <time>2021-03-20T16:29:59Z</time>
      </trkpt>
      <trkpt lat="57.88322" lon="-5.1278">
        <ele>43.47</ele>
        <time>2021-03-20T16:30:05Z</time>
      </trkpt>
      <trkpt lat="57.88429" lon="-5.12934">
        <ele>37.64</ele>
        <time>2021-03-20T16:30:11Z</time>
      </trkpt>
      <trkpt lat="57.88485" lon="-5.12997">
        <ele>39.87</ele>
        <time>2021-03-20T16:30:17Z</time>
      </trkpt>
      <trkpt lat="57.88535" lon="-5.13074">
        <ele>41.44</ele>
        <time>2021-03-20T16:30:24Z</time>
      </trkpt>
      <trkpt lat="57.88565" lon="-5.13149">
        <ele>38.3</ele>
        <time>2021-03-20T16:30:30Z</time>
      </trkpt>
      <trkpt lat="57.88619" lon="-5.13338">
        <ele>31.22</ele>
        <time>2021-03-20T16:30:36Z</time>
      </trkpt>
      <trkpt lat="57.88661" lon="-5.13424">
        <ele>28.67</ele>
        <time>2021-03-20T16:30:42Z</time>
      </trkpt>
      <trkpt lat="57.88722" lon="-5.13495">
        <ele>29.51</ele>
        <time>2021-03-20T16:30:48Z</time>
      </trkpt>
      <trkpt lat="57.88784" lon="-5.13536">
        <ele>31.31</ele>
        <time>2021-03-20T16:30:54Z</time>
      </trkpt>
      <trkpt lat="57.88814" lon="-5.1356">
        <ele>30.97</ele>
        <time>2021-03-20T16:31:00Z</time>
      </trkpt>
      <trkpt lat="57.88835" lon="-5.13582">
        <ele>32.55</ele>
        <time>2021-03-20T16:31:07Z</time>
      </trkpt>
      <trkpt lat="57.88858" lon="-5.13625">
        <ele>32.86</ele>
        <time>2021-03-20T16:31:13Z</time>
      </trkpt>
      <trkpt lat="57.88888" lon="-5.13696">
        <ele>31.56</ele>
        <time>2021-03-20T16:31:19Z</time>
      </trkpt>
      <trkpt lat="57.88928" lon="-5.13785">
        <ele>30.96</ele>
        <time>2021-03-20T16:31:25Z</time>
      </trkpt>
      <trkpt lat="57.88965" lon="-5.13836">
        <ele>34.28</ele>
        <time>2021-03-20T16:31:31Z</time>
      </trkpt>
      <trkpt lat="57.88997" lon="-5.13861">
        <ele>38.15</ele>
        <time>2021-03-20T16:31:37Z</time>
      </trkpt>
      <trkpt lat="57.89049" lon="-5.13916">
        <ele>40.72</ele>
        <time>2021-03-20T16:31:43Z</time>
      </trkpt>
      <trkpt lat="57.89062" lon="-5.13932">
        <ele>39.57</ele>
        <time>2021-03-20T16:31:50Z</time>
      </trkpt>
      <trkpt lat="57.8909" lon="-5.13978">
        <ele>38.91</ele>
        <time>2021-03-20T16:31:56Z</time>
      </trkpt>
      <trkpt lat="57.89125" lon="-5.14059">
        <ele>37.65</ele>
        <time>2021-03-20T16:32:02Z</time>
      </trkpt>
      <trkpt lat="57.89166" lon="-5.14129">
        <ele>39.43</ele>
        <time>2021-03-20T16:32:08Z</time>
      </trkpt>
      <trkpt lat="57.89192" lon="-5.14167">
        <ele>39.26</ele>
        <time>2021-03-20T16:32:14Z</time>
      </trkpt>
      <trkpt lat="57.8923" lon="-5.14197">
        <ele>37.22</ele>
        <time>2021-03-20T16:32:20Z</time>
      </trkpt>
      <trkpt lat="57.89371" lon="-5.14269">
        <ele>41.4</ele>
        <time>2021-03-20T16:32:26Z</time>
      </trkpt>
      <trkpt lat="57.89426" lon="-5.14328">
        <ele>35.79</ele>
        <time>2021-03-20T16:32:33Z</time>
      </trkpt>
      <trkpt lat="57.89463" lon="-5.14385">
        <ele>36.44</ele>
        <time>2021-03-20T16:32:39Z</time>
      </trkpt>
      <trkpt lat="57.89495" lon="-5.14454">
        <ele>34.1</ele>
        <time>2021-03-20T16:32:45Z</time>
      </trkpt>
      <trkpt lat="57.89503" lon="-5.14476">
        <ele>32.47</ele>
        <time>2021-03-20T16:32:51Z</time>
      </trkpt>
      <trkpt lat="57.89518" lon="-5.14531">
        <ele>29.63</ele>
        <time>2021-03-20T16:32:57Z</time>
      </trkpt>
      <trkpt lat="57.896" lon="-5.14922">
        <ele>20.05</ele>
        <time>2021-03-20T16:33:03Z</time>
      </trkpt>
      <trkpt lat="57.89617" lon="-5.14978">
        <ele>17.73</ele>
        <time>2021-03-20T16:33:10Z</time>
      </trkpt>
      <trkpt lat="57.89657" lon="-5.1506">
        <ele>14.84</ele>
        <time>2021-03-20T16:33:16Z</time>
      </trkpt>
      <trkpt lat="57.89671" lon="-5.15104">
        <ele>12.11</ele>
        <time>2021-03-20T16:33:22Z</time>
      </trkpt>
      <trkpt lat="57.89681" lon="-5.15149">
        <ele>11.81</ele>
        <time>2021-03-20T16:33:28Z</time>
      </trkpt>
      <trkpt lat="57.89683" lon="-5.15185">
        <ele>11.09</ele>
        <time>2021-03-20T16:33:34Z</time>
      </trkpt>
      <trkpt lat="57.89684" lon="-5.1523">
        <ele>10.59</ele>
        <time>2021-03-20T16:33:40Z</time>
      </trkpt>
      <trkpt lat="57.89664" lon="-5.15478">
        <ele>8.77</ele>
        <time>2021-03-20T16:33:47Z</time>
      </trkpt>
      <trkpt lat="57.89668" lon="-5.15491">
        <ele>9.12</ele>
        <time>2021-03-20T16:33:51Z</time>
      </trkpt>
      <trkpt lat="57.8968" lon="-5.15503">
        <ele>10.59</ele>
        <time>2021-03-20T16:33:55Z</time>
      </trkpt>
      <trkpt lat="57.89754" lon="-5.15559">
        <ele>14.14</ele>
        <time>2021-03-20T16:33:59Z</time>
      </trkpt>
      <trkpt lat="57.89879" lon="-5.15668">
        <ele>16.37</ele>
        <time>2021-03-20T16:34:03Z</time>
      </trkpt>
      <trkpt lat="57.89938" lon="-5.15712">
        <ele>16.76</ele>
        <time>2021-03-20T16:34:08Z</time>
      </trkpt>
      <trkpt lat="57.8998" lon="-5.1572">
        <ele>18.27</ele>
        <time>2021-03-20T16:34:12Z</time>
      </trkpt>
      <trkpt lat="57.90073" lon="-5.15724">
        <ele>20</ele>
        <time>2021-03-20T16:34:16Z</time>
      </trkpt>
      <trkpt lat="57.90138" lon="-5.15738">
        <ele>21.42</ele>
        <time>2021-03-20T16:34:20Z</time>
      </trkpt>
      <trkpt lat="57.90171" lon="-5.15755">
        <ele>21.23</ele>
        <time>2021-03-20T16:34:25Z</time>
      </trkpt>
      <trkpt lat="57.90272" lon="-5.15832">
        <ele>25.89</ele>
        <time>2021-03-20T16:34:29Z</time>
      </trkpt>
      <trkpt lat="57.90297" lon="-5.15844">
        <ele>25.63</ele>
        <time>2021-03-20T16:34:33Z</time>
      </trkpt>
      <trkpt lat="57.90359" lon="-5.15853">
        <ele>27.44</ele>
        <time>2021-03-20T16:34:37Z</time>
      </trkpt>
      <trkpt lat="57.90395" lon="-5.15868">
        <ele>26.77</ele>
        <time>2021-03-20T16:34:42Z</time>
      </trkpt>
      <trkpt lat="57.90416" lon="-5.15886">
        <ele>26.12</ele>
        <time>2021-03-20T16:34:46Z</time>
      </trkpt>
      <trkpt lat="57.90447" lon="-5.1593">
        <ele>25.55</ele>
        <time>2021-03-20T16:34:50Z</time>
      </trkpt>
      <trkpt lat="57.90461" lon="-5.1596">
        <ele>24.22</ele>
        <time>2021-03-20T16:34:54Z</time>
      </trkpt>
      <trkpt lat="57.90478" lon="-5.16009">
        <ele>23.45</ele>
        <time>2021-03-20T16:34:58Z</time>
      </trkpt>
      <trkpt lat="57.90613" lon="-5.16507">
        <ele>23.07</ele>
        <time>2021-03-20T16:35:03Z</time>
      </trkpt>
      <trkpt lat="57.90673" lon="-5.16724">
        <ele>27.33</ele>
        <time>2021-03-20T16:35:07Z</time>
      </trkpt>
      <trkpt lat="57.90712" lon="-5.16858">
        <ele>30.27</ele>
        <time>2021-03-20T16:35:11Z</time>
      </trkpt>
      <trkpt lat="57.90749" lon="-5.16977">
        <ele>34.67</ele>
        <time>2021-03-20T16:35:15Z</time>
      </trkpt>
      <trkpt lat="57.90755" lon="-5.17001">
        <ele>35.08</ele>
        <time>2021-03-20T16:35:20Z</time>
      </trkpt>
      <trkpt lat="57.9076" lon="-5.17041">
        <ele>36.47</ele>
        <time>2021-03-20T16:35:24Z</time>
      </trkpt>
      <trkpt lat="57.90761" lon="-5.17074">
        <ele>37.04</ele>
        <time>2021-03-20T16:35:28Z</time>
      </trkpt>
      <trkpt lat="57.9076" lon="-5.17193">
        <ele>37.38</ele>
        <time>2021-03-20T16:35:32Z</time>
      </trkpt>
      <trkpt lat="57.90764" lon="-5.17258">
        <ele>39.4</ele>
        <time>2021-03-20T16:35:36Z</time>
      </trkpt>
      <trkpt lat="57.90775" lon="-5.17363">
        <ele>41.32</ele>
        <time>2021-03-20T16:35:41Z</time>
      </trkpt>
      <trkpt lat="57.90782" lon="-5.1741">
        <ele>42.23</ele>
        <time>2021-03-20T16:35:45Z</time>
      </trkpt>
      <trkpt lat="57.90797" lon="-5.17477">
        <ele>42.1</ele>
        <time>2021-03-20T16:35:49Z</time>
      </trkpt>
      <trkpt lat="57.90806" lon="-5.1751">
        <ele>41.65</ele>
        <time>2021-03-20T16:35:53Z</time>
      </trkpt>
      <trkpt lat="57.90816" lon="-5.17539">
        <ele>42.08</ele>
        <time>2021-03-20T16:35:58Z</time>
      </trkpt>
      <trkpt lat="57.90863" lon="-5.17639">
        <ele>41.51</ele>
        <time>2021-03-20T16:36:02Z</time>
      </trkpt>
      <trkpt lat="57.91087" lon="-5.1806">
        <ele>61.59</ele>
        <time>2021-03-20T16:36:06Z</time>
      </trkpt>
      <trkpt lat="57.91266" lon="-5.18343">
        <ele>81.35</ele>
        <time>2021-03-20T16:36:10Z</time>
      </trkpt>
      <trkpt lat="57.91322" lon="-5.18425">
        <ele>86.64</ele>
        <time>2021-03-20T16:36:14Z</time>
      </trkpt>
      <trkpt lat="57.91334" lon="-5.18439">
        <ele>88.25</ele>
        <time>2021-03-20T16:36:19Z</time>
      </trkpt>
      <trkpt lat="57.91349" lon="-5.18452">
        <ele>89.99</ele>
        <time>2021-03-20T16:36:23Z</time>
      </trkpt>
      <trkpt lat="57.91373" lon="-5.18464">
        <ele>91.61</ele>
        <time>2021-03-20T16:36:27Z</time>
      </trkpt>
      <trkpt lat="57.91397" lon="-5.18465">
        <ele>91.71</ele>
        <time>2021-03-20T16:36:31Z</time>
      </trkpt>
      <trkpt lat="57.91412" lon="-5.18462">
        <ele>91.16</ele>
        <time>2021-03-20T16:36:36Z</time>
      </trkpt>
      <trkpt lat="57.91456" lon="-5.18444">
        <ele>90.6</ele>
        <time>2021-03-20T16:36:40Z</time>
      </trkpt>
      <trkpt lat="57.91478" lon="-5.18438">
        <ele>90.18</ele>
        <time>2021-03-20T16:36:44Z</time>
      </trkpt>
      <trkpt lat="57.91495" lon="-5.18439">
        <ele>90.04</ele>
        <time>2021-03-20T16:36:48Z</time>
      </trkpt>
      <trkpt lat="57.91513" lon="-5.18443">
        <ele>89.04</ele>
        <time>2021-03-20T16:36:53Z</time>
      </trkpt>
      <trkpt lat="57.91539" lon="-5.18463">
        <ele>86.2</ele>
        <time>2021-03-20T16:36:57Z</time>
      </trkpt>
      <trkpt lat="57.91552" lon="-5.18483">
        <ele>84.54</ele>
        <time>2021-03-20T16:37:01Z</time>
      </trkpt>
      <trkpt lat="57.91564" lon="-5.18506">
        <ele>82.18</ele>
        <time>2021-03-20T16:37:05Z</time>
      </trkpt>
      <trkpt lat="57.91595" lon="-5.18589">
        <ele>77.87</ele>
        <time>2021-03-20T16:37:09Z</time>
      </trkpt>
      <trkpt lat="57.91637" lon="-5.18707">
        <ele>71.14</ele>
        <time>2021-03-20T16:37:14Z</time>
      </trkpt>
      <trkpt lat="57.91771" lon="-5.19162">
        <ele>42.44</ele>
        <time>2021-03-20T16:37:18Z</time>
      </trkpt>
      <trkpt lat="57.91791" lon="-5.19215">
        <ele>40.08</ele>
        <time>2021-03-20T16:37:22Z</time>
      </trkpt>
      <trkpt lat="57.91802" lon="-5.19237">
        <ele>39.35</ele>
        <time>2021-03-20T16:37:26Z</time>
      </trkpt>
      <trkpt lat="57.91821" lon="-5.19266">
        <ele>38.05</ele>
        <time>2021-03-20T16:37:31Z</time>
      </trkpt>
      <trkpt lat="57.91836" lon="-5.1928">
        <ele>35.76</ele>
        <time>2021-03-20T16:37:35Z</time>
      </trkpt>
      <trkpt lat="57.91846" lon="-5.19286">
        <ele>34.58</ele>
        <time>2021-03-20T16:37:39Z</time>
      </trkpt>
      <trkpt lat="57.9187" lon="-5.1929">
        <ele>31.67</ele>
        <time>2021-03-20T16:37:43Z</time>
      </trkpt>
      <trkpt lat="57.91886" lon="-5.19287">
        <ele>30.22</ele>
        <time>2021-03-20T16:37:47Z</time>
      </trkpt>
      <trkpt lat="57.91907" lon="-5.19275">
        <ele>30</ele>
        <time>2021-03-20T16:37:52Z</time>
      </trkpt>
      <trkpt lat="57.91935" lon="-5.19248">
        <ele>28.67</ele>
        <time>2021-03-20T16:37:56Z</time>
      </trkpt>
      <trkpt lat="57.92018" lon="-5.19131">
        <ele>33.74</ele>
        <time>2021-03-20T16:38:00Z</time>
      </trkpt>
      <trkpt lat="57.92048" lon="-5.19097">
        <ele>34.71</ele>
        <time>2021-03-20T16:38:04Z</time>
      </trkpt>
      <trkpt lat="57.92068" lon="-5.19082">
        <ele>34.95</ele>
        <time>2021-03-20T16:38:09Z</time>
      </trkpt>
      <trkpt lat="57.92085" lon="-5.19072">
        <ele>34.66</ele>
        <time>2021-03-20T16:38:13Z</time>
      </trkpt>
      <trkpt lat="57.92102" lon="-5.19069">
        <ele>35.15</ele>
        <time>2021-03-20T16:38:17Z</time>
      </trkpt>
      <trkpt lat="57.92175" lon="-5.19068">
        <ele>40.28</ele>
        <time>2021-03-20T16:38:21Z</time>
      </trkpt>
      <trkpt lat="57.92227" lon="-5.19073">
        <ele>44.94</ele>
        <time>2021-03-20T16:38:25Z</time>
      </trkpt>
      <trkpt lat="57.92249" lon="-5.19082">
        <ele>46.79</ele>
        <time>2021-03-20T16:38:30Z</time>
      </trkpt>
      <trkpt lat="57.92277" lon="-5.19102">
        <ele>48.95</ele>
        <time>2021-03-20T16:38:34Z</time>
      </trkpt>
      <trkpt lat="57.92291" lon="-5.19117">
        <ele>50.03</ele>
        <time>2021-03-20T16:38:38Z</time>
      </trkpt>
      <trkpt lat="57.92444" lon="-5.1932">
        <ele>56.98</ele>
        <time>2021-03-20T16:38:42Z</time>
      </trkpt>
      <trkpt lat="57.92472" lon="-5.19352">
        <ele>57.67</ele>
        <time>2021-03-20T16:38:47Z</time>
      </trkpt>
      <trkpt lat="57.92496" lon="-5.19368">
        <ele>58.04</ele>
        <time>2021-03-20T16:38:51Z</time>
      </trkpt>
      <trkpt lat="57.92515" lon="-5.19378">
        <ele>57.47</ele>
        <time>2021-03-20T16:38:55Z</time>
      </trkpt>
      <trkpt lat="57.92712" lon="-5.1945">
        <ele>42.17</ele>
        <time>2021-03-20T16:38:59Z</time>
      </trkpt>
      <trkpt lat="57.92727" lon="-5.19462">
        <ele>39.92</ele>
        <time>2021-03-20T16:39:04Z</time>
      </trkpt>
      <trkpt lat="57.92742" lon="-5.19481">
        <ele>37.53</ele>
        <time>2021-03-20T16:39:08Z</time>
      </trkpt>
      <trkpt lat="57.92755" lon="-5.19505">
        <ele>35.97</ele>
        <time>2021-03-20T16:39:12Z</time>
      </trkpt>
      <trkpt lat="57.92823" lon="-5.19677">
        <ele>28.7</ele>
        <time>2021-03-20T16:39:16Z</time>
      </trkpt>
      <trkpt lat="57.92844" lon="-5.19721">
        <ele>24.91</ele>
        <time>2021-03-20T16:39:20Z</time>
      </trkpt>
      <trkpt lat="57.92856" lon="-5.1974">
        <ele>22.93</ele>
        <time>2021-03-20T16:39:25Z</time>
      </trkpt>
      <trkpt lat="57.92872" lon="-5.19758">
        <ele>20.56</ele>
        <time>2021-03-20T16:39:29Z</time>
      </trkpt>
      <trkpt lat="57.92889" lon="-5.19767">
        <ele>18.37</ele>
        <time>2021-03-20T16:39:33Z</time>
      </trkpt>
      <trkpt lat="57.92902" lon="-5.19772">
        <ele>16.45</ele>
        <time>2021-03-20T16:39:37Z</time>
      </trkpt>
      <trkpt lat="57.92914" lon="-5.19771">
        <ele>14.91</ele>
        <time>2021-03-20T16:39:42Z</time>
      </trkpt>
      <trkpt lat="57.92939" lon="-5.1976">
        <ele>11.21</ele>
        <time>2021-03-20T16:39:46Z</time>
      </trkpt>
      <trkpt lat="57.93" lon="-5.19707">
        <ele>7.66</ele>
        <time>2021-03-20T16:39:50Z</time>
      </trkpt>
      <trkpt lat="57.93033" lon="-5.19682">
        <ele>6.93</ele>
        <time>2021-03-20T16:39:54Z</time>
      </trkpt>
      <trkpt lat="57.93089" lon="-5.19652">
        <ele>6.18</ele>
        <time>2021-03-20T16:39:58Z</time>
      </trkpt>
      <trkpt lat="57.93125" lon="-5.19637">
        <ele>6.6</ele>
        <time>2021-03-20T16:40:03Z</time>
      </trkpt>
      <trkpt lat="57.93203" lon="-5.19623">
        <ele>5.58</ele>
        <time>2021-03-20T16:40:07Z</time>
      </trkpt>
      <trkpt lat="57.93252" lon="-5.19621">
        <ele>4.65</ele>
        <time>2021-03-20T16:40:11Z</time>
      </trkpt>
      <trkpt lat="57.93271" lon="-5.19622">
        <ele>4.61</ele>
        <time>2021-03-20T16:40:15Z</time>
      </trkpt>
      <trkpt lat="57.93326" lon="-5.19639">
        <ele>4.01</ele>
        <time>2021-03-20T16:40:20Z</time>
      </trkpt>
      <trkpt lat="57.93346" lon="-5.19641">
        <ele>4</ele>
        <time>2021-03-20T16:40:24Z</time>
      </trkpt>
      <trkpt lat="57.93369" lon="-5.19637">
        <ele>4.34</ele>
        <time>2021-03-20T16:40:28Z</time>
      </trkpt>
      <trkpt lat="57.93384" lon="-5.19629">
        <ele>4.89</ele>
        <time>2021-03-20T16:40:32Z</time>
      </trkpt>
      <trkpt lat="57.93393" lon="-5.19618">
        <ele>5</ele>
        <time>2021-03-20T16:40:36Z</time>
      </trkpt>
      <trkpt lat="57.93403" lon="-5.19603">
        <ele>5</ele>
        <time>2021-03-20T16:40:41Z</time>
      </trkpt>
      <trkpt lat="57.93414" lon="-5.19577">
        <ele>5</ele>
        <time>2021-03-20T16:40:45Z</time>
      </trkpt>
      <trkpt lat="57.93424" lon="-5.19546">
        <ele>5</ele>
        <time>2021-03-20T16:40:49Z</time>
      </trkpt>
      <trkpt lat="57.93496" lon="-5.19273">
        <ele>6.28</ele>
        <time>2021-03-20T16:40:53Z</time>
      </trkpt>
      <trkpt lat="57.9351" lon="-5.19211">
        <ele>6.32</ele>
        <time>2021-03-20T16:40:58Z</time>
      </trkpt>
      <trkpt lat="57.93584" lon="-5.18926">
        <ele>21.69</ele>
        <time>2021-03-20T16:41:02Z</time>
      </trkpt>
      <trkpt lat="57.93606" lon="-5.18868">
        <ele>20.62</ele>
        <time>2021-03-20T16:41:06Z</time>
      </trkpt>
      <trkpt lat="57.93615" lon="-5.18827">
        <ele>16.26</ele>
        <time>2021-03-20T16:41:10Z</time>
      </trkpt>
      <trkpt lat="57.93627" lon="-5.1875">
        <ele>19.78</ele>
        <time>2021-03-20T16:41:15Z</time>
      </trkpt>
      <trkpt lat="57.93641" lon="-5.18679">
        <ele>21.83</ele>
        <time>2021-03-20T16:41:19Z</time>
      </trkpt>
      <trkpt lat="57.93671" lon="-5.18577">
        <ele>25.17</ele>
        <time>2021-03-20T16:41:23Z</time>
      </trkpt>
      <trkpt lat="57.93699" lon="-5.185">
        <ele>22.38</ele>
        <time>2021-03-20T16:41:27Z</time>
      </trkpt>
      <trkpt lat="57.93719" lon="-5.18466">
        <ele>19.83</ele>
        <time>2021-03-20T16:41:31Z</time>
      </trkpt>
      <trkpt lat="57.93746" lon="-5.18441">
        <ele>18.05</ele>
        <time>2021-03-20T16:41:36Z</time>
      </trkpt>
      <trkpt lat="57.93784" lon="-5.18422">
        <ele>18.66</ele>
        <time>2021-03-20T16:41:40Z</time>
      </trkpt>
      <trkpt lat="57.93819" lon="-5.18408">
        <ele>22.05</ele>
        <time>2021-03-20T16:41:44Z</time>
      </trkpt>
      <trkpt lat="57.93855" lon="-5.18365">
        <ele>31.16</ele>
        <time>2021-03-20T16:41:48Z</time>
      </trkpt>
      <trkpt lat="57.93945" lon="-5.18116">
        <ele>46.79</ele>
        <time>2021-03-20T16:41:53Z</time>
      </trkpt>
      <trkpt lat="57.93981" lon="-5.18008">
        <ele>46.35</ele>
        <time>2021-03-20T16:41:57Z</time>
      </trkpt>
      <trkpt lat="57.93994" lon="-5.17947">
        <ele>45.01</ele>
        <time>2021-03-20T16:42:01Z</time>
      </trkpt>
      <trkpt lat="57.9401" lon="-5.17838">
        <ele>41.62</ele>
        <time>2021-03-20T16:42:05Z</time>
      </trkpt>
      <trkpt lat="57.94023" lon="-5.17774">
        <ele>39.88</ele>
        <time>2021-03-20T16:42:09Z</time>
      </trkpt>
      <trkpt lat="57.9404" lon="-5.17716">
        <ele>38.47</ele>
        <time>2021-03-20T16:42:14Z</time>
      </trkpt>
      <trkpt lat="57.94075" lon="-5.17537">
        <ele>32.79</ele>
        <time>2021-03-20T16:42:18Z</time>
      </trkpt>
      <trkpt lat="57.94098" lon="-5.17377">
        <ele>27.78</ele>
        <time>2021-03-20T16:42:22Z</time>
      </trkpt>
      <trkpt lat="57.94114" lon="-5.17291">
        <ele>26.24</ele>
        <time>2021-03-20T16:42:26Z</time>
      </trkpt>
      <trkpt lat="57.94134" lon="-5.17209">
        <ele>23.18</ele>
        <time>2021-03-20T16:42:31Z</time>
      </trkpt>
      <trkpt lat="57.94159" lon="-5.17122">
        <ele>17.91</ele>
        <time>2021-03-20T16:42:35Z</time>
      </trkpt>
      <trkpt lat="57.94171" lon="-5.17072">
        <ele>16.67</ele>
        <time>2021-03-20T16:42:39Z</time>
      </trkpt>
      <trkpt lat="57.94194" lon="-5.17018">
        <ele>15.45</ele>
        <time>2021-03-20T16:42:43Z</time>
      </trkpt>
      <trkpt lat="57.94269" lon="-5.16873">
        <ele>15.69</ele>
        <time>2021-03-20T16:42:47Z</time>
      </trkpt>
      <trkpt lat="57.94373" lon="-5.16742">
        <ele>16.87</ele>
        <time>2021-03-20T16:42:52Z</time>
      </trkpt>
      <trkpt lat="57.9442" lon="-5.16678">
        <ele>18.08</ele>
        <time>2021-03-20T16:42:56Z</time>
      </trkpt>
      <trkpt lat="57.94453" lon="-5.16627">
        <ele>19.48</ele>
        <time>2021-03-20T16:43:00Z</time>
      </trkpt>
      <trkpt lat="57.94485" lon="-5.16557">
        <ele>21.44</ele>
        <time>2021-03-20T16:43:04Z</time>
      </trkpt>
      <trkpt lat="57.94567" lon="-5.16316">
        <ele>24.23</ele>
        <time>2021-03-20T16:43:09Z</time>
      </trkpt>
      <trkpt lat="57.94745" lon="-5.15782">
        <ele>26.9</ele>
        <time>2021-03-20T16:43:13Z</time>
      </trkpt>
      <trkpt lat="57.94867" lon="-5.15348">
        <ele>37.76</ele>
        <time>2021-03-20T16:43:17Z</time>
      </trkpt>
      <trkpt lat="57.94942" lon="-5.15055">
        <ele>50.28</ele>
        <time>2021-03-20T16:43:21Z</time>
      </trkpt>
      <trkpt lat="57.94968" lon="-5.14977">
        <ele>49.58</ele>
        <time>2021-03-20T16:43:26Z</time>
      </trkpt>
      <trkpt lat="57.95065" lon="-5.1473">
        <ele>45.58</ele>
        <time>2021-03-20T16:43:30Z</time>
      </trkpt>
      <trkpt lat="57.95191" lon="-5.14391">
        <ele>62.85</ele>
        <time>2021-03-20T16:43:34Z</time>
      </trkpt>
      <trkpt lat="57.95454" lon="-5.13948">
        <ele>52.44</ele>
        <time>2021-03-20T16:43:38Z</time>
      </trkpt>
      <trkpt lat="57.95695" lon="-5.13498">
        <ele>53</ele>
        <time>2021-03-20T16:43:42Z</time>
      </trkpt>
      <trkpt lat="57.9573" lon="-5.13456">
        <ele>52.14</ele>
        <time>2021-03-20T16:43:47Z</time>
      </trkpt>
      <trkpt lat="57.9576" lon="-5.13436">
        <ele>49.24</ele>
        <time>2021-03-20T16:43:51Z</time>
      </trkpt>
      <trkpt lat="57.95812" lon="-5.13424">
        <ele>40.23</ele>
        <time>2021-03-20T16:43:55Z</time>
      </trkpt>
      <trkpt lat="57.95868" lon="-5.13424">
        <ele>32.76</ele>
        <time>2021-03-20T16:43:59Z</time>
      </trkpt>
      <trkpt lat="57.95915" lon="-5.13439">
        <ele>28.76</ele>
        <time>2021-03-20T16:44:04Z</time>
      </trkpt>
      <trkpt lat="57.95956" lon="-5.1346">
        <ele>23.95</ele>
        <time>2021-03-20T16:44:08Z</time>
      </trkpt>
      <trkpt lat="57.96164" lon="-5.13583">
        <ele>13.01</ele>
        <time>2021-03-20T16:44:12Z</time>
      </trkpt>
      <trkpt lat="57.96208" lon="-5.13595">
        <ele>12</ele>
        <time>2021-03-20T16:44:16Z</time>
      </trkpt>
      <trkpt lat="57.96242" lon="-5.13597">
        <ele>12.72</ele>
        <time>2021-03-20T16:44:20Z</time>
      </trkpt>
      <trkpt lat="57.96277" lon="-5.13584">
        <ele>15.89</ele>
        <time>2021-03-20T16:44:25Z</time>
      </trkpt>
      <trkpt lat="57.96298" lon="-5.13569">
        <ele>17.69</ele>
        <time>2021-03-20T16:44:29Z</time>
      </trkpt>
      <trkpt lat="57.96333" lon="-5.13537">
        <ele>21.33</ele>
        <time>2021-03-20T16:44:33Z</time>
      </trkpt>
      <trkpt lat="57.96392" lon="-5.13468">
        <ele>26.01</ele>
        <time>2021-03-20T16:44:37Z</time>
      </trkpt>
      <trkpt lat="57.96465" lon="-5.13376">
        <ele>26.69</ele>
        <time>2021-03-20T16:44:42Z</time>
      </trkpt>
      <trkpt lat="57.96565" lon="-5.13254">
        <ele>38.5</ele>
        <time>2021-03-20T16:44:46Z</time>
      </trkpt>
      <trkpt lat="57.96701" lon="-5.13079">
        <ele>56.17</ele>
        <time>2021-03-20T16:44:50Z</time>
      </trkpt>
      <trkpt lat="57.96808" lon="-5.12915">
        <ele>68.44</ele>
        <time>2021-03-20T16:44:54Z</time>
      </trkpt>
      <trkpt lat="57.97077" lon="-5.12584">
        <ele>85.6</ele>
        <time>2021-03-20T16:44:58Z</time>
      </trkpt>
      <trkpt lat="57.97157" lon="-5.12495">
        <ele>89.3</ele>
        <time>2021-03-20T16:45:03Z</time>
      </trkpt>
      <trkpt lat="57.97253" lon="-5.12419">
        <ele>95.17</ele>
        <time>2021-03-20T16:45:07Z</time>
      </trkpt>
      <trkpt lat="57.97392" lon="-5.12325">
        <ele>98.33</ele>
        <time>2021-03-20T16:45:11Z</time>
      </trkpt>
      <trkpt lat="57.97392" lon="-5.12325">
        <ele>98.33</ele>
        <time>2021-03-20T16:45:11Z</time>
      </trkpt>
      <trkpt lat="57.97459" lon="-5.1228">
        <ele>101.48</ele>
        <time>2021-03-20T16:45:17Z</time>
      </trkpt>
      <trkpt lat="57.9752" lon="-5.12229">
        <ele>103.72</ele>
        <time>2021-03-20T16:45:23Z</time>
      </trkpt>
      <trkpt lat="57.9766" lon="-5.12097">
        <ele>104.86</ele>
        <time>2021-03-20T16:45:29Z</time>
      </trkpt>
      <trkpt lat="57.97782" lon="-5.11989">
        <ele>98.17</ele>
        <time>2021-03-20T16:45:35Z</time>
      </trkpt>
      <trkpt lat="57.97845" lon="-5.11943">
        <ele>99.61</ele>
        <time>2021-03-20T16:45:40Z</time>
      </trkpt>
      <trkpt lat="57.97911" lon="-5.11908">
        <ele>101.69</ele>
        <time>2021-03-20T16:45:46Z</time>
      </trkpt>
      <trkpt lat="57.97956" lon="-5.11895">
        <ele>105.38</ele>
        <time>2021-03-20T16:45:52Z</time>
      </trkpt>
      <trkpt lat="57.98021" lon="-5.11894">
        <ele>109.15</ele>
        <time>2021-03-20T16:45:58Z</time>
      </trkpt>
      <trkpt lat="57.98121" lon="-5.11914">
        <ele>115.66</ele>
        <time>2021-03-20T16:46:04Z</time>
      </trkpt>
      <trkpt lat="57.98163" lon="-5.11916">
        <ele>117.89</ele>
        <time>2021-03-20T16:46:10Z</time>
      </trkpt>
      <trkpt lat="57.98195" lon="-5.11905">
        <ele>118.25</ele>
        <time>2021-03-20T16:46:15Z</time>
      </trkpt>
      <trkpt lat="57.98225" lon="-5.11889">
        <ele>119</ele>
        <time>2021-03-20T16:46:21Z</time>
      </trkpt>
      <trkpt lat="57.98701" lon="-5.11501">
        <ele>129.18</ele>
        <time>2021-03-20T16:46:27Z</time>
      </trkpt>
      <trkpt lat="57.98817" lon="-5.1141">
        <ele>124.89</ele>
        <time>2021-03-20T16:46:33Z</time>
      </trkpt>
      <trkpt lat="57.98969" lon="-5.11321">
        <ele>125.01</ele>
        <time>2021-03-20T16:46:39Z</time>
      </trkpt>
      <trkpt lat="57.9903" lon="-5.11268">
        <ele>126.07</ele>
        <time>2021-03-20T16:46:45Z</time>
      </trkpt>
      <trkpt lat="57.99085" lon="-5.11205">
        <ele>124.65</ele>
        <time>2021-03-20T16:46:50Z</time>
      </trkpt>
      <trkpt lat="57.99174" lon="-5.11127">
        <ele>121.96</ele>
        <time>2021-03-20T16:46:56Z</time>
      </trkpt>
      <trkpt lat="57.99262" lon="-5.11061">
        <ele>122.82</ele>
        <time>2021-03-20T16:47:02Z</time>
      </trkpt>
      <trkpt lat="57.99454" lon="-5.10941">
        <ele>120.84</ele>
        <time>2021-03-20T16:47:08Z</time>
      </trkpt>
      <trkpt lat="57.99555" lon="-5.10859">
        <ele>117.28</ele>
        <time>2021-03-20T16:47:14Z</time>
      </trkpt>
      <trkpt lat="57.99654" lon="-5.10767">
        <ele>120.7</ele>
        <time>2021-03-20T16:47:20Z</time>
      </trkpt>
      <trkpt lat="57.99744" lon="-5.1066">
        <ele>120.21</ele>
        <time>2021-03-20T16:47:25Z</time>
      </trkpt>
      <trkpt lat="57.9983" lon="-5.10547">
        <ele>121.13</ele>
        <time>2021-03-20T16:47:31Z</time>
      </trkpt>
      <trkpt lat="57.99934" lon="-5.10387">
        <ele>122</ele>
        <time>2021-03-20T16:47:37Z</time>
      </trkpt>
      <trkpt lat="57.9995" lon="-5.10359">
        <ele>121.94</ele>
        <time>2021-03-20T16:47:43Z</time>
      </trkpt>
      <trkpt lat="57.99962" lon="-5.10411">
        <ele>122.49</ele>
        <time>2021-03-20T16:47:46Z</time>
      </trkpt>
      <trkpt lat="57.99971" lon="-5.1053">
        <ele>122.81</ele>
        <time>2021-03-20T16:47:50Z</time>
      </trkpt>
      <trkpt lat="57.99974" lon="-5.10603">
        <ele>122.21</ele>
        <time>2021-03-20T16:47:53Z</time>
      </trkpt>
      <trkpt lat="57.99969" lon="-5.10634">
        <ele>121.63</ele>
        <time>2021-03-20T16:47:56Z</time>
      </trkpt>
      <trkpt lat="57.9992" lon="-5.10778">
        <ele>119.53</ele>
        <time>2021-03-20T16:47:59Z</time>
      </trkpt>
      <trkpt lat="57.99902" lon="-5.10863">
        <ele>117.4</ele>
        <time>2021-03-20T16:48:03Z</time>
      </trkpt>
      <trkpt lat="57.99905" lon="-5.10897">
        <ele>117.34</ele>
        <time>2021-03-20T16:48:06Z</time>
      </trkpt>
      <trkpt lat="57.9994" lon="-5.10971">
        <ele>118.43</ele>
        <time>2021-03-20T16:48:09Z</time>
      </trkpt>
      <trkpt lat="57.9995" lon="-5.11014">
        <ele>118.13</ele>
        <time>2021-03-20T16:48:13Z</time>
      </trkpt>
      <trkpt lat="57.99942" lon="-5.11116">
        <ele>112.24</ele>
        <time>2021-03-20T16:48:16Z</time>
      </trkpt>
      <trkpt lat="57.99953" lon="-5.11189">
        <ele>110.42</ele>
        <time>2021-03-20T16:48:19Z</time>
      </trkpt>
      <trkpt lat="57.99978" lon="-5.11275">
        <ele>110.63</ele>
        <time>2021-03-20T16:48:23Z</time>
      </trkpt>
      <trkpt lat="57.99988" lon="-5.11304">
        <ele>110.74</ele>
        <time>2021-03-20T16:48:26Z</time>
      </trkpt>
      <trkpt lat="57.99988" lon="-5.11432">
        <ele>106.15</ele>
        <time>2021-03-20T16:48:29Z</time>
      </trkpt>
      <trkpt lat="58.00029" lon="-5.11543">
        <ele>101.95</ele>
        <time>2021-03-20T16:48:33Z</time>
      </trkpt>
      <trkpt lat="58.00091" lon="-5.116">
        <ele>98.05</ele>
        <time>2021-03-20T16:48:36Z</time>
      </trkpt>
      <trkpt lat="58.00113" lon="-5.11658">
        <ele>96.42</ele>
        <time>2021-03-20T16:48:39Z</time>
      </trkpt>
      <trkpt lat="58.00142" lon="-5.1183">
        <ele>98.22</ele>
        <time>2021-03-20T16:48:42Z</time>
      </trkpt>
      <trkpt lat="58.0014" lon="-5.11866">
        <ele>100.21</ele>
        <time>2021-03-20T16:48:46Z</time>
      </trkpt>
      <trkpt lat="58.00114" lon="-5.1195">
        <ele>99.85</ele>
        <time>2021-03-20T16:48:49Z</time>
      </trkpt>
      <trkpt lat="58.00096" lon="-5.12036">
        <ele>101.75</ele>
        <time>2021-03-20T16:48:52Z</time>
      </trkpt>
      <trkpt lat="58.00085" lon="-5.1211">
        <ele>102.45</ele>
        <time>2021-03-20T16:48:56Z</time>
      </trkpt>
      <trkpt lat="58.00081" lon="-5.12189">
        <ele>105.1</ele>
        <time>2021-03-20T16:48:59Z</time>
      </trkpt>
      <trkpt lat="58.0009" lon="-5.12282">
        <ele>108.26</ele>
        <time>2021-03-20T16:49:02Z</time>
      </trkpt>
      <trkpt lat="58.00092" lon="-5.12404">
        <ele>110.93</ele>
        <time>2021-03-20T16:49:06Z</time>
      </trkpt>
      <trkpt lat="58.00101" lon="-5.12474">
        <ele>112.54</ele>
        <time>2021-03-20T16:49:09Z</time>
      </trkpt>
      <trkpt lat="58.00122" lon="-5.12533">
        <ele>118.89</ele>
        <time>2021-03-20T16:49:12Z</time>
      </trkpt>
      <trkpt lat="58.00123" lon="-5.12572">
        <ele>120.53</ele>
        <time>2021-03-20T16:49:16Z</time>
      </trkpt>
      <trkpt lat="58.00112" lon="-5.12645">
        <ele>119.32</ele>
        <time>2021-03-20T16:49:19Z</time>
      </trkpt>
      <trkpt lat="58.00115" lon="-5.12691">
        <ele>120.02</ele>
        <time>2021-03-20T16:49:22Z</time>
      </trkpt>
      <trkpt lat="58.00132" lon="-5.1276">
        <ele>123.37</ele>
        <time>2021-03-20T16:49:25Z</time>
      </trkpt>
      <trkpt lat="58.00163" lon="-5.12854">
        <ele>126.46</ele>
        <time>2021-03-20T16:49:29Z</time>
      </trkpt>
      <trkpt lat="58.00214" lon="-5.1307">
        <ele>129.59</ele>
        <time>2021-03-20T16:49:32Z</time>
      </trkpt>
      <trkpt lat="58.00236" lon="-5.13206">
        <ele>125.04</ele>
        <time>2021-03-20T16:49:35Z</time>
      </trkpt>
      <trkpt lat="58.00274" lon="-5.13297">
        <ele>121.76</ele>
        <time>2021-03-20T16:49:39Z</time>
      </trkpt>
      <trkpt lat="58.00317" lon="-5.13446">
        <ele>115.63</ele>
        <time>2021-03-20T16:49:42Z</time>
      </trkpt>
      <trkpt lat="58.00346" lon="-5.1352">
        <ele>113.43</ele>
        <time>2021-03-20T16:49:45Z</time>
      </trkpt>
      <trkpt lat="58.00363" lon="-5.13543">
        <ele>112.69</ele>
        <time>2021-03-20T16:49:49Z</time>
      </trkpt>
      <trkpt lat="58.00399" lon="-5.13557">
        <ele>116.56</ele>
        <time>2021-03-20T16:49:52Z</time>
      </trkpt>
      <trkpt lat="58.00415" lon="-5.1358">
        <ele>116.11</ele>
        <time>2021-03-20T16:49:55Z</time>
      </trkpt>
      <trkpt lat="58.00449" lon="-5.13676">
        <ele>116.83</ele>
        <time>2021-03-20T16:49:59Z</time>
      </trkpt>
      <trkpt lat="58.00458" lon="-5.13711">
        <ele>118.14</ele>
        <time>2021-03-20T16:50:02Z</time>
      </trkpt>
      <trkpt lat="58.00458" lon="-5.13795">
        <ele>112.67</ele>
        <time>2021-03-20T16:50:05Z</time>
      </trkpt>
      <trkpt lat="58.00465" lon="-5.13859">
        <ele>108.97</ele>
        <time>2021-03-20T16:50:09Z</time>
      </trkpt>
      <trkpt lat="58.00496" lon="-5.13957">
        <ele>107.46</ele>
        <time>2021-03-20T16:50:12Z</time>
      </trkpt>
      <trkpt lat="58.00522" lon="-5.13994">
        <ele>109.54</ele>
        <time>2021-03-20T16:50:15Z</time>
      </trkpt>
      <trkpt lat="58.00545" lon="-5.14023">
        <ele>109.43</ele>
        <time>2021-03-20T16:50:18Z</time>
      </trkpt>
      <trkpt lat="58.00581" lon="-5.14057">
        <ele>109.75</ele>
        <time>2021-03-20T16:50:22Z</time>
      </trkpt>
      <trkpt lat="58.006" lon="-5.14083">
        <ele>108.03</ele>
        <time>2021-03-20T16:50:25Z</time>
      </trkpt>
      <trkpt lat="58.00608" lon="-5.14111">
        <ele>106.04</ele>
        <time>2021-03-20T16:50:28Z</time>
      </trkpt>
      <trkpt lat="58.00614" lon="-5.14142">
        <ele>104.24</ele>
        <time>2021-03-20T16:50:32Z</time>
      </trkpt>
      <trkpt lat="58.00628" lon="-5.14185">
        <ele>103.84</ele>
        <time>2021-03-20T16:50:35Z</time>
      </trkpt>
      <trkpt lat="58.00632" lon="-5.14222">
        <ele>103.04</ele>
        <time>2021-03-20T16:50:38Z</time>
      </trkpt>
      <trkpt lat="58.00632" lon="-5.14267">
        <ele>100.68</ele>
        <time>2021-03-20T16:50:42Z</time>
      </trkpt>
      <trkpt lat="58.00641" lon="-5.14286">
        <ele>100.87</ele>
        <time>2021-03-20T16:50:45Z</time>
      </trkpt>
      <trkpt lat="58.00682" lon="-5.14302">
        <ele>100.51</ele>
        <time>2021-03-20T16:50:48Z</time>
      </trkpt>
      <trkpt lat="58.00714" lon="-5.14303">
        <ele>100.2</ele>
        <time>2021-03-20T16:50:52Z</time>
      </trkpt>
      <trkpt lat="58.00735" lon="-5.14313">
        <ele>100.99</ele>
        <time>2021-03-20T16:50:55Z</time>
      </trkpt>
      <trkpt lat="58.00755" lon="-5.14347">
        <ele>99.07</ele>
        <time>2021-03-20T16:50:58Z</time>
      </trkpt>
      <trkpt lat="58.0077" lon="-5.14379">
        <ele>97.27</ele>
        <time>2021-03-20T16:51:01Z</time>
      </trkpt>
      <trkpt lat="58.00791" lon="-5.14424">
        <ele>95.21</ele>
        <time>2021-03-20T16:51:05Z</time>
      </trkpt>
      <trkpt lat="58.00834" lon="-5.14528">
        <ele>90.19</ele>
        <time>2021-03-20T16:51:08Z</time>
      </trkpt>
      <trkpt lat="58.00851" lon="-5.14594">
        <ele>86.26</ele>
        <time>2021-03-20T16:51:11Z</time>
      </trkpt>
      <trkpt lat="58.00902" lon="-5.147">
        <ele>81.54</ele>
        <time>2021-03-20T16:51:15Z</time>
      </trkpt>
      <trkpt lat="58.00925" lon="-5.14736">
        <ele>79.57</ele>
        <time>2021-03-20T16:51:18Z</time>
      </trkpt>
      <trkpt lat="58.00947" lon="-5.14783">
        <ele>76.9</ele>
        <time>2021-03-20T16:51:21Z</time>
      </trkpt>
      <trkpt lat="58.01011" lon="-5.14938">
        <ele>75.27</ele>
        <time>2021-03-20T16:51:25Z</time>
      </trkpt>
      <trkpt lat="58.01039" lon="-5.15018">
        <ele>74.14</ele>
        <time>2021-03-20T16:51:28Z</time>
      </trkpt>
      <trkpt lat="58.01058" lon="-5.15101">
        <ele>70.74</ele>
        <time>2021-03-20T16:51:31Z</time>
      </trkpt>
      <trkpt lat="58.01098" lon="-5.15219">
        <ele>69.29</ele>
        <time>2021-03-20T16:51:35Z</time>
      </trkpt>
      <trkpt lat="58.01123" lon="-5.15287">
        <ele>69.13</ele>
        <time>2021-03-20T16:51:38Z</time>
      </trkpt>
      <trkpt lat="58.01139" lon="-5.15314">
        <ele>69.08</ele>
        <time>2021-03-20T16:51:41Z</time>
      </trkpt>
      <trkpt lat="58.01158" lon="-5.1533">
        <ele>71.55</ele>
        <time>2021-03-20T16:51:45Z</time>
      </trkpt>
      <trkpt lat="58.01172" lon="-5.15352">
        <ele>72.04</ele>
        <time>2021-03-20T16:51:48Z</time>
      </trkpt>
      <trkpt lat="58.01189" lon="-5.15389">
        <ele>70.19</ele>
        <time>2021-03-20T16:51:51Z</time>
      </trkpt>
      <trkpt lat="58.01211" lon="-5.15418">
        <ele>70.24</ele>
        <time>2021-03-20T16:51:54Z</time>
      </trkpt>
      <trkpt lat="58.01296" lon="-5.15505">
        <ele>74.82</ele>
        <time>2021-03-20T16:51:58Z</time>
      </trkpt>
      <trkpt lat="58.01323" lon="-5.1555">
        <ele>74.63</ele>
        <time>2021-03-20T16:52:01Z</time>
      </trkpt>
      <trkpt lat="58.01349" lon="-5.15615">
        <ele>71.04</ele>
        <time>2021-03-20T16:52:04Z</time>
      </trkpt>
      <trkpt lat="58.01408" lon="-5.15697">
        <ele>75.46</ele>
        <time>2021-03-20T16:52:08Z</time>
      </trkpt>
      <trkpt lat="58.01441" lon="-5.15729">
        <ele>77.09</ele>
        <time>2021-03-20T16:52:11Z</time>
      </trkpt>
      <trkpt lat="58.01494" lon="-5.15771">
        <ele>78.24</ele>
        <time>2021-03-20T16:52:14Z</time>
      </trkpt>
      <trkpt lat="58.01502" lon="-5.15784">
        <ele>77.79</ele>
        <time>2021-03-20T16:52:18Z</time>
      </trkpt>
      <trkpt lat="58.01515" lon="-5.15814">
        <ele>77.49</ele>
        <time>2021-03-20T16:52:21Z</time>
      </trkpt>
      <trkpt lat="58.01532" lon="-5.15867">
        <ele>76.4</ele>
        <time>2021-03-20T16:52:24Z</time>
      </trkpt>
      <trkpt lat="58.01547" lon="-5.15898">
        <ele>77.15</ele>
        <time>2021-03-20T16:52:28Z</time>
      </trkpt>
      <trkpt lat="58.01605" lon="-5.15978">
        <ele>82.42</ele>
        <time>2021-03-20T16:52:31Z</time>
      </trkpt>
      <trkpt lat="58.01633" lon="-5.16046">
        <ele>80.92</ele>
        <time>2021-03-20T16:52:34Z</time>
      </trkpt>
      <trkpt lat="58.0165" lon="-5.16078">
        <ele>80.9</ele>
        <time>2021-03-20T16:52:37Z</time>
      </trkpt>
      <trkpt lat="58.01672" lon="-5.16099">
        <ele>83.17</ele>
        <time>2021-03-20T16:52:41Z</time>
      </trkpt>
      <trkpt lat="58.01732" lon="-5.16139">
        <ele>83.69</ele>
        <time>2021-03-20T16:52:44Z</time>
      </trkpt>
      <trkpt lat="58.01761" lon="-5.1618">
        <ele>82.97</ele>
        <time>2021-03-20T16:52:47Z</time>
      </trkpt>
      <trkpt lat="58.01834" lon="-5.16265">
        <ele>84.96</ele>
        <time>2021-03-20T16:52:51Z</time>
      </trkpt>
      <trkpt lat="58.01868" lon="-5.16299">
        <ele>84.55</ele>
        <time>2021-03-20T16:52:54Z</time>
      </trkpt>
      <trkpt lat="58.01906" lon="-5.1632">
        <ele>81.63</ele>
        <time>2021-03-20T16:52:57Z</time>
      </trkpt>
      <trkpt lat="58.01931" lon="-5.16352">
        <ele>78.57</ele>
        <time>2021-03-20T16:53:01Z</time>
      </trkpt>
      <trkpt lat="58.01966" lon="-5.16411">
        <ele>75.14</ele>
        <time>2021-03-20T16:53:04Z</time>
      </trkpt>
      <trkpt lat="58.02026" lon="-5.16478">
        <ele>75.41</ele>
        <time>2021-03-20T16:53:07Z</time>
      </trkpt>
      <trkpt lat="58.0205" lon="-5.16522">
        <ele>74.68</ele>
        <time>2021-03-20T16:53:11Z</time>
      </trkpt>
      <trkpt lat="58.0208" lon="-5.16586">
        <ele>74.47</ele>
        <time>2021-03-20T16:53:14Z</time>
      </trkpt>
      <trkpt lat="58.021" lon="-5.1662">
        <ele>74.15</ele>
        <time>2021-03-20T16:53:17Z</time>
      </trkpt>
      <trkpt lat="58.02158" lon="-5.1673">
        <ele>72.29</ele>
        <time>2021-03-20T16:53:21Z</time>
      </trkpt>
      <trkpt lat="58.02212" lon="-5.16851">
        <ele>71.06</ele>
        <time>2021-03-20T16:53:24Z</time>
      </trkpt>
      <trkpt lat="58.02245" lon="-5.1693">
        <ele>68.47</ele>
        <time>2021-03-20T16:53:27Z</time>
      </trkpt>
      <trkpt lat="58.02263" lon="-5.16957">
        <ele>68.02</ele>
        <time>2021-03-20T16:53:30Z</time>
      </trkpt>
      <trkpt lat="58.02284" lon="-5.16973">
        <ele>68.19</ele>
        <time>2021-03-20T16:53:34Z</time>
      </trkpt>
      <trkpt lat="58.02392" lon="-5.17">
        <ele>70.27</ele>
        <time>2021-03-20T16:53:37Z</time>
      </trkpt>
      <trkpt lat="58.02423" lon="-5.17014">
        <ele>70.87</ele>
        <time>2021-03-20T16:53:40Z</time>
      </trkpt>
      <trkpt lat="58.02439" lon="-5.17028">
        <ele>69.67</ele>
        <time>2021-03-20T16:53:44Z</time>
      </trkpt>
      <trkpt lat="58.02459" lon="-5.17039">
        <ele>69.47</ele>
        <time>2021-03-20T16:53:47Z</time>
      </trkpt>
      <trkpt lat="58.02539" lon="-5.17058">
        <ele>68.52</ele>
        <time>2021-03-20T16:53:50Z</time>
      </trkpt>
      <trkpt lat="58.026" lon="-5.17099">
        <ele>66.25</ele>
        <time>2021-03-20T16:53:54Z</time>
      </trkpt>
      <trkpt lat="58.02678" lon="-5.17134">
        <ele>66.7</ele>
        <time>2021-03-20T16:53:57Z</time>
      </trkpt>
      <trkpt lat="58.02724" lon="-5.1717">
        <ele>67.88</ele>
        <time>2021-03-20T16:54:00Z</time>
      </trkpt>
      <trkpt lat="58.0284" lon="-5.17301">
        <ele>70.35</ele>
        <time>2021-03-20T16:54:04Z</time>
      </trkpt>
      <trkpt lat="58.02914" lon="-5.17372">
        <ele>69.02</ele>
        <time>2021-03-20T16:54:07Z</time>
      </trkpt>
      <trkpt lat="58.02993" lon="-5.17441">
        <ele>72.36</ele>
        <time>2021-03-20T16:54:10Z</time>
      </trkpt>
      <trkpt lat="58.03028" lon="-5.1748">
        <ele>73.24</ele>
        <time>2021-03-20T16:54:13Z</time>
      </trkpt>
      <trkpt lat="58.03058" lon="-5.17549">
        <ele>73.14</ele>
        <time>2021-03-20T16:54:17Z</time>
      </trkpt>
      <trkpt lat="58.03079" lon="-5.17622">
        <ele>71.78</ele>
        <time>2021-03-20T16:54:20Z</time>
      </trkpt>
      <trkpt lat="58.03094" lon="-5.17692">
        <ele>72.72</ele>
        <time>2021-03-20T16:54:23Z</time>
      </trkpt>
      <trkpt lat="58.03104" lon="-5.17802">
        <ele>73.26</ele>
        <time>2021-03-20T16:54:27Z</time>
      </trkpt>
      <trkpt lat="58.03105" lon="-5.17852">
        <ele>72.99</ele>
        <time>2021-03-20T16:54:30Z</time>
      </trkpt>
      <trkpt lat="58.03116" lon="-5.17957">
        <ele>73.45</ele>
        <time>2021-03-20T16:54:33Z</time>
      </trkpt>
      <trkpt lat="58.0312" lon="-5.17969">
        <ele>73.63</ele>
        <time>2021-03-20T16:54:37Z</time>
      </trkpt>
      <trkpt lat="58.03126" lon="-5.18016">
        <ele>73.82</ele>
        <time>2021-03-20T16:54:40Z</time>
      </trkpt>
      <trkpt lat="58.03133" lon="-5.18188">
        <ele>72.21</ele>
        <time>2021-03-20T16:54:43Z</time>
      </trkpt>
      <trkpt lat="58.03134" lon="-5.18343">
        <ele>70.76</ele>
        <time>2021-03-20T16:54:47Z</time>
      </trkpt>
      <trkpt lat="58.03158" lon="-5.1856">
        <ele>71.92</ele>
        <time>2021-03-20T16:54:50Z</time>
      </trkpt>
      <trkpt lat="58.03172" lon="-5.18666">
        <ele>74.07</ele>
        <time>2021-03-20T16:54:53Z</time>
      </trkpt>
      <trkpt lat="58.03176" lon="-5.18759">
        <ele>73.95</ele>
        <time>2021-03-20T16:54:56Z</time>
      </trkpt>
      <trkpt lat="58.03166" lon="-5.19062">
        <ele>70.6</ele>
        <time>2021-03-20T16:55:00Z</time>
      </trkpt>
      <trkpt lat="58.03176" lon="-5.19144">
        <ele>70.45</ele>
        <time>2021-03-20T16:55:03Z</time>
      </trkpt>
      <trkpt lat="58.03234" lon="-5.19444">
        <ele>68.08</ele>
        <time>2021-03-20T16:55:06Z</time>
      </trkpt>
      <trkpt lat="58.03241" lon="-5.19533">
        <ele>63.57</ele>
        <time>2021-03-20T16:55:10Z</time>
      </trkpt>
      <trkpt lat="58.03261" lon="-5.19568">
        <ele>68.3</ele>
        <time>2021-03-20T16:55:13Z</time>
      </trkpt>
      <trkpt lat="58.03275" lon="-5.19621">
        <ele>70.54</ele>
        <time>2021-03-20T16:55:16Z</time>
      </trkpt>
      <trkpt lat="58.03288" lon="-5.19689">
        <ele>69.19</ele>
        <time>2021-03-20T16:55:20Z</time>
      </trkpt>
      <trkpt lat="58.033" lon="-5.19793">
        <ele>65.24</ele>
        <time>2021-03-20T16:55:23Z</time>
      </trkpt>
      <trkpt lat="58.0332" lon="-5.19862">
        <ele>64.62</ele>
        <time>2021-03-20T16:55:26Z</time>
      </trkpt>
      <trkpt lat="58.03346" lon="-5.20001">
        <ele>68.29</ele>
        <time>2021-03-20T16:55:30Z</time>
      </trkpt>
      <trkpt lat="58.03364" lon="-5.20078">
        <ele>66.9</ele>
        <time>2021-03-20T16:55:33Z</time>
      </trkpt>
      <trkpt lat="58.03374" lon="-5.20114">
        <ele>66.18</ele>
        <time>2021-03-20T16:55:36Z</time>
      </trkpt>
      <trkpt lat="58.03393" lon="-5.20167">
        <ele>64.67</ele>
        <time>2021-03-20T16:55:40Z</time>
      </trkpt>
      <trkpt lat="58.03403" lon="-5.20186">
        <ele>64.75</ele>
        <time>2021-03-20T16:55:43Z</time>
      </trkpt>
      <trkpt lat="58.03454" lon="-5.20234">
        <ele>73.5</ele>
        <time>2021-03-20T16:55:46Z</time>
      </trkpt>
      <trkpt lat="58.03461" lon="-5.2025">
        <ele>76.04</ele>
        <time>2021-03-20T16:55:49Z</time>
      </trkpt>
      <trkpt lat="58.03469" lon="-5.20293">
        <ele>78.32</ele>
        <time>2021-03-20T16:55:53Z</time>
      </trkpt>
      <trkpt lat="58.03474" lon="-5.2036">
        <ele>77.65</ele>
        <time>2021-03-20T16:55:56Z</time>
      </trkpt>
      <trkpt lat="58.03465" lon="-5.20778">
        <ele>83.42</ele>
        <time>2021-03-20T16:55:59Z</time>
      </trkpt>
      <trkpt lat="58.03456" lon="-5.20846">
        <ele>84.51</ele>
        <time>2021-03-20T16:56:03Z</time>
      </trkpt>
      <trkpt lat="58.03403" lon="-5.21044">
        <ele>86.04</ele>
        <time>2021-03-20T16:56:06Z</time>
      </trkpt>
      <trkpt lat="58.03379" lon="-5.211">
        <ele>86.78</ele>
        <time>2021-03-20T16:56:09Z</time>
      </trkpt>
      <trkpt lat="58.03338" lon="-5.21177">
        <ele>86.5</ele>
        <time>2021-03-20T16:56:13Z</time>
      </trkpt>
      <trkpt lat="58.03333" lon="-5.21194">
        <ele>86.9</ele>
        <time>2021-03-20T16:56:16Z</time>
      </trkpt>
      <trkpt lat="58.03331" lon="-5.21209">
        <ele>87.1</ele>
        <time>2021-03-20T16:56:19Z</time>
      </trkpt>
      <trkpt lat="58.03331" lon="-5.21235">
        <ele>87.97</ele>
        <time>2021-03-20T16:56:23Z</time>
      </trkpt>
      <trkpt lat="58.0334" lon="-5.21359">
        <ele>91.13</ele>
        <time>2021-03-20T16:56:26Z</time>
      </trkpt>
      <trkpt lat="58.03348" lon="-5.21424">
        <ele>92.57</ele>
        <time>2021-03-20T16:56:29Z</time>
      </trkpt>
      <trkpt lat="58.03349" lon="-5.21459">
        <ele>92.98</ele>
        <time>2021-03-20T16:56:32Z</time>
      </trkpt>
      <trkpt lat="58.03332" lon="-5.21884">
        <ele>96.74</ele>
        <time>2021-03-20T16:56:36Z</time>
      </trkpt>
      <trkpt lat="58.03313" lon="-5.22235">
        <ele>98.25</ele>
        <time>2021-03-20T16:56:39Z</time>
      </trkpt>
      <trkpt lat="58.03314" lon="-5.22266">
        <ele>98.24</ele>
        <time>2021-03-20T16:56:42Z</time>
      </trkpt>
      <trkpt lat="58.03333" lon="-5.22371">
        <ele>96.59</ele>
        <time>2021-03-20T16:56:46Z</time>
      </trkpt>
      <trkpt lat="58.03352" lon="-5.22439">
        <ele>98.8</ele>
        <time>2021-03-20T16:56:49Z</time>
      </trkpt>
      <trkpt lat="58.03356" lon="-5.22461">
        <ele>100</ele>
        <time>2021-03-20T16:56:52Z</time>
      </trkpt>
      <trkpt lat="58.03355" lon="-5.22492">
        <ele>100.72</ele>
        <time>2021-03-20T16:56:56Z</time>
      </trkpt>
      <trkpt lat="58.03347" lon="-5.22609">
        <ele>97.87</ele>
        <time>2021-03-20T16:56:59Z</time>
      </trkpt>
      <trkpt lat="58.03345" lon="-5.2283">
        <ele>97.28</ele>
        <time>2021-03-20T16:57:02Z</time>
      </trkpt>
      <trkpt lat="58.03338" lon="-5.23087">
        <ele>99.76</ele>
        <time>2021-03-20T16:57:06Z</time>
      </trkpt>
      <trkpt lat="58.03338" lon="-5.23198">
        <ele>99.98</ele>
        <time>2021-03-20T16:57:09Z</time>
      </trkpt>
      <trkpt lat="58.03326" lon="-5.2332">
        <ele>96.76</ele>
        <time>2021-03-20T16:57:12Z</time>
      </trkpt>
      <trkpt lat="58.03329" lon="-5.23352">
        <ele>95.16</ele>
        <time>2021-03-20T16:57:16Z</time>
      </trkpt>
      <trkpt lat="58.03335" lon="-5.2337">
        <ele>94.54</ele>
        <time>2021-03-20T16:57:19Z</time>
      </trkpt>
      <trkpt lat="58.03349" lon="-5.23394">
        <ele>94.54</ele>
        <time>2021-03-20T16:57:22Z</time>
      </trkpt>
      <trkpt lat="58.0339" lon="-5.23497">
        <ele>88.57</ele>
        <time>2021-03-20T16:57:25Z</time>
      </trkpt>
      <trkpt lat="58.03419" lon="-5.23556">
        <ele>85.04</ele>
        <time>2021-03-20T16:57:29Z</time>
      </trkpt>
      <trkpt lat="58.03425" lon="-5.23566">
        <ele>84.37</ele>
        <time>2021-03-20T16:57:32Z</time>
      </trkpt>
      <trkpt lat="58.03432" lon="-5.23575">
        <ele>83.58</ele>
        <time>2021-03-20T16:57:35Z</time>
      </trkpt>
      <trkpt lat="58.03478" lon="-5.23598">
        <ele>84.42</ele>
        <time>2021-03-20T16:57:39Z</time>
      </trkpt>
      <trkpt lat="58.03494" lon="-5.23614">
        <ele>83.97</ele>
        <time>2021-03-20T16:57:42Z</time>
      </trkpt>
      <trkpt lat="58.03512" lon="-5.2365">
        <ele>81.1</ele>
        <time>2021-03-20T16:57:45Z</time>
      </trkpt>
      <trkpt lat="58.0353" lon="-5.23665">
        <ele>81.57</ele>
        <time>2021-03-20T16:57:49Z</time>
      </trkpt>
      <trkpt lat="58.03559" lon="-5.23681">
        <ele>83.38</ele>
        <time>2021-03-20T16:57:52Z</time>
      </trkpt>
      <trkpt lat="58.03568" lon="-5.23694">
        <ele>83.21</ele>
        <time>2021-03-20T16:57:55Z</time>
      </trkpt>
      <trkpt lat="58.03575" lon="-5.2371">
        <ele>81.92</ele>
        <time>2021-03-20T16:57:59Z</time>
      </trkpt>
      <trkpt lat="58.03578" lon="-5.23728">
        <ele>79.67</ele>
        <time>2021-03-20T16:58:02Z</time>
      </trkpt>
      <trkpt lat="58.03581" lon="-5.23825">
        <ele>73.21</ele>
        <time>2021-03-20T16:58:05Z</time>
      </trkpt>
      <trkpt lat="58.03588" lon="-5.23902">
        <ele>70.19</ele>
        <time>2021-03-20T16:58:08Z</time>
      </trkpt>
      <trkpt lat="58.03594" lon="-5.23931">
        <ele>70.04</ele>
        <time>2021-03-20T16:58:12Z</time>
      </trkpt>
      <trkpt lat="58.03609" lon="-5.23988">
        <ele>68.87</ele>
        <time>2021-03-20T16:58:15Z</time>
      </trkpt>
      <trkpt lat="58.03623" lon="-5.24016">
        <ele>69.44</ele>
        <time>2021-03-20T16:58:18Z</time>
      </trkpt>
      <trkpt lat="58.03669" lon="-5.24088">
        <ele>71</ele>
        <time>2021-03-20T16:58:22Z</time>
      </trkpt>
      <trkpt lat="58.03693" lon="-5.24138">
        <ele>68.88</ele>
        <time>2021-03-20T16:58:25Z</time>
      </trkpt>
      <trkpt lat="58.03739" lon="-5.24221">
        <ele>65.97</ele>
        <time>2021-03-20T16:58:28Z</time>
      </trkpt>
      <trkpt lat="58.03764" lon="-5.24241">
        <ele>64.9</ele>
        <time>2021-03-20T16:58:32Z</time>
      </trkpt>
      <trkpt lat="58.03795" lon="-5.24272">
        <ele>62.13</ele>
        <time>2021-03-20T16:58:35Z</time>
      </trkpt>
      <trkpt lat="58.03842" lon="-5.24335">
        <ele>60.16</ele>
        <time>2021-03-20T16:58:38Z</time>
      </trkpt>
      <trkpt lat="58.03907" lon="-5.24404">
        <ele>59.53</ele>
        <time>2021-03-20T16:58:42Z</time>
      </trkpt>
      <trkpt lat="58.03952" lon="-5.24448">
        <ele>58.78</ele>
        <time>2021-03-20T16:58:45Z</time>
      </trkpt>
      <trkpt lat="58.03973" lon="-5.24474">
        <ele>60.12</ele>
        <time>2021-03-20T16:58:48Z</time>
      </trkpt>
      <trkpt lat="58.04032" lon="-5.24621">
        <ele>60.91</ele>
        <time>2021-03-20T16:58:52Z</time>
      </trkpt>
      <trkpt lat="58.04072" lon="-5.24709">
        <ele>59.67</ele>
        <time>2021-03-20T16:58:55Z</time>
      </trkpt>
      <trkpt lat="58.04109" lon="-5.24763">
        <ele>59.37</ele>
        <time>2021-03-20T16:58:58Z</time>
      </trkpt>
      <trkpt lat="58.04151" lon="-5.24804">
        <ele>57.57</ele>
        <time>2021-03-20T16:59:01Z</time>
      </trkpt>
      <trkpt lat="58.04219" lon="-5.24861">
        <ele>55.8</ele>
        <time>2021-03-20T16:59:05Z</time>
      </trkpt>
      <trkpt lat="58.04245" lon="-5.24889">
        <ele>56.47</ele>
        <time>2021-03-20T16:59:08Z</time>
      </trkpt>
      <trkpt lat="58.04283" lon="-5.24965">
        <ele>57.7</ele>
        <time>2021-03-20T16:59:11Z</time>
      </trkpt>
      <trkpt lat="58.04338" lon="-5.25099">
        <ele>56.77</ele>
        <time>2021-03-20T16:59:15Z</time>
      </trkpt>
      <trkpt lat="58.0439" lon="-5.25214">
        <ele>54.04</ele>
        <time>2021-03-20T16:59:18Z</time>
      </trkpt>
      <trkpt lat="58.04422" lon="-5.25297">
        <ele>54.5</ele>
        <time>2021-03-20T16:59:21Z</time>
      </trkpt>
      <trkpt lat="58.04439" lon="-5.25376">
        <ele>54</ele>
        <time>2021-03-20T16:59:25Z</time>
      </trkpt>
      <trkpt lat="58.04447" lon="-5.25549">
        <ele>56.3</ele>
        <time>2021-03-20T16:59:28Z</time>
      </trkpt>
      <trkpt lat="58.04459" lon="-5.256">
        <ele>56.6</ele>
        <time>2021-03-20T16:59:31Z</time>
      </trkpt>
      <trkpt lat="58.04514" lon="-5.25771">
        <ele>56.61</ele>
        <time>2021-03-20T16:59:35Z</time>
      </trkpt>
      <trkpt lat="58.04549" lon="-5.25899">
        <ele>56.14</ele>
        <time>2021-03-20T16:59:38Z</time>
      </trkpt>
      <trkpt lat="58.04573" lon="-5.25996">
        <ele>56.6</ele>
        <time>2021-03-20T16:59:41Z</time>
      </trkpt>
      <trkpt lat="58.04588" lon="-5.26075">
        <ele>57</ele>
        <time>2021-03-20T16:59:44Z</time>
      </trkpt>
      <trkpt lat="58.04612" lon="-5.26229">
        <ele>55.92</ele>
        <time>2021-03-20T16:59:48Z</time>
      </trkpt>
      <trkpt lat="58.04639" lon="-5.26372">
        <ele>54.06</ele>
        <time>2021-03-20T16:59:51Z</time>
      </trkpt>
      <trkpt lat="58.04658" lon="-5.26481">
        <ele>56.02</ele>
        <time>2021-03-20T16:59:54Z</time>
      </trkpt>
      <trkpt lat="58.04662" lon="-5.26726">
        <ele>55.82</ele>
        <time>2021-03-20T16:59:58Z</time>
      </trkpt>
      <trkpt lat="58.04669" lon="-5.26848">
        <ele>56.89</ele>
        <time>2021-03-20T17:00:01Z</time>
      </trkpt>
      <trkpt lat="58.04673" lon="-5.27">
        <ele>59.9</ele>
        <time>2021-03-20T17:00:04Z</time>
      </trkpt>
      <trkpt lat="58.04667" lon="-5.273">
        <ele>59.21</ele>
        <time>2021-03-20T17:00:08Z</time>
      </trkpt>
      <trkpt lat="58.04661" lon="-5.27476">
        <ele>59.43</ele>
        <time>2021-03-20T17:00:11Z</time>
      </trkpt>
      <trkpt lat="58.0467" lon="-5.27566">
        <ele>58.08</ele>
        <time>2021-03-20T17:00:14Z</time>
      </trkpt>
      <trkpt lat="58.04703" lon="-5.27697">
        <ele>59.46</ele>
        <time>2021-03-20T17:00:18Z</time>
      </trkpt>
      <trkpt lat="58.04714" lon="-5.27787">
        <ele>58.48</ele>
        <time>2021-03-20T17:00:21Z</time>
      </trkpt>
      <trkpt lat="58.04721" lon="-5.2788">
        <ele>58.85</ele>
        <time>2021-03-20T17:00:24Z</time>
      </trkpt>
      <trkpt lat="58.04719" lon="-5.27921">
        <ele>59.58</ele>
        <time>2021-03-20T17:00:27Z</time>
      </trkpt>
      <trkpt lat="58.04715" lon="-5.2796">
        <ele>59</ele>
        <time>2021-03-20T17:00:31Z</time>
      </trkpt>
      <trkpt lat="58.04716" lon="-5.27997">
        <ele>59.07</ele>
        <time>2021-03-20T17:00:34Z</time>
      </trkpt>
      <trkpt lat="58.04736" lon="-5.28132">
        <ele>60.21</ele>
        <time>2021-03-20T17:00:37Z</time>
      </trkpt>
      <trkpt lat="58.04738" lon="-5.28173">
        <ele>60.42</ele>
        <time>2021-03-20T17:00:41Z</time>
      </trkpt>
      <trkpt lat="58.04733" lon="-5.28262">
        <ele>59.76</ele>
        <time>2021-03-20T17:00:44Z</time>
      </trkpt>
      <trkpt lat="58.04734" lon="-5.28303">
        <ele>59.84</ele>
        <time>2021-03-20T17:00:47Z</time>
      </trkpt>
      <trkpt lat="58.04741" lon="-5.28337">
        <ele>60.27</ele>
        <time>2021-03-20T17:00:51Z</time>
      </trkpt>
      <trkpt lat="58.04771" lon="-5.28435">
        <ele>60.74</ele>
        <time>2021-03-20T17:00:54Z</time>
      </trkpt>
      <trkpt lat="58.04791" lon="-5.28383">
        <ele>62.98</ele>
        <time>2021-03-20T17:00:57Z</time>
      </trkpt>
      <trkpt lat="58.04804" lon="-5.28288">
        <ele>66.45</ele>
        <time>2021-03-20T17:01:00Z</time>
      </trkpt>
      <trkpt lat="58.04812" lon="-5.28172">
        <ele>71.03</ele>
        <time>2021-03-20T17:01:02Z</time>
      </trkpt>
      <trkpt lat="58.04818" lon="-5.28128">
        <ele>73.18</ele>
        <time>2021-03-20T17:01:05Z</time>
      </trkpt>
      <trkpt lat="58.04828" lon="-5.28052">
        <ele>76.15</ele>
        <time>2021-03-20T17:01:08Z</time>
      </trkpt>
      <trkpt lat="58.04848" lon="-5.27934">
        <ele>81.66</ele>
        <time>2021-03-20T17:01:10Z</time>
      </trkpt>
      <trkpt lat="58.04879" lon="-5.27806">
        <ele>87.53</ele>
        <time>2021-03-20T17:01:13Z</time>
      </trkpt>
      <trkpt lat="58.04939" lon="-5.27616">
        <ele>96.07</ele>
        <time>2021-03-20T17:01:16Z</time>
      </trkpt>
      <trkpt lat="58.04954" lon="-5.27562">
        <ele>98.37</ele>
        <time>2021-03-20T17:01:19Z</time>
      </trkpt>
      <trkpt lat="58.04963" lon="-5.27506">
        <ele>99.78</ele>
        <time>2021-03-20T17:01:21Z</time>
      </trkpt>
      <trkpt lat="58.04986" lon="-5.27323">
        <ele>105.01</ele>
        <time>2021-03-20T17:01:24Z</time>
      </trkpt>
      <trkpt lat="58.05008" lon="-5.27084">
        <ele>111.83</ele>
        <time>2021-03-20T17:01:27Z</time>
      </trkpt>
      <trkpt lat="58.05026" lon="-5.26922">
        <ele>117.75</ele>
        <time>2021-03-20T17:01:29Z</time>
      </trkpt>
      <trkpt lat="58.05048" lon="-5.26795">
        <ele>124.28</ele>
        <time>2021-03-20T17:01:32Z</time>
      </trkpt>
      <trkpt lat="58.05083" lon="-5.26682">
        <ele>127.96</ele>
        <time>2021-03-20T17:01:35Z</time>
      </trkpt>
      <trkpt lat="58.05118" lon="-5.26632">
        <ele>130.23</ele>
        <time>2021-03-20T17:01:38Z</time>
      </trkpt>
      <trkpt lat="58.05159" lon="-5.26595">
        <ele>131.71</ele>
        <time>2021-03-20T17:01:40Z</time>
      </trkpt>
      <trkpt lat="58.05238" lon="-5.26546">
        <ele>130.43</ele>
        <time>2021-03-20T17:01:43Z</time>
      </trkpt>
      <trkpt lat="58.05293" lon="-5.26507">
        <ele>126.65</ele>
        <time>2021-03-20T17:01:46Z</time>
      </trkpt>
      <trkpt lat="58.05307" lon="-5.2648">
        <ele>124.83</ele>
        <time>2021-03-20T17:01:48Z</time>
      </trkpt>
      <trkpt lat="58.05315" lon="-5.26445">
        <ele>123.23</ele>
        <time>2021-03-20T17:01:51Z</time>
      </trkpt>
      <trkpt lat="58.05322" lon="-5.26365">
        <ele>120.52</ele>
        <time>2021-03-20T17:01:54Z</time>
      </trkpt>
      <trkpt lat="58.05329" lon="-5.26342">
        <ele>118.14</ele>
        <time>2021-03-20T17:01:57Z</time>
      </trkpt>
      <trkpt lat="58.05335" lon="-5.26339">
        <ele>116.88</ele>
        <time>2021-03-20T17:01:59Z</time>
      </trkpt>
      <trkpt lat="58.05341" lon="-5.26348">
        <ele>116.22</ele>
        <time>2021-03-20T17:02:02Z</time>
      </trkpt>
      <trkpt lat="58.05354" lon="-5.26397">
        <ele>114.49</ele>
        <time>2021-03-20T17:02:05Z</time>
      </trkpt>
      <trkpt lat="58.05369" lon="-5.26426">
        <ele>112.93</ele>
        <time>2021-03-20T17:02:07Z</time>
      </trkpt>
      <trkpt lat="58.05415" lon="-5.26457">
        <ele>108.13</ele>
        <time>2021-03-20T17:02:10Z</time>
      </trkpt>
      <trkpt lat="58.05469" lon="-5.26505">
        <ele>104.42</ele>
        <time>2021-03-20T17:02:13Z</time>
      </trkpt>
      <trkpt lat="58.05513" lon="-5.26586">
        <ele>101.12</ele>
        <time>2021-03-20T17:02:16Z</time>
      </trkpt>
      <trkpt lat="58.05534" lon="-5.26616">
        <ele>99.14</ele>
        <time>2021-03-20T17:02:18Z</time>
      </trkpt>
      <trkpt lat="58.05565" lon="-5.26629">
        <ele>99</ele>
        <time>2021-03-20T17:02:21Z</time>
      </trkpt>
      <trkpt lat="58.05601" lon="-5.26609">
        <ele>98.85</ele>
        <time>2021-03-20T17:02:24Z</time>
      </trkpt>
      <trkpt lat="58.05639" lon="-5.26573">
        <ele>94.91</ele>
        <time>2021-03-20T17:02:26Z</time>
      </trkpt>
      <trkpt lat="58.05662" lon="-5.26558">
        <ele>90.68</ele>
        <time>2021-03-20T17:02:29Z</time>
      </trkpt>
      <trkpt lat="58.05682" lon="-5.26563">
        <ele>88.87</ele>
        <time>2021-03-20T17:02:32Z</time>
      </trkpt>
      <trkpt lat="58.05707" lon="-5.26591">
        <ele>89.83</ele>
        <time>2021-03-20T17:02:34Z</time>
      </trkpt>
      <trkpt lat="58.05729" lon="-5.2659">
        <ele>85.58</ele>
        <time>2021-03-20T17:02:37Z</time>
      </trkpt>
      <trkpt lat="58.05741" lon="-5.26596">
        <ele>84.13</ele>
        <time>2021-03-20T17:02:40Z</time>
      </trkpt>
      <trkpt lat="58.05757" lon="-5.26621">
        <ele>83.54</ele>
        <time>2021-03-20T17:02:43Z</time>
      </trkpt>
      <trkpt lat="58.0577" lon="-5.26656">
        <ele>83.91</ele>
        <time>2021-03-20T17:02:45Z</time>
      </trkpt>
      <trkpt lat="58.05793" lon="-5.26683">
        <ele>82.26</ele>
        <time>2021-03-20T17:02:48Z</time>
      </trkpt>
      <trkpt lat="58.05817" lon="-5.26689">
        <ele>80.16</ele>
        <time>2021-03-20T17:02:51Z</time>
      </trkpt>
      <trkpt lat="58.05855" lon="-5.26675">
        <ele>77.85</ele>
        <time>2021-03-20T17:02:53Z</time>
      </trkpt>
      <trkpt lat="58.05891" lon="-5.26656">
        <ele>76.55</ele>
        <time>2021-03-20T17:02:56Z</time>
      </trkpt>
      <trkpt lat="58.05929" lon="-5.26672">
        <ele>75.94</ele>
        <time>2021-03-20T17:02:59Z</time>
      </trkpt>
      <trkpt lat="58.05952" lon="-5.2669">
        <ele>75.57</ele>
        <time>2021-03-20T17:03:02Z</time>
      </trkpt>
      <trkpt lat="58.06001" lon="-5.26761">
        <ele>68.94</ele>
        <time>2021-03-20T17:03:04Z</time>
      </trkpt>
      <trkpt lat="58.06025" lon="-5.26776">
        <ele>67.19</ele>
        <time>2021-03-20T17:03:07Z</time>
      </trkpt>
      <trkpt lat="58.06057" lon="-5.26763">
        <ele>65.32</ele>
        <time>2021-03-20T17:03:10Z</time>
      </trkpt>
      <trkpt lat="58.06089" lon="-5.26767">
        <ele>62.4</ele>
        <time>2021-03-20T17:03:12Z</time>
      </trkpt>
      <trkpt lat="58.06118" lon="-5.26785">
        <ele>59.23</ele>
        <time>2021-03-20T17:03:15Z</time>
      </trkpt>
      <trkpt lat="58.06142" lon="-5.26813">
        <ele>56.78</ele>
        <time>2021-03-20T17:03:18Z</time>
      </trkpt>
      <trkpt lat="58.06197" lon="-5.26846">
        <ele>53.27</ele>
        <time>2021-03-20T17:03:21Z</time>
      </trkpt>
      <trkpt lat="58.06234" lon="-5.26837">
        <ele>50.32</ele>
        <time>2021-03-20T17:03:23Z</time>
      </trkpt>
      <trkpt lat="58.06263" lon="-5.26813">
        <ele>48.51</ele>
        <time>2021-03-20T17:03:26Z</time>
      </trkpt>
      <trkpt lat="58.06294" lon="-5.26759">
        <ele>49.58</ele>
        <time>2021-03-20T17:03:29Z</time>
      </trkpt>
      <trkpt lat="58.06324" lon="-5.26628">
        <ele>48.56</ele>
        <time>2021-03-20T17:03:31Z</time>
      </trkpt>
      <trkpt lat="58.06344" lon="-5.26578">
        <ele>44.78</ele>
        <time>2021-03-20T17:03:34Z</time>
      </trkpt>
      <trkpt lat="58.06372" lon="-5.26541">
        <ele>40.42</ele>
        <time>2021-03-20T17:03:37Z</time>
      </trkpt>
      <trkpt lat="58.06428" lon="-5.26517">
        <ele>34.04</ele>
        <time>2021-03-20T17:03:40Z</time>
      </trkpt>
      <trkpt lat="58.06468" lon="-5.26529">
        <ele>29.15</ele>
        <time>2021-03-20T17:03:42Z</time>
      </trkpt>
      <trkpt lat="58.06495" lon="-5.26546">
        <ele>25.55</ele>
        <time>2021-03-20T17:03:45Z</time>
      </trkpt>
      <trkpt lat="58.06516" lon="-5.26572">
        <ele>23.42</ele>
        <time>2021-03-20T17:03:48Z</time>
      </trkpt>
      <trkpt lat="58.06594" lon="-5.26714">
        <ele>14.52</ele>
        <time>2021-03-20T17:03:50Z</time>
      </trkpt>
      <trkpt lat="58.06615" lon="-5.26747">
        <ele>13.36</ele>
        <time>2021-03-20T17:03:53Z</time>
      </trkpt>
      <trkpt lat="58.06644" lon="-5.2677">
        <ele>10.66</ele>
        <time>2021-03-20T17:03:56Z</time>
      </trkpt>
      <trkpt lat="58.06664" lon="-5.2677">
        <ele>9.22</ele>
        <time>2021-03-20T17:03:59Z</time>
      </trkpt>
      <trkpt lat="58.06709" lon="-5.26725">
        <ele>9.89</ele>
        <time>2021-03-20T17:04:01Z</time>
      </trkpt>
      <trkpt lat="58.06731" lon="-5.26693">
        <ele>9.96</ele>
        <time>2021-03-20T17:04:04Z</time>
      </trkpt>
      <trkpt lat="58.06769" lon="-5.26626">
        <ele>9</ele>
        <time>2021-03-20T17:04:07Z</time>
      </trkpt>
      <trkpt lat="58.06808" lon="-5.26601">
        <ele>10.13</ele>
        <time>2021-03-20T17:04:09Z</time>
      </trkpt>
      <trkpt lat="58.06815" lon="-5.26588">
        <ele>10.59</ele>
        <time>2021-03-20T17:04:12Z</time>
      </trkpt>
      <trkpt lat="58.06825" lon="-5.26552">
        <ele>12.55</ele>
        <time>2021-03-20T17:04:15Z</time>
      </trkpt>
      <trkpt lat="58.06837" lon="-5.26447">
        <ele>17.19</ele>
        <time>2021-03-20T17:04:18Z</time>
      </trkpt>
      <trkpt lat="58.06838" lon="-5.26379">
        <ele>21.09</ele>
        <time>2021-03-20T17:04:20Z</time>
      </trkpt>
      <trkpt lat="58.06834" lon="-5.26327">
        <ele>24.8</ele>
        <time>2021-03-20T17:04:23Z</time>
      </trkpt>
      <trkpt lat="58.06815" lon="-5.26258">
        <ele>29.6</ele>
        <time>2021-03-20T17:04:26Z</time>
      </trkpt>
      <trkpt lat="58.06808" lon="-5.26148">
        <ele>31.47</ele>
        <time>2021-03-20T17:04:28Z</time>
      </trkpt>
      <trkpt lat="58.06814" lon="-5.26032">
        <ele>37.25</ele>
        <time>2021-03-20T17:04:31Z</time>
      </trkpt>
      <trkpt lat="58.0683" lon="-5.25886">
        <ele>47.49</ele>
        <time>2021-03-20T17:04:34Z</time>
      </trkpt>
      <trkpt lat="58.06848" lon="-5.25747">
        <ele>53.42</ele>
        <time>2021-03-20T17:04:36Z</time>
      </trkpt>
      <trkpt lat="58.06859" lon="-5.25688">
        <ele>50.12</ele>
        <time>2021-03-20T17:04:39Z</time>
      </trkpt>
      <trkpt lat="58.06872" lon="-5.25643">
        <ele>50.31</ele>
        <time>2021-03-20T17:04:42Z</time>
      </trkpt>
      <trkpt lat="58.06904" lon="-5.256">
        <ele>52.88</ele>
        <time>2021-03-20T17:04:45Z</time>
      </trkpt>
      <trkpt lat="58.06947" lon="-5.25553">
        <ele>58.81</ele>
        <time>2021-03-20T17:04:47Z</time>
      </trkpt>
      <trkpt lat="58.06991" lon="-5.25447">
        <ele>63.49</ele>
        <time>2021-03-20T17:04:50Z</time>
      </trkpt>
      <trkpt lat="58.07007" lon="-5.2538">
        <ele>64.16</ele>
        <time>2021-03-20T17:04:53Z</time>
      </trkpt>
      <trkpt lat="58.07045" lon="-5.25309">
        <ele>71.56</ele>
        <time>2021-03-20T17:04:55Z</time>
      </trkpt>
      <trkpt lat="58.07064" lon="-5.25237">
        <ele>74.85</ele>
        <time>2021-03-20T17:04:58Z</time>
      </trkpt>
      <trkpt lat="58.07078" lon="-5.25199">
        <ele>76.67</ele>
        <time>2021-03-20T17:05:01Z</time>
      </trkpt>
      <trkpt lat="58.07152" lon="-5.25108">
        <ele>82.02</ele>
        <time>2021-03-20T17:05:04Z</time>
      </trkpt>
      <trkpt lat="58.07191" lon="-5.25083">
        <ele>86.54</ele>
        <time>2021-03-20T17:05:06Z</time>
      </trkpt>
      <trkpt lat="58.0736" lon="-5.24905">
        <ele>98.49</ele>
        <time>2021-03-20T17:05:09Z</time>
      </trkpt>
      <trkpt lat="58.074" lon="-5.2488">
        <ele>98.59</ele>
        <time>2021-03-20T17:05:12Z</time>
      </trkpt>
      <trkpt lat="58.07438" lon="-5.24874">
        <ele>98.65</ele>
        <time>2021-03-20T17:05:14Z</time>
      </trkpt>
      <trkpt lat="58.07472" lon="-5.24879">
        <ele>99</ele>
        <time>2021-03-20T17:05:17Z</time>
      </trkpt>
      <trkpt lat="58.07495" lon="-5.24876">
        <ele>99.81</ele>
        <time>2021-03-20T17:05:20Z</time>
      </trkpt>
      <trkpt lat="58.07529" lon="-5.24847">
        <ele>99.01</ele>
        <time>2021-03-20T17:05:23Z</time>
      </trkpt>
      <trkpt lat="58.07562" lon="-5.2484">
        <ele>98</ele>
        <time>2021-03-20T17:05:25Z</time>
      </trkpt>
      <trkpt lat="58.07598" lon="-5.24853">
        <ele>98.41</ele>
        <time>2021-03-20T17:05:28Z</time>
      </trkpt>
      <trkpt lat="58.07621" lon="-5.24853">
        <ele>96.28</ele>
        <time>2021-03-20T17:05:31Z</time>
      </trkpt>
      <trkpt lat="58.07642" lon="-5.24833">
        <ele>93.87</ele>
        <time>2021-03-20T17:05:33Z</time>
      </trkpt>
      <trkpt lat="58.07658" lon="-5.24794">
        <ele>93.17</ele>
        <time>2021-03-20T17:05:36Z</time>
      </trkpt>
      <trkpt lat="58.07666" lon="-5.24767">
        <ele>93.01</ele>
        <time>2021-03-20T17:05:39Z</time>
      </trkpt>
      <trkpt lat="58.07715" lon="-5.24688">
        <ele>93.57</ele>
        <time>2021-03-20T17:05:42Z</time>
      </trkpt>
      <trkpt lat="58.07742" lon="-5.24663">
        <ele>92.8</ele>
        <time>2021-03-20T17:05:44Z</time>
      </trkpt>
      <trkpt lat="58.07786" lon="-5.24634">
        <ele>91.56</ele>
        <time>2021-03-20T17:05:47Z</time>
      </trkpt>
      <trkpt lat="58.07847" lon="-5.24589">
        <ele>91.4</ele>
        <time>2021-03-20T17:05:50Z</time>
      </trkpt>
      <trkpt lat="58.0787" lon="-5.24541">
        <ele>90.68</ele>
        <time>2021-03-20T17:05:52Z</time>
      </trkpt>
      <trkpt lat="58.07879" lon="-5.24504">
        <ele>89.78</ele>
        <time>2021-03-20T17:05:55Z</time>
      </trkpt>
      <trkpt lat="58.07891" lon="-5.24385">
        <ele>89.93</ele>
        <time>2021-03-20T17:05:58Z</time>
      </trkpt>
      <trkpt lat="58.07909" lon="-5.24287">
        <ele>91.69</ele>
        <time>2021-03-20T17:06:01Z</time>
      </trkpt>
      <trkpt lat="58.07923" lon="-5.24258">
        <ele>92.48</ele>
        <time>2021-03-20T17:06:03Z</time>
      </trkpt>
      <trkpt lat="58.07964" lon="-5.24232">
        <ele>91.46</ele>
        <time>2021-03-20T17:06:06Z</time>
      </trkpt>
      <trkpt lat="58.07968" lon="-5.24218">
        <ele>91.54</ele>
        <time>2021-03-20T17:06:09Z</time>
      </trkpt>
      <trkpt lat="58.07971" lon="-5.24147">
        <ele>95.44</ele>
        <time>2021-03-20T17:06:11Z</time>
      </trkpt>
      <trkpt lat="58.07977" lon="-5.24125">
        <ele>97.25</ele>
        <time>2021-03-20T17:06:14Z</time>
      </trkpt>
      <trkpt lat="58.07987" lon="-5.2412">
        <ele>98.25</ele>
        <time>2021-03-20T17:06:17Z</time>
      </trkpt>
      <trkpt lat="58.08008" lon="-5.24134">
        <ele>98.08</ele>
        <time>2021-03-20T17:06:19Z</time>
      </trkpt>
      <trkpt lat="58.08027" lon="-5.24132">
        <ele>99.66</ele>
        <time>2021-03-20T17:06:22Z</time>
      </trkpt>
      <trkpt lat="58.08054" lon="-5.24102">
        <ele>104.56</ele>
        <time>2021-03-20T17:06:25Z</time>
      </trkpt>
      <trkpt lat="58.08068" lon="-5.2407">
        <ele>108.08</ele>
        <time>2021-03-20T17:06:28Z</time>
      </trkpt>
      <trkpt lat="58.08134" lon="-5.23842">
        <ele>106.89</ele>
        <time>2021-03-20T17:06:30Z</time>
      </trkpt>
      <trkpt lat="58.08176" lon="-5.23764">
        <ele>103.51</ele>
        <time>2021-03-20T17:06:33Z</time>
      </trkpt>
      <trkpt lat="58.08221" lon="-5.23708">
        <ele>101.84</ele>
        <time>2021-03-20T17:06:36Z</time>
      </trkpt>
      <trkpt lat="58.08251" lon="-5.23684">
        <ele>100.86</ele>
        <time>2021-03-20T17:06:38Z</time>
      </trkpt>
      <trkpt lat="58.08297" lon="-5.2368">
        <ele>105.16</ele>
        <time>2021-03-20T17:06:41Z</time>
      </trkpt>
      <trkpt lat="58.0832" lon="-5.23675">
        <ele>107.33</ele>
        <time>2021-03-20T17:06:44Z</time>
      </trkpt>
      <trkpt lat="58.08354" lon="-5.23659">
        <ele>108.93</ele>
        <time>2021-03-20T17:06:47Z</time>
      </trkpt>
      <trkpt lat="58.084" lon="-5.23645">
        <ele>109.31</ele>
        <time>2021-03-20T17:06:49Z</time>
      </trkpt>
      <trkpt lat="58.08427" lon="-5.23615">
        <ele>105.07</ele>
        <time>2021-03-20T17:06:52Z</time>
      </trkpt>
      <trkpt lat="58.08467" lon="-5.23579">
        <ele>102.34</ele>
        <time>2021-03-20T17:06:55Z</time>
      </trkpt>
      <trkpt lat="58.0851" lon="-5.23535">
        <ele>99.63</ele>
        <time>2021-03-20T17:06:57Z</time>
      </trkpt>
      <trkpt lat="58.08542" lon="-5.23511">
        <ele>96.44</ele>
        <time>2021-03-20T17:07:00Z</time>
      </trkpt>
      <trkpt lat="58.08558" lon="-5.23512">
        <ele>95.62</ele>
        <time>2021-03-20T17:07:03Z</time>
      </trkpt>
      <trkpt lat="58.08593" lon="-5.23535">
        <ele>96.97</ele>
        <time>2021-03-20T17:07:06Z</time>
      </trkpt>
      <trkpt lat="58.08618" lon="-5.23532">
        <ele>97.85</ele>
        <time>2021-03-20T17:07:08Z</time>
      </trkpt>
      <trkpt lat="58.0863" lon="-5.2351">
        <ele>96.47</ele>
        <time>2021-03-20T17:07:11Z</time>
      </trkpt>
      <trkpt lat="58.08658" lon="-5.23419">
        <ele>91.11</ele>
        <time>2021-03-20T17:07:14Z</time>
      </trkpt>
      <trkpt lat="58.08702" lon="-5.23343">
        <ele>90.47</ele>
        <time>2021-03-20T17:07:16Z</time>
      </trkpt>
      <trkpt lat="58.08724" lon="-5.23316">
        <ele>90.19</ele>
        <time>2021-03-20T17:07:19Z</time>
      </trkpt>
      <trkpt lat="58.08766" lon="-5.23292">
        <ele>88.06</ele>
        <time>2021-03-20T17:07:22Z</time>
      </trkpt>
      <trkpt lat="58.08785" lon="-5.23287">
        <ele>86.83</ele>
        <time>2021-03-20T17:07:25Z</time>
      </trkpt>
      <trkpt lat="58.08805" lon="-5.23295">
        <ele>86.6</ele>
        <time>2021-03-20T17:07:27Z</time>
      </trkpt>
      <trkpt lat="58.08821" lon="-5.23318">
        <ele>88.51</ele>
        <time>2021-03-20T17:07:30Z</time>
      </trkpt>
      <trkpt lat="58.08833" lon="-5.23321">
        <ele>88.18</ele>
        <time>2021-03-20T17:07:33Z</time>
      </trkpt>
      <trkpt lat="58.0884" lon="-5.23312">
        <ele>88.55</ele>
        <time>2021-03-20T17:07:35Z</time>
      </trkpt>
      <trkpt lat="58.0885" lon="-5.23247">
        <ele>86.07</ele>
        <time>2021-03-20T17:07:38Z</time>
      </trkpt>
      <trkpt lat="58.08866" lon="-5.23208">
        <ele>84.57</ele>
        <time>2021-03-20T17:07:41Z</time>
      </trkpt>
      <trkpt lat="58.08894" lon="-5.23173">
        <ele>84.01</ele>
        <time>2021-03-20T17:07:44Z</time>
      </trkpt>
      <trkpt lat="58.08958" lon="-5.23182">
        <ele>87.66</ele>
        <time>2021-03-20T17:07:46Z</time>
      </trkpt>
      <trkpt lat="58.09006" lon="-5.23202">
        <ele>87.14</ele>
        <time>2021-03-20T17:07:49Z</time>
      </trkpt>
      <trkpt lat="58.0903" lon="-5.23228">
        <ele>87.07</ele>
        <time>2021-03-20T17:07:52Z</time>
      </trkpt>
      <trkpt lat="58.09052" lon="-5.23288">
        <ele>87.65</ele>
        <time>2021-03-20T17:07:54Z</time>
      </trkpt>
      <trkpt lat="58.0909" lon="-5.23348">
        <ele>83.8</ele>
        <time>2021-03-20T17:07:57Z</time>
      </trkpt>
      <trkpt lat="58.09116" lon="-5.23374">
        <ele>81.18</ele>
        <time>2021-03-20T17:08:00Z</time>
      </trkpt>
      <trkpt lat="58.09134" lon="-5.23405">
        <ele>81.88</ele>
        <time>2021-03-20T17:08:03Z</time>
      </trkpt>
      <trkpt lat="58.09147" lon="-5.23418">
        <ele>82.22</ele>
        <time>2021-03-20T17:08:05Z</time>
      </trkpt>
      <trkpt lat="58.09164" lon="-5.23424">
        <ele>81.18</ele>
        <time>2021-03-20T17:08:08Z</time>
      </trkpt>
      <trkpt lat="58.09183" lon="-5.2342">
        <ele>80.95</ele>
        <time>2021-03-20T17:08:11Z</time>
      </trkpt>
      <trkpt lat="58.09209" lon="-5.23382">
        <ele>79.43</ele>
        <time>2021-03-20T17:08:13Z</time>
      </trkpt>
      <trkpt lat="58.09241" lon="-5.23322">
        <ele>75.96</ele>
        <time>2021-03-20T17:08:16Z</time>
      </trkpt>
      <trkpt lat="58.09311" lon="-5.23243">
        <ele>74.79</ele>
        <time>2021-03-20T17:08:19Z</time>
      </trkpt>
      <trkpt lat="58.09399" lon="-5.23191">
        <ele>73.27</ele>
        <time>2021-03-20T17:08:21Z</time>
      </trkpt>
      <trkpt lat="58.09466" lon="-5.23141">
        <ele>64.77</ele>
        <time>2021-03-20T17:08:24Z</time>
      </trkpt>
      <trkpt lat="58.09492" lon="-5.23142">
        <ele>61.48</ele>
        <time>2021-03-20T17:08:27Z</time>
      </trkpt>
      <trkpt lat="58.09519" lon="-5.23151">
        <ele>60.31</ele>
        <time>2021-03-20T17:08:30Z</time>
      </trkpt>
      <trkpt lat="58.09548" lon="-5.23155">
        <ele>58.68</ele>
        <time>2021-03-20T17:08:32Z</time>
      </trkpt>
      <trkpt lat="58.09566" lon="-5.23162">
        <ele>57.53</ele>
        <time>2021-03-20T17:08:35Z</time>
      </trkpt>
      <trkpt lat="58.09609" lon="-5.2321">
        <ele>52.13</ele>
        <time>2021-03-20T17:08:38Z</time>
      </trkpt>
      <trkpt lat="58.09629" lon="-5.23245">
        <ele>48.61</ele>
        <time>2021-03-20T17:08:40Z</time>
      </trkpt>
      <trkpt lat="58.09637" lon="-5.23271">
        <ele>46.68</ele>
        <time>2021-03-20T17:08:43Z</time>
      </trkpt>
      <trkpt lat="58.0964" lon="-5.23321">
        <ele>46.7</ele>
        <time>2021-03-20T17:08:46Z</time>
      </trkpt>
      <trkpt lat="58.09647" lon="-5.23361">
        <ele>44.83</ele>
        <time>2021-03-20T17:08:49Z</time>
      </trkpt>
      <trkpt lat="58.09671" lon="-5.23393">
        <ele>41.85</ele>
        <time>2021-03-20T17:08:51Z</time>
      </trkpt>
      <trkpt lat="58.09675" lon="-5.23414">
        <ele>41.11</ele>
        <time>2021-03-20T17:08:54Z</time>
      </trkpt>
      <trkpt lat="58.09675" lon="-5.23438">
        <ele>41</ele>
        <time>2021-03-20T17:08:57Z</time>
      </trkpt>
      <trkpt lat="58.09648" lon="-5.23554">
        <ele>36.7</ele>
        <time>2021-03-20T17:08:59Z</time>
      </trkpt>
      <trkpt lat="58.09618" lon="-5.23653">
        <ele>37.96</ele>
        <time>2021-03-20T17:09:02Z</time>
      </trkpt>
      <trkpt lat="58.0957" lon="-5.23793">
        <ele>34.7</ele>
        <time>2021-03-20T17:09:05Z</time>
      </trkpt>
      <trkpt lat="58.09507" lon="-5.23966">
        <ele>32.46</ele>
        <time>2021-03-20T17:09:08Z</time>
      </trkpt>
      <trkpt lat="58.09419" lon="-5.24137">
        <ele>32.01</ele>
        <time>2021-03-20T17:09:10Z</time>
      </trkpt>
      <trkpt lat="58.09396" lon="-5.24164">
        <ele>32.35</ele>
        <time>2021-03-20T17:09:13Z</time>
      </trkpt>
      <trkpt lat="58.09331" lon="-5.24198">
        <ele>31.03</ele>
        <time>2021-03-20T17:09:16Z</time>
      </trkpt>
      <trkpt lat="58.09313" lon="-5.24246">
        <ele>31.66</ele>
        <time>2021-03-20T17:09:18Z</time>
      </trkpt>
      <trkpt lat="58.09305" lon="-5.24311">
        <ele>32.89</ele>
        <time>2021-03-20T17:09:21Z</time>
      </trkpt>
      <trkpt lat="58.09301" lon="-5.24378">
        <ele>32.49</ele>
        <time>2021-03-20T17:09:24Z</time>
      </trkpt>
      <trkpt lat="58.09294" lon="-5.2443">
        <ele>31.5</ele>
        <time>2021-03-20T17:09:27Z</time>
      </trkpt>
      <trkpt lat="58.09295" lon="-5.24455">
        <ele>32.21</ele>
        <time>2021-03-20T17:09:29Z</time>
      </trkpt>
      <trkpt lat="58.09383" lon="-5.24627">
        <ele>25.78</ele>
        <time>2021-03-20T17:09:32Z</time>
      </trkpt>
      <trkpt lat="58.09437" lon="-5.24705">
        <ele>21.37</ele>
        <time>2021-03-20T17:09:35Z</time>
      </trkpt>
      <trkpt lat="58.09575" lon="-5.2505">
        <ele>20.36</ele>
        <time>2021-03-20T17:09:37Z</time>
      </trkpt>
      <trkpt lat="58.09603" lon="-5.2515">
        <ele>21.42</ele>
        <time>2021-03-20T17:09:40Z</time>
      </trkpt>
      <trkpt lat="58.09636" lon="-5.25247">
        <ele>21.09</ele>
        <time>2021-03-20T17:09:43Z</time>
      </trkpt>
      <trkpt lat="58.0965" lon="-5.25311">
        <ele>23.19</ele>
        <time>2021-03-20T17:09:46Z</time>
      </trkpt>
      <trkpt lat="58.09659" lon="-5.25392">
        <ele>24.92</ele>
        <time>2021-03-20T17:09:48Z</time>
      </trkpt>
      <trkpt lat="58.09663" lon="-5.25418">
        <ele>24.19</ele>
        <time>2021-03-20T17:09:51Z</time>
      </trkpt>
      <trkpt lat="58.09669" lon="-5.25438">
        <ele>23.12</ele>
        <time>2021-03-20T17:09:54Z</time>
      </trkpt>
      <trkpt lat="58.09713" lon="-5.25498">
        <ele>22.21</ele>
        <time>2021-03-20T17:09:56Z</time>
      </trkpt>
      <trkpt lat="58.09756" lon="-5.25569">
        <ele>17.47</ele>
        <time>2021-03-20T17:09:59Z</time>
      </trkpt>
      <trkpt lat="58.09787" lon="-5.25615">
        <ele>13.75</ele>
        <time>2021-03-20T17:10:02Z</time>
      </trkpt>
      <trkpt lat="58.09851" lon="-5.25781">
        <ele>14.78</ele>
        <time>2021-03-20T17:10:05Z</time>
      </trkpt>
      <trkpt lat="58.09869" lon="-5.25838">
        <ele>15.46</ele>
        <time>2021-03-20T17:10:07Z</time>
      </trkpt>
      <trkpt lat="58.09888" lon="-5.25946">
        <ele>13.96</ele>
        <time>2021-03-20T17:10:10Z</time>
      </trkpt>
      <trkpt lat="58.09916" lon="-5.26048">
        <ele>14.32</ele>
        <time>2021-03-20T17:10:13Z</time>
      </trkpt>
      <trkpt lat="58.09979" lon="-5.26153">
        <ele>17.19</ele>
        <time>2021-03-20T17:10:15Z</time>
      </trkpt>
      <trkpt lat="58.09988" lon="-5.26195">
        <ele>19.76</ele>
        <time>2021-03-20T17:10:18Z</time>
      </trkpt>
      <trkpt lat="58.09983" lon="-5.2623">
        <ele>18.67</ele>
        <time>2021-03-20T17:10:21Z</time>
      </trkpt>
      <trkpt lat="58.09983" lon="-5.26251">
        <ele>18.16</ele>
        <time>2021-03-20T17:10:23Z</time>
      </trkpt>
      <trkpt lat="58.10011" lon="-5.26318">
        <ele>18.49</ele>
        <time>2021-03-20T17:10:26Z</time>
      </trkpt>
      <trkpt lat="58.10018" lon="-5.26365">
        <ele>17.21</ele>
        <time>2021-03-20T17:10:29Z</time>
      </trkpt>
      <trkpt lat="58.10019" lon="-5.26413">
        <ele>16.63</ele>
        <time>2021-03-20T17:10:32Z</time>
      </trkpt>
      <trkpt lat="58.10066" lon="-5.26532">
        <ele>13.28</ele>
        <time>2021-03-20T17:10:34Z</time>
      </trkpt>
      <trkpt lat="58.10087" lon="-5.26564">
        <ele>12.5</ele>
        <time>2021-03-20T17:10:37Z</time>
      </trkpt>
      <trkpt lat="58.10146" lon="-5.26645">
        <ele>11.2</ele>
        <time>2021-03-20T17:10:40Z</time>
      </trkpt>
      <trkpt lat="58.10187" lon="-5.26662">
        <ele>13.22</ele>
        <time>2021-03-20T17:10:42Z</time>
      </trkpt>
      <trkpt lat="58.10198" lon="-5.26672">
        <ele>12.88</ele>
        <time>2021-03-20T17:10:45Z</time>
      </trkpt>
      <trkpt lat="58.10207" lon="-5.26699">
        <ele>10.7</ele>
        <time>2021-03-20T17:10:48Z</time>
      </trkpt>
      <trkpt lat="58.1024" lon="-5.26743">
        <ele>9.52</ele>
        <time>2021-03-20T17:10:51Z</time>
      </trkpt>
      <trkpt lat="58.10248" lon="-5.26752">
        <ele>9.33</ele>
        <time>2021-03-20T17:10:53Z</time>
      </trkpt>
      <trkpt lat="58.10274" lon="-5.26764">
        <ele>11.42</ele>
        <time>2021-03-20T17:10:56Z</time>
      </trkpt>
      <trkpt lat="58.10283" lon="-5.26788">
        <ele>9.88</ele>
        <time>2021-03-20T17:10:59Z</time>
      </trkpt>
      <trkpt lat="58.10289" lon="-5.26795">
        <ele>10.15</ele>
        <time>2021-03-20T17:11:01Z</time>
      </trkpt>
      <trkpt lat="58.10312" lon="-5.26809">
        <ele>13.28</ele>
        <time>2021-03-20T17:11:04Z</time>
      </trkpt>
      <trkpt lat="58.1032" lon="-5.2682">
        <ele>14.11</ele>
        <time>2021-03-20T17:11:07Z</time>
      </trkpt>
      <trkpt lat="58.10322" lon="-5.26829">
        <ele>13.72</ele>
        <time>2021-03-20T17:11:10Z</time>
      </trkpt>
      <trkpt lat="58.10322" lon="-5.26858">
        <ele>10.82</ele>
        <time>2021-03-20T17:11:12Z</time>
      </trkpt>
      <trkpt lat="58.10325" lon="-5.26872">
        <ele>10.27</ele>
        <time>2021-03-20T17:11:15Z</time>
      </trkpt>
      <trkpt lat="58.10335" lon="-5.269">
        <ele>9.04</ele>
        <time>2021-03-20T17:11:18Z</time>
      </trkpt>
      <trkpt lat="58.10342" lon="-5.26912">
        <ele>8.42</ele>
        <time>2021-03-20T17:11:20Z</time>
      </trkpt>
      <trkpt lat="58.10351" lon="-5.26918">
        <ele>8.71</ele>
        <time>2021-03-20T17:11:23Z</time>
      </trkpt>
      <trkpt lat="58.1038" lon="-5.26929">
        <ele>8.99</ele>
        <time>2021-03-20T17:11:26Z</time>
      </trkpt>
      <trkpt lat="58.10398" lon="-5.26925">
        <ele>9.46</ele>
        <time>2021-03-20T17:11:29Z</time>
      </trkpt>
      <trkpt lat="58.10421" lon="-5.26912">
        <ele>10.37</ele>
        <time>2021-03-20T17:11:31Z</time>
      </trkpt>
      <trkpt lat="58.10455" lon="-5.26876">
        <ele>11.75</ele>
        <time>2021-03-20T17:11:34Z</time>
      </trkpt>
      <trkpt lat="58.10479" lon="-5.26867">
        <ele>9.97</ele>
        <time>2021-03-20T17:11:37Z</time>
      </trkpt>
      <trkpt lat="58.10503" lon="-5.2687">
        <ele>7.36</ele>
        <time>2021-03-20T17:11:39Z</time>
      </trkpt>
      <trkpt lat="58.1052" lon="-5.26857">
        <ele>10.67</ele>
        <time>2021-03-20T17:11:42Z</time>
      </trkpt>
      <trkpt lat="58.10526" lon="-5.26857">
        <ele>11.31</ele>
        <time>2021-03-20T17:11:45Z</time>
      </trkpt>
      <trkpt lat="58.10537" lon="-5.26871">
        <ele>12.53</ele>
        <time>2021-03-20T17:11:48Z</time>
      </trkpt>
      <trkpt lat="58.10549" lon="-5.26905">
        <ele>12.63</ele>
        <time>2021-03-20T17:11:50Z</time>
      </trkpt>
      <trkpt lat="58.10554" lon="-5.26931">
        <ele>11.15</ele>
        <time>2021-03-20T17:11:53Z</time>
      </trkpt>
      <trkpt lat="58.10559" lon="-5.26994">
        <ele>7.93</ele>
        <time>2021-03-20T17:11:56Z</time>
      </trkpt>
      <trkpt lat="58.10566" lon="-5.27013">
        <ele>8.01</ele>
        <time>2021-03-20T17:11:58Z</time>
      </trkpt>
      <trkpt lat="58.10576" lon="-5.27024">
        <ele>8.48</ele>
        <time>2021-03-20T17:12:01Z</time>
      </trkpt>
      <trkpt lat="58.10607" lon="-5.27019">
        <ele>12.8</ele>
        <time>2021-03-20T17:12:04Z</time>
      </trkpt>
      <trkpt lat="58.10614" lon="-5.27029">
        <ele>12.54</ele>
        <time>2021-03-20T17:12:07Z</time>
      </trkpt>
      <trkpt lat="58.10632" lon="-5.27068">
        <ele>11.22</ele>
        <time>2021-03-20T17:12:09Z</time>
      </trkpt>
      <trkpt lat="58.10648" lon="-5.27095">
        <ele>12.38</ele>
        <time>2021-03-20T17:12:12Z</time>
      </trkpt>
      <trkpt lat="58.10684" lon="-5.27121">
        <ele>17.99</ele>
        <time>2021-03-20T17:12:15Z</time>
      </trkpt>
      <trkpt lat="58.10703" lon="-5.27131">
        <ele>20.84</ele>
        <time>2021-03-20T17:12:17Z</time>
      </trkpt>
      <trkpt lat="58.10712" lon="-5.27145">
        <ele>20.28</ele>
        <time>2021-03-20T17:12:20Z</time>
      </trkpt>
      <trkpt lat="58.10733" lon="-5.27189">
        <ele>17.09</ele>
        <time>2021-03-20T17:12:23Z</time>
      </trkpt>
      <trkpt lat="58.10738" lon="-5.27217">
        <ele>14.9</ele>
        <time>2021-03-20T17:12:25Z</time>
      </trkpt>
      <trkpt lat="58.10742" lon="-5.27283">
        <ele>16.04</ele>
        <time>2021-03-20T17:12:28Z</time>
      </trkpt>
      <trkpt lat="58.10726" lon="-5.27347">
        <ele>14.21</ele>
        <time>2021-03-20T17:12:31Z</time>
      </trkpt>
      <trkpt lat="58.10728" lon="-5.27367">
        <ele>13.79</ele>
        <time>2021-03-20T17:12:34Z</time>
      </trkpt>
      <trkpt lat="58.10744" lon="-5.27446">
        <ele>11.03</ele>
        <time>2021-03-20T17:12:36Z</time>
      </trkpt>
      <trkpt lat="58.1076" lon="-5.27478">
        <ele>9.52</ele>
        <time>2021-03-20T17:12:39Z</time>
      </trkpt>
      <trkpt lat="58.10771" lon="-5.27483">
        <ele>9.9</ele>
        <time>2021-03-20T17:12:42Z</time>
      </trkpt>
      <trkpt lat="58.10788" lon="-5.27485">
        <ele>10.36</ele>
        <time>2021-03-20T17:12:44Z</time>
      </trkpt>
      <trkpt lat="58.10825" lon="-5.27475">
        <ele>11.82</ele>
        <time>2021-03-20T17:12:47Z</time>
      </trkpt>
      <trkpt lat="58.10863" lon="-5.2746">
        <ele>11.73</ele>
        <time>2021-03-20T17:12:50Z</time>
      </trkpt>
      <trkpt lat="58.10871" lon="-5.27452">
        <ele>12.22</ele>
        <time>2021-03-20T17:12:53Z</time>
      </trkpt>
      <trkpt lat="58.10945" lon="-5.27341">
        <ele>16.13</ele>
        <time>2021-03-20T17:12:55Z</time>
      </trkpt>
      <trkpt lat="58.1096" lon="-5.27278">
        <ele>18.25</ele>
        <time>2021-03-20T17:12:58Z</time>
      </trkpt>
      <trkpt lat="58.11018" lon="-5.27197">
        <ele>26.52</ele>
        <time>2021-03-20T17:13:01Z</time>
      </trkpt>
      <trkpt lat="58.11084" lon="-5.27175">
        <ele>28.76</ele>
        <time>2021-03-20T17:13:03Z</time>
      </trkpt>
      <trkpt lat="58.11099" lon="-5.27151">
        <ele>31.87</ele>
        <time>2021-03-20T17:13:06Z</time>
      </trkpt>
      <trkpt lat="58.11122" lon="-5.27082">
        <ele>41.45</ele>
        <time>2021-03-20T17:13:09Z</time>
      </trkpt>
      <trkpt lat="58.11155" lon="-5.27003">
        <ele>47.38</ele>
        <time>2021-03-20T17:13:12Z</time>
      </trkpt>
      <trkpt lat="58.1122" lon="-5.26886">
        <ele>56.86</ele>
        <time>2021-03-20T17:13:14Z</time>
      </trkpt>
      <trkpt lat="58.11248" lon="-5.26872">
        <ele>58.51</ele>
        <time>2021-03-20T17:13:17Z</time>
      </trkpt>
      <trkpt lat="58.11281" lon="-5.26849">
        <ele>62.63</ele>
        <time>2021-03-20T17:13:20Z</time>
      </trkpt>
      <trkpt lat="58.11302" lon="-5.26819">
        <ele>66.49</ele>
        <time>2021-03-20T17:13:22Z</time>
      </trkpt>
      <trkpt lat="58.11439" lon="-5.26558">
        <ele>69.19</ele>
        <time>2021-03-20T17:13:25Z</time>
      </trkpt>
      <trkpt lat="58.1147" lon="-5.26416">
        <ele>68.08</ele>
        <time>2021-03-20T17:13:28Z</time>
      </trkpt>
      <trkpt lat="58.11512" lon="-5.26204">
        <ele>69.18</ele>
        <time>2021-03-20T17:13:31Z</time>
      </trkpt>
      <trkpt lat="58.11537" lon="-5.26123">
        <ele>70.28</ele>
        <time>2021-03-20T17:13:33Z</time>
      </trkpt>
      <trkpt lat="58.1155" lon="-5.26107">
        <ele>69.72</ele>
        <time>2021-03-20T17:13:36Z</time>
      </trkpt>
      <trkpt lat="58.11649" lon="-5.26064">
        <ele>69.33</ele>
        <time>2021-03-20T17:13:39Z</time>
      </trkpt>
      <trkpt lat="58.11762" lon="-5.2592">
        <ele>73.23</ele>
        <time>2021-03-20T17:13:41Z</time>
      </trkpt>
      <trkpt lat="58.11847" lon="-5.25741">
        <ele>75.69</ele>
        <time>2021-03-20T17:13:44Z</time>
      </trkpt>
      <trkpt lat="58.11859" lon="-5.25699">
        <ele>69.05</ele>
        <time>2021-03-20T17:13:47Z</time>
      </trkpt>
      <trkpt lat="58.11859" lon="-5.25668">
        <ele>65.75</ele>
        <time>2021-03-20T17:13:50Z</time>
      </trkpt>
      <trkpt lat="58.1184" lon="-5.25553">
        <ele>61.25</ele>
        <time>2021-03-20T17:13:52Z</time>
      </trkpt>
      <trkpt lat="58.11846" lon="-5.25527">
        <ele>60.2</ele>
        <time>2021-03-20T17:13:55Z</time>
      </trkpt>
      <trkpt lat="58.11911" lon="-5.25488">
        <ele>49.58</ele>
        <time>2021-03-20T17:13:58Z</time>
      </trkpt>
      <trkpt lat="58.11944" lon="-5.2546">
        <ele>48.46</ele>
        <time>2021-03-20T17:14:00Z</time>
      </trkpt>
      <trkpt lat="58.11963" lon="-5.254">
        <ele>45.77</ele>
        <time>2021-03-20T17:14:03Z</time>
      </trkpt>
      <trkpt lat="58.11983" lon="-5.25362">
        <ele>40.33</ele>
        <time>2021-03-20T17:14:06Z</time>
      </trkpt>
      <trkpt lat="58.12006" lon="-5.25334">
        <ele>35.97</ele>
        <time>2021-03-20T17:14:09Z</time>
      </trkpt>
      <trkpt lat="58.12009" lon="-5.25326">
        <ele>35.56</ele>
        <time>2021-03-20T17:14:11Z</time>
      </trkpt>
      <trkpt lat="58.12009" lon="-5.25326">
        <ele>35.56</ele>
        <time>2021-03-20T17:14:11Z</time>
      </trkpt>
      <trkpt lat="58.12011" lon="-5.25316">
        <ele>35.47</ele>
        <time>2021-03-20T17:14:14Z</time>
      </trkpt>
      <trkpt lat="58.1201" lon="-5.25302">
        <ele>35.93</ele>
        <time>2021-03-20T17:14:16Z</time>
      </trkpt>
      <trkpt lat="58.12015" lon="-5.25268">
        <ele>36.17</ele>
        <time>2021-03-20T17:14:18Z</time>
      </trkpt>
      <trkpt lat="58.12056" lon="-5.25219">
        <ele>28.03</ele>
        <time>2021-03-20T17:14:20Z</time>
      </trkpt>
      <trkpt lat="58.12076" lon="-5.25204">
        <ele>21.92</ele>
        <time>2021-03-20T17:14:23Z</time>
      </trkpt>
      <trkpt lat="58.12084" lon="-5.25194">
        <ele>19.85</ele>
        <time>2021-03-20T17:14:25Z</time>
      </trkpt>
      <trkpt lat="58.12106" lon="-5.25156">
        <ele>16.88</ele>
        <time>2021-03-20T17:14:27Z</time>
      </trkpt>
      <trkpt lat="58.12143" lon="-5.25143">
        <ele>17.03</ele>
        <time>2021-03-20T17:14:30Z</time>
      </trkpt>
      <trkpt lat="58.12152" lon="-5.25146">
        <ele>19.87</ele>
        <time>2021-03-20T17:14:32Z</time>
      </trkpt>
      <trkpt lat="58.12155" lon="-5.25154">
        <ele>20.68</ele>
        <time>2021-03-20T17:14:34Z</time>
      </trkpt>
      <trkpt lat="58.12157" lon="-5.25163">
        <ele>21.17</ele>
        <time>2021-03-20T17:14:36Z</time>
      </trkpt>
      <trkpt lat="58.12158" lon="-5.2524">
        <ele>20.58</ele>
        <time>2021-03-20T17:14:39Z</time>
      </trkpt>
      <trkpt lat="58.12149" lon="-5.25361">
        <ele>19.17</ele>
        <time>2021-03-20T17:14:41Z</time>
      </trkpt>
      <trkpt lat="58.12148" lon="-5.25491">
        <ele>17.81</ele>
        <time>2021-03-20T17:14:43Z</time>
      </trkpt>
      <trkpt lat="58.1215" lon="-5.25541">
        <ele>17.61</ele>
        <time>2021-03-20T17:14:46Z</time>
      </trkpt>
      <trkpt lat="58.12159" lon="-5.25594">
        <ele>17.54</ele>
        <time>2021-03-20T17:14:48Z</time>
      </trkpt>
      <trkpt lat="58.12203" lon="-5.25711">
        <ele>10.4</ele>
        <time>2021-03-20T17:14:50Z</time>
      </trkpt>
      <trkpt lat="58.12201" lon="-5.25777">
        <ele>8.92</ele>
        <time>2021-03-20T17:14:52Z</time>
      </trkpt>
      <trkpt lat="58.12203" lon="-5.25847">
        <ele>8.74</ele>
        <time>2021-03-20T17:14:55Z</time>
      </trkpt>
      <trkpt lat="58.12215" lon="-5.25939">
        <ele>9.45</ele>
        <time>2021-03-20T17:14:57Z</time>
      </trkpt>
      <trkpt lat="58.1221" lon="-5.2605">
        <ele>8.56</ele>
        <time>2021-03-20T17:14:59Z</time>
      </trkpt>
      <trkpt lat="58.12219" lon="-5.26118">
        <ele>10.79</ele>
        <time>2021-03-20T17:15:02Z</time>
      </trkpt>
      <trkpt lat="58.12238" lon="-5.26174">
        <ele>13.02</ele>
        <time>2021-03-20T17:15:04Z</time>
      </trkpt>
      <trkpt lat="58.12255" lon="-5.26302">
        <ele>11.55</ele>
        <time>2021-03-20T17:15:06Z</time>
      </trkpt>
      <trkpt lat="58.12271" lon="-5.26367">
        <ele>7.57</ele>
        <time>2021-03-20T17:15:09Z</time>
      </trkpt>
      <trkpt lat="58.12284" lon="-5.26409">
        <ele>8.1</ele>
        <time>2021-03-20T17:15:11Z</time>
      </trkpt>
      <trkpt lat="58.12298" lon="-5.26413">
        <ele>8.05</ele>
        <time>2021-03-20T17:15:13Z</time>
      </trkpt>
      <trkpt lat="58.12339" lon="-5.26404">
        <ele>6.79</ele>
        <time>2021-03-20T17:15:15Z</time>
      </trkpt>
      <trkpt lat="58.12386" lon="-5.26403">
        <ele>5.09</ele>
        <time>2021-03-20T17:15:18Z</time>
      </trkpt>
      <trkpt lat="58.12429" lon="-5.26407">
        <ele>5.89</ele>
        <time>2021-03-20T17:15:20Z</time>
      </trkpt>
      <trkpt lat="58.12456" lon="-5.26414">
        <ele>8.09</ele>
        <time>2021-03-20T17:15:22Z</time>
      </trkpt>
      <trkpt lat="58.12539" lon="-5.26467">
        <ele>7.92</ele>
        <time>2021-03-20T17:15:25Z</time>
      </trkpt>
      <trkpt lat="58.12575" lon="-5.26501">
        <ele>7.36</ele>
        <time>2021-03-20T17:15:27Z</time>
      </trkpt>
      <trkpt lat="58.12592" lon="-5.26533">
        <ele>7.81</ele>
        <time>2021-03-20T17:15:29Z</time>
      </trkpt>
      <trkpt lat="58.12615" lon="-5.2656">
        <ele>10.56</ele>
        <time>2021-03-20T17:15:31Z</time>
      </trkpt>
      <trkpt lat="58.12646" lon="-5.26567">
        <ele>14.67</ele>
        <time>2021-03-20T17:15:34Z</time>
      </trkpt>
      <trkpt lat="58.1268" lon="-5.26553">
        <ele>20.37</ele>
        <time>2021-03-20T17:15:36Z</time>
      </trkpt>
      <trkpt lat="58.12704" lon="-5.26524">
        <ele>23.94</ele>
        <time>2021-03-20T17:15:38Z</time>
      </trkpt>
      <trkpt lat="58.12719" lon="-5.26492">
        <ele>26.19</ele>
        <time>2021-03-20T17:15:41Z</time>
      </trkpt>
      <trkpt lat="58.12754" lon="-5.26376">
        <ele>32.17</ele>
        <time>2021-03-20T17:15:43Z</time>
      </trkpt>
      <trkpt lat="58.12765" lon="-5.26346">
        <ele>34.4</ele>
        <time>2021-03-20T17:15:45Z</time>
      </trkpt>
      <trkpt lat="58.12775" lon="-5.26318">
        <ele>35.96</ele>
        <time>2021-03-20T17:15:47Z</time>
      </trkpt>
      <trkpt lat="58.12805" lon="-5.26253">
        <ele>38.11</ele>
        <time>2021-03-20T17:15:50Z</time>
      </trkpt>
      <trkpt lat="58.12823" lon="-5.26225">
        <ele>38.06</ele>
        <time>2021-03-20T17:15:52Z</time>
      </trkpt>
      <trkpt lat="58.1284" lon="-5.26201">
        <ele>39.81</ele>
        <time>2021-03-20T17:15:54Z</time>
      </trkpt>
      <trkpt lat="58.12874" lon="-5.26163">
        <ele>43.24</ele>
        <time>2021-03-20T17:15:57Z</time>
      </trkpt>
      <trkpt lat="58.12889" lon="-5.2614">
        <ele>45.97</ele>
        <time>2021-03-20T17:15:59Z</time>
      </trkpt>
      <trkpt lat="58.12902" lon="-5.26106">
        <ele>46.27</ele>
        <time>2021-03-20T17:16:01Z</time>
      </trkpt>
      <trkpt lat="58.12921" lon="-5.26012">
        <ele>47.4</ele>
        <time>2021-03-20T17:16:03Z</time>
      </trkpt>
      <trkpt lat="58.13013" lon="-5.2575">
        <ele>53.48</ele>
        <time>2021-03-20T17:16:06Z</time>
      </trkpt>
      <trkpt lat="58.13036" lon="-5.25696">
        <ele>52.4</ele>
        <time>2021-03-20T17:16:08Z</time>
      </trkpt>
      <trkpt lat="58.13055" lon="-5.25664">
        <ele>50.06</ele>
        <time>2021-03-20T17:16:10Z</time>
      </trkpt>
      <trkpt lat="58.13066" lon="-5.25659">
        <ele>48.19</ele>
        <time>2021-03-20T17:16:13Z</time>
      </trkpt>
      <trkpt lat="58.13076" lon="-5.25667">
        <ele>46.32</ele>
        <time>2021-03-20T17:16:15Z</time>
      </trkpt>
      <trkpt lat="58.13091" lon="-5.25692">
        <ele>45.39</ele>
        <time>2021-03-20T17:16:17Z</time>
      </trkpt>
      <trkpt lat="58.13138" lon="-5.25796">
        <ele>46.37</ele>
        <time>2021-03-20T17:16:19Z</time>
      </trkpt>
      <trkpt lat="58.13179" lon="-5.25873">
        <ele>46.89</ele>
        <time>2021-03-20T17:16:22Z</time>
      </trkpt>
      <trkpt lat="58.13196" lon="-5.25886">
        <ele>44.79</ele>
        <time>2021-03-20T17:16:24Z</time>
      </trkpt>
      <trkpt lat="58.13264" lon="-5.25906">
        <ele>42.6</ele>
        <time>2021-03-20T17:16:26Z</time>
      </trkpt>
      <trkpt lat="58.13286" lon="-5.2592">
        <ele>43.62</ele>
        <time>2021-03-20T17:16:29Z</time>
      </trkpt>
      <trkpt lat="58.13296" lon="-5.2593">
        <ele>44.32</ele>
        <time>2021-03-20T17:16:31Z</time>
      </trkpt>
      <trkpt lat="58.13327" lon="-5.25977">
        <ele>46.22</ele>
        <time>2021-03-20T17:16:33Z</time>
      </trkpt>
      <trkpt lat="58.13391" lon="-5.26089">
        <ele>42.81</ele>
        <time>2021-03-20T17:16:35Z</time>
      </trkpt>
      <trkpt lat="58.13409" lon="-5.26125">
        <ele>41.51</ele>
        <time>2021-03-20T17:16:38Z</time>
      </trkpt>
      <trkpt lat="58.13415" lon="-5.26144">
        <ele>41</ele>
        <time>2021-03-20T17:16:40Z</time>
      </trkpt>
      <trkpt lat="58.1342" lon="-5.26172">
        <ele>41.01</ele>
        <time>2021-03-20T17:16:42Z</time>
      </trkpt>
      <trkpt lat="58.13424" lon="-5.26212">
        <ele>39.61</ele>
        <time>2021-03-20T17:16:45Z</time>
      </trkpt>
      <trkpt lat="58.13427" lon="-5.26222">
        <ele>39.38</ele>
        <time>2021-03-20T17:16:47Z</time>
      </trkpt>
      <trkpt lat="58.13435" lon="-5.26236">
        <ele>38.86</ele>
        <time>2021-03-20T17:16:49Z</time>
      </trkpt>
      <trkpt lat="58.13467" lon="-5.26259">
        <ele>36.62</ele>
        <time>2021-03-20T17:16:52Z</time>
      </trkpt>
      <trkpt lat="58.13488" lon="-5.26265">
        <ele>35.59</ele>
        <time>2021-03-20T17:16:54Z</time>
      </trkpt>
      <trkpt lat="58.13606" lon="-5.26216">
        <ele>35.81</ele>
        <time>2021-03-20T17:16:56Z</time>
      </trkpt>
      <trkpt lat="58.13619" lon="-5.26207">
        <ele>34.97</ele>
        <time>2021-03-20T17:16:58Z</time>
      </trkpt>
      <trkpt lat="58.13625" lon="-5.26198">
        <ele>34.31</ele>
        <time>2021-03-20T17:17:01Z</time>
      </trkpt>
      <trkpt lat="58.13667" lon="-5.26103">
        <ele>27.03</ele>
        <time>2021-03-20T17:17:03Z</time>
      </trkpt>
      <trkpt lat="58.13706" lon="-5.25954">
        <ele>24.15</ele>
        <time>2021-03-20T17:17:05Z</time>
      </trkpt>
      <trkpt lat="58.1372" lon="-5.25863">
        <ele>18.84</ele>
        <time>2021-03-20T17:17:08Z</time>
      </trkpt>
      <trkpt lat="58.13719" lon="-5.25809">
        <ele>18.09</ele>
        <time>2021-03-20T17:17:10Z</time>
      </trkpt>
      <trkpt lat="58.13712" lon="-5.25757">
        <ele>18.56</ele>
        <time>2021-03-20T17:17:12Z</time>
      </trkpt>
      <trkpt lat="58.13688" lon="-5.25652">
        <ele>23.05</ele>
        <time>2021-03-20T17:17:14Z</time>
      </trkpt>
      <trkpt lat="58.13663" lon="-5.25593">
        <ele>24.7</ele>
        <time>2021-03-20T17:17:17Z</time>
      </trkpt>
      <trkpt lat="58.13645" lon="-5.25518">
        <ele>24.07</ele>
        <time>2021-03-20T17:17:19Z</time>
      </trkpt>
      <trkpt lat="58.1364" lon="-5.25488">
        <ele>23.07</ele>
        <time>2021-03-20T17:17:21Z</time>
      </trkpt>
      <trkpt lat="58.13638" lon="-5.25406">
        <ele>24.7</ele>
        <time>2021-03-20T17:17:24Z</time>
      </trkpt>
      <trkpt lat="58.13634" lon="-5.25373">
        <ele>25.92</ele>
        <time>2021-03-20T17:17:26Z</time>
      </trkpt>
      <trkpt lat="58.13618" lon="-5.25318">
        <ele>25.82</ele>
        <time>2021-03-20T17:17:28Z</time>
      </trkpt>
      <trkpt lat="58.13616" lon="-5.25292">
        <ele>26.32</ele>
        <time>2021-03-20T17:17:30Z</time>
      </trkpt>
      <trkpt lat="58.13623" lon="-5.25245">
        <ele>28.24</ele>
        <time>2021-03-20T17:17:33Z</time>
      </trkpt>
      <trkpt lat="58.13628" lon="-5.25185">
        <ele>30.62</ele>
        <time>2021-03-20T17:17:35Z</time>
      </trkpt>
      <trkpt lat="58.13625" lon="-5.25095">
        <ele>31</ele>
        <time>2021-03-20T17:17:37Z</time>
      </trkpt>
      <trkpt lat="58.13624" lon="-5.24957">
        <ele>31.14</ele>
        <time>2021-03-20T17:17:40Z</time>
      </trkpt>
      <trkpt lat="58.13626" lon="-5.24935">
        <ele>30.74</ele>
        <time>2021-03-20T17:17:42Z</time>
      </trkpt>
      <trkpt lat="58.1363" lon="-5.24912">
        <ele>30.49</ele>
        <time>2021-03-20T17:17:44Z</time>
      </trkpt>
      <trkpt lat="58.13648" lon="-5.24859">
        <ele>31.32</ele>
        <time>2021-03-20T17:17:46Z</time>
      </trkpt>
      <trkpt lat="58.13656" lon="-5.24842">
        <ele>32.06</ele>
        <time>2021-03-20T17:17:49Z</time>
      </trkpt>
      <trkpt lat="58.13691" lon="-5.24792">
        <ele>36.72</ele>
        <time>2021-03-20T17:17:51Z</time>
      </trkpt>
      <trkpt lat="58.13732" lon="-5.2471">
        <ele>41</ele>
        <time>2021-03-20T17:17:53Z</time>
      </trkpt>
      <trkpt lat="58.13763" lon="-5.24656">
        <ele>46.24</ele>
        <time>2021-03-20T17:17:56Z</time>
      </trkpt>
      <trkpt lat="58.13817" lon="-5.24514">
        <ele>48.19</ele>
        <time>2021-03-20T17:17:58Z</time>
      </trkpt>
      <trkpt lat="58.13869" lon="-5.24344">
        <ele>59.81</ele>
        <time>2021-03-20T17:18:00Z</time>
      </trkpt>
      <trkpt lat="58.13939" lon="-5.24145">
        <ele>61.76</ele>
        <time>2021-03-20T17:18:02Z</time>
      </trkpt>
      <trkpt lat="58.13941" lon="-5.24128">
        <ele>59.58</ele>
        <time>2021-03-20T17:18:05Z</time>
      </trkpt>
      <trkpt lat="58.13939" lon="-5.24116">
        <ele>58.03</ele>
        <time>2021-03-20T17:18:07Z</time>
      </trkpt>
      <trkpt lat="58.13921" lon="-5.24055">
        <ele>52.5</ele>
        <time>2021-03-20T17:18:09Z</time>
      </trkpt>
      <trkpt lat="58.13917" lon="-5.24026">
        <ele>51.8</ele>
        <time>2021-03-20T17:18:12Z</time>
      </trkpt>
      <trkpt lat="58.13917" lon="-5.24009">
        <ele>50.59</ele>
        <time>2021-03-20T17:18:14Z</time>
      </trkpt>
      <trkpt lat="58.13923" lon="-5.2399">
        <ele>48.54</ele>
        <time>2021-03-20T17:18:16Z</time>
      </trkpt>
      <trkpt lat="58.13933" lon="-5.23979">
        <ele>45.94</ele>
        <time>2021-03-20T17:18:18Z</time>
      </trkpt>
      <trkpt lat="58.13939" lon="-5.23978">
        <ele>44.54</ele>
        <time>2021-03-20T17:18:21Z</time>
      </trkpt>
      <trkpt lat="58.13952" lon="-5.23982">
        <ele>41.94</ele>
        <time>2021-03-20T17:18:23Z</time>
      </trkpt>
      <trkpt lat="58.1399" lon="-5.24022">
        <ele>39.64</ele>
        <time>2021-03-20T17:18:25Z</time>
      </trkpt>
      <trkpt lat="58.14005" lon="-5.24027">
        <ele>38.24</ele>
        <time>2021-03-20T17:18:28Z</time>
      </trkpt>
      <trkpt lat="58.14022" lon="-5.24022">
        <ele>35.16</ele>
        <time>2021-03-20T17:18:30Z</time>
      </trkpt>
      <trkpt lat="58.14036" lon="-5.24024">
        <ele>33.44</ele>
        <time>2021-03-20T17:18:32Z</time>
      </trkpt>
      <trkpt lat="58.14044" lon="-5.24039">
        <ele>33.85</ele>
        <time>2021-03-20T17:18:35Z</time>
      </trkpt>
      <trkpt lat="58.14061" lon="-5.24107">
        <ele>38.16</ele>
        <time>2021-03-20T17:18:37Z</time>
      </trkpt>
      <trkpt lat="58.14066" lon="-5.24123">
        <ele>38.43</ele>
        <time>2021-03-20T17:18:39Z</time>
      </trkpt>
      <trkpt lat="58.14072" lon="-5.2413">
        <ele>37.76</ele>
        <time>2021-03-20T17:18:41Z</time>
      </trkpt>
      <trkpt lat="58.1408" lon="-5.24132">
        <ele>36.51</ele>
        <time>2021-03-20T17:18:44Z</time>
      </trkpt>
      <trkpt lat="58.14085" lon="-5.24125">
        <ele>36.18</ele>
        <time>2021-03-20T17:18:46Z</time>
      </trkpt>
      <trkpt lat="58.14094" lon="-5.24099">
        <ele>37.21</ele>
        <time>2021-03-20T17:18:48Z</time>
      </trkpt>
      <trkpt lat="58.14106" lon="-5.23999">
        <ele>37.36</ele>
        <time>2021-03-20T17:18:51Z</time>
      </trkpt>
      <trkpt lat="58.1412" lon="-5.2393">
        <ele>37.67</ele>
        <time>2021-03-20T17:18:53Z</time>
      </trkpt>
      <trkpt lat="58.14126" lon="-5.23912">
        <ele>37.9</ele>
        <time>2021-03-20T17:18:55Z</time>
      </trkpt>
      <trkpt lat="58.14136" lon="-5.2389">
        <ele>37.65</ele>
        <time>2021-03-20T17:18:57Z</time>
      </trkpt>
      <trkpt lat="58.14144" lon="-5.23877">
        <ele>38.22</ele>
        <time>2021-03-20T17:19:00Z</time>
      </trkpt>
      <trkpt lat="58.14168" lon="-5.23856">
        <ele>40.85</ele>
        <time>2021-03-20T17:19:02Z</time>
      </trkpt>
      <trkpt lat="58.14175" lon="-5.23846">
        <ele>41.04</ele>
        <time>2021-03-20T17:19:04Z</time>
      </trkpt>
      <trkpt lat="58.14185" lon="-5.23817">
        <ele>39.69</ele>
        <time>2021-03-20T17:19:07Z</time>
      </trkpt>
      <trkpt lat="58.14192" lon="-5.23775">
        <ele>36.56</ele>
        <time>2021-03-20T17:19:09Z</time>
      </trkpt>
      <trkpt lat="58.142" lon="-5.23751">
        <ele>35.69</ele>
        <time>2021-03-20T17:19:11Z</time>
      </trkpt>
      <trkpt lat="58.14225" lon="-5.23702">
        <ele>34.41</ele>
        <time>2021-03-20T17:19:13Z</time>
      </trkpt>
      <trkpt lat="58.14244" lon="-5.23685">
        <ele>34.08</ele>
        <time>2021-03-20T17:19:16Z</time>
      </trkpt>
      <trkpt lat="58.14255" lon="-5.23681">
        <ele>34.03</ele>
        <time>2021-03-20T17:19:18Z</time>
      </trkpt>
      <trkpt lat="58.1427" lon="-5.23677">
        <ele>33.71</ele>
        <time>2021-03-20T17:19:20Z</time>
      </trkpt>
      <trkpt lat="58.14305" lon="-5.23689">
        <ele>32.62</ele>
        <time>2021-03-20T17:19:23Z</time>
      </trkpt>
      <trkpt lat="58.14351" lon="-5.23699">
        <ele>30.1</ele>
        <time>2021-03-20T17:19:25Z</time>
      </trkpt>
      <trkpt lat="58.14375" lon="-5.23708">
        <ele>29.21</ele>
        <time>2021-03-20T17:19:27Z</time>
      </trkpt>
      <trkpt lat="58.14402" lon="-5.23724">
        <ele>28.71</ele>
        <time>2021-03-20T17:19:29Z</time>
      </trkpt>
      <trkpt lat="58.14426" lon="-5.23752">
        <ele>29.03</ele>
        <time>2021-03-20T17:19:32Z</time>
      </trkpt>
      <trkpt lat="58.14452" lon="-5.23879">
        <ele>25.94</ele>
        <time>2021-03-20T17:19:34Z</time>
      </trkpt>
      <trkpt lat="58.14467" lon="-5.23911">
        <ele>24.61</ele>
        <time>2021-03-20T17:19:36Z</time>
      </trkpt>
      <trkpt lat="58.14482" lon="-5.23917">
        <ele>22.97</ele>
        <time>2021-03-20T17:19:39Z</time>
      </trkpt>
      <trkpt lat="58.14508" lon="-5.23918">
        <ele>20.74</ele>
        <time>2021-03-20T17:19:41Z</time>
      </trkpt>
      <trkpt lat="58.14538" lon="-5.23938">
        <ele>19.28</ele>
        <time>2021-03-20T17:19:43Z</time>
      </trkpt>
      <trkpt lat="58.14569" lon="-5.23968">
        <ele>18.58</ele>
        <time>2021-03-20T17:19:45Z</time>
      </trkpt>
      <trkpt lat="58.14587" lon="-5.23973">
        <ele>17.48</ele>
        <time>2021-03-20T17:19:48Z</time>
      </trkpt>
      <trkpt lat="58.1463" lon="-5.23963">
        <ele>11.48</ele>
        <time>2021-03-20T17:19:50Z</time>
      </trkpt>
      <trkpt lat="58.14647" lon="-5.23964">
        <ele>10.31</ele>
        <time>2021-03-20T17:19:52Z</time>
      </trkpt>
      <trkpt lat="58.14661" lon="-5.23971">
        <ele>9.44</ele>
        <time>2021-03-20T17:19:55Z</time>
      </trkpt>
      <trkpt lat="58.14667" lon="-5.23951">
        <ele>9.77</ele>
        <time>2021-03-20T17:19:57Z</time>
      </trkpt>
      <trkpt lat="58.14673" lon="-5.23943">
        <ele>10.31</ele>
        <time>2021-03-20T17:19:59Z</time>
      </trkpt>
      <trkpt lat="58.14691" lon="-5.2394">
        <ele>11.05</ele>
        <time>2021-03-20T17:20:01Z</time>
      </trkpt>
      <trkpt lat="58.14708" lon="-5.23975">
        <ele>8.33</ele>
        <time>2021-03-20T17:20:04Z</time>
      </trkpt>
      <trkpt lat="58.14744" lon="-5.24001">
        <ele>6.72</ele>
        <time>2021-03-20T17:20:06Z</time>
      </trkpt>
      <trkpt lat="58.14747" lon="-5.24008">
        <ele>6.33</ele>
        <time>2021-03-20T17:20:08Z</time>
      </trkpt>
      <trkpt lat="58.14751" lon="-5.24036">
        <ele>4.47</ele>
        <time>2021-03-20T17:20:11Z</time>
      </trkpt>
      <trkpt lat="58.14763" lon="-5.24031">
        <ele>5.24</ele>
        <time>2021-03-20T17:20:16Z</time>
      </trkpt>
      <trkpt lat="58.14779" lon="-5.24036">
        <ele>5.41</ele>
        <time>2021-03-20T17:20:22Z</time>
      </trkpt>
      <trkpt lat="58.14818" lon="-5.2406">
        <ele>4.66</ele>
        <time>2021-03-20T17:20:28Z</time>
      </trkpt>
      <trkpt lat="58.14843" lon="-5.24069">
        <ele>4.01</ele>
        <time>2021-03-20T17:20:33Z</time>
      </trkpt>
      <trkpt lat="58.15019" lon="-5.24108">
        <ele>4.07</ele>
        <time>2021-03-20T17:20:39Z</time>
      </trkpt>
      <trkpt lat="58.15041" lon="-5.24108">
        <ele>5.05</ele>
        <time>2021-03-20T17:20:45Z</time>
      </trkpt>
      <trkpt lat="58.15186" lon="-5.24043">
        <ele>6.61</ele>
        <time>2021-03-20T17:20:50Z</time>
      </trkpt>
      <trkpt lat="58.15205" lon="-5.24042">
        <ele>6.1</ele>
        <time>2021-03-20T17:20:56Z</time>
      </trkpt>
      <trkpt lat="58.1522" lon="-5.24045">
        <ele>5.44</ele>
        <time>2021-03-20T17:21:02Z</time>
      </trkpt>
      <trkpt lat="58.15283" lon="-5.24069">
        <ele>4.33</ele>
        <time>2021-03-20T17:21:07Z</time>
      </trkpt>
      <trkpt lat="58.15298" lon="-5.2407">
        <ele>3.73</ele>
        <time>2021-03-20T17:21:13Z</time>
      </trkpt>
      <trkpt lat="58.15309" lon="-5.24065">
        <ele>3.55</ele>
        <time>2021-03-20T17:21:19Z</time>
      </trkpt>
      <trkpt lat="58.1533" lon="-5.24038">
        <ele>3.13</ele>
        <time>2021-03-20T17:21:24Z</time>
      </trkpt>
      <trkpt lat="58.15399" lon="-5.2394">
        <ele>6</ele>
        <time>2021-03-20T17:21:30Z</time>
      </trkpt>
      <trkpt lat="58.15465" lon="-5.23842">
        <ele>9.29</ele>
        <time>2021-03-20T17:21:36Z</time>
      </trkpt>
      <trkpt lat="58.15503" lon="-5.23773">
        <ele>10.17</ele>
        <time>2021-03-20T17:21:41Z</time>
      </trkpt>
      <trkpt lat="58.15517" lon="-5.23749">
        <ele>10.02</ele>
        <time>2021-03-20T17:21:47Z</time>
      </trkpt>
      <trkpt lat="58.15535" lon="-5.23725">
        <ele>9.55</ele>
        <time>2021-03-20T17:21:53Z</time>
      </trkpt>
      <trkpt lat="58.1558" lon="-5.23685">
        <ele>11.39</ele>
        <time>2021-03-20T17:21:58Z</time>
      </trkpt>
      <trkpt lat="58.15612" lon="-5.23666">
        <ele>14.08</ele>
        <time>2021-03-20T17:22:04Z</time>
      </trkpt>
      <trkpt lat="58.1568" lon="-5.2363">
        <ele>23.23</ele>
        <time>2021-03-20T17:22:10Z</time>
      </trkpt>
      <trkpt lat="58.15769" lon="-5.23576">
        <ele>35.8</ele>
        <time>2021-03-20T17:22:15Z</time>
      </trkpt>
      <trkpt lat="58.15799" lon="-5.23548">
        <ele>41.47</ele>
        <time>2021-03-20T17:22:21Z</time>
      </trkpt>
      <trkpt lat="58.15824" lon="-5.23519">
        <ele>47.04</ele>
        <time>2021-03-20T17:22:27Z</time>
      </trkpt>
      <trkpt lat="58.15868" lon="-5.23425">
        <ele>53.63</ele>
        <time>2021-03-20T17:22:32Z</time>
      </trkpt>
      <trkpt lat="58.15934" lon="-5.23268">
        <ele>49.4</ele>
        <time>2021-03-20T17:22:38Z</time>
      </trkpt>
      <trkpt lat="58.15956" lon="-5.23218">
        <ele>48.95</ele>
        <time>2021-03-20T17:22:44Z</time>
      </trkpt>
      <trkpt lat="58.15975" lon="-5.23248">
        <ele>51</ele>
        <time>2021-03-20T17:22:46Z</time>
      </trkpt>
      <trkpt lat="58.16002" lon="-5.23335">
        <ele>54.05</ele>
        <time>2021-03-20T17:22:49Z</time>
      </trkpt>
      <trkpt lat="58.16011" lon="-5.23375">
        <ele>54.19</ele>
        <time>2021-03-20T17:22:52Z</time>
      </trkpt>
      <trkpt lat="58.1602" lon="-5.23483">
        <ele>53.34</ele>
        <time>2021-03-20T17:22:54Z</time>
      </trkpt>
      <trkpt lat="58.16026" lon="-5.23511">
        <ele>52.75</ele>
        <time>2021-03-20T17:22:57Z</time>
      </trkpt>
      <trkpt lat="58.16033" lon="-5.23529">
        <ele>53.06</ele>
        <time>2021-03-20T17:23:00Z</time>
      </trkpt>
      <trkpt lat="58.16042" lon="-5.23542">
        <ele>53.49</ele>
        <time>2021-03-20T17:23:03Z</time>
      </trkpt>
      <trkpt lat="58.16053" lon="-5.23544">
        <ele>53.59</ele>
        <time>2021-03-20T17:23:05Z</time>
      </trkpt>
      <trkpt lat="58.16064" lon="-5.23543">
        <ele>54.05</ele>
        <time>2021-03-20T17:23:08Z</time>
      </trkpt>
      <trkpt lat="58.16095" lon="-5.2353">
        <ele>54.58</ele>
        <time>2021-03-20T17:23:11Z</time>
      </trkpt>
      <trkpt lat="58.16143" lon="-5.2353">
        <ele>57.31</ele>
        <time>2021-03-20T17:23:14Z</time>
      </trkpt>
      <trkpt lat="58.16159" lon="-5.23536">
        <ele>58.11</ele>
        <time>2021-03-20T17:23:16Z</time>
      </trkpt>
      <trkpt lat="58.16168" lon="-5.23548">
        <ele>58.81</ele>
        <time>2021-03-20T17:23:19Z</time>
      </trkpt>
      <trkpt lat="58.16179" lon="-5.23568">
        <ele>60.78</ele>
        <time>2021-03-20T17:23:22Z</time>
      </trkpt>
      <trkpt lat="58.16187" lon="-5.23597">
        <ele>62.63</ele>
        <time>2021-03-20T17:23:24Z</time>
      </trkpt>
      <trkpt lat="58.16217" lon="-5.23774">
        <ele>67.2</ele>
        <time>2021-03-20T17:23:27Z</time>
      </trkpt>
      <trkpt lat="58.16257" lon="-5.24159">
        <ele>71.08</ele>
        <time>2021-03-20T17:23:30Z</time>
      </trkpt>
      <trkpt lat="58.16264" lon="-5.2427">
        <ele>66.75</ele>
        <time>2021-03-20T17:23:33Z</time>
      </trkpt>
      <trkpt lat="58.16268" lon="-5.24364">
        <ele>64.74</ele>
        <time>2021-03-20T17:23:35Z</time>
      </trkpt>
      <trkpt lat="58.16313" lon="-5.24572">
        <ele>62.01</ele>
        <time>2021-03-20T17:23:38Z</time>
      </trkpt>
      <trkpt lat="58.16342" lon="-5.24673">
        <ele>62.95</ele>
        <time>2021-03-20T17:23:41Z</time>
      </trkpt>
      <trkpt lat="58.16354" lon="-5.24696">
        <ele>62.03</ele>
        <time>2021-03-20T17:23:44Z</time>
      </trkpt>
      <trkpt lat="58.16367" lon="-5.24708">
        <ele>61.5</ele>
        <time>2021-03-20T17:23:46Z</time>
      </trkpt>
      <trkpt lat="58.16379" lon="-5.24714">
        <ele>61.72</ele>
        <time>2021-03-20T17:23:49Z</time>
      </trkpt>
      <trkpt lat="58.16443" lon="-5.24718">
        <ele>68.73</ele>
        <time>2021-03-20T17:23:52Z</time>
      </trkpt>
      <trkpt lat="58.16465" lon="-5.24726">
        <ele>67.95</ele>
        <time>2021-03-20T17:23:55Z</time>
      </trkpt>
      <trkpt lat="58.16554" lon="-5.24802">
        <ele>61.07</ele>
        <time>2021-03-20T17:23:57Z</time>
      </trkpt>
      <trkpt lat="58.16576" lon="-5.24826">
        <ele>58.07</ele>
        <time>2021-03-20T17:24:00Z</time>
      </trkpt>
      <trkpt lat="58.16603" lon="-5.24876">
        <ele>52.86</ele>
        <time>2021-03-20T17:24:03Z</time>
      </trkpt>
      <trkpt lat="58.16644" lon="-5.24973">
        <ele>45.65</ele>
        <time>2021-03-20T17:24:05Z</time>
      </trkpt>
      <trkpt lat="58.16683" lon="-5.25141">
        <ele>44.98</ele>
        <time>2021-03-20T17:24:08Z</time>
      </trkpt>
      <trkpt lat="58.16695" lon="-5.25203">
        <ele>42.99</ele>
        <time>2021-03-20T17:24:11Z</time>
      </trkpt>
      <trkpt lat="58.16744" lon="-5.25592">
        <ele>33.97</ele>
        <time>2021-03-20T17:24:14Z</time>
      </trkpt>
      <trkpt lat="58.16752" lon="-5.25638">
        <ele>32</ele>
        <time>2021-03-20T17:24:16Z</time>
      </trkpt>
      <trkpt lat="58.16835" lon="-5.25882">
        <ele>24.92</ele>
        <time>2021-03-20T17:24:19Z</time>
      </trkpt>
      <trkpt lat="58.1686" lon="-5.25946">
        <ele>23.12</ele>
        <time>2021-03-20T17:24:22Z</time>
      </trkpt>
      <trkpt lat="58.16877" lon="-5.25995">
        <ele>21.53</ele>
        <time>2021-03-20T17:24:25Z</time>
      </trkpt>
      <trkpt lat="58.16893" lon="-5.26055">
        <ele>17.01</ele>
        <time>2021-03-20T17:24:27Z</time>
      </trkpt>
      <trkpt lat="58.16911" lon="-5.26106">
        <ele>14.8</ele>
        <time>2021-03-20T17:24:30Z</time>
      </trkpt>
      <trkpt lat="58.16923" lon="-5.26124">
        <ele>13.21</ele>
        <time>2021-03-20T17:24:33Z</time>
      </trkpt>
      <trkpt lat="58.16937" lon="-5.26131">
        <ele>12.09</ele>
        <time>2021-03-20T17:24:35Z</time>
      </trkpt>
      <trkpt lat="58.16983" lon="-5.2613">
        <ele>12.66</ele>
        <time>2021-03-20T17:24:38Z</time>
      </trkpt>
      <trkpt lat="58.16994" lon="-5.26135">
        <ele>12.28</ele>
        <time>2021-03-20T17:24:41Z</time>
      </trkpt>
      <trkpt lat="58.17005" lon="-5.26159">
        <ele>11.57</ele>
        <time>2021-03-20T17:24:44Z</time>
      </trkpt>
      <trkpt lat="58.17043" lon="-5.26182">
        <ele>15.19</ele>
        <time>2021-03-20T17:24:46Z</time>
      </trkpt>
      <trkpt lat="58.17056" lon="-5.26184">
        <ele>17.39</ele>
        <time>2021-03-20T17:24:49Z</time>
      </trkpt>
      <trkpt lat="58.17069" lon="-5.26178">
        <ele>18.9</ele>
        <time>2021-03-20T17:24:52Z</time>
      </trkpt>
      <trkpt lat="58.17133" lon="-5.26085">
        <ele>22.24</ele>
        <time>2021-03-20T17:24:55Z</time>
      </trkpt>
      <trkpt lat="58.17156" lon="-5.26045">
        <ele>23.79</ele>
        <time>2021-03-20T17:24:57Z</time>
      </trkpt>
      <trkpt lat="58.17183" lon="-5.25983">
        <ele>26.89</ele>
        <time>2021-03-20T17:25:00Z</time>
      </trkpt>
      <trkpt lat="58.17195" lon="-5.25966">
        <ele>27.9</ele>
        <time>2021-03-20T17:25:03Z</time>
      </trkpt>
      <trkpt lat="58.17203" lon="-5.25962">
        <ele>28.78</ele>
        <time>2021-03-20T17:25:06Z</time>
      </trkpt>
      <trkpt lat="58.1721" lon="-5.25963">
        <ele>29.79</ele>
        <time>2021-03-20T17:25:08Z</time>
      </trkpt>
      <trkpt lat="58.17217" lon="-5.2597">
        <ele>31.09</ele>
        <time>2021-03-20T17:25:11Z</time>
      </trkpt>
      <trkpt lat="58.17256" lon="-5.26017">
        <ele>35.16</ele>
        <time>2021-03-20T17:25:14Z</time>
      </trkpt>
      <trkpt lat="58.17318" lon="-5.26085">
        <ele>40.07</ele>
        <time>2021-03-20T17:25:16Z</time>
      </trkpt>
      <trkpt lat="58.1733" lon="-5.26107">
        <ele>40.97</ele>
        <time>2021-03-20T17:25:19Z</time>
      </trkpt>
      <trkpt lat="58.17352" lon="-5.26201">
        <ele>43.06</ele>
        <time>2021-03-20T17:25:22Z</time>
      </trkpt>
      <trkpt lat="58.17356" lon="-5.2625">
        <ele>41.74</ele>
        <time>2021-03-20T17:25:25Z</time>
      </trkpt>
      <trkpt lat="58.17356" lon="-5.26289">
        <ele>40.53</ele>
        <time>2021-03-20T17:25:27Z</time>
      </trkpt>
      <trkpt lat="58.17352" lon="-5.26349">
        <ele>40.76</ele>
        <time>2021-03-20T17:25:30Z</time>
      </trkpt>
      <trkpt lat="58.17353" lon="-5.26411">
        <ele>43.08</ele>
        <time>2021-03-20T17:25:33Z</time>
      </trkpt>
      <trkpt lat="58.17363" lon="-5.26518">
        <ele>43.36</ele>
        <time>2021-03-20T17:25:36Z</time>
      </trkpt>
      <trkpt lat="58.17371" lon="-5.26564">
        <ele>44.01</ele>
        <time>2021-03-20T17:25:38Z</time>
      </trkpt>
      <trkpt lat="58.17383" lon="-5.26617">
        <ele>46.7</ele>
        <time>2021-03-20T17:25:41Z</time>
      </trkpt>
      <trkpt lat="58.17434" lon="-5.26758">
        <ele>59.91</ele>
        <time>2021-03-20T17:25:44Z</time>
      </trkpt>
      <trkpt lat="58.1747" lon="-5.26869">
        <ele>66.54</ele>
        <time>2021-03-20T17:25:46Z</time>
      </trkpt>
      <trkpt lat="58.1749" lon="-5.26922">
        <ele>70.39</ele>
        <time>2021-03-20T17:25:49Z</time>
      </trkpt>
      <trkpt lat="58.17513" lon="-5.2697">
        <ele>74.83</ele>
        <time>2021-03-20T17:25:52Z</time>
      </trkpt>
      <trkpt lat="58.17539" lon="-5.2701">
        <ele>77.15</ele>
        <time>2021-03-20T17:25:55Z</time>
      </trkpt>
      <trkpt lat="58.17566" lon="-5.27045">
        <ele>80.86</ele>
        <time>2021-03-20T17:25:57Z</time>
      </trkpt>
      <trkpt lat="58.17588" lon="-5.27079">
        <ele>85.27</ele>
        <time>2021-03-20T17:26:00Z</time>
      </trkpt>
      <trkpt lat="58.17605" lon="-5.27111">
        <ele>88.52</ele>
        <time>2021-03-20T17:26:03Z</time>
      </trkpt>
      <trkpt lat="58.17708" lon="-5.27388">
        <ele>109.84</ele>
        <time>2021-03-20T17:26:06Z</time>
      </trkpt>
      <trkpt lat="58.17716" lon="-5.27425">
        <ele>112.98</ele>
        <time>2021-03-20T17:26:08Z</time>
      </trkpt>
      <trkpt lat="58.17732" lon="-5.27507">
        <ele>115.76</ele>
        <time>2021-03-20T17:26:11Z</time>
      </trkpt>
      <trkpt lat="58.17735" lon="-5.27604">
        <ele>118.39</ele>
        <time>2021-03-20T17:26:14Z</time>
      </trkpt>
      <trkpt lat="58.17747" lon="-5.27737">
        <ele>116.29</ele>
        <time>2021-03-20T17:26:16Z</time>
      </trkpt>
      <trkpt lat="58.17748" lon="-5.27774">
        <ele>113.54</ele>
        <time>2021-03-20T17:26:19Z</time>
      </trkpt>
      <trkpt lat="58.17745" lon="-5.27809">
        <ele>112.55</ele>
        <time>2021-03-20T17:26:22Z</time>
      </trkpt>
      <trkpt lat="58.17722" lon="-5.2794">
        <ele>114.05</ele>
        <time>2021-03-20T17:26:25Z</time>
      </trkpt>
      <trkpt lat="58.17719" lon="-5.27973">
        <ele>115.72</ele>
        <time>2021-03-20T17:26:27Z</time>
      </trkpt>
      <trkpt lat="58.17719" lon="-5.28004">
        <ele>115.86</ele>
        <time>2021-03-20T17:26:30Z</time>
      </trkpt>
      <trkpt lat="58.17736" lon="-5.28113">
        <ele>108.56</ele>
        <time>2021-03-20T17:26:33Z</time>
      </trkpt>
      <trkpt lat="58.17743" lon="-5.28134">
        <ele>105.81</ele>
        <time>2021-03-20T17:26:36Z</time>
      </trkpt>
      <trkpt lat="58.17766" lon="-5.28165">
        <ele>102.1</ele>
        <time>2021-03-20T17:26:38Z</time>
      </trkpt>
      <trkpt lat="58.17776" lon="-5.28193">
        <ele>98.39</ele>
        <time>2021-03-20T17:26:41Z</time>
      </trkpt>
      <trkpt lat="58.17784" lon="-5.28234">
        <ele>94.59</ele>
        <time>2021-03-20T17:26:44Z</time>
      </trkpt>
      <trkpt lat="58.1779" lon="-5.28322">
        <ele>84.95</ele>
        <time>2021-03-20T17:26:47Z</time>
      </trkpt>
      <trkpt lat="58.17794" lon="-5.28336">
        <ele>83.04</ele>
        <time>2021-03-20T17:26:49Z</time>
      </trkpt>
      <trkpt lat="58.17799" lon="-5.2834">
        <ele>82.22</ele>
        <time>2021-03-20T17:26:52Z</time>
      </trkpt>
      <trkpt lat="58.17807" lon="-5.28339">
        <ele>82.06</ele>
        <time>2021-03-20T17:26:55Z</time>
      </trkpt>
      <trkpt lat="58.17864" lon="-5.28261">
        <ele>81.93</ele>
        <time>2021-03-20T17:26:57Z</time>
      </trkpt>
      <trkpt lat="58.17899" lon="-5.28236">
        <ele>77.55</ele>
        <time>2021-03-20T17:27:00Z</time>
      </trkpt>
      <trkpt lat="58.17952" lon="-5.28189">
        <ele>72.04</ele>
        <time>2021-03-20T17:27:03Z</time>
      </trkpt>
      <trkpt lat="58.17961" lon="-5.28188">
        <ele>69.84</ele>
        <time>2021-03-20T17:27:06Z</time>
      </trkpt>
      <trkpt lat="58.17969" lon="-5.28196">
        <ele>67.6</ele>
        <time>2021-03-20T17:27:08Z</time>
      </trkpt>
      <trkpt lat="58.17975" lon="-5.28215">
        <ele>66.04</ele>
        <time>2021-03-20T17:27:11Z</time>
      </trkpt>
      <trkpt lat="58.17979" lon="-5.2824">
        <ele>65.33</ele>
        <time>2021-03-20T17:27:14Z</time>
      </trkpt>
      <trkpt lat="58.1798" lon="-5.28273">
        <ele>65.16</ele>
        <time>2021-03-20T17:27:17Z</time>
      </trkpt>
      <trkpt lat="58.17976" lon="-5.28306">
        <ele>65.4</ele>
        <time>2021-03-20T17:27:19Z</time>
      </trkpt>
      <trkpt lat="58.17951" lon="-5.28466">
        <ele>64.5</ele>
        <time>2021-03-20T17:27:22Z</time>
      </trkpt>
      <trkpt lat="58.17944" lon="-5.28493">
        <ele>63.56</ele>
        <time>2021-03-20T17:27:25Z</time>
      </trkpt>
      <trkpt lat="58.17924" lon="-5.28526">
        <ele>63.03</ele>
        <time>2021-03-20T17:27:27Z</time>
      </trkpt>
      <trkpt lat="58.17914" lon="-5.28552">
        <ele>62.77</ele>
        <time>2021-03-20T17:27:30Z</time>
      </trkpt>
      <trkpt lat="58.17909" lon="-5.28577">
        <ele>62.19</ele>
        <time>2021-03-20T17:27:33Z</time>
      </trkpt>
      <trkpt lat="58.17901" lon="-5.28648">
        <ele>58.76</ele>
        <time>2021-03-20T17:27:36Z</time>
      </trkpt>
      <trkpt lat="58.17896" lon="-5.28677">
        <ele>58.12</ele>
        <time>2021-03-20T17:27:38Z</time>
      </trkpt>
      <trkpt lat="58.17888" lon="-5.28701">
        <ele>57.65</ele>
        <time>2021-03-20T17:27:41Z</time>
      </trkpt>
      <trkpt lat="58.17849" lon="-5.28758">
        <ele>57.45</ele>
        <time>2021-03-20T17:27:44Z</time>
      </trkpt>
      <trkpt lat="58.17831" lon="-5.28796">
        <ele>57.36</ele>
        <time>2021-03-20T17:27:47Z</time>
      </trkpt>
      <trkpt lat="58.17819" lon="-5.28834">
        <ele>57.01</ele>
        <time>2021-03-20T17:27:49Z</time>
      </trkpt>
      <trkpt lat="58.17807" lon="-5.28881">
        <ele>58.7</ele>
        <time>2021-03-20T17:27:52Z</time>
      </trkpt>
      <trkpt lat="58.17803" lon="-5.28917">
        <ele>60.51</ele>
        <time>2021-03-20T17:27:55Z</time>
      </trkpt>
      <trkpt lat="58.17801" lon="-5.28953">
        <ele>61.9</ele>
        <time>2021-03-20T17:27:57Z</time>
      </trkpt>
      <trkpt lat="58.17809" lon="-5.29149">
        <ele>66.63</ele>
        <time>2021-03-20T17:28:00Z</time>
      </trkpt>
      <trkpt lat="58.17815" lon="-5.29197">
        <ele>67.14</ele>
        <time>2021-03-20T17:28:03Z</time>
      </trkpt>
      <trkpt lat="58.17822" lon="-5.29233">
        <ele>65.83</ele>
        <time>2021-03-20T17:28:06Z</time>
      </trkpt>
      <trkpt lat="58.17913" lon="-5.29549">
        <ele>61.1</ele>
        <time>2021-03-20T17:28:08Z</time>
      </trkpt>
      <trkpt lat="58.17923" lon="-5.29594">
        <ele>61.4</ele>
        <time>2021-03-20T17:28:11Z</time>
      </trkpt>
      <trkpt lat="58.17964" lon="-5.29885">
        <ele>61.36</ele>
        <time>2021-03-20T17:28:14Z</time>
      </trkpt>
      <trkpt lat="58.1797" lon="-5.29936">
        <ele>59.62</ele>
        <time>2021-03-20T17:28:17Z</time>
      </trkpt>
      <trkpt lat="58.17971" lon="-5.29999">
        <ele>58.54</ele>
        <time>2021-03-20T17:28:19Z</time>
      </trkpt>
      <trkpt lat="58.17997" lon="-5.30241">
        <ele>52.95</ele>
        <time>2021-03-20T17:28:22Z</time>
      </trkpt>
      <trkpt lat="58.18002" lon="-5.30276">
        <ele>52.09</ele>
        <time>2021-03-20T17:28:25Z</time>
      </trkpt>
      <trkpt lat="58.18018" lon="-5.30299">
        <ele>53.4</ele>
        <time>2021-03-20T17:28:28Z</time>
      </trkpt>
      <trkpt lat="58.18065" lon="-5.30351">
        <ele>56.55</ele>
        <time>2021-03-20T17:28:30Z</time>
      </trkpt>
      <trkpt lat="58.18184" lon="-5.30613">
        <ele>46.24</ele>
        <time>2021-03-20T17:28:33Z</time>
      </trkpt>
      <trkpt lat="58.18223" lon="-5.30727">
        <ele>49.06</ele>
        <time>2021-03-20T17:28:36Z</time>
      </trkpt>
      <trkpt lat="58.18235" lon="-5.30788">
        <ele>48.84</ele>
        <time>2021-03-20T17:28:38Z</time>
      </trkpt>
      <trkpt lat="58.18239" lon="-5.30813">
        <ele>48.24</ele>
        <time>2021-03-20T17:28:41Z</time>
      </trkpt>
      <trkpt lat="58.18275" lon="-5.30909">
        <ele>45.03</ele>
        <time>2021-03-20T17:28:44Z</time>
      </trkpt>
      <trkpt lat="58.18283" lon="-5.30958">
        <ele>45.14</ele>
        <time>2021-03-20T17:28:47Z</time>
      </trkpt>
      <trkpt lat="58.18281" lon="-5.31002">
        <ele>44.5</ele>
        <time>2021-03-20T17:28:49Z</time>
      </trkpt>
      <trkpt lat="58.18282" lon="-5.31021">
        <ele>45.34</ele>
        <time>2021-03-20T17:28:52Z</time>
      </trkpt>
      <trkpt lat="58.183" lon="-5.31116">
        <ele>51.59</ele>
        <time>2021-03-20T17:28:55Z</time>
      </trkpt>
      <trkpt lat="58.18324" lon="-5.31217">
        <ele>54.57</ele>
        <time>2021-03-20T17:28:58Z</time>
      </trkpt>
      <trkpt lat="58.18347" lon="-5.31292">
        <ele>54.06</ele>
        <time>2021-03-20T17:29:00Z</time>
      </trkpt>
      <trkpt lat="58.18412" lon="-5.31432">
        <ele>52.88</ele>
        <time>2021-03-20T17:29:03Z</time>
      </trkpt>
      <trkpt lat="58.18469" lon="-5.31612">
        <ele>60.85</ele>
        <time>2021-03-20T17:29:06Z</time>
      </trkpt>
      <trkpt lat="58.18478" lon="-5.31668">
        <ele>60.05</ele>
        <time>2021-03-20T17:29:08Z</time>
      </trkpt>
      <trkpt lat="58.18477" lon="-5.31803">
        <ele>59.85</ele>
        <time>2021-03-20T17:29:11Z</time>
      </trkpt>
      <trkpt lat="58.18485" lon="-5.31975">
        <ele>53.3</ele>
        <time>2021-03-20T17:29:14Z</time>
      </trkpt>
      <trkpt lat="58.18532" lon="-5.32158">
        <ele>40.41</ele>
        <time>2021-03-20T17:29:17Z</time>
      </trkpt>
      <trkpt lat="58.18549" lon="-5.32204">
        <ele>41.51</ele>
        <time>2021-03-20T17:29:19Z</time>
      </trkpt>
      <trkpt lat="58.18579" lon="-5.32251">
        <ele>44.03</ele>
        <time>2021-03-20T17:29:22Z</time>
      </trkpt>
      <trkpt lat="58.18595" lon="-5.32308">
        <ele>45.25</ele>
        <time>2021-03-20T17:29:25Z</time>
      </trkpt>
      <trkpt lat="58.18608" lon="-5.32431">
        <ele>48.44</ele>
        <time>2021-03-20T17:29:28Z</time>
      </trkpt>
      <trkpt lat="58.18666" lon="-5.32633">
        <ele>46.28</ele>
        <time>2021-03-20T17:29:30Z</time>
      </trkpt>
      <trkpt lat="58.18696" lon="-5.32685">
        <ele>44.35</ele>
        <time>2021-03-20T17:29:33Z</time>
      </trkpt>
      <trkpt lat="58.18773" lon="-5.32743">
        <ele>38.96</ele>
        <time>2021-03-20T17:29:36Z</time>
      </trkpt>
      <trkpt lat="58.18858" lon="-5.32845">
        <ele>41.93</ele>
        <time>2021-03-20T17:29:39Z</time>
      </trkpt>
      <trkpt lat="58.18882" lon="-5.32917">
        <ele>40.24</ele>
        <time>2021-03-20T17:29:41Z</time>
      </trkpt>
      <trkpt lat="58.1889" lon="-5.33062">
        <ele>30.21</ele>
        <time>2021-03-20T17:29:44Z</time>
      </trkpt>
      <trkpt lat="58.18911" lon="-5.33203">
        <ele>18.21</ele>
        <time>2021-03-20T17:29:47Z</time>
      </trkpt>
      <trkpt lat="58.18916" lon="-5.3322">
        <ele>17.07</ele>
        <time>2021-03-20T17:29:49Z</time>
      </trkpt>
      <trkpt lat="58.18934" lon="-5.33231">
        <ele>14.07</ele>
        <time>2021-03-20T17:29:52Z</time>
      </trkpt>
      <trkpt lat="58.19072" lon="-5.3324">
        <ele>12.8</ele>
        <time>2021-03-20T17:29:55Z</time>
      </trkpt>
      <trkpt lat="58.19115" lon="-5.33237">
        <ele>14.07</ele>
        <time>2021-03-20T17:29:58Z</time>
      </trkpt>
      <trkpt lat="58.19157" lon="-5.33223">
        <ele>14.65</ele>
        <time>2021-03-20T17:30:00Z</time>
      </trkpt>
      <trkpt lat="58.19209" lon="-5.33192">
        <ele>14.96</ele>
        <time>2021-03-20T17:30:03Z</time>
      </trkpt>
      <trkpt lat="58.193" lon="-5.33172">
        <ele>14.19</ele>
        <time>2021-03-20T17:30:06Z</time>
      </trkpt>
      <trkpt lat="58.19331" lon="-5.33173">
        <ele>13.34</ele>
        <time>2021-03-20T17:30:09Z</time>
      </trkpt>
      <trkpt lat="58.19372" lon="-5.33191">
        <ele>12.67</ele>
        <time>2021-03-20T17:30:11Z</time>
      </trkpt>
      <trkpt lat="58.19434" lon="-5.33247">
        <ele>12</ele>
        <time>2021-03-20T17:30:14Z</time>
      </trkpt>
      <trkpt lat="58.19483" lon="-5.333">
        <ele>11.61</ele>
        <time>2021-03-20T17:30:17Z</time>
      </trkpt>
      <trkpt lat="58.19507" lon="-5.3333">
        <ele>10.75</ele>
        <time>2021-03-20T17:30:19Z</time>
      </trkpt>
      <trkpt lat="58.19541" lon="-5.33381">
        <ele>11</ele>
        <time>2021-03-20T17:30:22Z</time>
      </trkpt>
      <trkpt lat="58.19574" lon="-5.33424">
        <ele>11.95</ele>
        <time>2021-03-20T17:30:25Z</time>
      </trkpt>
      <trkpt lat="58.19623" lon="-5.33469">
        <ele>9.55</ele>
        <time>2021-03-20T17:30:28Z</time>
      </trkpt>
      <trkpt lat="58.19662" lon="-5.33522">
        <ele>7.38</ele>
        <time>2021-03-20T17:30:30Z</time>
      </trkpt>
      <trkpt lat="58.19716" lon="-5.3364">
        <ele>7.44</ele>
        <time>2021-03-20T17:30:33Z</time>
      </trkpt>
      <trkpt lat="58.19748" lon="-5.33674">
        <ele>6.34</ele>
        <time>2021-03-20T17:30:36Z</time>
      </trkpt>
      <trkpt lat="58.19755" lon="-5.33676">
        <ele>6.16</ele>
        <time>2021-03-20T17:30:39Z</time>
      </trkpt>
      <trkpt lat="58.19771" lon="-5.33673">
        <ele>5.48</ele>
        <time>2021-03-20T17:30:41Z</time>
      </trkpt>
      <trkpt lat="58.19789" lon="-5.3366">
        <ele>5.41</ele>
        <time>2021-03-20T17:30:44Z</time>
      </trkpt>
      <trkpt lat="58.19821" lon="-5.33645">
        <ele>6</ele>
        <time>2021-03-20T17:30:47Z</time>
      </trkpt>
      <trkpt lat="58.19829" lon="-5.33644">
        <ele>6</ele>
        <time>2021-03-20T17:30:49Z</time>
      </trkpt>
      <trkpt lat="58.1987" lon="-5.33654">
        <ele>6</ele>
        <time>2021-03-20T17:30:52Z</time>
      </trkpt>
      <trkpt lat="58.19954" lon="-5.33681">
        <ele>9.72</ele>
        <time>2021-03-20T17:30:55Z</time>
      </trkpt>
      <trkpt lat="58.19983" lon="-5.33696">
        <ele>12.48</ele>
        <time>2021-03-20T17:30:58Z</time>
      </trkpt>
      <trkpt lat="58.19998" lon="-5.33712">
        <ele>14.69</ele>
        <time>2021-03-20T17:31:00Z</time>
      </trkpt>
      <trkpt lat="58.20007" lon="-5.33726">
        <ele>15.89</ele>
        <time>2021-03-20T17:31:03Z</time>
      </trkpt>
      <trkpt lat="58.20032" lon="-5.33788">
        <ele>17.71</ele>
        <time>2021-03-20T17:31:06Z</time>
      </trkpt>
      <trkpt lat="58.20038" lon="-5.33796">
        <ele>18.67</ele>
        <time>2021-03-20T17:31:09Z</time>
      </trkpt>
      <trkpt lat="58.20046" lon="-5.33802">
        <ele>20.12</ele>
        <time>2021-03-20T17:31:11Z</time>
      </trkpt>
      <trkpt lat="58.20059" lon="-5.338">
        <ele>22.22</ele>
        <time>2021-03-20T17:31:14Z</time>
      </trkpt>
      <trkpt lat="58.201" lon="-5.33759">
        <ele>26.22</ele>
        <time>2021-03-20T17:31:17Z</time>
      </trkpt>
      <trkpt lat="58.20117" lon="-5.33755">
        <ele>27.61</ele>
        <time>2021-03-20T17:31:20Z</time>
      </trkpt>
      <trkpt lat="58.20246" lon="-5.33827">
        <ele>41.7</ele>
        <time>2021-03-20T17:31:22Z</time>
      </trkpt>
      <trkpt lat="58.20282" lon="-5.33862">
        <ele>45</ele>
        <time>2021-03-20T17:31:25Z</time>
      </trkpt>
      <trkpt lat="58.20294" lon="-5.3388">
        <ele>45</ele>
        <time>2021-03-20T17:31:28Z</time>
      </trkpt>
      <trkpt lat="58.20306" lon="-5.33956">
        <ele>45.4</ele>
        <time>2021-03-20T17:31:30Z</time>
      </trkpt>
      <trkpt lat="58.20332" lon="-5.3401">
        <ele>47.08</ele>
        <time>2021-03-20T17:31:33Z</time>
      </trkpt>
      <trkpt lat="58.20345" lon="-5.34028">
        <ele>48.58</ele>
        <time>2021-03-20T17:31:36Z</time>
      </trkpt>
      <trkpt lat="58.20465" lon="-5.34139">
        <ele>52.01</ele>
        <time>2021-03-20T17:31:39Z</time>
      </trkpt>
      <trkpt lat="58.20491" lon="-5.34146">
        <ele>53.45</ele>
        <time>2021-03-20T17:31:41Z</time>
      </trkpt>
      <trkpt lat="58.20518" lon="-5.34134">
        <ele>55.24</ele>
        <time>2021-03-20T17:31:44Z</time>
      </trkpt>
      <trkpt lat="58.20529" lon="-5.34125">
        <ele>56.14</ele>
        <time>2021-03-20T17:31:47Z</time>
      </trkpt>
      <trkpt lat="58.20557" lon="-5.34048">
        <ele>59.07</ele>
        <time>2021-03-20T17:31:50Z</time>
      </trkpt>
      <trkpt lat="58.2057" lon="-5.34026">
        <ele>59.49</ele>
        <time>2021-03-20T17:31:52Z</time>
      </trkpt>
      <trkpt lat="58.20584" lon="-5.34015">
        <ele>59.5</ele>
        <time>2021-03-20T17:31:55Z</time>
      </trkpt>
      <trkpt lat="58.20672" lon="-5.33965">
        <ele>57.93</ele>
        <time>2021-03-20T17:31:58Z</time>
      </trkpt>
      <trkpt lat="58.208" lon="-5.33833">
        <ele>59.8</ele>
        <time>2021-03-20T17:32:00Z</time>
      </trkpt>
      <trkpt lat="58.20817" lon="-5.33819">
        <ele>60.12</ele>
        <time>2021-03-20T17:32:03Z</time>
      </trkpt>
      <trkpt lat="58.20836" lon="-5.33812">
        <ele>60.69</ele>
        <time>2021-03-20T17:32:06Z</time>
      </trkpt>
      <trkpt lat="58.20914" lon="-5.33795">
        <ele>61.81</ele>
        <time>2021-03-20T17:32:09Z</time>
      </trkpt>
      <trkpt lat="58.20994" lon="-5.3378">
        <ele>63.98</ele>
        <time>2021-03-20T17:32:11Z</time>
      </trkpt>
      <trkpt lat="58.21039" lon="-5.33767">
        <ele>64</ele>
        <time>2021-03-20T17:32:14Z</time>
      </trkpt>
      <trkpt lat="58.21123" lon="-5.33755">
        <ele>59.31</ele>
        <time>2021-03-20T17:32:17Z</time>
      </trkpt>
      <trkpt lat="58.21151" lon="-5.33735">
        <ele>56.05</ele>
        <time>2021-03-20T17:32:20Z</time>
      </trkpt>
      <trkpt lat="58.21244" lon="-5.3364">
        <ele>49.21</ele>
        <time>2021-03-20T17:32:22Z</time>
      </trkpt>
      <trkpt lat="58.21285" lon="-5.33602">
        <ele>48.73</ele>
        <time>2021-03-20T17:32:25Z</time>
      </trkpt>
      <trkpt lat="58.21499" lon="-5.33385">
        <ele>47.35</ele>
        <time>2021-03-20T17:32:28Z</time>
      </trkpt>
      <trkpt lat="58.21531" lon="-5.33357">
        <ele>45.3</ele>
        <time>2021-03-20T17:32:30Z</time>
      </trkpt>
      <trkpt lat="58.21586" lon="-5.33269">
        <ele>49.4</ele>
        <time>2021-03-20T17:32:33Z</time>
      </trkpt>
      <trkpt lat="58.21608" lon="-5.33207">
        <ele>52.36</ele>
        <time>2021-03-20T17:32:36Z</time>
      </trkpt>
      <trkpt lat="58.21634" lon="-5.33098">
        <ele>53.31</ele>
        <time>2021-03-20T17:32:39Z</time>
      </trkpt>
      <trkpt lat="58.21723" lon="-5.32811">
        <ele>54.12</ele>
        <time>2021-03-20T17:32:41Z</time>
      </trkpt>
      <trkpt lat="58.21764" lon="-5.32653">
        <ele>55.77</ele>
        <time>2021-03-20T17:32:44Z</time>
      </trkpt>
      <trkpt lat="58.21817" lon="-5.32531">
        <ele>52.93</ele>
        <time>2021-03-20T17:32:47Z</time>
      </trkpt>
      <trkpt lat="58.21869" lon="-5.32461">
        <ele>52.58</ele>
        <time>2021-03-20T17:32:50Z</time>
      </trkpt>
      <trkpt lat="58.21937" lon="-5.32381">
        <ele>50.45</ele>
        <time>2021-03-20T17:32:52Z</time>
      </trkpt>
      <trkpt lat="58.21988" lon="-5.32329">
        <ele>51.9</ele>
        <time>2021-03-20T17:32:55Z</time>
      </trkpt>
      <trkpt lat="58.22025" lon="-5.32252">
        <ele>51.6</ele>
        <time>2021-03-20T17:32:58Z</time>
      </trkpt>
      <trkpt lat="58.22059" lon="-5.32205">
        <ele>52.68</ele>
        <time>2021-03-20T17:33:01Z</time>
      </trkpt>
      <trkpt lat="58.22114" lon="-5.32101">
        <ele>48.76</ele>
        <time>2021-03-20T17:33:03Z</time>
      </trkpt>
      <trkpt lat="58.22138" lon="-5.32021">
        <ele>46.76</ele>
        <time>2021-03-20T17:33:06Z</time>
      </trkpt>
      <trkpt lat="58.22163" lon="-5.31812">
        <ele>39.17</ele>
        <time>2021-03-20T17:33:09Z</time>
      </trkpt>
      <trkpt lat="58.2217" lon="-5.31775">
        <ele>37.92</ele>
        <time>2021-03-20T17:33:11Z</time>
      </trkpt>
      <trkpt lat="58.22189" lon="-5.31705">
        <ele>36.16</ele>
        <time>2021-03-20T17:33:14Z</time>
      </trkpt>
      <trkpt lat="58.22199" lon="-5.31676">
        <ele>34.81</ele>
        <time>2021-03-20T17:33:17Z</time>
      </trkpt>
      <trkpt lat="58.22232" lon="-5.31608">
        <ele>31.57</ele>
        <time>2021-03-20T17:33:20Z</time>
      </trkpt>
      <trkpt lat="58.22245" lon="-5.31564">
        <ele>29.42</ele>
        <time>2021-03-20T17:33:22Z</time>
      </trkpt>
      <trkpt lat="58.22253" lon="-5.31525">
        <ele>26.97</ele>
        <time>2021-03-20T17:33:25Z</time>
      </trkpt>
      <trkpt lat="58.22261" lon="-5.31463">
        <ele>23.17</ele>
        <time>2021-03-20T17:33:28Z</time>
      </trkpt>
      <trkpt lat="58.22269" lon="-5.31439">
        <ele>21.91</ele>
        <time>2021-03-20T17:33:31Z</time>
      </trkpt>
      <trkpt lat="58.22284" lon="-5.31406">
        <ele>19.04</ele>
        <time>2021-03-20T17:33:33Z</time>
      </trkpt>
      <trkpt lat="58.22291" lon="-5.31384">
        <ele>17.2</ele>
        <time>2021-03-20T17:33:36Z</time>
      </trkpt>
      <trkpt lat="58.22297" lon="-5.31356">
        <ele>15.54</ele>
        <time>2021-03-20T17:33:39Z</time>
      </trkpt>
      <trkpt lat="58.22299" lon="-5.31342">
        <ele>14.15</ele>
        <time>2021-03-20T17:33:41Z</time>
      </trkpt>
      <trkpt lat="58.22298" lon="-5.31301">
        <ele>13.1</ele>
        <time>2021-03-20T17:33:44Z</time>
      </trkpt>
      <trkpt lat="58.22294" lon="-5.31245">
        <ele>12.24</ele>
        <time>2021-03-20T17:33:47Z</time>
      </trkpt>
      <trkpt lat="58.22301" lon="-5.31163">
        <ele>11.18</ele>
        <time>2021-03-20T17:33:50Z</time>
      </trkpt>
      <trkpt lat="58.22308" lon="-5.31119">
        <ele>11.37</ele>
        <time>2021-03-20T17:33:52Z</time>
      </trkpt>
      <trkpt lat="58.22316" lon="-5.31079">
        <ele>10.53</ele>
        <time>2021-03-20T17:33:55Z</time>
      </trkpt>
      <trkpt lat="58.22338" lon="-5.31013">
        <ele>10.48</ele>
        <time>2021-03-20T17:33:58Z</time>
      </trkpt>
      <trkpt lat="58.22374" lon="-5.30928">
        <ele>13.56</ele>
        <time>2021-03-20T17:34:01Z</time>
      </trkpt>
      <trkpt lat="58.22402" lon="-5.30897">
        <ele>13.05</ele>
        <time>2021-03-20T17:34:03Z</time>
      </trkpt>
      <trkpt lat="58.2242" lon="-5.30869">
        <ele>13.33</ele>
        <time>2021-03-20T17:34:06Z</time>
      </trkpt>
      <trkpt lat="58.22488" lon="-5.30635">
        <ele>16.46</ele>
        <time>2021-03-20T17:34:09Z</time>
      </trkpt>
      <trkpt lat="58.225" lon="-5.30557">
        <ele>19.79</ele>
        <time>2021-03-20T17:34:12Z</time>
      </trkpt>
      <trkpt lat="58.22524" lon="-5.30499">
        <ele>14.39</ele>
        <time>2021-03-20T17:34:14Z</time>
      </trkpt>
      <trkpt lat="58.22527" lon="-5.30466">
        <ele>15.5</ele>
        <time>2021-03-20T17:34:17Z</time>
      </trkpt>
      <trkpt lat="58.22537" lon="-5.30439">
        <ele>15.19</ele>
        <time>2021-03-20T17:34:20Z</time>
      </trkpt>
      <trkpt lat="58.22574" lon="-5.30417">
        <ele>10.04</ele>
        <time>2021-03-20T17:34:22Z</time>
      </trkpt>
      <trkpt lat="58.22603" lon="-5.30373">
        <ele>10.12</ele>
        <time>2021-03-20T17:34:25Z</time>
      </trkpt>
      <trkpt lat="58.22622" lon="-5.30321">
        <ele>10.76</ele>
        <time>2021-03-20T17:34:28Z</time>
      </trkpt>
      <trkpt lat="58.22627" lon="-5.3026">
        <ele>14.43</ele>
        <time>2021-03-20T17:34:31Z</time>
      </trkpt>
      <trkpt lat="58.22634" lon="-5.30209">
        <ele>17.44</ele>
        <time>2021-03-20T17:34:33Z</time>
      </trkpt>
      <trkpt lat="58.22649" lon="-5.30161">
        <ele>20.03</ele>
        <time>2021-03-20T17:34:36Z</time>
      </trkpt>
      <trkpt lat="58.2269" lon="-5.30092">
        <ele>20.78</ele>
        <time>2021-03-20T17:34:39Z</time>
      </trkpt>
      <trkpt lat="58.22748" lon="-5.30041">
        <ele>16.55</ele>
        <time>2021-03-20T17:34:42Z</time>
      </trkpt>
      <trkpt lat="58.22823" lon="-5.29958">
        <ele>14.43</ele>
        <time>2021-03-20T17:34:44Z</time>
      </trkpt>
      <trkpt lat="58.22853" lon="-5.29908">
        <ele>13.7</ele>
        <time>2021-03-20T17:34:47Z</time>
      </trkpt>
      <trkpt lat="58.22871" lon="-5.29863">
        <ele>11.28</ele>
        <time>2021-03-20T17:34:50Z</time>
      </trkpt>
      <trkpt lat="58.22881" lon="-5.29782">
        <ele>12.46</ele>
        <time>2021-03-20T17:34:52Z</time>
      </trkpt>
      <trkpt lat="58.22886" lon="-5.29758">
        <ele>12.41</ele>
        <time>2021-03-20T17:34:55Z</time>
      </trkpt>
      <trkpt lat="58.22904" lon="-5.29718">
        <ele>11.69</ele>
        <time>2021-03-20T17:34:58Z</time>
      </trkpt>
      <trkpt lat="58.23005" lon="-5.29607">
        <ele>13.75</ele>
        <time>2021-03-20T17:35:01Z</time>
      </trkpt>
      <trkpt lat="58.23087" lon="-5.29499">
        <ele>10.14</ele>
        <time>2021-03-20T17:35:03Z</time>
      </trkpt>
      <trkpt lat="58.2309" lon="-5.2948">
        <ele>11.2</ele>
        <time>2021-03-20T17:35:06Z</time>
      </trkpt>
      <trkpt lat="58.23086" lon="-5.29444">
        <ele>17.02</ele>
        <time>2021-03-20T17:35:09Z</time>
      </trkpt>
      <trkpt lat="58.23088" lon="-5.29418">
        <ele>17.98</ele>
        <time>2021-03-20T17:35:12Z</time>
      </trkpt>
      <trkpt lat="58.23099" lon="-5.29381">
        <ele>16.68</ele>
        <time>2021-03-20T17:35:14Z</time>
      </trkpt>
      <trkpt lat="58.23103" lon="-5.29327">
        <ele>16.85</ele>
        <time>2021-03-20T17:35:17Z</time>
      </trkpt>
      <trkpt lat="58.23109" lon="-5.29294">
        <ele>15.24</ele>
        <time>2021-03-20T17:35:20Z</time>
      </trkpt>
      <trkpt lat="58.23129" lon="-5.29141">
        <ele>18.26</ele>
        <time>2021-03-20T17:35:22Z</time>
      </trkpt>
      <trkpt lat="58.23139" lon="-5.29025">
        <ele>22.15</ele>
        <time>2021-03-20T17:35:25Z</time>
      </trkpt>
      <trkpt lat="58.23119" lon="-5.28776">
        <ele>24.71</ele>
        <time>2021-03-20T17:35:28Z</time>
      </trkpt>
      <trkpt lat="58.23089" lon="-5.28543">
        <ele>26.66</ele>
        <time>2021-03-20T17:35:31Z</time>
      </trkpt>
      <trkpt lat="58.23057" lon="-5.28453">
        <ele>23.99</ele>
        <time>2021-03-20T17:35:33Z</time>
      </trkpt>
      <trkpt lat="58.23037" lon="-5.28371">
        <ele>24.07</ele>
        <time>2021-03-20T17:35:36Z</time>
      </trkpt>
      <trkpt lat="58.23002" lon="-5.2821">
        <ele>20.88</ele>
        <time>2021-03-20T17:35:39Z</time>
      </trkpt>
      <trkpt lat="58.22963" lon="-5.28004">
        <ele>24.42</ele>
        <time>2021-03-20T17:35:42Z</time>
      </trkpt>
      <trkpt lat="58.22941" lon="-5.27905">
        <ele>24.29</ele>
        <time>2021-03-20T17:35:44Z</time>
      </trkpt>
      <trkpt lat="58.22917" lon="-5.27822">
        <ele>25.43</ele>
        <time>2021-03-20T17:35:47Z</time>
      </trkpt>
      <trkpt lat="58.22834" lon="-5.27507">
        <ele>41.57</ele>
        <time>2021-03-20T17:35:50Z</time>
      </trkpt>
      <trkpt lat="58.22773" lon="-5.27174">
        <ele>51.41</ele>
        <time>2021-03-20T17:35:53Z</time>
      </trkpt>
      <trkpt lat="58.22725" lon="-5.26876">
        <ele>56.58</ele>
        <time>2021-03-20T17:35:55Z</time>
      </trkpt>
      <trkpt lat="58.22712" lon="-5.26765">
        <ele>60.42</ele>
        <time>2021-03-20T17:35:58Z</time>
      </trkpt>
      <trkpt lat="58.22707" lon="-5.26697">
        <ele>61.1</ele>
        <time>2021-03-20T17:36:01Z</time>
      </trkpt>
      <trkpt lat="58.22716" lon="-5.26581">
        <ele>60.86</ele>
        <time>2021-03-20T17:36:03Z</time>
      </trkpt>
      <trkpt lat="58.22724" lon="-5.26544">
        <ele>62.15</ele>
        <time>2021-03-20T17:36:06Z</time>
      </trkpt>
      <trkpt lat="58.2273" lon="-5.26535">
        <ele>62.56</ele>
        <time>2021-03-20T17:36:09Z</time>
      </trkpt>
      <trkpt lat="58.2283" lon="-5.26421">
        <ele>66.88</ele>
        <time>2021-03-20T17:36:12Z</time>
      </trkpt>
      <trkpt lat="58.22849" lon="-5.26391">
        <ele>66.07</ele>
        <time>2021-03-20T17:36:14Z</time>
      </trkpt>
      <trkpt lat="58.22852" lon="-5.26368">
        <ele>66</ele>
        <time>2021-03-20T17:36:17Z</time>
      </trkpt>
      <trkpt lat="58.22851" lon="-5.26292">
        <ele>65.96</ele>
        <time>2021-03-20T17:36:20Z</time>
      </trkpt>
      <trkpt lat="58.22841" lon="-5.26047">
        <ele>69.85</ele>
        <time>2021-03-20T17:36:23Z</time>
      </trkpt>
      <trkpt lat="58.22845" lon="-5.26003">
        <ele>71.19</ele>
        <time>2021-03-20T17:36:25Z</time>
      </trkpt>
      <trkpt lat="58.22912" lon="-5.25859">
        <ele>78.77</ele>
        <time>2021-03-20T17:36:28Z</time>
      </trkpt>
      <trkpt lat="58.22976" lon="-5.25755">
        <ele>77.18</ele>
        <time>2021-03-20T17:36:31Z</time>
      </trkpt>
      <trkpt lat="58.23011" lon="-5.25728">
        <ele>76.6</ele>
        <time>2021-03-20T17:36:33Z</time>
      </trkpt>
      <trkpt lat="58.23045" lon="-5.25708">
        <ele>76.69</ele>
        <time>2021-03-20T17:36:36Z</time>
      </trkpt>
      <trkpt lat="58.23112" lon="-5.25723">
        <ele>76.05</ele>
        <time>2021-03-20T17:36:39Z</time>
      </trkpt>
      <trkpt lat="58.23126" lon="-5.25707">
        <ele>77.07</ele>
        <time>2021-03-20T17:36:42Z</time>
      </trkpt>
      <trkpt lat="58.23131" lon="-5.25673">
        <ele>76.67</ele>
        <time>2021-03-20T17:36:44Z</time>
      </trkpt>
      <trkpt lat="58.23129" lon="-5.25599">
        <ele>75.29</ele>
        <time>2021-03-20T17:36:47Z</time>
      </trkpt>
      <trkpt lat="58.23138" lon="-5.25529">
        <ele>75</ele>
        <time>2021-03-20T17:36:50Z</time>
      </trkpt>
      <trkpt lat="58.23148" lon="-5.25477">
        <ele>75.65</ele>
        <time>2021-03-20T17:36:53Z</time>
      </trkpt>
      <trkpt lat="58.23148" lon="-5.25437">
        <ele>74.68</ele>
        <time>2021-03-20T17:36:55Z</time>
      </trkpt>
      <trkpt lat="58.2313" lon="-5.25342">
        <ele>76.36</ele>
        <time>2021-03-20T17:36:58Z</time>
      </trkpt>
      <trkpt lat="58.23115" lon="-5.25278">
        <ele>77.26</ele>
        <time>2021-03-20T17:37:01Z</time>
      </trkpt>
      <trkpt lat="58.2311" lon="-5.2524">
        <ele>76.57</ele>
        <time>2021-03-20T17:37:03Z</time>
      </trkpt>
      <trkpt lat="58.23118" lon="-5.2516">
        <ele>74.93</ele>
        <time>2021-03-20T17:37:06Z</time>
      </trkpt>
      <trkpt lat="58.23142" lon="-5.25038">
        <ele>77.48</ele>
        <time>2021-03-20T17:37:09Z</time>
      </trkpt>
      <trkpt lat="58.23154" lon="-5.25005">
        <ele>79.34</ele>
        <time>2021-03-20T17:37:12Z</time>
      </trkpt>
      <trkpt lat="58.2323" lon="-5.24878">
        <ele>85.07</ele>
        <time>2021-03-20T17:37:14Z</time>
      </trkpt>
      <trkpt lat="58.23305" lon="-5.24761">
        <ele>82.97</ele>
        <time>2021-03-20T17:37:17Z</time>
      </trkpt>
      <trkpt lat="58.23366" lon="-5.24675">
        <ele>78.58</ele>
        <time>2021-03-20T17:37:20Z</time>
      </trkpt>
      <trkpt lat="58.23466" lon="-5.24528">
        <ele>77</ele>
        <time>2021-03-20T17:37:23Z</time>
      </trkpt>
      <trkpt lat="58.23486" lon="-5.24467">
        <ele>75.81</ele>
        <time>2021-03-20T17:37:25Z</time>
      </trkpt>
      <trkpt lat="58.23556" lon="-5.24344">
        <ele>63.71</ele>
        <time>2021-03-20T17:37:28Z</time>
      </trkpt>
      <trkpt lat="58.23639" lon="-5.24217">
        <ele>55.41</ele>
        <time>2021-03-20T17:37:31Z</time>
      </trkpt>
      <trkpt lat="58.23672" lon="-5.24173">
        <ele>50</ele>
        <time>2021-03-20T17:37:34Z</time>
      </trkpt>
      <trkpt lat="58.23709" lon="-5.24138">
        <ele>44.34</ele>
        <time>2021-03-20T17:37:36Z</time>
      </trkpt>
      <trkpt lat="58.23739" lon="-5.24122">
        <ele>40.43</ele>
        <time>2021-03-20T17:37:39Z</time>
      </trkpt>
      <trkpt lat="58.23826" lon="-5.24145">
        <ele>37.46</ele>
        <time>2021-03-20T17:37:42Z</time>
      </trkpt>
      <trkpt lat="58.23864" lon="-5.24135">
        <ele>27.88</ele>
        <time>2021-03-20T17:37:44Z</time>
      </trkpt>
      <trkpt lat="58.2389" lon="-5.24109">
        <ele>19.73</ele>
        <time>2021-03-20T17:37:47Z</time>
      </trkpt>
      <trkpt lat="58.23953" lon="-5.24009">
        <ele>12</ele>
        <time>2021-03-20T17:37:50Z</time>
      </trkpt>
      <trkpt lat="58.23976" lon="-5.23981">
        <ele>11.96</ele>
        <time>2021-03-20T17:37:53Z</time>
      </trkpt>
      <trkpt lat="58.23988" lon="-5.23977">
        <ele>11.9</ele>
        <time>2021-03-20T17:37:55Z</time>
      </trkpt>
      <trkpt lat="58.2404" lon="-5.23986">
        <ele>12.95</ele>
        <time>2021-03-20T17:37:58Z</time>
      </trkpt>
      <trkpt lat="58.24087" lon="-5.23999">
        <ele>12.91</ele>
        <time>2021-03-20T17:38:01Z</time>
      </trkpt>
      <trkpt lat="58.24101" lon="-5.24">
        <ele>12.37</ele>
        <time>2021-03-20T17:38:04Z</time>
      </trkpt>
      <trkpt lat="58.24119" lon="-5.23994">
        <ele>11.94</ele>
        <time>2021-03-20T17:38:06Z</time>
      </trkpt>
      <trkpt lat="58.24137" lon="-5.23981">
        <ele>11.75</ele>
        <time>2021-03-20T17:38:09Z</time>
      </trkpt>
      <trkpt lat="58.24152" lon="-5.23962">
        <ele>11.88</ele>
        <time>2021-03-20T17:38:12Z</time>
      </trkpt>
      <trkpt lat="58.24181" lon="-5.23914">
        <ele>12.6</ele>
        <time>2021-03-20T17:38:14Z</time>
      </trkpt>
      <trkpt lat="58.2419" lon="-5.23889">
        <ele>13.15</ele>
        <time>2021-03-20T17:38:17Z</time>
      </trkpt>
      <trkpt lat="58.24223" lon="-5.23769">
        <ele>12</ele>
        <time>2021-03-20T17:38:20Z</time>
      </trkpt>
      <trkpt lat="58.24228" lon="-5.2376">
        <ele>12</ele>
        <time>2021-03-20T17:38:23Z</time>
      </trkpt>
      <trkpt lat="58.24398" lon="-5.2357">
        <ele>11.22</ele>
        <time>2021-03-20T17:38:25Z</time>
      </trkpt>
      <trkpt lat="58.24405" lon="-5.23559">
        <ele>10.82</ele>
        <time>2021-03-20T17:38:28Z</time>
      </trkpt>
      <trkpt lat="58.24424" lon="-5.23518">
        <ele>9.55</ele>
        <time>2021-03-20T17:38:31Z</time>
      </trkpt>
      <trkpt lat="58.24439" lon="-5.23497">
        <ele>8.36</ele>
        <time>2021-03-20T17:38:34Z</time>
      </trkpt>
      <trkpt lat="58.24495" lon="-5.23384">
        <ele>6.11</ele>
        <time>2021-03-20T17:38:36Z</time>
      </trkpt>
      <trkpt lat="58.24514" lon="-5.23341">
        <ele>6.59</ele>
        <time>2021-03-20T17:38:39Z</time>
      </trkpt>
      <trkpt lat="58.24518" lon="-5.23321">
        <ele>6.85</ele>
        <time>2021-03-20T17:38:42Z</time>
      </trkpt>
      <trkpt lat="58.24519" lon="-5.23312">
        <ele>7.08</ele>
        <time>2021-03-20T17:38:45Z</time>
      </trkpt>
      <trkpt lat="58.24518" lon="-5.23302">
        <ele>7.57</ele>
        <time>2021-03-20T17:38:47Z</time>
      </trkpt>
      <trkpt lat="58.2451" lon="-5.23278">
        <ele>9.53</ele>
        <time>2021-03-20T17:38:50Z</time>
      </trkpt>
      <trkpt lat="58.24492" lon="-5.23194">
        <ele>12.59</ele>
        <time>2021-03-20T17:38:53Z</time>
      </trkpt>
      <trkpt lat="58.24448" lon="-5.2304">
        <ele>13</ele>
        <time>2021-03-20T17:38:55Z</time>
      </trkpt>
      <trkpt lat="58.24398" lon="-5.22836">
        <ele>13.09</ele>
        <time>2021-03-20T17:38:58Z</time>
      </trkpt>
      <trkpt lat="58.24363" lon="-5.22702">
        <ele>14.64</ele>
        <time>2021-03-20T17:39:01Z</time>
      </trkpt>
      <trkpt lat="58.24339" lon="-5.22623">
        <ele>19.22</ele>
        <time>2021-03-20T17:39:04Z</time>
      </trkpt>
      <trkpt lat="58.24299" lon="-5.22552">
        <ele>25.47</ele>
        <time>2021-03-20T17:39:06Z</time>
      </trkpt>
      <trkpt lat="58.24277" lon="-5.225">
        <ele>29.08</ele>
        <time>2021-03-20T17:39:09Z</time>
      </trkpt>
      <trkpt lat="58.24271" lon="-5.22467">
        <ele>31.81</ele>
        <time>2021-03-20T17:39:12Z</time>
      </trkpt>
      <trkpt lat="58.24272" lon="-5.22437">
        <ele>33.49</ele>
        <time>2021-03-20T17:39:15Z</time>
      </trkpt>
      <trkpt lat="58.24279" lon="-5.22319">
        <ele>36.09</ele>
        <time>2021-03-20T17:39:17Z</time>
      </trkpt>
      <trkpt lat="58.24285" lon="-5.22269">
        <ele>36.24</ele>
        <time>2021-03-20T17:39:20Z</time>
      </trkpt>
      <trkpt lat="58.24295" lon="-5.22234">
        <ele>36.03</ele>
        <time>2021-03-20T17:39:23Z</time>
      </trkpt>
      <trkpt lat="58.2432" lon="-5.22202">
        <ele>36.33</ele>
        <time>2021-03-20T17:39:25Z</time>
      </trkpt>
      <trkpt lat="58.24331" lon="-5.22184">
        <ele>36.42</ele>
        <time>2021-03-20T17:39:28Z</time>
      </trkpt>
      <trkpt lat="58.24337" lon="-5.22163">
        <ele>36.44</ele>
        <time>2021-03-20T17:39:31Z</time>
      </trkpt>
      <trkpt lat="58.24343" lon="-5.22124">
        <ele>36.87</ele>
        <time>2021-03-20T17:39:34Z</time>
      </trkpt>
      <trkpt lat="58.24344" lon="-5.22101">
        <ele>36.79</ele>
        <time>2021-03-20T17:39:36Z</time>
      </trkpt>
      <trkpt lat="58.24343" lon="-5.2207">
        <ele>36.9</ele>
        <time>2021-03-20T17:39:39Z</time>
      </trkpt>
      <trkpt lat="58.2434" lon="-5.22012">
        <ele>36.82</ele>
        <time>2021-03-20T17:39:42Z</time>
      </trkpt>
      <trkpt lat="58.24335" lon="-5.21966">
        <ele>37.49</ele>
        <time>2021-03-20T17:39:45Z</time>
      </trkpt>
      <trkpt lat="58.2433" lon="-5.21937">
        <ele>37.78</ele>
        <time>2021-03-20T17:39:47Z</time>
      </trkpt>
      <trkpt lat="58.24283" lon="-5.21749">
        <ele>39.74</ele>
        <time>2021-03-20T17:39:50Z</time>
      </trkpt>
      <trkpt lat="58.2424" lon="-5.21555">
        <ele>39.5</ele>
        <time>2021-03-20T17:39:53Z</time>
      </trkpt>
      <trkpt lat="58.24234" lon="-5.21514">
        <ele>38.93</ele>
        <time>2021-03-20T17:39:55Z</time>
      </trkpt>
      <trkpt lat="58.24233" lon="-5.21489">
        <ele>38.76</ele>
        <time>2021-03-20T17:39:58Z</time>
      </trkpt>
      <trkpt lat="58.24236" lon="-5.21464">
        <ele>38.08</ele>
        <time>2021-03-20T17:40:01Z</time>
      </trkpt>
      <trkpt lat="58.24247" lon="-5.21438">
        <ele>37.57</ele>
        <time>2021-03-20T17:40:04Z</time>
      </trkpt>
      <trkpt lat="58.2429" lon="-5.21388">
        <ele>37.38</ele>
        <time>2021-03-20T17:40:06Z</time>
      </trkpt>
      <trkpt lat="58.24312" lon="-5.21357">
        <ele>36.61</ele>
        <time>2021-03-20T17:40:09Z</time>
      </trkpt>
      <trkpt lat="58.24321" lon="-5.21353">
        <ele>36.17</ele>
        <time>2021-03-20T17:40:12Z</time>
      </trkpt>
      <trkpt lat="58.24331" lon="-5.21359">
        <ele>36.03</ele>
        <time>2021-03-20T17:40:15Z</time>
      </trkpt>
      <trkpt lat="58.2435" lon="-5.21396">
        <ele>36.29</ele>
        <time>2021-03-20T17:40:17Z</time>
      </trkpt>
      <trkpt lat="58.24373" lon="-5.21426">
        <ele>36.49</ele>
        <time>2021-03-20T17:40:20Z</time>
      </trkpt>
      <trkpt lat="58.24392" lon="-5.21431">
        <ele>35.4</ele>
        <time>2021-03-20T17:40:23Z</time>
      </trkpt>
      <trkpt lat="58.2441" lon="-5.21427">
        <ele>34.64</ele>
        <time>2021-03-20T17:40:26Z</time>
      </trkpt>
      <trkpt lat="58.24424" lon="-5.21415">
        <ele>34.42</ele>
        <time>2021-03-20T17:40:28Z</time>
      </trkpt>
      <trkpt lat="58.24436" lon="-5.21397">
        <ele>34.64</ele>
        <time>2021-03-20T17:40:31Z</time>
      </trkpt>
      <trkpt lat="58.24453" lon="-5.21322">
        <ele>37.28</ele>
        <time>2021-03-20T17:40:34Z</time>
      </trkpt>
      <trkpt lat="58.2447" lon="-5.21205">
        <ele>42.56</ele>
        <time>2021-03-20T17:40:36Z</time>
      </trkpt>
      <trkpt lat="58.24469" lon="-5.21169">
        <ele>43.27</ele>
        <time>2021-03-20T17:40:39Z</time>
      </trkpt>
      <trkpt lat="58.2446" lon="-5.2105">
        <ele>42</ele>
        <time>2021-03-20T17:40:42Z</time>
      </trkpt>
      <trkpt lat="58.24455" lon="-5.2101">
        <ele>41.55</ele>
        <time>2021-03-20T17:40:45Z</time>
      </trkpt>
      <trkpt lat="58.24447" lon="-5.20965">
        <ele>39.94</ele>
        <time>2021-03-20T17:40:47Z</time>
      </trkpt>
      <trkpt lat="58.24444" lon="-5.20935">
        <ele>39.99</ele>
        <time>2021-03-20T17:40:50Z</time>
      </trkpt>
      <trkpt lat="58.24449" lon="-5.20915">
        <ele>41.08</ele>
        <time>2021-03-20T17:40:53Z</time>
      </trkpt>
      <trkpt lat="58.24468" lon="-5.20858">
        <ele>42.88</ele>
        <time>2021-03-20T17:40:56Z</time>
      </trkpt>
      <trkpt lat="58.24473" lon="-5.20832">
        <ele>42.18</ele>
        <time>2021-03-20T17:40:58Z</time>
      </trkpt>
      <trkpt lat="58.24477" lon="-5.20803">
        <ele>42.85</ele>
        <time>2021-03-20T17:41:01Z</time>
      </trkpt>
      <trkpt lat="58.24477" lon="-5.20778">
        <ele>41.86</ele>
        <time>2021-03-20T17:41:04Z</time>
      </trkpt>
      <trkpt lat="58.24472" lon="-5.207">
        <ele>43.79</ele>
        <time>2021-03-20T17:41:06Z</time>
      </trkpt>
      <trkpt lat="58.24468" lon="-5.20675">
        <ele>44.65</ele>
        <time>2021-03-20T17:41:09Z</time>
      </trkpt>
      <trkpt lat="58.24463" lon="-5.2062">
        <ele>45.79</ele>
        <time>2021-03-20T17:41:12Z</time>
      </trkpt>
      <trkpt lat="58.24457" lon="-5.20587">
        <ele>47.17</ele>
        <time>2021-03-20T17:41:15Z</time>
      </trkpt>
      <trkpt lat="58.24446" lon="-5.2055">
        <ele>49.79</ele>
        <time>2021-03-20T17:41:17Z</time>
      </trkpt>
      <trkpt lat="58.24438" lon="-5.20515">
        <ele>50.5</ele>
        <time>2021-03-20T17:41:20Z</time>
      </trkpt>
      <trkpt lat="58.24437" lon="-5.20496">
        <ele>50.36</ele>
        <time>2021-03-20T17:41:23Z</time>
      </trkpt>
      <trkpt lat="58.24423" lon="-5.20451">
        <ele>48.23</ele>
        <time>2021-03-20T17:41:26Z</time>
      </trkpt>
      <trkpt lat="58.24413" lon="-5.20426">
        <ele>47.01</ele>
        <time>2021-03-20T17:41:28Z</time>
      </trkpt>
      <trkpt lat="58.24392" lon="-5.20388">
        <ele>44.24</ele>
        <time>2021-03-20T17:41:31Z</time>
      </trkpt>
      <trkpt lat="58.24382" lon="-5.20362">
        <ele>43.99</ele>
        <time>2021-03-20T17:41:34Z</time>
      </trkpt>
      <trkpt lat="58.24376" lon="-5.20341">
        <ele>43.92</ele>
        <time>2021-03-20T17:41:36Z</time>
      </trkpt>
      <trkpt lat="58.24341" lon="-5.20237">
        <ele>47.64</ele>
        <time>2021-03-20T17:41:39Z</time>
      </trkpt>
      <trkpt lat="58.2431" lon="-5.20163">
        <ele>49.55</ele>
        <time>2021-03-20T17:41:42Z</time>
      </trkpt>
      <trkpt lat="58.24282" lon="-5.20106">
        <ele>49.14</ele>
        <time>2021-03-20T17:41:45Z</time>
      </trkpt>
      <trkpt lat="58.24225" lon="-5.2">
        <ele>46.31</ele>
        <time>2021-03-20T17:41:47Z</time>
      </trkpt>
      <trkpt lat="58.24202" lon="-5.19946">
        <ele>47.91</ele>
        <time>2021-03-20T17:41:50Z</time>
      </trkpt>
      <trkpt lat="58.24128" lon="-5.19814">
        <ele>52.09</ele>
        <time>2021-03-20T17:41:53Z</time>
      </trkpt>
      <trkpt lat="58.2411" lon="-5.19785">
        <ele>52.71</ele>
        <time>2021-03-20T17:41:56Z</time>
      </trkpt>
      <trkpt lat="58.24099" lon="-5.19741">
        <ele>54.6</ele>
        <time>2021-03-20T17:41:58Z</time>
      </trkpt>
      <trkpt lat="58.24091" lon="-5.19658">
        <ele>58.12</ele>
        <time>2021-03-20T17:42:01Z</time>
      </trkpt>
      <trkpt lat="58.24094" lon="-5.19608">
        <ele>62.63</ele>
        <time>2021-03-20T17:42:04Z</time>
      </trkpt>
      <trkpt lat="58.24129" lon="-5.19495">
        <ele>67.5</ele>
        <time>2021-03-20T17:42:07Z</time>
      </trkpt>
      <trkpt lat="58.24185" lon="-5.1936">
        <ele>63.92</ele>
        <time>2021-03-20T17:42:09Z</time>
      </trkpt>
      <trkpt lat="58.24224" lon="-5.19272">
        <ele>55.72</ele>
        <time>2021-03-20T17:42:12Z</time>
      </trkpt>
      <trkpt lat="58.24238" lon="-5.19255">
        <ele>53.51</ele>
        <time>2021-03-20T17:42:15Z</time>
      </trkpt>
      <trkpt lat="58.24246" lon="-5.19233">
        <ele>53.12</ele>
        <time>2021-03-20T17:42:17Z</time>
      </trkpt>
      <trkpt lat="58.24252" lon="-5.19185">
        <ele>55.33</ele>
        <time>2021-03-20T17:42:20Z</time>
      </trkpt>
      <trkpt lat="58.24258" lon="-5.19157">
        <ele>56.13</ele>
        <time>2021-03-20T17:42:23Z</time>
      </trkpt>
      <trkpt lat="58.24282" lon="-5.19103">
        <ele>54.96</ele>
        <time>2021-03-20T17:42:26Z</time>
      </trkpt>
      <trkpt lat="58.24295" lon="-5.19033">
        <ele>54.81</ele>
        <time>2021-03-20T17:42:28Z</time>
      </trkpt>
      <trkpt lat="58.24304" lon="-5.18977">
        <ele>55.12</ele>
        <time>2021-03-20T17:42:31Z</time>
      </trkpt>
      <trkpt lat="58.24305" lon="-5.18929">
        <ele>56.69</ele>
        <time>2021-03-20T17:42:34Z</time>
      </trkpt>
      <trkpt lat="58.24302" lon="-5.18885">
        <ele>59.13</ele>
        <time>2021-03-20T17:42:37Z</time>
      </trkpt>
      <trkpt lat="58.24257" lon="-5.18731">
        <ele>72.75</ele>
        <time>2021-03-20T17:42:39Z</time>
      </trkpt>
      <trkpt lat="58.242" lon="-5.18518">
        <ele>74.21</ele>
        <time>2021-03-20T17:42:42Z</time>
      </trkpt>
      <trkpt lat="58.24189" lon="-5.18443">
        <ele>72.86</ele>
        <time>2021-03-20T17:42:45Z</time>
      </trkpt>
      <trkpt lat="58.24173" lon="-5.18249">
        <ele>68.66</ele>
        <time>2021-03-20T17:42:47Z</time>
      </trkpt>
      <trkpt lat="58.24168" lon="-5.18127">
        <ele>68.75</ele>
        <time>2021-03-20T17:42:50Z</time>
      </trkpt>
      <trkpt lat="58.24153" lon="-5.18087">
        <ele>67.01</ele>
        <time>2021-03-20T17:42:53Z</time>
      </trkpt>
      <trkpt lat="58.24079" lon="-5.18017">
        <ele>61.33</ele>
        <time>2021-03-20T17:42:56Z</time>
      </trkpt>
      <trkpt lat="58.24053" lon="-5.17911">
        <ele>58.96</ele>
        <time>2021-03-20T17:42:58Z</time>
      </trkpt>
      <trkpt lat="58.24051" lon="-5.1783">
        <ele>54.11</ele>
        <time>2021-03-20T17:43:01Z</time>
      </trkpt>
      <trkpt lat="58.24034" lon="-5.17782">
        <ele>50.78</ele>
        <time>2021-03-20T17:43:04Z</time>
      </trkpt>
      <trkpt lat="58.23986" lon="-5.17729">
        <ele>45.08</ele>
        <time>2021-03-20T17:43:07Z</time>
      </trkpt>
      <trkpt lat="58.23967" lon="-5.17716">
        <ele>42.74</ele>
        <time>2021-03-20T17:43:09Z</time>
      </trkpt>
      <trkpt lat="58.23938" lon="-5.17733">
        <ele>48.28</ele>
        <time>2021-03-20T17:43:12Z</time>
      </trkpt>
      <trkpt lat="58.23894" lon="-5.17705">
        <ele>44.39</ele>
        <time>2021-03-20T17:43:15Z</time>
      </trkpt>
      <trkpt lat="58.23827" lon="-5.17645">
        <ele>40.99</ele>
        <time>2021-03-20T17:43:18Z</time>
      </trkpt>
      <trkpt lat="58.23786" lon="-5.17614">
        <ele>42.23</ele>
        <time>2021-03-20T17:43:20Z</time>
      </trkpt>
      <trkpt lat="58.23653" lon="-5.17574">
        <ele>45.7</ele>
        <time>2021-03-20T17:43:23Z</time>
      </trkpt>
      <trkpt lat="58.2362" lon="-5.17486">
        <ele>41.67</ele>
        <time>2021-03-20T17:43:26Z</time>
      </trkpt>
      <trkpt lat="58.23613" lon="-5.17423">
        <ele>43.82</ele>
        <time>2021-03-20T17:43:28Z</time>
      </trkpt>
      <trkpt lat="58.23608" lon="-5.17341">
        <ele>43.97</ele>
        <time>2021-03-20T17:43:31Z</time>
      </trkpt>
      <trkpt lat="58.23567" lon="-5.17217">
        <ele>40.83</ele>
        <time>2021-03-20T17:43:34Z</time>
      </trkpt>
      <trkpt lat="58.23541" lon="-5.17154">
        <ele>39.52</ele>
        <time>2021-03-20T17:43:37Z</time>
      </trkpt>
      <trkpt lat="58.23534" lon="-5.17127">
        <ele>39.55</ele>
        <time>2021-03-20T17:43:39Z</time>
      </trkpt>
      <trkpt lat="58.23539" lon="-5.17084">
        <ele>36.31</ele>
        <time>2021-03-20T17:43:42Z</time>
      </trkpt>
      <trkpt lat="58.23546" lon="-5.17042">
        <ele>31.97</ele>
        <time>2021-03-20T17:43:45Z</time>
      </trkpt>
      <trkpt lat="58.23544" lon="-5.16963">
        <ele>27.74</ele>
        <time>2021-03-20T17:43:48Z</time>
      </trkpt>
      <trkpt lat="58.23549" lon="-5.16912">
        <ele>23.91</ele>
        <time>2021-03-20T17:43:50Z</time>
      </trkpt>
      <trkpt lat="58.23548" lon="-5.16814">
        <ele>18</ele>
        <time>2021-03-20T17:43:53Z</time>
      </trkpt>
      <trkpt lat="58.23527" lon="-5.16624">
        <ele>7.19</ele>
        <time>2021-03-20T17:43:56Z</time>
      </trkpt>
      <trkpt lat="58.23474" lon="-5.16477">
        <ele>10.25</ele>
        <time>2021-03-20T17:43:58Z</time>
      </trkpt>
      <trkpt lat="58.23443" lon="-5.16418">
        <ele>12.96</ele>
        <time>2021-03-20T17:44:01Z</time>
      </trkpt>
      <trkpt lat="58.23433" lon="-5.16366">
        <ele>11.85</ele>
        <time>2021-03-20T17:44:04Z</time>
      </trkpt>
      <trkpt lat="58.23442" lon="-5.16313">
        <ele>7.93</ele>
        <time>2021-03-20T17:44:07Z</time>
      </trkpt>
      <trkpt lat="58.23437" lon="-5.16252">
        <ele>7.5</ele>
        <time>2021-03-20T17:44:09Z</time>
      </trkpt>
      <trkpt lat="58.23395" lon="-5.16132">
        <ele>11.18</ele>
        <time>2021-03-20T17:44:12Z</time>
      </trkpt>
      <trkpt lat="58.23326" lon="-5.15987">
        <ele>9.29</ele>
        <time>2021-03-20T17:44:15Z</time>
      </trkpt>
      <trkpt lat="58.23294" lon="-5.15893">
        <ele>6.94</ele>
        <time>2021-03-20T17:44:18Z</time>
      </trkpt>
      <trkpt lat="58.23284" lon="-5.15843">
        <ele>6.67</ele>
        <time>2021-03-20T17:44:20Z</time>
      </trkpt>
      <trkpt lat="58.23291" lon="-5.15796">
        <ele>5.54</ele>
        <time>2021-03-20T17:44:23Z</time>
      </trkpt>
      <trkpt lat="58.23301" lon="-5.15772">
        <ele>5.18</ele>
        <time>2021-03-20T17:44:26Z</time>
      </trkpt>
      <trkpt lat="58.2336" lon="-5.15712">
        <ele>8.27</ele>
        <time>2021-03-20T17:44:28Z</time>
      </trkpt>
      <trkpt lat="58.23368" lon="-5.15696">
        <ele>9.75</ele>
        <time>2021-03-20T17:44:31Z</time>
      </trkpt>
      <trkpt lat="58.23374" lon="-5.15667">
        <ele>11.35</ele>
        <time>2021-03-20T17:44:34Z</time>
      </trkpt>
      <trkpt lat="58.23376" lon="-5.15627">
        <ele>13.43</ele>
        <time>2021-03-20T17:44:37Z</time>
      </trkpt>
      <trkpt lat="58.23354" lon="-5.15523">
        <ele>24.16</ele>
        <time>2021-03-20T17:44:39Z</time>
      </trkpt>
      <trkpt lat="58.23336" lon="-5.15466">
        <ele>29.75</ele>
        <time>2021-03-20T17:44:42Z</time>
      </trkpt>
      <trkpt lat="58.23309" lon="-5.15394">
        <ele>32.37</ele>
        <time>2021-03-20T17:44:45Z</time>
      </trkpt>
      <trkpt lat="58.23286" lon="-5.1536">
        <ele>30.26</ele>
        <time>2021-03-20T17:44:48Z</time>
      </trkpt>
      <trkpt lat="58.23282" lon="-5.15308">
        <ele>33.89</ele>
        <time>2021-03-20T17:44:50Z</time>
      </trkpt>
      <trkpt lat="58.23286" lon="-5.15246">
        <ele>40.42</ele>
        <time>2021-03-20T17:44:53Z</time>
      </trkpt>
      <trkpt lat="58.23284" lon="-5.15204">
        <ele>42.93</ele>
        <time>2021-03-20T17:44:56Z</time>
      </trkpt>
      <trkpt lat="58.23268" lon="-5.15057">
        <ele>52.33</ele>
        <time>2021-03-20T17:44:59Z</time>
      </trkpt>
      <trkpt lat="58.23243" lon="-5.14967">
        <ele>58.35</ele>
        <time>2021-03-20T17:45:01Z</time>
      </trkpt>
      <trkpt lat="58.23211" lon="-5.1491">
        <ele>60.37</ele>
        <time>2021-03-20T17:45:04Z</time>
      </trkpt>
      <trkpt lat="58.23206" lon="-5.14882">
        <ele>63.69</ele>
        <time>2021-03-20T17:45:07Z</time>
      </trkpt>
      <trkpt lat="58.23214" lon="-5.14853">
        <ele>67.02</ele>
        <time>2021-03-20T17:45:09Z</time>
      </trkpt>
      <trkpt lat="58.23233" lon="-5.148">
        <ele>74.51</ele>
        <time>2021-03-20T17:45:12Z</time>
      </trkpt>
      <trkpt lat="58.23237" lon="-5.1474">
        <ele>80.35</ele>
        <time>2021-03-20T17:45:15Z</time>
      </trkpt>
      <trkpt lat="58.23232" lon="-5.14686">
        <ele>82.15</ele>
        <time>2021-03-20T17:45:18Z</time>
      </trkpt>
      <trkpt lat="58.23224" lon="-5.14563">
        <ele>86.11</ele>
        <time>2021-03-20T17:45:20Z</time>
      </trkpt>
      <trkpt lat="58.23233" lon="-5.14463">
        <ele>90.66</ele>
        <time>2021-03-20T17:45:23Z</time>
      </trkpt>
      <trkpt lat="58.2323" lon="-5.14342">
        <ele>87.83</ele>
        <time>2021-03-20T17:45:26Z</time>
      </trkpt>
      <trkpt lat="58.23237" lon="-5.14173">
        <ele>91.11</ele>
        <time>2021-03-20T17:45:29Z</time>
      </trkpt>
      <trkpt lat="58.23236" lon="-5.14008">
        <ele>94.68</ele>
        <time>2021-03-20T17:45:31Z</time>
      </trkpt>
      <trkpt lat="58.23245" lon="-5.13901">
        <ele>96.57</ele>
        <time>2021-03-20T17:45:34Z</time>
      </trkpt>
      <trkpt lat="58.23291" lon="-5.138">
        <ele>103.51</ele>
        <time>2021-03-20T17:45:37Z</time>
      </trkpt>
      <trkpt lat="58.23297" lon="-5.13743">
        <ele>104.77</ele>
        <time>2021-03-20T17:45:39Z</time>
      </trkpt>
      <trkpt lat="58.23333" lon="-5.13718">
        <ele>108.94</ele>
        <time>2021-03-20T17:45:42Z</time>
      </trkpt>
      <trkpt lat="58.23372" lon="-5.13682">
        <ele>109.74</ele>
        <time>2021-03-20T17:45:45Z</time>
      </trkpt>
      <trkpt lat="58.23417" lon="-5.13708">
        <ele>109.01</ele>
        <time>2021-03-20T17:45:48Z</time>
      </trkpt>
      <trkpt lat="58.23446" lon="-5.13705">
        <ele>110.05</ele>
        <time>2021-03-20T17:45:50Z</time>
      </trkpt>
      <trkpt lat="58.23518" lon="-5.13672">
        <ele>113.48</ele>
        <time>2021-03-20T17:45:53Z</time>
      </trkpt>
      <trkpt lat="58.23546" lon="-5.13673">
        <ele>114.9</ele>
        <time>2021-03-20T17:45:56Z</time>
      </trkpt>
      <trkpt lat="58.23572" lon="-5.13699">
        <ele>114.99</ele>
        <time>2021-03-20T17:45:59Z</time>
      </trkpt>
      <trkpt lat="58.23601" lon="-5.13764">
        <ele>117.1</ele>
        <time>2021-03-20T17:46:01Z</time>
      </trkpt>
      <trkpt lat="58.23618" lon="-5.13771">
        <ele>120.67</ele>
        <time>2021-03-20T17:46:04Z</time>
      </trkpt>
      <trkpt lat="58.23629" lon="-5.13759">
        <ele>123.48</ele>
        <time>2021-03-20T17:46:07Z</time>
      </trkpt>
      <trkpt lat="58.23637" lon="-5.1372">
        <ele>125.66</ele>
        <time>2021-03-20T17:46:09Z</time>
      </trkpt>
      <trkpt lat="58.23646" lon="-5.13632">
        <ele>130.25</ele>
        <time>2021-03-20T17:46:12Z</time>
      </trkpt>
      <trkpt lat="58.23694" lon="-5.13548">
        <ele>133.29</ele>
        <time>2021-03-20T17:46:15Z</time>
      </trkpt>
      <trkpt lat="58.23736" lon="-5.13458">
        <ele>131.73</ele>
        <time>2021-03-20T17:46:18Z</time>
      </trkpt>
      <trkpt lat="58.2374" lon="-5.13423">
        <ele>131.5</ele>
        <time>2021-03-20T17:46:20Z</time>
      </trkpt>
      <trkpt lat="58.23734" lon="-5.13385">
        <ele>131.24</ele>
        <time>2021-03-20T17:46:23Z</time>
      </trkpt>
      <trkpt lat="58.2373" lon="-5.13333">
        <ele>131.11</ele>
        <time>2021-03-20T17:46:26Z</time>
      </trkpt>
      <trkpt lat="58.23733" lon="-5.13269">
        <ele>132.06</ele>
        <time>2021-03-20T17:46:29Z</time>
      </trkpt>
      <trkpt lat="58.23744" lon="-5.13229">
        <ele>131.68</ele>
        <time>2021-03-20T17:46:31Z</time>
      </trkpt>
      <trkpt lat="58.23764" lon="-5.13204">
        <ele>131.14</ele>
        <time>2021-03-20T17:46:34Z</time>
      </trkpt>
      <trkpt lat="58.23789" lon="-5.13213">
        <ele>130.35</ele>
        <time>2021-03-20T17:46:37Z</time>
      </trkpt>
      <trkpt lat="58.23857" lon="-5.13265">
        <ele>130</ele>
        <time>2021-03-20T17:46:40Z</time>
      </trkpt>
      <trkpt lat="58.23875" lon="-5.13257">
        <ele>129.49</ele>
        <time>2021-03-20T17:46:42Z</time>
      </trkpt>
      <trkpt lat="58.23925" lon="-5.13181">
        <ele>129.18</ele>
        <time>2021-03-20T17:46:45Z</time>
      </trkpt>
      <trkpt lat="58.23963" lon="-5.13113">
        <ele>128.63</ele>
        <time>2021-03-20T17:46:48Z</time>
      </trkpt>
      <trkpt lat="58.2399" lon="-5.12992">
        <ele>129.28</ele>
        <time>2021-03-20T17:46:50Z</time>
      </trkpt>
      <trkpt lat="58.23993" lon="-5.12953">
        <ele>130.21</ele>
        <time>2021-03-20T17:46:53Z</time>
      </trkpt>
      <trkpt lat="58.23985" lon="-5.12892">
        <ele>131.1</ele>
        <time>2021-03-20T17:46:56Z</time>
      </trkpt>
      <trkpt lat="58.23988" lon="-5.12847">
        <ele>131.93</ele>
        <time>2021-03-20T17:46:59Z</time>
      </trkpt>
      <trkpt lat="58.24025" lon="-5.12791">
        <ele>133.16</ele>
        <time>2021-03-20T17:47:01Z</time>
      </trkpt>
      <trkpt lat="58.24054" lon="-5.12721">
        <ele>134.76</ele>
        <time>2021-03-20T17:47:04Z</time>
      </trkpt>
      <trkpt lat="58.24054" lon="-5.12721">
        <ele>134.76</ele>
        <time>2021-03-20T17:47:04Z</time>
      </trkpt>
      <trkpt lat="58.24157" lon="-5.12475">
        <ele>136.36</ele>
        <time>2021-03-20T17:47:07Z</time>
      </trkpt>
      <trkpt lat="58.24196" lon="-5.12397">
        <ele>134.07</ele>
        <time>2021-03-20T17:47:10Z</time>
      </trkpt>
      <trkpt lat="58.24202" lon="-5.12374">
        <ele>132.31</ele>
        <time>2021-03-20T17:47:12Z</time>
      </trkpt>
      <trkpt lat="58.24184" lon="-5.12268">
        <ele>131.89</ele>
        <time>2021-03-20T17:47:15Z</time>
      </trkpt>
      <trkpt lat="58.24192" lon="-5.12215">
        <ele>129.42</ele>
        <time>2021-03-20T17:47:18Z</time>
      </trkpt>
      <trkpt lat="58.24193" lon="-5.12006">
        <ele>120.79</ele>
        <time>2021-03-20T17:47:20Z</time>
      </trkpt>
      <trkpt lat="58.24183" lon="-5.11818">
        <ele>109.79</ele>
        <time>2021-03-20T17:47:23Z</time>
      </trkpt>
      <trkpt lat="58.24186" lon="-5.11753">
        <ele>107.28</ele>
        <time>2021-03-20T17:47:26Z</time>
      </trkpt>
      <trkpt lat="58.242" lon="-5.11694">
        <ele>105.44</ele>
        <time>2021-03-20T17:47:29Z</time>
      </trkpt>
      <trkpt lat="58.24222" lon="-5.11647">
        <ele>102.1</ele>
        <time>2021-03-20T17:47:31Z</time>
      </trkpt>
      <trkpt lat="58.2427" lon="-5.11525">
        <ele>96.56</ele>
        <time>2021-03-20T17:47:34Z</time>
      </trkpt>
      <trkpt lat="58.24306" lon="-5.11493">
        <ele>91.69</ele>
        <time>2021-03-20T17:47:37Z</time>
      </trkpt>
      <trkpt lat="58.24312" lon="-5.11467">
        <ele>89.89</ele>
        <time>2021-03-20T17:47:39Z</time>
      </trkpt>
      <trkpt lat="58.24312" lon="-5.11431">
        <ele>88.39</ele>
        <time>2021-03-20T17:47:42Z</time>
      </trkpt>
      <trkpt lat="58.24318" lon="-5.11406">
        <ele>86.58</ele>
        <time>2021-03-20T17:47:45Z</time>
      </trkpt>
      <trkpt lat="58.24368" lon="-5.11302">
        <ele>83.09</ele>
        <time>2021-03-20T17:47:48Z</time>
      </trkpt>
      <trkpt lat="58.24401" lon="-5.11238">
        <ele>80.66</ele>
        <time>2021-03-20T17:47:50Z</time>
      </trkpt>
      <trkpt lat="58.24423" lon="-5.1124">
        <ele>78.72</ele>
        <time>2021-03-20T17:47:53Z</time>
      </trkpt>
      <trkpt lat="58.24444" lon="-5.11235">
        <ele>75.58</ele>
        <time>2021-03-20T17:47:56Z</time>
      </trkpt>
      <trkpt lat="58.24461" lon="-5.11183">
        <ele>70.65</ele>
        <time>2021-03-20T17:47:58Z</time>
      </trkpt>
      <trkpt lat="58.24462" lon="-5.11132">
        <ele>68.64</ele>
        <time>2021-03-20T17:48:01Z</time>
      </trkpt>
      <trkpt lat="58.24429" lon="-5.11015">
        <ele>70.68</ele>
        <time>2021-03-20T17:48:04Z</time>
      </trkpt>
      <trkpt lat="58.24422" lon="-5.10956">
        <ele>70.83</ele>
        <time>2021-03-20T17:48:06Z</time>
      </trkpt>
      <trkpt lat="58.24444" lon="-5.10874">
        <ele>75.09</ele>
        <time>2021-03-20T17:48:09Z</time>
      </trkpt>
      <trkpt lat="58.24443" lon="-5.10786">
        <ele>81.68</ele>
        <time>2021-03-20T17:48:12Z</time>
      </trkpt>
      <trkpt lat="58.2445" lon="-5.10716">
        <ele>86.01</ele>
        <time>2021-03-20T17:48:15Z</time>
      </trkpt>
      <trkpt lat="58.24467" lon="-5.10634">
        <ele>89.59</ele>
        <time>2021-03-20T17:48:17Z</time>
      </trkpt>
      <trkpt lat="58.24484" lon="-5.10537">
        <ele>94.49</ele>
        <time>2021-03-20T17:48:20Z</time>
      </trkpt>
      <trkpt lat="58.24487" lon="-5.10429">
        <ele>100.54</ele>
        <time>2021-03-20T17:48:23Z</time>
      </trkpt>
      <trkpt lat="58.24488" lon="-5.10346">
        <ele>104.59</ele>
        <time>2021-03-20T17:48:25Z</time>
      </trkpt>
      <trkpt lat="58.245" lon="-5.10299">
        <ele>104.71</ele>
        <time>2021-03-20T17:48:28Z</time>
      </trkpt>
      <trkpt lat="58.2453" lon="-5.10267">
        <ele>105.65</ele>
        <time>2021-03-20T17:48:31Z</time>
      </trkpt>
      <trkpt lat="58.24651" lon="-5.1022">
        <ele>115.51</ele>
        <time>2021-03-20T17:48:34Z</time>
      </trkpt>
      <trkpt lat="58.24679" lon="-5.10145">
        <ele>113.05</ele>
        <time>2021-03-20T17:48:36Z</time>
      </trkpt>
      <trkpt lat="58.24681" lon="-5.1008">
        <ele>109.22</ele>
        <time>2021-03-20T17:48:39Z</time>
      </trkpt>
      <trkpt lat="58.24659" lon="-5.09855">
        <ele>103.44</ele>
        <time>2021-03-20T17:48:42Z</time>
      </trkpt>
      <trkpt lat="58.24665" lon="-5.09812">
        <ele>99.83</ele>
        <time>2021-03-20T17:48:44Z</time>
      </trkpt>
      <trkpt lat="58.2469" lon="-5.09794">
        <ele>95.54</ele>
        <time>2021-03-20T17:48:47Z</time>
      </trkpt>
      <trkpt lat="58.24715" lon="-5.09798">
        <ele>91.82</ele>
        <time>2021-03-20T17:48:50Z</time>
      </trkpt>
      <trkpt lat="58.2475" lon="-5.09821">
        <ele>84.91</ele>
        <time>2021-03-20T17:48:53Z</time>
      </trkpt>
      <trkpt lat="58.24803" lon="-5.09933">
        <ele>73.89</ele>
        <time>2021-03-20T17:48:55Z</time>
      </trkpt>
      <trkpt lat="58.24819" lon="-5.09952">
        <ele>69.94</ele>
        <time>2021-03-20T17:48:58Z</time>
      </trkpt>
      <trkpt lat="58.24836" lon="-5.09942">
        <ele>66.43</ele>
        <time>2021-03-20T17:49:01Z</time>
      </trkpt>
      <trkpt lat="58.24854" lon="-5.09886">
        <ele>62.34</ele>
        <time>2021-03-20T17:49:03Z</time>
      </trkpt>
      <trkpt lat="58.2486" lon="-5.09837">
        <ele>60.32</ele>
        <time>2021-03-20T17:49:06Z</time>
      </trkpt>
      <trkpt lat="58.24858" lon="-5.09783">
        <ele>61.1</ele>
        <time>2021-03-20T17:49:09Z</time>
      </trkpt>
      <trkpt lat="58.24862" lon="-5.09767">
        <ele>59.48</ele>
        <time>2021-03-20T17:49:12Z</time>
      </trkpt>
      <trkpt lat="58.24872" lon="-5.09764">
        <ele>56.12</ele>
        <time>2021-03-20T17:49:14Z</time>
      </trkpt>
      <trkpt lat="58.24895" lon="-5.09799">
        <ele>51.6</ele>
        <time>2021-03-20T17:49:17Z</time>
      </trkpt>
      <trkpt lat="58.24909" lon="-5.09799">
        <ele>49.1</ele>
        <time>2021-03-20T17:49:20Z</time>
      </trkpt>
      <trkpt lat="58.24935" lon="-5.09743">
        <ele>47.74</ele>
        <time>2021-03-20T17:49:22Z</time>
      </trkpt>
      <trkpt lat="58.24947" lon="-5.09695">
        <ele>51.57</ele>
        <time>2021-03-20T17:49:25Z</time>
      </trkpt>
      <trkpt lat="58.24948" lon="-5.09578">
        <ele>58.5</ele>
        <time>2021-03-20T17:49:28Z</time>
      </trkpt>
      <trkpt lat="58.24988" lon="-5.09482">
        <ele>72.8</ele>
        <time>2021-03-20T17:49:30Z</time>
      </trkpt>
      <trkpt lat="58.25018" lon="-5.0942">
        <ele>82.03</ele>
        <time>2021-03-20T17:49:33Z</time>
      </trkpt>
      <trkpt lat="58.2502" lon="-5.09395">
        <ele>82.87</ele>
        <time>2021-03-20T17:49:36Z</time>
      </trkpt>
      <trkpt lat="58.25016" lon="-5.09337">
        <ele>86.17</ele>
        <time>2021-03-20T17:49:39Z</time>
      </trkpt>
      <trkpt lat="58.25114" lon="-5.09087">
        <ele>88.13</ele>
        <time>2021-03-20T17:49:41Z</time>
      </trkpt>
      <trkpt lat="58.251" lon="-5.08963">
        <ele>86.25</ele>
        <time>2021-03-20T17:49:44Z</time>
      </trkpt>
      <trkpt lat="58.25106" lon="-5.08906">
        <ele>83.48</ele>
        <time>2021-03-20T17:49:47Z</time>
      </trkpt>
      <trkpt lat="58.25098" lon="-5.08855">
        <ele>84.36</ele>
        <time>2021-03-20T17:49:49Z</time>
      </trkpt>
      <trkpt lat="58.25092" lon="-5.08651">
        <ele>86.8</ele>
        <time>2021-03-20T17:49:52Z</time>
      </trkpt>
      <trkpt lat="58.25077" lon="-5.08604">
        <ele>86.68</ele>
        <time>2021-03-20T17:49:55Z</time>
      </trkpt>
      <trkpt lat="58.25013" lon="-5.08557">
        <ele>85.18</ele>
        <time>2021-03-20T17:49:58Z</time>
      </trkpt>
      <trkpt lat="58.25" lon="-5.08529">
        <ele>84.07</ele>
        <time>2021-03-20T17:50:00Z</time>
      </trkpt>
      <trkpt lat="58.24987" lon="-5.08436">
        <ele>80.28</ele>
        <time>2021-03-20T17:50:03Z</time>
      </trkpt>
      <trkpt lat="58.24922" lon="-5.0813">
        <ele>82.44</ele>
        <time>2021-03-20T17:50:06Z</time>
      </trkpt>
      <trkpt lat="58.24927" lon="-5.08077">
        <ele>77.27</ele>
        <time>2021-03-20T17:50:08Z</time>
      </trkpt>
      <trkpt lat="58.24943" lon="-5.08027">
        <ele>71.53</ele>
        <time>2021-03-20T17:50:11Z</time>
      </trkpt>
      <trkpt lat="58.24942" lon="-5.07908">
        <ele>69.24</ele>
        <time>2021-03-20T17:50:14Z</time>
      </trkpt>
      <trkpt lat="58.24917" lon="-5.07824">
        <ele>70.68</ele>
        <time>2021-03-20T17:50:17Z</time>
      </trkpt>
      <trkpt lat="58.24917" lon="-5.07686">
        <ele>68.05</ele>
        <time>2021-03-20T17:50:19Z</time>
      </trkpt>
      <trkpt lat="58.2493" lon="-5.07589">
        <ele>66.49</ele>
        <time>2021-03-20T17:50:22Z</time>
      </trkpt>
      <trkpt lat="58.24933" lon="-5.07491">
        <ele>70.26</ele>
        <time>2021-03-20T17:50:25Z</time>
      </trkpt>
      <trkpt lat="58.24922" lon="-5.07433">
        <ele>72.1</ele>
        <time>2021-03-20T17:50:27Z</time>
      </trkpt>
      <trkpt lat="58.24902" lon="-5.07384">
        <ele>72.07</ele>
        <time>2021-03-20T17:50:30Z</time>
      </trkpt>
      <trkpt lat="58.24888" lon="-5.07306">
        <ele>61.31</ele>
        <time>2021-03-20T17:50:33Z</time>
      </trkpt>
      <trkpt lat="58.24885" lon="-5.07194">
        <ele>47.93</ele>
        <time>2021-03-20T17:50:36Z</time>
      </trkpt>
      <trkpt lat="58.24873" lon="-5.07017">
        <ele>40.17</ele>
        <time>2021-03-20T17:50:38Z</time>
      </trkpt>
      <trkpt lat="58.24899" lon="-5.06902">
        <ele>34.42</ele>
        <time>2021-03-20T17:50:41Z</time>
      </trkpt>
      <trkpt lat="58.24921" lon="-5.06818">
        <ele>29.1</ele>
        <time>2021-03-20T17:50:44Z</time>
      </trkpt>
      <trkpt lat="58.2494" lon="-5.0672">
        <ele>22.25</ele>
        <time>2021-03-20T17:50:46Z</time>
      </trkpt>
      <trkpt lat="58.24943" lon="-5.0667">
        <ele>19.52</ele>
        <time>2021-03-20T17:50:49Z</time>
      </trkpt>
      <trkpt lat="58.24917" lon="-5.06564">
        <ele>18.2</ele>
        <time>2021-03-20T17:50:52Z</time>
      </trkpt>
      <trkpt lat="58.24883" lon="-5.06499">
        <ele>21.23</ele>
        <time>2021-03-20T17:50:54Z</time>
      </trkpt>
      <trkpt lat="58.24833" lon="-5.06455">
        <ele>27.43</ele>
        <time>2021-03-20T17:50:57Z</time>
      </trkpt>
      <trkpt lat="58.24792" lon="-5.06411">
        <ele>31.12</ele>
        <time>2021-03-20T17:51:00Z</time>
      </trkpt>
      <trkpt lat="58.24737" lon="-5.06368">
        <ele>40.39</ele>
        <time>2021-03-20T17:51:03Z</time>
      </trkpt>
      <trkpt lat="58.24722" lon="-5.06339">
        <ele>40.01</ele>
        <time>2021-03-20T17:51:05Z</time>
      </trkpt>
      <trkpt lat="58.24706" lon="-5.06278">
        <ele>37.92</ele>
        <time>2021-03-20T17:51:08Z</time>
      </trkpt>
      <trkpt lat="58.24654" lon="-5.06223">
        <ele>47.48</ele>
        <time>2021-03-20T17:51:11Z</time>
      </trkpt>
      <trkpt lat="58.24639" lon="-5.06109">
        <ele>41.79</ele>
        <time>2021-03-20T17:51:13Z</time>
      </trkpt>
      <trkpt lat="58.24615" lon="-5.06001">
        <ele>38.99</ele>
        <time>2021-03-20T17:51:16Z</time>
      </trkpt>
      <trkpt lat="58.24593" lon="-5.05928">
        <ele>40.49</ele>
        <time>2021-03-20T17:51:19Z</time>
      </trkpt>
      <trkpt lat="58.24577" lon="-5.05839">
        <ele>37.96</ele>
        <time>2021-03-20T17:51:22Z</time>
      </trkpt>
      <trkpt lat="58.24548" lon="-5.05766">
        <ele>37.57</ele>
        <time>2021-03-20T17:51:24Z</time>
      </trkpt>
      <trkpt lat="58.24535" lon="-5.05693">
        <ele>38.89</ele>
        <time>2021-03-20T17:51:27Z</time>
      </trkpt>
      <trkpt lat="58.24525" lon="-5.05606">
        <ele>41.97</ele>
        <time>2021-03-20T17:51:30Z</time>
      </trkpt>
      <trkpt lat="58.24529" lon="-5.05512">
        <ele>38.51</ele>
        <time>2021-03-20T17:51:32Z</time>
      </trkpt>
      <trkpt lat="58.24531" lon="-5.05429">
        <ele>36.35</ele>
        <time>2021-03-20T17:51:35Z</time>
      </trkpt>
      <trkpt lat="58.24518" lon="-5.05386">
        <ele>38.73</ele>
        <time>2021-03-20T17:51:38Z</time>
      </trkpt>
      <trkpt lat="58.2449" lon="-5.05318">
        <ele>42.81</ele>
        <time>2021-03-20T17:51:41Z</time>
      </trkpt>
      <trkpt lat="58.24467" lon="-5.05228">
        <ele>44.71</ele>
        <time>2021-03-20T17:51:43Z</time>
      </trkpt>
      <trkpt lat="58.2443" lon="-5.05161">
        <ele>49.21</ele>
        <time>2021-03-20T17:51:46Z</time>
      </trkpt>
      <trkpt lat="58.24373" lon="-5.04967">
        <ele>53.51</ele>
        <time>2021-03-20T17:51:49Z</time>
      </trkpt>
      <trkpt lat="58.24327" lon="-5.04835">
        <ele>60.68</ele>
        <time>2021-03-20T17:51:51Z</time>
      </trkpt>
      <trkpt lat="58.2429" lon="-5.04744">
        <ele>64.21</ele>
        <time>2021-03-20T17:51:54Z</time>
      </trkpt>
      <trkpt lat="58.24279" lon="-5.04678">
        <ele>58.29</ele>
        <time>2021-03-20T17:51:57Z</time>
      </trkpt>
      <trkpt lat="58.24281" lon="-5.04613">
        <ele>61.44</ele>
        <time>2021-03-20T17:52:00Z</time>
      </trkpt>
      <trkpt lat="58.24275" lon="-5.04571">
        <ele>66.55</ele>
        <time>2021-03-20T17:52:02Z</time>
      </trkpt>
      <trkpt lat="58.24255" lon="-5.04495">
        <ele>69.38</ele>
        <time>2021-03-20T17:52:05Z</time>
      </trkpt>
      <trkpt lat="58.24231" lon="-5.04432">
        <ele>66.44</ele>
        <time>2021-03-20T17:52:08Z</time>
      </trkpt>
      <trkpt lat="58.24202" lon="-5.04335">
        <ele>64.41</ele>
        <time>2021-03-20T17:52:10Z</time>
      </trkpt>
      <trkpt lat="58.24193" lon="-5.04255">
        <ele>62.88</ele>
        <time>2021-03-20T17:52:13Z</time>
      </trkpt>
      <trkpt lat="58.24195" lon="-5.04204">
        <ele>63.18</ele>
        <time>2021-03-20T17:52:16Z</time>
      </trkpt>
      <trkpt lat="58.24211" lon="-5.04094">
        <ele>67.57</ele>
        <time>2021-03-20T17:52:19Z</time>
      </trkpt>
      <trkpt lat="58.24206" lon="-5.04034">
        <ele>68.72</ele>
        <time>2021-03-20T17:52:21Z</time>
      </trkpt>
      <trkpt lat="58.24174" lon="-5.03866">
        <ele>77.31</ele>
        <time>2021-03-20T17:52:24Z</time>
      </trkpt>
      <trkpt lat="58.24158" lon="-5.03814">
        <ele>82.16</ele>
        <time>2021-03-20T17:52:27Z</time>
      </trkpt>
      <trkpt lat="58.24112" lon="-5.03726">
        <ele>89.53</ele>
        <time>2021-03-20T17:52:29Z</time>
      </trkpt>
      <trkpt lat="58.24085" lon="-5.03532">
        <ele>98.84</ele>
        <time>2021-03-20T17:52:32Z</time>
      </trkpt>
      <trkpt lat="58.24082" lon="-5.03466">
        <ele>103.77</ele>
        <time>2021-03-20T17:52:35Z</time>
      </trkpt>
      <trkpt lat="58.24074" lon="-5.03413">
        <ele>108.73</ele>
        <time>2021-03-20T17:52:37Z</time>
      </trkpt>
      <trkpt lat="58.24003" lon="-5.03198">
        <ele>116.22</ele>
        <time>2021-03-20T17:52:40Z</time>
      </trkpt>
      <trkpt lat="58.2399" lon="-5.03147">
        <ele>113.54</ele>
        <time>2021-03-20T17:52:43Z</time>
      </trkpt>
      <trkpt lat="58.2399" lon="-5.03102">
        <ele>110.7</ele>
        <time>2021-03-20T17:52:46Z</time>
      </trkpt>
      <trkpt lat="58.24003" lon="-5.02972">
        <ele>105.86</ele>
        <time>2021-03-20T17:52:48Z</time>
      </trkpt>
      <trkpt lat="58.24002" lon="-5.02854">
        <ele>101.66</ele>
        <time>2021-03-20T17:52:51Z</time>
      </trkpt>
      <trkpt lat="58.2399" lon="-5.02751">
        <ele>98.13</ele>
        <time>2021-03-20T17:52:54Z</time>
      </trkpt>
      <trkpt lat="58.23951" lon="-5.02661">
        <ele>97.49</ele>
        <time>2021-03-20T17:52:56Z</time>
      </trkpt>
      <trkpt lat="58.23915" lon="-5.02551">
        <ele>96.14</ele>
        <time>2021-03-20T17:52:59Z</time>
      </trkpt>
      <trkpt lat="58.23883" lon="-5.025">
        <ele>97.85</ele>
        <time>2021-03-20T17:53:02Z</time>
      </trkpt>
      <trkpt lat="58.23842" lon="-5.02403">
        <ele>97.41</ele>
        <time>2021-03-20T17:53:05Z</time>
      </trkpt>
      <trkpt lat="58.23803" lon="-5.02244">
        <ele>98</ele>
        <time>2021-03-20T17:53:07Z</time>
      </trkpt>
      <trkpt lat="58.23777" lon="-5.02186">
        <ele>97.29</ele>
        <time>2021-03-20T17:53:10Z</time>
      </trkpt>
      <trkpt lat="58.23756" lon="-5.02075">
        <ele>94.22</ele>
        <time>2021-03-20T17:53:13Z</time>
      </trkpt>
      <trkpt lat="58.23719" lon="-5.0202">
        <ele>96.11</ele>
        <time>2021-03-20T17:53:15Z</time>
      </trkpt>
      <trkpt lat="58.23701" lon="-5.01941">
        <ele>95.15</ele>
        <time>2021-03-20T17:53:18Z</time>
      </trkpt>
      <trkpt lat="58.23666" lon="-5.01869">
        <ele>94.62</ele>
        <time>2021-03-20T17:53:21Z</time>
      </trkpt>
      <trkpt lat="58.23603" lon="-5.01791">
        <ele>94.07</ele>
        <time>2021-03-20T17:53:24Z</time>
      </trkpt>
      <trkpt lat="58.2357" lon="-5.01739">
        <ele>90.01</ele>
        <time>2021-03-20T17:53:26Z</time>
      </trkpt>
      <trkpt lat="58.23566" lon="-5.01703">
        <ele>87.25</ele>
        <time>2021-03-20T17:53:29Z</time>
      </trkpt>
      <trkpt lat="58.23581" lon="-5.01626">
        <ele>82.83</ele>
        <time>2021-03-20T17:53:32Z</time>
      </trkpt>
      <trkpt lat="58.23588" lon="-5.01528">
        <ele>77.16</ele>
        <time>2021-03-20T17:53:34Z</time>
      </trkpt>
      <trkpt lat="58.23587" lon="-5.01475">
        <ele>76</ele>
        <time>2021-03-20T17:53:37Z</time>
      </trkpt>
      <trkpt lat="58.23584" lon="-5.01434">
        <ele>74.63</ele>
        <time>2021-03-20T17:53:40Z</time>
      </trkpt>
      <trkpt lat="58.23599" lon="-5.01354">
        <ele>72.2</ele>
        <time>2021-03-20T17:53:43Z</time>
      </trkpt>
      <trkpt lat="58.23598" lon="-5.01322">
        <ele>70.61</ele>
        <time>2021-03-20T17:53:45Z</time>
      </trkpt>
      <trkpt lat="58.2362" lon="-5.01273">
        <ele>70.82</ele>
        <time>2021-03-20T17:53:49Z</time>
      </trkpt>
      <trkpt lat="58.23639" lon="-5.01219">
        <ele>69.93</ele>
        <time>2021-03-20T17:53:53Z</time>
      </trkpt>
      <trkpt lat="58.2366" lon="-5.01172">
        <ele>69.14</ele>
        <time>2021-03-20T17:53:56Z</time>
      </trkpt>
      <trkpt lat="58.23717" lon="-5.0107">
        <ele>65.41</ele>
        <time>2021-03-20T17:54:00Z</time>
      </trkpt>
      <trkpt lat="58.23735" lon="-5.01051">
        <ele>64.12</ele>
        <time>2021-03-20T17:54:04Z</time>
      </trkpt>
      <trkpt lat="58.23748" lon="-5.01043">
        <ele>64.02</ele>
        <time>2021-03-20T17:54:07Z</time>
      </trkpt>
      <trkpt lat="58.23764" lon="-5.01043">
        <ele>64.32</ele>
        <time>2021-03-20T17:54:11Z</time>
      </trkpt>
      <trkpt lat="58.23825" lon="-5.01073">
        <ele>66.4</ele>
        <time>2021-03-20T17:54:14Z</time>
      </trkpt>
      <trkpt lat="58.23846" lon="-5.01076">
        <ele>66.2</ele>
        <time>2021-03-20T17:54:18Z</time>
      </trkpt>
      <trkpt lat="58.23889" lon="-5.01065">
        <ele>67.04</ele>
        <time>2021-03-20T17:54:22Z</time>
      </trkpt>
      <trkpt lat="58.24" lon="-5.01018">
        <ele>65.6</ele>
        <time>2021-03-20T17:54:25Z</time>
      </trkpt>
      <trkpt lat="58.24028" lon="-5.00991">
        <ele>63.36</ele>
        <time>2021-03-20T17:54:29Z</time>
      </trkpt>
      <trkpt lat="58.24153" lon="-5.00841">
        <ele>53.5</ele>
        <time>2021-03-20T17:54:33Z</time>
      </trkpt>
      <trkpt lat="58.24205" lon="-5.00771">
        <ele>47.5</ele>
        <time>2021-03-20T17:54:36Z</time>
      </trkpt>
      <trkpt lat="58.24233" lon="-5.00719">
        <ele>43.94</ele>
        <time>2021-03-20T17:54:40Z</time>
      </trkpt>
      <trkpt lat="58.24298" lon="-5.00553">
        <ele>35.16</ele>
        <time>2021-03-20T17:54:44Z</time>
      </trkpt>
      <trkpt lat="58.24318" lon="-5.00516">
        <ele>33.95</ele>
        <time>2021-03-20T17:54:47Z</time>
      </trkpt>
      <trkpt lat="58.24411" lon="-5.00401">
        <ele>27.17</ele>
        <time>2021-03-20T17:54:51Z</time>
      </trkpt>
      <trkpt lat="58.24429" lon="-5.00389">
        <ele>25.57</ele>
        <time>2021-03-20T17:54:55Z</time>
      </trkpt>
      <trkpt lat="58.24443" lon="-5.00386">
        <ele>24.58</ele>
        <time>2021-03-20T17:54:58Z</time>
      </trkpt>
      <trkpt lat="58.2446" lon="-5.00388">
        <ele>23.66</ele>
        <time>2021-03-20T17:55:02Z</time>
      </trkpt>
      <trkpt lat="58.24478" lon="-5.00402">
        <ele>24.4</ele>
        <time>2021-03-20T17:55:06Z</time>
      </trkpt>
      <trkpt lat="58.24549" lon="-5.00497">
        <ele>24.25</ele>
        <time>2021-03-20T17:55:09Z</time>
      </trkpt>
      <trkpt lat="58.2457" lon="-5.00509">
        <ele>23.64</ele>
        <time>2021-03-20T17:55:13Z</time>
      </trkpt>
      <trkpt lat="58.24594" lon="-5.00506">
        <ele>23.13</ele>
        <time>2021-03-20T17:55:17Z</time>
      </trkpt>
      <trkpt lat="58.24641" lon="-5.0048">
        <ele>20.59</ele>
        <time>2021-03-20T17:55:20Z</time>
      </trkpt>
      <trkpt lat="58.24664" lon="-5.00471">
        <ele>18.75</ele>
        <time>2021-03-20T17:55:24Z</time>
      </trkpt>
      <trkpt lat="58.24685" lon="-5.00471">
        <ele>18.68</ele>
        <time>2021-03-20T17:55:28Z</time>
      </trkpt>
      <trkpt lat="58.24711" lon="-5.00482">
        <ele>20.68</ele>
        <time>2021-03-20T17:55:31Z</time>
      </trkpt>
      <trkpt lat="58.24744" lon="-5.00507">
        <ele>22.08</ele>
        <time>2021-03-20T17:55:35Z</time>
      </trkpt>
      <trkpt lat="58.24785" lon="-5.00552">
        <ele>24.68</ele>
        <time>2021-03-20T17:55:38Z</time>
      </trkpt>
      <trkpt lat="58.24858" lon="-5.00653">
        <ele>26.77</ele>
        <time>2021-03-20T17:55:42Z</time>
      </trkpt>
      <trkpt lat="58.24918" lon="-5.00743">
        <ele>29.27</ele>
        <time>2021-03-20T17:55:46Z</time>
      </trkpt>
      <trkpt lat="58.24944" lon="-5.00785">
        <ele>31.52</ele>
        <time>2021-03-20T17:55:49Z</time>
      </trkpt>
      <trkpt lat="58.24982" lon="-5.0088">
        <ele>37.46</ele>
        <time>2021-03-20T17:55:53Z</time>
      </trkpt>
      <trkpt lat="58.24993" lon="-5.00929">
        <ele>40.34</ele>
        <time>2021-03-20T17:55:57Z</time>
      </trkpt>
      <trkpt lat="58.25002" lon="-5.01124">
        <ele>51.48</ele>
        <time>2021-03-20T17:56:00Z</time>
      </trkpt>
      <trkpt lat="58.25011" lon="-5.01228">
        <ele>53.52</ele>
        <time>2021-03-20T17:56:04Z</time>
      </trkpt>
      <trkpt lat="58.25078" lon="-5.01636">
        <ele>55.44</ele>
        <time>2021-03-20T17:56:08Z</time>
      </trkpt>
      <trkpt lat="58.25089" lon="-5.01675">
        <ele>55.83</ele>
        <time>2021-03-20T17:56:11Z</time>
      </trkpt>
      <trkpt lat="58.25142" lon="-5.01815">
        <ele>49.92</ele>
        <time>2021-03-20T17:56:15Z</time>
      </trkpt>
      <trkpt lat="58.25169" lon="-5.01923">
        <ele>46.97</ele>
        <time>2021-03-20T17:56:19Z</time>
      </trkpt>
      <trkpt lat="58.25189" lon="-5.01986">
        <ele>45.53</ele>
        <time>2021-03-20T17:56:22Z</time>
      </trkpt>
      <trkpt lat="58.25239" lon="-5.02111">
        <ele>35.63</ele>
        <time>2021-03-20T17:56:26Z</time>
      </trkpt>
      <trkpt lat="58.25257" lon="-5.02144">
        <ele>31.06</ele>
        <time>2021-03-20T17:56:30Z</time>
      </trkpt>
      <trkpt lat="58.25278" lon="-5.02171">
        <ele>26.87</ele>
        <time>2021-03-20T17:56:33Z</time>
      </trkpt>
      <trkpt lat="58.25355" lon="-5.02241">
        <ele>25.62</ele>
        <time>2021-03-20T17:56:37Z</time>
      </trkpt>
      <trkpt lat="58.25375" lon="-5.0225">
        <ele>26.53</ele>
        <time>2021-03-20T17:56:41Z</time>
      </trkpt>
      <trkpt lat="58.25408" lon="-5.02256">
        <ele>25.86</ele>
        <time>2021-03-20T17:56:44Z</time>
      </trkpt>
      <trkpt lat="58.25436" lon="-5.02254">
        <ele>25.95</ele>
        <time>2021-03-20T17:56:48Z</time>
      </trkpt>
      <trkpt lat="58.25523" lon="-5.02226">
        <ele>26.14</ele>
        <time>2021-03-20T17:56:51Z</time>
      </trkpt>
      <trkpt lat="58.25549" lon="-5.02225">
        <ele>26.02</ele>
        <time>2021-03-20T17:56:55Z</time>
      </trkpt>
      <trkpt lat="58.25568" lon="-5.02229">
        <ele>25.45</ele>
        <time>2021-03-20T17:56:59Z</time>
      </trkpt>
      <trkpt lat="58.25591" lon="-5.02237">
        <ele>23.8</ele>
        <time>2021-03-20T17:57:02Z</time>
      </trkpt>
      <trkpt lat="58.25631" lon="-5.02261">
        <ele>23.97</ele>
        <time>2021-03-20T17:57:06Z</time>
      </trkpt>
      <trkpt lat="58.25677" lon="-5.023">
        <ele>24.19</ele>
        <time>2021-03-20T17:57:10Z</time>
      </trkpt>
      <trkpt lat="58.25708" lon="-5.02338">
        <ele>24.37</ele>
        <time>2021-03-20T17:57:13Z</time>
      </trkpt>
      <trkpt lat="58.2574" lon="-5.02386">
        <ele>24.57</ele>
        <time>2021-03-20T17:57:17Z</time>
      </trkpt>
      <trkpt lat="58.25759" lon="-5.02426">
        <ele>24.73</ele>
        <time>2021-03-20T17:57:21Z</time>
      </trkpt>
      <trkpt lat="58.25769" lon="-5.02454">
        <ele>24.83</ele>
        <time>2021-03-20T17:57:24Z</time>
      </trkpt>
      <trkpt lat="58.25777" lon="-5.02482">
        <ele>24.94</ele>
        <time>2021-03-20T17:57:28Z</time>
      </trkpt>
      <trkpt lat="58.25784" lon="-5.02528">
        <ele>25.11</ele>
        <time>2021-03-20T17:57:32Z</time>
      </trkpt>
      <trkpt lat="58.25787" lon="-5.02577">
        <ele>25.29</ele>
        <time>2021-03-20T17:57:35Z</time>
      </trkpt>
      <trkpt lat="58.25786" lon="-5.02611">
        <ele>28.79</ele>
        <time>2021-03-20T17:57:39Z</time>
      </trkpt>
      <trkpt lat="58.2578" lon="-5.02665">
        <ele>32.37</ele>
        <time>2021-03-20T17:57:43Z</time>
      </trkpt>
      <trkpt lat="58.25768" lon="-5.02719">
        <ele>32.72</ele>
        <time>2021-03-20T17:57:46Z</time>
      </trkpt>
      <trkpt lat="58.25759" lon="-5.02743">
        <ele>32.4</ele>
        <time>2021-03-20T17:57:50Z</time>
      </trkpt>
      <trkpt lat="58.25747" lon="-5.02769">
        <ele>31.5</ele>
        <time>2021-03-20T17:57:54Z</time>
      </trkpt>
      <trkpt lat="58.25689" lon="-5.02873">
        <ele>31.56</ele>
        <time>2021-03-20T17:57:57Z</time>
      </trkpt>
      <trkpt lat="58.25666" lon="-5.02927">
        <ele>32.94</ele>
        <time>2021-03-20T17:58:01Z</time>
      </trkpt>
      <trkpt lat="58.25654" lon="-5.02986">
        <ele>32.13</ele>
        <time>2021-03-20T17:58:05Z</time>
      </trkpt>
      <trkpt lat="58.25652" lon="-5.03053">
        <ele>30.94</ele>
        <time>2021-03-20T17:58:08Z</time>
      </trkpt>
      <trkpt lat="58.25658" lon="-5.031">
        <ele>29.45</ele>
        <time>2021-03-20T17:58:12Z</time>
      </trkpt>
      <trkpt lat="58.25689" lon="-5.0321">
        <ele>18.6</ele>
        <time>2021-03-20T17:58:15Z</time>
      </trkpt>
      <trkpt lat="58.25714" lon="-5.03281">
        <ele>9.49</ele>
        <time>2021-03-20T17:58:19Z</time>
      </trkpt>
      <trkpt lat="58.25735" lon="-5.03369">
        <ele>5.85</ele>
        <time>2021-03-20T17:58:23Z</time>
      </trkpt>
      <trkpt lat="58.2576" lon="-5.03502">
        <ele>7.06</ele>
        <time>2021-03-20T17:58:26Z</time>
      </trkpt>
      <trkpt lat="58.25782" lon="-5.03576">
        <ele>5.81</ele>
        <time>2021-03-20T17:58:30Z</time>
      </trkpt>
      <trkpt lat="58.25812" lon="-5.03617">
        <ele>4.78</ele>
        <time>2021-03-20T17:58:34Z</time>
      </trkpt>
      <trkpt lat="58.25899" lon="-5.03672">
        <ele>2.88</ele>
        <time>2021-03-20T17:58:37Z</time>
      </trkpt>
      <trkpt lat="58.25952" lon="-5.03726">
        <ele>3.03</ele>
        <time>2021-03-20T17:58:41Z</time>
      </trkpt>
      <trkpt lat="58.2601" lon="-5.03831">
        <ele>7.42</ele>
        <time>2021-03-20T17:58:45Z</time>
      </trkpt>
      <trkpt lat="58.26067" lon="-5.03878">
        <ele>17.04</ele>
        <time>2021-03-20T17:58:48Z</time>
      </trkpt>
      <trkpt lat="58.26142" lon="-5.03909">
        <ele>26.12</ele>
        <time>2021-03-20T17:58:52Z</time>
      </trkpt>
      <trkpt lat="58.26158" lon="-5.03923">
        <ele>26.82</ele>
        <time>2021-03-20T17:58:56Z</time>
      </trkpt>
      <trkpt lat="58.2619" lon="-5.03959">
        <ele>29.68</ele>
        <time>2021-03-20T17:58:59Z</time>
      </trkpt>
      <trkpt lat="58.26228" lon="-5.04019">
        <ele>35.31</ele>
        <time>2021-03-20T17:59:03Z</time>
      </trkpt>
      <trkpt lat="58.26251" lon="-5.04048">
        <ele>38.45</ele>
        <time>2021-03-20T17:59:07Z</time>
      </trkpt>
      <trkpt lat="58.26279" lon="-5.04069">
        <ele>41.16</ele>
        <time>2021-03-20T17:59:10Z</time>
      </trkpt>
      <trkpt lat="58.2632" lon="-5.04076">
        <ele>43.8</ele>
        <time>2021-03-20T17:59:14Z</time>
      </trkpt>
      <trkpt lat="58.26376" lon="-5.04066">
        <ele>46.97</ele>
        <time>2021-03-20T17:59:18Z</time>
      </trkpt>
      <trkpt lat="58.26404" lon="-5.04064">
        <ele>47.89</ele>
        <time>2021-03-20T17:59:21Z</time>
      </trkpt>
      <trkpt lat="58.26439" lon="-5.04079">
        <ele>49.72</ele>
        <time>2021-03-20T17:59:25Z</time>
      </trkpt>
      <trkpt lat="58.2649" lon="-5.04115">
        <ele>52.75</ele>
        <time>2021-03-20T17:59:28Z</time>
      </trkpt>
      <trkpt lat="58.26547" lon="-5.04164">
        <ele>56.99</ele>
        <time>2021-03-20T17:59:32Z</time>
      </trkpt>
      <trkpt lat="58.26592" lon="-5.04218">
        <ele>58.89</ele>
        <time>2021-03-20T17:59:36Z</time>
      </trkpt>
      <trkpt lat="58.26608" lon="-5.04243">
        <ele>59.9</ele>
        <time>2021-03-20T17:59:39Z</time>
      </trkpt>
      <trkpt lat="58.26641" lon="-5.04309">
        <ele>63.36</ele>
        <time>2021-03-20T17:59:43Z</time>
      </trkpt>
      <trkpt lat="58.26672" lon="-5.04406">
        <ele>66.03</ele>
        <time>2021-03-20T17:59:47Z</time>
      </trkpt>
      <trkpt lat="58.26693" lon="-5.04529">
        <ele>72.63</ele>
        <time>2021-03-20T17:59:50Z</time>
      </trkpt>
      <trkpt lat="58.267" lon="-5.04622">
        <ele>75.73</ele>
        <time>2021-03-20T17:59:54Z</time>
      </trkpt>
      <trkpt lat="58.26708" lon="-5.04775">
        <ele>83.59</ele>
        <time>2021-03-20T17:59:58Z</time>
      </trkpt>
      <trkpt lat="58.2672" lon="-5.0492">
        <ele>91.58</ele>
        <time>2021-03-20T18:00:01Z</time>
      </trkpt>
      <trkpt lat="58.2676" lon="-5.05115">
        <ele>101.38</ele>
        <time>2021-03-20T18:00:05Z</time>
      </trkpt>
      <trkpt lat="58.26801" lon="-5.05265">
        <ele>107.74</ele>
        <time>2021-03-20T18:00:09Z</time>
      </trkpt>
      <trkpt lat="58.26868" lon="-5.05423">
        <ele>107.29</ele>
        <time>2021-03-20T18:00:12Z</time>
      </trkpt>
      <trkpt lat="58.26928" lon="-5.05518">
        <ele>101.86</ele>
        <time>2021-03-20T18:00:16Z</time>
      </trkpt>
      <trkpt lat="58.26989" lon="-5.05594">
        <ele>100.38</ele>
        <time>2021-03-20T18:00:20Z</time>
      </trkpt>
      <trkpt lat="58.27163" lon="-5.05742">
        <ele>99.95</ele>
        <time>2021-03-20T18:00:23Z</time>
      </trkpt>
      <trkpt lat="58.27262" lon="-5.05844">
        <ele>99.99</ele>
        <time>2021-03-20T18:00:27Z</time>
      </trkpt>
      <trkpt lat="58.27403" lon="-5.06009">
        <ele>100.35</ele>
        <time>2021-03-20T18:00:31Z</time>
      </trkpt>
      <trkpt lat="58.27514" lon="-5.06144">
        <ele>94.19</ele>
        <time>2021-03-20T18:00:34Z</time>
      </trkpt>
      <trkpt lat="58.27619" lon="-5.06291">
        <ele>96</ele>
        <time>2021-03-20T18:00:38Z</time>
      </trkpt>
      <trkpt lat="58.27741" lon="-5.06489">
        <ele>86.28</ele>
        <time>2021-03-20T18:00:41Z</time>
      </trkpt>
      <trkpt lat="58.27892" lon="-5.06783">
        <ele>82.98</ele>
        <time>2021-03-20T18:00:45Z</time>
      </trkpt>
      <trkpt lat="58.27933" lon="-5.06854">
        <ele>84.04</ele>
        <time>2021-03-20T18:00:49Z</time>
      </trkpt>
      <trkpt lat="58.27989" lon="-5.06936">
        <ele>81.18</ele>
        <time>2021-03-20T18:00:52Z</time>
      </trkpt>
      <trkpt lat="58.28083" lon="-5.07046">
        <ele>81.08</ele>
        <time>2021-03-20T18:00:56Z</time>
      </trkpt>
      <trkpt lat="58.28179" lon="-5.07136">
        <ele>74.45</ele>
        <time>2021-03-20T18:01:00Z</time>
      </trkpt>
      <trkpt lat="58.28304" lon="-5.07235">
        <ele>70.4</ele>
        <time>2021-03-20T18:01:03Z</time>
      </trkpt>
      <trkpt lat="58.28544" lon="-5.075">
        <ele>64.22</ele>
        <time>2021-03-20T18:01:07Z</time>
      </trkpt>
      <trkpt lat="58.28612" lon="-5.07584">
        <ele>57.77</ele>
        <time>2021-03-20T18:01:11Z</time>
      </trkpt>
      <trkpt lat="58.28706" lon="-5.07737">
        <ele>39.42</ele>
        <time>2021-03-20T18:01:14Z</time>
      </trkpt>
      <trkpt lat="58.2879" lon="-5.07912">
        <ele>29.81</ele>
        <time>2021-03-20T18:01:18Z</time>
      </trkpt>
      <trkpt lat="58.28835" lon="-5.07991">
        <ele>27.93</ele>
        <time>2021-03-20T18:01:22Z</time>
      </trkpt>
      <trkpt lat="58.28886" lon="-5.08067">
        <ele>28.89</ele>
        <time>2021-03-20T18:01:25Z</time>
      </trkpt>
      <trkpt lat="58.28949" lon="-5.08152">
        <ele>33.31</ele>
        <time>2021-03-20T18:01:29Z</time>
      </trkpt>
      <trkpt lat="58.2899" lon="-5.08227">
        <ele>37.36</ele>
        <time>2021-03-20T18:01:33Z</time>
      </trkpt>
      <trkpt lat="58.29025" lon="-5.08312">
        <ele>40.66</ele>
        <time>2021-03-20T18:01:36Z</time>
      </trkpt>
      <trkpt lat="58.2905" lon="-5.08422">
        <ele>44.53</ele>
        <time>2021-03-20T18:01:40Z</time>
      </trkpt>
      <trkpt lat="58.29063" lon="-5.08532">
        <ele>54.38</ele>
        <time>2021-03-20T18:01:44Z</time>
      </trkpt>
      <trkpt lat="58.29068" lon="-5.08646">
        <ele>68.7</ele>
        <time>2021-03-20T18:01:47Z</time>
      </trkpt>
      <trkpt lat="58.29068" lon="-5.08752">
        <ele>72.73</ele>
        <time>2021-03-20T18:01:51Z</time>
      </trkpt>
      <trkpt lat="58.29075" lon="-5.08851">
        <ele>75.04</ele>
        <time>2021-03-20T18:01:55Z</time>
      </trkpt>
      <trkpt lat="58.29086" lon="-5.08934">
        <ele>80.39</ele>
        <time>2021-03-20T18:01:58Z</time>
      </trkpt>
      <trkpt lat="58.29112" lon="-5.09047">
        <ele>86.64</ele>
        <time>2021-03-20T18:02:02Z</time>
      </trkpt>
      <trkpt lat="58.29148" lon="-5.09152">
        <ele>88.96</ele>
        <time>2021-03-20T18:02:05Z</time>
      </trkpt>
      <trkpt lat="58.29182" lon="-5.09222">
        <ele>91.36</ele>
        <time>2021-03-20T18:02:09Z</time>
      </trkpt>
      <trkpt lat="58.29253" lon="-5.09329">
        <ele>86.91</ele>
        <time>2021-03-20T18:02:13Z</time>
      </trkpt>
      <trkpt lat="58.29398" lon="-5.09586">
        <ele>91</ele>
        <time>2021-03-20T18:02:16Z</time>
      </trkpt>
      <trkpt lat="58.29474" lon="-5.09752">
        <ele>95.13</ele>
        <time>2021-03-20T18:02:20Z</time>
      </trkpt>
      <trkpt lat="58.29665" lon="-5.10226">
        <ele>79.14</ele>
        <time>2021-03-20T18:02:24Z</time>
      </trkpt>
      <trkpt lat="58.29734" lon="-5.10341">
        <ele>76.15</ele>
        <time>2021-03-20T18:02:27Z</time>
      </trkpt>
      <trkpt lat="58.29768" lon="-5.10407">
        <ele>78.72</ele>
        <time>2021-03-20T18:02:31Z</time>
      </trkpt>
      <trkpt lat="58.29799" lon="-5.10515">
        <ele>75.04</ele>
        <time>2021-03-20T18:02:35Z</time>
      </trkpt>
      <trkpt lat="58.29811" lon="-5.10607">
        <ele>66.97</ele>
        <time>2021-03-20T18:02:38Z</time>
      </trkpt>
      <trkpt lat="58.29812" lon="-5.10693">
        <ele>62.86</ele>
        <time>2021-03-20T18:02:42Z</time>
      </trkpt>
      <trkpt lat="58.29785" lon="-5.10968">
        <ele>53.37</ele>
        <time>2021-03-20T18:02:46Z</time>
      </trkpt>
      <trkpt lat="58.2979" lon="-5.11078">
        <ele>57.04</ele>
        <time>2021-03-20T18:02:49Z</time>
      </trkpt>
      <trkpt lat="58.29804" lon="-5.11186">
        <ele>65.99</ele>
        <time>2021-03-20T18:02:53Z</time>
      </trkpt>
      <trkpt lat="58.29841" lon="-5.11312">
        <ele>76.8</ele>
        <time>2021-03-20T18:02:57Z</time>
      </trkpt>
      <trkpt lat="58.29889" lon="-5.11412">
        <ele>82.19</ele>
        <time>2021-03-20T18:03:00Z</time>
      </trkpt>
      <trkpt lat="58.29945" lon="-5.11483">
        <ele>93.05</ele>
        <time>2021-03-20T18:03:04Z</time>
      </trkpt>
      <trkpt lat="58.30006" lon="-5.11529">
        <ele>99.25</ele>
        <time>2021-03-20T18:03:08Z</time>
      </trkpt>
      <trkpt lat="58.30118" lon="-5.11559">
        <ele>95.23</ele>
        <time>2021-03-20T18:03:11Z</time>
      </trkpt>
      <trkpt lat="58.30278" lon="-5.11611">
        <ele>77.87</ele>
        <time>2021-03-20T18:03:15Z</time>
      </trkpt>
      <trkpt lat="58.30347" lon="-5.11642">
        <ele>68.13</ele>
        <time>2021-03-20T18:03:18Z</time>
      </trkpt>
      <trkpt lat="58.304" lon="-5.11677">
        <ele>62.9</ele>
        <time>2021-03-20T18:03:22Z</time>
      </trkpt>
      <trkpt lat="58.30468" lon="-5.11744">
        <ele>57.96</ele>
        <time>2021-03-20T18:03:26Z</time>
      </trkpt>
      <trkpt lat="58.30525" lon="-5.11835">
        <ele>48.25</ele>
        <time>2021-03-20T18:03:29Z</time>
      </trkpt>
      <trkpt lat="58.30587" lon="-5.11959">
        <ele>38.98</ele>
        <time>2021-03-20T18:03:33Z</time>
      </trkpt>
      <trkpt lat="58.30624" lon="-5.12056">
        <ele>40.75</ele>
        <time>2021-03-20T18:03:37Z</time>
      </trkpt>
      <trkpt lat="58.30643" lon="-5.12103">
        <ele>41.81</ele>
        <time>2021-03-20T18:03:40Z</time>
      </trkpt>
      <trkpt lat="58.30666" lon="-5.12143">
        <ele>41.85</ele>
        <time>2021-03-20T18:03:44Z</time>
      </trkpt>
      <trkpt lat="58.30697" lon="-5.12181">
        <ele>39.48</ele>
        <time>2021-03-20T18:03:48Z</time>
      </trkpt>
      <trkpt lat="58.30734" lon="-5.12209">
        <ele>36.61</ele>
        <time>2021-03-20T18:03:51Z</time>
      </trkpt>
      <trkpt lat="58.30773" lon="-5.12224">
        <ele>35.06</ele>
        <time>2021-03-20T18:03:55Z</time>
      </trkpt>
      <trkpt lat="58.30913" lon="-5.12253">
        <ele>40.82</ele>
        <time>2021-03-20T18:03:59Z</time>
      </trkpt>
      <trkpt lat="58.31008" lon="-5.12308">
        <ele>48.08</ele>
        <time>2021-03-20T18:04:02Z</time>
      </trkpt>
      <trkpt lat="58.31116" lon="-5.12387">
        <ele>49.96</ele>
        <time>2021-03-20T18:04:06Z</time>
      </trkpt>
      <trkpt lat="58.31168" lon="-5.12415">
        <ele>47.15</ele>
        <time>2021-03-20T18:04:10Z</time>
      </trkpt>
      <trkpt lat="58.31191" lon="-5.12431">
        <ele>45.05</ele>
        <time>2021-03-20T18:04:13Z</time>
      </trkpt>
      <trkpt lat="58.31242" lon="-5.12448">
        <ele>40.94</ele>
        <time>2021-03-20T18:04:17Z</time>
      </trkpt>
      <trkpt lat="58.31326" lon="-5.12447">
        <ele>39.08</ele>
        <time>2021-03-20T18:04:21Z</time>
      </trkpt>
      <trkpt lat="58.31414" lon="-5.12425">
        <ele>37.09</ele>
        <time>2021-03-20T18:04:24Z</time>
      </trkpt>
      <trkpt lat="58.31708" lon="-5.12335">
        <ele>28.09</ele>
        <time>2021-03-20T18:04:28Z</time>
      </trkpt>
      <trkpt lat="58.31873" lon="-5.12288">
        <ele>24.05</ele>
        <time>2021-03-20T18:04:32Z</time>
      </trkpt>
      <trkpt lat="58.31956" lon="-5.12322">
        <ele>27.83</ele>
        <time>2021-03-20T18:04:35Z</time>
      </trkpt>
      <trkpt lat="58.32008" lon="-5.12376">
        <ele>26.42</ele>
        <time>2021-03-20T18:04:39Z</time>
      </trkpt>
      <trkpt lat="58.32137" lon="-5.12553">
        <ele>25.12</ele>
        <time>2021-03-20T18:04:42Z</time>
      </trkpt>
      <trkpt lat="58.32174" lon="-5.12621">
        <ele>24.9</ele>
        <time>2021-03-20T18:04:46Z</time>
      </trkpt>
      <trkpt lat="58.32234" lon="-5.12764">
        <ele>25.92</ele>
        <time>2021-03-20T18:04:50Z</time>
      </trkpt>
      <trkpt lat="58.32264" lon="-5.12828">
        <ele>26.4</ele>
        <time>2021-03-20T18:04:53Z</time>
      </trkpt>
      <trkpt lat="58.32452" lon="-5.1316">
        <ele>33.72</ele>
        <time>2021-03-20T18:04:57Z</time>
      </trkpt>
      <trkpt lat="58.32548" lon="-5.13343">
        <ele>29.95</ele>
        <time>2021-03-20T18:05:01Z</time>
      </trkpt>
      <trkpt lat="58.32586" lon="-5.13433">
        <ele>25.65</ele>
        <time>2021-03-20T18:05:04Z</time>
      </trkpt>
      <trkpt lat="58.32617" lon="-5.1349">
        <ele>22.31</ele>
        <time>2021-03-20T18:05:08Z</time>
      </trkpt>
      <trkpt lat="58.32649" lon="-5.13526">
        <ele>21.36</ele>
        <time>2021-03-20T18:05:12Z</time>
      </trkpt>
      <trkpt lat="58.32676" lon="-5.13542">
        <ele>20.15</ele>
        <time>2021-03-20T18:05:15Z</time>
      </trkpt>
      <trkpt lat="58.32706" lon="-5.13543">
        <ele>19.07</ele>
        <time>2021-03-20T18:05:19Z</time>
      </trkpt>
      <trkpt lat="58.32731" lon="-5.13539">
        <ele>20.13</ele>
        <time>2021-03-20T18:05:23Z</time>
      </trkpt>
      <trkpt lat="58.32816" lon="-5.13507">
        <ele>24.36</ele>
        <time>2021-03-20T18:05:26Z</time>
      </trkpt>
      <trkpt lat="58.32909" lon="-5.13428">
        <ele>30.45</ele>
        <time>2021-03-20T18:05:30Z</time>
      </trkpt>
      <trkpt lat="58.32969" lon="-5.13397">
        <ele>34.34</ele>
        <time>2021-03-20T18:05:34Z</time>
      </trkpt>
      <trkpt lat="58.33052" lon="-5.13387">
        <ele>38.61</ele>
        <time>2021-03-20T18:05:37Z</time>
      </trkpt>
      <trkpt lat="58.33374" lon="-5.13364">
        <ele>62.94</ele>
        <time>2021-03-20T18:05:41Z</time>
      </trkpt>
      <trkpt lat="58.3341" lon="-5.13368">
        <ele>65.54</ele>
        <time>2021-03-20T18:05:45Z</time>
      </trkpt>
      <trkpt lat="58.33476" lon="-5.13407">
        <ele>75.29</ele>
        <time>2021-03-20T18:05:48Z</time>
      </trkpt>
      <trkpt lat="58.33599" lon="-5.13524">
        <ele>81.94</ele>
        <time>2021-03-20T18:05:52Z</time>
      </trkpt>
      <trkpt lat="58.33636" lon="-5.13573">
        <ele>84.45</ele>
        <time>2021-03-20T18:05:55Z</time>
      </trkpt>
      <trkpt lat="58.33667" lon="-5.1362">
        <ele>84.04</ele>
        <time>2021-03-20T18:05:59Z</time>
      </trkpt>
      <trkpt lat="58.3369" lon="-5.1368">
        <ele>77.6</ele>
        <time>2021-03-20T18:06:03Z</time>
      </trkpt>
      <trkpt lat="58.33698" lon="-5.13711">
        <ele>75.03</ele>
        <time>2021-03-20T18:06:06Z</time>
      </trkpt>
      <trkpt lat="58.33706" lon="-5.13751">
        <ele>74.26</ele>
        <time>2021-03-20T18:06:10Z</time>
      </trkpt>
      <trkpt lat="58.33713" lon="-5.13802">
        <ele>75.9</ele>
        <time>2021-03-20T18:06:14Z</time>
      </trkpt>
      <trkpt lat="58.33715" lon="-5.13888">
        <ele>78.35</ele>
        <time>2021-03-20T18:06:17Z</time>
      </trkpt>
      <trkpt lat="58.33704" lon="-5.13976">
        <ele>78.56</ele>
        <time>2021-03-20T18:06:21Z</time>
      </trkpt>
      <trkpt lat="58.33695" lon="-5.14044">
        <ele>77.59</ele>
        <time>2021-03-20T18:06:25Z</time>
      </trkpt>
      <trkpt lat="58.33691" lon="-5.14141">
        <ele>75.46</ele>
        <time>2021-03-20T18:06:28Z</time>
      </trkpt>
      <trkpt lat="58.33696" lon="-5.14199">
        <ele>73.02</ele>
        <time>2021-03-20T18:06:32Z</time>
      </trkpt>
      <trkpt lat="58.33706" lon="-5.14272">
        <ele>70.53</ele>
        <time>2021-03-20T18:06:36Z</time>
      </trkpt>
      <trkpt lat="58.33725" lon="-5.14342">
        <ele>69.71</ele>
        <time>2021-03-20T18:06:39Z</time>
      </trkpt>
      <trkpt lat="58.33733" lon="-5.14362">
        <ele>69.43</ele>
        <time>2021-03-20T18:06:43Z</time>
      </trkpt>
      <trkpt lat="58.33761" lon="-5.14419">
        <ele>71.83</ele>
        <time>2021-03-20T18:06:47Z</time>
      </trkpt>
      <trkpt lat="58.33814" lon="-5.14492">
        <ele>72.65</ele>
        <time>2021-03-20T18:06:50Z</time>
      </trkpt>
      <trkpt lat="58.33867" lon="-5.14523">
        <ele>73.29</ele>
        <time>2021-03-20T18:06:54Z</time>
      </trkpt>
      <trkpt lat="58.33967" lon="-5.14549">
        <ele>73.97</ele>
        <time>2021-03-20T18:06:58Z</time>
      </trkpt>
      <trkpt lat="58.33988" lon="-5.14566">
        <ele>73.35</ele>
        <time>2021-03-20T18:07:01Z</time>
      </trkpt>
      <trkpt lat="58.34003" lon="-5.14583">
        <ele>73.63</ele>
        <time>2021-03-20T18:07:05Z</time>
      </trkpt>
      <trkpt lat="58.34035" lon="-5.14625">
        <ele>77.08</ele>
        <time>2021-03-20T18:07:09Z</time>
      </trkpt>
      <trkpt lat="58.34076" lon="-5.14728">
        <ele>76.04</ele>
        <time>2021-03-20T18:07:12Z</time>
      </trkpt>
      <trkpt lat="58.3411" lon="-5.148">
        <ele>72.62</ele>
        <time>2021-03-20T18:07:16Z</time>
      </trkpt>
      <trkpt lat="58.34145" lon="-5.14858">
        <ele>66.07</ele>
        <time>2021-03-20T18:07:19Z</time>
      </trkpt>
      <trkpt lat="58.3418" lon="-5.14899">
        <ele>64.35</ele>
        <time>2021-03-20T18:07:23Z</time>
      </trkpt>
      <trkpt lat="58.34213" lon="-5.14972">
        <ele>66.33</ele>
        <time>2021-03-20T18:07:27Z</time>
      </trkpt>
      <trkpt lat="58.34236" lon="-5.15045">
        <ele>64.18</ele>
        <time>2021-03-20T18:07:30Z</time>
      </trkpt>
      <trkpt lat="58.34247" lon="-5.151">
        <ele>62.8</ele>
        <time>2021-03-20T18:07:34Z</time>
      </trkpt>
      <trkpt lat="58.34253" lon="-5.15145">
        <ele>61.24</ele>
        <time>2021-03-20T18:07:38Z</time>
      </trkpt>
      <trkpt lat="58.34257" lon="-5.1519">
        <ele>60.42</ele>
        <time>2021-03-20T18:07:41Z</time>
      </trkpt>
      <trkpt lat="58.34258" lon="-5.15247">
        <ele>58.81</ele>
        <time>2021-03-20T18:07:45Z</time>
      </trkpt>
      <trkpt lat="58.34254" lon="-5.15308">
        <ele>57.87</ele>
        <time>2021-03-20T18:07:49Z</time>
      </trkpt>
      <trkpt lat="58.34245" lon="-5.15381">
        <ele>55.86</ele>
        <time>2021-03-20T18:07:52Z</time>
      </trkpt>
      <trkpt lat="58.34226" lon="-5.1547">
        <ele>53.42</ele>
        <time>2021-03-20T18:07:56Z</time>
      </trkpt>
      <trkpt lat="58.34213" lon="-5.15539">
        <ele>51.97</ele>
        <time>2021-03-20T18:08:00Z</time>
      </trkpt>
      <trkpt lat="58.34207" lon="-5.15594">
        <ele>51.3</ele>
        <time>2021-03-20T18:08:03Z</time>
      </trkpt>
      <trkpt lat="58.34206" lon="-5.15649">
        <ele>50.81</ele>
        <time>2021-03-20T18:08:07Z</time>
      </trkpt>
      <trkpt lat="58.34211" lon="-5.157">
        <ele>49.4</ele>
        <time>2021-03-20T18:08:11Z</time>
      </trkpt>
      <trkpt lat="58.3423" lon="-5.15767">
        <ele>45.97</ele>
        <time>2021-03-20T18:08:14Z</time>
      </trkpt>
      <trkpt lat="58.3425" lon="-5.15811">
        <ele>43.82</ele>
        <time>2021-03-20T18:08:18Z</time>
      </trkpt>
      <trkpt lat="58.34257" lon="-5.1582">
        <ele>43.48</ele>
        <time>2021-03-20T18:08:22Z</time>
      </trkpt>
      <trkpt lat="58.34279" lon="-5.1585">
        <ele>41.78</ele>
        <time>2021-03-20T18:08:25Z</time>
      </trkpt>
      <trkpt lat="58.34306" lon="-5.15872">
        <ele>41.03</ele>
        <time>2021-03-20T18:08:29Z</time>
      </trkpt>
      <trkpt lat="58.34337" lon="-5.15877">
        <ele>42</ele>
        <time>2021-03-20T18:08:32Z</time>
      </trkpt>
      <trkpt lat="58.34368" lon="-5.15878">
        <ele>42.1</ele>
        <time>2021-03-20T18:08:36Z</time>
      </trkpt>
      <trkpt lat="58.34412" lon="-5.15873">
        <ele>42.59</ele>
        <time>2021-03-20T18:08:40Z</time>
      </trkpt>
      <trkpt lat="58.34448" lon="-5.15872">
        <ele>42.73</ele>
        <time>2021-03-20T18:08:43Z</time>
      </trkpt>
      <trkpt lat="58.34465" lon="-5.15876">
        <ele>43.21</ele>
        <time>2021-03-20T18:08:47Z</time>
      </trkpt>
      <trkpt lat="58.34481" lon="-5.15883">
        <ele>43.2</ele>
        <time>2021-03-20T18:08:51Z</time>
      </trkpt>
      <trkpt lat="58.34486" lon="-5.15861">
        <ele>44.01</ele>
        <time>2021-03-20T18:08:54Z</time>
      </trkpt>
      <trkpt lat="58.34521" lon="-5.15823">
        <ele>44.12</ele>
        <time>2021-03-20T18:08:58Z</time>
      </trkpt>
      <trkpt lat="58.34555" lon="-5.15801">
        <ele>42.64</ele>
        <time>2021-03-20T18:09:02Z</time>
      </trkpt>
      <trkpt lat="58.34585" lon="-5.15761">
        <ele>40.82</ele>
        <time>2021-03-20T18:09:05Z</time>
      </trkpt>
      <trkpt lat="58.34598" lon="-5.15731">
        <ele>40.01</ele>
        <time>2021-03-20T18:09:09Z</time>
      </trkpt>
      <trkpt lat="58.34613" lon="-5.15681">
        <ele>38.31</ele>
        <time>2021-03-20T18:09:12Z</time>
      </trkpt>
      <trkpt lat="58.34641" lon="-5.15614">
        <ele>35.19</ele>
        <time>2021-03-20T18:09:16Z</time>
      </trkpt>
      <trkpt lat="58.34667" lon="-5.15495">
        <ele>27.92</ele>
        <time>2021-03-20T18:09:20Z</time>
      </trkpt>
      <trkpt lat="58.34679" lon="-5.15412">
        <ele>26</ele>
        <time>2021-03-20T18:09:23Z</time>
      </trkpt>
      <trkpt lat="58.34688" lon="-5.15396">
        <ele>25.08</ele>
        <time>2021-03-20T18:09:27Z</time>
      </trkpt>
      <trkpt lat="58.34729" lon="-5.15353">
        <ele>21.33</ele>
        <time>2021-03-20T18:09:30Z</time>
      </trkpt>
      <trkpt lat="58.34749" lon="-5.15335">
        <ele>18.21</ele>
        <time>2021-03-20T18:09:34Z</time>
      </trkpt>
      <trkpt lat="58.34794" lon="-5.15283">
        <ele>16.68</ele>
        <time>2021-03-20T18:09:37Z</time>
      </trkpt>
      <trkpt lat="58.34828" lon="-5.1525">
        <ele>15.61</ele>
        <time>2021-03-20T18:09:41Z</time>
      </trkpt>
      <trkpt lat="58.34837" lon="-5.1524">
        <ele>15.44</ele>
        <time>2021-03-20T18:09:45Z</time>
      </trkpt>
      <trkpt lat="58.34849" lon="-5.1522">
        <ele>15.44</ele>
        <time>2021-03-20T18:09:48Z</time>
      </trkpt>
      <trkpt lat="58.34856" lon="-5.15202">
        <ele>15.47</ele>
        <time>2021-03-20T18:09:52Z</time>
      </trkpt>
      <trkpt lat="58.34869" lon="-5.15178">
        <ele>15.02</ele>
        <time>2021-03-20T18:09:55Z</time>
      </trkpt>
      <trkpt lat="58.34881" lon="-5.1515">
        <ele>15.89</ele>
        <time>2021-03-20T18:09:59Z</time>
      </trkpt>
      <trkpt lat="58.34888" lon="-5.15141">
        <ele>15.99</ele>
        <time>2021-03-20T18:10:03Z</time>
      </trkpt>
      <trkpt lat="58.34895" lon="-5.15135">
        <ele>16.28</ele>
        <time>2021-03-20T18:10:06Z</time>
      </trkpt>
      <trkpt lat="58.34921" lon="-5.15128">
        <ele>16.65</ele>
        <time>2021-03-20T18:10:10Z</time>
      </trkpt>
      <trkpt lat="58.34934" lon="-5.15121">
        <ele>16.67</ele>
        <time>2021-03-20T18:10:13Z</time>
      </trkpt>
      <trkpt lat="58.34944" lon="-5.15109">
        <ele>17.08</ele>
        <time>2021-03-20T18:10:17Z</time>
      </trkpt>
      <trkpt lat="58.3499" lon="-5.1503">
        <ele>18.6</ele>
        <time>2021-03-20T18:10:20Z</time>
      </trkpt>
      <trkpt lat="58.35002" lon="-5.15016">
        <ele>18.72</ele>
        <time>2021-03-20T18:10:24Z</time>
      </trkpt>
      <trkpt lat="58.35013" lon="-5.1501">
        <ele>18.39</ele>
        <time>2021-03-20T18:10:28Z</time>
      </trkpt>
      <trkpt lat="58.35026" lon="-5.1501">
        <ele>17.44</ele>
        <time>2021-03-20T18:10:31Z</time>
      </trkpt>
      <trkpt lat="58.35055" lon="-5.15029">
        <ele>15.94</ele>
        <time>2021-03-20T18:10:35Z</time>
      </trkpt>
      <trkpt lat="58.35174" lon="-5.15201">
        <ele>18.55</ele>
        <time>2021-03-20T18:10:38Z</time>
      </trkpt>
      <trkpt lat="58.35205" lon="-5.14974">
        <ele>19.62</ele>
        <time>2021-03-20T18:10:44Z</time>
      </trkpt>
      <trkpt lat="58.35222" lon="-5.14883">
        <ele>18.05</ele>
        <time>2021-03-20T18:10:49Z</time>
      </trkpt>
      <trkpt lat="58.35224" lon="-5.14841">
        <ele>18.62</ele>
        <time>2021-03-20T18:10:54Z</time>
      </trkpt>
      <trkpt lat="58.35223" lon="-5.14773">
        <ele>18.99</ele>
        <time>2021-03-20T18:10:59Z</time>
      </trkpt>
      <trkpt lat="58.35219" lon="-5.1473">
        <ele>19.72</ele>
        <time>2021-03-20T18:11:04Z</time>
      </trkpt>
      <trkpt lat="58.35212" lon="-5.14683">
        <ele>20.67</ele>
        <time>2021-03-20T18:11:09Z</time>
      </trkpt>
      <trkpt lat="58.35132" lon="-5.14234">
        <ele>23.67</ele>
        <time>2021-03-20T18:11:15Z</time>
      </trkpt>
      <trkpt lat="58.35086" lon="-5.14048">
        <ele>19.73</ele>
        <time>2021-03-20T18:11:20Z</time>
      </trkpt>
      <trkpt lat="58.35052" lon="-5.13961">
        <ele>27.57</ele>
        <time>2021-03-20T18:11:25Z</time>
      </trkpt>
      <trkpt lat="58.3493" lon="-5.13702">
        <ele>19.35</ele>
        <time>2021-03-20T18:11:30Z</time>
      </trkpt>
      <trkpt lat="58.34889" lon="-5.1358">
        <ele>21.78</ele>
        <time>2021-03-20T18:11:35Z</time>
      </trkpt>
      <trkpt lat="58.34859" lon="-5.13377">
        <ele>19.63</ele>
        <time>2021-03-20T18:11:40Z</time>
      </trkpt>
      <trkpt lat="58.34855" lon="-5.13305">
        <ele>23.57</ele>
        <time>2021-03-20T18:11:46Z</time>
      </trkpt>
      <trkpt lat="58.34865" lon="-5.13151">
        <ele>22.79</ele>
        <time>2021-03-20T18:11:51Z</time>
      </trkpt>
      <trkpt lat="58.34864" lon="-5.13063">
        <ele>23.36</ele>
        <time>2021-03-20T18:11:56Z</time>
      </trkpt>
      <trkpt lat="58.34856" lon="-5.12954">
        <ele>20.98</ele>
        <time>2021-03-20T18:12:01Z</time>
      </trkpt>
      <trkpt lat="58.34856" lon="-5.12906">
        <ele>20.4</ele>
        <time>2021-03-20T18:12:06Z</time>
      </trkpt>
      <trkpt lat="58.34873" lon="-5.12583">
        <ele>23.89</ele>
        <time>2021-03-20T18:12:11Z</time>
      </trkpt>
      <trkpt lat="58.34888" lon="-5.11951">
        <ele>40.79</ele>
        <time>2021-03-20T18:12:17Z</time>
      </trkpt>
      <trkpt lat="58.34895" lon="-5.11884">
        <ele>41.7</ele>
        <time>2021-03-20T18:12:22Z</time>
      </trkpt>
      <trkpt lat="58.3491" lon="-5.1183">
        <ele>43.51</ele>
        <time>2021-03-20T18:12:27Z</time>
      </trkpt>
      <trkpt lat="58.3495" lon="-5.11749">
        <ele>50.7</ele>
        <time>2021-03-20T18:12:32Z</time>
      </trkpt>
      <trkpt lat="58.3498" lon="-5.11695">
        <ele>56.17</ele>
        <time>2021-03-20T18:12:37Z</time>
      </trkpt>
      <trkpt lat="58.35013" lon="-5.11652">
        <ele>62.44</ele>
        <time>2021-03-20T18:12:42Z</time>
      </trkpt>
      <trkpt lat="58.35056" lon="-5.11628">
        <ele>68.65</ele>
        <time>2021-03-20T18:12:48Z</time>
      </trkpt>
      <trkpt lat="58.35188" lon="-5.1165">
        <ele>81.39</ele>
        <time>2021-03-20T18:12:53Z</time>
      </trkpt>
      <trkpt lat="58.35241" lon="-5.11604">
        <ele>83.6</ele>
        <time>2021-03-20T18:12:58Z</time>
      </trkpt>
      <trkpt lat="58.35333" lon="-5.11456">
        <ele>83.73</ele>
        <time>2021-03-20T18:13:03Z</time>
      </trkpt>
      <trkpt lat="58.35388" lon="-5.11319">
        <ele>91.14</ele>
        <time>2021-03-20T18:13:08Z</time>
      </trkpt>
      <trkpt lat="58.35586" lon="-5.10635">
        <ele>100.22</ele>
        <time>2021-03-20T18:13:13Z</time>
      </trkpt>
      <trkpt lat="58.35622" lon="-5.10453">
        <ele>97.92</ele>
        <time>2021-03-20T18:13:19Z</time>
      </trkpt>
      <trkpt lat="58.35651" lon="-5.10205">
        <ele>90.49</ele>
        <time>2021-03-20T18:13:24Z</time>
      </trkpt>
      <trkpt lat="58.35667" lon="-5.10126">
        <ele>89.63</ele>
        <time>2021-03-20T18:13:29Z</time>
      </trkpt>
      <trkpt lat="58.35698" lon="-5.10048">
        <ele>88.29</ele>
        <time>2021-03-20T18:13:34Z</time>
      </trkpt>
      <trkpt lat="58.35775" lon="-5.09928">
        <ele>89.63</ele>
        <time>2021-03-20T18:13:39Z</time>
      </trkpt>
      <trkpt lat="58.35797" lon="-5.09878">
        <ele>88.83</ele>
        <time>2021-03-20T18:13:44Z</time>
      </trkpt>
      <trkpt lat="58.35838" lon="-5.09736">
        <ele>86.83</ele>
        <time>2021-03-20T18:13:50Z</time>
      </trkpt>
      <trkpt lat="58.35859" lon="-5.09692">
        <ele>85.85</ele>
        <time>2021-03-20T18:13:55Z</time>
      </trkpt>
      <trkpt lat="58.3595" lon="-5.09559">
        <ele>81.87</ele>
        <time>2021-03-20T18:14:00Z</time>
      </trkpt>
      <trkpt lat="58.36046" lon="-5.09329">
        <ele>73.41</ele>
        <time>2021-03-20T18:14:05Z</time>
      </trkpt>
      <trkpt lat="58.3609" lon="-5.09257">
        <ele>71.56</ele>
        <time>2021-03-20T18:14:10Z</time>
      </trkpt>
      <trkpt lat="58.3613" lon="-5.09208">
        <ele>70</ele>
        <time>2021-03-20T18:14:15Z</time>
      </trkpt>
      <trkpt lat="58.3617" lon="-5.09181">
        <ele>70.17</ele>
        <time>2021-03-20T18:14:21Z</time>
      </trkpt>
      <trkpt lat="58.36205" lon="-5.0917">
        <ele>71.18</ele>
        <time>2021-03-20T18:14:26Z</time>
      </trkpt>
      <trkpt lat="58.36236" lon="-5.09174">
        <ele>71.03</ele>
        <time>2021-03-20T18:14:31Z</time>
      </trkpt>
      <trkpt lat="58.36301" lon="-5.09201">
        <ele>72.5</ele>
        <time>2021-03-20T18:14:36Z</time>
      </trkpt>
      <trkpt lat="58.36391" lon="-5.09219">
        <ele>74.63</ele>
        <time>2021-03-20T18:14:41Z</time>
      </trkpt>
      <trkpt lat="58.36451" lon="-5.09196">
        <ele>71.26</ele>
        <time>2021-03-20T18:14:46Z</time>
      </trkpt>
      <trkpt lat="58.36479" lon="-5.09118">
        <ele>71.76</ele>
        <time>2021-03-20T18:14:51Z</time>
      </trkpt>
      <trkpt lat="58.36486" lon="-5.09076">
        <ele>72.34</ele>
        <time>2021-03-20T18:14:57Z</time>
      </trkpt>
      <trkpt lat="58.36485" lon="-5.09023">
        <ele>71.89</ele>
        <time>2021-03-20T18:15:02Z</time>
      </trkpt>
      <trkpt lat="58.3644" lon="-5.08827">
        <ele>75.52</ele>
        <time>2021-03-20T18:15:07Z</time>
      </trkpt>
      <trkpt lat="58.36431" lon="-5.08757">
        <ele>76.07</ele>
        <time>2021-03-20T18:15:12Z</time>
      </trkpt>
      <trkpt lat="58.36433" lon="-5.08677">
        <ele>74.09</ele>
        <time>2021-03-20T18:15:17Z</time>
      </trkpt>
      <trkpt lat="58.36443" lon="-5.08618">
        <ele>71.4</ele>
        <time>2021-03-20T18:15:22Z</time>
      </trkpt>
      <trkpt lat="58.36463" lon="-5.08556">
        <ele>69.7</ele>
        <time>2021-03-20T18:15:28Z</time>
      </trkpt>
      <trkpt lat="58.36517" lon="-5.08448">
        <ele>68.14</ele>
        <time>2021-03-20T18:15:33Z</time>
      </trkpt>
      <trkpt lat="58.36548" lon="-5.08393">
        <ele>67.88</ele>
        <time>2021-03-20T18:15:38Z</time>
      </trkpt>
      <trkpt lat="58.36584" lon="-5.08346">
        <ele>66.44</ele>
        <time>2021-03-20T18:15:43Z</time>
      </trkpt>
      <trkpt lat="58.36735" lon="-5.08194">
        <ele>61.42</ele>
        <time>2021-03-20T18:15:48Z</time>
      </trkpt>
      <trkpt lat="58.36909" lon="-5.08038">
        <ele>56.52</ele>
        <time>2021-03-20T18:15:53Z</time>
      </trkpt>
      <trkpt lat="58.36959" lon="-5.07927">
        <ele>47.66</ele>
        <time>2021-03-20T18:15:59Z</time>
      </trkpt>
      <trkpt lat="58.37063" lon="-5.07645">
        <ele>46.35</ele>
        <time>2021-03-20T18:16:04Z</time>
      </trkpt>
      <trkpt lat="58.37152" lon="-5.07515">
        <ele>48.46</ele>
        <time>2021-03-20T18:16:09Z</time>
      </trkpt>
      <trkpt lat="58.37243" lon="-5.07418">
        <ele>47.73</ele>
        <time>2021-03-20T18:16:14Z</time>
      </trkpt>
      <trkpt lat="58.3731" lon="-5.0739">
        <ele>49.96</ele>
        <time>2021-03-20T18:16:19Z</time>
      </trkpt>
      <trkpt lat="58.37369" lon="-5.07352">
        <ele>52.29</ele>
        <time>2021-03-20T18:16:24Z</time>
      </trkpt>
      <trkpt lat="58.37451" lon="-5.07235">
        <ele>53.87</ele>
        <time>2021-03-20T18:16:30Z</time>
      </trkpt>
      <trkpt lat="58.37535" lon="-5.07162">
        <ele>48.03</ele>
        <time>2021-03-20T18:16:35Z</time>
      </trkpt>
      <trkpt lat="58.37616" lon="-5.07113">
        <ele>49.03</ele>
        <time>2021-03-20T18:16:40Z</time>
      </trkpt>
      <trkpt lat="58.37798" lon="-5.06982">
        <ele>45.14</ele>
        <time>2021-03-20T18:16:45Z</time>
      </trkpt>
      <trkpt lat="58.37837" lon="-5.06935">
        <ele>40.33</ele>
        <time>2021-03-20T18:16:50Z</time>
      </trkpt>
      <trkpt lat="58.3787" lon="-5.06879">
        <ele>42.6</ele>
        <time>2021-03-20T18:16:55Z</time>
      </trkpt>
      <trkpt lat="58.3791" lon="-5.0674">
        <ele>44.33</ele>
        <time>2021-03-20T18:17:01Z</time>
      </trkpt>
      <trkpt lat="58.37928" lon="-5.06645">
        <ele>42.8</ele>
        <time>2021-03-20T18:17:06Z</time>
      </trkpt>
      <trkpt lat="58.37938" lon="-5.06576">
        <ele>42.35</ele>
        <time>2021-03-20T18:17:11Z</time>
      </trkpt>
      <trkpt lat="58.37942" lon="-5.06492">
        <ele>42.19</ele>
        <time>2021-03-20T18:17:16Z</time>
      </trkpt>
      <trkpt lat="58.37941" lon="-5.0646">
        <ele>42.15</ele>
        <time>2021-03-20T18:17:21Z</time>
      </trkpt>
      <trkpt lat="58.37926" lon="-5.06389">
        <ele>39.35</ele>
        <time>2021-03-20T18:17:26Z</time>
      </trkpt>
      <trkpt lat="58.37917" lon="-5.06358">
        <ele>37.81</ele>
        <time>2021-03-20T18:17:32Z</time>
      </trkpt>
      <trkpt lat="58.37905" lon="-5.06323">
        <ele>35.64</ele>
        <time>2021-03-20T18:17:37Z</time>
      </trkpt>
      <trkpt lat="58.3789" lon="-5.0629">
        <ele>34.42</ele>
        <time>2021-03-20T18:17:42Z</time>
      </trkpt>
      <trkpt lat="58.37632" lon="-5.05773">
        <ele>35.43</ele>
        <time>2021-03-20T18:17:47Z</time>
      </trkpt>
      <trkpt lat="58.37604" lon="-5.05709">
        <ele>35.42</ele>
        <time>2021-03-20T18:17:52Z</time>
      </trkpt>
      <trkpt lat="58.37555" lon="-5.05587">
        <ele>35.3</ele>
        <time>2021-03-20T18:17:57Z</time>
      </trkpt>
      <trkpt lat="58.37533" lon="-5.05522">
        <ele>32.42</ele>
        <time>2021-03-20T18:18:03Z</time>
      </trkpt>
      <trkpt lat="58.37495" lon="-5.05396">
        <ele>25.95</ele>
        <time>2021-03-20T18:18:08Z</time>
      </trkpt>
      <trkpt lat="58.37467" lon="-5.05276">
        <ele>23.59</ele>
        <time>2021-03-20T18:18:13Z</time>
      </trkpt>
      <trkpt lat="58.37352" lon="-5.04679">
        <ele>6.14</ele>
        <time>2021-03-20T18:18:18Z</time>
      </trkpt>
      <trkpt lat="58.37189" lon="-5.03904">
        <ele>5.75</ele>
        <time>2021-03-20T18:18:23Z</time>
      </trkpt>
      <trkpt lat="58.37182" lon="-5.03865">
        <ele>5.3</ele>
        <time>2021-03-20T18:18:28Z</time>
      </trkpt>
      <trkpt lat="58.37177" lon="-5.03817">
        <ele>5.24</ele>
        <time>2021-03-20T18:18:34Z</time>
      </trkpt>
      <trkpt lat="58.37176" lon="-5.03773">
        <ele>5</ele>
        <time>2021-03-20T18:18:39Z</time>
      </trkpt>
      <trkpt lat="58.37177" lon="-5.03748">
        <ele>5</ele>
        <time>2021-03-20T18:18:44Z</time>
      </trkpt>
      <trkpt lat="58.37182" lon="-5.03704">
        <ele>5</ele>
        <time>2021-03-20T18:18:49Z</time>
      </trkpt>
      <trkpt lat="58.37193" lon="-5.03651">
        <ele>6.02</ele>
        <time>2021-03-20T18:18:54Z</time>
      </trkpt>
      <trkpt lat="58.37226" lon="-5.03549">
        <ele>7.86</ele>
        <time>2021-03-20T18:18:59Z</time>
      </trkpt>
      <trkpt lat="58.37235" lon="-5.03521">
        <ele>7.81</ele>
        <time>2021-03-20T18:19:05Z</time>
      </trkpt>
      <trkpt lat="58.37241" lon="-5.03491">
        <ele>8.31</ele>
        <time>2021-03-20T18:19:10Z</time>
      </trkpt>
      <trkpt lat="58.37247" lon="-5.03444">
        <ele>8.21</ele>
        <time>2021-03-20T18:19:15Z</time>
      </trkpt>
      <trkpt lat="58.37248" lon="-5.03416">
        <ele>8.11</ele>
        <time>2021-03-20T18:19:20Z</time>
      </trkpt>
      <trkpt lat="58.37247" lon="-5.03359">
        <ele>8.36</ele>
        <time>2021-03-20T18:19:25Z</time>
      </trkpt>
      <trkpt lat="58.37237" lon="-5.0329">
        <ele>10.12</ele>
        <time>2021-03-20T18:19:30Z</time>
      </trkpt>
      <trkpt lat="58.37225" lon="-5.03229">
        <ele>10.96</ele>
        <time>2021-03-20T18:19:36Z</time>
      </trkpt>
      <trkpt lat="58.37079" lon="-5.02574">
        <ele>12.77</ele>
        <time>2021-03-20T18:19:41Z</time>
      </trkpt>
      <trkpt lat="58.37068" lon="-5.0252">
        <ele>13.5</ele>
        <time>2021-03-20T18:19:46Z</time>
      </trkpt>
      <trkpt lat="58.37063" lon="-5.0247">
        <ele>12.66</ele>
        <time>2021-03-20T18:19:51Z</time>
      </trkpt>
      <trkpt lat="58.37061" lon="-5.02436">
        <ele>11.56</ele>
        <time>2021-03-20T18:19:56Z</time>
      </trkpt>
      <trkpt lat="58.37065" lon="-5.0237">
        <ele>10.93</ele>
        <time>2021-03-20T18:20:01Z</time>
      </trkpt>
      <trkpt lat="58.37068" lon="-5.02348">
        <ele>11.84</ele>
        <time>2021-03-20T18:20:07Z</time>
      </trkpt>
      <trkpt lat="58.37075" lon="-5.02319">
        <ele>13.41</ele>
        <time>2021-03-20T18:20:12Z</time>
      </trkpt>
      <trkpt lat="58.37085" lon="-5.02285">
        <ele>15.99</ele>
        <time>2021-03-20T18:20:17Z</time>
      </trkpt>
      <trkpt lat="58.37094" lon="-5.02262">
        <ele>17.2</ele>
        <time>2021-03-20T18:20:22Z</time>
      </trkpt>
      <trkpt lat="58.37114" lon="-5.02223">
        <ele>18.31</ele>
        <time>2021-03-20T18:20:27Z</time>
      </trkpt>
      <trkpt lat="58.37195" lon="-5.02116">
        <ele>19.59</ele>
        <time>2021-03-20T18:20:32Z</time>
      </trkpt>
      <trkpt lat="58.37231" lon="-5.0206">
        <ele>20.62</ele>
        <time>2021-03-20T18:20:38Z</time>
      </trkpt>
      <trkpt lat="58.37249" lon="-5.02025">
        <ele>20.65</ele>
        <time>2021-03-20T18:20:43Z</time>
      </trkpt>
      <trkpt lat="58.37281" lon="-5.01951">
        <ele>18.19</ele>
        <time>2021-03-20T18:20:48Z</time>
      </trkpt>
      <trkpt lat="58.37294" lon="-5.01916">
        <ele>18.68</ele>
        <time>2021-03-20T18:20:53Z</time>
      </trkpt>
      <trkpt lat="58.37317" lon="-5.01832">
        <ele>18.26</ele>
        <time>2021-03-20T18:20:58Z</time>
      </trkpt>
      <trkpt lat="58.37339" lon="-5.01779">
        <ele>17.5</ele>
        <time>2021-03-20T18:21:03Z</time>
      </trkpt>
      <trkpt lat="58.37365" lon="-5.01736">
        <ele>17.89</ele>
        <time>2021-03-20T18:21:09Z</time>
      </trkpt>
      <trkpt lat="58.37386" lon="-5.01715">
        <ele>18.31</ele>
        <time>2021-03-20T18:21:14Z</time>
      </trkpt>
      <trkpt lat="58.37409" lon="-5.01696">
        <ele>15.73</ele>
        <time>2021-03-20T18:21:19Z</time>
      </trkpt>
      <trkpt lat="58.37463" lon="-5.01677">
        <ele>10.47</ele>
        <time>2021-03-20T18:21:24Z</time>
      </trkpt>
      <trkpt lat="58.37535" lon="-5.01668">
        <ele>9.48</ele>
        <time>2021-03-20T18:21:29Z</time>
      </trkpt>
      <trkpt lat="58.37569" lon="-5.01676">
        <ele>11.14</ele>
        <time>2021-03-20T18:21:34Z</time>
      </trkpt>
      <trkpt lat="58.37627" lon="-5.01705">
        <ele>12.59</ele>
        <time>2021-03-20T18:21:40Z</time>
      </trkpt>
      <trkpt lat="58.37658" lon="-5.01734">
        <ele>13.29</ele>
        <time>2021-03-20T18:21:45Z</time>
      </trkpt>
      <trkpt lat="58.37688" lon="-5.01777">
        <ele>13.03</ele>
        <time>2021-03-20T18:21:50Z</time>
      </trkpt>
      <trkpt lat="58.37722" lon="-5.01841">
        <ele>12.65</ele>
        <time>2021-03-20T18:21:55Z</time>
      </trkpt>
      <trkpt lat="58.37731" lon="-5.01866">
        <ele>13.8</ele>
        <time>2021-03-20T18:22:00Z</time>
      </trkpt>
      <trkpt lat="58.37754" lon="-5.01943">
        <ele>14.18</ele>
        <time>2021-03-20T18:22:05Z</time>
      </trkpt>
      <trkpt lat="58.37881" lon="-5.0246">
        <ele>8.93</ele>
        <time>2021-03-20T18:22:11Z</time>
      </trkpt>
      <trkpt lat="58.37913" lon="-5.02605">
        <ele>8.4</ele>
        <time>2021-03-20T18:22:16Z</time>
      </trkpt>
      <trkpt lat="58.37947" lon="-5.02789">
        <ele>9.81</ele>
        <time>2021-03-20T18:22:21Z</time>
      </trkpt>
      <trkpt lat="58.37978" lon="-5.02936">
        <ele>10.87</ele>
        <time>2021-03-20T18:22:26Z</time>
      </trkpt>
      <trkpt lat="58.37992" lon="-5.02991">
        <ele>9.35</ele>
        <time>2021-03-20T18:22:31Z</time>
      </trkpt>
      <trkpt lat="58.38005" lon="-5.03035">
        <ele>8.44</ele>
        <time>2021-03-20T18:22:36Z</time>
      </trkpt>
      <trkpt lat="58.3802" lon="-5.03079">
        <ele>8.21</ele>
        <time>2021-03-20T18:22:42Z</time>
      </trkpt>
      <trkpt lat="58.38039" lon="-5.0312">
        <ele>8.16</ele>
        <time>2021-03-20T18:22:47Z</time>
      </trkpt>
      <trkpt lat="58.3806" lon="-5.03161">
        <ele>7.96</ele>
        <time>2021-03-20T18:22:52Z</time>
      </trkpt>
      <trkpt lat="58.38076" lon="-5.03186">
        <ele>7.98</ele>
        <time>2021-03-20T18:22:57Z</time>
      </trkpt>
      <trkpt lat="58.38116" lon="-5.03234">
        <ele>9.56</ele>
        <time>2021-03-20T18:23:02Z</time>
      </trkpt>
      <trkpt lat="58.38138" lon="-5.03256">
        <ele>10.99</ele>
        <time>2021-03-20T18:23:07Z</time>
      </trkpt>
      <trkpt lat="58.38164" lon="-5.03276">
        <ele>9.18</ele>
        <time>2021-03-20T18:23:13Z</time>
      </trkpt>
      <trkpt lat="58.38215" lon="-5.03304">
        <ele>5.37</ele>
        <time>2021-03-20T18:23:18Z</time>
      </trkpt>
      <trkpt lat="58.38246" lon="-5.03314">
        <ele>4.7</ele>
        <time>2021-03-20T18:23:23Z</time>
      </trkpt>
      <trkpt lat="58.38283" lon="-5.03317">
        <ele>5.17</ele>
        <time>2021-03-20T18:23:28Z</time>
      </trkpt>
      <trkpt lat="58.38316" lon="-5.03312">
        <ele>8.24</ele>
        <time>2021-03-20T18:23:33Z</time>
      </trkpt>
      <trkpt lat="58.38356" lon="-5.03295">
        <ele>12.17</ele>
        <time>2021-03-20T18:23:38Z</time>
      </trkpt>
      <trkpt lat="58.38384" lon="-5.03279">
        <ele>15.12</ele>
        <time>2021-03-20T18:23:43Z</time>
      </trkpt>
      <trkpt lat="58.38432" lon="-5.03237">
        <ele>22.69</ele>
        <time>2021-03-20T18:23:49Z</time>
      </trkpt>
      <trkpt lat="58.38463" lon="-5.03196">
        <ele>30.27</ele>
        <time>2021-03-20T18:23:54Z</time>
      </trkpt>
      <trkpt lat="58.38777" lon="-5.02725">
        <ele>54</ele>
        <time>2021-03-20T18:23:59Z</time>
      </trkpt>
      <trkpt lat="58.38801" lon="-5.02693">
        <ele>50.87</ele>
        <time>2021-03-20T18:24:04Z</time>
      </trkpt>
      <trkpt lat="58.3888" lon="-5.02607">
        <ele>43.6</ele>
        <time>2021-03-20T18:24:09Z</time>
      </trkpt>
      <trkpt lat="58.39295" lon="-5.02277">
        <ele>44.26</ele>
        <time>2021-03-20T18:24:14Z</time>
      </trkpt>
      <trkpt lat="58.39384" lon="-5.02196">
        <ele>39.28</ele>
        <time>2021-03-20T18:24:20Z</time>
      </trkpt>
      <trkpt lat="58.39474" lon="-5.0208">
        <ele>43.31</ele>
        <time>2021-03-20T18:24:25Z</time>
      </trkpt>
      <trkpt lat="58.39709" lon="-5.01642">
        <ele>62.17</ele>
        <time>2021-03-20T18:24:30Z</time>
      </trkpt>
      <trkpt lat="58.39792" lon="-5.01522">
        <ele>64.58</ele>
        <time>2021-03-20T18:24:35Z</time>
      </trkpt>
      <trkpt lat="58.39923" lon="-5.01386">
        <ele>63.82</ele>
        <time>2021-03-20T18:24:40Z</time>
      </trkpt>
      <trkpt lat="58.40109" lon="-5.01226">
        <ele>61.94</ele>
        <time>2021-03-20T18:24:45Z</time>
      </trkpt>
      <trkpt lat="58.40364" lon="-5.00992">
        <ele>40.36</ele>
        <time>2021-03-20T18:24:51Z</time>
      </trkpt>
      <trkpt lat="58.40406" lon="-5.00937">
        <ele>42.38</ele>
        <time>2021-03-20T18:24:56Z</time>
      </trkpt>
      <trkpt lat="58.40446" lon="-5.00869">
        <ele>43.63</ele>
        <time>2021-03-20T18:25:01Z</time>
      </trkpt>
      <trkpt lat="58.40485" lon="-5.00771">
        <ele>44.49</ele>
        <time>2021-03-20T18:25:06Z</time>
      </trkpt>
      <trkpt lat="58.40538" lon="-5.00595">
        <ele>39.64</ele>
        <time>2021-03-20T18:25:11Z</time>
      </trkpt>
      <trkpt lat="58.40569" lon="-5.0051">
        <ele>41.1</ele>
        <time>2021-03-20T18:25:16Z</time>
      </trkpt>
      <trkpt lat="58.4061" lon="-5.00429">
        <ele>43.57</ele>
        <time>2021-03-20T18:25:22Z</time>
      </trkpt>
      <trkpt lat="58.40655" lon="-5.00359">
        <ele>43.44</ele>
        <time>2021-03-20T18:25:27Z</time>
      </trkpt>
      <trkpt lat="58.40691" lon="-5.0032">
        <ele>43.26</ele>
        <time>2021-03-20T18:25:32Z</time>
      </trkpt>
      <trkpt lat="58.40729" lon="-5.00287">
        <ele>42.51</ele>
        <time>2021-03-20T18:25:37Z</time>
      </trkpt>
      <trkpt lat="58.40767" lon="-5.00266">
        <ele>42.17</ele>
        <time>2021-03-20T18:25:42Z</time>
      </trkpt>
      <trkpt lat="58.40812" lon="-5.00253">
        <ele>42</ele>
        <time>2021-03-20T18:25:47Z</time>
      </trkpt>
      <trkpt lat="58.40874" lon="-5.00255">
        <ele>42.45</ele>
        <time>2021-03-20T18:25:53Z</time>
      </trkpt>
      <trkpt lat="58.4103" lon="-5.00279">
        <ele>46.06</ele>
        <time>2021-03-20T18:25:58Z</time>
      </trkpt>
      <trkpt lat="58.41127" lon="-5.00299">
        <ele>50.24</ele>
        <time>2021-03-20T18:26:03Z</time>
      </trkpt>
      <trkpt lat="58.41867" lon="-5.00434">
        <ele>31.01</ele>
        <time>2021-03-20T18:26:08Z</time>
      </trkpt>
      <trkpt lat="58.41956" lon="-5.00418">
        <ele>36.79</ele>
        <time>2021-03-20T18:26:13Z</time>
      </trkpt>
      <trkpt lat="58.41981" lon="-5.00408">
        <ele>38.81</ele>
        <time>2021-03-20T18:26:18Z</time>
      </trkpt>
      <trkpt lat="58.42026" lon="-5.0038">
        <ele>41.57</ele>
        <time>2021-03-20T18:26:24Z</time>
      </trkpt>
      <trkpt lat="58.42081" lon="-5.00303">
        <ele>37.93</ele>
        <time>2021-03-20T18:26:29Z</time>
      </trkpt>
      <trkpt lat="58.42137" lon="-5.00206">
        <ele>32.19</ele>
        <time>2021-03-20T18:26:34Z</time>
      </trkpt>
      <trkpt lat="58.42185" lon="-5.00021">
        <ele>27.45</ele>
        <time>2021-03-20T18:26:39Z</time>
      </trkpt>
      <trkpt lat="58.42291" lon="-4.993">
        <ele>8.26</ele>
        <time>2021-03-20T18:26:44Z</time>
      </trkpt>
      <trkpt lat="58.4234" lon="-4.99141">
        <ele>5.93</ele>
        <time>2021-03-20T18:26:49Z</time>
      </trkpt>
      <trkpt lat="58.42414" lon="-4.99016">
        <ele>12.29</ele>
        <time>2021-03-20T18:26:55Z</time>
      </trkpt>
      <trkpt lat="58.42431" lon="-4.98985">
        <ele>14.57</ele>
        <time>2021-03-20T18:27:00Z</time>
      </trkpt>
      <trkpt lat="58.42443" lon="-4.98943">
        <ele>18.15</ele>
        <time>2021-03-20T18:27:05Z</time>
      </trkpt>
      <trkpt lat="58.42463" lon="-4.9891">
        <ele>18.94</ele>
        <time>2021-03-20T18:27:10Z</time>
      </trkpt>
      <trkpt lat="58.42473" lon="-4.9889">
        <ele>18.76</ele>
        <time>2021-03-20T18:27:15Z</time>
      </trkpt>
      <trkpt lat="58.42476" lon="-4.98866">
        <ele>18.27</ele>
        <time>2021-03-20T18:27:20Z</time>
      </trkpt>
      <trkpt lat="58.42475" lon="-4.98792">
        <ele>19.45</ele>
        <time>2021-03-20T18:27:26Z</time>
      </trkpt>
      <trkpt lat="58.42465" lon="-4.98706">
        <ele>21.56</ele>
        <time>2021-03-20T18:27:31Z</time>
      </trkpt>
      <trkpt lat="58.42456" lon="-4.98593">
        <ele>23.6</ele>
        <time>2021-03-20T18:27:36Z</time>
      </trkpt>
      <trkpt lat="58.42457" lon="-4.98551">
        <ele>25</ele>
        <time>2021-03-20T18:27:41Z</time>
      </trkpt>
      <trkpt lat="58.42462" lon="-4.9851">
        <ele>27.42</ele>
        <time>2021-03-20T18:27:46Z</time>
      </trkpt>
      <trkpt lat="58.42475" lon="-4.98466">
        <ele>28.99</ele>
        <time>2021-03-20T18:27:51Z</time>
      </trkpt>
      <trkpt lat="58.42492" lon="-4.98438">
        <ele>28.6</ele>
        <time>2021-03-20T18:27:57Z</time>
      </trkpt>
      <trkpt lat="58.42516" lon="-4.98419">
        <ele>27.14</ele>
        <time>2021-03-20T18:28:02Z</time>
      </trkpt>
      <trkpt lat="58.42531" lon="-4.98413">
        <ele>26.63</ele>
        <time>2021-03-20T18:28:07Z</time>
      </trkpt>
      <trkpt lat="58.4257" lon="-4.98414">
        <ele>29.94</ele>
        <time>2021-03-20T18:28:12Z</time>
      </trkpt>
      <trkpt lat="58.42665" lon="-4.98462">
        <ele>34.56</ele>
        <time>2021-03-20T18:28:17Z</time>
      </trkpt>
      <trkpt lat="58.42723" lon="-4.98447">
        <ele>34.72</ele>
        <time>2021-03-20T18:28:22Z</time>
      </trkpt>
      <trkpt lat="58.42783" lon="-4.98311">
        <ele>39.85</ele>
        <time>2021-03-20T18:28:28Z</time>
      </trkpt>
      <trkpt lat="58.42808" lon="-4.98233">
        <ele>42.38</ele>
        <time>2021-03-20T18:28:33Z</time>
      </trkpt>
      <trkpt lat="58.42831" lon="-4.98128">
        <ele>48.98</ele>
        <time>2021-03-20T18:28:38Z</time>
      </trkpt>
      <trkpt lat="58.42877" lon="-4.97809">
        <ele>60.33</ele>
        <time>2021-03-20T18:28:43Z</time>
      </trkpt>
      <trkpt lat="58.42908" lon="-4.97564">
        <ele>70</ele>
        <time>2021-03-20T18:28:48Z</time>
      </trkpt>
      <trkpt lat="58.42996" lon="-4.97237">
        <ele>74.4</ele>
        <time>2021-03-20T18:28:53Z</time>
      </trkpt>
      <trkpt lat="58.43025" lon="-4.97195">
        <ele>74</ele>
        <time>2021-03-20T18:28:59Z</time>
      </trkpt>
      <trkpt lat="58.43042" lon="-4.97177">
        <ele>74.32</ele>
        <time>2021-03-20T18:29:04Z</time>
      </trkpt>
      <trkpt lat="58.43075" lon="-4.97155">
        <ele>75.73</ele>
        <time>2021-03-20T18:29:09Z</time>
      </trkpt>
      <trkpt lat="58.43237" lon="-4.971">
        <ele>72.35</ele>
        <time>2021-03-20T18:29:14Z</time>
      </trkpt>
      <trkpt lat="58.4343" lon="-4.96862">
        <ele>69.73</ele>
        <time>2021-03-20T18:29:19Z</time>
      </trkpt>
      <trkpt lat="58.43612" lon="-4.96552">
        <ele>61.4</ele>
        <time>2021-03-20T18:29:24Z</time>
      </trkpt>
      <trkpt lat="58.43671" lon="-4.96463">
        <ele>60.04</ele>
        <time>2021-03-20T18:29:30Z</time>
      </trkpt>
      <trkpt lat="58.43793" lon="-4.96196">
        <ele>66.36</ele>
        <time>2021-03-20T18:29:35Z</time>
      </trkpt>
      <trkpt lat="58.44069" lon="-4.95771">
        <ele>75.89</ele>
        <time>2021-03-20T18:29:40Z</time>
      </trkpt>
      <trkpt lat="58.4434" lon="-4.9513">
        <ele>96.85</ele>
        <time>2021-03-20T18:29:45Z</time>
      </trkpt>
      <trkpt lat="58.44423" lon="-4.95048">
        <ele>101.07</ele>
        <time>2021-03-20T18:29:50Z</time>
      </trkpt>
      <trkpt lat="58.44541" lon="-4.94822">
        <ele>112.72</ele>
        <time>2021-03-20T18:29:55Z</time>
      </trkpt>
      <trkpt lat="58.44849" lon="-4.94097">
        <ele>136.57</ele>
        <time>2021-03-20T18:30:01Z</time>
      </trkpt>
      <trkpt lat="58.45085" lon="-4.93747">
        <ele>145.08</ele>
        <time>2021-03-20T18:30:06Z</time>
      </trkpt>
      <trkpt lat="58.45256" lon="-4.93424">
        <ele>153.95</ele>
        <time>2021-03-20T18:30:11Z</time>
      </trkpt>
      <trkpt lat="58.45318" lon="-4.93234">
        <ele>154.57</ele>
        <time>2021-03-20T18:30:16Z</time>
      </trkpt>
      <trkpt lat="58.45342" lon="-4.93143">
        <ele>155.64</ele>
        <time>2021-03-20T18:30:21Z</time>
      </trkpt>
      <trkpt lat="58.45379" lon="-4.93055">
        <ele>156.97</ele>
        <time>2021-03-20T18:30:26Z</time>
      </trkpt>
      <trkpt lat="58.45541" lon="-4.92808">
        <ele>158.62</ele>
        <time>2021-03-20T18:30:32Z</time>
      </trkpt>
      <trkpt lat="58.45589" lon="-4.92694">
        <ele>159.75</ele>
        <time>2021-03-20T18:30:37Z</time>
      </trkpt>
      <trkpt lat="58.45791" lon="-4.92239">
        <ele>165.07</ele>
        <time>2021-03-20T18:30:42Z</time>
      </trkpt>
      <trkpt lat="58.45921" lon="-4.92056">
        <ele>163.51</ele>
        <time>2021-03-20T18:30:47Z</time>
      </trkpt>
      <trkpt lat="58.46149" lon="-4.91359">
        <ele>174.66</ele>
        <time>2021-03-20T18:30:52Z</time>
      </trkpt>
      <trkpt lat="58.46194" lon="-4.91232">
        <ele>176.24</ele>
        <time>2021-03-20T18:30:57Z</time>
      </trkpt>
      <trkpt lat="58.4623" lon="-4.91057">
        <ele>179.82</ele>
        <time>2021-03-20T18:31:03Z</time>
      </trkpt>
      <trkpt lat="58.46281" lon="-4.90891">
        <ele>183.71</ele>
        <time>2021-03-20T18:31:08Z</time>
      </trkpt>
      <trkpt lat="58.46348" lon="-4.90768">
        <ele>191.25</ele>
        <time>2021-03-20T18:31:13Z</time>
      </trkpt>
      <trkpt lat="58.46394" lon="-4.90647">
        <ele>190.38</ele>
        <time>2021-03-20T18:31:18Z</time>
      </trkpt>
      <trkpt lat="58.46458" lon="-4.90404">
        <ele>180.56</ele>
        <time>2021-03-20T18:31:23Z</time>
      </trkpt>
      <trkpt lat="58.46492" lon="-4.90306">
        <ele>175.76</ele>
        <time>2021-03-20T18:31:28Z</time>
      </trkpt>
      <trkpt lat="58.46512" lon="-4.90266">
        <ele>174.7</ele>
        <time>2021-03-20T18:31:34Z</time>
      </trkpt>
      <trkpt lat="58.46565" lon="-4.90189">
        <ele>173.12</ele>
        <time>2021-03-20T18:31:39Z</time>
      </trkpt>
      <trkpt lat="58.46809" lon="-4.89983">
        <ele>166.84</ele>
        <time>2021-03-20T18:31:44Z</time>
      </trkpt>
      <trkpt lat="58.46838" lon="-4.8993">
        <ele>166.62</ele>
        <time>2021-03-20T18:31:49Z</time>
      </trkpt>
      <trkpt lat="58.46859" lon="-4.89863">
        <ele>167.8</ele>
        <time>2021-03-20T18:31:54Z</time>
      </trkpt>
      <trkpt lat="58.46916" lon="-4.89593">
        <ele>166.96</ele>
        <time>2021-03-20T18:31:59Z</time>
      </trkpt>
      <trkpt lat="58.46956" lon="-4.89486">
        <ele>166.05</ele>
        <time>2021-03-20T18:32:04Z</time>
      </trkpt>
      <trkpt lat="58.47031" lon="-4.89303">
        <ele>167.39</ele>
        <time>2021-03-20T18:32:10Z</time>
      </trkpt>
      <trkpt lat="58.47099" lon="-4.89192">
        <ele>159.99</ele>
        <time>2021-03-20T18:32:15Z</time>
      </trkpt>
      <trkpt lat="58.47202" lon="-4.89096">
        <ele>159.91</ele>
        <time>2021-03-20T18:32:20Z</time>
      </trkpt>
      <trkpt lat="58.47339" lon="-4.88917">
        <ele>151.71</ele>
        <time>2021-03-20T18:32:25Z</time>
      </trkpt>
      <trkpt lat="58.47517" lon="-4.8875">
        <ele>143.8</ele>
        <time>2021-03-20T18:32:30Z</time>
      </trkpt>
      <trkpt lat="58.47627" lon="-4.88615">
        <ele>136.17</ele>
        <time>2021-03-20T18:32:35Z</time>
      </trkpt>
      <trkpt lat="58.47796" lon="-4.88377">
        <ele>122.88</ele>
        <time>2021-03-20T18:32:41Z</time>
      </trkpt>
      <trkpt lat="58.47933" lon="-4.88109">
        <ele>113.58</ele>
        <time>2021-03-20T18:32:46Z</time>
      </trkpt>
      <trkpt lat="58.48092" lon="-4.87806">
        <ele>100.57</ele>
        <time>2021-03-20T18:32:51Z</time>
      </trkpt>
      <trkpt lat="58.48159" lon="-4.87699">
        <ele>96.65</ele>
        <time>2021-03-20T18:32:56Z</time>
      </trkpt>
      <trkpt lat="58.48316" lon="-4.87461">
        <ele>90.35</ele>
        <time>2021-03-20T18:33:01Z</time>
      </trkpt>
      <trkpt lat="58.48464" lon="-4.87174">
        <ele>79.56</ele>
        <time>2021-03-20T18:33:06Z</time>
      </trkpt>
      <trkpt lat="58.48529" lon="-4.87091">
        <ele>77.11</ele>
        <time>2021-03-20T18:33:12Z</time>
      </trkpt>
      <trkpt lat="58.48599" lon="-4.86971">
        <ele>76.7</ele>
        <time>2021-03-20T18:33:17Z</time>
      </trkpt>
      <trkpt lat="58.48733" lon="-4.86666">
        <ele>68.45</ele>
        <time>2021-03-20T18:33:22Z</time>
      </trkpt>
      <trkpt lat="58.48784" lon="-4.86554">
        <ele>65.9</ele>
        <time>2021-03-20T18:33:27Z</time>
      </trkpt>
      <trkpt lat="58.48832" lon="-4.86473">
        <ele>65.89</ele>
        <time>2021-03-20T18:33:32Z</time>
      </trkpt>
      <trkpt lat="58.48878" lon="-4.86354">
        <ele>64.87</ele>
        <time>2021-03-20T18:33:37Z</time>
      </trkpt>
      <trkpt lat="58.48916" lon="-4.86223">
        <ele>61.01</ele>
        <time>2021-03-20T18:33:43Z</time>
      </trkpt>
      <trkpt lat="58.48937" lon="-4.86144">
        <ele>60.36</ele>
        <time>2021-03-20T18:33:48Z</time>
      </trkpt>
      <trkpt lat="58.49019" lon="-4.85936">
        <ele>56.39</ele>
        <time>2021-03-20T18:33:53Z</time>
      </trkpt>
      <trkpt lat="58.49067" lon="-4.85798">
        <ele>54</ele>
        <time>2021-03-20T18:33:58Z</time>
      </trkpt>
      <trkpt lat="58.49162" lon="-4.85491">
        <ele>51.79</ele>
        <time>2021-03-20T18:34:03Z</time>
      </trkpt>
      <trkpt lat="58.49241" lon="-4.85223">
        <ele>47.39</ele>
        <time>2021-03-20T18:34:08Z</time>
      </trkpt>
      <trkpt lat="58.49318" lon="-4.84899">
        <ele>43.84</ele>
        <time>2021-03-20T18:34:14Z</time>
      </trkpt>
      <trkpt lat="58.49427" lon="-4.8402">
        <ele>31.45</ele>
        <time>2021-03-20T18:34:19Z</time>
      </trkpt>
      <trkpt lat="58.49475" lon="-4.83659">
        <ele>31</ele>
        <time>2021-03-20T18:34:24Z</time>
      </trkpt>
      <trkpt lat="58.49561" lon="-4.83274">
        <ele>28.29</ele>
        <time>2021-03-20T18:34:29Z</time>
      </trkpt>
      <trkpt lat="58.49573" lon="-4.83187">
        <ele>26.94</ele>
        <time>2021-03-20T18:34:34Z</time>
      </trkpt>
      <trkpt lat="58.49603" lon="-4.82909">
        <ele>25.58</ele>
        <time>2021-03-20T18:34:39Z</time>
      </trkpt>
      <trkpt lat="58.49634" lon="-4.82767">
        <ele>24.86</ele>
        <time>2021-03-20T18:34:45Z</time>
      </trkpt>
      <trkpt lat="58.4968" lon="-4.82564">
        <ele>20.43</ele>
        <time>2021-03-20T18:34:50Z</time>
      </trkpt>
      <trkpt lat="58.49732" lon="-4.82454">
        <ele>22.45</ele>
        <time>2021-03-20T18:34:55Z</time>
      </trkpt>
      <trkpt lat="58.49794" lon="-4.82269">
        <ele>20.78</ele>
        <time>2021-03-20T18:35:00Z</time>
      </trkpt>
      <trkpt lat="58.49855" lon="-4.82128">
        <ele>20.7</ele>
        <time>2021-03-20T18:35:05Z</time>
      </trkpt>
      <trkpt lat="58.49891" lon="-4.82017">
        <ele>18.42</ele>
        <time>2021-03-20T18:35:10Z</time>
      </trkpt>
      <trkpt lat="58.4992" lon="-4.81916">
        <ele>17.24</ele>
        <time>2021-03-20T18:35:16Z</time>
      </trkpt>
      <trkpt lat="58.49955" lon="-4.81829">
        <ele>17.23</ele>
        <time>2021-03-20T18:35:21Z</time>
      </trkpt>
      <trkpt lat="58.50018" lon="-4.8169">
        <ele>14.49</ele>
        <time>2021-03-20T18:35:26Z</time>
      </trkpt>
      <trkpt lat="58.50038" lon="-4.81656">
        <ele>14</ele>
        <time>2021-03-20T18:35:31Z</time>
      </trkpt>
      <trkpt lat="58.50056" lon="-4.81634">
        <ele>13.81</ele>
        <time>2021-03-20T18:35:36Z</time>
      </trkpt>
      <trkpt lat="58.50077" lon="-4.81622">
        <ele>12.62</ele>
        <time>2021-03-20T18:35:41Z</time>
      </trkpt>
      <trkpt lat="58.50091" lon="-4.8162">
        <ele>12.02</ele>
        <time>2021-03-20T18:35:47Z</time>
      </trkpt>
      <trkpt lat="58.50103" lon="-4.81621">
        <ele>11.64</ele>
        <time>2021-03-20T18:35:52Z</time>
      </trkpt>
      <trkpt lat="58.5015" lon="-4.81638">
        <ele>11.99</ele>
        <time>2021-03-20T18:35:57Z</time>
      </trkpt>
      <trkpt lat="58.50166" lon="-4.81641">
        <ele>12</ele>
        <time>2021-03-20T18:36:02Z</time>
      </trkpt>
      <trkpt lat="58.50189" lon="-4.81629">
        <ele>13.17</ele>
        <time>2021-03-20T18:36:07Z</time>
      </trkpt>
      <trkpt lat="58.502" lon="-4.81617">
        <ele>13.81</ele>
        <time>2021-03-20T18:36:12Z</time>
      </trkpt>
      <trkpt lat="58.50346" lon="-4.81364">
        <ele>17</ele>
        <time>2021-03-20T18:36:18Z</time>
      </trkpt>
      <trkpt lat="58.50391" lon="-4.81295">
        <ele>16.92</ele>
        <time>2021-03-20T18:36:23Z</time>
      </trkpt>
      <trkpt lat="58.50433" lon="-4.81251">
        <ele>15.43</ele>
        <time>2021-03-20T18:36:28Z</time>
      </trkpt>
      <trkpt lat="58.50477" lon="-4.81214">
        <ele>15.18</ele>
        <time>2021-03-20T18:36:33Z</time>
      </trkpt>
      <trkpt lat="58.50553" lon="-4.81161">
        <ele>14.54</ele>
        <time>2021-03-20T18:36:38Z</time>
      </trkpt>
      <trkpt lat="58.50788" lon="-4.81009">
        <ele>16.97</ele>
        <time>2021-03-20T18:36:43Z</time>
      </trkpt>
      <trkpt lat="58.50831" lon="-4.80993">
        <ele>16.64</ele>
        <time>2021-03-20T18:36:49Z</time>
      </trkpt>
      <trkpt lat="58.50896" lon="-4.8098">
        <ele>17.45</ele>
        <time>2021-03-20T18:36:54Z</time>
      </trkpt>
      <trkpt lat="58.50984" lon="-4.80968">
        <ele>17.3</ele>
        <time>2021-03-20T18:36:59Z</time>
      </trkpt>
      <trkpt lat="58.51025" lon="-4.80957">
        <ele>18.08</ele>
        <time>2021-03-20T18:37:04Z</time>
      </trkpt>
      <trkpt lat="58.51109" lon="-4.80919">
        <ele>16.91</ele>
        <time>2021-03-20T18:37:09Z</time>
      </trkpt>
      <trkpt lat="58.51545" lon="-4.80614">
        <ele>13</ele>
        <time>2021-03-20T18:37:14Z</time>
      </trkpt>
      <trkpt lat="58.5172" lon="-4.80484">
        <ele>12.65</ele>
        <time>2021-03-20T18:37:20Z</time>
      </trkpt>
      <trkpt lat="58.51824" lon="-4.80411">
        <ele>11.54</ele>
        <time>2021-03-20T18:37:25Z</time>
      </trkpt>
      <trkpt lat="58.51899" lon="-4.80355">
        <ele>11.14</ele>
        <time>2021-03-20T18:37:30Z</time>
      </trkpt>
      <trkpt lat="58.51947" lon="-4.80314">
        <ele>10</ele>
        <time>2021-03-20T18:37:35Z</time>
      </trkpt>
      <trkpt lat="58.51988" lon="-4.80273">
        <ele>10.63</ele>
        <time>2021-03-20T18:37:40Z</time>
      </trkpt>
      <trkpt lat="58.52046" lon="-4.80187">
        <ele>10.09</ele>
        <time>2021-03-20T18:37:45Z</time>
      </trkpt>
      <trkpt lat="58.52131" lon="-4.80045">
        <ele>9.27</ele>
        <time>2021-03-20T18:37:51Z</time>
      </trkpt>
      <trkpt lat="58.52166" lon="-4.79976">
        <ele>8.02</ele>
        <time>2021-03-20T18:37:56Z</time>
      </trkpt>
      <trkpt lat="58.52226" lon="-4.79845">
        <ele>8.41</ele>
        <time>2021-03-20T18:38:01Z</time>
      </trkpt>
      <trkpt lat="58.52248" lon="-4.79808">
        <ele>8</ele>
        <time>2021-03-20T18:38:06Z</time>
      </trkpt>
      <trkpt lat="58.52265" lon="-4.79786">
        <ele>7.63</ele>
        <time>2021-03-20T18:38:11Z</time>
      </trkpt>
      <trkpt lat="58.52289" lon="-4.79766">
        <ele>7</ele>
        <time>2021-03-20T18:38:16Z</time>
      </trkpt>
      <trkpt lat="58.52315" lon="-4.79751">
        <ele>6.65</ele>
        <time>2021-03-20T18:38:22Z</time>
      </trkpt>
      <trkpt lat="58.52328" lon="-4.79747">
        <ele>6.1</ele>
        <time>2021-03-20T18:38:27Z</time>
      </trkpt>
      <trkpt lat="58.5235" lon="-4.79744">
        <ele>5.44</ele>
        <time>2021-03-20T18:38:32Z</time>
      </trkpt>
      <trkpt lat="58.52465" lon="-4.79752">
        <ele>8.38</ele>
        <time>2021-03-20T18:38:37Z</time>
      </trkpt>
      <trkpt lat="58.52642" lon="-4.79755">
        <ele>10.68</ele>
        <time>2021-03-20T18:38:42Z</time>
      </trkpt>
      <trkpt lat="58.52716" lon="-4.79734">
        <ele>11.38</ele>
        <time>2021-03-20T18:38:47Z</time>
      </trkpt>
      <trkpt lat="58.5275" lon="-4.7972">
        <ele>11.3</ele>
        <time>2021-03-20T18:38:53Z</time>
      </trkpt>
      <trkpt lat="58.52784" lon="-4.79699">
        <ele>11.68</ele>
        <time>2021-03-20T18:38:58Z</time>
      </trkpt>
      <trkpt lat="58.52859" lon="-4.79622">
        <ele>12.21</ele>
        <time>2021-03-20T18:39:03Z</time>
      </trkpt>
      <trkpt lat="58.52922" lon="-4.7955">
        <ele>9.76</ele>
        <time>2021-03-20T18:39:08Z</time>
      </trkpt>
      <trkpt lat="58.53032" lon="-4.79368">
        <ele>12.49</ele>
        <time>2021-03-20T18:39:13Z</time>
      </trkpt>
      <trkpt lat="58.53117" lon="-4.79203">
        <ele>14.41</ele>
        <time>2021-03-20T18:39:18Z</time>
      </trkpt>
      <trkpt lat="58.53238" lon="-4.79045">
        <ele>13.76</ele>
        <time>2021-03-20T18:39:24Z</time>
      </trkpt>
      <trkpt lat="58.53256" lon="-4.79033">
        <ele>12.95</ele>
        <time>2021-03-20T18:39:29Z</time>
      </trkpt>
      <trkpt lat="58.53419" lon="-4.79006">
        <ele>15.77</ele>
        <time>2021-03-20T18:39:34Z</time>
      </trkpt>
      <trkpt lat="58.53435" lon="-4.78998">
        <ele>15.89</ele>
        <time>2021-03-20T18:39:39Z</time>
      </trkpt>
      <trkpt lat="58.53446" lon="-4.78986">
        <ele>16.34</ele>
        <time>2021-03-20T18:39:44Z</time>
      </trkpt>
      <trkpt lat="58.53482" lon="-4.78935">
        <ele>18.44</ele>
        <time>2021-03-20T18:39:49Z</time>
      </trkpt>
      <trkpt lat="58.53588" lon="-4.78826">
        <ele>11.59</ele>
        <time>2021-03-20T18:39:55Z</time>
      </trkpt>
      <trkpt lat="58.53655" lon="-4.78719">
        <ele>9.28</ele>
        <time>2021-03-20T18:40:00Z</time>
      </trkpt>
      <trkpt lat="58.5367" lon="-4.78669">
        <ele>7.59</ele>
        <time>2021-03-20T18:40:05Z</time>
      </trkpt>
      <trkpt lat="58.53682" lon="-4.78619">
        <ele>6.43</ele>
        <time>2021-03-20T18:40:10Z</time>
      </trkpt>
      <trkpt lat="58.53737" lon="-4.78458">
        <ele>3.21</ele>
        <time>2021-03-20T18:40:15Z</time>
      </trkpt>
      <trkpt lat="58.53759" lon="-4.78406">
        <ele>3.07</ele>
        <time>2021-03-20T18:40:20Z</time>
      </trkpt>
      <trkpt lat="58.5378" lon="-4.78379">
        <ele>3.36</ele>
        <time>2021-03-20T18:40:26Z</time>
      </trkpt>
      <trkpt lat="58.53843" lon="-4.78324">
        <ele>4.32</ele>
        <time>2021-03-20T18:40:31Z</time>
      </trkpt>
      <trkpt lat="58.53991" lon="-4.78185">
        <ele>3.81</ele>
        <time>2021-03-20T18:40:36Z</time>
      </trkpt>
      <trkpt lat="58.54033" lon="-4.78156">
        <ele>3.76</ele>
        <time>2021-03-20T18:40:41Z</time>
      </trkpt>
      <trkpt lat="58.54108" lon="-4.78115">
        <ele>3.93</ele>
        <time>2021-03-20T18:40:46Z</time>
      </trkpt>
      <trkpt lat="58.54127" lon="-4.7811">
        <ele>4.09</ele>
        <time>2021-03-20T18:40:51Z</time>
      </trkpt>
      <trkpt lat="58.54219" lon="-4.78107">
        <ele>3.47</ele>
        <time>2021-03-20T18:40:56Z</time>
      </trkpt>
      <trkpt lat="58.54238" lon="-4.78103">
        <ele>4.29</ele>
        <time>2021-03-20T18:41:02Z</time>
      </trkpt>
      <trkpt lat="58.54257" lon="-4.78092">
        <ele>4.97</ele>
        <time>2021-03-20T18:41:07Z</time>
      </trkpt>
      <trkpt lat="58.54273" lon="-4.78075">
        <ele>4.68</ele>
        <time>2021-03-20T18:41:12Z</time>
      </trkpt>
      <trkpt lat="58.54313" lon="-4.78021">
        <ele>3.98</ele>
        <time>2021-03-20T18:41:17Z</time>
      </trkpt>
      <trkpt lat="58.54341" lon="-4.77996">
        <ele>4.13</ele>
        <time>2021-03-20T18:41:22Z</time>
      </trkpt>
      <trkpt lat="58.54422" lon="-4.77934">
        <ele>6.17</ele>
        <time>2021-03-20T18:41:27Z</time>
      </trkpt>
      <trkpt lat="58.54453" lon="-4.77921">
        <ele>6.1</ele>
        <time>2021-03-20T18:41:33Z</time>
      </trkpt>
      <trkpt lat="58.54534" lon="-4.77901">
        <ele>5.45</ele>
        <time>2021-03-20T18:41:38Z</time>
      </trkpt>
      <trkpt lat="58.54625" lon="-4.7787">
        <ele>5.86</ele>
        <time>2021-03-20T18:41:43Z</time>
      </trkpt>
      <trkpt lat="58.54722" lon="-4.77816">
        <ele>4.86</ele>
        <time>2021-03-20T18:41:48Z</time>
      </trkpt>
      <trkpt lat="58.54852" lon="-4.77784">
        <ele>10.52</ele>
        <time>2021-03-20T18:41:53Z</time>
      </trkpt>
      <trkpt lat="58.54878" lon="-4.77771">
        <ele>11.34</ele>
        <time>2021-03-20T18:41:58Z</time>
      </trkpt>
      <trkpt lat="58.5491" lon="-4.77746">
        <ele>12.92</ele>
        <time>2021-03-20T18:42:04Z</time>
      </trkpt>
      <trkpt lat="58.54941" lon="-4.77715">
        <ele>13.64</ele>
        <time>2021-03-20T18:42:09Z</time>
      </trkpt>
      <trkpt lat="58.55024" lon="-4.77553">
        <ele>16.62</ele>
        <time>2021-03-20T18:42:14Z</time>
      </trkpt>
      <trkpt lat="58.55067" lon="-4.77502">
        <ele>19.44</ele>
        <time>2021-03-20T18:42:19Z</time>
      </trkpt>
      <trkpt lat="58.55131" lon="-4.77448">
        <ele>22.61</ele>
        <time>2021-03-20T18:42:24Z</time>
      </trkpt>
      <trkpt lat="58.55277" lon="-4.77368">
        <ele>31.53</ele>
        <time>2021-03-20T18:42:29Z</time>
      </trkpt>
      <trkpt lat="58.55441" lon="-4.77184">
        <ele>45.26</ele>
        <time>2021-03-20T18:42:35Z</time>
      </trkpt>
      <trkpt lat="58.55524" lon="-4.77055">
        <ele>51.87</ele>
        <time>2021-03-20T18:42:40Z</time>
      </trkpt>
      <trkpt lat="58.55572" lon="-4.76894">
        <ele>52.8</ele>
        <time>2021-03-20T18:42:45Z</time>
      </trkpt>
      <trkpt lat="58.55666" lon="-4.76819">
        <ele>50.01</ele>
        <time>2021-03-20T18:42:50Z</time>
      </trkpt>
      <trkpt lat="58.55708" lon="-4.76757">
        <ele>46.32</ele>
        <time>2021-03-20T18:42:55Z</time>
      </trkpt>
      <trkpt lat="58.55769" lon="-4.76736">
        <ele>42.65</ele>
        <time>2021-03-20T18:43:00Z</time>
      </trkpt>
      <trkpt lat="58.55853" lon="-4.76624">
        <ele>39.55</ele>
        <time>2021-03-20T18:43:06Z</time>
      </trkpt>
      <trkpt lat="58.55947" lon="-4.76548">
        <ele>38.73</ele>
        <time>2021-03-20T18:43:11Z</time>
      </trkpt>
      <trkpt lat="58.56024" lon="-4.76495">
        <ele>40.84</ele>
        <time>2021-03-20T18:43:16Z</time>
      </trkpt>
      <trkpt lat="58.56097" lon="-4.76418">
        <ele>38.9</ele>
        <time>2021-03-20T18:43:21Z</time>
      </trkpt>
      <trkpt lat="58.56273" lon="-4.76107">
        <ele>42.47</ele>
        <time>2021-03-20T18:43:26Z</time>
      </trkpt>
      <trkpt lat="58.56404" lon="-4.75725">
        <ele>45.1</ele>
        <time>2021-03-20T18:43:31Z</time>
      </trkpt>
      <trkpt lat="58.56573" lon="-4.75283">
        <ele>43</ele>
        <time>2021-03-20T18:43:37Z</time>
      </trkpt>
      <trkpt lat="58.56609" lon="-4.7518">
        <ele>43.52</ele>
        <time>2021-03-20T18:43:42Z</time>
      </trkpt>
      <trkpt lat="58.56663" lon="-4.74973">
        <ele>44.12</ele>
        <time>2021-03-20T18:43:47Z</time>
      </trkpt>
      <trkpt lat="58.56699" lon="-4.74838">
        <ele>47.03</ele>
        <time>2021-03-20T18:43:52Z</time>
      </trkpt>
      <trkpt lat="58.56712" lon="-4.74807">
        <ele>47.61</ele>
        <time>2021-03-20T18:43:57Z</time>
      </trkpt>
      <trkpt lat="58.56727" lon="-4.74783">
        <ele>48.03</ele>
        <time>2021-03-20T18:44:02Z</time>
      </trkpt>
      <trkpt lat="58.56854" lon="-4.74675">
        <ele>41.05</ele>
        <time>2021-03-20T18:44:08Z</time>
      </trkpt>
      <trkpt lat="58.56859" lon="-4.74644">
        <ele>40.25</ele>
        <time>2021-03-20T18:44:16Z</time>
      </trkpt>
      <trkpt lat="58.56848" lon="-4.74334">
        <ele>33.51</ele>
        <time>2021-03-20T18:44:24Z</time>
      </trkpt>
      <trkpt lat="58.56831" lon="-4.74217">
        <ele>29.78</ele>
        <time>2021-03-20T18:44:33Z</time>
      </trkpt>
      <trkpt lat="58.56801" lon="-4.74082">
        <ele>23.78</ele>
        <time>2021-03-20T18:44:41Z</time>
      </trkpt>
      <trkpt lat="58.56786" lon="-4.74024">
        <ele>21.12</ele>
        <time>2021-03-20T18:44:49Z</time>
      </trkpt>
      <trkpt lat="58.56768" lon="-4.73987">
        <ele>19.2</ele>
        <time>2021-03-20T18:44:58Z</time>
      </trkpt>
      <trkpt lat="58.56762" lon="-4.73941">
        <ele>16.31</ele>
        <time>2021-03-20T18:45:02Z</time>
      </trkpt>
      <trkpt lat="58.56747" lon="-4.73889">
        <ele>13.9</ele>
        <time>2021-03-20T18:45:05Z</time>
      </trkpt>
      <trkpt lat="58.56717" lon="-4.73815">
        <ele>12</ele>
        <time>2021-03-20T18:45:09Z</time>
      </trkpt>
      <trkpt lat="58.56695" lon="-4.7377">
        <ele>12.98</ele>
        <time>2021-03-20T18:45:13Z</time>
      </trkpt>
      <trkpt lat="58.56642" lon="-4.7368">
        <ele>18.24</ele>
        <time>2021-03-20T18:45:17Z</time>
      </trkpt>
      <trkpt lat="58.56581" lon="-4.73553">
        <ele>28.5</ele>
        <time>2021-03-20T18:45:21Z</time>
      </trkpt>
      <trkpt lat="58.56564" lon="-4.7353">
        <ele>33.1</ele>
        <time>2021-03-20T18:45:25Z</time>
      </trkpt>
      <trkpt lat="58.56555" lon="-4.73526">
        <ele>35.18</ele>
        <time>2021-03-20T18:45:29Z</time>
      </trkpt>
      <trkpt lat="58.56539" lon="-4.73531">
        <ele>37.13</ele>
        <time>2021-03-20T18:45:33Z</time>
      </trkpt>
      <trkpt lat="58.56532" lon="-4.73527">
        <ele>38.45</ele>
        <time>2021-03-20T18:45:37Z</time>
      </trkpt>
      <trkpt lat="58.5651" lon="-4.73408">
        <ele>43.26</ele>
        <time>2021-03-20T18:45:41Z</time>
      </trkpt>
      <trkpt lat="58.56501" lon="-4.7335">
        <ele>43.58</ele>
        <time>2021-03-20T18:45:43Z</time>
      </trkpt>
      <trkpt lat="58.56433" lon="-4.73088">
        <ele>42.72</ele>
        <time>2021-03-20T18:45:46Z</time>
      </trkpt>
      <trkpt lat="58.56429" lon="-4.73058">
        <ele>44.07</ele>
        <time>2021-03-20T18:45:49Z</time>
      </trkpt>
      <trkpt lat="58.56425" lon="-4.72999">
        <ele>45.72</ele>
        <time>2021-03-20T18:45:51Z</time>
      </trkpt>
      <trkpt lat="58.56434" lon="-4.72866">
        <ele>50</ele>
        <time>2021-03-20T18:45:54Z</time>
      </trkpt>
      <trkpt lat="58.56435" lon="-4.72829">
        <ele>51</ele>
        <time>2021-03-20T18:45:57Z</time>
      </trkpt>
      <trkpt lat="58.56433" lon="-4.72782">
        <ele>51</ele>
        <time>2021-03-20T18:46:00Z</time>
      </trkpt>
      <trkpt lat="58.56424" lon="-4.72684">
        <ele>48.63</ele>
        <time>2021-03-20T18:46:02Z</time>
      </trkpt>
      <trkpt lat="58.56419" lon="-4.72644">
        <ele>48</ele>
        <time>2021-03-20T18:46:05Z</time>
      </trkpt>
      <trkpt lat="58.56392" lon="-4.72486">
        <ele>45.51</ele>
        <time>2021-03-20T18:46:08Z</time>
      </trkpt>
      <trkpt lat="58.56381" lon="-4.72445">
        <ele>44</ele>
        <time>2021-03-20T18:46:11Z</time>
      </trkpt>
      <trkpt lat="58.56366" lon="-4.72397">
        <ele>43.12</ele>
        <time>2021-03-20T18:46:13Z</time>
      </trkpt>
      <trkpt lat="58.56349" lon="-4.72326">
        <ele>39.19</ele>
        <time>2021-03-20T18:46:16Z</time>
      </trkpt>
      <trkpt lat="58.56345" lon="-4.72304">
        <ele>38.52</ele>
        <time>2021-03-20T18:46:19Z</time>
      </trkpt>
      <trkpt lat="58.56337" lon="-4.72143">
        <ele>33.02</ele>
        <time>2021-03-20T18:46:21Z</time>
      </trkpt>
      <trkpt lat="58.56331" lon="-4.72093">
        <ele>31.39</ele>
        <time>2021-03-20T18:46:24Z</time>
      </trkpt>
      <trkpt lat="58.56322" lon="-4.72059">
        <ele>30.53</ele>
        <time>2021-03-20T18:46:27Z</time>
      </trkpt>
      <trkpt lat="58.56309" lon="-4.7203">
        <ele>30.89</ele>
        <time>2021-03-20T18:46:30Z</time>
      </trkpt>
      <trkpt lat="58.56297" lon="-4.72018">
        <ele>31.64</ele>
        <time>2021-03-20T18:46:32Z</time>
      </trkpt>
      <trkpt lat="58.56203" lon="-4.71975">
        <ele>36.8</ele>
        <time>2021-03-20T18:46:35Z</time>
      </trkpt>
      <trkpt lat="58.56135" lon="-4.71934">
        <ele>40.75</ele>
        <time>2021-03-20T18:46:38Z</time>
      </trkpt>
      <trkpt lat="58.56081" lon="-4.71892">
        <ele>44.89</ele>
        <time>2021-03-20T18:46:40Z</time>
      </trkpt>
      <trkpt lat="58.5605" lon="-4.71859">
        <ele>47.08</ele>
        <time>2021-03-20T18:46:43Z</time>
      </trkpt>
      <trkpt lat="58.56029" lon="-4.71832">
        <ele>48</ele>
        <time>2021-03-20T18:46:46Z</time>
      </trkpt>
      <trkpt lat="58.55992" lon="-4.71781">
        <ele>48.38</ele>
        <time>2021-03-20T18:46:49Z</time>
      </trkpt>
      <trkpt lat="58.55955" lon="-4.71705">
        <ele>47.97</ele>
        <time>2021-03-20T18:46:51Z</time>
      </trkpt>
      <trkpt lat="58.55911" lon="-4.71602">
        <ele>43.87</ele>
        <time>2021-03-20T18:46:54Z</time>
      </trkpt>
      <trkpt lat="58.5585" lon="-4.71435">
        <ele>38.56</ele>
        <time>2021-03-20T18:46:57Z</time>
      </trkpt>
      <trkpt lat="58.55843" lon="-4.71397">
        <ele>38.06</ele>
        <time>2021-03-20T18:46:59Z</time>
      </trkpt>
      <trkpt lat="58.55842" lon="-4.71366">
        <ele>37.75</ele>
        <time>2021-03-20T18:47:02Z</time>
      </trkpt>
      <trkpt lat="58.55847" lon="-4.71123">
        <ele>37.32</ele>
        <time>2021-03-20T18:47:05Z</time>
      </trkpt>
      <trkpt lat="58.55827" lon="-4.70788">
        <ele>34.41</ele>
        <time>2021-03-20T18:47:08Z</time>
      </trkpt>
      <trkpt lat="58.55819" lon="-4.70748">
        <ele>33.38</ele>
        <time>2021-03-20T18:47:10Z</time>
      </trkpt>
      <trkpt lat="58.55804" lon="-4.70709">
        <ele>32.86</ele>
        <time>2021-03-20T18:47:13Z</time>
      </trkpt>
      <trkpt lat="58.55789" lon="-4.70684">
        <ele>31.87</ele>
        <time>2021-03-20T18:47:16Z</time>
      </trkpt>
      <trkpt lat="58.55768" lon="-4.70668">
        <ele>31.61</ele>
        <time>2021-03-20T18:47:19Z</time>
      </trkpt>
      <trkpt lat="58.55717" lon="-4.7065">
        <ele>29.16</ele>
        <time>2021-03-20T18:47:21Z</time>
      </trkpt>
      <trkpt lat="58.5561" lon="-4.70604">
        <ele>22.63</ele>
        <time>2021-03-20T18:47:24Z</time>
      </trkpt>
      <trkpt lat="58.55578" lon="-4.706">
        <ele>20.23</ele>
        <time>2021-03-20T18:47:27Z</time>
      </trkpt>
      <trkpt lat="58.55562" lon="-4.70605">
        <ele>19.24</ele>
        <time>2021-03-20T18:47:29Z</time>
      </trkpt>
      <trkpt lat="58.55531" lon="-4.70632">
        <ele>18.83</ele>
        <time>2021-03-20T18:47:32Z</time>
      </trkpt>
      <trkpt lat="58.55515" lon="-4.70636">
        <ele>18.35</ele>
        <time>2021-03-20T18:47:35Z</time>
      </trkpt>
      <trkpt lat="58.55499" lon="-4.7063">
        <ele>17.46</ele>
        <time>2021-03-20T18:47:38Z</time>
      </trkpt>
      <trkpt lat="58.55427" lon="-4.70486">
        <ele>14.15</ele>
        <time>2021-03-20T18:47:40Z</time>
      </trkpt>
      <trkpt lat="58.55414" lon="-4.70441">
        <ele>14.54</ele>
        <time>2021-03-20T18:47:43Z</time>
      </trkpt>
      <trkpt lat="58.55408" lon="-4.70403">
        <ele>15.03</ele>
        <time>2021-03-20T18:47:46Z</time>
      </trkpt>
      <trkpt lat="58.55405" lon="-4.7035">
        <ele>15.26</ele>
        <time>2021-03-20T18:47:48Z</time>
      </trkpt>
      <trkpt lat="58.55413" lon="-4.70203">
        <ele>19.22</ele>
        <time>2021-03-20T18:47:51Z</time>
      </trkpt>
      <trkpt lat="58.55425" lon="-4.7006">
        <ele>22.21</ele>
        <time>2021-03-20T18:47:54Z</time>
      </trkpt>
      <trkpt lat="58.55443" lon="-4.69911">
        <ele>25.27</ele>
        <time>2021-03-20T18:47:57Z</time>
      </trkpt>
      <trkpt lat="58.55444" lon="-4.69866">
        <ele>26.82</ele>
        <time>2021-03-20T18:47:59Z</time>
      </trkpt>
      <trkpt lat="58.55436" lon="-4.69809">
        <ele>28.87</ele>
        <time>2021-03-20T18:48:02Z</time>
      </trkpt>
      <trkpt lat="58.55408" lon="-4.69663">
        <ele>32.85</ele>
        <time>2021-03-20T18:48:05Z</time>
      </trkpt>
      <trkpt lat="58.55382" lon="-4.69536">
        <ele>37.23</ele>
        <time>2021-03-20T18:48:07Z</time>
      </trkpt>
      <trkpt lat="58.55374" lon="-4.69423">
        <ele>39.81</ele>
        <time>2021-03-20T18:48:10Z</time>
      </trkpt>
      <trkpt lat="58.55371" lon="-4.6934">
        <ele>41.47</ele>
        <time>2021-03-20T18:48:13Z</time>
      </trkpt>
      <trkpt lat="58.55364" lon="-4.693">
        <ele>40.72</ele>
        <time>2021-03-20T18:48:16Z</time>
      </trkpt>
      <trkpt lat="58.55352" lon="-4.69266">
        <ele>40.74</ele>
        <time>2021-03-20T18:48:18Z</time>
      </trkpt>
      <trkpt lat="58.55205" lon="-4.69065">
        <ele>43.89</ele>
        <time>2021-03-20T18:48:21Z</time>
      </trkpt>
      <trkpt lat="58.5518" lon="-4.6902">
        <ele>47.38</ele>
        <time>2021-03-20T18:48:24Z</time>
      </trkpt>
      <trkpt lat="58.5517" lon="-4.68979">
        <ele>48.38</ele>
        <time>2021-03-20T18:48:27Z</time>
      </trkpt>
      <trkpt lat="58.55166" lon="-4.68926">
        <ele>49.9</ele>
        <time>2021-03-20T18:48:29Z</time>
      </trkpt>
      <trkpt lat="58.55164" lon="-4.68867">
        <ele>51.45</ele>
        <time>2021-03-20T18:48:32Z</time>
      </trkpt>
      <trkpt lat="58.55157" lon="-4.68793">
        <ele>52.56</ele>
        <time>2021-03-20T18:48:35Z</time>
      </trkpt>
      <trkpt lat="58.55128" lon="-4.68614">
        <ele>54.46</ele>
        <time>2021-03-20T18:48:37Z</time>
      </trkpt>
      <trkpt lat="58.55123" lon="-4.68572">
        <ele>56.78</ele>
        <time>2021-03-20T18:48:40Z</time>
      </trkpt>
      <trkpt lat="58.55117" lon="-4.68506">
        <ele>60.67</ele>
        <time>2021-03-20T18:48:43Z</time>
      </trkpt>
      <trkpt lat="58.55113" lon="-4.6841">
        <ele>59.35</ele>
        <time>2021-03-20T18:48:46Z</time>
      </trkpt>
      <trkpt lat="58.55083" lon="-4.68288">
        <ele>58.46</ele>
        <time>2021-03-20T18:48:48Z</time>
      </trkpt>
      <trkpt lat="58.55071" lon="-4.68262">
        <ele>57.8</ele>
        <time>2021-03-20T18:48:51Z</time>
      </trkpt>
      <trkpt lat="58.55016" lon="-4.68175">
        <ele>53.07</ele>
        <time>2021-03-20T18:48:54Z</time>
      </trkpt>
      <trkpt lat="58.55005" lon="-4.68164">
        <ele>52.06</ele>
        <time>2021-03-20T18:48:56Z</time>
      </trkpt>
      <trkpt lat="58.5499" lon="-4.68154">
        <ele>51.05</ele>
        <time>2021-03-20T18:48:59Z</time>
      </trkpt>
      <trkpt lat="58.54896" lon="-4.68126">
        <ele>47.88</ele>
        <time>2021-03-20T18:49:02Z</time>
      </trkpt>
      <trkpt lat="58.54885" lon="-4.68121">
        <ele>47.27</ele>
        <time>2021-03-20T18:49:05Z</time>
      </trkpt>
      <trkpt lat="58.54878" lon="-4.68112">
        <ele>45.95</ele>
        <time>2021-03-20T18:49:07Z</time>
      </trkpt>
      <trkpt lat="58.54874" lon="-4.68102">
        <ele>45.39</ele>
        <time>2021-03-20T18:49:10Z</time>
      </trkpt>
      <trkpt lat="58.54872" lon="-4.6808">
        <ele>44.3</ele>
        <time>2021-03-20T18:49:13Z</time>
      </trkpt>
      <trkpt lat="58.54874" lon="-4.68051">
        <ele>42.32</ele>
        <time>2021-03-20T18:49:15Z</time>
      </trkpt>
      <trkpt lat="58.54906" lon="-4.6796">
        <ele>33.47</ele>
        <time>2021-03-20T18:49:18Z</time>
      </trkpt>
      <trkpt lat="58.54913" lon="-4.67932">
        <ele>31.72</ele>
        <time>2021-03-20T18:49:21Z</time>
      </trkpt>
      <trkpt lat="58.5492" lon="-4.67874">
        <ele>30.92</ele>
        <time>2021-03-20T18:49:24Z</time>
      </trkpt>
      <trkpt lat="58.5492" lon="-4.67837">
        <ele>30.93</ele>
        <time>2021-03-20T18:49:26Z</time>
      </trkpt>
      <trkpt lat="58.54913" lon="-4.67793">
        <ele>29.83</ele>
        <time>2021-03-20T18:49:29Z</time>
      </trkpt>
      <trkpt lat="58.54902" lon="-4.67766">
        <ele>29.01</ele>
        <time>2021-03-20T18:49:32Z</time>
      </trkpt>
      <trkpt lat="58.54892" lon="-4.6775">
        <ele>28.42</ele>
        <time>2021-03-20T18:49:35Z</time>
      </trkpt>
      <trkpt lat="58.5482" lon="-4.67675">
        <ele>26.91</ele>
        <time>2021-03-20T18:49:37Z</time>
      </trkpt>
      <trkpt lat="58.54814" lon="-4.67663">
        <ele>25.67</ele>
        <time>2021-03-20T18:49:40Z</time>
      </trkpt>
      <trkpt lat="58.54776" lon="-4.67518">
        <ele>23.21</ele>
        <time>2021-03-20T18:49:43Z</time>
      </trkpt>
      <trkpt lat="58.54762" lon="-4.67479">
        <ele>25.22</ele>
        <time>2021-03-20T18:49:45Z</time>
      </trkpt>
      <trkpt lat="58.54749" lon="-4.6746">
        <ele>26.97</ele>
        <time>2021-03-20T18:49:48Z</time>
      </trkpt>
      <trkpt lat="58.54731" lon="-4.67445">
        <ele>28.65</ele>
        <time>2021-03-20T18:49:51Z</time>
      </trkpt>
      <trkpt lat="58.54664" lon="-4.67433">
        <ele>34.26</ele>
        <time>2021-03-20T18:49:54Z</time>
      </trkpt>
      <trkpt lat="58.54601" lon="-4.67402">
        <ele>38.08</ele>
        <time>2021-03-20T18:49:56Z</time>
      </trkpt>
      <trkpt lat="58.54517" lon="-4.67388">
        <ele>38.08</ele>
        <time>2021-03-20T18:49:59Z</time>
      </trkpt>
      <trkpt lat="58.54418" lon="-4.67361">
        <ele>42</ele>
        <time>2021-03-20T18:50:02Z</time>
      </trkpt>
      <trkpt lat="58.54318" lon="-4.67323">
        <ele>43.35</ele>
        <time>2021-03-20T18:50:04Z</time>
      </trkpt>
      <trkpt lat="58.54294" lon="-4.67318">
        <ele>43.69</ele>
        <time>2021-03-20T18:50:07Z</time>
      </trkpt>
      <trkpt lat="58.5427" lon="-4.67336">
        <ele>43.96</ele>
        <time>2021-03-20T18:50:10Z</time>
      </trkpt>
      <trkpt lat="58.54184" lon="-4.67468">
        <ele>50.19</ele>
        <time>2021-03-20T18:50:13Z</time>
      </trkpt>
      <trkpt lat="58.5415" lon="-4.67509">
        <ele>51.71</ele>
        <time>2021-03-20T18:50:15Z</time>
      </trkpt>
      <trkpt lat="58.54125" lon="-4.67527">
        <ele>52.46</ele>
        <time>2021-03-20T18:50:18Z</time>
      </trkpt>
      <trkpt lat="58.54048" lon="-4.67557">
        <ele>50.83</ele>
        <time>2021-03-20T18:50:21Z</time>
      </trkpt>
      <trkpt lat="58.54005" lon="-4.67569">
        <ele>50.99</ele>
        <time>2021-03-20T18:50:23Z</time>
      </trkpt>
      <trkpt lat="58.53956" lon="-4.67567">
        <ele>52.84</ele>
        <time>2021-03-20T18:50:26Z</time>
      </trkpt>
      <trkpt lat="58.53885" lon="-4.67555">
        <ele>53.95</ele>
        <time>2021-03-20T18:50:29Z</time>
      </trkpt>
      <trkpt lat="58.53644" lon="-4.67617">
        <ele>55.07</ele>
        <time>2021-03-20T18:50:32Z</time>
      </trkpt>
      <trkpt lat="58.53616" lon="-4.67615">
        <ele>55.13</ele>
        <time>2021-03-20T18:50:34Z</time>
      </trkpt>
      <trkpt lat="58.53587" lon="-4.67607">
        <ele>54.87</ele>
        <time>2021-03-20T18:50:37Z</time>
      </trkpt>
      <trkpt lat="58.53472" lon="-4.67546">
        <ele>54.32</ele>
        <time>2021-03-20T18:50:40Z</time>
      </trkpt>
      <trkpt lat="58.53445" lon="-4.6754">
        <ele>53.88</ele>
        <time>2021-03-20T18:50:43Z</time>
      </trkpt>
      <trkpt lat="58.53423" lon="-4.67544">
        <ele>53.34</ele>
        <time>2021-03-20T18:50:45Z</time>
      </trkpt>
      <trkpt lat="58.5323" lon="-4.67655">
        <ele>48.32</ele>
        <time>2021-03-20T18:50:48Z</time>
      </trkpt>
      <trkpt lat="58.532" lon="-4.67686">
        <ele>47.78</ele>
        <time>2021-03-20T18:50:51Z</time>
      </trkpt>
      <trkpt lat="58.52996" lon="-4.67929">
        <ele>50.41</ele>
        <time>2021-03-20T18:50:53Z</time>
      </trkpt>
      <trkpt lat="58.52839" lon="-4.6808">
        <ele>51.02</ele>
        <time>2021-03-20T18:50:56Z</time>
      </trkpt>
      <trkpt lat="58.52749" lon="-4.68193">
        <ele>54.71</ele>
        <time>2021-03-20T18:50:59Z</time>
      </trkpt>
      <trkpt lat="58.5269" lon="-4.6824">
        <ele>54.19</ele>
        <time>2021-03-20T18:51:02Z</time>
      </trkpt>
      <trkpt lat="58.5253" lon="-4.68403">
        <ele>52.65</ele>
        <time>2021-03-20T18:51:04Z</time>
      </trkpt>
      <trkpt lat="58.52509" lon="-4.68412">
        <ele>52.03</ele>
        <time>2021-03-20T18:51:07Z</time>
      </trkpt>
      <trkpt lat="58.52486" lon="-4.6841">
        <ele>51</ele>
        <time>2021-03-20T18:51:10Z</time>
      </trkpt>
      <trkpt lat="58.52462" lon="-4.68392">
        <ele>49.24</ele>
        <time>2021-03-20T18:51:12Z</time>
      </trkpt>
      <trkpt lat="58.5244" lon="-4.68381">
        <ele>48.28</ele>
        <time>2021-03-20T18:51:15Z</time>
      </trkpt>
      <trkpt lat="58.52407" lon="-4.68387">
        <ele>47.48</ele>
        <time>2021-03-20T18:51:18Z</time>
      </trkpt>
      <trkpt lat="58.52388" lon="-4.68403">
        <ele>48.45</ele>
        <time>2021-03-20T18:51:21Z</time>
      </trkpt>
      <trkpt lat="58.52357" lon="-4.68445">
        <ele>49.77</ele>
        <time>2021-03-20T18:51:23Z</time>
      </trkpt>
      <trkpt lat="58.52333" lon="-4.68471">
        <ele>49.92</ele>
        <time>2021-03-20T18:51:26Z</time>
      </trkpt>
      <trkpt lat="58.52306" lon="-4.68491">
        <ele>49.68</ele>
        <time>2021-03-20T18:51:29Z</time>
      </trkpt>
      <trkpt lat="58.52251" lon="-4.68505">
        <ele>48.41</ele>
        <time>2021-03-20T18:51:31Z</time>
      </trkpt>
      <trkpt lat="58.52173" lon="-4.68509">
        <ele>48.09</ele>
        <time>2021-03-20T18:51:34Z</time>
      </trkpt>
      <trkpt lat="58.52133" lon="-4.68515">
        <ele>49.62</ele>
        <time>2021-03-20T18:51:37Z</time>
      </trkpt>
      <trkpt lat="58.52104" lon="-4.68536">
        <ele>49.73</ele>
        <time>2021-03-20T18:51:40Z</time>
      </trkpt>
      <trkpt lat="58.52081" lon="-4.68572">
        <ele>49.49</ele>
        <time>2021-03-20T18:51:42Z</time>
      </trkpt>
      <trkpt lat="58.52022" lon="-4.6875">
        <ele>52.54</ele>
        <time>2021-03-20T18:51:45Z</time>
      </trkpt>
      <trkpt lat="58.51981" lon="-4.68858">
        <ele>53.14</ele>
        <time>2021-03-20T18:51:48Z</time>
      </trkpt>
      <trkpt lat="58.51883" lon="-4.69047">
        <ele>52.15</ele>
        <time>2021-03-20T18:51:51Z</time>
      </trkpt>
      <trkpt lat="58.51866" lon="-4.69084">
        <ele>50.56</ele>
        <time>2021-03-20T18:51:53Z</time>
      </trkpt>
      <trkpt lat="58.51842" lon="-4.69153">
        <ele>49.96</ele>
        <time>2021-03-20T18:51:56Z</time>
      </trkpt>
      <trkpt lat="58.51816" lon="-4.69192">
        <ele>50.29</ele>
        <time>2021-03-20T18:51:59Z</time>
      </trkpt>
      <trkpt lat="58.51789" lon="-4.69216">
        <ele>49.39</ele>
        <time>2021-03-20T18:52:01Z</time>
      </trkpt>
      <trkpt lat="58.51607" lon="-4.69316">
        <ele>45.08</ele>
        <time>2021-03-20T18:52:04Z</time>
      </trkpt>
      <trkpt lat="58.5158" lon="-4.69335">
        <ele>43.77</ele>
        <time>2021-03-20T18:52:07Z</time>
      </trkpt>
      <trkpt lat="58.51549" lon="-4.69371">
        <ele>43.24</ele>
        <time>2021-03-20T18:52:10Z</time>
      </trkpt>
      <trkpt lat="58.51518" lon="-4.69414">
        <ele>44.09</ele>
        <time>2021-03-20T18:52:12Z</time>
      </trkpt>
      <trkpt lat="58.51503" lon="-4.6945">
        <ele>45.4</ele>
        <time>2021-03-20T18:52:15Z</time>
      </trkpt>
      <trkpt lat="58.51483" lon="-4.69512">
        <ele>44.86</ele>
        <time>2021-03-20T18:52:18Z</time>
      </trkpt>
      <trkpt lat="58.5146" lon="-4.69575">
        <ele>44.67</ele>
        <time>2021-03-20T18:52:20Z</time>
      </trkpt>
      <trkpt lat="58.51435" lon="-4.69612">
        <ele>44.63</ele>
        <time>2021-03-20T18:52:23Z</time>
      </trkpt>
      <trkpt lat="58.51402" lon="-4.69636">
        <ele>42.19</ele>
        <time>2021-03-20T18:52:26Z</time>
      </trkpt>
      <trkpt lat="58.51346" lon="-4.69655">
        <ele>38.16</ele>
        <time>2021-03-20T18:52:29Z</time>
      </trkpt>
      <trkpt lat="58.51327" lon="-4.69668">
        <ele>36.41</ele>
        <time>2021-03-20T18:52:31Z</time>
      </trkpt>
      <trkpt lat="58.51308" lon="-4.69692">
        <ele>35.12</ele>
        <time>2021-03-20T18:52:34Z</time>
      </trkpt>
      <trkpt lat="58.51204" lon="-4.69834">
        <ele>32.06</ele>
        <time>2021-03-20T18:52:37Z</time>
      </trkpt>
      <trkpt lat="58.51181" lon="-4.69873">
        <ele>29.56</ele>
        <time>2021-03-20T18:52:39Z</time>
      </trkpt>
      <trkpt lat="58.51168" lon="-4.69904">
        <ele>28.09</ele>
        <time>2021-03-20T18:52:42Z</time>
      </trkpt>
      <trkpt lat="58.51158" lon="-4.69935">
        <ele>27.02</ele>
        <time>2021-03-20T18:52:45Z</time>
      </trkpt>
      <trkpt lat="58.51126" lon="-4.70074">
        <ele>29.28</ele>
        <time>2021-03-20T18:52:48Z</time>
      </trkpt>
      <trkpt lat="58.5111" lon="-4.70115">
        <ele>28.09</ele>
        <time>2021-03-20T18:52:50Z</time>
      </trkpt>
      <trkpt lat="58.51094" lon="-4.70136">
        <ele>27.4</ele>
        <time>2021-03-20T18:52:53Z</time>
      </trkpt>
      <trkpt lat="58.51075" lon="-4.70155">
        <ele>26.28</ele>
        <time>2021-03-20T18:52:56Z</time>
      </trkpt>
      <trkpt lat="58.51056" lon="-4.70168">
        <ele>26.08</ele>
        <time>2021-03-20T18:52:59Z</time>
      </trkpt>
      <trkpt lat="58.51029" lon="-4.7017">
        <ele>26.34</ele>
        <time>2021-03-20T18:53:01Z</time>
      </trkpt>
      <trkpt lat="58.51009" lon="-4.70165">
        <ele>26.52</ele>
        <time>2021-03-20T18:53:04Z</time>
      </trkpt>
      <trkpt lat="58.50974" lon="-4.70148">
        <ele>26.93</ele>
        <time>2021-03-20T18:53:07Z</time>
      </trkpt>
      <trkpt lat="58.50945" lon="-4.70139">
        <ele>28</ele>
        <time>2021-03-20T18:53:09Z</time>
      </trkpt>
      <trkpt lat="58.50926" lon="-4.7014">
        <ele>28.1</ele>
        <time>2021-03-20T18:53:12Z</time>
      </trkpt>
      <trkpt lat="58.50909" lon="-4.70146">
        <ele>27.95</ele>
        <time>2021-03-20T18:53:15Z</time>
      </trkpt>
      <trkpt lat="58.50895" lon="-4.70158">
        <ele>27.78</ele>
        <time>2021-03-20T18:53:18Z</time>
      </trkpt>
      <trkpt lat="58.5088" lon="-4.70177">
        <ele>28.13</ele>
        <time>2021-03-20T18:53:20Z</time>
      </trkpt>
      <trkpt lat="58.50866" lon="-4.70205">
        <ele>28.82</ele>
        <time>2021-03-20T18:53:23Z</time>
      </trkpt>
      <trkpt lat="58.50808" lon="-4.70352">
        <ele>35.69</ele>
        <time>2021-03-20T18:53:26Z</time>
      </trkpt>
      <trkpt lat="58.50784" lon="-4.70403">
        <ele>38.37</ele>
        <time>2021-03-20T18:53:28Z</time>
      </trkpt>
      <trkpt lat="58.50771" lon="-4.70421">
        <ele>39.83</ele>
        <time>2021-03-20T18:53:31Z</time>
      </trkpt>
      <trkpt lat="58.50705" lon="-4.70499">
        <ele>40.8</ele>
        <time>2021-03-20T18:53:34Z</time>
      </trkpt>
      <trkpt lat="58.5068" lon="-4.70548">
        <ele>40.27</ele>
        <time>2021-03-20T18:53:37Z</time>
      </trkpt>
      <trkpt lat="58.50663" lon="-4.70585">
        <ele>39.79</ele>
        <time>2021-03-20T18:53:39Z</time>
      </trkpt>
      <trkpt lat="58.50634" lon="-4.7063">
        <ele>39.88</ele>
        <time>2021-03-20T18:53:42Z</time>
      </trkpt>
      <trkpt lat="58.50585" lon="-4.70661">
        <ele>39.45</ele>
        <time>2021-03-20T18:53:45Z</time>
      </trkpt>
      <trkpt lat="58.50563" lon="-4.70663">
        <ele>39.55</ele>
        <time>2021-03-20T18:53:47Z</time>
      </trkpt>
      <trkpt lat="58.50519" lon="-4.70648">
        <ele>39.67</ele>
        <time>2021-03-20T18:53:50Z</time>
      </trkpt>
      <trkpt lat="58.50497" lon="-4.70648">
        <ele>40.28</ele>
        <time>2021-03-20T18:53:53Z</time>
      </trkpt>
      <trkpt lat="58.50443" lon="-4.70663">
        <ele>42.49</ele>
        <time>2021-03-20T18:53:56Z</time>
      </trkpt>
      <trkpt lat="58.50422" lon="-4.70678">
        <ele>43.36</ele>
        <time>2021-03-20T18:53:58Z</time>
      </trkpt>
      <trkpt lat="58.50406" lon="-4.70699">
        <ele>44.14</ele>
        <time>2021-03-20T18:54:01Z</time>
      </trkpt>
      <trkpt lat="58.50382" lon="-4.70751">
        <ele>45.29</ele>
        <time>2021-03-20T18:54:04Z</time>
      </trkpt>
      <trkpt lat="58.50328" lon="-4.70827">
        <ele>44.01</ele>
        <time>2021-03-20T18:54:07Z</time>
      </trkpt>
      <trkpt lat="58.50233" lon="-4.7089">
        <ele>41.85</ele>
        <time>2021-03-20T18:54:09Z</time>
      </trkpt>
      <trkpt lat="58.50211" lon="-4.70917">
        <ele>41.83</ele>
        <time>2021-03-20T18:54:12Z</time>
      </trkpt>
      <trkpt lat="58.5019" lon="-4.7095">
        <ele>41.98</ele>
        <time>2021-03-20T18:54:15Z</time>
      </trkpt>
      <trkpt lat="58.50075" lon="-4.71144">
        <ele>43.12</ele>
        <time>2021-03-20T18:54:17Z</time>
      </trkpt>
      <trkpt lat="58.50016" lon="-4.71247">
        <ele>42.13</ele>
        <time>2021-03-20T18:54:20Z</time>
      </trkpt>
      <trkpt lat="58.50004" lon="-4.7127">
        <ele>41.31</ele>
        <time>2021-03-20T18:54:23Z</time>
      </trkpt>
      <trkpt lat="58.49969" lon="-4.71357">
        <ele>42.49</ele>
        <time>2021-03-20T18:54:26Z</time>
      </trkpt>
      <trkpt lat="58.49941" lon="-4.71416">
        <ele>42.44</ele>
        <time>2021-03-20T18:54:28Z</time>
      </trkpt>
      <trkpt lat="58.49923" lon="-4.71438">
        <ele>41.26</ele>
        <time>2021-03-20T18:54:31Z</time>
      </trkpt>
      <trkpt lat="58.49851" lon="-4.71509">
        <ele>40.96</ele>
        <time>2021-03-20T18:54:34Z</time>
      </trkpt>
      <trkpt lat="58.498" lon="-4.71583">
        <ele>42.78</ele>
        <time>2021-03-20T18:54:36Z</time>
      </trkpt>
      <trkpt lat="58.49766" lon="-4.71636">
        <ele>43.03</ele>
        <time>2021-03-20T18:54:39Z</time>
      </trkpt>
      <trkpt lat="58.49754" lon="-4.71661">
        <ele>43.08</ele>
        <time>2021-03-20T18:54:42Z</time>
      </trkpt>
      <trkpt lat="58.49718" lon="-4.71761">
        <ele>44.09</ele>
        <time>2021-03-20T18:54:45Z</time>
      </trkpt>
      <trkpt lat="58.49691" lon="-4.71816">
        <ele>44.85</ele>
        <time>2021-03-20T18:54:47Z</time>
      </trkpt>
      <trkpt lat="58.4968" lon="-4.71832">
        <ele>43.89</ele>
        <time>2021-03-20T18:54:50Z</time>
      </trkpt>
      <trkpt lat="58.49655" lon="-4.71862">
        <ele>42.76</ele>
        <time>2021-03-20T18:54:53Z</time>
      </trkpt>
      <trkpt lat="58.49602" lon="-4.71898">
        <ele>40.65</ele>
        <time>2021-03-20T18:54:55Z</time>
      </trkpt>
      <trkpt lat="58.49566" lon="-4.7193">
        <ele>39.07</ele>
        <time>2021-03-20T18:54:58Z</time>
      </trkpt>
      <trkpt lat="58.4955" lon="-4.71951">
        <ele>38.81</ele>
        <time>2021-03-20T18:55:01Z</time>
      </trkpt>
      <trkpt lat="58.49519" lon="-4.71998">
        <ele>38.6</ele>
        <time>2021-03-20T18:55:04Z</time>
      </trkpt>
      <trkpt lat="58.4949" lon="-4.72049">
        <ele>38.39</ele>
        <time>2021-03-20T18:55:06Z</time>
      </trkpt>
      <trkpt lat="58.49475" lon="-4.72064">
        <ele>38.24</ele>
        <time>2021-03-20T18:55:09Z</time>
      </trkpt>
      <trkpt lat="58.49443" lon="-4.72096">
        <ele>37.69</ele>
        <time>2021-03-20T18:55:12Z</time>
      </trkpt>
      <trkpt lat="58.49359" lon="-4.72162">
        <ele>35.5</ele>
        <time>2021-03-20T18:55:15Z</time>
      </trkpt>
      <trkpt lat="58.49325" lon="-4.72195">
        <ele>35.45</ele>
        <time>2021-03-20T18:55:17Z</time>
      </trkpt>
      <trkpt lat="58.49305" lon="-4.7222">
        <ele>35.75</ele>
        <time>2021-03-20T18:55:20Z</time>
      </trkpt>
      <trkpt lat="58.49263" lon="-4.72297">
        <ele>35.59</ele>
        <time>2021-03-20T18:55:23Z</time>
      </trkpt>
      <trkpt lat="58.49247" lon="-4.7232">
        <ele>35.26</ele>
        <time>2021-03-20T18:55:25Z</time>
      </trkpt>
      <trkpt lat="58.49217" lon="-4.72352">
        <ele>35.02</ele>
        <time>2021-03-20T18:55:28Z</time>
      </trkpt>
      <trkpt lat="58.49183" lon="-4.72383">
        <ele>34.37</ele>
        <time>2021-03-20T18:55:31Z</time>
      </trkpt>
      <trkpt lat="58.49152" lon="-4.72396">
        <ele>32.81</ele>
        <time>2021-03-20T18:55:34Z</time>
      </trkpt>
      <trkpt lat="58.49057" lon="-4.7241">
        <ele>30.88</ele>
        <time>2021-03-20T18:55:36Z</time>
      </trkpt>
      <trkpt lat="58.49027" lon="-4.72418">
        <ele>29.03</ele>
        <time>2021-03-20T18:55:39Z</time>
      </trkpt>
      <trkpt lat="58.49003" lon="-4.72449">
        <ele>29.24</ele>
        <time>2021-03-20T18:55:42Z</time>
      </trkpt>
      <trkpt lat="58.48972" lon="-4.72511">
        <ele>29.35</ele>
        <time>2021-03-20T18:55:44Z</time>
      </trkpt>
      <trkpt lat="58.48957" lon="-4.72536">
        <ele>29.2</ele>
        <time>2021-03-20T18:55:47Z</time>
      </trkpt>
      <trkpt lat="58.48945" lon="-4.7255">
        <ele>28.86</ele>
        <time>2021-03-20T18:55:50Z</time>
      </trkpt>
      <trkpt lat="58.4891" lon="-4.72579">
        <ele>29.41</ele>
        <time>2021-03-20T18:55:53Z</time>
      </trkpt>
      <trkpt lat="58.48879" lon="-4.72595">
        <ele>28.69</ele>
        <time>2021-03-20T18:55:55Z</time>
      </trkpt>
      <trkpt lat="58.48822" lon="-4.72601">
        <ele>26.62</ele>
        <time>2021-03-20T18:55:58Z</time>
      </trkpt>
      <trkpt lat="58.48806" lon="-4.72605">
        <ele>26.77</ele>
        <time>2021-03-20T18:56:01Z</time>
      </trkpt>
      <trkpt lat="58.48793" lon="-4.72613">
        <ele>26.69</ele>
        <time>2021-03-20T18:56:03Z</time>
      </trkpt>
      <trkpt lat="58.48748" lon="-4.72649">
        <ele>28.69</ele>
        <time>2021-03-20T18:56:06Z</time>
      </trkpt>
      <trkpt lat="58.4867" lon="-4.72674">
        <ele>28.56</ele>
        <time>2021-03-20T18:56:09Z</time>
      </trkpt>
      <trkpt lat="58.48652" lon="-4.72684">
        <ele>28.72</ele>
        <time>2021-03-20T18:56:12Z</time>
      </trkpt>
      <trkpt lat="58.48596" lon="-4.72725">
        <ele>27.66</ele>
        <time>2021-03-20T18:56:14Z</time>
      </trkpt>
      <trkpt lat="58.48577" lon="-4.72733">
        <ele>27.35</ele>
        <time>2021-03-20T18:56:17Z</time>
      </trkpt>
      <trkpt lat="58.48523" lon="-4.72744">
        <ele>25.36</ele>
        <time>2021-03-20T18:56:20Z</time>
      </trkpt>
      <trkpt lat="58.48503" lon="-4.72752">
        <ele>25.17</ele>
        <time>2021-03-20T18:56:23Z</time>
      </trkpt>
      <trkpt lat="58.48482" lon="-4.72771">
        <ele>24.44</ele>
        <time>2021-03-20T18:56:25Z</time>
      </trkpt>
      <trkpt lat="58.48459" lon="-4.72801">
        <ele>24.77</ele>
        <time>2021-03-20T18:56:28Z</time>
      </trkpt>
      <trkpt lat="58.48433" lon="-4.7284">
        <ele>24.05</ele>
        <time>2021-03-20T18:56:31Z</time>
      </trkpt>
      <trkpt lat="58.48385" lon="-4.7289">
        <ele>24.77</ele>
        <time>2021-03-20T18:56:33Z</time>
      </trkpt>
      <trkpt lat="58.48268" lon="-4.72978">
        <ele>24.34</ele>
        <time>2021-03-20T18:56:36Z</time>
      </trkpt>
      <trkpt lat="58.48194" lon="-4.73049">
        <ele>22.75</ele>
        <time>2021-03-20T18:56:39Z</time>
      </trkpt>
      <trkpt lat="58.48162" lon="-4.73074">
        <ele>23.31</ele>
        <time>2021-03-20T18:56:42Z</time>
      </trkpt>
      <trkpt lat="58.48135" lon="-4.73086">
        <ele>24.19</ele>
        <time>2021-03-20T18:56:44Z</time>
      </trkpt>
      <trkpt lat="58.48056" lon="-4.73113">
        <ele>24.17</ele>
        <time>2021-03-20T18:56:47Z</time>
      </trkpt>
      <trkpt lat="58.48027" lon="-4.73127">
        <ele>25.13</ele>
        <time>2021-03-20T18:56:50Z</time>
      </trkpt>
      <trkpt lat="58.47973" lon="-4.73174">
        <ele>26.52</ele>
        <time>2021-03-20T18:56:52Z</time>
      </trkpt>
      <trkpt lat="58.47957" lon="-4.73192">
        <ele>26.72</ele>
        <time>2021-03-20T18:56:55Z</time>
      </trkpt>
      <trkpt lat="58.47913" lon="-4.73258">
        <ele>28.3</ele>
        <time>2021-03-20T18:56:58Z</time>
      </trkpt>
      <trkpt lat="58.47891" lon="-4.73276">
        <ele>28.95</ele>
        <time>2021-03-20T18:57:01Z</time>
      </trkpt>
      <trkpt lat="58.47827" lon="-4.73311">
        <ele>28.74</ele>
        <time>2021-03-20T18:57:03Z</time>
      </trkpt>
      <trkpt lat="58.47806" lon="-4.73327">
        <ele>27.82</ele>
        <time>2021-03-20T18:57:06Z</time>
      </trkpt>
      <trkpt lat="58.47767" lon="-4.7337">
        <ele>27.95</ele>
        <time>2021-03-20T18:57:09Z</time>
      </trkpt>
      <trkpt lat="58.47731" lon="-4.73396">
        <ele>27.8</ele>
        <time>2021-03-20T18:57:11Z</time>
      </trkpt>
      <trkpt lat="58.47666" lon="-4.73435">
        <ele>27.61</ele>
        <time>2021-03-20T18:57:14Z</time>
      </trkpt>
      <trkpt lat="58.47558" lon="-4.73515">
        <ele>26.74</ele>
        <time>2021-03-20T18:57:17Z</time>
      </trkpt>
      <trkpt lat="58.47361" lon="-4.73654">
        <ele>25.53</ele>
        <time>2021-03-20T18:57:20Z</time>
      </trkpt>
      <trkpt lat="58.4733" lon="-4.73687">
        <ele>25.33</ele>
        <time>2021-03-20T18:57:22Z</time>
      </trkpt>
      <trkpt lat="58.473" lon="-4.73733">
        <ele>25.97</ele>
        <time>2021-03-20T18:57:25Z</time>
      </trkpt>
      <trkpt lat="58.47161" lon="-4.74023">
        <ele>26.43</ele>
        <time>2021-03-20T18:57:28Z</time>
      </trkpt>
      <trkpt lat="58.47137" lon="-4.74066">
        <ele>26.14</ele>
        <time>2021-03-20T18:57:31Z</time>
      </trkpt>
      <trkpt lat="58.47054" lon="-4.74161">
        <ele>25.65</ele>
        <time>2021-03-20T18:57:33Z</time>
      </trkpt>
      <trkpt lat="58.47032" lon="-4.74196">
        <ele>25.27</ele>
        <time>2021-03-20T18:57:36Z</time>
      </trkpt>
      <trkpt lat="58.46959" lon="-4.74356">
        <ele>27.34</ele>
        <time>2021-03-20T18:57:39Z</time>
      </trkpt>
      <trkpt lat="58.4694" lon="-4.74394">
        <ele>27.86</ele>
        <time>2021-03-20T18:57:41Z</time>
      </trkpt>
      <trkpt lat="58.46915" lon="-4.74422">
        <ele>27.09</ele>
        <time>2021-03-20T18:57:44Z</time>
      </trkpt>
      <trkpt lat="58.46832" lon="-4.74475">
        <ele>26.08</ele>
        <time>2021-03-20T18:57:47Z</time>
      </trkpt>
      <trkpt lat="58.46789" lon="-4.74508">
        <ele>25.32</ele>
        <time>2021-03-20T18:57:50Z</time>
      </trkpt>
      <trkpt lat="58.46759" lon="-4.74545">
        <ele>25.27</ele>
        <time>2021-03-20T18:57:52Z</time>
      </trkpt>
      <trkpt lat="58.46721" lon="-4.74611">
        <ele>24.91</ele>
        <time>2021-03-20T18:57:55Z</time>
      </trkpt>
      <trkpt lat="58.467" lon="-4.74632">
        <ele>24.9</ele>
        <time>2021-03-20T18:57:58Z</time>
      </trkpt>
      <trkpt lat="58.46551" lon="-4.74745">
        <ele>23.29</ele>
        <time>2021-03-20T18:58:00Z</time>
      </trkpt>
      <trkpt lat="58.46505" lon="-4.74796">
        <ele>22.72</ele>
        <time>2021-03-20T18:58:03Z</time>
      </trkpt>
      <trkpt lat="58.46495" lon="-4.7482">
        <ele>22.94</ele>
        <time>2021-03-20T18:58:06Z</time>
      </trkpt>
      <trkpt lat="58.46465" lon="-4.74905">
        <ele>22.99</ele>
        <time>2021-03-20T18:58:09Z</time>
      </trkpt>
      <trkpt lat="58.46438" lon="-4.74961">
        <ele>23.46</ele>
        <time>2021-03-20T18:58:11Z</time>
      </trkpt>
      <trkpt lat="58.46394" lon="-4.75034">
        <ele>22.95</ele>
        <time>2021-03-20T18:58:14Z</time>
      </trkpt>
      <trkpt lat="58.46359" lon="-4.75127">
        <ele>23.88</ele>
        <time>2021-03-20T18:58:17Z</time>
      </trkpt>
      <trkpt lat="58.4632" lon="-4.75188">
        <ele>21.68</ele>
        <time>2021-03-20T18:58:19Z</time>
      </trkpt>
      <trkpt lat="58.46307" lon="-4.75216">
        <ele>21.92</ele>
        <time>2021-03-20T18:58:22Z</time>
      </trkpt>
      <trkpt lat="58.46256" lon="-4.75357">
        <ele>21.26</ele>
        <time>2021-03-20T18:58:25Z</time>
      </trkpt>
      <trkpt lat="58.46225" lon="-4.75418">
        <ele>22.26</ele>
        <time>2021-03-20T18:58:28Z</time>
      </trkpt>
      <trkpt lat="58.46196" lon="-4.75465">
        <ele>22.58</ele>
        <time>2021-03-20T18:58:30Z</time>
      </trkpt>
      <trkpt lat="58.46167" lon="-4.75501">
        <ele>23.07</ele>
        <time>2021-03-20T18:58:33Z</time>
      </trkpt>
      <trkpt lat="58.46096" lon="-4.75575">
        <ele>23.45</ele>
        <time>2021-03-20T18:58:36Z</time>
      </trkpt>
      <trkpt lat="58.46038" lon="-4.75664">
        <ele>25.25</ele>
        <time>2021-03-20T18:58:39Z</time>
      </trkpt>
      <trkpt lat="58.46005" lon="-4.75709">
        <ele>26.39</ele>
        <time>2021-03-20T18:58:41Z</time>
      </trkpt>
      <trkpt lat="58.45975" lon="-4.75737">
        <ele>26.28</ele>
        <time>2021-03-20T18:58:44Z</time>
      </trkpt>
      <trkpt lat="58.4577" lon="-4.7588">
        <ele>24.04</ele>
        <time>2021-03-20T18:58:47Z</time>
      </trkpt>
      <trkpt lat="58.45682" lon="-4.75962">
        <ele>24.75</ele>
        <time>2021-03-20T18:58:49Z</time>
      </trkpt>
      <trkpt lat="58.45661" lon="-4.7597">
        <ele>23.7</ele>
        <time>2021-03-20T18:58:52Z</time>
      </trkpt>
      <trkpt lat="58.45643" lon="-4.75969">
        <ele>23.02</ele>
        <time>2021-03-20T18:58:55Z</time>
      </trkpt>
      <trkpt lat="58.45555" lon="-4.75938">
        <ele>18.97</ele>
        <time>2021-03-20T18:58:58Z</time>
      </trkpt>
      <trkpt lat="58.45524" lon="-4.75933">
        <ele>17.88</ele>
        <time>2021-03-20T18:59:00Z</time>
      </trkpt>
      <trkpt lat="58.45484" lon="-4.75939">
        <ele>16.41</ele>
        <time>2021-03-20T18:59:03Z</time>
      </trkpt>
      <trkpt lat="58.45459" lon="-4.75933">
        <ele>15.23</ele>
        <time>2021-03-20T18:59:06Z</time>
      </trkpt>
      <trkpt lat="58.45327" lon="-4.75884">
        <ele>12.18</ele>
        <time>2021-03-20T18:59:08Z</time>
      </trkpt>
      <trkpt lat="58.45305" lon="-4.75881">
        <ele>12.29</ele>
        <time>2021-03-20T18:59:11Z</time>
      </trkpt>
      <trkpt lat="58.4527" lon="-4.75891">
        <ele>11.64</ele>
        <time>2021-03-20T18:59:14Z</time>
      </trkpt>
      <trkpt lat="58.45199" lon="-4.7592">
        <ele>9.98</ele>
        <time>2021-03-20T18:59:17Z</time>
      </trkpt>
      <trkpt lat="58.45156" lon="-4.7594">
        <ele>8.4</ele>
        <time>2021-03-20T18:59:19Z</time>
      </trkpt>
      <trkpt lat="58.45121" lon="-4.75966">
        <ele>6.36</ele>
        <time>2021-03-20T18:59:22Z</time>
      </trkpt>
      <trkpt lat="58.44998" lon="-4.76101">
        <ele>7.47</ele>
        <time>2021-03-20T18:59:25Z</time>
      </trkpt>
      <trkpt lat="58.44937" lon="-4.76206">
        <ele>8.3</ele>
        <time>2021-03-20T18:59:27Z</time>
      </trkpt>
      <trkpt lat="58.44919" lon="-4.76224">
        <ele>8.17</ele>
        <time>2021-03-20T18:59:30Z</time>
      </trkpt>
      <trkpt lat="58.449" lon="-4.76233">
        <ele>8.99</ele>
        <time>2021-03-20T18:59:33Z</time>
      </trkpt>
      <trkpt lat="58.44878" lon="-4.76233">
        <ele>10.04</ele>
        <time>2021-03-20T18:59:36Z</time>
      </trkpt>
      <trkpt lat="58.44858" lon="-4.76221">
        <ele>11</ele>
        <time>2021-03-20T18:59:38Z</time>
      </trkpt>
      <trkpt lat="58.44836" lon="-4.76198">
        <ele>11</ele>
        <time>2021-03-20T18:59:41Z</time>
      </trkpt>
      <trkpt lat="58.4482" lon="-4.76163">
        <ele>12</ele>
        <time>2021-03-20T18:59:44Z</time>
      </trkpt>
      <trkpt lat="58.4481" lon="-4.76127">
        <ele>12.36</ele>
        <time>2021-03-20T18:59:47Z</time>
      </trkpt>
      <trkpt lat="58.44772" lon="-4.75877">
        <ele>13</ele>
        <time>2021-03-20T18:59:49Z</time>
      </trkpt>
      <trkpt lat="58.44764" lon="-4.75845">
        <ele>13.6</ele>
        <time>2021-03-20T18:59:52Z</time>
      </trkpt>
      <trkpt lat="58.44749" lon="-4.75812">
        <ele>13.96</ele>
        <time>2021-03-20T18:59:55Z</time>
      </trkpt>
      <trkpt lat="58.44725" lon="-4.75778">
        <ele>14.11</ele>
        <time>2021-03-20T18:59:57Z</time>
      </trkpt>
      <trkpt lat="58.44602" lon="-4.75577">
        <ele>10.11</ele>
        <time>2021-03-20T19:00:00Z</time>
      </trkpt>
      <trkpt lat="58.44591" lon="-4.75563">
        <ele>9.99</ele>
        <time>2021-03-20T19:00:03Z</time>
      </trkpt>
      <trkpt lat="58.44421" lon="-4.75413">
        <ele>12.84</ele>
        <time>2021-03-20T19:00:06Z</time>
      </trkpt>
      <trkpt lat="58.44409" lon="-4.75395">
        <ele>13.35</ele>
        <time>2021-03-20T19:00:08Z</time>
      </trkpt>
      <trkpt lat="58.44399" lon="-4.75371">
        <ele>13.64</ele>
        <time>2021-03-20T19:00:11Z</time>
      </trkpt>
      <trkpt lat="58.44391" lon="-4.75341">
        <ele>14.62</ele>
        <time>2021-03-20T19:00:14Z</time>
      </trkpt>
      <trkpt lat="58.44385" lon="-4.7529">
        <ele>16.25</ele>
        <time>2021-03-20T19:00:16Z</time>
      </trkpt>
      <trkpt lat="58.44386" lon="-4.75251">
        <ele>17.69</ele>
        <time>2021-03-20T19:00:19Z</time>
      </trkpt>
      <trkpt lat="58.44486" lon="-4.74538">
        <ele>14.04</ele>
        <time>2021-03-20T19:00:22Z</time>
      </trkpt>
      <trkpt lat="58.4449" lon="-4.74484">
        <ele>13.72</ele>
        <time>2021-03-20T19:00:25Z</time>
      </trkpt>
      <trkpt lat="58.44483" lon="-4.74259">
        <ele>12.43</ele>
        <time>2021-03-20T19:00:27Z</time>
      </trkpt>
      <trkpt lat="58.44482" lon="-4.74195">
        <ele>10.65</ele>
        <time>2021-03-20T19:00:30Z</time>
      </trkpt>
      <trkpt lat="58.4449" lon="-4.73978">
        <ele>6.69</ele>
        <time>2021-03-20T19:00:33Z</time>
      </trkpt>
      <trkpt lat="58.44501" lon="-4.73908">
        <ele>4.96</ele>
        <time>2021-03-20T19:00:35Z</time>
      </trkpt>
      <trkpt lat="58.44515" lon="-4.73852">
        <ele>4.71</ele>
        <time>2021-03-20T19:00:38Z</time>
      </trkpt>
      <trkpt lat="58.44532" lon="-4.73805">
        <ele>4.72</ele>
        <time>2021-03-20T19:00:41Z</time>
      </trkpt>
      <trkpt lat="58.44555" lon="-4.73761">
        <ele>4.63</ele>
        <time>2021-03-20T19:00:44Z</time>
      </trkpt>
      <trkpt lat="58.44671" lon="-4.73588">
        <ele>9.04</ele>
        <time>2021-03-20T19:00:46Z</time>
      </trkpt>
      <trkpt lat="58.44724" lon="-4.73529">
        <ele>13.34</ele>
        <time>2021-03-20T19:00:49Z</time>
      </trkpt>
      <trkpt lat="58.44766" lon="-4.73492">
        <ele>12.22</ele>
        <time>2021-03-20T19:00:52Z</time>
      </trkpt>
      <trkpt lat="58.45016" lon="-4.73306">
        <ele>10.09</ele>
        <time>2021-03-20T19:00:55Z</time>
      </trkpt>
      <trkpt lat="58.45068" lon="-4.73278">
        <ele>9.01</ele>
        <time>2021-03-20T19:00:57Z</time>
      </trkpt>
      <trkpt lat="58.45082" lon="-4.73265">
        <ele>9.51</ele>
        <time>2021-03-20T19:01:00Z</time>
      </trkpt>
      <trkpt lat="58.45103" lon="-4.73237">
        <ele>7.95</ele>
        <time>2021-03-20T19:01:03Z</time>
      </trkpt>
      <trkpt lat="58.45161" lon="-4.7314">
        <ele>7.74</ele>
        <time>2021-03-20T19:01:05Z</time>
      </trkpt>
      <trkpt lat="58.45181" lon="-4.73115">
        <ele>8.42</ele>
        <time>2021-03-20T19:01:08Z</time>
      </trkpt>
      <trkpt lat="58.45308" lon="-4.73009">
        <ele>7.72</ele>
        <time>2021-03-20T19:01:11Z</time>
      </trkpt>
      <trkpt lat="58.45328" lon="-4.7298">
        <ele>7.96</ele>
        <time>2021-03-20T19:01:14Z</time>
      </trkpt>
      <trkpt lat="58.45354" lon="-4.72932">
        <ele>9.14</ele>
        <time>2021-03-20T19:01:16Z</time>
      </trkpt>
      <trkpt lat="58.45379" lon="-4.72896">
        <ele>9.28</ele>
        <time>2021-03-20T19:01:19Z</time>
      </trkpt>
      <trkpt lat="58.45406" lon="-4.72865">
        <ele>8.48</ele>
        <time>2021-03-20T19:01:22Z</time>
      </trkpt>
      <trkpt lat="58.45444" lon="-4.72831">
        <ele>7.47</ele>
        <time>2021-03-20T19:01:24Z</time>
      </trkpt>
      <trkpt lat="58.45473" lon="-4.728">
        <ele>7.76</ele>
        <time>2021-03-20T19:01:27Z</time>
      </trkpt>
      <trkpt lat="58.45556" lon="-4.72692">
        <ele>10.26</ele>
        <time>2021-03-20T19:01:30Z</time>
      </trkpt>
      <trkpt lat="58.45568" lon="-4.72679">
        <ele>10.58</ele>
        <time>2021-03-20T19:01:33Z</time>
      </trkpt>
      <trkpt lat="58.45609" lon="-4.72649">
        <ele>9.76</ele>
        <time>2021-03-20T19:01:35Z</time>
      </trkpt>
      <trkpt lat="58.45639" lon="-4.72633">
        <ele>8.77</ele>
        <time>2021-03-20T19:01:38Z</time>
      </trkpt>
      <trkpt lat="58.45673" lon="-4.72622">
        <ele>7.49</ele>
        <time>2021-03-20T19:01:41Z</time>
      </trkpt>
      <trkpt lat="58.45689" lon="-4.72608">
        <ele>7.58</ele>
        <time>2021-03-20T19:01:43Z</time>
      </trkpt>
      <trkpt lat="58.45697" lon="-4.72583">
        <ele>8.8</ele>
        <time>2021-03-20T19:01:46Z</time>
      </trkpt>
      <trkpt lat="58.457" lon="-4.72552">
        <ele>10.36</ele>
        <time>2021-03-20T19:01:49Z</time>
      </trkpt>
      <trkpt lat="58.457" lon="-4.72523">
        <ele>10.47</ele>
        <time>2021-03-20T19:01:52Z</time>
      </trkpt>
      <trkpt lat="58.45693" lon="-4.72496">
        <ele>11.19</ele>
        <time>2021-03-20T19:01:54Z</time>
      </trkpt>
      <trkpt lat="58.45677" lon="-4.7246">
        <ele>12.61</ele>
        <time>2021-03-20T19:01:57Z</time>
      </trkpt>
      <trkpt lat="58.45614" lon="-4.72347">
        <ele>12.43</ele>
        <time>2021-03-20T19:02:00Z</time>
      </trkpt>
      <trkpt lat="58.45586" lon="-4.72289">
        <ele>13.25</ele>
        <time>2021-03-20T19:02:03Z</time>
      </trkpt>
      <trkpt lat="58.45575" lon="-4.72251">
        <ele>13.31</ele>
        <time>2021-03-20T19:02:05Z</time>
      </trkpt>
      <trkpt lat="58.45565" lon="-4.72207">
        <ele>12.67</ele>
        <time>2021-03-20T19:02:08Z</time>
      </trkpt>
      <trkpt lat="58.45561" lon="-4.72164">
        <ele>13</ele>
        <time>2021-03-20T19:02:11Z</time>
      </trkpt>
      <trkpt lat="58.45563" lon="-4.72104">
        <ele>14.19</ele>
        <time>2021-03-20T19:02:13Z</time>
      </trkpt>
      <trkpt lat="58.4557" lon="-4.72046">
        <ele>16.27</ele>
        <time>2021-03-20T19:02:16Z</time>
      </trkpt>
      <trkpt lat="58.45598" lon="-4.71954">
        <ele>20.8</ele>
        <time>2021-03-20T19:02:19Z</time>
      </trkpt>
      <trkpt lat="58.45668" lon="-4.71748">
        <ele>27.99</ele>
        <time>2021-03-20T19:02:22Z</time>
      </trkpt>
      <trkpt lat="58.45684" lon="-4.71694">
        <ele>29.18</ele>
        <time>2021-03-20T19:02:24Z</time>
      </trkpt>
      <trkpt lat="58.45701" lon="-4.71616">
        <ele>30.37</ele>
        <time>2021-03-20T19:02:27Z</time>
      </trkpt>
      <trkpt lat="58.45754" lon="-4.7127">
        <ele>34.55</ele>
        <time>2021-03-20T19:02:30Z</time>
      </trkpt>
      <trkpt lat="58.45754" lon="-4.7123">
        <ele>35.1</ele>
        <time>2021-03-20T19:02:32Z</time>
      </trkpt>
      <trkpt lat="58.45749" lon="-4.71193">
        <ele>36.06</ele>
        <time>2021-03-20T19:02:35Z</time>
      </trkpt>
      <trkpt lat="58.45737" lon="-4.71153">
        <ele>37.01</ele>
        <time>2021-03-20T19:02:38Z</time>
      </trkpt>
      <trkpt lat="58.45732" lon="-4.71117">
        <ele>37.03</ele>
        <time>2021-03-20T19:02:41Z</time>
      </trkpt>
      <trkpt lat="58.45731" lon="-4.71092">
        <ele>37.03</ele>
        <time>2021-03-20T19:02:43Z</time>
      </trkpt>
      <trkpt lat="58.45734" lon="-4.71059">
        <ele>36.85</ele>
        <time>2021-03-20T19:02:46Z</time>
      </trkpt>
      <trkpt lat="58.45753" lon="-4.70962">
        <ele>37.26</ele>
        <time>2021-03-20T19:02:49Z</time>
      </trkpt>
      <trkpt lat="58.45785" lon="-4.70853">
        <ele>35.69</ele>
        <time>2021-03-20T19:02:51Z</time>
      </trkpt>
      <trkpt lat="58.45802" lon="-4.70811">
        <ele>35.13</ele>
        <time>2021-03-20T19:02:54Z</time>
      </trkpt>
      <trkpt lat="58.45819" lon="-4.7078">
        <ele>35.43</ele>
        <time>2021-03-20T19:02:57Z</time>
      </trkpt>
      <trkpt lat="58.45835" lon="-4.70761">
        <ele>36.1</ele>
        <time>2021-03-20T19:03:00Z</time>
      </trkpt>
      <trkpt lat="58.45865" lon="-4.70742">
        <ele>36.85</ele>
        <time>2021-03-20T19:03:02Z</time>
      </trkpt>
      <trkpt lat="58.45913" lon="-4.70729">
        <ele>36.66</ele>
        <time>2021-03-20T19:03:05Z</time>
      </trkpt>
      <trkpt lat="58.45934" lon="-4.70719">
        <ele>36.57</ele>
        <time>2021-03-20T19:03:08Z</time>
      </trkpt>
      <trkpt lat="58.45949" lon="-4.70703">
        <ele>36.28</ele>
        <time>2021-03-20T19:03:11Z</time>
      </trkpt>
      <trkpt lat="58.45962" lon="-4.70679">
        <ele>35.83</ele>
        <time>2021-03-20T19:03:13Z</time>
      </trkpt>
      <trkpt lat="58.45995" lon="-4.70591">
        <ele>36.97</ele>
        <time>2021-03-20T19:03:16Z</time>
      </trkpt>
      <trkpt lat="58.46008" lon="-4.70571">
        <ele>37.34</ele>
        <time>2021-03-20T19:03:19Z</time>
      </trkpt>
      <trkpt lat="58.46062" lon="-4.70508">
        <ele>35.69</ele>
        <time>2021-03-20T19:03:21Z</time>
      </trkpt>
      <trkpt lat="58.46076" lon="-4.70486">
        <ele>35.28</ele>
        <time>2021-03-20T19:03:24Z</time>
      </trkpt>
      <trkpt lat="58.46087" lon="-4.70464">
        <ele>34.94</ele>
        <time>2021-03-20T19:03:27Z</time>
      </trkpt>
      <trkpt lat="58.46114" lon="-4.70359">
        <ele>33.85</ele>
        <time>2021-03-20T19:03:30Z</time>
      </trkpt>
      <trkpt lat="58.46126" lon="-4.7033">
        <ele>34.03</ele>
        <time>2021-03-20T19:03:32Z</time>
      </trkpt>
      <trkpt lat="58.46142" lon="-4.70308">
        <ele>33.9</ele>
        <time>2021-03-20T19:03:35Z</time>
      </trkpt>
      <trkpt lat="58.46162" lon="-4.70291">
        <ele>35.04</ele>
        <time>2021-03-20T19:03:38Z</time>
      </trkpt>
      <trkpt lat="58.4619" lon="-4.70285">
        <ele>34.66</ele>
        <time>2021-03-20T19:03:40Z</time>
      </trkpt>
      <trkpt lat="58.46216" lon="-4.70273">
        <ele>34.61</ele>
        <time>2021-03-20T19:03:43Z</time>
      </trkpt>
      <trkpt lat="58.46237" lon="-4.7025">
        <ele>34.4</ele>
        <time>2021-03-20T19:03:46Z</time>
      </trkpt>
      <trkpt lat="58.46279" lon="-4.70185">
        <ele>33.42</ele>
        <time>2021-03-20T19:03:49Z</time>
      </trkpt>
      <trkpt lat="58.46293" lon="-4.70148">
        <ele>33.82</ele>
        <time>2021-03-20T19:03:51Z</time>
      </trkpt>
      <trkpt lat="58.4631" lon="-4.70073">
        <ele>35.37</ele>
        <time>2021-03-20T19:03:54Z</time>
      </trkpt>
      <trkpt lat="58.46313" lon="-4.7003">
        <ele>36</ele>
        <time>2021-03-20T19:03:57Z</time>
      </trkpt>
      <trkpt lat="58.46311" lon="-4.69995">
        <ele>34.82</ele>
        <time>2021-03-20T19:03:59Z</time>
      </trkpt>
      <trkpt lat="58.46302" lon="-4.69932">
        <ele>33.55</ele>
        <time>2021-03-20T19:04:02Z</time>
      </trkpt>
      <trkpt lat="58.46303" lon="-4.69906">
        <ele>33.28</ele>
        <time>2021-03-20T19:04:05Z</time>
      </trkpt>
      <trkpt lat="58.46315" lon="-4.69833">
        <ele>33.34</ele>
        <time>2021-03-20T19:04:08Z</time>
      </trkpt>
      <trkpt lat="58.46328" lon="-4.69777">
        <ele>35.22</ele>
        <time>2021-03-20T19:04:10Z</time>
      </trkpt>
      <trkpt lat="58.46339" lon="-4.69747">
        <ele>36.01</ele>
        <time>2021-03-20T19:04:13Z</time>
      </trkpt>
      <trkpt lat="58.46353" lon="-4.69723">
        <ele>37.22</ele>
        <time>2021-03-20T19:04:16Z</time>
      </trkpt>
      <trkpt lat="58.4637" lon="-4.6971">
        <ele>38.16</ele>
        <time>2021-03-20T19:04:19Z</time>
      </trkpt>
      <trkpt lat="58.46402" lon="-4.69701">
        <ele>40.49</ele>
        <time>2021-03-20T19:04:21Z</time>
      </trkpt>
      <trkpt lat="58.46529" lon="-4.69696">
        <ele>51.94</ele>
        <time>2021-03-20T19:04:24Z</time>
      </trkpt>
      <trkpt lat="58.46545" lon="-4.69692">
        <ele>53.49</ele>
        <time>2021-03-20T19:04:27Z</time>
      </trkpt>
      <trkpt lat="58.4656" lon="-4.69683">
        <ele>55.41</ele>
        <time>2021-03-20T19:04:29Z</time>
      </trkpt>
      <trkpt lat="58.46577" lon="-4.6966">
        <ele>58.25</ele>
        <time>2021-03-20T19:04:32Z</time>
      </trkpt>
      <trkpt lat="58.46596" lon="-4.69621">
        <ele>61.02</ele>
        <time>2021-03-20T19:04:35Z</time>
      </trkpt>
      <trkpt lat="58.46642" lon="-4.69477">
        <ele>69.47</ele>
        <time>2021-03-20T19:04:38Z</time>
      </trkpt>
      <trkpt lat="58.46656" lon="-4.69412">
        <ele>71.9</ele>
        <time>2021-03-20T19:04:40Z</time>
      </trkpt>
      <trkpt lat="58.46662" lon="-4.69359">
        <ele>72.42</ele>
        <time>2021-03-20T19:04:43Z</time>
      </trkpt>
      <trkpt lat="58.46663" lon="-4.69311">
        <ele>73.24</ele>
        <time>2021-03-20T19:04:46Z</time>
      </trkpt>
      <trkpt lat="58.46653" lon="-4.69087">
        <ele>69.52</ele>
        <time>2021-03-20T19:04:48Z</time>
      </trkpt>
      <trkpt lat="58.46659" lon="-4.69003">
        <ele>66.68</ele>
        <time>2021-03-20T19:04:51Z</time>
      </trkpt>
      <trkpt lat="58.46674" lon="-4.68954">
        <ele>64.08</ele>
        <time>2021-03-20T19:04:54Z</time>
      </trkpt>
      <trkpt lat="58.4674" lon="-4.68779">
        <ele>59.4</ele>
        <time>2021-03-20T19:04:57Z</time>
      </trkpt>
      <trkpt lat="58.46794" lon="-4.68626">
        <ele>52.88</ele>
        <time>2021-03-20T19:04:59Z</time>
      </trkpt>
      <trkpt lat="58.46823" lon="-4.68572">
        <ele>50.3</ele>
        <time>2021-03-20T19:05:02Z</time>
      </trkpt>
      <trkpt lat="58.46884" lon="-4.68467">
        <ele>48.48</ele>
        <time>2021-03-20T19:05:05Z</time>
      </trkpt>
      <trkpt lat="58.46929" lon="-4.68402">
        <ele>47.12</ele>
        <time>2021-03-20T19:05:07Z</time>
      </trkpt>
      <trkpt lat="58.46979" lon="-4.6835">
        <ele>46.33</ele>
        <time>2021-03-20T19:05:10Z</time>
      </trkpt>
      <trkpt lat="58.4704" lon="-4.68274">
        <ele>46.89</ele>
        <time>2021-03-20T19:05:13Z</time>
      </trkpt>
      <trkpt lat="58.47057" lon="-4.68249">
        <ele>46.77</ele>
        <time>2021-03-20T19:05:16Z</time>
      </trkpt>
      <trkpt lat="58.47074" lon="-4.68214">
        <ele>47.81</ele>
        <time>2021-03-20T19:05:18Z</time>
      </trkpt>
      <trkpt lat="58.47102" lon="-4.68166">
        <ele>50.74</ele>
        <time>2021-03-20T19:05:21Z</time>
      </trkpt>
      <trkpt lat="58.47123" lon="-4.68148">
        <ele>51.5</ele>
        <time>2021-03-20T19:05:24Z</time>
      </trkpt>
      <trkpt lat="58.47153" lon="-4.68139">
        <ele>51.99</ele>
        <time>2021-03-20T19:05:27Z</time>
      </trkpt>
      <trkpt lat="58.47174" lon="-4.68142">
        <ele>51.17</ele>
        <time>2021-03-20T19:05:29Z</time>
      </trkpt>
      <trkpt lat="58.47266" lon="-4.68191">
        <ele>47.94</ele>
        <time>2021-03-20T19:05:32Z</time>
      </trkpt>
      <trkpt lat="58.47284" lon="-4.68193">
        <ele>48.15</ele>
        <time>2021-03-20T19:05:35Z</time>
      </trkpt>
      <trkpt lat="58.47303" lon="-4.68189">
        <ele>48.44</ele>
        <time>2021-03-20T19:05:37Z</time>
      </trkpt>
      <trkpt lat="58.4733" lon="-4.68164">
        <ele>49.45</ele>
        <time>2021-03-20T19:05:40Z</time>
      </trkpt>
      <trkpt lat="58.47408" lon="-4.6808">
        <ele>49.58</ele>
        <time>2021-03-20T19:05:43Z</time>
      </trkpt>
      <trkpt lat="58.47427" lon="-4.68073">
        <ele>49.99</ele>
        <time>2021-03-20T19:05:46Z</time>
      </trkpt>
      <trkpt lat="58.47447" lon="-4.68072">
        <ele>50.39</ele>
        <time>2021-03-20T19:05:48Z</time>
      </trkpt>
      <trkpt lat="58.47512" lon="-4.68087">
        <ele>50.85</ele>
        <time>2021-03-20T19:05:51Z</time>
      </trkpt>
      <trkpt lat="58.47531" lon="-4.68081">
        <ele>52.01</ele>
        <time>2021-03-20T19:05:54Z</time>
      </trkpt>
      <trkpt lat="58.47557" lon="-4.68057">
        <ele>52.87</ele>
        <time>2021-03-20T19:05:56Z</time>
      </trkpt>
      <trkpt lat="58.47592" lon="-4.68017">
        <ele>52.89</ele>
        <time>2021-03-20T19:05:59Z</time>
      </trkpt>
      <trkpt lat="58.47619" lon="-4.67977">
        <ele>53.24</ele>
        <time>2021-03-20T19:06:02Z</time>
      </trkpt>
      <trkpt lat="58.47638" lon="-4.67943">
        <ele>54.13</ele>
        <time>2021-03-20T19:06:05Z</time>
      </trkpt>
      <trkpt lat="58.47658" lon="-4.67892">
        <ele>53.11</ele>
        <time>2021-03-20T19:06:07Z</time>
      </trkpt>
      <trkpt lat="58.47681" lon="-4.67819">
        <ele>53.44</ele>
        <time>2021-03-20T19:06:10Z</time>
      </trkpt>
      <trkpt lat="58.47695" lon="-4.6778">
        <ele>53.69</ele>
        <time>2021-03-20T19:06:13Z</time>
      </trkpt>
      <trkpt lat="58.47709" lon="-4.67753">
        <ele>53.68</ele>
        <time>2021-03-20T19:06:15Z</time>
      </trkpt>
      <trkpt lat="58.4782" lon="-4.67625">
        <ele>53.66</ele>
        <time>2021-03-20T19:06:18Z</time>
      </trkpt>
      <trkpt lat="58.47843" lon="-4.67604">
        <ele>54.47</ele>
        <time>2021-03-20T19:06:21Z</time>
      </trkpt>
      <trkpt lat="58.47874" lon="-4.67596">
        <ele>54.53</ele>
        <time>2021-03-20T19:06:24Z</time>
      </trkpt>
      <trkpt lat="58.47957" lon="-4.67609">
        <ele>53.21</ele>
        <time>2021-03-20T19:06:26Z</time>
      </trkpt>
      <trkpt lat="58.47975" lon="-4.67609">
        <ele>54.13</ele>
        <time>2021-03-20T19:06:29Z</time>
      </trkpt>
      <trkpt lat="58.47999" lon="-4.67599">
        <ele>54.35</ele>
        <time>2021-03-20T19:06:32Z</time>
      </trkpt>
      <trkpt lat="58.4809" lon="-4.67543">
        <ele>52.58</ele>
        <time>2021-03-20T19:06:35Z</time>
      </trkpt>
      <trkpt lat="58.48151" lon="-4.67492">
        <ele>54.86</ele>
        <time>2021-03-20T19:06:37Z</time>
      </trkpt>
      <trkpt lat="58.48195" lon="-4.67451">
        <ele>54.47</ele>
        <time>2021-03-20T19:06:40Z</time>
      </trkpt>
      <trkpt lat="58.48222" lon="-4.67415">
        <ele>49.19</ele>
        <time>2021-03-20T19:06:43Z</time>
      </trkpt>
      <trkpt lat="58.48238" lon="-4.67387">
        <ele>47.63</ele>
        <time>2021-03-20T19:06:45Z</time>
      </trkpt>
      <trkpt lat="58.48256" lon="-4.67338">
        <ele>45.8</ele>
        <time>2021-03-20T19:06:48Z</time>
      </trkpt>
      <trkpt lat="58.48267" lon="-4.67282">
        <ele>44.27</ele>
        <time>2021-03-20T19:06:51Z</time>
      </trkpt>
      <trkpt lat="58.48267" lon="-4.67234">
        <ele>42.24</ele>
        <time>2021-03-20T19:06:54Z</time>
      </trkpt>
      <trkpt lat="58.48261" lon="-4.6719">
        <ele>38.66</ele>
        <time>2021-03-20T19:06:56Z</time>
      </trkpt>
      <trkpt lat="58.48227" lon="-4.6702">
        <ele>31.8</ele>
        <time>2021-03-20T19:06:59Z</time>
      </trkpt>
      <trkpt lat="58.48215" lon="-4.66988">
        <ele>30.11</ele>
        <time>2021-03-20T19:07:02Z</time>
      </trkpt>
      <trkpt lat="58.4817" lon="-4.66921">
        <ele>28.18</ele>
        <time>2021-03-20T19:07:04Z</time>
      </trkpt>
      <trkpt lat="58.48157" lon="-4.66892">
        <ele>26.45</ele>
        <time>2021-03-20T19:07:07Z</time>
      </trkpt>
      <trkpt lat="58.48147" lon="-4.66854">
        <ele>25.78</ele>
        <time>2021-03-20T19:07:10Z</time>
      </trkpt>
      <trkpt lat="58.48115" lon="-4.66637">
        <ele>24.71</ele>
        <time>2021-03-20T19:07:13Z</time>
      </trkpt>
      <trkpt lat="58.48112" lon="-4.66587">
        <ele>25.38</ele>
        <time>2021-03-20T19:07:15Z</time>
      </trkpt>
      <trkpt lat="58.48114" lon="-4.66542">
        <ele>26.55</ele>
        <time>2021-03-20T19:07:18Z</time>
      </trkpt>
      <trkpt lat="58.48121" lon="-4.66514">
        <ele>26.06</ele>
        <time>2021-03-20T19:07:21Z</time>
      </trkpt>
      <trkpt lat="58.48138" lon="-4.66488">
        <ele>23.18</ele>
        <time>2021-03-20T19:07:23Z</time>
      </trkpt>
      <trkpt lat="58.4816" lon="-4.6647">
        <ele>20.43</ele>
        <time>2021-03-20T19:07:26Z</time>
      </trkpt>
      <trkpt lat="58.48185" lon="-4.66456">
        <ele>15.78</ele>
        <time>2021-03-20T19:07:29Z</time>
      </trkpt>
      <trkpt lat="58.482" lon="-4.6643">
        <ele>16.4</ele>
        <time>2021-03-20T19:07:32Z</time>
      </trkpt>
      <trkpt lat="58.48213" lon="-4.66394">
        <ele>19.55</ele>
        <time>2021-03-20T19:07:34Z</time>
      </trkpt>
      <trkpt lat="58.48227" lon="-4.66368">
        <ele>20.36</ele>
        <time>2021-03-20T19:07:37Z</time>
      </trkpt>
      <trkpt lat="58.48321" lon="-4.66248">
        <ele>18.42</ele>
        <time>2021-03-20T19:07:40Z</time>
      </trkpt>
      <trkpt lat="58.48351" lon="-4.66213">
        <ele>17.15</ele>
        <time>2021-03-20T19:07:43Z</time>
      </trkpt>
      <trkpt lat="58.48435" lon="-4.66133">
        <ele>14.87</ele>
        <time>2021-03-20T19:07:45Z</time>
      </trkpt>
      <trkpt lat="58.48481" lon="-4.66096">
        <ele>14.88</ele>
        <time>2021-03-20T19:07:48Z</time>
      </trkpt>
      <trkpt lat="58.48543" lon="-4.66064">
        <ele>14.84</ele>
        <time>2021-03-20T19:07:51Z</time>
      </trkpt>
      <trkpt lat="58.48574" lon="-4.66051">
        <ele>15.64</ele>
        <time>2021-03-20T19:07:53Z</time>
      </trkpt>
      <trkpt lat="58.48594" lon="-4.66053">
        <ele>15.73</ele>
        <time>2021-03-20T19:07:56Z</time>
      </trkpt>
      <trkpt lat="58.48621" lon="-4.66068">
        <ele>15.24</ele>
        <time>2021-03-20T19:07:59Z</time>
      </trkpt>
      <trkpt lat="58.48651" lon="-4.66094">
        <ele>13.14</ele>
        <time>2021-03-20T19:08:02Z</time>
      </trkpt>
      <trkpt lat="58.48674" lon="-4.66104">
        <ele>12.06</ele>
        <time>2021-03-20T19:08:04Z</time>
      </trkpt>
      <trkpt lat="58.48696" lon="-4.6611">
        <ele>11.12</ele>
        <time>2021-03-20T19:08:07Z</time>
      </trkpt>
      <trkpt lat="58.48741" lon="-4.6611">
        <ele>10.82</ele>
        <time>2021-03-20T19:08:10Z</time>
      </trkpt>
      <trkpt lat="58.48755" lon="-4.66113">
        <ele>11.02</ele>
        <time>2021-03-20T19:08:12Z</time>
      </trkpt>
      <trkpt lat="58.48839" lon="-4.66149">
        <ele>11.78</ele>
        <time>2021-03-20T19:08:15Z</time>
      </trkpt>
      <trkpt lat="58.48887" lon="-4.66163">
        <ele>11.64</ele>
        <time>2021-03-20T19:08:18Z</time>
      </trkpt>
      <trkpt lat="58.48938" lon="-4.66189">
        <ele>11.22</ele>
        <time>2021-03-20T19:08:21Z</time>
      </trkpt>
      <trkpt lat="58.4905" lon="-4.66223">
        <ele>13.9</ele>
        <time>2021-03-20T19:08:23Z</time>
      </trkpt>
      <trkpt lat="58.49078" lon="-4.66225">
        <ele>13.43</ele>
        <time>2021-03-20T19:08:26Z</time>
      </trkpt>
      <trkpt lat="58.49182" lon="-4.66189">
        <ele>13.63</ele>
        <time>2021-03-20T19:08:29Z</time>
      </trkpt>
      <trkpt lat="58.49328" lon="-4.66108">
        <ele>16.24</ele>
        <time>2021-03-20T19:08:31Z</time>
      </trkpt>
      <trkpt lat="58.4946" lon="-4.66045">
        <ele>17.44</ele>
        <time>2021-03-20T19:08:34Z</time>
      </trkpt>
      <trkpt lat="58.49529" lon="-4.66003">
        <ele>21.27</ele>
        <time>2021-03-20T19:08:37Z</time>
      </trkpt>
      <trkpt lat="58.49568" lon="-4.65967">
        <ele>23.02</ele>
        <time>2021-03-20T19:08:40Z</time>
      </trkpt>
      <trkpt lat="58.49644" lon="-4.65887">
        <ele>29.98</ele>
        <time>2021-03-20T19:08:42Z</time>
      </trkpt>
      <trkpt lat="58.49727" lon="-4.65809">
        <ele>39.17</ele>
        <time>2021-03-20T19:08:45Z</time>
      </trkpt>
      <trkpt lat="58.49756" lon="-4.65788">
        <ele>42.46</ele>
        <time>2021-03-20T19:08:48Z</time>
      </trkpt>
      <trkpt lat="58.49799" lon="-4.65775">
        <ele>47.73</ele>
        <time>2021-03-20T19:08:51Z</time>
      </trkpt>
      <trkpt lat="58.49819" lon="-4.65778">
        <ele>49.97</ele>
        <time>2021-03-20T19:08:53Z</time>
      </trkpt>
      <trkpt lat="58.49911" lon="-4.65813">
        <ele>57.69</ele>
        <time>2021-03-20T19:08:56Z</time>
      </trkpt>
      <trkpt lat="58.49945" lon="-4.65816">
        <ele>60.25</ele>
        <time>2021-03-20T19:08:59Z</time>
      </trkpt>
      <trkpt lat="58.49977" lon="-4.65805">
        <ele>63.21</ele>
        <time>2021-03-20T19:09:01Z</time>
      </trkpt>
      <trkpt lat="58.50006" lon="-4.65782">
        <ele>66.98</ele>
        <time>2021-03-20T19:09:04Z</time>
      </trkpt>
      <trkpt lat="58.5036" lon="-4.65429">
        <ele>89.48</ele>
        <time>2021-03-20T19:09:07Z</time>
      </trkpt>
      <trkpt lat="58.50376" lon="-4.65407">
        <ele>87.73</ele>
        <time>2021-03-20T19:09:10Z</time>
      </trkpt>
      <trkpt lat="58.50386" lon="-4.65384">
        <ele>85.77</ele>
        <time>2021-03-20T19:09:12Z</time>
      </trkpt>
      <trkpt lat="58.50392" lon="-4.65365">
        <ele>83.95</ele>
        <time>2021-03-20T19:09:15Z</time>
      </trkpt>
      <trkpt lat="58.50404" lon="-4.65318">
        <ele>78.51</ele>
        <time>2021-03-20T19:09:18Z</time>
      </trkpt>
      <trkpt lat="58.50409" lon="-4.65273">
        <ele>74.66</ele>
        <time>2021-03-20T19:09:20Z</time>
      </trkpt>
      <trkpt lat="58.50409" lon="-4.65227">
        <ele>71.9</ele>
        <time>2021-03-20T19:09:23Z</time>
      </trkpt>
      <trkpt lat="58.50402" lon="-4.65184">
        <ele>70.29</ele>
        <time>2021-03-20T19:09:26Z</time>
      </trkpt>
      <trkpt lat="58.50382" lon="-4.65096">
        <ele>65.99</ele>
        <time>2021-03-20T19:09:29Z</time>
      </trkpt>
      <trkpt lat="58.50375" lon="-4.65038">
        <ele>63.64</ele>
        <time>2021-03-20T19:09:31Z</time>
      </trkpt>
      <trkpt lat="58.50375" lon="-4.65005">
        <ele>62.37</ele>
        <time>2021-03-20T19:09:34Z</time>
      </trkpt>
      <trkpt lat="58.50381" lon="-4.64915">
        <ele>55.8</ele>
        <time>2021-03-20T19:09:37Z</time>
      </trkpt>
      <trkpt lat="58.50381" lon="-4.64871">
        <ele>53.38</ele>
        <time>2021-03-20T19:09:39Z</time>
      </trkpt>
      <trkpt lat="58.50377" lon="-4.64829">
        <ele>52.24</ele>
        <time>2021-03-20T19:09:42Z</time>
      </trkpt>
      <trkpt lat="58.50365" lon="-4.64782">
        <ele>50</ele>
        <time>2021-03-20T19:09:45Z</time>
      </trkpt>
      <trkpt lat="58.50346" lon="-4.6475">
        <ele>49.14</ele>
        <time>2021-03-20T19:09:48Z</time>
      </trkpt>
      <trkpt lat="58.50308" lon="-4.64694">
        <ele>47.69</ele>
        <time>2021-03-20T19:09:50Z</time>
      </trkpt>
      <trkpt lat="58.50193" lon="-4.64571">
        <ele>42.35</ele>
        <time>2021-03-20T19:09:53Z</time>
      </trkpt>
      <trkpt lat="58.50168" lon="-4.64541">
        <ele>41.8</ele>
        <time>2021-03-20T19:09:56Z</time>
      </trkpt>
      <trkpt lat="58.50155" lon="-4.64509">
        <ele>39.84</ele>
        <time>2021-03-20T19:09:59Z</time>
      </trkpt>
      <trkpt lat="58.50146" lon="-4.64481">
        <ele>39.46</ele>
        <time>2021-03-20T19:10:01Z</time>
      </trkpt>
      <trkpt lat="58.50139" lon="-4.6443">
        <ele>39.01</ele>
        <time>2021-03-20T19:10:04Z</time>
      </trkpt>
      <trkpt lat="58.50136" lon="-4.64384">
        <ele>40.27</ele>
        <time>2021-03-20T19:10:07Z</time>
      </trkpt>
      <trkpt lat="58.50139" lon="-4.64328">
        <ele>43</ele>
        <time>2021-03-20T19:10:09Z</time>
      </trkpt>
      <trkpt lat="58.50191" lon="-4.63887">
        <ele>55.89</ele>
        <time>2021-03-20T19:10:12Z</time>
      </trkpt>
      <trkpt lat="58.50193" lon="-4.63828">
        <ele>57.19</ele>
        <time>2021-03-20T19:10:15Z</time>
      </trkpt>
      <trkpt lat="58.50189" lon="-4.63763">
        <ele>59.53</ele>
        <time>2021-03-20T19:10:18Z</time>
      </trkpt>
      <trkpt lat="58.50178" lon="-4.63703">
        <ele>62.71</ele>
        <time>2021-03-20T19:10:20Z</time>
      </trkpt>
      <trkpt lat="58.50162" lon="-4.63634">
        <ele>63.87</ele>
        <time>2021-03-20T19:10:23Z</time>
      </trkpt>
      <trkpt lat="58.50126" lon="-4.63505">
        <ele>60.74</ele>
        <time>2021-03-20T19:10:26Z</time>
      </trkpt>
      <trkpt lat="58.50108" lon="-4.63469">
        <ele>58.77</ele>
        <time>2021-03-20T19:10:28Z</time>
      </trkpt>
      <trkpt lat="58.50083" lon="-4.63438">
        <ele>56.51</ele>
        <time>2021-03-20T19:10:31Z</time>
      </trkpt>
      <trkpt lat="58.50053" lon="-4.63413">
        <ele>54.49</ele>
        <time>2021-03-20T19:10:34Z</time>
      </trkpt>
      <trkpt lat="58.49981" lon="-4.63386">
        <ele>50.32</ele>
        <time>2021-03-20T19:10:37Z</time>
      </trkpt>
      <trkpt lat="58.49962" lon="-4.63372">
        <ele>49.76</ele>
        <time>2021-03-20T19:10:39Z</time>
      </trkpt>
      <trkpt lat="58.49941" lon="-4.63347">
        <ele>48.44</ele>
        <time>2021-03-20T19:10:42Z</time>
      </trkpt>
      <trkpt lat="58.49924" lon="-4.63314">
        <ele>47.26</ele>
        <time>2021-03-20T19:10:45Z</time>
      </trkpt>
      <trkpt lat="58.49913" lon="-4.63273">
        <ele>46.75</ele>
        <time>2021-03-20T19:10:47Z</time>
      </trkpt>
      <trkpt lat="58.49908" lon="-4.63224">
        <ele>46.35</ele>
        <time>2021-03-20T19:10:50Z</time>
      </trkpt>
      <trkpt lat="58.49908" lon="-4.63185">
        <ele>46.02</ele>
        <time>2021-03-20T19:10:53Z</time>
      </trkpt>
      <trkpt lat="58.49912" lon="-4.63151">
        <ele>45.08</ele>
        <time>2021-03-20T19:10:56Z</time>
      </trkpt>
      <trkpt lat="58.49919" lon="-4.63119">
        <ele>44.38</ele>
        <time>2021-03-20T19:10:58Z</time>
      </trkpt>
      <trkpt lat="58.49931" lon="-4.63088">
        <ele>42.85</ele>
        <time>2021-03-20T19:11:01Z</time>
      </trkpt>
      <trkpt lat="58.50316" lon="-4.62536">
        <ele>27</ele>
        <time>2021-03-20T19:11:04Z</time>
      </trkpt>
      <trkpt lat="58.50336" lon="-4.62512">
        <ele>27.1</ele>
        <time>2021-03-20T19:11:07Z</time>
      </trkpt>
      <trkpt lat="58.50387" lon="-4.62465">
        <ele>26.82</ele>
        <time>2021-03-20T19:11:09Z</time>
      </trkpt>
      <trkpt lat="58.50405" lon="-4.62436">
        <ele>25.11</ele>
        <time>2021-03-20T19:11:12Z</time>
      </trkpt>
      <trkpt lat="58.50417" lon="-4.62408">
        <ele>23.32</ele>
        <time>2021-03-20T19:11:15Z</time>
      </trkpt>
      <trkpt lat="58.50426" lon="-4.62383">
        <ele>21.46</ele>
        <time>2021-03-20T19:11:17Z</time>
      </trkpt>
      <trkpt lat="58.50435" lon="-4.62312">
        <ele>16.84</ele>
        <time>2021-03-20T19:11:20Z</time>
      </trkpt>
      <trkpt lat="58.50435" lon="-4.62268">
        <ele>12.68</ele>
        <time>2021-03-20T19:11:23Z</time>
      </trkpt>
      <trkpt lat="58.50429" lon="-4.6223">
        <ele>10.09</ele>
        <time>2021-03-20T19:11:26Z</time>
      </trkpt>
      <trkpt lat="58.50417" lon="-4.62192">
        <ele>8.82</ele>
        <time>2021-03-20T19:11:28Z</time>
      </trkpt>
      <trkpt lat="58.50375" lon="-4.62102">
        <ele>13.33</ele>
        <time>2021-03-20T19:11:31Z</time>
      </trkpt>
      <trkpt lat="58.50356" lon="-4.62092">
        <ele>15.89</ele>
        <time>2021-03-20T19:11:34Z</time>
      </trkpt>
      <trkpt lat="58.50339" lon="-4.62093">
        <ele>16.36</ele>
        <time>2021-03-20T19:11:36Z</time>
      </trkpt>
      <trkpt lat="58.50299" lon="-4.62149">
        <ele>12.15</ele>
        <time>2021-03-20T19:11:39Z</time>
      </trkpt>
      <trkpt lat="58.50281" lon="-4.62149">
        <ele>12.79</ele>
        <time>2021-03-20T19:11:42Z</time>
      </trkpt>
      <trkpt lat="58.5026" lon="-4.62145">
        <ele>12.2</ele>
        <time>2021-03-20T19:11:45Z</time>
      </trkpt>
      <trkpt lat="58.50241" lon="-4.62128">
        <ele>12.75</ele>
        <time>2021-03-20T19:11:47Z</time>
      </trkpt>
      <trkpt lat="58.50187" lon="-4.62048">
        <ele>17.51</ele>
        <time>2021-03-20T19:11:50Z</time>
      </trkpt>
      <trkpt lat="58.50172" lon="-4.62022">
        <ele>20.21</ele>
        <time>2021-03-20T19:11:53Z</time>
      </trkpt>
      <trkpt lat="58.50167" lon="-4.62">
        <ele>23.04</ele>
        <time>2021-03-20T19:11:55Z</time>
      </trkpt>
      <trkpt lat="58.50166" lon="-4.61976">
        <ele>25.58</ele>
        <time>2021-03-20T19:11:58Z</time>
      </trkpt>
      <trkpt lat="58.50167" lon="-4.6195">
        <ele>28.41</ele>
        <time>2021-03-20T19:12:01Z</time>
      </trkpt>
      <trkpt lat="58.50173" lon="-4.6193">
        <ele>30.91</ele>
        <time>2021-03-20T19:12:04Z</time>
      </trkpt>
      <trkpt lat="58.50184" lon="-4.61912">
        <ele>33.24</ele>
        <time>2021-03-20T19:12:06Z</time>
      </trkpt>
      <trkpt lat="58.502" lon="-4.61903">
        <ele>34.69</ele>
        <time>2021-03-20T19:12:09Z</time>
      </trkpt>
      <trkpt lat="58.50241" lon="-4.61905">
        <ele>36.33</ele>
        <time>2021-03-20T19:12:12Z</time>
      </trkpt>
      <trkpt lat="58.50251" lon="-4.61908">
        <ele>36.68</ele>
        <time>2021-03-20T19:12:15Z</time>
      </trkpt>
      <trkpt lat="58.50251" lon="-4.61887">
        <ele>38.14</ele>
        <time>2021-03-20T19:12:18Z</time>
      </trkpt>
      <trkpt lat="58.5025" lon="-4.61876">
        <ele>38.47</ele>
        <time>2021-03-20T19:12:20Z</time>
      </trkpt>
      <trkpt lat="58.50245" lon="-4.6187">
        <ele>38.51</ele>
        <time>2021-03-20T19:12:23Z</time>
      </trkpt>
      <trkpt lat="58.50235" lon="-4.61868">
        <ele>38.23</ele>
        <time>2021-03-20T19:12:26Z</time>
      </trkpt>
      <trkpt lat="58.50163" lon="-4.61891">
        <ele>35.88</ele>
        <time>2021-03-20T19:12:29Z</time>
      </trkpt>
      <trkpt lat="58.5009" lon="-4.61905">
        <ele>35.06</ele>
        <time>2021-03-20T19:12:32Z</time>
      </trkpt>
      <trkpt lat="58.50065" lon="-4.61902">
        <ele>34.99</ele>
        <time>2021-03-20T19:12:35Z</time>
      </trkpt>
      <trkpt lat="58.50041" lon="-4.61888">
        <ele>35.46</ele>
        <time>2021-03-20T19:12:38Z</time>
      </trkpt>
      <trkpt lat="58.4993" lon="-4.61778">
        <ele>41.99</ele>
        <time>2021-03-20T19:12:40Z</time>
      </trkpt>
      <trkpt lat="58.49892" lon="-4.61763">
        <ele>40.78</ele>
        <time>2021-03-20T19:12:43Z</time>
      </trkpt>
      <trkpt lat="58.49825" lon="-4.61747">
        <ele>37.73</ele>
        <time>2021-03-20T19:12:46Z</time>
      </trkpt>
      <trkpt lat="58.49784" lon="-4.61742">
        <ele>35.31</ele>
        <time>2021-03-20T19:12:49Z</time>
      </trkpt>
      <trkpt lat="58.49734" lon="-4.6175">
        <ele>34.65</ele>
        <time>2021-03-20T19:12:52Z</time>
      </trkpt>
      <trkpt lat="58.49704" lon="-4.61775">
        <ele>32.03</ele>
        <time>2021-03-20T19:12:55Z</time>
      </trkpt>
      <trkpt lat="58.49684" lon="-4.61784">
        <ele>30.49</ele>
        <time>2021-03-20T19:12:58Z</time>
      </trkpt>
      <trkpt lat="58.49663" lon="-4.61783">
        <ele>29.88</ele>
        <time>2021-03-20T19:13:00Z</time>
      </trkpt>
      <trkpt lat="58.49645" lon="-4.61769">
        <ele>30.38</ele>
        <time>2021-03-20T19:13:03Z</time>
      </trkpt>
      <trkpt lat="58.49632" lon="-4.61739">
        <ele>33.42</ele>
        <time>2021-03-20T19:13:06Z</time>
      </trkpt>
      <trkpt lat="58.49624" lon="-4.61729">
        <ele>34.57</ele>
        <time>2021-03-20T19:13:09Z</time>
      </trkpt>
      <trkpt lat="58.49615" lon="-4.61727">
        <ele>34.66</ele>
        <time>2021-03-20T19:13:12Z</time>
      </trkpt>
      <trkpt lat="58.49605" lon="-4.6173">
        <ele>34.27</ele>
        <time>2021-03-20T19:13:15Z</time>
      </trkpt>
      <trkpt lat="58.49589" lon="-4.61747">
        <ele>32.45</ele>
        <time>2021-03-20T19:13:18Z</time>
      </trkpt>
      <trkpt lat="58.49572" lon="-4.61756">
        <ele>31.81</ele>
        <time>2021-03-20T19:13:20Z</time>
      </trkpt>
      <trkpt lat="58.49541" lon="-4.61758">
        <ele>31.67</ele>
        <time>2021-03-20T19:13:23Z</time>
      </trkpt>
      <trkpt lat="58.49511" lon="-4.61752">
        <ele>31.81</ele>
        <time>2021-03-20T19:13:26Z</time>
      </trkpt>
      <trkpt lat="58.49394" lon="-4.61707">
        <ele>33.24</ele>
        <time>2021-03-20T19:13:29Z</time>
      </trkpt>
      <trkpt lat="58.493" lon="-4.6165">
        <ele>32.7</ele>
        <time>2021-03-20T19:13:32Z</time>
      </trkpt>
      <trkpt lat="58.49273" lon="-4.6162">
        <ele>32.79</ele>
        <time>2021-03-20T19:13:35Z</time>
      </trkpt>
      <trkpt lat="58.49261" lon="-4.61619">
        <ele>33.16</ele>
        <time>2021-03-20T19:13:38Z</time>
      </trkpt>
      <trkpt lat="58.49253" lon="-4.61621">
        <ele>33.2</ele>
        <time>2021-03-20T19:13:40Z</time>
      </trkpt>
      <trkpt lat="58.49232" lon="-4.61642">
        <ele>32.35</ele>
        <time>2021-03-20T19:13:43Z</time>
      </trkpt>
      <trkpt lat="58.49203" lon="-4.61664">
        <ele>31.64</ele>
        <time>2021-03-20T19:13:46Z</time>
      </trkpt>
      <trkpt lat="58.49172" lon="-4.61681">
        <ele>30.72</ele>
        <time>2021-03-20T19:13:49Z</time>
      </trkpt>
      <trkpt lat="58.49039" lon="-4.61695">
        <ele>29.4</ele>
        <time>2021-03-20T19:13:52Z</time>
      </trkpt>
      <trkpt lat="58.4895" lon="-4.61713">
        <ele>29.69</ele>
        <time>2021-03-20T19:13:55Z</time>
      </trkpt>
      <trkpt lat="58.48827" lon="-4.61746">
        <ele>31.53</ele>
        <time>2021-03-20T19:13:58Z</time>
      </trkpt>
      <trkpt lat="58.488" lon="-4.61745">
        <ele>32.14</ele>
        <time>2021-03-20T19:14:01Z</time>
      </trkpt>
      <trkpt lat="58.4877" lon="-4.61735">
        <ele>31.91</ele>
        <time>2021-03-20T19:14:03Z</time>
      </trkpt>
      <trkpt lat="58.4871" lon="-4.61705">
        <ele>31.63</ele>
        <time>2021-03-20T19:14:06Z</time>
      </trkpt>
      <trkpt lat="58.48665" lon="-4.61687">
        <ele>30.52</ele>
        <time>2021-03-20T19:14:09Z</time>
      </trkpt>
      <trkpt lat="58.48638" lon="-4.61683">
        <ele>29.79</ele>
        <time>2021-03-20T19:14:12Z</time>
      </trkpt>
      <trkpt lat="58.48477" lon="-4.61709">
        <ele>28.15</ele>
        <time>2021-03-20T19:14:15Z</time>
      </trkpt>
      <trkpt lat="58.48426" lon="-4.61705">
        <ele>25.88</ele>
        <time>2021-03-20T19:14:18Z</time>
      </trkpt>
      <trkpt lat="58.48272" lon="-4.61681">
        <ele>24.78</ele>
        <time>2021-03-20T19:14:21Z</time>
      </trkpt>
      <trkpt lat="58.48213" lon="-4.61675">
        <ele>22.75</ele>
        <time>2021-03-20T19:14:23Z</time>
      </trkpt>
      <trkpt lat="58.482" lon="-4.6167">
        <ele>22.1</ele>
        <time>2021-03-20T19:14:26Z</time>
      </trkpt>
      <trkpt lat="58.48188" lon="-4.61661">
        <ele>22</ele>
        <time>2021-03-20T19:14:29Z</time>
      </trkpt>
      <trkpt lat="58.48164" lon="-4.61596">
        <ele>23.41</ele>
        <time>2021-03-20T19:14:32Z</time>
      </trkpt>
      <trkpt lat="58.48153" lon="-4.61575">
        <ele>23.97</ele>
        <time>2021-03-20T19:14:35Z</time>
      </trkpt>
      <trkpt lat="58.48148" lon="-4.61569">
        <ele>24.18</ele>
        <time>2021-03-20T19:14:38Z</time>
      </trkpt>
      <trkpt lat="58.48141" lon="-4.61569">
        <ele>24.1</ele>
        <time>2021-03-20T19:14:41Z</time>
      </trkpt>
      <trkpt lat="58.48135" lon="-4.61572">
        <ele>23.88</ele>
        <time>2021-03-20T19:14:43Z</time>
      </trkpt>
      <trkpt lat="58.48074" lon="-4.61695">
        <ele>20.17</ele>
        <time>2021-03-20T19:14:46Z</time>
      </trkpt>
      <trkpt lat="58.48074" lon="-4.61695">
        <ele>20.17</ele>
        <time>2021-03-20T19:14:46Z</time>
      </trkpt>
      <trkpt lat="58.48045" lon="-4.61754">
        <ele>16.46</ele>
        <time>2021-03-20T19:14:50Z</time>
      </trkpt>
      <trkpt lat="58.4802" lon="-4.61793">
        <ele>14.46</ele>
        <time>2021-03-20T19:14:53Z</time>
      </trkpt>
      <trkpt lat="58.48002" lon="-4.61813">
        <ele>13.72</ele>
        <time>2021-03-20T19:14:56Z</time>
      </trkpt>
      <trkpt lat="58.47985" lon="-4.61821">
        <ele>12.92</ele>
        <time>2021-03-20T19:15:00Z</time>
      </trkpt>
      <trkpt lat="58.47947" lon="-4.6183">
        <ele>12.11</ele>
        <time>2021-03-20T19:15:03Z</time>
      </trkpt>
      <trkpt lat="58.4716" lon="-4.61783">
        <ele>13.91</ele>
        <time>2021-03-20T19:15:06Z</time>
      </trkpt>
      <trkpt lat="58.47143" lon="-4.61785">
        <ele>14.32</ele>
        <time>2021-03-20T19:15:10Z</time>
      </trkpt>
      <trkpt lat="58.47126" lon="-4.61796">
        <ele>14.42</ele>
        <time>2021-03-20T19:15:13Z</time>
      </trkpt>
      <trkpt lat="58.47111" lon="-4.61811">
        <ele>14.86</ele>
        <time>2021-03-20T19:15:16Z</time>
      </trkpt>
      <trkpt lat="58.47052" lon="-4.61886">
        <ele>17.51</ele>
        <time>2021-03-20T19:15:19Z</time>
      </trkpt>
      <trkpt lat="58.47026" lon="-4.61914">
        <ele>18.32</ele>
        <time>2021-03-20T19:15:23Z</time>
      </trkpt>
      <trkpt lat="58.47001" lon="-4.61929">
        <ele>19.04</ele>
        <time>2021-03-20T19:15:26Z</time>
      </trkpt>
      <trkpt lat="58.46898" lon="-4.61965">
        <ele>18.32</ele>
        <time>2021-03-20T19:15:29Z</time>
      </trkpt>
      <trkpt lat="58.4688" lon="-4.61965">
        <ele>18.51</ele>
        <time>2021-03-20T19:15:33Z</time>
      </trkpt>
      <trkpt lat="58.46833" lon="-4.61955">
        <ele>19.24</ele>
        <time>2021-03-20T19:15:36Z</time>
      </trkpt>
      <trkpt lat="58.46774" lon="-4.61932">
        <ele>22.88</ele>
        <time>2021-03-20T19:15:39Z</time>
      </trkpt>
      <trkpt lat="58.46698" lon="-4.6189">
        <ele>25.9</ele>
        <time>2021-03-20T19:15:43Z</time>
      </trkpt>
      <trkpt lat="58.4667" lon="-4.61889">
        <ele>26.89</ele>
        <time>2021-03-20T19:15:46Z</time>
      </trkpt>
      <trkpt lat="58.46553" lon="-4.61925">
        <ele>27.25</ele>
        <time>2021-03-20T19:15:49Z</time>
      </trkpt>
      <trkpt lat="58.46371" lon="-4.61968">
        <ele>26.16</ele>
        <time>2021-03-20T19:15:53Z</time>
      </trkpt>
      <trkpt lat="58.46282" lon="-4.61969">
        <ele>30.9</ele>
        <time>2021-03-20T19:15:56Z</time>
      </trkpt>
      <trkpt lat="58.46262" lon="-4.61973">
        <ele>32.13</ele>
        <time>2021-03-20T19:15:59Z</time>
      </trkpt>
      <trkpt lat="58.46132" lon="-4.62025">
        <ele>33.79</ele>
        <time>2021-03-20T19:16:03Z</time>
      </trkpt>
      <trkpt lat="58.46121" lon="-4.62023">
        <ele>33.37</ele>
        <time>2021-03-20T19:16:06Z</time>
      </trkpt>
      <trkpt lat="58.46047" lon="-4.61959">
        <ele>37.66</ele>
        <time>2021-03-20T19:16:09Z</time>
      </trkpt>
      <trkpt lat="58.4601" lon="-4.61948">
        <ele>37.14</ele>
        <time>2021-03-20T19:16:13Z</time>
      </trkpt>
      <trkpt lat="58.45946" lon="-4.61915">
        <ele>41.37</ele>
        <time>2021-03-20T19:16:16Z</time>
      </trkpt>
      <trkpt lat="58.45926" lon="-4.61915">
        <ele>42.1</ele>
        <time>2021-03-20T19:16:19Z</time>
      </trkpt>
      <trkpt lat="58.45911" lon="-4.61924">
        <ele>40.97</ele>
        <time>2021-03-20T19:16:23Z</time>
      </trkpt>
      <trkpt lat="58.45888" lon="-4.61944">
        <ele>38.25</ele>
        <time>2021-03-20T19:16:26Z</time>
      </trkpt>
      <trkpt lat="58.45871" lon="-4.6195">
        <ele>38.6</ele>
        <time>2021-03-20T19:16:29Z</time>
      </trkpt>
      <trkpt lat="58.45845" lon="-4.61952">
        <ele>39.74</ele>
        <time>2021-03-20T19:16:32Z</time>
      </trkpt>
      <trkpt lat="58.45814" lon="-4.61963">
        <ele>38.06</ele>
        <time>2021-03-20T19:16:36Z</time>
      </trkpt>
      <trkpt lat="58.45796" lon="-4.61965">
        <ele>38.08</ele>
        <time>2021-03-20T19:16:39Z</time>
      </trkpt>
      <trkpt lat="58.45775" lon="-4.61959">
        <ele>39.33</ele>
        <time>2021-03-20T19:16:42Z</time>
      </trkpt>
      <trkpt lat="58.45731" lon="-4.61933">
        <ele>42.63</ele>
        <time>2021-03-20T19:16:46Z</time>
      </trkpt>
      <trkpt lat="58.45704" lon="-4.61923">
        <ele>44.79</ele>
        <time>2021-03-20T19:16:49Z</time>
      </trkpt>
      <trkpt lat="58.45689" lon="-4.61919">
        <ele>45.6</ele>
        <time>2021-03-20T19:16:52Z</time>
      </trkpt>
      <trkpt lat="58.45654" lon="-4.6193">
        <ele>44.04</ele>
        <time>2021-03-20T19:16:56Z</time>
      </trkpt>
      <trkpt lat="58.45595" lon="-4.61906">
        <ele>45.56</ele>
        <time>2021-03-20T19:16:59Z</time>
      </trkpt>
      <trkpt lat="58.45557" lon="-4.61907">
        <ele>45.38</ele>
        <time>2021-03-20T19:17:02Z</time>
      </trkpt>
      <trkpt lat="58.45516" lon="-4.61914">
        <ele>46.38</ele>
        <time>2021-03-20T19:17:06Z</time>
      </trkpt>
      <trkpt lat="58.45394" lon="-4.61954">
        <ele>42.36</ele>
        <time>2021-03-20T19:17:09Z</time>
      </trkpt>
      <trkpt lat="58.45376" lon="-4.61964">
        <ele>41.94</ele>
        <time>2021-03-20T19:17:12Z</time>
      </trkpt>
      <trkpt lat="58.45234" lon="-4.62121">
        <ele>38.49</ele>
        <time>2021-03-20T19:17:16Z</time>
      </trkpt>
      <trkpt lat="58.45205" lon="-4.62145">
        <ele>36.97</ele>
        <time>2021-03-20T19:17:19Z</time>
      </trkpt>
      <trkpt lat="58.45163" lon="-4.62168">
        <ele>37.11</ele>
        <time>2021-03-20T19:17:22Z</time>
      </trkpt>
      <trkpt lat="58.45152" lon="-4.6218">
        <ele>36.82</ele>
        <time>2021-03-20T19:17:26Z</time>
      </trkpt>
      <trkpt lat="58.45144" lon="-4.62194">
        <ele>36.53</ele>
        <time>2021-03-20T19:17:29Z</time>
      </trkpt>
      <trkpt lat="58.45113" lon="-4.62265">
        <ele>36.23</ele>
        <time>2021-03-20T19:17:32Z</time>
      </trkpt>
      <trkpt lat="58.45073" lon="-4.6235">
        <ele>34.61</ele>
        <time>2021-03-20T19:17:36Z</time>
      </trkpt>
      <trkpt lat="58.4505" lon="-4.62384">
        <ele>34.6</ele>
        <time>2021-03-20T19:17:39Z</time>
      </trkpt>
      <trkpt lat="58.44993" lon="-4.62443">
        <ele>34.08</ele>
        <time>2021-03-20T19:17:42Z</time>
      </trkpt>
      <trkpt lat="58.44963" lon="-4.62479">
        <ele>31.69</ele>
        <time>2021-03-20T19:17:45Z</time>
      </trkpt>
      <trkpt lat="58.44939" lon="-4.62517">
        <ele>28.48</ele>
        <time>2021-03-20T19:17:49Z</time>
      </trkpt>
      <trkpt lat="58.44823" lon="-4.62758">
        <ele>14.94</ele>
        <time>2021-03-20T19:17:52Z</time>
      </trkpt>
      <trkpt lat="58.44774" lon="-4.6284">
        <ele>13.16</ele>
        <time>2021-03-20T19:17:55Z</time>
      </trkpt>
      <trkpt lat="58.4474" lon="-4.62917">
        <ele>13.1</ele>
        <time>2021-03-20T19:17:59Z</time>
      </trkpt>
      <trkpt lat="58.44713" lon="-4.62972">
        <ele>14.03</ele>
        <time>2021-03-20T19:18:02Z</time>
      </trkpt>
      <trkpt lat="58.44695" lon="-4.63002">
        <ele>13.71</ele>
        <time>2021-03-20T19:18:05Z</time>
      </trkpt>
      <trkpt lat="58.44659" lon="-4.63047">
        <ele>14.18</ele>
        <time>2021-03-20T19:18:09Z</time>
      </trkpt>
      <trkpt lat="58.44642" lon="-4.63073">
        <ele>14.29</ele>
        <time>2021-03-20T19:18:12Z</time>
      </trkpt>
      <trkpt lat="58.44628" lon="-4.63099">
        <ele>13.87</ele>
        <time>2021-03-20T19:18:15Z</time>
      </trkpt>
      <trkpt lat="58.44599" lon="-4.63171">
        <ele>13.7</ele>
        <time>2021-03-20T19:18:19Z</time>
      </trkpt>
      <trkpt lat="58.44584" lon="-4.63199">
        <ele>13.55</ele>
        <time>2021-03-20T19:18:22Z</time>
      </trkpt>
      <trkpt lat="58.44554" lon="-4.63247">
        <ele>13.6</ele>
        <time>2021-03-20T19:18:25Z</time>
      </trkpt>
      <trkpt lat="58.44503" lon="-4.63313">
        <ele>15.43</ele>
        <time>2021-03-20T19:18:29Z</time>
      </trkpt>
      <trkpt lat="58.44474" lon="-4.63366">
        <ele>15.38</ele>
        <time>2021-03-20T19:18:32Z</time>
      </trkpt>
      <trkpt lat="58.44377" lon="-4.63451">
        <ele>13.66</ele>
        <time>2021-03-20T19:18:35Z</time>
      </trkpt>
      <trkpt lat="58.44345" lon="-4.63474">
        <ele>13.49</ele>
        <time>2021-03-20T19:18:39Z</time>
      </trkpt>
      <trkpt lat="58.44322" lon="-4.6348">
        <ele>13.84</ele>
        <time>2021-03-20T19:18:42Z</time>
      </trkpt>
      <trkpt lat="58.44279" lon="-4.6348">
        <ele>16.83</ele>
        <time>2021-03-20T19:18:45Z</time>
      </trkpt>
      <trkpt lat="58.44258" lon="-4.63486">
        <ele>18.42</ele>
        <time>2021-03-20T19:18:49Z</time>
      </trkpt>
      <trkpt lat="58.44072" lon="-4.63613">
        <ele>13.96</ele>
        <time>2021-03-20T19:18:52Z</time>
      </trkpt>
      <trkpt lat="58.44023" lon="-4.63633">
        <ele>17.26</ele>
        <time>2021-03-20T19:18:55Z</time>
      </trkpt>
      <trkpt lat="58.44003" lon="-4.63645">
        <ele>18.25</ele>
        <time>2021-03-20T19:18:58Z</time>
      </trkpt>
      <trkpt lat="58.43971" lon="-4.63677">
        <ele>16.22</ele>
        <time>2021-03-20T19:19:02Z</time>
      </trkpt>
      <trkpt lat="58.43831" lon="-4.63759">
        <ele>11.49</ele>
        <time>2021-03-20T19:19:05Z</time>
      </trkpt>
      <trkpt lat="58.43814" lon="-4.63763">
        <ele>11.75</ele>
        <time>2021-03-20T19:19:08Z</time>
      </trkpt>
      <trkpt lat="58.43795" lon="-4.63762">
        <ele>11.41</ele>
        <time>2021-03-20T19:19:12Z</time>
      </trkpt>
      <trkpt lat="58.43743" lon="-4.63744">
        <ele>9.77</ele>
        <time>2021-03-20T19:19:15Z</time>
      </trkpt>
      <trkpt lat="58.43629" lon="-4.63698">
        <ele>11.45</ele>
        <time>2021-03-20T19:19:18Z</time>
      </trkpt>
      <trkpt lat="58.43522" lon="-4.63632">
        <ele>13.52</ele>
        <time>2021-03-20T19:19:22Z</time>
      </trkpt>
      <trkpt lat="58.43441" lon="-4.63595">
        <ele>16.69</ele>
        <time>2021-03-20T19:19:25Z</time>
      </trkpt>
      <trkpt lat="58.43425" lon="-4.63578">
        <ele>17.81</ele>
        <time>2021-03-20T19:19:28Z</time>
      </trkpt>
      <trkpt lat="58.43414" lon="-4.63561">
        <ele>18.52</ele>
        <time>2021-03-20T19:19:32Z</time>
      </trkpt>
      <trkpt lat="58.43406" lon="-4.63556">
        <ele>18.57</ele>
        <time>2021-03-20T19:19:35Z</time>
      </trkpt>
      <trkpt lat="58.43395" lon="-4.63555">
        <ele>18.24</ele>
        <time>2021-03-20T19:19:38Z</time>
      </trkpt>
      <trkpt lat="58.43376" lon="-4.63561">
        <ele>17.79</ele>
        <time>2021-03-20T19:19:42Z</time>
      </trkpt>
      <trkpt lat="58.43265" lon="-4.63629">
        <ele>15.7</ele>
        <time>2021-03-20T19:19:45Z</time>
      </trkpt>
      <trkpt lat="58.43211" lon="-4.63653">
        <ele>15.18</ele>
        <time>2021-03-20T19:19:48Z</time>
      </trkpt>
      <trkpt lat="58.43156" lon="-4.63685">
        <ele>15.71</ele>
        <time>2021-03-20T19:19:52Z</time>
      </trkpt>
      <trkpt lat="58.43124" lon="-4.63713">
        <ele>15.87</ele>
        <time>2021-03-20T19:19:55Z</time>
      </trkpt>
      <trkpt lat="58.43109" lon="-4.63719">
        <ele>16.33</ele>
        <time>2021-03-20T19:19:58Z</time>
      </trkpt>
      <trkpt lat="58.4309" lon="-4.6372">
        <ele>17.65</ele>
        <time>2021-03-20T19:20:02Z</time>
      </trkpt>
      <trkpt lat="58.43055" lon="-4.63714">
        <ele>20.34</ele>
        <time>2021-03-20T19:20:05Z</time>
      </trkpt>
      <trkpt lat="58.43022" lon="-4.63699">
        <ele>23.23</ele>
        <time>2021-03-20T19:20:08Z</time>
      </trkpt>
      <trkpt lat="58.43002" lon="-4.63697">
        <ele>24.65</ele>
        <time>2021-03-20T19:20:11Z</time>
      </trkpt>
      <trkpt lat="58.42985" lon="-4.63701">
        <ele>25.05</ele>
        <time>2021-03-20T19:20:15Z</time>
      </trkpt>
      <trkpt lat="58.42955" lon="-4.63725">
        <ele>24.5</ele>
        <time>2021-03-20T19:20:18Z</time>
      </trkpt>
      <trkpt lat="58.42938" lon="-4.63732">
        <ele>24.51</ele>
        <time>2021-03-20T19:20:21Z</time>
      </trkpt>
      <trkpt lat="58.42846" lon="-4.63762">
        <ele>25.6</ele>
        <time>2021-03-20T19:20:25Z</time>
      </trkpt>
      <trkpt lat="58.42608" lon="-4.63804">
        <ele>22.34</ele>
        <time>2021-03-20T19:20:28Z</time>
      </trkpt>
      <trkpt lat="58.42552" lon="-4.6383">
        <ele>19.47</ele>
        <time>2021-03-20T19:20:31Z</time>
      </trkpt>
      <trkpt lat="58.42513" lon="-4.63837">
        <ele>18.77</ele>
        <time>2021-03-20T19:20:35Z</time>
      </trkpt>
      <trkpt lat="58.42442" lon="-4.63839">
        <ele>17.58</ele>
        <time>2021-03-20T19:20:38Z</time>
      </trkpt>
      <trkpt lat="58.42263" lon="-4.63874">
        <ele>13.56</ele>
        <time>2021-03-20T19:20:41Z</time>
      </trkpt>
      <trkpt lat="58.42231" lon="-4.63893">
        <ele>11.03</ele>
        <time>2021-03-20T19:20:45Z</time>
      </trkpt>
      <trkpt lat="58.42166" lon="-4.63948">
        <ele>8.77</ele>
        <time>2021-03-20T19:20:48Z</time>
      </trkpt>
      <trkpt lat="58.4214" lon="-4.63962">
        <ele>9.08</ele>
        <time>2021-03-20T19:20:51Z</time>
      </trkpt>
      <trkpt lat="58.42118" lon="-4.63967">
        <ele>9.35</ele>
        <time>2021-03-20T19:20:55Z</time>
      </trkpt>
      <trkpt lat="58.42021" lon="-4.63972">
        <ele>11.03</ele>
        <time>2021-03-20T19:20:58Z</time>
      </trkpt>
      <trkpt lat="58.41835" lon="-4.64022">
        <ele>9.2</ele>
        <time>2021-03-20T19:21:01Z</time>
      </trkpt>
      <trkpt lat="58.41816" lon="-4.64021">
        <ele>9.26</ele>
        <time>2021-03-20T19:21:05Z</time>
      </trkpt>
      <trkpt lat="58.41798" lon="-4.64013">
        <ele>9.82</ele>
        <time>2021-03-20T19:21:08Z</time>
      </trkpt>
      <trkpt lat="58.41763" lon="-4.63984">
        <ele>11.59</ele>
        <time>2021-03-20T19:21:11Z</time>
      </trkpt>
      <trkpt lat="58.4172" lon="-4.63941">
        <ele>13.13</ele>
        <time>2021-03-20T19:21:15Z</time>
      </trkpt>
      <trkpt lat="58.41697" lon="-4.63931">
        <ele>13.47</ele>
        <time>2021-03-20T19:21:18Z</time>
      </trkpt>
      <trkpt lat="58.41623" lon="-4.63938">
        <ele>12.66</ele>
        <time>2021-03-20T19:21:21Z</time>
      </trkpt>
      <trkpt lat="58.4156" lon="-4.63939">
        <ele>12.18</ele>
        <time>2021-03-20T19:21:24Z</time>
      </trkpt>
      <trkpt lat="58.4148" lon="-4.63903">
        <ele>13.22</ele>
        <time>2021-03-20T19:21:28Z</time>
      </trkpt>
      <trkpt lat="58.41448" lon="-4.6388">
        <ele>13.73</ele>
        <time>2021-03-20T19:21:31Z</time>
      </trkpt>
      <trkpt lat="58.41432" lon="-4.63874">
        <ele>14.31</ele>
        <time>2021-03-20T19:21:34Z</time>
      </trkpt>
      <trkpt lat="58.41387" lon="-4.63886">
        <ele>13.22</ele>
        <time>2021-03-20T19:21:38Z</time>
      </trkpt>
      <trkpt lat="58.41362" lon="-4.63889">
        <ele>12.01</ele>
        <time>2021-03-20T19:21:41Z</time>
      </trkpt>
      <trkpt lat="58.41318" lon="-4.63886">
        <ele>13.88</ele>
        <time>2021-03-20T19:21:44Z</time>
      </trkpt>
      <trkpt lat="58.41287" lon="-4.63897">
        <ele>13.4</ele>
        <time>2021-03-20T19:21:48Z</time>
      </trkpt>
      <trkpt lat="58.41194" lon="-4.6388">
        <ele>11.61</ele>
        <time>2021-03-20T19:21:51Z</time>
      </trkpt>
      <trkpt lat="58.4114" lon="-4.63855">
        <ele>13.68</ele>
        <time>2021-03-20T19:21:54Z</time>
      </trkpt>
      <trkpt lat="58.41017" lon="-4.63818">
        <ele>16.64</ele>
        <time>2021-03-20T19:21:58Z</time>
      </trkpt>
      <trkpt lat="58.40973" lon="-4.63812">
        <ele>17.52</ele>
        <time>2021-03-20T19:22:01Z</time>
      </trkpt>
      <trkpt lat="58.40933" lon="-4.6379">
        <ele>20.16</ele>
        <time>2021-03-20T19:22:04Z</time>
      </trkpt>
      <trkpt lat="58.40735" lon="-4.63789">
        <ele>19.76</ele>
        <time>2021-03-20T19:22:08Z</time>
      </trkpt>
      <trkpt lat="58.40708" lon="-4.638">
        <ele>19.13</ele>
        <time>2021-03-20T19:22:11Z</time>
      </trkpt>
      <trkpt lat="58.40685" lon="-4.63801">
        <ele>19.4</ele>
        <time>2021-03-20T19:22:14Z</time>
      </trkpt>
      <trkpt lat="58.4066" lon="-4.63795">
        <ele>19.76</ele>
        <time>2021-03-20T19:22:18Z</time>
      </trkpt>
      <trkpt lat="58.40636" lon="-4.638">
        <ele>19.44</ele>
        <time>2021-03-20T19:22:21Z</time>
      </trkpt>
      <trkpt lat="58.40497" lon="-4.63862">
        <ele>18.93</ele>
        <time>2021-03-20T19:22:24Z</time>
      </trkpt>
      <trkpt lat="58.40476" lon="-4.63877">
        <ele>17.89</ele>
        <time>2021-03-20T19:22:27Z</time>
      </trkpt>
      <trkpt lat="58.40435" lon="-4.63917">
        <ele>17.36</ele>
        <time>2021-03-20T19:22:31Z</time>
      </trkpt>
      <trkpt lat="58.40382" lon="-4.6394">
        <ele>17.19</ele>
        <time>2021-03-20T19:22:34Z</time>
      </trkpt>
      <trkpt lat="58.40342" lon="-4.63963">
        <ele>16.36</ele>
        <time>2021-03-20T19:22:37Z</time>
      </trkpt>
      <trkpt lat="58.40142" lon="-4.641">
        <ele>20.31</ele>
        <time>2021-03-20T19:22:41Z</time>
      </trkpt>
      <trkpt lat="58.4009" lon="-4.64127">
        <ele>20.57</ele>
        <time>2021-03-20T19:22:44Z</time>
      </trkpt>
      <trkpt lat="58.40029" lon="-4.64151">
        <ele>19.16</ele>
        <time>2021-03-20T19:22:47Z</time>
      </trkpt>
      <trkpt lat="58.39999" lon="-4.64153">
        <ele>19.02</ele>
        <time>2021-03-20T19:22:51Z</time>
      </trkpt>
      <trkpt lat="58.39959" lon="-4.64142">
        <ele>19.78</ele>
        <time>2021-03-20T19:22:54Z</time>
      </trkpt>
      <trkpt lat="58.39931" lon="-4.64141">
        <ele>19.87</ele>
        <time>2021-03-20T19:22:57Z</time>
      </trkpt>
      <trkpt lat="58.39896" lon="-4.64152">
        <ele>18.33</ele>
        <time>2021-03-20T19:23:01Z</time>
      </trkpt>
      <trkpt lat="58.39844" lon="-4.64174">
        <ele>16.75</ele>
        <time>2021-03-20T19:23:04Z</time>
      </trkpt>
      <trkpt lat="58.39806" lon="-4.6418">
        <ele>14.52</ele>
        <time>2021-03-20T19:23:07Z</time>
      </trkpt>
      <trkpt lat="58.39765" lon="-4.64166">
        <ele>12.57</ele>
        <time>2021-03-20T19:23:11Z</time>
      </trkpt>
      <trkpt lat="58.39749" lon="-4.64153">
        <ele>12.4</ele>
        <time>2021-03-20T19:23:14Z</time>
      </trkpt>
      <trkpt lat="58.39727" lon="-4.64131">
        <ele>11.94</ele>
        <time>2021-03-20T19:23:17Z</time>
      </trkpt>
      <trkpt lat="58.39688" lon="-4.64069">
        <ele>10.3</ele>
        <time>2021-03-20T19:23:21Z</time>
      </trkpt>
      <trkpt lat="58.39673" lon="-4.64037">
        <ele>9.53</ele>
        <time>2021-03-20T19:23:24Z</time>
      </trkpt>
      <trkpt lat="58.39642" lon="-4.63951">
        <ele>10.24</ele>
        <time>2021-03-20T19:23:27Z</time>
      </trkpt>
      <trkpt lat="58.39612" lon="-4.63884">
        <ele>12.05</ele>
        <time>2021-03-20T19:23:31Z</time>
      </trkpt>
      <trkpt lat="58.39551" lon="-4.63757">
        <ele>14.55</ele>
        <time>2021-03-20T19:23:34Z</time>
      </trkpt>
      <trkpt lat="58.39501" lon="-4.63668">
        <ele>16.13</ele>
        <time>2021-03-20T19:23:37Z</time>
      </trkpt>
      <trkpt lat="58.39471" lon="-4.63625">
        <ele>17.79</ele>
        <time>2021-03-20T19:23:40Z</time>
      </trkpt>
      <trkpt lat="58.39338" lon="-4.63472">
        <ele>15.72</ele>
        <time>2021-03-20T19:23:44Z</time>
      </trkpt>
      <trkpt lat="58.3931" lon="-4.63449">
        <ele>15.21</ele>
        <time>2021-03-20T19:23:47Z</time>
      </trkpt>
      <trkpt lat="58.39288" lon="-4.63439">
        <ele>13.8</ele>
        <time>2021-03-20T19:23:50Z</time>
      </trkpt>
      <trkpt lat="58.39204" lon="-4.63424">
        <ele>10.79</ele>
        <time>2021-03-20T19:23:54Z</time>
      </trkpt>
      <trkpt lat="58.3918" lon="-4.63413">
        <ele>10.68</ele>
        <time>2021-03-20T19:23:57Z</time>
      </trkpt>
      <trkpt lat="58.3906" lon="-4.63317">
        <ele>13.73</ele>
        <time>2021-03-20T19:24:00Z</time>
      </trkpt>
      <trkpt lat="58.39037" lon="-4.63289">
        <ele>12.56</ele>
        <time>2021-03-20T19:24:04Z</time>
      </trkpt>
      <trkpt lat="58.38996" lon="-4.63215">
        <ele>13.36</ele>
        <time>2021-03-20T19:24:07Z</time>
      </trkpt>
      <trkpt lat="58.38978" lon="-4.63195">
        <ele>14.14</ele>
        <time>2021-03-20T19:24:10Z</time>
      </trkpt>
      <trkpt lat="58.38923" lon="-4.63158">
        <ele>13.12</ele>
        <time>2021-03-20T19:24:14Z</time>
      </trkpt>
      <trkpt lat="58.38868" lon="-4.63098">
        <ele>12.79</ele>
        <time>2021-03-20T19:24:17Z</time>
      </trkpt>
      <trkpt lat="58.38823" lon="-4.63068">
        <ele>12.39</ele>
        <time>2021-03-20T19:24:20Z</time>
      </trkpt>
      <trkpt lat="58.38777" lon="-4.63041">
        <ele>11.07</ele>
        <time>2021-03-20T19:24:24Z</time>
      </trkpt>
      <trkpt lat="58.38747" lon="-4.63031">
        <ele>11.63</ele>
        <time>2021-03-20T19:24:27Z</time>
      </trkpt>
      <trkpt lat="58.38632" lon="-4.63013">
        <ele>11.43</ele>
        <time>2021-03-20T19:24:30Z</time>
      </trkpt>
      <trkpt lat="58.3844" lon="-4.63007">
        <ele>11.83</ele>
        <time>2021-03-20T19:24:34Z</time>
      </trkpt>
      <trkpt lat="58.38411" lon="-4.63012">
        <ele>13.13</ele>
        <time>2021-03-20T19:24:37Z</time>
      </trkpt>
      <trkpt lat="58.38384" lon="-4.63023">
        <ele>13.85</ele>
        <time>2021-03-20T19:24:40Z</time>
      </trkpt>
      <trkpt lat="58.38359" lon="-4.63042">
        <ele>13.58</ele>
        <time>2021-03-20T19:24:44Z</time>
      </trkpt>
      <trkpt lat="58.38329" lon="-4.63074">
        <ele>12.84</ele>
        <time>2021-03-20T19:24:47Z</time>
      </trkpt>
      <trkpt lat="58.38308" lon="-4.6309">
        <ele>12.43</ele>
        <time>2021-03-20T19:24:50Z</time>
      </trkpt>
      <trkpt lat="58.38288" lon="-4.63097">
        <ele>12.02</ele>
        <time>2021-03-20T19:24:53Z</time>
      </trkpt>
      <trkpt lat="58.38218" lon="-4.63096">
        <ele>11.12</ele>
        <time>2021-03-20T19:24:57Z</time>
      </trkpt>
      <trkpt lat="58.38195" lon="-4.63089">
        <ele>11.62</ele>
        <time>2021-03-20T19:25:00Z</time>
      </trkpt>
      <trkpt lat="58.38156" lon="-4.63063">
        <ele>12.48</ele>
        <time>2021-03-20T19:25:03Z</time>
      </trkpt>
      <trkpt lat="58.38135" lon="-4.63054">
        <ele>13.26</ele>
        <time>2021-03-20T19:25:07Z</time>
      </trkpt>
      <trkpt lat="58.38106" lon="-4.63048">
        <ele>14.13</ele>
        <time>2021-03-20T19:25:10Z</time>
      </trkpt>
      <trkpt lat="58.38081" lon="-4.6305">
        <ele>14.1</ele>
        <time>2021-03-20T19:25:13Z</time>
      </trkpt>
      <trkpt lat="58.38027" lon="-4.63078">
        <ele>14.67</ele>
        <time>2021-03-20T19:25:17Z</time>
      </trkpt>
      <trkpt lat="58.38002" lon="-4.63103">
        <ele>14.06</ele>
        <time>2021-03-20T19:25:20Z</time>
      </trkpt>
      <trkpt lat="58.37954" lon="-4.63168">
        <ele>13.2</ele>
        <time>2021-03-20T19:25:23Z</time>
      </trkpt>
      <trkpt lat="58.37938" lon="-4.63183">
        <ele>13.03</ele>
        <time>2021-03-20T19:25:27Z</time>
      </trkpt>
      <trkpt lat="58.37921" lon="-4.63193">
        <ele>12.97</ele>
        <time>2021-03-20T19:25:30Z</time>
      </trkpt>
      <trkpt lat="58.37901" lon="-4.63197">
        <ele>12.84</ele>
        <time>2021-03-20T19:25:33Z</time>
      </trkpt>
      <trkpt lat="58.37852" lon="-4.63195">
        <ele>15.66</ele>
        <time>2021-03-20T19:25:37Z</time>
      </trkpt>
      <trkpt lat="58.37819" lon="-4.63205">
        <ele>15.99</ele>
        <time>2021-03-20T19:25:40Z</time>
      </trkpt>
      <trkpt lat="58.37786" lon="-4.63222">
        <ele>14.81</ele>
        <time>2021-03-20T19:25:43Z</time>
      </trkpt>
      <trkpt lat="58.37753" lon="-4.63223">
        <ele>15.78</ele>
        <time>2021-03-20T19:25:47Z</time>
      </trkpt>
      <trkpt lat="58.37738" lon="-4.63228">
        <ele>15.81</ele>
        <time>2021-03-20T19:25:50Z</time>
      </trkpt>
      <trkpt lat="58.37638" lon="-4.63298">
        <ele>15.89</ele>
        <time>2021-03-20T19:25:53Z</time>
      </trkpt>
      <trkpt lat="58.37603" lon="-4.63327">
        <ele>15.1</ele>
        <time>2021-03-20T19:25:57Z</time>
      </trkpt>
      <trkpt lat="58.37521" lon="-4.63381">
        <ele>13.89</ele>
        <time>2021-03-20T19:26:00Z</time>
      </trkpt>
      <trkpt lat="58.37502" lon="-4.63387">
        <ele>13.21</ele>
        <time>2021-03-20T19:26:03Z</time>
      </trkpt>
      <trkpt lat="58.37462" lon="-4.63392">
        <ele>14.89</ele>
        <time>2021-03-20T19:26:06Z</time>
      </trkpt>
      <trkpt lat="58.37428" lon="-4.63407">
        <ele>16.84</ele>
        <time>2021-03-20T19:26:10Z</time>
      </trkpt>
      <trkpt lat="58.374" lon="-4.63434">
        <ele>18.39</ele>
        <time>2021-03-20T19:26:13Z</time>
      </trkpt>
      <trkpt lat="58.3735" lon="-4.63501">
        <ele>17.23</ele>
        <time>2021-03-20T19:26:16Z</time>
      </trkpt>
      <trkpt lat="58.37325" lon="-4.6354">
        <ele>18.63</ele>
        <time>2021-03-20T19:26:20Z</time>
      </trkpt>
      <trkpt lat="58.37304" lon="-4.63584">
        <ele>19.12</ele>
        <time>2021-03-20T19:26:23Z</time>
      </trkpt>
      <trkpt lat="58.37271" lon="-4.63659">
        <ele>18.53</ele>
        <time>2021-03-20T19:26:26Z</time>
      </trkpt>
      <trkpt lat="58.37246" lon="-4.63722">
        <ele>18.15</ele>
        <time>2021-03-20T19:26:30Z</time>
      </trkpt>
      <trkpt lat="58.37232" lon="-4.63744">
        <ele>17.86</ele>
        <time>2021-03-20T19:26:33Z</time>
      </trkpt>
      <trkpt lat="58.37217" lon="-4.63763">
        <ele>17.53</ele>
        <time>2021-03-20T19:26:36Z</time>
      </trkpt>
      <trkpt lat="58.37194" lon="-4.63781">
        <ele>16.88</ele>
        <time>2021-03-20T19:26:40Z</time>
      </trkpt>
      <trkpt lat="58.3714" lon="-4.63789">
        <ele>16.59</ele>
        <time>2021-03-20T19:26:43Z</time>
      </trkpt>
      <trkpt lat="58.37123" lon="-4.63793">
        <ele>16.44</ele>
        <time>2021-03-20T19:26:46Z</time>
      </trkpt>
      <trkpt lat="58.37108" lon="-4.63793">
        <ele>16.36</ele>
        <time>2021-03-20T19:26:50Z</time>
      </trkpt>
      <trkpt lat="58.37099" lon="-4.63788">
        <ele>16.17</ele>
        <time>2021-03-20T19:26:53Z</time>
      </trkpt>
      <trkpt lat="58.3709" lon="-4.63781">
        <ele>16.14</ele>
        <time>2021-03-20T19:26:56Z</time>
      </trkpt>
      <trkpt lat="58.37072" lon="-4.63756">
        <ele>16.27</ele>
        <time>2021-03-20T19:27:00Z</time>
      </trkpt>
      <trkpt lat="58.37049" lon="-4.63714">
        <ele>18.35</ele>
        <time>2021-03-20T19:27:03Z</time>
      </trkpt>
      <trkpt lat="58.37035" lon="-4.63701">
        <ele>18.79</ele>
        <time>2021-03-20T19:27:06Z</time>
      </trkpt>
      <trkpt lat="58.37019" lon="-4.63696">
        <ele>19.18</ele>
        <time>2021-03-20T19:27:10Z</time>
      </trkpt>
      <trkpt lat="58.36991" lon="-4.637">
        <ele>19.74</ele>
        <time>2021-03-20T19:27:13Z</time>
      </trkpt>
      <trkpt lat="58.36957" lon="-4.63712">
        <ele>20.5</ele>
        <time>2021-03-20T19:27:16Z</time>
      </trkpt>
      <trkpt lat="58.36927" lon="-4.6373">
        <ele>20.81</ele>
        <time>2021-03-20T19:27:19Z</time>
      </trkpt>
      <trkpt lat="58.36848" lon="-4.63799">
        <ele>20.31</ele>
        <time>2021-03-20T19:27:23Z</time>
      </trkpt>
      <trkpt lat="58.36799" lon="-4.63828">
        <ele>17.81</ele>
        <time>2021-03-20T19:27:26Z</time>
      </trkpt>
      <trkpt lat="58.3676" lon="-4.63846">
        <ele>18.12</ele>
        <time>2021-03-20T19:27:29Z</time>
      </trkpt>
      <trkpt lat="58.36714" lon="-4.6387">
        <ele>17.01</ele>
        <time>2021-03-20T19:27:33Z</time>
      </trkpt>
      <trkpt lat="58.36676" lon="-4.63885">
        <ele>16.15</ele>
        <time>2021-03-20T19:27:36Z</time>
      </trkpt>
      <trkpt lat="58.36635" lon="-4.63894">
        <ele>16.77</ele>
        <time>2021-03-20T19:27:39Z</time>
      </trkpt>
      <trkpt lat="58.36614" lon="-4.63888">
        <ele>18</ele>
        <time>2021-03-20T19:27:43Z</time>
      </trkpt>
      <trkpt lat="58.36543" lon="-4.63897">
        <ele>18.87</ele>
        <time>2021-03-20T19:27:46Z</time>
      </trkpt>
      <trkpt lat="58.36428" lon="-4.63922">
        <ele>22.76</ele>
        <time>2021-03-20T19:27:49Z</time>
      </trkpt>
      <trkpt lat="58.36394" lon="-4.63927">
        <ele>23.61</ele>
        <time>2021-03-20T19:27:53Z</time>
      </trkpt>
      <trkpt lat="58.36378" lon="-4.63926">
        <ele>24.01</ele>
        <time>2021-03-20T19:27:56Z</time>
      </trkpt>
      <trkpt lat="58.36361" lon="-4.63929">
        <ele>23.65</ele>
        <time>2021-03-20T19:27:59Z</time>
      </trkpt>
      <trkpt lat="58.36302" lon="-4.63955">
        <ele>25.43</ele>
        <time>2021-03-20T19:28:03Z</time>
      </trkpt>
      <trkpt lat="58.36225" lon="-4.63964">
        <ele>27.1</ele>
        <time>2021-03-20T19:28:06Z</time>
      </trkpt>
      <trkpt lat="58.36176" lon="-4.63946">
        <ele>31.79</ele>
        <time>2021-03-20T19:28:09Z</time>
      </trkpt>
      <trkpt lat="58.36133" lon="-4.63947">
        <ele>32.84</ele>
        <time>2021-03-20T19:28:13Z</time>
      </trkpt>
      <trkpt lat="58.36101" lon="-4.63943">
        <ele>34.59</ele>
        <time>2021-03-20T19:28:16Z</time>
      </trkpt>
      <trkpt lat="58.36064" lon="-4.63933">
        <ele>36.89</ele>
        <time>2021-03-20T19:28:19Z</time>
      </trkpt>
      <trkpt lat="58.35905" lon="-4.63851">
        <ele>46.42</ele>
        <time>2021-03-20T19:28:23Z</time>
      </trkpt>
      <trkpt lat="58.35877" lon="-4.63843">
        <ele>46.53</ele>
        <time>2021-03-20T19:28:26Z</time>
      </trkpt>
      <trkpt lat="58.3586" lon="-4.6383">
        <ele>47.5</ele>
        <time>2021-03-20T19:28:29Z</time>
      </trkpt>
      <trkpt lat="58.35814" lon="-4.63772">
        <ele>54.29</ele>
        <time>2021-03-20T19:28:32Z</time>
      </trkpt>
      <trkpt lat="58.35791" lon="-4.6375">
        <ele>57.39</ele>
        <time>2021-03-20T19:28:36Z</time>
      </trkpt>
      <trkpt lat="58.35771" lon="-4.63739">
        <ele>59.81</ele>
        <time>2021-03-20T19:28:39Z</time>
      </trkpt>
      <trkpt lat="58.35713" lon="-4.63746">
        <ele>63.53</ele>
        <time>2021-03-20T19:28:42Z</time>
      </trkpt>
      <trkpt lat="58.35671" lon="-4.63745">
        <ele>66.49</ele>
        <time>2021-03-20T19:28:46Z</time>
      </trkpt>
      <trkpt lat="58.35655" lon="-4.63734">
        <ele>68.29</ele>
        <time>2021-03-20T19:28:49Z</time>
      </trkpt>
      <trkpt lat="58.35634" lon="-4.63704">
        <ele>72.82</ele>
        <time>2021-03-20T19:28:52Z</time>
      </trkpt>
      <trkpt lat="58.35616" lon="-4.63685">
        <ele>75.13</ele>
        <time>2021-03-20T19:28:56Z</time>
      </trkpt>
      <trkpt lat="58.35601" lon="-4.63676">
        <ele>75.96</ele>
        <time>2021-03-20T19:28:59Z</time>
      </trkpt>
      <trkpt lat="58.35584" lon="-4.63674">
        <ele>76.25</ele>
        <time>2021-03-20T19:29:02Z</time>
      </trkpt>
      <trkpt lat="58.35515" lon="-4.63687">
        <ele>76.23</ele>
        <time>2021-03-20T19:29:06Z</time>
      </trkpt>
      <trkpt lat="58.35415" lon="-4.63681">
        <ele>76.99</ele>
        <time>2021-03-20T19:29:09Z</time>
      </trkpt>
      <trkpt lat="58.354" lon="-4.63672">
        <ele>78.83</ele>
        <time>2021-03-20T19:29:12Z</time>
      </trkpt>
      <trkpt lat="58.35339" lon="-4.63621">
        <ele>85.52</ele>
        <time>2021-03-20T19:29:16Z</time>
      </trkpt>
      <trkpt lat="58.353" lon="-4.63601">
        <ele>88.14</ele>
        <time>2021-03-20T19:29:19Z</time>
      </trkpt>
      <trkpt lat="58.35276" lon="-4.63581">
        <ele>90.25</ele>
        <time>2021-03-20T19:29:22Z</time>
      </trkpt>
      <trkpt lat="58.35254" lon="-4.63571">
        <ele>90.89</ele>
        <time>2021-03-20T19:29:26Z</time>
      </trkpt>
      <trkpt lat="58.35229" lon="-4.63574">
        <ele>91.09</ele>
        <time>2021-03-20T19:29:29Z</time>
      </trkpt>
      <trkpt lat="58.35161" lon="-4.63594">
        <ele>91.64</ele>
        <time>2021-03-20T19:29:32Z</time>
      </trkpt>
      <trkpt lat="58.35132" lon="-4.63596">
        <ele>92.37</ele>
        <time>2021-03-20T19:29:36Z</time>
      </trkpt>
      <trkpt lat="58.35101" lon="-4.6359">
        <ele>94.62</ele>
        <time>2021-03-20T19:29:39Z</time>
      </trkpt>
      <trkpt lat="58.3506" lon="-4.63594">
        <ele>95.43</ele>
        <time>2021-03-20T19:29:42Z</time>
      </trkpt>
      <trkpt lat="58.35043" lon="-4.63591">
        <ele>96.05</ele>
        <time>2021-03-20T19:29:45Z</time>
      </trkpt>
      <trkpt lat="58.35028" lon="-4.63584">
        <ele>96.97</ele>
        <time>2021-03-20T19:29:49Z</time>
      </trkpt>
      <trkpt lat="58.34948" lon="-4.63527">
        <ele>104.04</ele>
        <time>2021-03-20T19:29:52Z</time>
      </trkpt>
      <trkpt lat="58.34853" lon="-4.63481">
        <ele>109.7</ele>
        <time>2021-03-20T19:29:55Z</time>
      </trkpt>
      <trkpt lat="58.34834" lon="-4.63467">
        <ele>110.18</ele>
        <time>2021-03-20T19:29:59Z</time>
      </trkpt>
      <trkpt lat="58.34793" lon="-4.63425">
        <ele>111.58</ele>
        <time>2021-03-20T19:30:02Z</time>
      </trkpt>
      <trkpt lat="58.3477" lon="-4.63411">
        <ele>112.39</ele>
        <time>2021-03-20T19:30:05Z</time>
      </trkpt>
      <trkpt lat="58.3474" lon="-4.63401">
        <ele>112.73</ele>
        <time>2021-03-20T19:30:09Z</time>
      </trkpt>
      <trkpt lat="58.34619" lon="-4.63381">
        <ele>115.48</ele>
        <time>2021-03-20T19:30:12Z</time>
      </trkpt>
      <trkpt lat="58.34602" lon="-4.63374">
        <ele>117.23</ele>
        <time>2021-03-20T19:30:15Z</time>
      </trkpt>
      <trkpt lat="58.34553" lon="-4.63338">
        <ele>118.82</ele>
        <time>2021-03-20T19:30:19Z</time>
      </trkpt>
      <trkpt lat="58.34508" lon="-4.63314">
        <ele>119.92</ele>
        <time>2021-03-20T19:30:22Z</time>
      </trkpt>
      <trkpt lat="58.34496" lon="-4.63295">
        <ele>120.4</ele>
        <time>2021-03-20T19:30:25Z</time>
      </trkpt>
      <trkpt lat="58.3447" lon="-4.63243">
        <ele>121.25</ele>
        <time>2021-03-20T19:30:29Z</time>
      </trkpt>
      <trkpt lat="58.34456" lon="-4.63226">
        <ele>121.88</ele>
        <time>2021-03-20T19:30:32Z</time>
      </trkpt>
      <trkpt lat="58.34448" lon="-4.63219">
        <ele>122.12</ele>
        <time>2021-03-20T19:30:35Z</time>
      </trkpt>
      <trkpt lat="58.34424" lon="-4.63209">
        <ele>121.74</ele>
        <time>2021-03-20T19:30:39Z</time>
      </trkpt>
      <trkpt lat="58.3438" lon="-4.63197">
        <ele>120.58</ele>
        <time>2021-03-20T19:30:42Z</time>
      </trkpt>
      <trkpt lat="58.34361" lon="-4.63188">
        <ele>120.45</ele>
        <time>2021-03-20T19:30:45Z</time>
      </trkpt>
      <trkpt lat="58.34313" lon="-4.63142">
        <ele>120.68</ele>
        <time>2021-03-20T19:30:49Z</time>
      </trkpt>
      <trkpt lat="58.34299" lon="-4.63115">
        <ele>121.23</ele>
        <time>2021-03-20T19:30:52Z</time>
      </trkpt>
      <trkpt lat="58.34265" lon="-4.6303">
        <ele>122.02</ele>
        <time>2021-03-20T19:30:55Z</time>
      </trkpt>
      <trkpt lat="58.34251" lon="-4.63013">
        <ele>121.61</ele>
        <time>2021-03-20T19:30:58Z</time>
      </trkpt>
      <trkpt lat="58.3423" lon="-4.63005">
        <ele>121.68</ele>
        <time>2021-03-20T19:31:02Z</time>
      </trkpt>
      <trkpt lat="58.34177" lon="-4.63002">
        <ele>122.89</ele>
        <time>2021-03-20T19:31:05Z</time>
      </trkpt>
      <trkpt lat="58.34163" lon="-4.62999">
        <ele>122.78</ele>
        <time>2021-03-20T19:31:08Z</time>
      </trkpt>
      <trkpt lat="58.34153" lon="-4.62987">
        <ele>122.46</ele>
        <time>2021-03-20T19:31:12Z</time>
      </trkpt>
      <trkpt lat="58.34111" lon="-4.62885">
        <ele>123.13</ele>
        <time>2021-03-20T19:31:15Z</time>
      </trkpt>
      <trkpt lat="58.34085" lon="-4.62837">
        <ele>122.99</ele>
        <time>2021-03-20T19:31:18Z</time>
      </trkpt>
      <trkpt lat="58.34067" lon="-4.62816">
        <ele>123.71</ele>
        <time>2021-03-20T19:31:22Z</time>
      </trkpt>
      <trkpt lat="58.34024" lon="-4.628">
        <ele>121.22</ele>
        <time>2021-03-20T19:31:25Z</time>
      </trkpt>
      <trkpt lat="58.34014" lon="-4.62791">
        <ele>121.29</ele>
        <time>2021-03-20T19:31:28Z</time>
      </trkpt>
      <trkpt lat="58.33978" lon="-4.62701">
        <ele>122.23</ele>
        <time>2021-03-20T19:31:32Z</time>
      </trkpt>
      <trkpt lat="58.33961" lon="-4.6267">
        <ele>122.41</ele>
        <time>2021-03-20T19:31:35Z</time>
      </trkpt>
      <trkpt lat="58.33927" lon="-4.62631">
        <ele>122.83</ele>
        <time>2021-03-20T19:31:38Z</time>
      </trkpt>
      <trkpt lat="58.33913" lon="-4.62626">
        <ele>122.9</ele>
        <time>2021-03-20T19:31:42Z</time>
      </trkpt>
      <trkpt lat="58.33898" lon="-4.62628">
        <ele>122.82</ele>
        <time>2021-03-20T19:31:45Z</time>
      </trkpt>
      <trkpt lat="58.33867" lon="-4.62643">
        <ele>122.51</ele>
        <time>2021-03-20T19:31:48Z</time>
      </trkpt>
      <trkpt lat="58.33855" lon="-4.62643">
        <ele>122.51</ele>
        <time>2021-03-20T19:31:52Z</time>
      </trkpt>
      <trkpt lat="58.33658" lon="-4.62531">
        <ele>120.24</ele>
        <time>2021-03-20T19:31:55Z</time>
      </trkpt>
      <trkpt lat="58.33645" lon="-4.62516">
        <ele>119.87</ele>
        <time>2021-03-20T19:31:58Z</time>
      </trkpt>
      <trkpt lat="58.33623" lon="-4.62475">
        <ele>119.74</ele>
        <time>2021-03-20T19:32:02Z</time>
      </trkpt>
      <trkpt lat="58.33543" lon="-4.62302">
        <ele>118.89</ele>
        <time>2021-03-20T19:32:05Z</time>
      </trkpt>
      <trkpt lat="58.33517" lon="-4.62255">
        <ele>118.73</ele>
        <time>2021-03-20T19:32:08Z</time>
      </trkpt>
      <trkpt lat="58.33503" lon="-4.62222">
        <ele>118.52</ele>
        <time>2021-03-20T19:32:11Z</time>
      </trkpt>
      <trkpt lat="58.33491" lon="-4.62163">
        <ele>120.19</ele>
        <time>2021-03-20T19:32:15Z</time>
      </trkpt>
      <trkpt lat="58.33484" lon="-4.62114">
        <ele>121.61</ele>
        <time>2021-03-20T19:32:18Z</time>
      </trkpt>
      <trkpt lat="58.33475" lon="-4.6202">
        <ele>122.57</ele>
        <time>2021-03-20T19:32:21Z</time>
      </trkpt>
      <trkpt lat="58.33463" lon="-4.61965">
        <ele>123.67</ele>
        <time>2021-03-20T19:32:25Z</time>
      </trkpt>
      <trkpt lat="58.3345" lon="-4.61931">
        <ele>125.15</ele>
        <time>2021-03-20T19:32:28Z</time>
      </trkpt>
      <trkpt lat="58.33434" lon="-4.61904">
        <ele>126.52</ele>
        <time>2021-03-20T19:32:31Z</time>
      </trkpt>
      <trkpt lat="58.33407" lon="-4.61881">
        <ele>126.69</ele>
        <time>2021-03-20T19:32:35Z</time>
      </trkpt>
      <trkpt lat="58.33375" lon="-4.61864">
        <ele>126.83</ele>
        <time>2021-03-20T19:32:38Z</time>
      </trkpt>
      <trkpt lat="58.33353" lon="-4.61845">
        <ele>127.58</ele>
        <time>2021-03-20T19:32:41Z</time>
      </trkpt>
      <trkpt lat="58.33339" lon="-4.61826">
        <ele>128.23</ele>
        <time>2021-03-20T19:32:45Z</time>
      </trkpt>
      <trkpt lat="58.33326" lon="-4.61803">
        <ele>128.85</ele>
        <time>2021-03-20T19:32:48Z</time>
      </trkpt>
      <trkpt lat="58.33319" lon="-4.61781">
        <ele>129.38</ele>
        <time>2021-03-20T19:32:51Z</time>
      </trkpt>
      <trkpt lat="58.33311" lon="-4.61743">
        <ele>130.43</ele>
        <time>2021-03-20T19:32:55Z</time>
      </trkpt>
      <trkpt lat="58.33305" lon="-4.61695">
        <ele>130.98</ele>
        <time>2021-03-20T19:32:58Z</time>
      </trkpt>
      <trkpt lat="58.33268" lon="-4.61215">
        <ele>137.64</ele>
        <time>2021-03-20T19:33:01Z</time>
      </trkpt>
      <trkpt lat="58.33256" lon="-4.6113">
        <ele>138.07</ele>
        <time>2021-03-20T19:33:05Z</time>
      </trkpt>
      <trkpt lat="58.33193" lon="-4.60811">
        <ele>139.93</ele>
        <time>2021-03-20T19:33:08Z</time>
      </trkpt>
      <trkpt lat="58.33183" lon="-4.6074">
        <ele>140.59</ele>
        <time>2021-03-20T19:33:11Z</time>
      </trkpt>
      <trkpt lat="58.33139" lon="-4.60251">
        <ele>144</ele>
        <time>2021-03-20T19:33:15Z</time>
      </trkpt>
      <trkpt lat="58.33135" lon="-4.60209">
        <ele>144</ele>
        <time>2021-03-20T19:33:18Z</time>
      </trkpt>
      <trkpt lat="58.33124" lon="-4.6016">
        <ele>144</ele>
        <time>2021-03-20T19:33:21Z</time>
      </trkpt>
      <trkpt lat="58.33004" lon="-4.59693">
        <ele>145.07</ele>
        <time>2021-03-20T19:33:24Z</time>
      </trkpt>
      <trkpt lat="58.32982" lon="-4.59632">
        <ele>145.6</ele>
        <time>2021-03-20T19:33:28Z</time>
      </trkpt>
      <trkpt lat="58.32965" lon="-4.59598">
        <ele>146.35</ele>
        <time>2021-03-20T19:33:31Z</time>
      </trkpt>
      <trkpt lat="58.3294" lon="-4.5957">
        <ele>146.33</ele>
        <time>2021-03-20T19:33:34Z</time>
      </trkpt>
      <trkpt lat="58.32927" lon="-4.59546">
        <ele>146.37</ele>
        <time>2021-03-20T19:33:38Z</time>
      </trkpt>
      <trkpt lat="58.32885" lon="-4.59379">
        <ele>145.86</ele>
        <time>2021-03-20T19:33:41Z</time>
      </trkpt>
      <trkpt lat="58.32873" lon="-4.59338">
        <ele>146.25</ele>
        <time>2021-03-20T19:33:44Z</time>
      </trkpt>
      <trkpt lat="58.32857" lon="-4.59301">
        <ele>146.86</ele>
        <time>2021-03-20T19:33:48Z</time>
      </trkpt>
      <trkpt lat="58.32818" lon="-4.5925">
        <ele>147.02</ele>
        <time>2021-03-20T19:33:51Z</time>
      </trkpt>
      <trkpt lat="58.32753" lon="-4.59179">
        <ele>150.52</ele>
        <time>2021-03-20T19:33:54Z</time>
      </trkpt>
      <trkpt lat="58.32744" lon="-4.59155">
        <ele>150.56</ele>
        <time>2021-03-20T19:33:58Z</time>
      </trkpt>
      <trkpt lat="58.32725" lon="-4.59071">
        <ele>150.08</ele>
        <time>2021-03-20T19:34:01Z</time>
      </trkpt>
      <trkpt lat="58.32711" lon="-4.59041">
        <ele>149.61</ele>
        <time>2021-03-20T19:34:04Z</time>
      </trkpt>
      <trkpt lat="58.32694" lon="-4.59016">
        <ele>149.43</ele>
        <time>2021-03-20T19:34:08Z</time>
      </trkpt>
      <trkpt lat="58.32671" lon="-4.58999">
        <ele>150.01</ele>
        <time>2021-03-20T19:34:11Z</time>
      </trkpt>
      <trkpt lat="58.32597" lon="-4.58964">
        <ele>149.16</ele>
        <time>2021-03-20T19:34:14Z</time>
      </trkpt>
      <trkpt lat="58.32559" lon="-4.58916">
        <ele>149.89</ele>
        <time>2021-03-20T19:34:18Z</time>
      </trkpt>
      <trkpt lat="58.32531" lon="-4.58892">
        <ele>151.01</ele>
        <time>2021-03-20T19:34:21Z</time>
      </trkpt>
      <trkpt lat="58.32502" lon="-4.58881">
        <ele>151.94</ele>
        <time>2021-03-20T19:34:24Z</time>
      </trkpt>
      <trkpt lat="58.32456" lon="-4.5888">
        <ele>154</ele>
        <time>2021-03-20T19:34:28Z</time>
      </trkpt>
      <trkpt lat="58.32278" lon="-4.5877">
        <ele>158</ele>
        <time>2021-03-20T19:34:31Z</time>
      </trkpt>
      <trkpt lat="58.32215" lon="-4.58724">
        <ele>160.52</ele>
        <time>2021-03-20T19:34:34Z</time>
      </trkpt>
      <trkpt lat="58.32188" lon="-4.58699">
        <ele>162.49</ele>
        <time>2021-03-20T19:34:37Z</time>
      </trkpt>
      <trkpt lat="58.32162" lon="-4.58667">
        <ele>163.19</ele>
        <time>2021-03-20T19:34:41Z</time>
      </trkpt>
      <trkpt lat="58.32132" lon="-4.58621">
        <ele>163.34</ele>
        <time>2021-03-20T19:34:44Z</time>
      </trkpt>
      <trkpt lat="58.32112" lon="-4.58578">
        <ele>162.82</ele>
        <time>2021-03-20T19:34:47Z</time>
      </trkpt>
      <trkpt lat="58.321" lon="-4.58536">
        <ele>162.4</ele>
        <time>2021-03-20T19:34:51Z</time>
      </trkpt>
      <trkpt lat="58.32085" lon="-4.58473">
        <ele>162.93</ele>
        <time>2021-03-20T19:34:54Z</time>
      </trkpt>
      <trkpt lat="58.32072" lon="-4.58435">
        <ele>163.79</ele>
        <time>2021-03-20T19:34:57Z</time>
      </trkpt>
      <trkpt lat="58.31997" lon="-4.58241">
        <ele>167.69</ele>
        <time>2021-03-20T19:35:01Z</time>
      </trkpt>
      <trkpt lat="58.31884" lon="-4.57938">
        <ele>165.71</ele>
        <time>2021-03-20T19:35:04Z</time>
      </trkpt>
      <trkpt lat="58.31862" lon="-4.57898">
        <ele>164.63</ele>
        <time>2021-03-20T19:35:07Z</time>
      </trkpt>
      <trkpt lat="58.3182" lon="-4.57814">
        <ele>163.26</ele>
        <time>2021-03-20T19:35:11Z</time>
      </trkpt>
      <trkpt lat="58.31812" lon="-4.57784">
        <ele>162.74</ele>
        <time>2021-03-20T19:35:14Z</time>
      </trkpt>
      <trkpt lat="58.31808" lon="-4.57745">
        <ele>161.63</ele>
        <time>2021-03-20T19:35:17Z</time>
      </trkpt>
      <trkpt lat="58.31808" lon="-4.57631">
        <ele>157.53</ele>
        <time>2021-03-20T19:35:21Z</time>
      </trkpt>
      <trkpt lat="58.31812" lon="-4.57498">
        <ele>156.35</ele>
        <time>2021-03-20T19:35:24Z</time>
      </trkpt>
      <trkpt lat="58.3181" lon="-4.5748">
        <ele>156.47</ele>
        <time>2021-03-20T19:35:27Z</time>
      </trkpt>
      <trkpt lat="58.318" lon="-4.57448">
        <ele>156.56</ele>
        <time>2021-03-20T19:35:31Z</time>
      </trkpt>
      <trkpt lat="58.31753" lon="-4.57378">
        <ele>156</ele>
        <time>2021-03-20T19:35:34Z</time>
      </trkpt>
      <trkpt lat="58.31674" lon="-4.57279">
        <ele>157.03</ele>
        <time>2021-03-20T19:35:37Z</time>
      </trkpt>
      <trkpt lat="58.31654" lon="-4.57241">
        <ele>157.29</ele>
        <time>2021-03-20T19:35:40Z</time>
      </trkpt>
      <trkpt lat="58.31642" lon="-4.57206">
        <ele>156.94</ele>
        <time>2021-03-20T19:35:44Z</time>
      </trkpt>
      <trkpt lat="58.31627" lon="-4.57153">
        <ele>156.45</ele>
        <time>2021-03-20T19:35:47Z</time>
      </trkpt>
      <trkpt lat="58.3157" lon="-4.56884">
        <ele>154.38</ele>
        <time>2021-03-20T19:35:50Z</time>
      </trkpt>
      <trkpt lat="58.31548" lon="-4.56803">
        <ele>152.72</ele>
        <time>2021-03-20T19:35:54Z</time>
      </trkpt>
      <trkpt lat="58.31536" lon="-4.56741">
        <ele>152.41</ele>
        <time>2021-03-20T19:35:57Z</time>
      </trkpt>
      <trkpt lat="58.31522" lon="-4.56634">
        <ele>152.39</ele>
        <time>2021-03-20T19:36:00Z</time>
      </trkpt>
      <trkpt lat="58.31513" lon="-4.56607">
        <ele>152.98</ele>
        <time>2021-03-20T19:36:04Z</time>
      </trkpt>
      <trkpt lat="58.31486" lon="-4.56554">
        <ele>152.51</ele>
        <time>2021-03-20T19:36:07Z</time>
      </trkpt>
      <trkpt lat="58.31465" lon="-4.56476">
        <ele>152</ele>
        <time>2021-03-20T19:36:10Z</time>
      </trkpt>
      <trkpt lat="58.31404" lon="-4.56259">
        <ele>151.53</ele>
        <time>2021-03-20T19:36:14Z</time>
      </trkpt>
      <trkpt lat="58.31393" lon="-4.56198">
        <ele>152.16</ele>
        <time>2021-03-20T19:36:17Z</time>
      </trkpt>
      <trkpt lat="58.31389" lon="-4.56122">
        <ele>152.01</ele>
        <time>2021-03-20T19:36:20Z</time>
      </trkpt>
      <trkpt lat="58.31382" lon="-4.56046">
        <ele>152.74</ele>
        <time>2021-03-20T19:36:24Z</time>
      </trkpt>
      <trkpt lat="58.31368" lon="-4.55975">
        <ele>151.52</ele>
        <time>2021-03-20T19:36:27Z</time>
      </trkpt>
      <trkpt lat="58.31337" lon="-4.55855">
        <ele>150.67</ele>
        <time>2021-03-20T19:36:30Z</time>
      </trkpt>
      <trkpt lat="58.313" lon="-4.55759">
        <ele>150.19</ele>
        <time>2021-03-20T19:36:34Z</time>
      </trkpt>
      <trkpt lat="58.3129" lon="-4.55702">
        <ele>151</ele>
        <time>2021-03-20T19:36:37Z</time>
      </trkpt>
      <trkpt lat="58.31288" lon="-4.55648">
        <ele>152.24</ele>
        <time>2021-03-20T19:36:40Z</time>
      </trkpt>
      <trkpt lat="58.31279" lon="-4.55598">
        <ele>153.05</ele>
        <time>2021-03-20T19:36:44Z</time>
      </trkpt>
      <trkpt lat="58.31265" lon="-4.55542">
        <ele>153.1</ele>
        <time>2021-03-20T19:36:47Z</time>
      </trkpt>
      <trkpt lat="58.31265" lon="-4.55513">
        <ele>153.33</ele>
        <time>2021-03-20T19:36:50Z</time>
      </trkpt>
      <trkpt lat="58.31269" lon="-4.55468">
        <ele>153.69</ele>
        <time>2021-03-20T19:36:53Z</time>
      </trkpt>
      <trkpt lat="58.3127" lon="-4.55407">
        <ele>154.06</ele>
        <time>2021-03-20T19:36:57Z</time>
      </trkpt>
      <trkpt lat="58.31274" lon="-4.55385">
        <ele>154.86</ele>
        <time>2021-03-20T19:37:00Z</time>
      </trkpt>
      <trkpt lat="58.31303" lon="-4.55296">
        <ele>156.92</ele>
        <time>2021-03-20T19:37:03Z</time>
      </trkpt>
      <trkpt lat="58.31305" lon="-4.55268">
        <ele>156.97</ele>
        <time>2021-03-20T19:37:07Z</time>
      </trkpt>
      <trkpt lat="58.31304" lon="-4.55212">
        <ele>157.92</ele>
        <time>2021-03-20T19:37:10Z</time>
      </trkpt>
      <trkpt lat="58.31297" lon="-4.5516">
        <ele>158.37</ele>
        <time>2021-03-20T19:37:13Z</time>
      </trkpt>
      <trkpt lat="58.3128" lon="-4.55107">
        <ele>158.14</ele>
        <time>2021-03-20T19:37:17Z</time>
      </trkpt>
      <trkpt lat="58.31238" lon="-4.55026">
        <ele>158.08</ele>
        <time>2021-03-20T19:37:20Z</time>
      </trkpt>
      <trkpt lat="58.31112" lon="-4.54861">
        <ele>162.02</ele>
        <time>2021-03-20T19:37:23Z</time>
      </trkpt>
      <trkpt lat="58.31086" lon="-4.54832">
        <ele>162.15</ele>
        <time>2021-03-20T19:37:27Z</time>
      </trkpt>
      <trkpt lat="58.31048" lon="-4.54807">
        <ele>162.67</ele>
        <time>2021-03-20T19:37:30Z</time>
      </trkpt>
      <trkpt lat="58.3102" lon="-4.54799">
        <ele>162.49</ele>
        <time>2021-03-20T19:37:33Z</time>
      </trkpt>
      <trkpt lat="58.30949" lon="-4.54768">
        <ele>164.35</ele>
        <time>2021-03-20T19:37:37Z</time>
      </trkpt>
      <trkpt lat="58.30909" lon="-4.54747">
        <ele>164.87</ele>
        <time>2021-03-20T19:37:40Z</time>
      </trkpt>
      <trkpt lat="58.30885" lon="-4.54729">
        <ele>164.41</ele>
        <time>2021-03-20T19:37:43Z</time>
      </trkpt>
      <trkpt lat="58.30834" lon="-4.54678">
        <ele>163.19</ele>
        <time>2021-03-20T19:37:47Z</time>
      </trkpt>
      <trkpt lat="58.30803" lon="-4.54636">
        <ele>163.01</ele>
        <time>2021-03-20T19:37:50Z</time>
      </trkpt>
      <trkpt lat="58.30702" lon="-4.54467">
        <ele>160.34</ele>
        <time>2021-03-20T19:37:53Z</time>
      </trkpt>
      <trkpt lat="58.3065" lon="-4.54403">
        <ele>158.88</ele>
        <time>2021-03-20T19:37:57Z</time>
      </trkpt>
      <trkpt lat="58.30611" lon="-4.5436">
        <ele>158.05</ele>
        <time>2021-03-20T19:38:00Z</time>
      </trkpt>
      <trkpt lat="58.30511" lon="-4.54254">
        <ele>157</ele>
        <time>2021-03-20T19:38:03Z</time>
      </trkpt>
      <trkpt lat="58.3038" lon="-4.54122">
        <ele>155.27</ele>
        <time>2021-03-20T19:38:06Z</time>
      </trkpt>
      <trkpt lat="58.30343" lon="-4.54076">
        <ele>156.55</ele>
        <time>2021-03-20T19:38:10Z</time>
      </trkpt>
      <trkpt lat="58.30306" lon="-4.54025">
        <ele>157.25</ele>
        <time>2021-03-20T19:38:13Z</time>
      </trkpt>
      <trkpt lat="58.30273" lon="-4.53964">
        <ele>156.84</ele>
        <time>2021-03-20T19:38:16Z</time>
      </trkpt>
      <trkpt lat="58.30237" lon="-4.53891">
        <ele>156.96</ele>
        <time>2021-03-20T19:38:20Z</time>
      </trkpt>
      <trkpt lat="58.30168" lon="-4.53739">
        <ele>153.53</ele>
        <time>2021-03-20T19:38:23Z</time>
      </trkpt>
      <trkpt lat="58.30124" lon="-4.53631">
        <ele>153.07</ele>
        <time>2021-03-20T19:38:26Z</time>
      </trkpt>
      <trkpt lat="58.30096" lon="-4.5355">
        <ele>151.38</ele>
        <time>2021-03-20T19:38:30Z</time>
      </trkpt>
      <trkpt lat="58.30059" lon="-4.53476">
        <ele>147.21</ele>
        <time>2021-03-20T19:38:33Z</time>
      </trkpt>
      <trkpt lat="58.30033" lon="-4.53434">
        <ele>145.1</ele>
        <time>2021-03-20T19:38:36Z</time>
      </trkpt>
      <trkpt lat="58.30014" lon="-4.53395">
        <ele>143.71</ele>
        <time>2021-03-20T19:38:40Z</time>
      </trkpt>
      <trkpt lat="58.29999" lon="-4.53354">
        <ele>142</ele>
        <time>2021-03-20T19:38:43Z</time>
      </trkpt>
      <trkpt lat="58.2998" lon="-4.53287">
        <ele>140</ele>
        <time>2021-03-20T19:38:46Z</time>
      </trkpt>
      <trkpt lat="58.2996" lon="-4.53192">
        <ele>137.76</ele>
        <time>2021-03-20T19:38:50Z</time>
      </trkpt>
      <trkpt lat="58.2996" lon="-4.53162">
        <ele>138.2</ele>
        <time>2021-03-20T19:38:53Z</time>
      </trkpt>
      <trkpt lat="58.29964" lon="-4.5311">
        <ele>138.11</ele>
        <time>2021-03-20T19:38:56Z</time>
      </trkpt>
      <trkpt lat="58.29967" lon="-4.53047">
        <ele>137.6</ele>
        <time>2021-03-20T19:39:00Z</time>
      </trkpt>
      <trkpt lat="58.29965" lon="-4.52976">
        <ele>137.51</ele>
        <time>2021-03-20T19:39:03Z</time>
      </trkpt>
      <trkpt lat="58.29962" lon="-4.52933">
        <ele>136.9</ele>
        <time>2021-03-20T19:39:06Z</time>
      </trkpt>
      <trkpt lat="58.29938" lon="-4.52775">
        <ele>133.1</ele>
        <time>2021-03-20T19:39:10Z</time>
      </trkpt>
      <trkpt lat="58.29903" lon="-4.52577">
        <ele>128.83</ele>
        <time>2021-03-20T19:39:13Z</time>
      </trkpt>
      <trkpt lat="58.29901" lon="-4.52549">
        <ele>128.08</ele>
        <time>2021-03-20T19:39:16Z</time>
      </trkpt>
      <trkpt lat="58.29905" lon="-4.52484">
        <ele>126.41</ele>
        <time>2021-03-20T19:39:19Z</time>
      </trkpt>
      <trkpt lat="58.29904" lon="-4.52463">
        <ele>125.76</ele>
        <time>2021-03-20T19:39:23Z</time>
      </trkpt>
      <trkpt lat="58.29901" lon="-4.52436">
        <ele>124.84</ele>
        <time>2021-03-20T19:39:26Z</time>
      </trkpt>
      <trkpt lat="58.29886" lon="-4.52375">
        <ele>123.9</ele>
        <time>2021-03-20T19:39:29Z</time>
      </trkpt>
      <trkpt lat="58.29848" lon="-4.52238">
        <ele>124.43</ele>
        <time>2021-03-20T19:39:33Z</time>
      </trkpt>
      <trkpt lat="58.29828" lon="-4.52175">
        <ele>125.7</ele>
        <time>2021-03-20T19:39:36Z</time>
      </trkpt>
      <trkpt lat="58.29791" lon="-4.52084">
        <ele>126</ele>
        <time>2021-03-20T19:39:39Z</time>
      </trkpt>
      <trkpt lat="58.29591" lon="-4.51634">
        <ele>122.82</ele>
        <time>2021-03-20T19:39:43Z</time>
      </trkpt>
      <trkpt lat="58.29578" lon="-4.51611">
        <ele>122</ele>
        <time>2021-03-20T19:39:46Z</time>
      </trkpt>
      <trkpt lat="58.29563" lon="-4.516">
        <ele>122</ele>
        <time>2021-03-20T19:39:49Z</time>
      </trkpt>
      <trkpt lat="58.29516" lon="-4.51586">
        <ele>120.96</ele>
        <time>2021-03-20T19:39:53Z</time>
      </trkpt>
      <trkpt lat="58.29492" lon="-4.51575">
        <ele>121.96</ele>
        <time>2021-03-20T19:39:56Z</time>
      </trkpt>
      <trkpt lat="58.29478" lon="-4.51563">
        <ele>123.86</ele>
        <time>2021-03-20T19:39:59Z</time>
      </trkpt>
      <trkpt lat="58.29433" lon="-4.51506">
        <ele>130.93</ele>
        <time>2021-03-20T19:40:03Z</time>
      </trkpt>
      <trkpt lat="58.29403" lon="-4.51478">
        <ele>131.31</ele>
        <time>2021-03-20T19:40:06Z</time>
      </trkpt>
      <trkpt lat="58.29374" lon="-4.51455">
        <ele>132.35</ele>
        <time>2021-03-20T19:40:09Z</time>
      </trkpt>
      <trkpt lat="58.29343" lon="-4.51437">
        <ele>132.52</ele>
        <time>2021-03-20T19:40:13Z</time>
      </trkpt>
      <trkpt lat="58.29294" lon="-4.51414">
        <ele>132.48</ele>
        <time>2021-03-20T19:40:16Z</time>
      </trkpt>
      <trkpt lat="58.29224" lon="-4.51356">
        <ele>133.7</ele>
        <time>2021-03-20T19:40:19Z</time>
      </trkpt>
      <trkpt lat="58.29147" lon="-4.51307">
        <ele>132.49</ele>
        <time>2021-03-20T19:40:23Z</time>
      </trkpt>
      <trkpt lat="58.29128" lon="-4.51292">
        <ele>132.37</ele>
        <time>2021-03-20T19:40:26Z</time>
      </trkpt>
      <trkpt lat="58.29106" lon="-4.51253">
        <ele>134</ele>
        <time>2021-03-20T19:40:29Z</time>
      </trkpt>
      <trkpt lat="58.29051" lon="-4.51141">
        <ele>134.96</ele>
        <time>2021-03-20T19:40:32Z</time>
      </trkpt>
      <trkpt lat="58.29041" lon="-4.51116">
        <ele>134.14</ele>
        <time>2021-03-20T19:40:36Z</time>
      </trkpt>
      <trkpt lat="58.29028" lon="-4.51058">
        <ele>134.8</ele>
        <time>2021-03-20T19:40:39Z</time>
      </trkpt>
      <trkpt lat="58.28999" lon="-4.50967">
        <ele>135.07</ele>
        <time>2021-03-20T19:40:42Z</time>
      </trkpt>
      <trkpt lat="58.28983" lon="-4.50932">
        <ele>133.33</ele>
        <time>2021-03-20T19:40:46Z</time>
      </trkpt>
      <trkpt lat="58.28962" lon="-4.50902">
        <ele>130.88</ele>
        <time>2021-03-20T19:40:49Z</time>
      </trkpt>
      <trkpt lat="58.28947" lon="-4.50874">
        <ele>128.59</ele>
        <time>2021-03-20T19:40:52Z</time>
      </trkpt>
      <trkpt lat="58.28939" lon="-4.50853">
        <ele>127.54</ele>
        <time>2021-03-20T19:40:56Z</time>
      </trkpt>
      <trkpt lat="58.28936" lon="-4.50833">
        <ele>127.77</ele>
        <time>2021-03-20T19:40:59Z</time>
      </trkpt>
      <trkpt lat="58.28933" lon="-4.50797">
        <ele>127.39</ele>
        <time>2021-03-20T19:41:02Z</time>
      </trkpt>
      <trkpt lat="58.28933" lon="-4.50745">
        <ele>127.42</ele>
        <time>2021-03-20T19:41:06Z</time>
      </trkpt>
      <trkpt lat="58.28928" lon="-4.50658">
        <ele>128.26</ele>
        <time>2021-03-20T19:41:09Z</time>
      </trkpt>
      <trkpt lat="58.28911" lon="-4.50538">
        <ele>127.24</ele>
        <time>2021-03-20T19:41:12Z</time>
      </trkpt>
      <trkpt lat="58.28892" lon="-4.50412">
        <ele>125.56</ele>
        <time>2021-03-20T19:41:16Z</time>
      </trkpt>
      <trkpt lat="58.28888" lon="-4.50369">
        <ele>125.92</ele>
        <time>2021-03-20T19:41:19Z</time>
      </trkpt>
      <trkpt lat="58.28888" lon="-4.50279">
        <ele>126.87</ele>
        <time>2021-03-20T19:41:22Z</time>
      </trkpt>
      <trkpt lat="58.2888" lon="-4.50206">
        <ele>126.66</ele>
        <time>2021-03-20T19:41:26Z</time>
      </trkpt>
      <trkpt lat="58.28876" lon="-4.50148">
        <ele>126.69</ele>
        <time>2021-03-20T19:41:29Z</time>
      </trkpt>
      <trkpt lat="58.28873" lon="-4.49906">
        <ele>123.96</ele>
        <time>2021-03-20T19:41:32Z</time>
      </trkpt>
      <trkpt lat="58.28875" lon="-4.49855">
        <ele>123.26</ele>
        <time>2021-03-20T19:41:36Z</time>
      </trkpt>
      <trkpt lat="58.2888" lon="-4.49804">
        <ele>123.02</ele>
        <time>2021-03-20T19:41:39Z</time>
      </trkpt>
      <trkpt lat="58.28894" lon="-4.49712">
        <ele>122.46</ele>
        <time>2021-03-20T19:41:42Z</time>
      </trkpt>
      <trkpt lat="58.28917" lon="-4.49504">
        <ele>117.15</ele>
        <time>2021-03-20T19:41:45Z</time>
      </trkpt>
      <trkpt lat="58.28927" lon="-4.49442">
        <ele>116.43</ele>
        <time>2021-03-20T19:41:49Z</time>
      </trkpt>
      <trkpt lat="58.28944" lon="-4.49385">
        <ele>116.74</ele>
        <time>2021-03-20T19:41:52Z</time>
      </trkpt>
      <trkpt lat="58.28958" lon="-4.49314">
        <ele>115.67</ele>
        <time>2021-03-20T19:41:55Z</time>
      </trkpt>
      <trkpt lat="58.28975" lon="-4.49216">
        <ele>113.08</ele>
        <time>2021-03-20T19:41:59Z</time>
      </trkpt>
      <trkpt lat="58.28987" lon="-4.49163">
        <ele>111.93</ele>
        <time>2021-03-20T19:42:02Z</time>
      </trkpt>
      <trkpt lat="58.29036" lon="-4.49015">
        <ele>108.3</ele>
        <time>2021-03-20T19:42:05Z</time>
      </trkpt>
      <trkpt lat="58.29188" lon="-4.4865">
        <ele>110.28</ele>
        <time>2021-03-20T19:42:09Z</time>
      </trkpt>
      <trkpt lat="58.292" lon="-4.48612">
        <ele>109</ele>
        <time>2021-03-20T19:42:12Z</time>
      </trkpt>
      <trkpt lat="58.29206" lon="-4.48576">
        <ele>108.64</ele>
        <time>2021-03-20T19:42:15Z</time>
      </trkpt>
      <trkpt lat="58.29215" lon="-4.48504">
        <ele>108.63</ele>
        <time>2021-03-20T19:42:19Z</time>
      </trkpt>
      <trkpt lat="58.29271" lon="-4.48165">
        <ele>103.22</ele>
        <time>2021-03-20T19:42:22Z</time>
      </trkpt>
      <trkpt lat="58.29276" lon="-4.48117">
        <ele>103.02</ele>
        <time>2021-03-20T19:42:25Z</time>
      </trkpt>
      <trkpt lat="58.29277" lon="-4.48072">
        <ele>102.47</ele>
        <time>2021-03-20T19:42:29Z</time>
      </trkpt>
      <trkpt lat="58.29266" lon="-4.47971">
        <ele>99.19</ele>
        <time>2021-03-20T19:42:32Z</time>
      </trkpt>
      <trkpt lat="58.29267" lon="-4.47932">
        <ele>97.6</ele>
        <time>2021-03-20T19:42:35Z</time>
      </trkpt>
      <trkpt lat="58.29276" lon="-4.47894">
        <ele>96.3</ele>
        <time>2021-03-20T19:42:39Z</time>
      </trkpt>
      <trkpt lat="58.29309" lon="-4.47802">
        <ele>95.11</ele>
        <time>2021-03-20T19:42:42Z</time>
      </trkpt>
      <trkpt lat="58.29321" lon="-4.47773">
        <ele>95.12</ele>
        <time>2021-03-20T19:42:45Z</time>
      </trkpt>
      <trkpt lat="58.29336" lon="-4.47754">
        <ele>96.18</ele>
        <time>2021-03-20T19:42:49Z</time>
      </trkpt>
      <trkpt lat="58.29388" lon="-4.47708">
        <ele>96.98</ele>
        <time>2021-03-20T19:42:52Z</time>
      </trkpt>
      <trkpt lat="58.29406" lon="-4.47683">
        <ele>96.59</ele>
        <time>2021-03-20T19:42:55Z</time>
      </trkpt>
      <trkpt lat="58.29422" lon="-4.47641">
        <ele>96.41</ele>
        <time>2021-03-20T19:42:58Z</time>
      </trkpt>
      <trkpt lat="58.29429" lon="-4.47608">
        <ele>96.45</ele>
        <time>2021-03-20T19:43:02Z</time>
      </trkpt>
      <trkpt lat="58.29435" lon="-4.4757">
        <ele>96.17</ele>
        <time>2021-03-20T19:43:05Z</time>
      </trkpt>
      <trkpt lat="58.29435" lon="-4.47523">
        <ele>95.77</ele>
        <time>2021-03-20T19:43:08Z</time>
      </trkpt>
      <trkpt lat="58.29431" lon="-4.47484">
        <ele>96.03</ele>
        <time>2021-03-20T19:43:12Z</time>
      </trkpt>
      <trkpt lat="58.29424" lon="-4.47439">
        <ele>96.26</ele>
        <time>2021-03-20T19:43:15Z</time>
      </trkpt>
      <trkpt lat="58.29403" lon="-4.47347">
        <ele>94.28</ele>
        <time>2021-03-20T19:43:18Z</time>
      </trkpt>
      <trkpt lat="58.29375" lon="-4.47147">
        <ele>96.51</ele>
        <time>2021-03-20T19:43:22Z</time>
      </trkpt>
      <trkpt lat="58.29364" lon="-4.47048">
        <ele>97.08</ele>
        <time>2021-03-20T19:43:25Z</time>
      </trkpt>
      <trkpt lat="58.29362" lon="-4.47007">
        <ele>96.27</ele>
        <time>2021-03-20T19:43:28Z</time>
      </trkpt>
      <trkpt lat="58.2936" lon="-4.46864">
        <ele>96.91</ele>
        <time>2021-03-20T19:43:32Z</time>
      </trkpt>
      <trkpt lat="58.29356" lon="-4.46836">
        <ele>97.54</ele>
        <time>2021-03-20T19:43:35Z</time>
      </trkpt>
      <trkpt lat="58.29349" lon="-4.46808">
        <ele>97.62</ele>
        <time>2021-03-20T19:43:38Z</time>
      </trkpt>
      <trkpt lat="58.29317" lon="-4.46745">
        <ele>96.45</ele>
        <time>2021-03-20T19:43:42Z</time>
      </trkpt>
      <trkpt lat="58.29306" lon="-4.4671">
        <ele>96.01</ele>
        <time>2021-03-20T19:43:45Z</time>
      </trkpt>
      <trkpt lat="58.29295" lon="-4.46669">
        <ele>95.76</ele>
        <time>2021-03-20T19:43:48Z</time>
      </trkpt>
      <trkpt lat="58.29287" lon="-4.46615">
        <ele>96.82</ele>
        <time>2021-03-20T19:43:52Z</time>
      </trkpt>
      <trkpt lat="58.29283" lon="-4.46563">
        <ele>97.43</ele>
        <time>2021-03-20T19:43:55Z</time>
      </trkpt>
      <trkpt lat="58.29282" lon="-4.46501">
        <ele>98.54</ele>
        <time>2021-03-20T19:43:58Z</time>
      </trkpt>
      <trkpt lat="58.29285" lon="-4.46416">
        <ele>99.74</ele>
        <time>2021-03-20T19:44:02Z</time>
      </trkpt>
      <trkpt lat="58.29293" lon="-4.46273">
        <ele>101.73</ele>
        <time>2021-03-20T19:44:05Z</time>
      </trkpt>
      <trkpt lat="58.293" lon="-4.46227">
        <ele>102.27</ele>
        <time>2021-03-20T19:44:08Z</time>
      </trkpt>
      <trkpt lat="58.29318" lon="-4.46131">
        <ele>101.93</ele>
        <time>2021-03-20T19:44:11Z</time>
      </trkpt>
      <trkpt lat="58.29323" lon="-4.46077">
        <ele>101.85</ele>
        <time>2021-03-20T19:44:15Z</time>
      </trkpt>
      <trkpt lat="58.29323" lon="-4.45855">
        <ele>101.67</ele>
        <time>2021-03-20T19:44:18Z</time>
      </trkpt>
      <trkpt lat="58.29313" lon="-4.45734">
        <ele>99.69</ele>
        <time>2021-03-20T19:44:21Z</time>
      </trkpt>
      <trkpt lat="58.29301" lon="-4.45641">
        <ele>96.19</ele>
        <time>2021-03-20T19:44:25Z</time>
      </trkpt>
      <trkpt lat="58.293" lon="-4.45611">
        <ele>94.99</ele>
        <time>2021-03-20T19:44:28Z</time>
      </trkpt>
      <trkpt lat="58.29302" lon="-4.45586">
        <ele>93.69</ele>
        <time>2021-03-20T19:44:31Z</time>
      </trkpt>
      <trkpt lat="58.29309" lon="-4.45553">
        <ele>92.24</ele>
        <time>2021-03-20T19:44:35Z</time>
      </trkpt>
      <trkpt lat="58.29348" lon="-4.45389">
        <ele>90.6</ele>
        <time>2021-03-20T19:44:38Z</time>
      </trkpt>
      <trkpt lat="58.29405" lon="-4.45091">
        <ele>90.33</ele>
        <time>2021-03-20T19:44:41Z</time>
      </trkpt>
      <trkpt lat="58.2941" lon="-4.4505">
        <ele>90.23</ele>
        <time>2021-03-20T19:44:45Z</time>
      </trkpt>
      <trkpt lat="58.2941" lon="-4.45009">
        <ele>90.96</ele>
        <time>2021-03-20T19:44:48Z</time>
      </trkpt>
      <trkpt lat="58.29401" lon="-4.44931">
        <ele>91.43</ele>
        <time>2021-03-20T19:44:51Z</time>
      </trkpt>
      <trkpt lat="58.29395" lon="-4.44899">
        <ele>91.97</ele>
        <time>2021-03-20T19:44:55Z</time>
      </trkpt>
      <trkpt lat="58.29385" lon="-4.44874">
        <ele>92.61</ele>
        <time>2021-03-20T19:44:58Z</time>
      </trkpt>
      <trkpt lat="58.29366" lon="-4.44853">
        <ele>92.12</ele>
        <time>2021-03-20T19:45:01Z</time>
      </trkpt>
      <trkpt lat="58.29233" lon="-4.44737">
        <ele>89.68</ele>
        <time>2021-03-20T19:45:05Z</time>
      </trkpt>
      <trkpt lat="58.29218" lon="-4.44721">
        <ele>89.77</ele>
        <time>2021-03-20T19:45:08Z</time>
      </trkpt>
      <trkpt lat="58.29154" lon="-4.44621">
        <ele>89.3</ele>
        <time>2021-03-20T19:45:11Z</time>
      </trkpt>
      <trkpt lat="58.2908" lon="-4.44547">
        <ele>85.08</ele>
        <time>2021-03-20T19:45:15Z</time>
      </trkpt>
      <trkpt lat="58.29047" lon="-4.44509">
        <ele>84.07</ele>
        <time>2021-03-20T19:45:18Z</time>
      </trkpt>
      <trkpt lat="58.28842" lon="-4.44202">
        <ele>80.59</ele>
        <time>2021-03-20T19:45:21Z</time>
      </trkpt>
      <trkpt lat="58.2884" lon="-4.44027">
        <ele>81.28</ele>
        <time>2021-03-20T19:45:25Z</time>
      </trkpt>
      <trkpt lat="58.2883" lon="-4.43846">
        <ele>87.35</ele>
        <time>2021-03-20T19:45:28Z</time>
      </trkpt>
      <trkpt lat="58.28826" lon="-4.43722">
        <ele>90.5</ele>
        <time>2021-03-20T19:45:32Z</time>
      </trkpt>
      <trkpt lat="58.28811" lon="-4.43562">
        <ele>91.37</ele>
        <time>2021-03-20T19:45:35Z</time>
      </trkpt>
      <trkpt lat="58.288" lon="-4.43498">
        <ele>92.44</ele>
        <time>2021-03-20T19:45:39Z</time>
      </trkpt>
      <trkpt lat="58.28784" lon="-4.43463">
        <ele>92.33</ele>
        <time>2021-03-20T19:45:42Z</time>
      </trkpt>
      <trkpt lat="58.28714" lon="-4.43373">
        <ele>93.57</ele>
        <time>2021-03-20T19:45:45Z</time>
      </trkpt>
      <trkpt lat="58.28686" lon="-4.43313">
        <ele>95.5</ele>
        <time>2021-03-20T19:45:49Z</time>
      </trkpt>
      <trkpt lat="58.28646" lon="-4.43208">
        <ele>97.27</ele>
        <time>2021-03-20T19:45:52Z</time>
      </trkpt>
      <trkpt lat="58.28616" lon="-4.43107">
        <ele>98.67</ele>
        <time>2021-03-20T19:45:56Z</time>
      </trkpt>
      <trkpt lat="58.28607" lon="-4.43067">
        <ele>99.05</ele>
        <time>2021-03-20T19:45:59Z</time>
      </trkpt>
      <trkpt lat="58.28597" lon="-4.42973">
        <ele>100</ele>
        <time>2021-03-20T19:46:03Z</time>
      </trkpt>
      <trkpt lat="58.28595" lon="-4.429">
        <ele>100.41</ele>
        <time>2021-03-20T19:46:06Z</time>
      </trkpt>
      <trkpt lat="58.28594" lon="-4.42737">
        <ele>99.19</ele>
        <time>2021-03-20T19:46:10Z</time>
      </trkpt>
      <trkpt lat="58.28568" lon="-4.42206">
        <ele>97.64</ele>
        <time>2021-03-20T19:46:13Z</time>
      </trkpt>
      <trkpt lat="58.28568" lon="-4.42206">
        <ele>97.64</ele>
        <time>2021-03-20T19:46:13Z</time>
      </trkpt>
      <trkpt lat="58.28559" lon="-4.42024">
        <ele>96.09</ele>
        <time>2021-03-20T19:46:16Z</time>
      </trkpt>
      <trkpt lat="58.28529" lon="-4.4181">
        <ele>97.04</ele>
        <time>2021-03-20T19:46:18Z</time>
      </trkpt>
      <trkpt lat="58.2852" lon="-4.41778">
        <ele>96.42</ele>
        <time>2021-03-20T19:46:21Z</time>
      </trkpt>
      <trkpt lat="58.28486" lon="-4.41714">
        <ele>94.5</ele>
        <time>2021-03-20T19:46:23Z</time>
      </trkpt>
      <trkpt lat="58.28479" lon="-4.41689">
        <ele>94.42</ele>
        <time>2021-03-20T19:46:26Z</time>
      </trkpt>
      <trkpt lat="58.28451" lon="-4.41356">
        <ele>97.39</ele>
        <time>2021-03-20T19:46:28Z</time>
      </trkpt>
      <trkpt lat="58.28437" lon="-4.41238">
        <ele>95.4</ele>
        <time>2021-03-20T19:46:31Z</time>
      </trkpt>
      <trkpt lat="58.28416" lon="-4.41088">
        <ele>96.07</ele>
        <time>2021-03-20T19:46:33Z</time>
      </trkpt>
      <trkpt lat="58.2838" lon="-4.40935">
        <ele>96</ele>
        <time>2021-03-20T19:46:36Z</time>
      </trkpt>
      <trkpt lat="58.28378" lon="-4.40915">
        <ele>96.02</ele>
        <time>2021-03-20T19:46:38Z</time>
      </trkpt>
      <trkpt lat="58.28379" lon="-4.40887">
        <ele>96.36</ele>
        <time>2021-03-20T19:46:41Z</time>
      </trkpt>
      <trkpt lat="58.28414" lon="-4.4059">
        <ele>95.22</ele>
        <time>2021-03-20T19:46:43Z</time>
      </trkpt>
      <trkpt lat="58.28473" lon="-4.40167">
        <ele>89</ele>
        <time>2021-03-20T19:46:46Z</time>
      </trkpt>
      <trkpt lat="58.28508" lon="-4.39986">
        <ele>83.05</ele>
        <time>2021-03-20T19:46:48Z</time>
      </trkpt>
      <trkpt lat="58.28557" lon="-4.39844">
        <ele>80.8</ele>
        <time>2021-03-20T19:46:51Z</time>
      </trkpt>
      <trkpt lat="58.28626" lon="-4.39691">
        <ele>81.57</ele>
        <time>2021-03-20T19:46:53Z</time>
      </trkpt>
      <trkpt lat="58.28665" lon="-4.39624">
        <ele>83.32</ele>
        <time>2021-03-20T19:46:56Z</time>
      </trkpt>
      <trkpt lat="58.28709" lon="-4.39573">
        <ele>85.06</ele>
        <time>2021-03-20T19:46:58Z</time>
      </trkpt>
      <trkpt lat="58.28765" lon="-4.39535">
        <ele>88.46</ele>
        <time>2021-03-20T19:47:01Z</time>
      </trkpt>
      <trkpt lat="58.28806" lon="-4.3953">
        <ele>89.21</ele>
        <time>2021-03-20T19:47:03Z</time>
      </trkpt>
      <trkpt lat="58.28815" lon="-4.39524">
        <ele>89.38</ele>
        <time>2021-03-20T19:47:06Z</time>
      </trkpt>
      <trkpt lat="58.28822" lon="-4.39514">
        <ele>89.21</ele>
        <time>2021-03-20T19:47:08Z</time>
      </trkpt>
      <trkpt lat="58.28829" lon="-4.39488">
        <ele>88.24</ele>
        <time>2021-03-20T19:47:11Z</time>
      </trkpt>
      <trkpt lat="58.28842" lon="-4.39402">
        <ele>85.25</ele>
        <time>2021-03-20T19:47:13Z</time>
      </trkpt>
      <trkpt lat="58.28848" lon="-4.39377">
        <ele>84.42</ele>
        <time>2021-03-20T19:47:16Z</time>
      </trkpt>
      <trkpt lat="58.28889" lon="-4.39283">
        <ele>81.32</ele>
        <time>2021-03-20T19:47:18Z</time>
      </trkpt>
      <trkpt lat="58.2892" lon="-4.39203">
        <ele>81.24</ele>
        <time>2021-03-20T19:47:21Z</time>
      </trkpt>
      <trkpt lat="58.28954" lon="-4.39136">
        <ele>82.95</ele>
        <time>2021-03-20T19:47:23Z</time>
      </trkpt>
      <trkpt lat="58.28997" lon="-4.39077">
        <ele>85.4</ele>
        <time>2021-03-20T19:47:26Z</time>
      </trkpt>
      <trkpt lat="58.29041" lon="-4.39023">
        <ele>87.2</ele>
        <time>2021-03-20T19:47:28Z</time>
      </trkpt>
      <trkpt lat="58.29063" lon="-4.39005">
        <ele>87.86</ele>
        <time>2021-03-20T19:47:31Z</time>
      </trkpt>
      <trkpt lat="58.29101" lon="-4.38978">
        <ele>88.6</ele>
        <time>2021-03-20T19:47:33Z</time>
      </trkpt>
      <trkpt lat="58.29121" lon="-4.38955">
        <ele>88.35</ele>
        <time>2021-03-20T19:47:36Z</time>
      </trkpt>
      <trkpt lat="58.2913" lon="-4.38933">
        <ele>88.26</ele>
        <time>2021-03-20T19:47:38Z</time>
      </trkpt>
      <trkpt lat="58.29135" lon="-4.38893">
        <ele>87.75</ele>
        <time>2021-03-20T19:47:41Z</time>
      </trkpt>
      <trkpt lat="58.29141" lon="-4.38806">
        <ele>86.39</ele>
        <time>2021-03-20T19:47:43Z</time>
      </trkpt>
      <trkpt lat="58.29148" lon="-4.38765">
        <ele>85.67</ele>
        <time>2021-03-20T19:47:46Z</time>
      </trkpt>
      <trkpt lat="58.29163" lon="-4.38718">
        <ele>84.25</ele>
        <time>2021-03-20T19:47:48Z</time>
      </trkpt>
      <trkpt lat="58.29171" lon="-4.38705">
        <ele>84.33</ele>
        <time>2021-03-20T19:47:51Z</time>
      </trkpt>
      <trkpt lat="58.29229" lon="-4.38656">
        <ele>88</ele>
        <time>2021-03-20T19:47:53Z</time>
      </trkpt>
      <trkpt lat="58.29243" lon="-4.38642">
        <ele>88.46</ele>
        <time>2021-03-20T19:47:56Z</time>
      </trkpt>
      <trkpt lat="58.29255" lon="-4.3862">
        <ele>87.94</ele>
        <time>2021-03-20T19:47:58Z</time>
      </trkpt>
      <trkpt lat="58.29264" lon="-4.38588">
        <ele>88.14</ele>
        <time>2021-03-20T19:48:01Z</time>
      </trkpt>
      <trkpt lat="58.29266" lon="-4.38546">
        <ele>87.53</ele>
        <time>2021-03-20T19:48:03Z</time>
      </trkpt>
      <trkpt lat="58.29267" lon="-4.38423">
        <ele>88.32</ele>
        <time>2021-03-20T19:48:06Z</time>
      </trkpt>
      <trkpt lat="58.29262" lon="-4.3834">
        <ele>86.65</ele>
        <time>2021-03-20T19:48:08Z</time>
      </trkpt>
      <trkpt lat="58.29262" lon="-4.38303">
        <ele>85.39</ele>
        <time>2021-03-20T19:48:11Z</time>
      </trkpt>
      <trkpt lat="58.29265" lon="-4.38281">
        <ele>84.92</ele>
        <time>2021-03-20T19:48:13Z</time>
      </trkpt>
      <trkpt lat="58.29287" lon="-4.38232">
        <ele>85.64</ele>
        <time>2021-03-20T19:48:16Z</time>
      </trkpt>
      <trkpt lat="58.2932" lon="-4.38173">
        <ele>85.65</ele>
        <time>2021-03-20T19:48:18Z</time>
      </trkpt>
      <trkpt lat="58.29331" lon="-4.3815">
        <ele>84.64</ele>
        <time>2021-03-20T19:48:21Z</time>
      </trkpt>
      <trkpt lat="58.29358" lon="-4.38064">
        <ele>84.06</ele>
        <time>2021-03-20T19:48:23Z</time>
      </trkpt>
      <trkpt lat="58.29366" lon="-4.38052">
        <ele>84.68</ele>
        <time>2021-03-20T19:48:26Z</time>
      </trkpt>
      <trkpt lat="58.29382" lon="-4.38035">
        <ele>86.39</ele>
        <time>2021-03-20T19:48:28Z</time>
      </trkpt>
      <trkpt lat="58.29421" lon="-4.38013">
        <ele>89.26</ele>
        <time>2021-03-20T19:48:31Z</time>
      </trkpt>
      <trkpt lat="58.29443" lon="-4.37997">
        <ele>88.67</ele>
        <time>2021-03-20T19:48:33Z</time>
      </trkpt>
      <trkpt lat="58.2945" lon="-4.37988">
        <ele>88.69</ele>
        <time>2021-03-20T19:48:36Z</time>
      </trkpt>
      <trkpt lat="58.29454" lon="-4.37973">
        <ele>88.07</ele>
        <time>2021-03-20T19:48:38Z</time>
      </trkpt>
      <trkpt lat="58.29467" lon="-4.37844">
        <ele>81.87</ele>
        <time>2021-03-20T19:48:41Z</time>
      </trkpt>
      <trkpt lat="58.29468" lon="-4.37789">
        <ele>81.63</ele>
        <time>2021-03-20T19:48:43Z</time>
      </trkpt>
      <trkpt lat="58.2947" lon="-4.37767">
        <ele>81.46</ele>
        <time>2021-03-20T19:48:46Z</time>
      </trkpt>
      <trkpt lat="58.29507" lon="-4.37657">
        <ele>80.74</ele>
        <time>2021-03-20T19:48:48Z</time>
      </trkpt>
      <trkpt lat="58.29551" lon="-4.37468">
        <ele>80.69</ele>
        <time>2021-03-20T19:48:51Z</time>
      </trkpt>
      <trkpt lat="58.29571" lon="-4.37411">
        <ele>80.34</ele>
        <time>2021-03-20T19:48:53Z</time>
      </trkpt>
      <trkpt lat="58.29598" lon="-4.37359">
        <ele>80.99</ele>
        <time>2021-03-20T19:48:56Z</time>
      </trkpt>
      <trkpt lat="58.29617" lon="-4.37327">
        <ele>81.22</ele>
        <time>2021-03-20T19:48:58Z</time>
      </trkpt>
      <trkpt lat="58.29635" lon="-4.37313">
        <ele>81.86</ele>
        <time>2021-03-20T19:49:01Z</time>
      </trkpt>
      <trkpt lat="58.29663" lon="-4.37307">
        <ele>82.04</ele>
        <time>2021-03-20T19:49:03Z</time>
      </trkpt>
      <trkpt lat="58.29687" lon="-4.37292">
        <ele>81.5</ele>
        <time>2021-03-20T19:49:06Z</time>
      </trkpt>
      <trkpt lat="58.2971" lon="-4.37261">
        <ele>83.25</ele>
        <time>2021-03-20T19:49:08Z</time>
      </trkpt>
      <trkpt lat="58.29726" lon="-4.37227">
        <ele>85.85</ele>
        <time>2021-03-20T19:49:11Z</time>
      </trkpt>
      <trkpt lat="58.29739" lon="-4.37178">
        <ele>88.94</ele>
        <time>2021-03-20T19:49:13Z</time>
      </trkpt>
      <trkpt lat="58.29746" lon="-4.37126">
        <ele>90.49</ele>
        <time>2021-03-20T19:49:16Z</time>
      </trkpt>
      <trkpt lat="58.29747" lon="-4.37093">
        <ele>90.22</ele>
        <time>2021-03-20T19:49:18Z</time>
      </trkpt>
      <trkpt lat="58.29744" lon="-4.37035">
        <ele>90.24</ele>
        <time>2021-03-20T19:49:21Z</time>
      </trkpt>
      <trkpt lat="58.29745" lon="-4.3702">
        <ele>90.65</ele>
        <time>2021-03-20T19:49:23Z</time>
      </trkpt>
      <trkpt lat="58.29771" lon="-4.36886">
        <ele>89.59</ele>
        <time>2021-03-20T19:49:26Z</time>
      </trkpt>
      <trkpt lat="58.29783" lon="-4.36833">
        <ele>91.18</ele>
        <time>2021-03-20T19:49:28Z</time>
      </trkpt>
      <trkpt lat="58.29792" lon="-4.36744">
        <ele>88.35</ele>
        <time>2021-03-20T19:49:31Z</time>
      </trkpt>
      <trkpt lat="58.29803" lon="-4.367">
        <ele>87.99</ele>
        <time>2021-03-20T19:49:33Z</time>
      </trkpt>
      <trkpt lat="58.29812" lon="-4.36641">
        <ele>87.73</ele>
        <time>2021-03-20T19:49:36Z</time>
      </trkpt>
      <trkpt lat="58.29818" lon="-4.36573">
        <ele>86.46</ele>
        <time>2021-03-20T19:49:38Z</time>
      </trkpt>
      <trkpt lat="58.29847" lon="-4.36461">
        <ele>88.2</ele>
        <time>2021-03-20T19:49:41Z</time>
      </trkpt>
      <trkpt lat="58.2989" lon="-4.36279">
        <ele>85.27</ele>
        <time>2021-03-20T19:49:43Z</time>
      </trkpt>
      <trkpt lat="58.29902" lon="-4.3624">
        <ele>85.37</ele>
        <time>2021-03-20T19:49:46Z</time>
      </trkpt>
      <trkpt lat="58.29918" lon="-4.36215">
        <ele>85.61</ele>
        <time>2021-03-20T19:49:48Z</time>
      </trkpt>
      <trkpt lat="58.29935" lon="-4.36196">
        <ele>86.15</ele>
        <time>2021-03-20T19:49:51Z</time>
      </trkpt>
      <trkpt lat="58.29946" lon="-4.36192">
        <ele>86.86</ele>
        <time>2021-03-20T19:49:53Z</time>
      </trkpt>
      <trkpt lat="58.2996" lon="-4.36199">
        <ele>88.7</ele>
        <time>2021-03-20T19:49:56Z</time>
      </trkpt>
      <trkpt lat="58.29972" lon="-4.36213">
        <ele>91.65</ele>
        <time>2021-03-20T19:49:58Z</time>
      </trkpt>
      <trkpt lat="58.29985" lon="-4.36218">
        <ele>93.79</ele>
        <time>2021-03-20T19:50:01Z</time>
      </trkpt>
      <trkpt lat="58.30002" lon="-4.36206">
        <ele>93.95</ele>
        <time>2021-03-20T19:50:03Z</time>
      </trkpt>
      <trkpt lat="58.30016" lon="-4.36175">
        <ele>91.76</ele>
        <time>2021-03-20T19:50:06Z</time>
      </trkpt>
      <trkpt lat="58.3002" lon="-4.36135">
        <ele>88.19</ele>
        <time>2021-03-20T19:50:08Z</time>
      </trkpt>
      <trkpt lat="58.30019" lon="-4.36084">
        <ele>83.37</ele>
        <time>2021-03-20T19:50:11Z</time>
      </trkpt>
      <trkpt lat="58.30021" lon="-4.36055">
        <ele>81.79</ele>
        <time>2021-03-20T19:50:13Z</time>
      </trkpt>
      <trkpt lat="58.30028" lon="-4.36035">
        <ele>81.37</ele>
        <time>2021-03-20T19:50:16Z</time>
      </trkpt>
      <trkpt lat="58.30036" lon="-4.36024">
        <ele>82.28</ele>
        <time>2021-03-20T19:50:18Z</time>
      </trkpt>
      <trkpt lat="58.30047" lon="-4.36017">
        <ele>83.46</ele>
        <time>2021-03-20T19:50:21Z</time>
      </trkpt>
      <trkpt lat="58.30059" lon="-4.36015">
        <ele>85.17</ele>
        <time>2021-03-20T19:50:23Z</time>
      </trkpt>
      <trkpt lat="58.30081" lon="-4.36023">
        <ele>90.76</ele>
        <time>2021-03-20T19:50:26Z</time>
      </trkpt>
      <trkpt lat="58.30092" lon="-4.36024">
        <ele>92.98</ele>
        <time>2021-03-20T19:50:29Z</time>
      </trkpt>
      <trkpt lat="58.30105" lon="-4.36008">
        <ele>92.32</ele>
        <time>2021-03-20T19:50:31Z</time>
      </trkpt>
      <trkpt lat="58.30124" lon="-4.3595">
        <ele>90.01</ele>
        <time>2021-03-20T19:50:34Z</time>
      </trkpt>
      <trkpt lat="58.3015" lon="-4.35901">
        <ele>90.54</ele>
        <time>2021-03-20T19:50:36Z</time>
      </trkpt>
      <trkpt lat="58.30154" lon="-4.35881">
        <ele>88.91</ele>
        <time>2021-03-20T19:50:39Z</time>
      </trkpt>
      <trkpt lat="58.30151" lon="-4.35825">
        <ele>84.59</ele>
        <time>2021-03-20T19:50:41Z</time>
      </trkpt>
      <trkpt lat="58.30153" lon="-4.35802">
        <ele>84.55</ele>
        <time>2021-03-20T19:50:44Z</time>
      </trkpt>
      <trkpt lat="58.30159" lon="-4.35784">
        <ele>81.76</ele>
        <time>2021-03-20T19:50:46Z</time>
      </trkpt>
      <trkpt lat="58.30172" lon="-4.35781">
        <ele>80.26</ele>
        <time>2021-03-20T19:50:49Z</time>
      </trkpt>
      <trkpt lat="58.30185" lon="-4.35787">
        <ele>80.92</ele>
        <time>2021-03-20T19:50:51Z</time>
      </trkpt>
      <trkpt lat="58.30209" lon="-4.35804">
        <ele>86.78</ele>
        <time>2021-03-20T19:50:54Z</time>
      </trkpt>
      <trkpt lat="58.30235" lon="-4.35811">
        <ele>90.85</ele>
        <time>2021-03-20T19:50:56Z</time>
      </trkpt>
      <trkpt lat="58.30253" lon="-4.35803">
        <ele>91.24</ele>
        <time>2021-03-20T19:50:59Z</time>
      </trkpt>
      <trkpt lat="58.30266" lon="-4.3578">
        <ele>90.22</ele>
        <time>2021-03-20T19:51:01Z</time>
      </trkpt>
      <trkpt lat="58.30289" lon="-4.35728">
        <ele>90.97</ele>
        <time>2021-03-20T19:51:04Z</time>
      </trkpt>
      <trkpt lat="58.30304" lon="-4.35653">
        <ele>87.79</ele>
        <time>2021-03-20T19:51:06Z</time>
      </trkpt>
      <trkpt lat="58.30323" lon="-4.35519">
        <ele>83.11</ele>
        <time>2021-03-20T19:51:09Z</time>
      </trkpt>
      <trkpt lat="58.3033" lon="-4.35508">
        <ele>82.52</ele>
        <time>2021-03-20T19:51:11Z</time>
      </trkpt>
      <trkpt lat="58.30345" lon="-4.35503">
        <ele>83.6</ele>
        <time>2021-03-20T19:51:14Z</time>
      </trkpt>
      <trkpt lat="58.30368" lon="-4.35509">
        <ele>87</ele>
        <time>2021-03-20T19:51:16Z</time>
      </trkpt>
      <trkpt lat="58.30392" lon="-4.35499">
        <ele>87.96</ele>
        <time>2021-03-20T19:51:19Z</time>
      </trkpt>
      <trkpt lat="58.30413" lon="-4.3548">
        <ele>86.74</ele>
        <time>2021-03-20T19:51:21Z</time>
      </trkpt>
      <trkpt lat="58.30455" lon="-4.35407">
        <ele>85.78</ele>
        <time>2021-03-20T19:51:24Z</time>
      </trkpt>
      <trkpt lat="58.30469" lon="-4.35335">
        <ele>83.59</ele>
        <time>2021-03-20T19:51:26Z</time>
      </trkpt>
      <trkpt lat="58.30482" lon="-4.35302">
        <ele>82.81</ele>
        <time>2021-03-20T19:51:29Z</time>
      </trkpt>
      <trkpt lat="58.30557" lon="-4.35173">
        <ele>84.87</ele>
        <time>2021-03-20T19:51:31Z</time>
      </trkpt>
      <trkpt lat="58.30625" lon="-4.35025">
        <ele>80.46</ele>
        <time>2021-03-20T19:51:34Z</time>
      </trkpt>
      <trkpt lat="58.30697" lon="-4.34862">
        <ele>84.43</ele>
        <time>2021-03-20T19:51:36Z</time>
      </trkpt>
      <trkpt lat="58.30718" lon="-4.34825">
        <ele>84.86</ele>
        <time>2021-03-20T19:51:39Z</time>
      </trkpt>
      <trkpt lat="58.30768" lon="-4.34771">
        <ele>84.84</ele>
        <time>2021-03-20T19:51:41Z</time>
      </trkpt>
      <trkpt lat="58.30793" lon="-4.34731">
        <ele>85.35</ele>
        <time>2021-03-20T19:51:44Z</time>
      </trkpt>
      <trkpt lat="58.30809" lon="-4.34694">
        <ele>86.38</ele>
        <time>2021-03-20T19:51:46Z</time>
      </trkpt>
      <trkpt lat="58.30819" lon="-4.34646">
        <ele>85.14</ele>
        <time>2021-03-20T19:51:49Z</time>
      </trkpt>
      <trkpt lat="58.30829" lon="-4.34564">
        <ele>83.79</ele>
        <time>2021-03-20T19:51:51Z</time>
      </trkpt>
      <trkpt lat="58.30845" lon="-4.34474">
        <ele>84.15</ele>
        <time>2021-03-20T19:51:54Z</time>
      </trkpt>
      <trkpt lat="58.30938" lon="-4.34261">
        <ele>85.59</ele>
        <time>2021-03-20T19:51:56Z</time>
      </trkpt>
      <trkpt lat="58.30961" lon="-4.34163">
        <ele>84.19</ele>
        <time>2021-03-20T19:51:59Z</time>
      </trkpt>
      <trkpt lat="58.30978" lon="-4.34109">
        <ele>84.71</ele>
        <time>2021-03-20T19:52:01Z</time>
      </trkpt>
      <trkpt lat="58.31004" lon="-4.34046">
        <ele>87.19</ele>
        <time>2021-03-20T19:52:04Z</time>
      </trkpt>
      <trkpt lat="58.31049" lon="-4.33892">
        <ele>88.4</ele>
        <time>2021-03-20T19:52:06Z</time>
      </trkpt>
      <trkpt lat="58.31058" lon="-4.33855">
        <ele>88.07</ele>
        <time>2021-03-20T19:52:09Z</time>
      </trkpt>
      <trkpt lat="58.3106" lon="-4.33816">
        <ele>87.66</ele>
        <time>2021-03-20T19:52:11Z</time>
      </trkpt>
      <trkpt lat="58.31055" lon="-4.33725">
        <ele>86.89</ele>
        <time>2021-03-20T19:52:14Z</time>
      </trkpt>
      <trkpt lat="58.31056" lon="-4.33698">
        <ele>86.16</ele>
        <time>2021-03-20T19:52:16Z</time>
      </trkpt>
      <trkpt lat="58.31061" lon="-4.33669">
        <ele>85.5</ele>
        <time>2021-03-20T19:52:19Z</time>
      </trkpt>
      <trkpt lat="58.3107" lon="-4.33656">
        <ele>85.49</ele>
        <time>2021-03-20T19:52:21Z</time>
      </trkpt>
      <trkpt lat="58.31081" lon="-4.33654">
        <ele>85.95</ele>
        <time>2021-03-20T19:52:24Z</time>
      </trkpt>
      <trkpt lat="58.31098" lon="-4.33659">
        <ele>88.2</ele>
        <time>2021-03-20T19:52:26Z</time>
      </trkpt>
      <trkpt lat="58.31112" lon="-4.33659">
        <ele>89.77</ele>
        <time>2021-03-20T19:52:29Z</time>
      </trkpt>
      <trkpt lat="58.31124" lon="-4.33648">
        <ele>90.28</ele>
        <time>2021-03-20T19:52:31Z</time>
      </trkpt>
      <trkpt lat="58.31136" lon="-4.33621">
        <ele>90.1</ele>
        <time>2021-03-20T19:52:34Z</time>
      </trkpt>
      <trkpt lat="58.31153" lon="-4.33553">
        <ele>91.09</ele>
        <time>2021-03-20T19:52:36Z</time>
      </trkpt>
      <trkpt lat="58.31185" lon="-4.33412">
        <ele>92.42</ele>
        <time>2021-03-20T19:52:39Z</time>
      </trkpt>
      <trkpt lat="58.31198" lon="-4.33317">
        <ele>90.46</ele>
        <time>2021-03-20T19:52:41Z</time>
      </trkpt>
      <trkpt lat="58.31204" lon="-4.33188">
        <ele>92.15</ele>
        <time>2021-03-20T19:52:44Z</time>
      </trkpt>
      <trkpt lat="58.31208" lon="-4.33166">
        <ele>92.36</ele>
        <time>2021-03-20T19:52:46Z</time>
      </trkpt>
      <trkpt lat="58.3126" lon="-4.33054">
        <ele>93.7</ele>
        <time>2021-03-20T19:52:49Z</time>
      </trkpt>
      <trkpt lat="58.31288" lon="-4.32983">
        <ele>95.08</ele>
        <time>2021-03-20T19:52:51Z</time>
      </trkpt>
      <trkpt lat="58.31352" lon="-4.32838">
        <ele>97.49</ele>
        <time>2021-03-20T19:52:54Z</time>
      </trkpt>
      <trkpt lat="58.31404" lon="-4.32746">
        <ele>98.84</ele>
        <time>2021-03-20T19:52:56Z</time>
      </trkpt>
      <trkpt lat="58.31446" lon="-4.32663">
        <ele>99.13</ele>
        <time>2021-03-20T19:52:59Z</time>
      </trkpt>
      <trkpt lat="58.31461" lon="-4.32611">
        <ele>100.18</ele>
        <time>2021-03-20T19:53:01Z</time>
      </trkpt>
      <trkpt lat="58.31496" lon="-4.32444">
        <ele>99.85</ele>
        <time>2021-03-20T19:53:04Z</time>
      </trkpt>
      <trkpt lat="58.315" lon="-4.32391">
        <ele>100.01</ele>
        <time>2021-03-20T19:53:06Z</time>
      </trkpt>
      <trkpt lat="58.31506" lon="-4.32363">
        <ele>100.2</ele>
        <time>2021-03-20T19:53:09Z</time>
      </trkpt>
      <trkpt lat="58.31524" lon="-4.32318">
        <ele>99.38</ele>
        <time>2021-03-20T19:53:11Z</time>
      </trkpt>
      <trkpt lat="58.31543" lon="-4.32253">
        <ele>98.53</ele>
        <time>2021-03-20T19:53:14Z</time>
      </trkpt>
      <trkpt lat="58.31546" lon="-4.32225">
        <ele>98.36</ele>
        <time>2021-03-20T19:53:16Z</time>
      </trkpt>
      <trkpt lat="58.31543" lon="-4.32187">
        <ele>98.11</ele>
        <time>2021-03-20T19:53:19Z</time>
      </trkpt>
      <trkpt lat="58.31545" lon="-4.3214">
        <ele>98.21</ele>
        <time>2021-03-20T19:53:21Z</time>
      </trkpt>
      <trkpt lat="58.31544" lon="-4.32101">
        <ele>98.75</ele>
        <time>2021-03-20T19:53:24Z</time>
      </trkpt>
      <trkpt lat="58.31538" lon="-4.32064">
        <ele>98.8</ele>
        <time>2021-03-20T19:53:26Z</time>
      </trkpt>
      <trkpt lat="58.31524" lon="-4.31998">
        <ele>98.62</ele>
        <time>2021-03-20T19:53:29Z</time>
      </trkpt>
      <trkpt lat="58.31518" lon="-4.31954">
        <ele>98.61</ele>
        <time>2021-03-20T19:53:31Z</time>
      </trkpt>
      <trkpt lat="58.31522" lon="-4.3188">
        <ele>100.23</ele>
        <time>2021-03-20T19:53:34Z</time>
      </trkpt>
      <trkpt lat="58.31522" lon="-4.31833">
        <ele>99.78</ele>
        <time>2021-03-20T19:53:36Z</time>
      </trkpt>
      <trkpt lat="58.31511" lon="-4.31717">
        <ele>99.77</ele>
        <time>2021-03-20T19:53:39Z</time>
      </trkpt>
      <trkpt lat="58.31495" lon="-4.31635">
        <ele>98.6</ele>
        <time>2021-03-20T19:53:41Z</time>
      </trkpt>
      <trkpt lat="58.31492" lon="-4.31569">
        <ele>99.44</ele>
        <time>2021-03-20T19:53:44Z</time>
      </trkpt>
      <trkpt lat="58.31494" lon="-4.31437">
        <ele>100.11</ele>
        <time>2021-03-20T19:53:46Z</time>
      </trkpt>
      <trkpt lat="58.31503" lon="-4.31277">
        <ele>100.37</ele>
        <time>2021-03-20T19:53:49Z</time>
      </trkpt>
      <trkpt lat="58.31502" lon="-4.31232">
        <ele>100.27</ele>
        <time>2021-03-20T19:53:51Z</time>
      </trkpt>
      <trkpt lat="58.31485" lon="-4.3109">
        <ele>97.82</ele>
        <time>2021-03-20T19:53:54Z</time>
      </trkpt>
      <trkpt lat="58.3149" lon="-4.30904">
        <ele>93.94</ele>
        <time>2021-03-20T19:53:56Z</time>
      </trkpt>
      <trkpt lat="58.31494" lon="-4.30842">
        <ele>93.14</ele>
        <time>2021-03-20T19:53:59Z</time>
      </trkpt>
      <trkpt lat="58.31492" lon="-4.30771">
        <ele>90.84</ele>
        <time>2021-03-20T19:54:01Z</time>
      </trkpt>
      <trkpt lat="58.31517" lon="-4.3055">
        <ele>86.43</ele>
        <time>2021-03-20T19:54:04Z</time>
      </trkpt>
      <trkpt lat="58.31514" lon="-4.30514">
        <ele>85.51</ele>
        <time>2021-03-20T19:54:06Z</time>
      </trkpt>
      <trkpt lat="58.31507" lon="-4.30491">
        <ele>84.01</ele>
        <time>2021-03-20T19:54:09Z</time>
      </trkpt>
      <trkpt lat="58.31492" lon="-4.30458">
        <ele>82.56</ele>
        <time>2021-03-20T19:54:11Z</time>
      </trkpt>
      <trkpt lat="58.31489" lon="-4.30427">
        <ele>82.4</ele>
        <time>2021-03-20T19:54:14Z</time>
      </trkpt>
      <trkpt lat="58.315" lon="-4.3031">
        <ele>81.96</ele>
        <time>2021-03-20T19:54:16Z</time>
      </trkpt>
      <trkpt lat="58.31499" lon="-4.30268">
        <ele>80.94</ele>
        <time>2021-03-20T19:54:19Z</time>
      </trkpt>
      <trkpt lat="58.31494" lon="-4.30186">
        <ele>81.3</ele>
        <time>2021-03-20T19:54:21Z</time>
      </trkpt>
      <trkpt lat="58.31493" lon="-4.30091">
        <ele>81.27</ele>
        <time>2021-03-20T19:54:24Z</time>
      </trkpt>
      <trkpt lat="58.31495" lon="-4.29976">
        <ele>81.65</ele>
        <time>2021-03-20T19:54:26Z</time>
      </trkpt>
      <trkpt lat="58.31505" lon="-4.29896">
        <ele>81.61</ele>
        <time>2021-03-20T19:54:29Z</time>
      </trkpt>
      <trkpt lat="58.31504" lon="-4.29848">
        <ele>82.09</ele>
        <time>2021-03-20T19:54:31Z</time>
      </trkpt>
      <trkpt lat="58.31489" lon="-4.29754">
        <ele>82.15</ele>
        <time>2021-03-20T19:54:34Z</time>
      </trkpt>
      <trkpt lat="58.31469" lon="-4.29657">
        <ele>82.75</ele>
        <time>2021-03-20T19:54:36Z</time>
      </trkpt>
      <trkpt lat="58.31444" lon="-4.29491">
        <ele>79.96</ele>
        <time>2021-03-20T19:54:39Z</time>
      </trkpt>
      <trkpt lat="58.31417" lon="-4.29263">
        <ele>81.99</ele>
        <time>2021-03-20T19:54:41Z</time>
      </trkpt>
      <trkpt lat="58.31413" lon="-4.2919">
        <ele>82.67</ele>
        <time>2021-03-20T19:54:44Z</time>
      </trkpt>
      <trkpt lat="58.31401" lon="-4.28883">
        <ele>82.9</ele>
        <time>2021-03-20T19:54:46Z</time>
      </trkpt>
      <trkpt lat="58.31401" lon="-4.28779">
        <ele>82.26</ele>
        <time>2021-03-20T19:54:49Z</time>
      </trkpt>
      <trkpt lat="58.3141" lon="-4.28674">
        <ele>81.49</ele>
        <time>2021-03-20T19:54:51Z</time>
      </trkpt>
      <trkpt lat="58.31423" lon="-4.28596">
        <ele>81.84</ele>
        <time>2021-03-20T19:54:54Z</time>
      </trkpt>
      <trkpt lat="58.31437" lon="-4.28542">
        <ele>83.69</ele>
        <time>2021-03-20T19:54:56Z</time>
      </trkpt>
      <trkpt lat="58.31443" lon="-4.28495">
        <ele>83.71</ele>
        <time>2021-03-20T19:54:59Z</time>
      </trkpt>
      <trkpt lat="58.31445" lon="-4.28441">
        <ele>82.98</ele>
        <time>2021-03-20T19:55:01Z</time>
      </trkpt>
      <trkpt lat="58.31451" lon="-4.28414">
        <ele>82.88</ele>
        <time>2021-03-20T19:55:04Z</time>
      </trkpt>
      <trkpt lat="58.31467" lon="-4.28382">
        <ele>84.97</ele>
        <time>2021-03-20T19:55:06Z</time>
      </trkpt>
      <trkpt lat="58.31476" lon="-4.28348">
        <ele>87.12</ele>
        <time>2021-03-20T19:55:09Z</time>
      </trkpt>
      <trkpt lat="58.31477" lon="-4.28317">
        <ele>87.92</ele>
        <time>2021-03-20T19:55:11Z</time>
      </trkpt>
      <trkpt lat="58.31474" lon="-4.28271">
        <ele>87.28</ele>
        <time>2021-03-20T19:55:14Z</time>
      </trkpt>
      <trkpt lat="58.31463" lon="-4.28211">
        <ele>85.82</ele>
        <time>2021-03-20T19:55:16Z</time>
      </trkpt>
      <trkpt lat="58.31441" lon="-4.28132">
        <ele>83.93</ele>
        <time>2021-03-20T19:55:19Z</time>
      </trkpt>
      <trkpt lat="58.31445" lon="-4.281">
        <ele>85.06</ele>
        <time>2021-03-20T19:55:21Z</time>
      </trkpt>
      <trkpt lat="58.31461" lon="-4.28023">
        <ele>87.43</ele>
        <time>2021-03-20T19:55:24Z</time>
      </trkpt>
      <trkpt lat="58.31467" lon="-4.27983">
        <ele>88.97</ele>
        <time>2021-03-20T19:55:26Z</time>
      </trkpt>
      <trkpt lat="58.31469" lon="-4.27945">
        <ele>88.65</ele>
        <time>2021-03-20T19:55:29Z</time>
      </trkpt>
      <trkpt lat="58.31462" lon="-4.27817">
        <ele>89.86</ele>
        <time>2021-03-20T19:55:31Z</time>
      </trkpt>
      <trkpt lat="58.31462" lon="-4.27771">
        <ele>89.23</ele>
        <time>2021-03-20T19:55:34Z</time>
      </trkpt>
      <trkpt lat="58.31469" lon="-4.27399">
        <ele>89.1</ele>
        <time>2021-03-20T19:55:36Z</time>
      </trkpt>
      <trkpt lat="58.3147" lon="-4.27319">
        <ele>89.08</ele>
        <time>2021-03-20T19:55:39Z</time>
      </trkpt>
      <trkpt lat="58.31464" lon="-4.27061">
        <ele>88.33</ele>
        <time>2021-03-20T19:55:41Z</time>
      </trkpt>
      <trkpt lat="58.31467" lon="-4.269">
        <ele>89.18</ele>
        <time>2021-03-20T19:55:44Z</time>
      </trkpt>
      <trkpt lat="58.31474" lon="-4.26746">
        <ele>88.12</ele>
        <time>2021-03-20T19:55:46Z</time>
      </trkpt>
      <trkpt lat="58.31488" lon="-4.26651">
        <ele>88.93</ele>
        <time>2021-03-20T19:55:49Z</time>
      </trkpt>
      <trkpt lat="58.31506" lon="-4.2656">
        <ele>86.97</ele>
        <time>2021-03-20T19:55:51Z</time>
      </trkpt>
      <trkpt lat="58.3152" lon="-4.26518">
        <ele>85.48</ele>
        <time>2021-03-20T19:55:54Z</time>
      </trkpt>
      <trkpt lat="58.31542" lon="-4.26466">
        <ele>84.36</ele>
        <time>2021-03-20T19:55:56Z</time>
      </trkpt>
      <trkpt lat="58.31558" lon="-4.26399">
        <ele>81.02</ele>
        <time>2021-03-20T19:55:59Z</time>
      </trkpt>
      <trkpt lat="58.31591" lon="-4.2634">
        <ele>80.85</ele>
        <time>2021-03-20T19:56:01Z</time>
      </trkpt>
      <trkpt lat="58.31619" lon="-4.26273">
        <ele>78.86</ele>
        <time>2021-03-20T19:56:04Z</time>
      </trkpt>
      <trkpt lat="58.31734" lon="-4.26113">
        <ele>73.06</ele>
        <time>2021-03-20T19:56:06Z</time>
      </trkpt>
      <trkpt lat="58.31779" lon="-4.26061">
        <ele>73.68</ele>
        <time>2021-03-20T19:56:09Z</time>
      </trkpt>
      <trkpt lat="58.31877" lon="-4.25979">
        <ele>71.94</ele>
        <time>2021-03-20T19:56:11Z</time>
      </trkpt>
      <trkpt lat="58.31956" lon="-4.25922">
        <ele>73.6</ele>
        <time>2021-03-20T19:56:14Z</time>
      </trkpt>
      <trkpt lat="58.32004" lon="-4.25899">
        <ele>73.41</ele>
        <time>2021-03-20T19:56:16Z</time>
      </trkpt>
      <trkpt lat="58.32056" lon="-4.25892">
        <ele>74.33</ele>
        <time>2021-03-20T19:56:19Z</time>
      </trkpt>
      <trkpt lat="58.32097" lon="-4.25877">
        <ele>74.63</ele>
        <time>2021-03-20T19:56:21Z</time>
      </trkpt>
      <trkpt lat="58.32117" lon="-4.25865">
        <ele>74.27</ele>
        <time>2021-03-20T19:56:24Z</time>
      </trkpt>
      <trkpt lat="58.32145" lon="-4.25856">
        <ele>73.62</ele>
        <time>2021-03-20T19:56:26Z</time>
      </trkpt>
      <trkpt lat="58.3218" lon="-4.25859">
        <ele>74.72</ele>
        <time>2021-03-20T19:56:29Z</time>
      </trkpt>
      <trkpt lat="58.32213" lon="-4.25857">
        <ele>73.09</ele>
        <time>2021-03-20T19:56:31Z</time>
      </trkpt>
      <trkpt lat="58.32247" lon="-4.25843">
        <ele>70.92</ele>
        <time>2021-03-20T19:56:34Z</time>
      </trkpt>
      <trkpt lat="58.32309" lon="-4.25801">
        <ele>70.66</ele>
        <time>2021-03-20T19:56:36Z</time>
      </trkpt>
      <trkpt lat="58.32375" lon="-4.25764">
        <ele>69.97</ele>
        <time>2021-03-20T19:56:39Z</time>
      </trkpt>
      <trkpt lat="58.32552" lon="-4.25695">
        <ele>66.14</ele>
        <time>2021-03-20T19:56:41Z</time>
      </trkpt>
      <trkpt lat="58.32573" lon="-4.25695">
        <ele>65.37</ele>
        <time>2021-03-20T19:56:44Z</time>
      </trkpt>
      <trkpt lat="58.32695" lon="-4.25744">
        <ele>65.82</ele>
        <time>2021-03-20T19:56:46Z</time>
      </trkpt>
      <trkpt lat="58.3272" lon="-4.25749">
        <ele>66.84</ele>
        <time>2021-03-20T19:56:49Z</time>
      </trkpt>
      <trkpt lat="58.32739" lon="-4.25742">
        <ele>68.11</ele>
        <time>2021-03-20T19:56:51Z</time>
      </trkpt>
      <trkpt lat="58.32758" lon="-4.25726">
        <ele>67.93</ele>
        <time>2021-03-20T19:56:54Z</time>
      </trkpt>
      <trkpt lat="58.32776" lon="-4.25702">
        <ele>68.12</ele>
        <time>2021-03-20T19:56:56Z</time>
      </trkpt>
      <trkpt lat="58.32795" lon="-4.2569">
        <ele>68.18</ele>
        <time>2021-03-20T19:56:59Z</time>
      </trkpt>
      <trkpt lat="58.32913" lon="-4.25637">
        <ele>67.72</ele>
        <time>2021-03-20T19:57:01Z</time>
      </trkpt>
      <trkpt lat="58.32955" lon="-4.25621">
        <ele>67.44</ele>
        <time>2021-03-20T19:57:04Z</time>
      </trkpt>
      <trkpt lat="58.32977" lon="-4.25619">
        <ele>67.81</ele>
        <time>2021-03-20T19:57:06Z</time>
      </trkpt>
      <trkpt lat="58.33023" lon="-4.25639">
        <ele>68.37</ele>
        <time>2021-03-20T19:57:09Z</time>
      </trkpt>
      <trkpt lat="58.33082" lon="-4.25689">
        <ele>70.01</ele>
        <time>2021-03-20T19:57:11Z</time>
      </trkpt>
      <trkpt lat="58.33089" lon="-4.25693">
        <ele>70.95</ele>
        <time>2021-03-20T19:57:14Z</time>
      </trkpt>
      <trkpt lat="58.33105" lon="-4.25688">
        <ele>70.82</ele>
        <time>2021-03-20T19:57:16Z</time>
      </trkpt>
      <trkpt lat="58.33149" lon="-4.25636">
        <ele>71.36</ele>
        <time>2021-03-20T19:57:19Z</time>
      </trkpt>
      <trkpt lat="58.33273" lon="-4.25518">
        <ele>66.73</ele>
        <time>2021-03-20T19:57:21Z</time>
      </trkpt>
      <trkpt lat="58.33363" lon="-4.25436">
        <ele>67.61</ele>
        <time>2021-03-20T19:57:24Z</time>
      </trkpt>
      <trkpt lat="58.33391" lon="-4.25397">
        <ele>65.36</ele>
        <time>2021-03-20T19:57:26Z</time>
      </trkpt>
      <trkpt lat="58.33416" lon="-4.25355">
        <ele>65.76</ele>
        <time>2021-03-20T19:57:29Z</time>
      </trkpt>
      <trkpt lat="58.33425" lon="-4.25345">
        <ele>66.06</ele>
        <time>2021-03-20T19:57:31Z</time>
      </trkpt>
      <trkpt lat="58.33445" lon="-4.25335">
        <ele>67.07</ele>
        <time>2021-03-20T19:57:34Z</time>
      </trkpt>
      <trkpt lat="58.33601" lon="-4.25287">
        <ele>73.3</ele>
        <time>2021-03-20T19:57:36Z</time>
      </trkpt>
      <trkpt lat="58.3386" lon="-4.25225">
        <ele>71.46</ele>
        <time>2021-03-20T19:57:39Z</time>
      </trkpt>
      <trkpt lat="58.34198" lon="-4.25176">
        <ele>68.66</ele>
        <time>2021-03-20T19:57:41Z</time>
      </trkpt>
      <trkpt lat="58.34296" lon="-4.25165">
        <ele>68.74</ele>
        <time>2021-03-20T19:57:44Z</time>
      </trkpt>
      <trkpt lat="58.34432" lon="-4.2514">
        <ele>70.19</ele>
        <time>2021-03-20T19:57:46Z</time>
      </trkpt>
      <trkpt lat="58.3465" lon="-4.2513">
        <ele>69.14</ele>
        <time>2021-03-20T19:57:49Z</time>
      </trkpt>
      <trkpt lat="58.34714" lon="-4.25118">
        <ele>70.42</ele>
        <time>2021-03-20T19:57:51Z</time>
      </trkpt>
      <trkpt lat="58.34808" lon="-4.25076">
        <ele>73.45</ele>
        <time>2021-03-20T19:57:54Z</time>
      </trkpt>
      <trkpt lat="58.34901" lon="-4.2502">
        <ele>72.38</ele>
        <time>2021-03-20T19:57:56Z</time>
      </trkpt>
      <trkpt lat="58.34926" lon="-4.24996">
        <ele>71.54</ele>
        <time>2021-03-20T19:57:59Z</time>
      </trkpt>
      <trkpt lat="58.35022" lon="-4.24844">
        <ele>68.5</ele>
        <time>2021-03-20T19:58:01Z</time>
      </trkpt>
      <trkpt lat="58.35133" lon="-4.24629">
        <ele>66.41</ele>
        <time>2021-03-20T19:58:04Z</time>
      </trkpt>
      <trkpt lat="58.35245" lon="-4.24438">
        <ele>64.76</ele>
        <time>2021-03-20T19:58:06Z</time>
      </trkpt>
      <trkpt lat="58.35394" lon="-4.24191">
        <ele>58.5</ele>
        <time>2021-03-20T19:58:09Z</time>
      </trkpt>
      <trkpt lat="58.3558" lon="-4.2394">
        <ele>54.87</ele>
        <time>2021-03-20T19:58:11Z</time>
      </trkpt>
      <trkpt lat="58.35852" lon="-4.23577">
        <ele>55.61</ele>
        <time>2021-03-20T19:58:14Z</time>
      </trkpt>
      <trkpt lat="58.35893" lon="-4.23526">
        <ele>54.91</ele>
        <time>2021-03-20T19:58:16Z</time>
      </trkpt>
      <trkpt lat="58.35913" lon="-4.23506">
        <ele>53.57</ele>
        <time>2021-03-20T19:58:19Z</time>
      </trkpt>
      <trkpt lat="58.35933" lon="-4.23492">
        <ele>52.7</ele>
        <time>2021-03-20T19:58:21Z</time>
      </trkpt>
      <trkpt lat="58.35973" lon="-4.23472">
        <ele>52.94</ele>
        <time>2021-03-20T19:58:24Z</time>
      </trkpt>
      <trkpt lat="58.36028" lon="-4.23457">
        <ele>51.44</ele>
        <time>2021-03-20T19:58:26Z</time>
      </trkpt>
      <trkpt lat="58.3627" lon="-4.23421">
        <ele>52.1</ele>
        <time>2021-03-20T19:58:29Z</time>
      </trkpt>
      <trkpt lat="58.36298" lon="-4.23419">
        <ele>52.75</ele>
        <time>2021-03-20T19:58:31Z</time>
      </trkpt>
      <trkpt lat="58.36369" lon="-4.23452">
        <ele>51.47</ele>
        <time>2021-03-20T19:58:34Z</time>
      </trkpt>
      <trkpt lat="58.36437" lon="-4.23433">
        <ele>51.28</ele>
        <time>2021-03-20T19:58:36Z</time>
      </trkpt>
      <trkpt lat="58.36455" lon="-4.23435">
        <ele>50.63</ele>
        <time>2021-03-20T19:58:39Z</time>
      </trkpt>
      <trkpt lat="58.36544" lon="-4.23458">
        <ele>49.47</ele>
        <time>2021-03-20T19:58:41Z</time>
      </trkpt>
      <trkpt lat="58.36571" lon="-4.2346">
        <ele>50.11</ele>
        <time>2021-03-20T19:58:44Z</time>
      </trkpt>
      <trkpt lat="58.36649" lon="-4.23435">
        <ele>50.67</ele>
        <time>2021-03-20T19:58:46Z</time>
      </trkpt>
      <trkpt lat="58.36833" lon="-4.23413">
        <ele>51.85</ele>
        <time>2021-03-20T19:58:49Z</time>
      </trkpt>
      <trkpt lat="58.36857" lon="-4.23408">
        <ele>53.09</ele>
        <time>2021-03-20T19:58:51Z</time>
      </trkpt>
      <trkpt lat="58.36876" lon="-4.23401">
        <ele>53.44</ele>
        <time>2021-03-20T19:58:54Z</time>
      </trkpt>
      <trkpt lat="58.3692" lon="-4.23379">
        <ele>52.76</ele>
        <time>2021-03-20T19:58:56Z</time>
      </trkpt>
      <trkpt lat="58.37156" lon="-4.23196">
        <ele>53.62</ele>
        <time>2021-03-20T19:58:59Z</time>
      </trkpt>
      <trkpt lat="58.37183" lon="-4.23158">
        <ele>53</ele>
        <time>2021-03-20T19:59:01Z</time>
      </trkpt>
      <trkpt lat="58.37223" lon="-4.23082">
        <ele>51.97</ele>
        <time>2021-03-20T19:59:04Z</time>
      </trkpt>
      <trkpt lat="58.37247" lon="-4.23046">
        <ele>51.53</ele>
        <time>2021-03-20T19:59:06Z</time>
      </trkpt>
      <trkpt lat="58.37282" lon="-4.23017">
        <ele>50.36</ele>
        <time>2021-03-20T19:59:09Z</time>
      </trkpt>
      <trkpt lat="58.3748" lon="-4.22897">
        <ele>47.63</ele>
        <time>2021-03-20T19:59:11Z</time>
      </trkpt>
      <trkpt lat="58.37503" lon="-4.22876">
        <ele>47.63</ele>
        <time>2021-03-20T19:59:14Z</time>
      </trkpt>
      <trkpt lat="58.37527" lon="-4.2284">
        <ele>47.19</ele>
        <time>2021-03-20T19:59:16Z</time>
      </trkpt>
      <trkpt lat="58.37582" lon="-4.22723">
        <ele>44.97</ele>
        <time>2021-03-20T19:59:19Z</time>
      </trkpt>
      <trkpt lat="58.37607" lon="-4.22687">
        <ele>47.3</ele>
        <time>2021-03-20T19:59:21Z</time>
      </trkpt>
      <trkpt lat="58.37634" lon="-4.22656">
        <ele>48.32</ele>
        <time>2021-03-20T19:59:24Z</time>
      </trkpt>
      <trkpt lat="58.37715" lon="-4.22572">
        <ele>50.7</ele>
        <time>2021-03-20T19:59:26Z</time>
      </trkpt>
      <trkpt lat="58.37849" lon="-4.22463">
        <ele>48.33</ele>
        <time>2021-03-20T19:59:29Z</time>
      </trkpt>
      <trkpt lat="58.37894" lon="-4.22424">
        <ele>49.3</ele>
        <time>2021-03-20T19:59:31Z</time>
      </trkpt>
      <trkpt lat="58.38005" lon="-4.22309">
        <ele>47.29</ele>
        <time>2021-03-20T19:59:34Z</time>
      </trkpt>
      <trkpt lat="58.38028" lon="-4.22259">
        <ele>46.05</ele>
        <time>2021-03-20T19:59:36Z</time>
      </trkpt>
      <trkpt lat="58.38079" lon="-4.22137">
        <ele>46.93</ele>
        <time>2021-03-20T19:59:39Z</time>
      </trkpt>
      <trkpt lat="58.38163" lon="-4.21917">
        <ele>40</ele>
        <time>2021-03-20T19:59:41Z</time>
      </trkpt>
      <trkpt lat="58.38253" lon="-4.21791">
        <ele>40.05</ele>
        <time>2021-03-20T19:59:44Z</time>
      </trkpt>
      <trkpt lat="58.38385" lon="-4.21573">
        <ele>43.25</ele>
        <time>2021-03-20T19:59:46Z</time>
      </trkpt>
      <trkpt lat="58.38438" lon="-4.21502">
        <ele>45.47</ele>
        <time>2021-03-20T19:59:49Z</time>
      </trkpt>
      <trkpt lat="58.38526" lon="-4.21436">
        <ele>43.58</ele>
        <time>2021-03-20T19:59:51Z</time>
      </trkpt>
      <trkpt lat="58.3856" lon="-4.21398">
        <ele>42.91</ele>
        <time>2021-03-20T19:59:54Z</time>
      </trkpt>
      <trkpt lat="58.38601" lon="-4.21339">
        <ele>42.57</ele>
        <time>2021-03-20T19:59:56Z</time>
      </trkpt>
      <trkpt lat="58.38748" lon="-4.21155">
        <ele>46.42</ele>
        <time>2021-03-20T19:59:59Z</time>
      </trkpt>
      <trkpt lat="58.38789" lon="-4.21098">
        <ele>48.33</ele>
        <time>2021-03-20T20:00:02Z</time>
      </trkpt>
    </trkseg>
  </trk>
</gpx>